<?xml version="1.0" encoding="UTF-8" standalone="no" ?>
<gpx xmlns="http://www.topografix.com/GPX/1/1" xmlns:xsi="http://www.w3.org/2001/XMLSchema-instance" xsi:schemaLocation="http://www.topografix.com/GPX/1/1 http://www.topografix.com/GPX/1/1/gpx.xsd" version="1.1" creator="VisuGPX - https://www.visugpx.com">
  <metadata>
    <name>LLETISSONADA XL</name>
    <desc><![CDATA[LLETISSONADA XL-----------------]]></desc>
  </metadata>
  <trk>
    <name><![CDATA[GranLletissonada]]></name>
    <trkseg>
      <trkpt lat="42.11772" lon="2.45418">
        <ele>494.6</ele>
        <time>2019-04-11T22:43:55Z</time>
      </trkpt>
      <trkpt lat="42.11772" lon="2.45418">
        <ele>495.1</ele>
        <time>2019-04-11T22:43:55Z</time>
      </trkpt>
      <trkpt lat="42.11772" lon="2.45418">
        <ele>495.1</ele>
        <time>2019-04-11T22:43:55Z</time>
      </trkpt>
      <trkpt lat="42.11771" lon="2.45418">
        <ele>495.2</ele>
        <time>2019-04-11T22:43:55Z</time>
      </trkpt>
      <trkpt lat="42.11771" lon="2.45418">
        <ele>495.5</ele>
        <time>2019-04-11T22:43:55Z</time>
      </trkpt>
      <trkpt lat="42.11771" lon="2.45419">
        <ele>495.9</ele>
        <time>2019-04-11T22:43:55Z</time>
      </trkpt>
      <trkpt lat="42.11771" lon="2.45419">
        <ele>495.8</ele>
        <time>2019-04-11T22:43:55Z</time>
      </trkpt>
      <trkpt lat="42.1177" lon="2.45418">
        <ele>496</ele>
        <time>2019-04-11T22:43:56Z</time>
      </trkpt>
      <trkpt lat="42.11768" lon="2.4542">
        <ele>496.8</ele>
        <time>2019-04-11T22:43:56Z</time>
      </trkpt>
      <trkpt lat="42.11767" lon="2.45421">
        <ele>496.7</ele>
        <time>2019-04-11T22:43:57Z</time>
      </trkpt>
      <trkpt lat="42.11767" lon="2.45421">
        <ele>496.8</ele>
        <time>2019-04-11T22:43:57Z</time>
      </trkpt>
      <trkpt lat="42.11766" lon="2.45421">
        <ele>497.2</ele>
        <time>2019-04-11T22:43:57Z</time>
      </trkpt>
      <trkpt lat="42.11765" lon="2.45421">
        <ele>497.3</ele>
        <time>2019-04-11T22:43:58Z</time>
      </trkpt>
      <trkpt lat="42.11765" lon="2.45422">
        <ele>497.6</ele>
        <time>2019-04-11T22:43:58Z</time>
      </trkpt>
      <trkpt lat="42.11765" lon="2.45422">
        <ele>497.7</ele>
        <time>2019-04-11T22:43:58Z</time>
      </trkpt>
      <trkpt lat="42.11765" lon="2.45422">
        <ele>497.8</ele>
        <time>2019-04-11T22:43:58Z</time>
      </trkpt>
      <trkpt lat="42.11765" lon="2.45422">
        <ele>498.1</ele>
        <time>2019-04-11T22:43:58Z</time>
      </trkpt>
      <trkpt lat="42.11765" lon="2.45422">
        <ele>498</ele>
        <time>2019-04-11T22:43:58Z</time>
      </trkpt>
      <trkpt lat="42.11765" lon="2.45422">
        <ele>498.1</ele>
        <time>2019-04-11T22:43:58Z</time>
      </trkpt>
      <trkpt lat="42.11765" lon="2.45422">
        <ele>497.8</ele>
        <time>2019-04-11T22:43:58Z</time>
      </trkpt>
      <trkpt lat="42.11765" lon="2.45421">
        <ele>497.7</ele>
        <time>2019-04-11T22:43:58Z</time>
      </trkpt>
      <trkpt lat="42.11764" lon="2.45421">
        <ele>497.7</ele>
        <time>2019-04-11T22:43:59Z</time>
      </trkpt>
      <trkpt lat="42.11764" lon="2.45421">
        <ele>498</ele>
        <time>2019-04-11T22:43:59Z</time>
      </trkpt>
      <trkpt lat="42.11764" lon="2.45422">
        <ele>498.3</ele>
        <time>2019-04-11T22:43:59Z</time>
      </trkpt>
      <trkpt lat="42.11764" lon="2.45422">
        <ele>498.5</ele>
        <time>2019-04-11T22:43:59Z</time>
      </trkpt>
      <trkpt lat="42.11763" lon="2.45422">
        <ele>498.8</ele>
        <time>2019-04-11T22:43:59Z</time>
      </trkpt>
      <trkpt lat="42.11763" lon="2.45422">
        <ele>498.8</ele>
        <time>2019-04-11T22:43:59Z</time>
      </trkpt>
      <trkpt lat="42.11763" lon="2.45422">
        <ele>499.2</ele>
        <time>2019-04-11T22:43:59Z</time>
      </trkpt>
      <trkpt lat="42.11763" lon="2.45422">
        <ele>499.3</ele>
        <time>2019-04-11T22:43:59Z</time>
      </trkpt>
      <trkpt lat="42.11763" lon="2.45422">
        <ele>499.4</ele>
        <time>2019-04-11T22:43:59Z</time>
      </trkpt>
      <trkpt lat="42.11763" lon="2.45422">
        <ele>499.5</ele>
        <time>2019-04-11T22:43:59Z</time>
      </trkpt>
      <trkpt lat="42.11762" lon="2.45422">
        <ele>499.6</ele>
        <time>2019-04-11T22:43:59Z</time>
      </trkpt>
      <trkpt lat="42.11762" lon="2.45423">
        <ele>499.7</ele>
        <time>2019-04-11T22:44:00Z</time>
      </trkpt>
      <trkpt lat="42.11762" lon="2.45423">
        <ele>499.8</ele>
        <time>2019-04-11T22:44:00Z</time>
      </trkpt>
      <trkpt lat="42.11762" lon="2.45424">
        <ele>499.6</ele>
        <time>2019-04-11T22:44:00Z</time>
      </trkpt>
      <trkpt lat="42.11761" lon="2.45424">
        <ele>499.6</ele>
        <time>2019-04-11T22:44:00Z</time>
      </trkpt>
      <trkpt lat="42.11759" lon="2.45425">
        <ele>499.6</ele>
        <time>2019-04-11T22:44:01Z</time>
      </trkpt>
      <trkpt lat="42.11758" lon="2.45425">
        <ele>499.3</ele>
        <time>2019-04-11T22:44:02Z</time>
      </trkpt>
      <trkpt lat="42.11756" lon="2.45426">
        <ele>498.9</ele>
        <time>2019-04-11T22:44:02Z</time>
      </trkpt>
      <trkpt lat="42.11755" lon="2.45426">
        <ele>498.6</ele>
        <time>2019-04-11T22:44:03Z</time>
      </trkpt>
      <trkpt lat="42.11754" lon="2.45426">
        <ele>498.3</ele>
        <time>2019-04-11T22:44:03Z</time>
      </trkpt>
      <trkpt lat="42.1175" lon="2.45427">
        <ele>498.2</ele>
        <time>2019-04-11T22:44:05Z</time>
      </trkpt>
      <trkpt lat="42.11749" lon="2.45428">
        <ele>498</ele>
        <time>2019-04-11T22:44:05Z</time>
      </trkpt>
      <trkpt lat="42.11744" lon="2.45431">
        <ele>498.5</ele>
        <time>2019-04-11T22:44:07Z</time>
      </trkpt>
      <trkpt lat="42.11741" lon="2.45432">
        <ele>498.7</ele>
        <time>2019-04-11T22:44:09Z</time>
      </trkpt>
      <trkpt lat="42.11739" lon="2.45433">
        <ele>499.1</ele>
        <time>2019-04-11T22:44:10Z</time>
      </trkpt>
      <trkpt lat="42.11735" lon="2.45434">
        <ele>500.7</ele>
        <time>2019-04-11T22:44:11Z</time>
      </trkpt>
      <trkpt lat="42.11734" lon="2.45434">
        <ele>501.2</ele>
        <time>2019-04-11T22:44:12Z</time>
      </trkpt>
      <trkpt lat="42.11733" lon="2.45434">
        <ele>501.3</ele>
        <time>2019-04-11T22:44:12Z</time>
      </trkpt>
      <trkpt lat="42.11733" lon="2.45435">
        <ele>501.7</ele>
        <time>2019-04-11T22:44:12Z</time>
      </trkpt>
      <trkpt lat="42.11732" lon="2.45435">
        <ele>502.1</ele>
        <time>2019-04-11T22:44:13Z</time>
      </trkpt>
      <trkpt lat="42.11726" lon="2.45437">
        <ele>503</ele>
        <time>2019-04-11T22:44:15Z</time>
      </trkpt>
      <trkpt lat="42.11723" lon="2.45439">
        <ele>502.7</ele>
        <time>2019-04-11T22:44:17Z</time>
      </trkpt>
      <trkpt lat="42.1172" lon="2.4544">
        <ele>502.3</ele>
        <time>2019-04-11T22:44:18Z</time>
      </trkpt>
      <trkpt lat="42.11719" lon="2.45441">
        <ele>502.1</ele>
        <time>2019-04-11T22:44:18Z</time>
      </trkpt>
      <trkpt lat="42.11715" lon="2.45443">
        <ele>501.1</ele>
        <time>2019-04-11T22:44:20Z</time>
      </trkpt>
      <trkpt lat="42.11714" lon="2.45444">
        <ele>501.1</ele>
        <time>2019-04-11T22:44:20Z</time>
      </trkpt>
      <trkpt lat="42.11712" lon="2.45445">
        <ele>501.2</ele>
        <time>2019-04-11T22:44:21Z</time>
      </trkpt>
      <trkpt lat="42.11711" lon="2.45446">
        <ele>500.8</ele>
        <time>2019-04-11T22:44:22Z</time>
      </trkpt>
      <trkpt lat="42.11709" lon="2.45447">
        <ele>500.7</ele>
        <time>2019-04-11T22:44:22Z</time>
      </trkpt>
      <trkpt lat="42.11708" lon="2.45448">
        <ele>500.6</ele>
        <time>2019-04-11T22:44:23Z</time>
      </trkpt>
      <trkpt lat="42.11707" lon="2.45449">
        <ele>500.3</ele>
        <time>2019-04-11T22:44:23Z</time>
      </trkpt>
      <trkpt lat="42.11705" lon="2.45451">
        <ele>500.1</ele>
        <time>2019-04-11T22:44:25Z</time>
      </trkpt>
      <trkpt lat="42.11697" lon="2.45455">
        <ele>499</ele>
        <time>2019-04-11T22:44:28Z</time>
      </trkpt>
      <trkpt lat="42.11689" lon="2.4546">
        <ele>496.7</ele>
        <time>2019-04-11T22:44:31Z</time>
      </trkpt>
      <trkpt lat="42.11685" lon="2.45462">
        <ele>495.7</ele>
        <time>2019-04-11T22:44:33Z</time>
      </trkpt>
      <trkpt lat="42.11678" lon="2.45466">
        <ele>494.8</ele>
        <time>2019-04-11T22:44:36Z</time>
      </trkpt>
      <trkpt lat="42.11677" lon="2.45467">
        <ele>494.9</ele>
        <time>2019-04-11T22:44:37Z</time>
      </trkpt>
      <trkpt lat="42.11673" lon="2.45469">
        <ele>494.7</ele>
        <time>2019-04-11T22:44:38Z</time>
      </trkpt>
      <trkpt lat="42.11663" lon="2.45474">
        <ele>495.3</ele>
        <time>2019-04-11T22:44:43Z</time>
      </trkpt>
      <trkpt lat="42.11662" lon="2.45475">
        <ele>495.1</ele>
        <time>2019-04-11T22:44:43Z</time>
      </trkpt>
      <trkpt lat="42.11658" lon="2.45477">
        <ele>495.4</ele>
        <time>2019-04-11T22:44:45Z</time>
      </trkpt>
      <trkpt lat="42.11656" lon="2.45478">
        <ele>495.3</ele>
        <time>2019-04-11T22:44:46Z</time>
      </trkpt>
      <trkpt lat="42.11637" lon="2.45488">
        <ele>496.1</ele>
        <time>2019-04-11T22:44:54Z</time>
      </trkpt>
      <trkpt lat="42.11635" lon="2.45489">
        <ele>496.3</ele>
        <time>2019-04-11T22:44:55Z</time>
      </trkpt>
      <trkpt lat="42.11626" lon="2.45493">
        <ele>495.7</ele>
        <time>2019-04-11T22:44:58Z</time>
      </trkpt>
      <trkpt lat="42.11623" lon="2.45493">
        <ele>495.2</ele>
        <time>2019-04-11T22:45:00Z</time>
      </trkpt>
      <trkpt lat="42.1162" lon="2.45494">
        <ele>494.7</ele>
        <time>2019-04-11T22:45:01Z</time>
      </trkpt>
      <trkpt lat="42.11619" lon="2.45495">
        <ele>494.3</ele>
        <time>2019-04-11T22:45:01Z</time>
      </trkpt>
      <trkpt lat="42.11612" lon="2.45498">
        <ele>492.2</ele>
        <time>2019-04-11T22:45:04Z</time>
      </trkpt>
      <trkpt lat="42.11611" lon="2.45499">
        <ele>491.7</ele>
        <time>2019-04-11T22:45:05Z</time>
      </trkpt>
      <trkpt lat="42.11608" lon="2.45499">
        <ele>491</ele>
        <time>2019-04-11T22:45:06Z</time>
      </trkpt>
      <trkpt lat="42.11605" lon="2.45498">
        <ele>490.2</ele>
        <time>2019-04-11T22:45:07Z</time>
      </trkpt>
      <trkpt lat="42.11604" lon="2.45498">
        <ele>490.1</ele>
        <time>2019-04-11T22:45:08Z</time>
      </trkpt>
      <trkpt lat="42.11603" lon="2.45499">
        <ele>490</ele>
        <time>2019-04-11T22:45:08Z</time>
      </trkpt>
      <trkpt lat="42.11596" lon="2.45501">
        <ele>490</ele>
        <time>2019-04-11T22:45:11Z</time>
      </trkpt>
      <trkpt lat="42.11594" lon="2.45501">
        <ele>490</ele>
        <time>2019-04-11T22:45:12Z</time>
      </trkpt>
      <trkpt lat="42.11592" lon="2.45501">
        <ele>490.1</ele>
        <time>2019-04-11T22:45:12Z</time>
      </trkpt>
      <trkpt lat="42.11589" lon="2.455">
        <ele>490.4</ele>
        <time>2019-04-11T22:45:14Z</time>
      </trkpt>
      <trkpt lat="42.11587" lon="2.45499">
        <ele>490.7</ele>
        <time>2019-04-11T22:45:14Z</time>
      </trkpt>
      <trkpt lat="42.11586" lon="2.45498">
        <ele>490.6</ele>
        <time>2019-04-11T22:45:15Z</time>
      </trkpt>
      <trkpt lat="42.11576" lon="2.45484">
        <ele>490.8</ele>
        <time>2019-04-11T22:45:21Z</time>
      </trkpt>
      <trkpt lat="42.11575" lon="2.45482">
        <ele>491</ele>
        <time>2019-04-11T22:45:22Z</time>
      </trkpt>
      <trkpt lat="42.1156" lon="2.45462">
        <ele>492.1</ele>
        <time>2019-04-11T22:45:30Z</time>
      </trkpt>
      <trkpt lat="42.11559" lon="2.45461">
        <ele>492.1</ele>
        <time>2019-04-11T22:45:31Z</time>
      </trkpt>
      <trkpt lat="42.11556" lon="2.45456">
        <ele>491.8</ele>
        <time>2019-04-11T22:45:32Z</time>
      </trkpt>
      <trkpt lat="42.11555" lon="2.45455">
        <ele>491.7</ele>
        <time>2019-04-11T22:45:33Z</time>
      </trkpt>
      <trkpt lat="42.1152" lon="2.45403">
        <ele>491.7</ele>
        <time>2019-04-11T22:45:54Z</time>
      </trkpt>
      <trkpt lat="42.11519" lon="2.45401">
        <ele>491.6</ele>
        <time>2019-04-11T22:45:55Z</time>
      </trkpt>
      <trkpt lat="42.11503" lon="2.4538">
        <ele>490.9</ele>
        <time>2019-04-11T22:46:03Z</time>
      </trkpt>
      <trkpt lat="42.11503" lon="2.45378">
        <ele>490.7</ele>
        <time>2019-04-11T22:46:04Z</time>
      </trkpt>
      <trkpt lat="42.11488" lon="2.45358">
        <ele>489.5</ele>
        <time>2019-04-11T22:46:12Z</time>
      </trkpt>
      <trkpt lat="42.11469" lon="2.45331">
        <ele>487.7</ele>
        <time>2019-04-11T22:46:23Z</time>
      </trkpt>
      <trkpt lat="42.11468" lon="2.4533">
        <ele>487.2</ele>
        <time>2019-04-11T22:46:24Z</time>
      </trkpt>
      <trkpt lat="42.11467" lon="2.45329">
        <ele>486.8</ele>
        <time>2019-04-11T22:46:25Z</time>
      </trkpt>
      <trkpt lat="42.11465" lon="2.45326">
        <ele>486.5</ele>
        <time>2019-04-11T22:46:26Z</time>
      </trkpt>
      <trkpt lat="42.11462" lon="2.45322">
        <ele>485.8</ele>
        <time>2019-04-11T22:46:27Z</time>
      </trkpt>
      <trkpt lat="42.11458" lon="2.45316">
        <ele>484.8</ele>
        <time>2019-04-11T22:46:30Z</time>
      </trkpt>
      <trkpt lat="42.1145" lon="2.45305">
        <ele>484.2</ele>
        <time>2019-04-11T22:46:34Z</time>
      </trkpt>
      <trkpt lat="42.11447" lon="2.45299">
        <ele>483.7</ele>
        <time>2019-04-11T22:46:37Z</time>
      </trkpt>
      <trkpt lat="42.11442" lon="2.4529">
        <ele>484.7</ele>
        <time>2019-04-11T22:46:40Z</time>
      </trkpt>
      <trkpt lat="42.11438" lon="2.45277">
        <ele>485.2</ele>
        <time>2019-04-11T22:46:44Z</time>
      </trkpt>
      <trkpt lat="42.11438" lon="2.45275">
        <ele>485.4</ele>
        <time>2019-04-11T22:46:45Z</time>
      </trkpt>
      <trkpt lat="42.11431" lon="2.45245">
        <ele>486.2</ele>
        <time>2019-04-11T22:46:54Z</time>
      </trkpt>
      <trkpt lat="42.11431" lon="2.45243">
        <ele>486.2</ele>
        <time>2019-04-11T22:46:54Z</time>
      </trkpt>
      <trkpt lat="42.1143" lon="2.45235">
        <ele>485.8</ele>
        <time>2019-04-11T22:46:57Z</time>
      </trkpt>
      <trkpt lat="42.11428" lon="2.45222">
        <ele>485.2</ele>
        <time>2019-04-11T22:47:01Z</time>
      </trkpt>
      <trkpt lat="42.11427" lon="2.4522">
        <ele>485.4</ele>
        <time>2019-04-11T22:47:01Z</time>
      </trkpt>
      <trkpt lat="42.11426" lon="2.45215">
        <ele>485.6</ele>
        <time>2019-04-11T22:47:03Z</time>
      </trkpt>
      <trkpt lat="42.11426" lon="2.45213">
        <ele>485.7</ele>
        <time>2019-04-11T22:47:04Z</time>
      </trkpt>
      <trkpt lat="42.11424" lon="2.45206">
        <ele>486.1</ele>
        <time>2019-04-11T22:47:06Z</time>
      </trkpt>
      <trkpt lat="42.11422" lon="2.45188">
        <ele>484.8</ele>
        <time>2019-04-11T22:47:11Z</time>
      </trkpt>
      <trkpt lat="42.11422" lon="2.45186">
        <ele>484.7</ele>
        <time>2019-04-11T22:47:12Z</time>
      </trkpt>
      <trkpt lat="42.1142" lon="2.4516">
        <ele>484.1</ele>
        <time>2019-04-11T22:47:20Z</time>
      </trkpt>
      <trkpt lat="42.1142" lon="2.45158">
        <ele>483.9</ele>
        <time>2019-04-11T22:47:20Z</time>
      </trkpt>
      <trkpt lat="42.11418" lon="2.45148">
        <ele>483.3</ele>
        <time>2019-04-11T22:47:23Z</time>
      </trkpt>
      <trkpt lat="42.11416" lon="2.45138">
        <ele>483.2</ele>
        <time>2019-04-11T22:47:26Z</time>
      </trkpt>
      <trkpt lat="42.11415" lon="2.45134">
        <ele>483.4</ele>
        <time>2019-04-11T22:47:28Z</time>
      </trkpt>
      <trkpt lat="42.11414" lon="2.45132">
        <ele>483.5</ele>
        <time>2019-04-11T22:47:28Z</time>
      </trkpt>
      <trkpt lat="42.11414" lon="2.4513">
        <ele>483.8</ele>
        <time>2019-04-11T22:47:29Z</time>
      </trkpt>
      <trkpt lat="42.11414" lon="2.45129">
        <ele>484</ele>
        <time>2019-04-11T22:47:29Z</time>
      </trkpt>
      <trkpt lat="42.11413" lon="2.45128">
        <ele>484.2</ele>
        <time>2019-04-11T22:47:30Z</time>
      </trkpt>
      <trkpt lat="42.11412" lon="2.45127">
        <ele>484.6</ele>
        <time>2019-04-11T22:47:30Z</time>
      </trkpt>
      <trkpt lat="42.11411" lon="2.45125">
        <ele>484.9</ele>
        <time>2019-04-11T22:47:31Z</time>
      </trkpt>
      <trkpt lat="42.1141" lon="2.45121">
        <ele>485.5</ele>
        <time>2019-04-11T22:47:32Z</time>
      </trkpt>
      <trkpt lat="42.11409" lon="2.45119">
        <ele>485.6</ele>
        <time>2019-04-11T22:47:33Z</time>
      </trkpt>
      <trkpt lat="42.11409" lon="2.45117">
        <ele>485.8</ele>
        <time>2019-04-11T22:47:33Z</time>
      </trkpt>
      <trkpt lat="42.11408" lon="2.45115">
        <ele>486.2</ele>
        <time>2019-04-11T22:47:34Z</time>
      </trkpt>
      <trkpt lat="42.11407" lon="2.45113">
        <ele>486.6</ele>
        <time>2019-04-11T22:47:35Z</time>
      </trkpt>
      <trkpt lat="42.11405" lon="2.45109">
        <ele>487.1</ele>
        <time>2019-04-11T22:47:36Z</time>
      </trkpt>
      <trkpt lat="42.11404" lon="2.45106">
        <ele>487.8</ele>
        <time>2019-04-11T22:47:37Z</time>
      </trkpt>
      <trkpt lat="42.11403" lon="2.451">
        <ele>488.2</ele>
        <time>2019-04-11T22:47:39Z</time>
      </trkpt>
      <trkpt lat="42.11403" lon="2.45098">
        <ele>488.2</ele>
        <time>2019-04-11T22:47:40Z</time>
      </trkpt>
      <trkpt lat="42.11403" lon="2.45091">
        <ele>488.8</ele>
        <time>2019-04-11T22:47:42Z</time>
      </trkpt>
      <trkpt lat="42.11403" lon="2.45089">
        <ele>488.8</ele>
        <time>2019-04-11T22:47:42Z</time>
      </trkpt>
      <trkpt lat="42.11404" lon="2.45088">
        <ele>488.5</ele>
        <time>2019-04-11T22:47:43Z</time>
      </trkpt>
      <trkpt lat="42.11404" lon="2.45079">
        <ele>489.2</ele>
        <time>2019-04-11T22:47:45Z</time>
      </trkpt>
      <trkpt lat="42.11405" lon="2.45071">
        <ele>489.6</ele>
        <time>2019-04-11T22:47:48Z</time>
      </trkpt>
      <trkpt lat="42.11409" lon="2.45049">
        <ele>488.4</ele>
        <time>2019-04-11T22:47:54Z</time>
      </trkpt>
      <trkpt lat="42.1141" lon="2.45043">
        <ele>488.3</ele>
        <time>2019-04-11T22:47:56Z</time>
      </trkpt>
      <trkpt lat="42.11416" lon="2.45026">
        <ele>485.6</ele>
        <time>2019-04-11T22:48:02Z</time>
      </trkpt>
      <trkpt lat="42.11418" lon="2.4502">
        <ele>484.3</ele>
        <time>2019-04-11T22:48:04Z</time>
      </trkpt>
      <trkpt lat="42.11419" lon="2.45016">
        <ele>483.3</ele>
        <time>2019-04-11T22:48:05Z</time>
      </trkpt>
      <trkpt lat="42.11419" lon="2.45014">
        <ele>483.2</ele>
        <time>2019-04-11T22:48:06Z</time>
      </trkpt>
      <trkpt lat="42.11419" lon="2.45008">
        <ele>482.6</ele>
        <time>2019-04-11T22:48:07Z</time>
      </trkpt>
      <trkpt lat="42.1142" lon="2.45002">
        <ele>481.8</ele>
        <time>2019-04-11T22:48:09Z</time>
      </trkpt>
      <trkpt lat="42.1142" lon="2.45">
        <ele>481.3</ele>
        <time>2019-04-11T22:48:10Z</time>
      </trkpt>
      <trkpt lat="42.11419" lon="2.44999">
        <ele>481.1</ele>
        <time>2019-04-11T22:48:10Z</time>
      </trkpt>
      <trkpt lat="42.11418" lon="2.44997">
        <ele>480.8</ele>
        <time>2019-04-11T22:48:11Z</time>
      </trkpt>
      <trkpt lat="42.11417" lon="2.44996">
        <ele>480.7</ele>
        <time>2019-04-11T22:48:11Z</time>
      </trkpt>
      <trkpt lat="42.11413" lon="2.44994">
        <ele>480.8</ele>
        <time>2019-04-11T22:48:13Z</time>
      </trkpt>
      <trkpt lat="42.11403" lon="2.44992">
        <ele>481.2</ele>
        <time>2019-04-11T22:48:17Z</time>
      </trkpt>
      <trkpt lat="42.11402" lon="2.44992">
        <ele>481.3</ele>
        <time>2019-04-11T22:48:18Z</time>
      </trkpt>
      <trkpt lat="42.11391" lon="2.4499">
        <ele>482.2</ele>
        <time>2019-04-11T22:48:22Z</time>
      </trkpt>
      <trkpt lat="42.11389" lon="2.44989">
        <ele>482.2</ele>
        <time>2019-04-11T22:48:23Z</time>
      </trkpt>
      <trkpt lat="42.1138" lon="2.44988">
        <ele>482.2</ele>
        <time>2019-04-11T22:48:26Z</time>
      </trkpt>
      <trkpt lat="42.11378" lon="2.44988">
        <ele>482</ele>
        <time>2019-04-11T22:48:27Z</time>
      </trkpt>
      <trkpt lat="42.11363" lon="2.44985">
        <ele>480.9</ele>
        <time>2019-04-11T22:48:33Z</time>
      </trkpt>
      <trkpt lat="42.1136" lon="2.44985">
        <ele>480.7</ele>
        <time>2019-04-11T22:48:34Z</time>
      </trkpt>
      <trkpt lat="42.11357" lon="2.44984">
        <ele>480.6</ele>
        <time>2019-04-11T22:48:36Z</time>
      </trkpt>
      <trkpt lat="42.11354" lon="2.44984">
        <ele>480.6</ele>
        <time>2019-04-11T22:48:37Z</time>
      </trkpt>
      <trkpt lat="42.11323" lon="2.44978">
        <ele>482.7</ele>
        <time>2019-04-11T22:48:49Z</time>
      </trkpt>
      <trkpt lat="42.11309" lon="2.44974">
        <ele>483.7</ele>
        <time>2019-04-11T22:48:55Z</time>
      </trkpt>
      <trkpt lat="42.11308" lon="2.44973">
        <ele>483.7</ele>
        <time>2019-04-11T22:48:56Z</time>
      </trkpt>
      <trkpt lat="42.11291" lon="2.4497">
        <ele>483.7</ele>
        <time>2019-04-11T22:49:02Z</time>
      </trkpt>
      <trkpt lat="42.11286" lon="2.44968">
        <ele>483.6</ele>
        <time>2019-04-11T22:49:04Z</time>
      </trkpt>
      <trkpt lat="42.11285" lon="2.44969">
        <ele>483.3</ele>
        <time>2019-04-11T22:49:05Z</time>
      </trkpt>
      <trkpt lat="42.11283" lon="2.44969">
        <ele>483.3</ele>
        <time>2019-04-11T22:49:06Z</time>
      </trkpt>
      <trkpt lat="42.11282" lon="2.4497">
        <ele>483.2</ele>
        <time>2019-04-11T22:49:06Z</time>
      </trkpt>
      <trkpt lat="42.11281" lon="2.44969">
        <ele>483.3</ele>
        <time>2019-04-11T22:49:07Z</time>
      </trkpt>
      <trkpt lat="42.1128" lon="2.44969">
        <ele>483.3</ele>
        <time>2019-04-11T22:49:07Z</time>
      </trkpt>
      <trkpt lat="42.1128" lon="2.44969">
        <ele>483.2</ele>
        <time>2019-04-11T22:49:07Z</time>
      </trkpt>
      <trkpt lat="42.1128" lon="2.44968">
        <ele>483.2</ele>
        <time>2019-04-11T22:49:07Z</time>
      </trkpt>
      <trkpt lat="42.11279" lon="2.44968">
        <ele>482.8</ele>
        <time>2019-04-11T22:49:08Z</time>
      </trkpt>
      <trkpt lat="42.11278" lon="2.44967">
        <ele>482.8</ele>
        <time>2019-04-11T22:49:08Z</time>
      </trkpt>
      <trkpt lat="42.11277" lon="2.44966">
        <ele>482.8</ele>
        <time>2019-04-11T22:49:09Z</time>
      </trkpt>
      <trkpt lat="42.11272" lon="2.44965">
        <ele>482.6</ele>
        <time>2019-04-11T22:49:11Z</time>
      </trkpt>
      <trkpt lat="42.11271" lon="2.44965">
        <ele>482.5</ele>
        <time>2019-04-11T22:49:11Z</time>
      </trkpt>
      <trkpt lat="42.1127" lon="2.44965">
        <ele>482.3</ele>
        <time>2019-04-11T22:49:11Z</time>
      </trkpt>
      <trkpt lat="42.11269" lon="2.44966">
        <ele>481.9</ele>
        <time>2019-04-11T22:49:12Z</time>
      </trkpt>
      <trkpt lat="42.11268" lon="2.44966">
        <ele>481.7</ele>
        <time>2019-04-11T22:49:12Z</time>
      </trkpt>
      <trkpt lat="42.11241" lon="2.44958">
        <ele>482.8</ele>
        <time>2019-04-11T22:49:23Z</time>
      </trkpt>
      <trkpt lat="42.1124" lon="2.44957">
        <ele>482.6</ele>
        <time>2019-04-11T22:49:24Z</time>
      </trkpt>
      <trkpt lat="42.11238" lon="2.44957">
        <ele>482.8</ele>
        <time>2019-04-11T22:49:25Z</time>
      </trkpt>
      <trkpt lat="42.11225" lon="2.44955">
        <ele>483.3</ele>
        <time>2019-04-11T22:49:30Z</time>
      </trkpt>
      <trkpt lat="42.11215" lon="2.44954">
        <ele>483.3</ele>
        <time>2019-04-11T22:49:34Z</time>
      </trkpt>
      <trkpt lat="42.11213" lon="2.44954">
        <ele>483.6</ele>
        <time>2019-04-11T22:49:34Z</time>
      </trkpt>
      <trkpt lat="42.1121" lon="2.44954">
        <ele>483.7</ele>
        <time>2019-04-11T22:49:36Z</time>
      </trkpt>
      <trkpt lat="42.11181" lon="2.44951">
        <ele>483.2</ele>
        <time>2019-04-11T22:49:47Z</time>
      </trkpt>
      <trkpt lat="42.1118" lon="2.44952">
        <ele>483.3</ele>
        <time>2019-04-11T22:49:48Z</time>
      </trkpt>
      <trkpt lat="42.11172" lon="2.44951">
        <ele>483.8</ele>
        <time>2019-04-11T22:49:51Z</time>
      </trkpt>
      <trkpt lat="42.11169" lon="2.4495">
        <ele>483.9</ele>
        <time>2019-04-11T22:49:52Z</time>
      </trkpt>
      <trkpt lat="42.11166" lon="2.4495">
        <ele>483.8</ele>
        <time>2019-04-11T22:49:54Z</time>
      </trkpt>
      <trkpt lat="42.11158" lon="2.44948">
        <ele>484.2</ele>
        <time>2019-04-11T22:49:57Z</time>
      </trkpt>
      <trkpt lat="42.11156" lon="2.44948">
        <ele>484.3</ele>
        <time>2019-04-11T22:49:57Z</time>
      </trkpt>
      <trkpt lat="42.1115" lon="2.44946">
        <ele>484.8</ele>
        <time>2019-04-11T22:50:00Z</time>
      </trkpt>
      <trkpt lat="42.11148" lon="2.44945">
        <ele>484.9</ele>
        <time>2019-04-11T22:50:01Z</time>
      </trkpt>
      <trkpt lat="42.11113" lon="2.44936">
        <ele>487.5</ele>
        <time>2019-04-11T22:50:15Z</time>
      </trkpt>
      <trkpt lat="42.11112" lon="2.44936">
        <ele>487.5</ele>
        <time>2019-04-11T22:50:16Z</time>
      </trkpt>
      <trkpt lat="42.11029" lon="2.44916">
        <ele>487.7</ele>
        <time>2019-04-11T22:50:49Z</time>
      </trkpt>
      <trkpt lat="42.11027" lon="2.44915">
        <ele>488.1</ele>
        <time>2019-04-11T22:50:50Z</time>
      </trkpt>
      <trkpt lat="42.11019" lon="2.44913">
        <ele>488.5</ele>
        <time>2019-04-11T22:50:53Z</time>
      </trkpt>
      <trkpt lat="42.11013" lon="2.44913">
        <ele>488.8</ele>
        <time>2019-04-11T22:50:56Z</time>
      </trkpt>
      <trkpt lat="42.11012" lon="2.44913">
        <ele>488.5</ele>
        <time>2019-04-11T22:50:56Z</time>
      </trkpt>
      <trkpt lat="42.1101" lon="2.44913">
        <ele>488.6</ele>
        <time>2019-04-11T22:50:57Z</time>
      </trkpt>
      <trkpt lat="42.11005" lon="2.44911">
        <ele>488.7</ele>
        <time>2019-04-11T22:50:59Z</time>
      </trkpt>
      <trkpt lat="42.11003" lon="2.4491">
        <ele>489</ele>
        <time>2019-04-11T22:51:00Z</time>
      </trkpt>
      <trkpt lat="42.11002" lon="2.44908">
        <ele>489.8</ele>
        <time>2019-04-11T22:51:01Z</time>
      </trkpt>
      <trkpt lat="42.10998" lon="2.44905">
        <ele>490.5</ele>
        <time>2019-04-11T22:51:03Z</time>
      </trkpt>
      <trkpt lat="42.10997" lon="2.44904">
        <ele>490.7</ele>
        <time>2019-04-11T22:51:03Z</time>
      </trkpt>
      <trkpt lat="42.10996" lon="2.44903">
        <ele>490.6</ele>
        <time>2019-04-11T22:51:04Z</time>
      </trkpt>
      <trkpt lat="42.10995" lon="2.44901">
        <ele>490.3</ele>
        <time>2019-04-11T22:51:04Z</time>
      </trkpt>
      <trkpt lat="42.10994" lon="2.44901">
        <ele>489.7</ele>
        <time>2019-04-11T22:51:05Z</time>
      </trkpt>
      <trkpt lat="42.10993" lon="2.449">
        <ele>489.3</ele>
        <time>2019-04-11T22:51:05Z</time>
      </trkpt>
      <trkpt lat="42.10991" lon="2.44899">
        <ele>488.7</ele>
        <time>2019-04-11T22:51:06Z</time>
      </trkpt>
      <trkpt lat="42.10988" lon="2.44898">
        <ele>487.7</ele>
        <time>2019-04-11T22:51:07Z</time>
      </trkpt>
      <trkpt lat="42.10985" lon="2.44896">
        <ele>487.2</ele>
        <time>2019-04-11T22:51:09Z</time>
      </trkpt>
      <trkpt lat="42.10984" lon="2.44895">
        <ele>487.1</ele>
        <time>2019-04-11T22:51:09Z</time>
      </trkpt>
      <trkpt lat="42.10981" lon="2.44895">
        <ele>486.7</ele>
        <time>2019-04-11T22:51:10Z</time>
      </trkpt>
      <trkpt lat="42.1098" lon="2.44895">
        <ele>486.7</ele>
        <time>2019-04-11T22:51:10Z</time>
      </trkpt>
      <trkpt lat="42.10979" lon="2.44896">
        <ele>486.7</ele>
        <time>2019-04-11T22:51:11Z</time>
      </trkpt>
      <trkpt lat="42.10977" lon="2.44895">
        <ele>487</ele>
        <time>2019-04-11T22:51:11Z</time>
      </trkpt>
      <trkpt lat="42.10975" lon="2.44895">
        <ele>487.1</ele>
        <time>2019-04-11T22:51:13Z</time>
      </trkpt>
      <trkpt lat="42.10973" lon="2.44896">
        <ele>487.1</ele>
        <time>2019-04-11T22:51:13Z</time>
      </trkpt>
      <trkpt lat="42.10968" lon="2.44895">
        <ele>487.3</ele>
        <time>2019-04-11T22:51:15Z</time>
      </trkpt>
      <trkpt lat="42.10967" lon="2.44895">
        <ele>487.5</ele>
        <time>2019-04-11T22:51:16Z</time>
      </trkpt>
      <trkpt lat="42.10965" lon="2.44894">
        <ele>487.7</ele>
        <time>2019-04-11T22:51:16Z</time>
      </trkpt>
      <trkpt lat="42.10953" lon="2.44885">
        <ele>488.6</ele>
        <time>2019-04-11T22:51:22Z</time>
      </trkpt>
      <trkpt lat="42.10952" lon="2.44884">
        <ele>488.3</ele>
        <time>2019-04-11T22:51:23Z</time>
      </trkpt>
      <trkpt lat="42.10948" lon="2.44882">
        <ele>488.1</ele>
        <time>2019-04-11T22:51:24Z</time>
      </trkpt>
      <trkpt lat="42.10947" lon="2.44881">
        <ele>488.1</ele>
        <time>2019-04-11T22:51:25Z</time>
      </trkpt>
      <trkpt lat="42.10946" lon="2.4488">
        <ele>488.2</ele>
        <time>2019-04-11T22:51:25Z</time>
      </trkpt>
      <trkpt lat="42.10941" lon="2.44878">
        <ele>488.4</ele>
        <time>2019-04-11T22:51:27Z</time>
      </trkpt>
      <trkpt lat="42.10938" lon="2.44876">
        <ele>488.6</ele>
        <time>2019-04-11T22:51:29Z</time>
      </trkpt>
      <trkpt lat="42.10937" lon="2.44875">
        <ele>488.4</ele>
        <time>2019-04-11T22:51:29Z</time>
      </trkpt>
      <trkpt lat="42.10927" lon="2.44867">
        <ele>488.4</ele>
        <time>2019-04-11T22:51:34Z</time>
      </trkpt>
      <trkpt lat="42.10919" lon="2.44862">
        <ele>487.7</ele>
        <time>2019-04-11T22:51:37Z</time>
      </trkpt>
      <trkpt lat="42.10918" lon="2.44861">
        <ele>487.7</ele>
        <time>2019-04-11T22:51:38Z</time>
      </trkpt>
      <trkpt lat="42.10914" lon="2.44859">
        <ele>486.8</ele>
        <time>2019-04-11T22:51:39Z</time>
      </trkpt>
      <trkpt lat="42.10908" lon="2.44855">
        <ele>485</ele>
        <time>2019-04-11T22:51:42Z</time>
      </trkpt>
      <trkpt lat="42.10906" lon="2.44853">
        <ele>484.3</ele>
        <time>2019-04-11T22:51:43Z</time>
      </trkpt>
      <trkpt lat="42.10905" lon="2.44852">
        <ele>483.7</ele>
        <time>2019-04-11T22:51:44Z</time>
      </trkpt>
      <trkpt lat="42.10862" lon="2.44814">
        <ele>483.1</ele>
        <time>2019-04-11T22:52:04Z</time>
      </trkpt>
      <trkpt lat="42.10861" lon="2.44813">
        <ele>483.2</ele>
        <time>2019-04-11T22:52:05Z</time>
      </trkpt>
      <trkpt lat="42.10861" lon="2.44811">
        <ele>483.3</ele>
        <time>2019-04-11T22:52:05Z</time>
      </trkpt>
      <trkpt lat="42.10859" lon="2.4481">
        <ele>483.3</ele>
        <time>2019-04-11T22:52:06Z</time>
      </trkpt>
      <trkpt lat="42.10841" lon="2.44794">
        <ele>485.2</ele>
        <time>2019-04-11T22:52:15Z</time>
      </trkpt>
      <trkpt lat="42.10798" lon="2.44763">
        <ele>486.2</ele>
        <time>2019-04-11T22:52:34Z</time>
      </trkpt>
      <trkpt lat="42.10797" lon="2.44762">
        <ele>486.2</ele>
        <time>2019-04-11T22:52:35Z</time>
      </trkpt>
      <trkpt lat="42.10763" lon="2.44737">
        <ele>484.9</ele>
        <time>2019-04-11T22:52:50Z</time>
      </trkpt>
      <trkpt lat="42.10758" lon="2.44734">
        <ele>485</ele>
        <time>2019-04-11T22:52:52Z</time>
      </trkpt>
      <trkpt lat="42.10728" lon="2.44713">
        <ele>484.8</ele>
        <time>2019-04-11T22:53:06Z</time>
      </trkpt>
      <trkpt lat="42.10702" lon="2.44693">
        <ele>486.3</ele>
        <time>2019-04-11T22:53:18Z</time>
      </trkpt>
      <trkpt lat="42.10701" lon="2.44692">
        <ele>486.3</ele>
        <time>2019-04-11T22:53:18Z</time>
      </trkpt>
      <trkpt lat="42.10693" lon="2.44688">
        <ele>486.4</ele>
        <time>2019-04-11T22:53:22Z</time>
      </trkpt>
      <trkpt lat="42.10675" lon="2.44672">
        <ele>487.6</ele>
        <time>2019-04-11T22:53:31Z</time>
      </trkpt>
      <trkpt lat="42.10672" lon="2.44669">
        <ele>487.4</ele>
        <time>2019-04-11T22:53:32Z</time>
      </trkpt>
      <trkpt lat="42.10665" lon="2.44662">
        <ele>487.7</ele>
        <time>2019-04-11T22:53:35Z</time>
      </trkpt>
      <trkpt lat="42.10664" lon="2.44661">
        <ele>487.8</ele>
        <time>2019-04-11T22:53:36Z</time>
      </trkpt>
      <trkpt lat="42.10663" lon="2.4466">
        <ele>487.8</ele>
        <time>2019-04-11T22:53:36Z</time>
      </trkpt>
      <trkpt lat="42.10662" lon="2.44659">
        <ele>488.1</ele>
        <time>2019-04-11T22:53:37Z</time>
      </trkpt>
      <trkpt lat="42.10649" lon="2.44646">
        <ele>490.6</ele>
        <time>2019-04-11T22:53:44Z</time>
      </trkpt>
      <trkpt lat="42.10632" lon="2.44635">
        <ele>492.6</ele>
        <time>2019-04-11T22:53:51Z</time>
      </trkpt>
      <trkpt lat="42.10631" lon="2.44634">
        <ele>492.7</ele>
        <time>2019-04-11T22:53:51Z</time>
      </trkpt>
      <trkpt lat="42.1063" lon="2.44633">
        <ele>493</ele>
        <time>2019-04-11T22:53:52Z</time>
      </trkpt>
      <trkpt lat="42.10629" lon="2.44632">
        <ele>493.4</ele>
        <time>2019-04-11T22:53:52Z</time>
      </trkpt>
      <trkpt lat="42.10628" lon="2.4463">
        <ele>493.8</ele>
        <time>2019-04-11T22:53:53Z</time>
      </trkpt>
      <trkpt lat="42.10627" lon="2.4463">
        <ele>494.2</ele>
        <time>2019-04-11T22:53:53Z</time>
      </trkpt>
      <trkpt lat="42.10625" lon="2.4463">
        <ele>494.8</ele>
        <time>2019-04-11T22:53:54Z</time>
      </trkpt>
      <trkpt lat="42.10624" lon="2.44631">
        <ele>495.2</ele>
        <time>2019-04-11T22:53:55Z</time>
      </trkpt>
      <trkpt lat="42.10607" lon="2.44648">
        <ele>498.1</ele>
        <time>2019-04-11T22:54:03Z</time>
      </trkpt>
      <trkpt lat="42.10599" lon="2.44655">
        <ele>498.9</ele>
        <time>2019-04-11T22:54:07Z</time>
      </trkpt>
      <trkpt lat="42.10596" lon="2.44657">
        <ele>499</ele>
        <time>2019-04-11T22:54:08Z</time>
      </trkpt>
      <trkpt lat="42.10594" lon="2.4466">
        <ele>499.3</ele>
        <time>2019-04-11T22:54:10Z</time>
      </trkpt>
      <trkpt lat="42.10586" lon="2.44667">
        <ele>499.7</ele>
        <time>2019-04-11T22:54:13Z</time>
      </trkpt>
      <trkpt lat="42.10584" lon="2.44667">
        <ele>499.6</ele>
        <time>2019-04-11T22:54:14Z</time>
      </trkpt>
      <trkpt lat="42.10582" lon="2.4467">
        <ele>499.1</ele>
        <time>2019-04-11T22:54:15Z</time>
      </trkpt>
      <trkpt lat="42.10571" lon="2.44684">
        <ele>498.3</ele>
        <time>2019-04-11T22:54:21Z</time>
      </trkpt>
      <trkpt lat="42.10564" lon="2.44692">
        <ele>497.4</ele>
        <time>2019-04-11T22:54:25Z</time>
      </trkpt>
      <trkpt lat="42.10559" lon="2.44698">
        <ele>497.2</ele>
        <time>2019-04-11T22:54:28Z</time>
      </trkpt>
      <trkpt lat="42.10558" lon="2.447">
        <ele>497.2</ele>
        <time>2019-04-11T22:54:28Z</time>
      </trkpt>
      <trkpt lat="42.10556" lon="2.44703">
        <ele>497</ele>
        <time>2019-04-11T22:54:30Z</time>
      </trkpt>
      <trkpt lat="42.10554" lon="2.44704">
        <ele>496.8</ele>
        <time>2019-04-11T22:54:30Z</time>
      </trkpt>
      <trkpt lat="42.10553" lon="2.44705">
        <ele>496.8</ele>
        <time>2019-04-11T22:54:31Z</time>
      </trkpt>
      <trkpt lat="42.10553" lon="2.44706">
        <ele>496.5</ele>
        <time>2019-04-11T22:54:31Z</time>
      </trkpt>
      <trkpt lat="42.10551" lon="2.44709">
        <ele>495.7</ele>
        <time>2019-04-11T22:54:32Z</time>
      </trkpt>
      <trkpt lat="42.10549" lon="2.4471">
        <ele>495</ele>
        <time>2019-04-11T22:54:33Z</time>
      </trkpt>
      <trkpt lat="42.10543" lon="2.44716">
        <ele>493.7</ele>
        <time>2019-04-11T22:54:36Z</time>
      </trkpt>
      <trkpt lat="42.10541" lon="2.44717">
        <ele>493.6</ele>
        <time>2019-04-11T22:54:37Z</time>
      </trkpt>
      <trkpt lat="42.10529" lon="2.44732">
        <ele>494.5</ele>
        <time>2019-04-11T22:54:43Z</time>
      </trkpt>
      <trkpt lat="42.10526" lon="2.44734">
        <ele>494.8</ele>
        <time>2019-04-11T22:54:45Z</time>
      </trkpt>
      <trkpt lat="42.10523" lon="2.44736">
        <ele>495.1</ele>
        <time>2019-04-11T22:54:46Z</time>
      </trkpt>
      <trkpt lat="42.10511" lon="2.44747">
        <ele>495.2</ele>
        <time>2019-04-11T22:54:52Z</time>
      </trkpt>
      <trkpt lat="42.10501" lon="2.44755">
        <ele>495.2</ele>
        <time>2019-04-11T22:54:56Z</time>
      </trkpt>
      <trkpt lat="42.10484" lon="2.44768">
        <ele>495.1</ele>
        <time>2019-04-11T22:55:04Z</time>
      </trkpt>
      <trkpt lat="42.10483" lon="2.44769">
        <ele>495.1</ele>
        <time>2019-04-11T22:55:05Z</time>
      </trkpt>
      <trkpt lat="42.1048" lon="2.4477">
        <ele>494.7</ele>
        <time>2019-04-11T22:55:06Z</time>
      </trkpt>
      <trkpt lat="42.10476" lon="2.44773">
        <ele>494.8</ele>
        <time>2019-04-11T22:55:08Z</time>
      </trkpt>
      <trkpt lat="42.10474" lon="2.44774">
        <ele>495.2</ele>
        <time>2019-04-11T22:55:09Z</time>
      </trkpt>
      <trkpt lat="42.10467" lon="2.4478">
        <ele>496.4</ele>
        <time>2019-04-11T22:55:12Z</time>
      </trkpt>
      <trkpt lat="42.10447" lon="2.44789">
        <ele>497.2</ele>
        <time>2019-04-11T22:55:20Z</time>
      </trkpt>
      <trkpt lat="42.10446" lon="2.44789">
        <ele>497.3</ele>
        <time>2019-04-11T22:55:21Z</time>
      </trkpt>
      <trkpt lat="42.10438" lon="2.44793">
        <ele>498.1</ele>
        <time>2019-04-11T22:55:24Z</time>
      </trkpt>
      <trkpt lat="42.10434" lon="2.44793">
        <ele>498.3</ele>
        <time>2019-04-11T22:55:26Z</time>
      </trkpt>
      <trkpt lat="42.10433" lon="2.44794">
        <ele>498.3</ele>
        <time>2019-04-11T22:55:26Z</time>
      </trkpt>
      <trkpt lat="42.10431" lon="2.44794">
        <ele>498.3</ele>
        <time>2019-04-11T22:55:27Z</time>
      </trkpt>
      <trkpt lat="42.1042" lon="2.44799">
        <ele>499.6</ele>
        <time>2019-04-11T22:55:32Z</time>
      </trkpt>
      <trkpt lat="42.10418" lon="2.44799">
        <ele>499.6</ele>
        <time>2019-04-11T22:55:33Z</time>
      </trkpt>
      <trkpt lat="42.10413" lon="2.44802">
        <ele>500</ele>
        <time>2019-04-11T22:55:34Z</time>
      </trkpt>
      <trkpt lat="42.10412" lon="2.44802">
        <ele>500.2</ele>
        <time>2019-04-11T22:55:35Z</time>
      </trkpt>
      <trkpt lat="42.1041" lon="2.44803">
        <ele>500.4</ele>
        <time>2019-04-11T22:55:36Z</time>
      </trkpt>
      <trkpt lat="42.10407" lon="2.44801">
        <ele>500.7</ele>
        <time>2019-04-11T22:55:37Z</time>
      </trkpt>
      <trkpt lat="42.10405" lon="2.44801">
        <ele>501.2</ele>
        <time>2019-04-11T22:55:38Z</time>
      </trkpt>
      <trkpt lat="42.10403" lon="2.44801">
        <ele>501.3</ele>
        <time>2019-04-11T22:55:39Z</time>
      </trkpt>
      <trkpt lat="42.10402" lon="2.44801">
        <ele>501.8</ele>
        <time>2019-04-11T22:55:39Z</time>
      </trkpt>
      <trkpt lat="42.104" lon="2.44802">
        <ele>502.4</ele>
        <time>2019-04-11T22:55:40Z</time>
      </trkpt>
      <trkpt lat="42.10378" lon="2.448">
        <ele>506.6</ele>
        <time>2019-04-11T22:55:49Z</time>
      </trkpt>
      <trkpt lat="42.10375" lon="2.448">
        <ele>507.2</ele>
        <time>2019-04-11T22:55:50Z</time>
      </trkpt>
      <trkpt lat="42.1036" lon="2.44798">
        <ele>510.3</ele>
        <time>2019-04-11T22:55:56Z</time>
      </trkpt>
      <trkpt lat="42.10358" lon="2.44798">
        <ele>510.7</ele>
        <time>2019-04-11T22:55:57Z</time>
      </trkpt>
      <trkpt lat="42.10353" lon="2.44796">
        <ele>511.7</ele>
        <time>2019-04-11T22:55:59Z</time>
      </trkpt>
      <trkpt lat="42.1035" lon="2.44796">
        <ele>512.5</ele>
        <time>2019-04-11T22:56:00Z</time>
      </trkpt>
      <trkpt lat="42.10348" lon="2.44797">
        <ele>512.6</ele>
        <time>2019-04-11T22:56:01Z</time>
      </trkpt>
      <trkpt lat="42.10345" lon="2.44797">
        <ele>513.3</ele>
        <time>2019-04-11T22:56:02Z</time>
      </trkpt>
      <trkpt lat="42.10343" lon="2.44797">
        <ele>513.8</ele>
        <time>2019-04-11T22:56:03Z</time>
      </trkpt>
      <trkpt lat="42.10315" lon="2.44794">
        <ele>525</ele>
        <time>2019-04-11T22:56:14Z</time>
      </trkpt>
      <trkpt lat="42.10313" lon="2.44794">
        <ele>526.3</ele>
        <time>2019-04-11T22:56:15Z</time>
      </trkpt>
      <trkpt lat="42.10309" lon="2.44794">
        <ele>528.1</ele>
        <time>2019-04-11T22:56:16Z</time>
      </trkpt>
      <trkpt lat="42.10304" lon="2.44795">
        <ele>528.4</ele>
        <time>2019-04-11T22:56:19Z</time>
      </trkpt>
      <trkpt lat="42.10297" lon="2.448">
        <ele>525.9</ele>
        <time>2019-04-11T22:56:22Z</time>
      </trkpt>
      <trkpt lat="42.10287" lon="2.44805">
        <ele>521.7</ele>
        <time>2019-04-11T22:56:26Z</time>
      </trkpt>
      <trkpt lat="42.1028" lon="2.4481">
        <ele>517.5</ele>
        <time>2019-04-11T22:56:29Z</time>
      </trkpt>
      <trkpt lat="42.10277" lon="2.44811">
        <ele>517</ele>
        <time>2019-04-11T22:56:30Z</time>
      </trkpt>
      <trkpt lat="42.10276" lon="2.44811">
        <ele>517.1</ele>
        <time>2019-04-11T22:56:31Z</time>
      </trkpt>
      <trkpt lat="42.10276" lon="2.44811">
        <ele>517.2</ele>
        <time>2019-04-11T22:56:31Z</time>
      </trkpt>
      <trkpt lat="42.10275" lon="2.44812">
        <ele>517.3</ele>
        <time>2019-04-11T22:56:31Z</time>
      </trkpt>
      <trkpt lat="42.10275" lon="2.44812">
        <ele>517.3</ele>
        <time>2019-04-11T22:56:31Z</time>
      </trkpt>
      <trkpt lat="42.10274" lon="2.44813">
        <ele>517.1</ele>
        <time>2019-04-11T22:56:32Z</time>
      </trkpt>
      <trkpt lat="42.10273" lon="2.44813">
        <ele>516.9</ele>
        <time>2019-04-11T22:56:32Z</time>
      </trkpt>
      <trkpt lat="42.10272" lon="2.44814">
        <ele>516.8</ele>
        <time>2019-04-11T22:56:33Z</time>
      </trkpt>
      <trkpt lat="42.10271" lon="2.44815">
        <ele>516.7</ele>
        <time>2019-04-11T22:56:33Z</time>
      </trkpt>
      <trkpt lat="42.10264" lon="2.4482">
        <ele>518.7</ele>
        <time>2019-04-11T22:56:36Z</time>
      </trkpt>
      <trkpt lat="42.10257" lon="2.44824">
        <ele>520.6</ele>
        <time>2019-04-11T22:56:40Z</time>
      </trkpt>
      <trkpt lat="42.10255" lon="2.44826">
        <ele>520.9</ele>
        <time>2019-04-11T22:56:40Z</time>
      </trkpt>
      <trkpt lat="42.10251" lon="2.44828">
        <ele>521.3</ele>
        <time>2019-04-11T22:56:42Z</time>
      </trkpt>
      <trkpt lat="42.10248" lon="2.44829">
        <ele>520.3</ele>
        <time>2019-04-11T22:56:43Z</time>
      </trkpt>
      <trkpt lat="42.10247" lon="2.44829">
        <ele>519.8</ele>
        <time>2019-04-11T22:56:44Z</time>
      </trkpt>
      <trkpt lat="42.10245" lon="2.44828">
        <ele>519.3</ele>
        <time>2019-04-11T22:56:44Z</time>
      </trkpt>
      <trkpt lat="42.10243" lon="2.44828">
        <ele>518.1</ele>
        <time>2019-04-11T22:56:45Z</time>
      </trkpt>
      <trkpt lat="42.10242" lon="2.44827">
        <ele>517.2</ele>
        <time>2019-04-11T22:56:46Z</time>
      </trkpt>
      <trkpt lat="42.1024" lon="2.44827">
        <ele>515.2</ele>
        <time>2019-04-11T22:56:47Z</time>
      </trkpt>
      <trkpt lat="42.10237" lon="2.44828">
        <ele>512.9</ele>
        <time>2019-04-11T22:56:48Z</time>
      </trkpt>
      <trkpt lat="42.10236" lon="2.44828">
        <ele>511.5</ele>
        <time>2019-04-11T22:56:48Z</time>
      </trkpt>
      <trkpt lat="42.10235" lon="2.44828">
        <ele>509.9</ele>
        <time>2019-04-11T22:56:49Z</time>
      </trkpt>
      <trkpt lat="42.10234" lon="2.44828">
        <ele>508.3</ele>
        <time>2019-04-11T22:56:49Z</time>
      </trkpt>
      <trkpt lat="42.10234" lon="2.44828">
        <ele>507.1</ele>
        <time>2019-04-11T22:56:49Z</time>
      </trkpt>
      <trkpt lat="42.10233" lon="2.44829">
        <ele>505.8</ele>
        <time>2019-04-11T22:56:49Z</time>
      </trkpt>
      <trkpt lat="42.10232" lon="2.44829">
        <ele>504.8</ele>
        <time>2019-04-11T22:56:50Z</time>
      </trkpt>
      <trkpt lat="42.10232" lon="2.4483">
        <ele>504.1</ele>
        <time>2019-04-11T22:56:50Z</time>
      </trkpt>
      <trkpt lat="42.10232" lon="2.4483">
        <ele>503.6</ele>
        <time>2019-04-11T22:56:50Z</time>
      </trkpt>
      <trkpt lat="42.10231" lon="2.44831">
        <ele>503.2</ele>
        <time>2019-04-11T22:56:50Z</time>
      </trkpt>
      <trkpt lat="42.1023" lon="2.44831">
        <ele>502.8</ele>
        <time>2019-04-11T22:56:51Z</time>
      </trkpt>
      <trkpt lat="42.10229" lon="2.44832">
        <ele>502.5</ele>
        <time>2019-04-11T22:56:51Z</time>
      </trkpt>
      <trkpt lat="42.10228" lon="2.44833">
        <ele>502.2</ele>
        <time>2019-04-11T22:56:52Z</time>
      </trkpt>
      <trkpt lat="42.10222" lon="2.44835">
        <ele>501.9</ele>
        <time>2019-04-11T22:56:54Z</time>
      </trkpt>
      <trkpt lat="42.10221" lon="2.44836">
        <ele>501.8</ele>
        <time>2019-04-11T22:56:55Z</time>
      </trkpt>
      <trkpt lat="42.10219" lon="2.44836">
        <ele>501.9</ele>
        <time>2019-04-11T22:56:55Z</time>
      </trkpt>
      <trkpt lat="42.10218" lon="2.44836">
        <ele>501.9</ele>
        <time>2019-04-11T22:56:56Z</time>
      </trkpt>
      <trkpt lat="42.10217" lon="2.44834">
        <ele>501.8</ele>
        <time>2019-04-11T22:56:57Z</time>
      </trkpt>
      <trkpt lat="42.10216" lon="2.44833">
        <ele>502.1</ele>
        <time>2019-04-11T22:56:57Z</time>
      </trkpt>
      <trkpt lat="42.10215" lon="2.44831">
        <ele>502.3</ele>
        <time>2019-04-11T22:56:58Z</time>
      </trkpt>
      <trkpt lat="42.10212" lon="2.44826">
        <ele>502.2</ele>
        <time>2019-04-11T22:57:00Z</time>
      </trkpt>
      <trkpt lat="42.10206" lon="2.44812">
        <ele>501.7</ele>
        <time>2019-04-11T22:57:05Z</time>
      </trkpt>
      <trkpt lat="42.10205" lon="2.44807">
        <ele>500.7</ele>
        <time>2019-04-11T22:57:06Z</time>
      </trkpt>
      <trkpt lat="42.10203" lon="2.44799">
        <ele>501.1</ele>
        <time>2019-04-11T22:57:09Z</time>
      </trkpt>
      <trkpt lat="42.10202" lon="2.44798">
        <ele>501.3</ele>
        <time>2019-04-11T22:57:09Z</time>
      </trkpt>
      <trkpt lat="42.10199" lon="2.4479">
        <ele>502.7</ele>
        <time>2019-04-11T22:57:12Z</time>
      </trkpt>
      <trkpt lat="42.10198" lon="2.44787">
        <ele>503.7</ele>
        <time>2019-04-11T22:57:13Z</time>
      </trkpt>
      <trkpt lat="42.10197" lon="2.44783">
        <ele>504.3</ele>
        <time>2019-04-11T22:57:14Z</time>
      </trkpt>
      <trkpt lat="42.10197" lon="2.44783">
        <ele>504.7</ele>
        <time>2019-04-11T22:57:14Z</time>
      </trkpt>
      <trkpt lat="42.10197" lon="2.44783">
        <ele>505.1</ele>
        <time>2019-04-11T22:57:14Z</time>
      </trkpt>
      <trkpt lat="42.10197" lon="2.44783">
        <ele>505.2</ele>
        <time>2019-04-11T22:57:14Z</time>
      </trkpt>
      <trkpt lat="42.10197" lon="2.44782">
        <ele>505.6</ele>
        <time>2019-04-11T22:57:14Z</time>
      </trkpt>
      <trkpt lat="42.10196" lon="2.4478">
        <ele>506</ele>
        <time>2019-04-11T22:57:15Z</time>
      </trkpt>
      <trkpt lat="42.10196" lon="2.44775">
        <ele>506.6</ele>
        <time>2019-04-11T22:57:16Z</time>
      </trkpt>
      <trkpt lat="42.10196" lon="2.44774">
        <ele>506.7</ele>
        <time>2019-04-11T22:57:17Z</time>
      </trkpt>
      <trkpt lat="42.10196" lon="2.44774">
        <ele>507.2</ele>
        <time>2019-04-11T22:57:17Z</time>
      </trkpt>
      <trkpt lat="42.10196" lon="2.44774">
        <ele>507.4</ele>
        <time>2019-04-11T22:57:17Z</time>
      </trkpt>
      <trkpt lat="42.10196" lon="2.44773">
        <ele>507.8</ele>
        <time>2019-04-11T22:57:17Z</time>
      </trkpt>
      <trkpt lat="42.10195" lon="2.44773">
        <ele>508.2</ele>
        <time>2019-04-11T22:57:17Z</time>
      </trkpt>
      <trkpt lat="42.10195" lon="2.44773">
        <ele>508.2</ele>
        <time>2019-04-11T22:57:17Z</time>
      </trkpt>
      <trkpt lat="42.10195" lon="2.44773">
        <ele>508.6</ele>
        <time>2019-04-11T22:57:17Z</time>
      </trkpt>
      <trkpt lat="42.10195" lon="2.44772">
        <ele>508.9</ele>
        <time>2019-04-11T22:57:17Z</time>
      </trkpt>
      <trkpt lat="42.10195" lon="2.44772">
        <ele>509.1</ele>
        <time>2019-04-11T22:57:18Z</time>
      </trkpt>
      <trkpt lat="42.10195" lon="2.44772">
        <ele>509.3</ele>
        <time>2019-04-11T22:57:18Z</time>
      </trkpt>
      <trkpt lat="42.10195" lon="2.44771">
        <ele>509.6</ele>
        <time>2019-04-11T22:57:18Z</time>
      </trkpt>
      <trkpt lat="42.10195" lon="2.44771">
        <ele>509.8</ele>
        <time>2019-04-11T22:57:18Z</time>
      </trkpt>
      <trkpt lat="42.10194" lon="2.44771">
        <ele>510.2</ele>
        <time>2019-04-11T22:57:18Z</time>
      </trkpt>
      <trkpt lat="42.10194" lon="2.4477">
        <ele>510.2</ele>
        <time>2019-04-11T22:57:18Z</time>
      </trkpt>
      <trkpt lat="42.10194" lon="2.44769">
        <ele>510.6</ele>
        <time>2019-04-11T22:57:18Z</time>
      </trkpt>
      <trkpt lat="42.10194" lon="2.44769">
        <ele>510.7</ele>
        <time>2019-04-11T22:57:19Z</time>
      </trkpt>
      <trkpt lat="42.10193" lon="2.44767">
        <ele>510.8</ele>
        <time>2019-04-11T22:57:19Z</time>
      </trkpt>
      <trkpt lat="42.10191" lon="2.44762">
        <ele>511.9</ele>
        <time>2019-04-11T22:57:21Z</time>
      </trkpt>
      <trkpt lat="42.1019" lon="2.44758">
        <ele>512</ele>
        <time>2019-04-11T22:57:22Z</time>
      </trkpt>
      <trkpt lat="42.10189" lon="2.44749">
        <ele>511.8</ele>
        <time>2019-04-11T22:57:25Z</time>
      </trkpt>
      <trkpt lat="42.10189" lon="2.44743">
        <ele>512.3</ele>
        <time>2019-04-11T22:57:27Z</time>
      </trkpt>
      <trkpt lat="42.10191" lon="2.44737">
        <ele>512.7</ele>
        <time>2019-04-11T22:57:28Z</time>
      </trkpt>
      <trkpt lat="42.10192" lon="2.44733">
        <ele>512.5</ele>
        <time>2019-04-11T22:57:30Z</time>
      </trkpt>
      <trkpt lat="42.10192" lon="2.44731">
        <ele>512.6</ele>
        <time>2019-04-11T22:57:30Z</time>
      </trkpt>
      <trkpt lat="42.10195" lon="2.44726">
        <ele>512.7</ele>
        <time>2019-04-11T22:57:32Z</time>
      </trkpt>
      <trkpt lat="42.10196" lon="2.44723">
        <ele>513</ele>
        <time>2019-04-11T22:57:33Z</time>
      </trkpt>
      <trkpt lat="42.10197" lon="2.44721">
        <ele>513.1</ele>
        <time>2019-04-11T22:57:34Z</time>
      </trkpt>
      <trkpt lat="42.10197" lon="2.44717">
        <ele>513</ele>
        <time>2019-04-11T22:57:35Z</time>
      </trkpt>
      <trkpt lat="42.102" lon="2.44709">
        <ele>512.7</ele>
        <time>2019-04-11T22:57:38Z</time>
      </trkpt>
      <trkpt lat="42.10202" lon="2.44705">
        <ele>512.8</ele>
        <time>2019-04-11T22:57:39Z</time>
      </trkpt>
      <trkpt lat="42.10204" lon="2.44699">
        <ele>512.7</ele>
        <time>2019-04-11T22:57:41Z</time>
      </trkpt>
      <trkpt lat="42.10204" lon="2.44697">
        <ele>512.7</ele>
        <time>2019-04-11T22:57:42Z</time>
      </trkpt>
      <trkpt lat="42.10207" lon="2.44686">
        <ele>512.7</ele>
        <time>2019-04-11T22:57:45Z</time>
      </trkpt>
      <trkpt lat="42.10207" lon="2.44684">
        <ele>512.5</ele>
        <time>2019-04-11T22:57:46Z</time>
      </trkpt>
      <trkpt lat="42.10212" lon="2.44667">
        <ele>511.2</ele>
        <time>2019-04-11T22:57:51Z</time>
      </trkpt>
      <trkpt lat="42.10212" lon="2.44665">
        <ele>511.2</ele>
        <time>2019-04-11T22:57:52Z</time>
      </trkpt>
      <trkpt lat="42.10213" lon="2.44661">
        <ele>511.4</ele>
        <time>2019-04-11T22:57:53Z</time>
      </trkpt>
      <trkpt lat="42.10213" lon="2.44652">
        <ele>512.2</ele>
        <time>2019-04-11T22:57:56Z</time>
      </trkpt>
      <trkpt lat="42.10214" lon="2.4465">
        <ele>512.5</ele>
        <time>2019-04-11T22:57:56Z</time>
      </trkpt>
      <trkpt lat="42.10215" lon="2.44649">
        <ele>512.5</ele>
        <time>2019-04-11T22:57:57Z</time>
      </trkpt>
      <trkpt lat="42.10215" lon="2.44647">
        <ele>512.8</ele>
        <time>2019-04-11T22:57:57Z</time>
      </trkpt>
      <trkpt lat="42.10216" lon="2.44639">
        <ele>513.1</ele>
        <time>2019-04-11T22:58:00Z</time>
      </trkpt>
      <trkpt lat="42.10219" lon="2.44628">
        <ele>512.1</ele>
        <time>2019-04-11T22:58:03Z</time>
      </trkpt>
      <trkpt lat="42.1022" lon="2.44624">
        <ele>511.6</ele>
        <time>2019-04-11T22:58:05Z</time>
      </trkpt>
      <trkpt lat="42.10224" lon="2.44609">
        <ele>511.3</ele>
        <time>2019-04-11T22:58:09Z</time>
      </trkpt>
      <trkpt lat="42.10226" lon="2.44606">
        <ele>511.3</ele>
        <time>2019-04-11T22:58:10Z</time>
      </trkpt>
      <trkpt lat="42.10229" lon="2.44594">
        <ele>512.2</ele>
        <time>2019-04-11T22:58:14Z</time>
      </trkpt>
      <trkpt lat="42.1023" lon="2.44592">
        <ele>512.6</ele>
        <time>2019-04-11T22:58:15Z</time>
      </trkpt>
      <trkpt lat="42.10232" lon="2.44584">
        <ele>514</ele>
        <time>2019-04-11T22:58:17Z</time>
      </trkpt>
      <trkpt lat="42.10235" lon="2.44578">
        <ele>513.8</ele>
        <time>2019-04-11T22:58:20Z</time>
      </trkpt>
      <trkpt lat="42.10236" lon="2.44576">
        <ele>513.7</ele>
        <time>2019-04-11T22:58:20Z</time>
      </trkpt>
      <trkpt lat="42.10238" lon="2.44568">
        <ele>514.5</ele>
        <time>2019-04-11T22:58:23Z</time>
      </trkpt>
      <trkpt lat="42.10239" lon="2.44564">
        <ele>515</ele>
        <time>2019-04-11T22:58:24Z</time>
      </trkpt>
      <trkpt lat="42.10239" lon="2.44562">
        <ele>515.3</ele>
        <time>2019-04-11T22:58:24Z</time>
      </trkpt>
      <trkpt lat="42.10239" lon="2.44561">
        <ele>515.5</ele>
        <time>2019-04-11T22:58:25Z</time>
      </trkpt>
      <trkpt lat="42.1024" lon="2.44557">
        <ele>516.2</ele>
        <time>2019-04-11T22:58:26Z</time>
      </trkpt>
      <trkpt lat="42.10241" lon="2.44556">
        <ele>516.6</ele>
        <time>2019-04-11T22:58:27Z</time>
      </trkpt>
      <trkpt lat="42.10241" lon="2.44554">
        <ele>517.1</ele>
        <time>2019-04-11T22:58:27Z</time>
      </trkpt>
      <trkpt lat="42.10241" lon="2.44546">
        <ele>519.2</ele>
        <time>2019-04-11T22:58:29Z</time>
      </trkpt>
      <trkpt lat="42.10241" lon="2.44544">
        <ele>520</ele>
        <time>2019-04-11T22:58:30Z</time>
      </trkpt>
      <trkpt lat="42.10241" lon="2.44542">
        <ele>520.5</ele>
        <time>2019-04-11T22:58:31Z</time>
      </trkpt>
      <trkpt lat="42.10242" lon="2.44536">
        <ele>523.2</ele>
        <time>2019-04-11T22:58:33Z</time>
      </trkpt>
      <trkpt lat="42.10242" lon="2.44532">
        <ele>524.4</ele>
        <time>2019-04-11T22:58:34Z</time>
      </trkpt>
      <trkpt lat="42.10242" lon="2.44531">
        <ele>524.5</ele>
        <time>2019-04-11T22:58:34Z</time>
      </trkpt>
      <trkpt lat="42.10243" lon="2.44529">
        <ele>524.7</ele>
        <time>2019-04-11T22:58:35Z</time>
      </trkpt>
      <trkpt lat="42.10243" lon="2.44528">
        <ele>524.7</ele>
        <time>2019-04-11T22:58:35Z</time>
      </trkpt>
      <trkpt lat="42.10244" lon="2.44523">
        <ele>524.5</ele>
        <time>2019-04-11T22:58:36Z</time>
      </trkpt>
      <trkpt lat="42.10243" lon="2.44519">
        <ele>524.9</ele>
        <time>2019-04-11T22:58:38Z</time>
      </trkpt>
      <trkpt lat="42.10242" lon="2.44516">
        <ele>525.1</ele>
        <time>2019-04-11T22:58:39Z</time>
      </trkpt>
      <trkpt lat="42.10241" lon="2.44514">
        <ele>525.2</ele>
        <time>2019-04-11T22:58:39Z</time>
      </trkpt>
      <trkpt lat="42.10241" lon="2.44512">
        <ele>525.6</ele>
        <time>2019-04-11T22:58:40Z</time>
      </trkpt>
      <trkpt lat="42.10241" lon="2.4451">
        <ele>525.7</ele>
        <time>2019-04-11T22:58:41Z</time>
      </trkpt>
      <trkpt lat="42.10243" lon="2.44505">
        <ele>525.7</ele>
        <time>2019-04-11T22:58:42Z</time>
      </trkpt>
      <trkpt lat="42.10244" lon="2.44503">
        <ele>525.7</ele>
        <time>2019-04-11T22:58:43Z</time>
      </trkpt>
      <trkpt lat="42.10246" lon="2.44497">
        <ele>526.1</ele>
        <time>2019-04-11T22:58:45Z</time>
      </trkpt>
      <trkpt lat="42.10247" lon="2.44496">
        <ele>525.9</ele>
        <time>2019-04-11T22:58:45Z</time>
      </trkpt>
      <trkpt lat="42.10249" lon="2.44482">
        <ele>525.2</ele>
        <time>2019-04-11T22:58:50Z</time>
      </trkpt>
      <trkpt lat="42.1025" lon="2.44478">
        <ele>525.2</ele>
        <time>2019-04-11T22:58:51Z</time>
      </trkpt>
      <trkpt lat="42.10251" lon="2.44476">
        <ele>525.5</ele>
        <time>2019-04-11T22:58:51Z</time>
      </trkpt>
      <trkpt lat="42.10251" lon="2.44469">
        <ele>526.6</ele>
        <time>2019-04-11T22:58:54Z</time>
      </trkpt>
      <trkpt lat="42.10252" lon="2.44465">
        <ele>526.7</ele>
        <time>2019-04-11T22:58:55Z</time>
      </trkpt>
      <trkpt lat="42.10253" lon="2.44463">
        <ele>526.5</ele>
        <time>2019-04-11T22:58:55Z</time>
      </trkpt>
      <trkpt lat="42.10253" lon="2.44462">
        <ele>526.6</ele>
        <time>2019-04-11T22:58:56Z</time>
      </trkpt>
      <trkpt lat="42.10256" lon="2.44456">
        <ele>525.7</ele>
        <time>2019-04-11T22:58:58Z</time>
      </trkpt>
      <trkpt lat="42.10257" lon="2.44453">
        <ele>525.2</ele>
        <time>2019-04-11T22:58:59Z</time>
      </trkpt>
      <trkpt lat="42.10263" lon="2.44444">
        <ele>522.8</ele>
        <time>2019-04-11T22:59:03Z</time>
      </trkpt>
      <trkpt lat="42.10266" lon="2.44437">
        <ele>521.3</ele>
        <time>2019-04-11T22:59:05Z</time>
      </trkpt>
      <trkpt lat="42.10267" lon="2.44435">
        <ele>521</ele>
        <time>2019-04-11T22:59:06Z</time>
      </trkpt>
      <trkpt lat="42.10267" lon="2.44431">
        <ele>521</ele>
        <time>2019-04-11T22:59:07Z</time>
      </trkpt>
      <trkpt lat="42.10267" lon="2.44429">
        <ele>521.1</ele>
        <time>2019-04-11T22:59:07Z</time>
      </trkpt>
      <trkpt lat="42.10266" lon="2.44426">
        <ele>521.1</ele>
        <time>2019-04-11T22:59:09Z</time>
      </trkpt>
      <trkpt lat="42.10264" lon="2.44425">
        <ele>521.1</ele>
        <time>2019-04-11T22:59:09Z</time>
      </trkpt>
      <trkpt lat="42.10263" lon="2.44423">
        <ele>521</ele>
        <time>2019-04-11T22:59:10Z</time>
      </trkpt>
      <trkpt lat="42.10255" lon="2.44417">
        <ele>522.1</ele>
        <time>2019-04-11T22:59:14Z</time>
      </trkpt>
      <trkpt lat="42.10251" lon="2.44415">
        <ele>522.5</ele>
        <time>2019-04-11T22:59:15Z</time>
      </trkpt>
      <trkpt lat="42.10241" lon="2.44408">
        <ele>523.1</ele>
        <time>2019-04-11T22:59:20Z</time>
      </trkpt>
      <trkpt lat="42.10235" lon="2.44406">
        <ele>523.9</ele>
        <time>2019-04-11T22:59:22Z</time>
      </trkpt>
      <trkpt lat="42.10234" lon="2.44405">
        <ele>523.7</ele>
        <time>2019-04-11T22:59:23Z</time>
      </trkpt>
      <trkpt lat="42.10233" lon="2.44404">
        <ele>523.7</ele>
        <time>2019-04-11T22:59:23Z</time>
      </trkpt>
      <trkpt lat="42.10233" lon="2.44404">
        <ele>523.7</ele>
        <time>2019-04-11T22:59:23Z</time>
      </trkpt>
      <trkpt lat="42.10232" lon="2.44404">
        <ele>523.9</ele>
        <time>2019-04-11T22:59:23Z</time>
      </trkpt>
      <trkpt lat="42.10232" lon="2.44404">
        <ele>524.1</ele>
        <time>2019-04-11T22:59:24Z</time>
      </trkpt>
      <trkpt lat="42.10232" lon="2.44404">
        <ele>524.1</ele>
        <time>2019-04-11T22:59:24Z</time>
      </trkpt>
      <trkpt lat="42.10232" lon="2.44404">
        <ele>524.3</ele>
        <time>2019-04-11T22:59:24Z</time>
      </trkpt>
      <trkpt lat="42.10232" lon="2.44403">
        <ele>524.2</ele>
        <time>2019-04-11T22:59:24Z</time>
      </trkpt>
      <trkpt lat="42.10231" lon="2.44403">
        <ele>524.5</ele>
        <time>2019-04-11T22:59:24Z</time>
      </trkpt>
      <trkpt lat="42.10231" lon="2.44403">
        <ele>524.8</ele>
        <time>2019-04-11T22:59:24Z</time>
      </trkpt>
      <trkpt lat="42.10231" lon="2.44403">
        <ele>525.1</ele>
        <time>2019-04-11T22:59:24Z</time>
      </trkpt>
      <trkpt lat="42.10232" lon="2.44402">
        <ele>526</ele>
        <time>2019-04-11T22:59:24Z</time>
      </trkpt>
      <trkpt lat="42.10231" lon="2.44401">
        <ele>526.5</ele>
        <time>2019-04-11T22:59:25Z</time>
      </trkpt>
      <trkpt lat="42.1023" lon="2.444">
        <ele>527</ele>
        <time>2019-04-11T22:59:25Z</time>
      </trkpt>
      <trkpt lat="42.10214" lon="2.44385">
        <ele>530</ele>
        <time>2019-04-11T22:59:33Z</time>
      </trkpt>
      <trkpt lat="42.10205" lon="2.44374">
        <ele>530.8</ele>
        <time>2019-04-11T22:59:38Z</time>
      </trkpt>
      <trkpt lat="42.10201" lon="2.4437">
        <ele>531.8</ele>
        <time>2019-04-11T22:59:40Z</time>
      </trkpt>
      <trkpt lat="42.102" lon="2.44369">
        <ele>532</ele>
        <time>2019-04-11T22:59:41Z</time>
      </trkpt>
      <trkpt lat="42.10199" lon="2.44367">
        <ele>532.5</ele>
        <time>2019-04-11T22:59:41Z</time>
      </trkpt>
      <trkpt lat="42.10193" lon="2.44357">
        <ele>532.8</ele>
        <time>2019-04-11T22:59:45Z</time>
      </trkpt>
      <trkpt lat="42.10193" lon="2.44355">
        <ele>533.2</ele>
        <time>2019-04-11T22:59:46Z</time>
      </trkpt>
      <trkpt lat="42.10193" lon="2.44353">
        <ele>533.6</ele>
        <time>2019-04-11T22:59:46Z</time>
      </trkpt>
      <trkpt lat="42.10193" lon="2.44352">
        <ele>533.9</ele>
        <time>2019-04-11T22:59:47Z</time>
      </trkpt>
      <trkpt lat="42.10193" lon="2.44351">
        <ele>534.2</ele>
        <time>2019-04-11T22:59:47Z</time>
      </trkpt>
      <trkpt lat="42.10194" lon="2.44349">
        <ele>534.7</ele>
        <time>2019-04-11T22:59:47Z</time>
      </trkpt>
      <trkpt lat="42.10195" lon="2.44341">
        <ele>536.1</ele>
        <time>2019-04-11T22:59:50Z</time>
      </trkpt>
      <trkpt lat="42.10195" lon="2.4434">
        <ele>536</ele>
        <time>2019-04-11T22:59:50Z</time>
      </trkpt>
      <trkpt lat="42.10198" lon="2.44337">
        <ele>535.5</ele>
        <time>2019-04-11T22:59:52Z</time>
      </trkpt>
      <trkpt lat="42.10199" lon="2.44336">
        <ele>535.1</ele>
        <time>2019-04-11T22:59:52Z</time>
      </trkpt>
      <trkpt lat="42.10202" lon="2.44334">
        <ele>534.3</ele>
        <time>2019-04-11T22:59:53Z</time>
      </trkpt>
      <trkpt lat="42.10203" lon="2.44333">
        <ele>534.2</ele>
        <time>2019-04-11T22:59:54Z</time>
      </trkpt>
      <trkpt lat="42.10205" lon="2.4433">
        <ele>534</ele>
        <time>2019-04-11T22:59:55Z</time>
      </trkpt>
      <trkpt lat="42.10208" lon="2.44325">
        <ele>533.5</ele>
        <time>2019-04-11T22:59:57Z</time>
      </trkpt>
      <trkpt lat="42.10209" lon="2.44319">
        <ele>533</ele>
        <time>2019-04-11T22:59:59Z</time>
      </trkpt>
      <trkpt lat="42.10209" lon="2.44314">
        <ele>532.2</ele>
        <time>2019-04-11T23:00:01Z</time>
      </trkpt>
      <trkpt lat="42.10209" lon="2.4431">
        <ele>532.2</ele>
        <time>2019-04-11T23:00:02Z</time>
      </trkpt>
      <trkpt lat="42.10208" lon="2.44308">
        <ele>532</ele>
        <time>2019-04-11T23:00:02Z</time>
      </trkpt>
      <trkpt lat="42.10208" lon="2.44306">
        <ele>532.1</ele>
        <time>2019-04-11T23:00:03Z</time>
      </trkpt>
      <trkpt lat="42.10204" lon="2.44297">
        <ele>531.3</ele>
        <time>2019-04-11T23:00:06Z</time>
      </trkpt>
      <trkpt lat="42.10204" lon="2.44296">
        <ele>531.1</ele>
        <time>2019-04-11T23:00:06Z</time>
      </trkpt>
      <trkpt lat="42.10202" lon="2.44293">
        <ele>531</ele>
        <time>2019-04-11T23:00:07Z</time>
      </trkpt>
      <trkpt lat="42.102" lon="2.44288">
        <ele>530.5</ele>
        <time>2019-04-11T23:00:09Z</time>
      </trkpt>
      <trkpt lat="42.10199" lon="2.44285">
        <ele>530.7</ele>
        <time>2019-04-11T23:00:10Z</time>
      </trkpt>
      <trkpt lat="42.10198" lon="2.44283">
        <ele>531</ele>
        <time>2019-04-11T23:00:11Z</time>
      </trkpt>
      <trkpt lat="42.10197" lon="2.44282">
        <ele>531.1</ele>
        <time>2019-04-11T23:00:11Z</time>
      </trkpt>
      <trkpt lat="42.10196" lon="2.44278">
        <ele>531.2</ele>
        <time>2019-04-11T23:00:12Z</time>
      </trkpt>
      <trkpt lat="42.10196" lon="2.44277">
        <ele>531.2</ele>
        <time>2019-04-11T23:00:13Z</time>
      </trkpt>
      <trkpt lat="42.10195" lon="2.44275">
        <ele>531.5</ele>
        <time>2019-04-11T23:00:13Z</time>
      </trkpt>
      <trkpt lat="42.10195" lon="2.44274">
        <ele>532.1</ele>
        <time>2019-04-11T23:00:14Z</time>
      </trkpt>
      <trkpt lat="42.10194" lon="2.44273">
        <ele>532.4</ele>
        <time>2019-04-11T23:00:14Z</time>
      </trkpt>
      <trkpt lat="42.10191" lon="2.44269">
        <ele>533.3</ele>
        <time>2019-04-11T23:00:16Z</time>
      </trkpt>
      <trkpt lat="42.10191" lon="2.44268">
        <ele>533.3</ele>
        <time>2019-04-11T23:00:16Z</time>
      </trkpt>
      <trkpt lat="42.10191" lon="2.44268">
        <ele>533.2</ele>
        <time>2019-04-11T23:00:16Z</time>
      </trkpt>
      <trkpt lat="42.10191" lon="2.44268">
        <ele>533.5</ele>
        <time>2019-04-11T23:00:16Z</time>
      </trkpt>
      <trkpt lat="42.10191" lon="2.44268">
        <ele>533.6</ele>
        <time>2019-04-11T23:00:16Z</time>
      </trkpt>
      <trkpt lat="42.10191" lon="2.44267">
        <ele>533.7</ele>
        <time>2019-04-11T23:00:17Z</time>
      </trkpt>
      <trkpt lat="42.10191" lon="2.44267">
        <ele>533.9</ele>
        <time>2019-04-11T23:00:17Z</time>
      </trkpt>
      <trkpt lat="42.10191" lon="2.44266">
        <ele>533.9</ele>
        <time>2019-04-11T23:00:17Z</time>
      </trkpt>
      <trkpt lat="42.10191" lon="2.44266">
        <ele>533.9</ele>
        <time>2019-04-11T23:00:17Z</time>
      </trkpt>
      <trkpt lat="42.10191" lon="2.44266">
        <ele>534.1</ele>
        <time>2019-04-11T23:00:17Z</time>
      </trkpt>
      <trkpt lat="42.10191" lon="2.44266">
        <ele>534</ele>
        <time>2019-04-11T23:00:17Z</time>
      </trkpt>
      <trkpt lat="42.10192" lon="2.44265">
        <ele>534.5</ele>
        <time>2019-04-11T23:00:17Z</time>
      </trkpt>
      <trkpt lat="42.10192" lon="2.44265">
        <ele>534.8</ele>
        <time>2019-04-11T23:00:17Z</time>
      </trkpt>
      <trkpt lat="42.10192" lon="2.44264">
        <ele>535.1</ele>
        <time>2019-04-11T23:00:18Z</time>
      </trkpt>
      <trkpt lat="42.10192" lon="2.44263">
        <ele>535.3</ele>
        <time>2019-04-11T23:00:18Z</time>
      </trkpt>
      <trkpt lat="42.10192" lon="2.44263">
        <ele>535.2</ele>
        <time>2019-04-11T23:00:18Z</time>
      </trkpt>
      <trkpt lat="42.10192" lon="2.44262">
        <ele>535</ele>
        <time>2019-04-11T23:00:18Z</time>
      </trkpt>
      <trkpt lat="42.10192" lon="2.44261">
        <ele>534.7</ele>
        <time>2019-04-11T23:00:19Z</time>
      </trkpt>
      <trkpt lat="42.10192" lon="2.44261">
        <ele>534.7</ele>
        <time>2019-04-11T23:00:19Z</time>
      </trkpt>
      <trkpt lat="42.10192" lon="2.4426">
        <ele>534.8</ele>
        <time>2019-04-11T23:00:19Z</time>
      </trkpt>
      <trkpt lat="42.10192" lon="2.44259">
        <ele>534.8</ele>
        <time>2019-04-11T23:00:19Z</time>
      </trkpt>
      <trkpt lat="42.10192" lon="2.44258">
        <ele>535.1</ele>
        <time>2019-04-11T23:00:20Z</time>
      </trkpt>
      <trkpt lat="42.10192" lon="2.44257">
        <ele>535.4</ele>
        <time>2019-04-11T23:00:20Z</time>
      </trkpt>
      <trkpt lat="42.1019" lon="2.44251">
        <ele>536.4</ele>
        <time>2019-04-11T23:00:22Z</time>
      </trkpt>
      <trkpt lat="42.1019" lon="2.44243">
        <ele>538.2</ele>
        <time>2019-04-11T23:00:24Z</time>
      </trkpt>
      <trkpt lat="42.10188" lon="2.44237">
        <ele>539.3</ele>
        <time>2019-04-11T23:00:26Z</time>
      </trkpt>
      <trkpt lat="42.10188" lon="2.44229">
        <ele>539.8</ele>
        <time>2019-04-11T23:00:28Z</time>
      </trkpt>
      <trkpt lat="42.10187" lon="2.44227">
        <ele>539.7</ele>
        <time>2019-04-11T23:00:29Z</time>
      </trkpt>
      <trkpt lat="42.10188" lon="2.44224">
        <ele>540.2</ele>
        <time>2019-04-11T23:00:30Z</time>
      </trkpt>
      <trkpt lat="42.10187" lon="2.4422">
        <ele>540.9</ele>
        <time>2019-04-11T23:00:31Z</time>
      </trkpt>
      <trkpt lat="42.10186" lon="2.44218">
        <ele>541.2</ele>
        <time>2019-04-11T23:00:32Z</time>
      </trkpt>
      <trkpt lat="42.10186" lon="2.44216">
        <ele>541.7</ele>
        <time>2019-04-11T23:00:32Z</time>
      </trkpt>
      <trkpt lat="42.10186" lon="2.44214">
        <ele>542</ele>
        <time>2019-04-11T23:00:33Z</time>
      </trkpt>
      <trkpt lat="42.10185" lon="2.44213">
        <ele>542.5</ele>
        <time>2019-04-11T23:00:33Z</time>
      </trkpt>
      <trkpt lat="42.10185" lon="2.44211">
        <ele>542.7</ele>
        <time>2019-04-11T23:00:34Z</time>
      </trkpt>
      <trkpt lat="42.10185" lon="2.44208">
        <ele>543.5</ele>
        <time>2019-04-11T23:00:35Z</time>
      </trkpt>
      <trkpt lat="42.10185" lon="2.44206">
        <ele>544</ele>
        <time>2019-04-11T23:00:35Z</time>
      </trkpt>
      <trkpt lat="42.10184" lon="2.44204">
        <ele>544.2</ele>
        <time>2019-04-11T23:00:36Z</time>
      </trkpt>
      <trkpt lat="42.10184" lon="2.44202">
        <ele>544.6</ele>
        <time>2019-04-11T23:00:37Z</time>
      </trkpt>
      <trkpt lat="42.10184" lon="2.442">
        <ele>545.2</ele>
        <time>2019-04-11T23:00:37Z</time>
      </trkpt>
      <trkpt lat="42.10183" lon="2.44198">
        <ele>545.7</ele>
        <time>2019-04-11T23:00:38Z</time>
      </trkpt>
      <trkpt lat="42.10183" lon="2.44196">
        <ele>546.3</ele>
        <time>2019-04-11T23:00:38Z</time>
      </trkpt>
      <trkpt lat="42.10183" lon="2.44194">
        <ele>546.6</ele>
        <time>2019-04-11T23:00:39Z</time>
      </trkpt>
      <trkpt lat="42.10183" lon="2.44193">
        <ele>546.7</ele>
        <time>2019-04-11T23:00:40Z</time>
      </trkpt>
      <trkpt lat="42.10182" lon="2.44191">
        <ele>546.8</ele>
        <time>2019-04-11T23:00:40Z</time>
      </trkpt>
      <trkpt lat="42.10183" lon="2.44184">
        <ele>546.7</ele>
        <time>2019-04-11T23:00:42Z</time>
      </trkpt>
      <trkpt lat="42.10184" lon="2.44177">
        <ele>546.4</ele>
        <time>2019-04-11T23:00:44Z</time>
      </trkpt>
      <trkpt lat="42.10185" lon="2.44176">
        <ele>546.2</ele>
        <time>2019-04-11T23:00:45Z</time>
      </trkpt>
      <trkpt lat="42.10186" lon="2.44174">
        <ele>546</ele>
        <time>2019-04-11T23:00:45Z</time>
      </trkpt>
      <trkpt lat="42.10186" lon="2.44173">
        <ele>546.1</ele>
        <time>2019-04-11T23:00:46Z</time>
      </trkpt>
      <trkpt lat="42.10186" lon="2.44171">
        <ele>546</ele>
        <time>2019-04-11T23:00:46Z</time>
      </trkpt>
      <trkpt lat="42.10187" lon="2.4417">
        <ele>546.2</ele>
        <time>2019-04-11T23:00:47Z</time>
      </trkpt>
      <trkpt lat="42.10187" lon="2.44168">
        <ele>546.3</ele>
        <time>2019-04-11T23:00:47Z</time>
      </trkpt>
      <trkpt lat="42.10187" lon="2.44164">
        <ele>546.6</ele>
        <time>2019-04-11T23:00:48Z</time>
      </trkpt>
      <trkpt lat="42.10187" lon="2.44163">
        <ele>546.8</ele>
        <time>2019-04-11T23:00:49Z</time>
      </trkpt>
      <trkpt lat="42.10187" lon="2.44155">
        <ele>547.8</ele>
        <time>2019-04-11T23:00:51Z</time>
      </trkpt>
      <trkpt lat="42.10186" lon="2.44153">
        <ele>548.2</ele>
        <time>2019-04-11T23:00:52Z</time>
      </trkpt>
      <trkpt lat="42.10182" lon="2.44147">
        <ele>550.3</ele>
        <time>2019-04-11T23:00:54Z</time>
      </trkpt>
      <trkpt lat="42.10181" lon="2.44145">
        <ele>550.6</ele>
        <time>2019-04-11T23:00:55Z</time>
      </trkpt>
      <trkpt lat="42.1018" lon="2.44143">
        <ele>550.7</ele>
        <time>2019-04-11T23:00:56Z</time>
      </trkpt>
      <trkpt lat="42.10179" lon="2.44141">
        <ele>551.1</ele>
        <time>2019-04-11T23:00:56Z</time>
      </trkpt>
      <trkpt lat="42.10177" lon="2.44138">
        <ele>551.5</ele>
        <time>2019-04-11T23:00:58Z</time>
      </trkpt>
      <trkpt lat="42.10172" lon="2.44134">
        <ele>549.9</ele>
        <time>2019-04-11T23:01:00Z</time>
      </trkpt>
      <trkpt lat="42.10172" lon="2.44132">
        <ele>549.5</ele>
        <time>2019-04-11T23:01:00Z</time>
      </trkpt>
      <trkpt lat="42.10167" lon="2.44126">
        <ele>547.9</ele>
        <time>2019-04-11T23:01:03Z</time>
      </trkpt>
      <trkpt lat="42.10167" lon="2.44125">
        <ele>547.6</ele>
        <time>2019-04-11T23:01:03Z</time>
      </trkpt>
      <trkpt lat="42.10166" lon="2.44123">
        <ele>547.5</ele>
        <time>2019-04-11T23:01:04Z</time>
      </trkpt>
      <trkpt lat="42.10166" lon="2.44122">
        <ele>547.2</ele>
        <time>2019-04-11T23:01:04Z</time>
      </trkpt>
      <trkpt lat="42.10166" lon="2.44121">
        <ele>547</ele>
        <time>2019-04-11T23:01:05Z</time>
      </trkpt>
      <trkpt lat="42.10166" lon="2.4412">
        <ele>546.7</ele>
        <time>2019-04-11T23:01:05Z</time>
      </trkpt>
      <trkpt lat="42.10166" lon="2.44119">
        <ele>546.5</ele>
        <time>2019-04-11T23:01:05Z</time>
      </trkpt>
      <trkpt lat="42.10166" lon="2.44119">
        <ele>546.1</ele>
        <time>2019-04-11T23:01:05Z</time>
      </trkpt>
      <trkpt lat="42.10166" lon="2.44119">
        <ele>546</ele>
        <time>2019-04-11T23:01:05Z</time>
      </trkpt>
      <trkpt lat="42.10166" lon="2.44119">
        <ele>545.7</ele>
        <time>2019-04-11T23:01:05Z</time>
      </trkpt>
      <trkpt lat="42.10166" lon="2.44119">
        <ele>545.7</ele>
        <time>2019-04-11T23:01:06Z</time>
      </trkpt>
      <trkpt lat="42.10166" lon="2.44118">
        <ele>545.9</ele>
        <time>2019-04-11T23:01:06Z</time>
      </trkpt>
      <trkpt lat="42.10165" lon="2.44117">
        <ele>546.2</ele>
        <time>2019-04-11T23:01:06Z</time>
      </trkpt>
      <trkpt lat="42.10164" lon="2.44114">
        <ele>546.7</ele>
        <time>2019-04-11T23:01:07Z</time>
      </trkpt>
      <trkpt lat="42.10163" lon="2.44112">
        <ele>547.2</ele>
        <time>2019-04-11T23:01:08Z</time>
      </trkpt>
      <trkpt lat="42.10163" lon="2.4411">
        <ele>547.5</ele>
        <time>2019-04-11T23:01:08Z</time>
      </trkpt>
      <trkpt lat="42.10163" lon="2.44109">
        <ele>547.9</ele>
        <time>2019-04-11T23:01:09Z</time>
      </trkpt>
      <trkpt lat="42.10163" lon="2.44108">
        <ele>548.2</ele>
        <time>2019-04-11T23:01:09Z</time>
      </trkpt>
      <trkpt lat="42.10159" lon="2.44106">
        <ele>549.1</ele>
        <time>2019-04-11T23:01:11Z</time>
      </trkpt>
      <trkpt lat="42.10158" lon="2.44106">
        <ele>549.5</ele>
        <time>2019-04-11T23:01:11Z</time>
      </trkpt>
      <trkpt lat="42.10157" lon="2.44104">
        <ele>550</ele>
        <time>2019-04-11T23:01:12Z</time>
      </trkpt>
      <trkpt lat="42.10157" lon="2.44104">
        <ele>550.5</ele>
        <time>2019-04-11T23:01:12Z</time>
      </trkpt>
      <trkpt lat="42.10156" lon="2.44103">
        <ele>551.3</ele>
        <time>2019-04-11T23:01:12Z</time>
      </trkpt>
      <trkpt lat="42.10156" lon="2.44101">
        <ele>552.8</ele>
        <time>2019-04-11T23:01:13Z</time>
      </trkpt>
      <trkpt lat="42.10156" lon="2.441">
        <ele>553.5</ele>
        <time>2019-04-11T23:01:13Z</time>
      </trkpt>
      <trkpt lat="42.10156" lon="2.44099">
        <ele>554.1</ele>
        <time>2019-04-11T23:01:13Z</time>
      </trkpt>
      <trkpt lat="42.10155" lon="2.44098">
        <ele>554.3</ele>
        <time>2019-04-11T23:01:14Z</time>
      </trkpt>
      <trkpt lat="42.10155" lon="2.44097">
        <ele>554.4</ele>
        <time>2019-04-11T23:01:14Z</time>
      </trkpt>
      <trkpt lat="42.10155" lon="2.44096">
        <ele>554.2</ele>
        <time>2019-04-11T23:01:14Z</time>
      </trkpt>
      <trkpt lat="42.10155" lon="2.44095">
        <ele>554.1</ele>
        <time>2019-04-11T23:01:15Z</time>
      </trkpt>
      <trkpt lat="42.10155" lon="2.44092">
        <ele>554</ele>
        <time>2019-04-11T23:01:16Z</time>
      </trkpt>
      <trkpt lat="42.10156" lon="2.44091">
        <ele>553.7</ele>
        <time>2019-04-11T23:01:16Z</time>
      </trkpt>
      <trkpt lat="42.10156" lon="2.44091">
        <ele>553.5</ele>
        <time>2019-04-11T23:01:16Z</time>
      </trkpt>
      <trkpt lat="42.10156" lon="2.44091">
        <ele>553.5</ele>
        <time>2019-04-11T23:01:16Z</time>
      </trkpt>
      <trkpt lat="42.10156" lon="2.4409">
        <ele>553.3</ele>
        <time>2019-04-11T23:01:16Z</time>
      </trkpt>
      <trkpt lat="42.10156" lon="2.4409">
        <ele>553</ele>
        <time>2019-04-11T23:01:16Z</time>
      </trkpt>
      <trkpt lat="42.10156" lon="2.4409">
        <ele>553</ele>
        <time>2019-04-11T23:01:16Z</time>
      </trkpt>
      <trkpt lat="42.10156" lon="2.4409">
        <ele>553</ele>
        <time>2019-04-11T23:01:16Z</time>
      </trkpt>
      <trkpt lat="42.10156" lon="2.4409">
        <ele>552.9</ele>
        <time>2019-04-11T23:01:16Z</time>
      </trkpt>
      <trkpt lat="42.10156" lon="2.4409">
        <ele>552.9</ele>
        <time>2019-04-11T23:01:17Z</time>
      </trkpt>
      <trkpt lat="42.10156" lon="2.44089">
        <ele>552.9</ele>
        <time>2019-04-11T23:01:17Z</time>
      </trkpt>
      <trkpt lat="42.10156" lon="2.44089">
        <ele>552.9</ele>
        <time>2019-04-11T23:01:17Z</time>
      </trkpt>
      <trkpt lat="42.10156" lon="2.44089">
        <ele>553</ele>
        <time>2019-04-11T23:01:17Z</time>
      </trkpt>
      <trkpt lat="42.10156" lon="2.44088">
        <ele>553</ele>
        <time>2019-04-11T23:01:17Z</time>
      </trkpt>
      <trkpt lat="42.10156" lon="2.44088">
        <ele>553.2</ele>
        <time>2019-04-11T23:01:17Z</time>
      </trkpt>
      <trkpt lat="42.10156" lon="2.44088">
        <ele>553.3</ele>
        <time>2019-04-11T23:01:17Z</time>
      </trkpt>
      <trkpt lat="42.10156" lon="2.44088">
        <ele>553.6</ele>
        <time>2019-04-11T23:01:17Z</time>
      </trkpt>
      <trkpt lat="42.10156" lon="2.44087">
        <ele>553.9</ele>
        <time>2019-04-11T23:01:17Z</time>
      </trkpt>
      <trkpt lat="42.10156" lon="2.44087">
        <ele>554.2</ele>
        <time>2019-04-11T23:01:17Z</time>
      </trkpt>
      <trkpt lat="42.10156" lon="2.44087">
        <ele>554.8</ele>
        <time>2019-04-11T23:01:18Z</time>
      </trkpt>
      <trkpt lat="42.10156" lon="2.44087">
        <ele>555.2</ele>
        <time>2019-04-11T23:01:18Z</time>
      </trkpt>
      <trkpt lat="42.10156" lon="2.44087">
        <ele>555.6</ele>
        <time>2019-04-11T23:01:18Z</time>
      </trkpt>
      <trkpt lat="42.10156" lon="2.44086">
        <ele>555.9</ele>
        <time>2019-04-11T23:01:18Z</time>
      </trkpt>
      <trkpt lat="42.10156" lon="2.44086">
        <ele>556.2</ele>
        <time>2019-04-11T23:01:18Z</time>
      </trkpt>
      <trkpt lat="42.10156" lon="2.44086">
        <ele>556.6</ele>
        <time>2019-04-11T23:01:18Z</time>
      </trkpt>
      <trkpt lat="42.10157" lon="2.44086">
        <ele>556.7</ele>
        <time>2019-04-11T23:01:18Z</time>
      </trkpt>
      <trkpt lat="42.10157" lon="2.44086">
        <ele>557.1</ele>
        <time>2019-04-11T23:01:18Z</time>
      </trkpt>
      <trkpt lat="42.10157" lon="2.44085">
        <ele>557.5</ele>
        <time>2019-04-11T23:01:18Z</time>
      </trkpt>
      <trkpt lat="42.10157" lon="2.44085">
        <ele>557.7</ele>
        <time>2019-04-11T23:01:18Z</time>
      </trkpt>
      <trkpt lat="42.10157" lon="2.44085">
        <ele>558.2</ele>
        <time>2019-04-11T23:01:18Z</time>
      </trkpt>
      <trkpt lat="42.10157" lon="2.44085">
        <ele>558.8</ele>
        <time>2019-04-11T23:01:18Z</time>
      </trkpt>
      <trkpt lat="42.10158" lon="2.44084">
        <ele>559.3</ele>
        <time>2019-04-11T23:01:19Z</time>
      </trkpt>
      <trkpt lat="42.10158" lon="2.44084">
        <ele>559.5</ele>
        <time>2019-04-11T23:01:19Z</time>
      </trkpt>
      <trkpt lat="42.10158" lon="2.44083">
        <ele>559.7</ele>
        <time>2019-04-11T23:01:19Z</time>
      </trkpt>
      <trkpt lat="42.10158" lon="2.44083">
        <ele>560</ele>
        <time>2019-04-11T23:01:19Z</time>
      </trkpt>
      <trkpt lat="42.10158" lon="2.44083">
        <ele>560.2</ele>
        <time>2019-04-11T23:01:19Z</time>
      </trkpt>
      <trkpt lat="42.10158" lon="2.44082">
        <ele>560.5</ele>
        <time>2019-04-11T23:01:19Z</time>
      </trkpt>
      <trkpt lat="42.10159" lon="2.44082">
        <ele>561</ele>
        <time>2019-04-11T23:01:19Z</time>
      </trkpt>
      <trkpt lat="42.10159" lon="2.44082">
        <ele>561.1</ele>
        <time>2019-04-11T23:01:20Z</time>
      </trkpt>
      <trkpt lat="42.10159" lon="2.44081">
        <ele>561.1</ele>
        <time>2019-04-11T23:01:20Z</time>
      </trkpt>
      <trkpt lat="42.10159" lon="2.44081">
        <ele>561.1</ele>
        <time>2019-04-11T23:01:20Z</time>
      </trkpt>
      <trkpt lat="42.10159" lon="2.4408">
        <ele>561.1</ele>
        <time>2019-04-11T23:01:20Z</time>
      </trkpt>
      <trkpt lat="42.10159" lon="2.4408">
        <ele>561.1</ele>
        <time>2019-04-11T23:01:20Z</time>
      </trkpt>
      <trkpt lat="42.10159" lon="2.44079">
        <ele>561</ele>
        <time>2019-04-11T23:01:20Z</time>
      </trkpt>
      <trkpt lat="42.10159" lon="2.44079">
        <ele>560.7</ele>
        <time>2019-04-11T23:01:21Z</time>
      </trkpt>
      <trkpt lat="42.10159" lon="2.44078">
        <ele>560.7</ele>
        <time>2019-04-11T23:01:21Z</time>
      </trkpt>
      <trkpt lat="42.10159" lon="2.44078">
        <ele>560.7</ele>
        <time>2019-04-11T23:01:21Z</time>
      </trkpt>
      <trkpt lat="42.10159" lon="2.44077">
        <ele>560.6</ele>
        <time>2019-04-11T23:01:21Z</time>
      </trkpt>
      <trkpt lat="42.10159" lon="2.44076">
        <ele>560.6</ele>
        <time>2019-04-11T23:01:21Z</time>
      </trkpt>
      <trkpt lat="42.10159" lon="2.44076">
        <ele>560.5</ele>
        <time>2019-04-11T23:01:21Z</time>
      </trkpt>
      <trkpt lat="42.10159" lon="2.44076">
        <ele>560.5</ele>
        <time>2019-04-11T23:01:21Z</time>
      </trkpt>
      <trkpt lat="42.10159" lon="2.44076">
        <ele>560.6</ele>
        <time>2019-04-11T23:01:21Z</time>
      </trkpt>
      <trkpt lat="42.10159" lon="2.44076">
        <ele>560.5</ele>
        <time>2019-04-11T23:01:22Z</time>
      </trkpt>
      <trkpt lat="42.10158" lon="2.44076">
        <ele>560.7</ele>
        <time>2019-04-11T23:01:22Z</time>
      </trkpt>
      <trkpt lat="42.10158" lon="2.44077">
        <ele>561</ele>
        <time>2019-04-11T23:01:22Z</time>
      </trkpt>
      <trkpt lat="42.10158" lon="2.44078">
        <ele>561.2</ele>
        <time>2019-04-11T23:01:22Z</time>
      </trkpt>
      <trkpt lat="42.10158" lon="2.44078">
        <ele>561.2</ele>
        <time>2019-04-11T23:01:22Z</time>
      </trkpt>
      <trkpt lat="42.10157" lon="2.44079">
        <ele>561.3</ele>
        <time>2019-04-11T23:01:23Z</time>
      </trkpt>
      <trkpt lat="42.10157" lon="2.4408">
        <ele>561.2</ele>
        <time>2019-04-11T23:01:23Z</time>
      </trkpt>
      <trkpt lat="42.10156" lon="2.44081">
        <ele>561.5</ele>
        <time>2019-04-11T23:01:23Z</time>
      </trkpt>
      <trkpt lat="42.10156" lon="2.44081">
        <ele>561.6</ele>
        <time>2019-04-11T23:01:23Z</time>
      </trkpt>
      <trkpt lat="42.10155" lon="2.44081">
        <ele>561.6</ele>
        <time>2019-04-11T23:01:24Z</time>
      </trkpt>
      <trkpt lat="42.10155" lon="2.44082">
        <ele>561.6</ele>
        <time>2019-04-11T23:01:24Z</time>
      </trkpt>
      <trkpt lat="42.10155" lon="2.44082">
        <ele>561.3</ele>
        <time>2019-04-11T23:01:24Z</time>
      </trkpt>
      <trkpt lat="42.10154" lon="2.44082">
        <ele>561</ele>
        <time>2019-04-11T23:01:24Z</time>
      </trkpt>
      <trkpt lat="42.10154" lon="2.44082">
        <ele>560.5</ele>
        <time>2019-04-11T23:01:24Z</time>
      </trkpt>
      <trkpt lat="42.10154" lon="2.44082">
        <ele>560</ele>
        <time>2019-04-11T23:01:24Z</time>
      </trkpt>
      <trkpt lat="42.10154" lon="2.44083">
        <ele>559.5</ele>
        <time>2019-04-11T23:01:24Z</time>
      </trkpt>
      <trkpt lat="42.10154" lon="2.44083">
        <ele>559</ele>
        <time>2019-04-11T23:01:24Z</time>
      </trkpt>
      <trkpt lat="42.10154" lon="2.44083">
        <ele>558.5</ele>
        <time>2019-04-11T23:01:24Z</time>
      </trkpt>
      <trkpt lat="42.10154" lon="2.44083">
        <ele>557.9</ele>
        <time>2019-04-11T23:01:25Z</time>
      </trkpt>
      <trkpt lat="42.10154" lon="2.44083">
        <ele>557.6</ele>
        <time>2019-04-11T23:01:25Z</time>
      </trkpt>
      <trkpt lat="42.10154" lon="2.44083">
        <ele>557.2</ele>
        <time>2019-04-11T23:01:25Z</time>
      </trkpt>
      <trkpt lat="42.10153" lon="2.44083">
        <ele>556.9</ele>
        <time>2019-04-11T23:01:25Z</time>
      </trkpt>
      <trkpt lat="42.10153" lon="2.44083">
        <ele>556.6</ele>
        <time>2019-04-11T23:01:25Z</time>
      </trkpt>
      <trkpt lat="42.10153" lon="2.44083">
        <ele>555.6</ele>
        <time>2019-04-11T23:01:25Z</time>
      </trkpt>
      <trkpt lat="42.10153" lon="2.44083">
        <ele>555</ele>
        <time>2019-04-11T23:01:25Z</time>
      </trkpt>
      <trkpt lat="42.10153" lon="2.44084">
        <ele>554.7</ele>
        <time>2019-04-11T23:01:25Z</time>
      </trkpt>
      <trkpt lat="42.10154" lon="2.44084">
        <ele>554.5</ele>
        <time>2019-04-11T23:01:25Z</time>
      </trkpt>
      <trkpt lat="42.10153" lon="2.44085">
        <ele>554.5</ele>
        <time>2019-04-11T23:01:25Z</time>
      </trkpt>
      <trkpt lat="42.10153" lon="2.44085">
        <ele>554.2</ele>
        <time>2019-04-11T23:01:26Z</time>
      </trkpt>
      <trkpt lat="42.10153" lon="2.44085">
        <ele>554</ele>
        <time>2019-04-11T23:01:26Z</time>
      </trkpt>
      <trkpt lat="42.10153" lon="2.44086">
        <ele>553.8</ele>
        <time>2019-04-11T23:01:26Z</time>
      </trkpt>
      <trkpt lat="42.10153" lon="2.44086">
        <ele>553.2</ele>
        <time>2019-04-11T23:01:26Z</time>
      </trkpt>
      <trkpt lat="42.10153" lon="2.44087">
        <ele>553.1</ele>
        <time>2019-04-11T23:01:26Z</time>
      </trkpt>
      <trkpt lat="42.10153" lon="2.44088">
        <ele>552.6</ele>
        <time>2019-04-11T23:01:27Z</time>
      </trkpt>
      <trkpt lat="42.10153" lon="2.44088">
        <ele>552.3</ele>
        <time>2019-04-11T23:01:27Z</time>
      </trkpt>
      <trkpt lat="42.10154" lon="2.44088">
        <ele>551.9</ele>
        <time>2019-04-11T23:01:27Z</time>
      </trkpt>
      <trkpt lat="42.10155" lon="2.44088">
        <ele>551.5</ele>
        <time>2019-04-11T23:01:28Z</time>
      </trkpt>
      <trkpt lat="42.10158" lon="2.44087">
        <ele>551</ele>
        <time>2019-04-11T23:01:29Z</time>
      </trkpt>
      <trkpt lat="42.1016" lon="2.44087">
        <ele>551</ele>
        <time>2019-04-11T23:01:30Z</time>
      </trkpt>
      <trkpt lat="42.10161" lon="2.44087">
        <ele>551.5</ele>
        <time>2019-04-11T23:01:30Z</time>
      </trkpt>
      <trkpt lat="42.10162" lon="2.44086">
        <ele>551.5</ele>
        <time>2019-04-11T23:01:31Z</time>
      </trkpt>
      <trkpt lat="42.10163" lon="2.44086">
        <ele>551.7</ele>
        <time>2019-04-11T23:01:31Z</time>
      </trkpt>
      <trkpt lat="42.10164" lon="2.44086">
        <ele>551.8</ele>
        <time>2019-04-11T23:01:31Z</time>
      </trkpt>
      <trkpt lat="42.10164" lon="2.44087">
        <ele>552</ele>
        <time>2019-04-11T23:01:31Z</time>
      </trkpt>
      <trkpt lat="42.10164" lon="2.44087">
        <ele>552.2</ele>
        <time>2019-04-11T23:01:31Z</time>
      </trkpt>
      <trkpt lat="42.10164" lon="2.44087">
        <ele>552.6</ele>
        <time>2019-04-11T23:01:31Z</time>
      </trkpt>
      <trkpt lat="42.10164" lon="2.44087">
        <ele>552.7</ele>
        <time>2019-04-11T23:01:31Z</time>
      </trkpt>
      <trkpt lat="42.10164" lon="2.44087">
        <ele>553</ele>
        <time>2019-04-11T23:01:31Z</time>
      </trkpt>
      <trkpt lat="42.10164" lon="2.44087">
        <ele>553.4</ele>
        <time>2019-04-11T23:01:32Z</time>
      </trkpt>
      <trkpt lat="42.10164" lon="2.44087">
        <ele>553.8</ele>
        <time>2019-04-11T23:01:32Z</time>
      </trkpt>
      <trkpt lat="42.10164" lon="2.44087">
        <ele>553.9</ele>
        <time>2019-04-11T23:01:32Z</time>
      </trkpt>
      <trkpt lat="42.10164" lon="2.44087">
        <ele>554</ele>
        <time>2019-04-11T23:01:32Z</time>
      </trkpt>
      <trkpt lat="42.10163" lon="2.44087">
        <ele>554.3</ele>
        <time>2019-04-11T23:01:32Z</time>
      </trkpt>
      <trkpt lat="42.10163" lon="2.44088">
        <ele>554.3</ele>
        <time>2019-04-11T23:01:32Z</time>
      </trkpt>
      <trkpt lat="42.10163" lon="2.44088">
        <ele>554.2</ele>
        <time>2019-04-11T23:01:32Z</time>
      </trkpt>
      <trkpt lat="42.10163" lon="2.44088">
        <ele>554.3</ele>
        <time>2019-04-11T23:01:32Z</time>
      </trkpt>
      <trkpt lat="42.10163" lon="2.44088">
        <ele>554.4</ele>
        <time>2019-04-11T23:01:32Z</time>
      </trkpt>
      <trkpt lat="42.10163" lon="2.44088">
        <ele>554.6</ele>
        <time>2019-04-11T23:01:32Z</time>
      </trkpt>
      <trkpt lat="42.10164" lon="2.4409">
        <ele>554.7</ele>
        <time>2019-04-11T23:01:33Z</time>
      </trkpt>
      <trkpt lat="42.10164" lon="2.4409">
        <ele>554.9</ele>
        <time>2019-04-11T23:01:33Z</time>
      </trkpt>
      <trkpt lat="42.10164" lon="2.44092">
        <ele>555.3</ele>
        <time>2019-04-11T23:01:33Z</time>
      </trkpt>
      <trkpt lat="42.10164" lon="2.44092">
        <ele>555.4</ele>
        <time>2019-04-11T23:01:33Z</time>
      </trkpt>
      <trkpt lat="42.10165" lon="2.44092">
        <ele>555.6</ele>
        <time>2019-04-11T23:01:33Z</time>
      </trkpt>
      <trkpt lat="42.10165" lon="2.44092">
        <ele>555.8</ele>
        <time>2019-04-11T23:01:34Z</time>
      </trkpt>
      <trkpt lat="42.10166" lon="2.44093">
        <ele>555.4</ele>
        <time>2019-04-11T23:01:34Z</time>
      </trkpt>
      <trkpt lat="42.10166" lon="2.44093">
        <ele>555.1</ele>
        <time>2019-04-11T23:01:34Z</time>
      </trkpt>
      <trkpt lat="42.10166" lon="2.44093">
        <ele>554.8</ele>
        <time>2019-04-11T23:01:34Z</time>
      </trkpt>
      <trkpt lat="42.10166" lon="2.44093">
        <ele>554.7</ele>
        <time>2019-04-11T23:01:34Z</time>
      </trkpt>
      <trkpt lat="42.10166" lon="2.44092">
        <ele>554.5</ele>
        <time>2019-04-11T23:01:35Z</time>
      </trkpt>
      <trkpt lat="42.10166" lon="2.4409">
        <ele>554.4</ele>
        <time>2019-04-11T23:01:35Z</time>
      </trkpt>
      <trkpt lat="42.10166" lon="2.4409">
        <ele>554.4</ele>
        <time>2019-04-11T23:01:35Z</time>
      </trkpt>
      <trkpt lat="42.10167" lon="2.4409">
        <ele>554.4</ele>
        <time>2019-04-11T23:01:35Z</time>
      </trkpt>
      <trkpt lat="42.10167" lon="2.44088">
        <ele>554.3</ele>
        <time>2019-04-11T23:01:36Z</time>
      </trkpt>
      <trkpt lat="42.10168" lon="2.44088">
        <ele>554.2</ele>
        <time>2019-04-11T23:01:36Z</time>
      </trkpt>
      <trkpt lat="42.10168" lon="2.44086">
        <ele>553.8</ele>
        <time>2019-04-11T23:01:37Z</time>
      </trkpt>
      <trkpt lat="42.10169" lon="2.44086">
        <ele>553.7</ele>
        <time>2019-04-11T23:01:37Z</time>
      </trkpt>
      <trkpt lat="42.10169" lon="2.44086">
        <ele>553.6</ele>
        <time>2019-04-11T23:01:37Z</time>
      </trkpt>
      <trkpt lat="42.10169" lon="2.44086">
        <ele>553.3</ele>
        <time>2019-04-11T23:01:37Z</time>
      </trkpt>
      <trkpt lat="42.10169" lon="2.44086">
        <ele>553.2</ele>
        <time>2019-04-11T23:01:37Z</time>
      </trkpt>
      <trkpt lat="42.10169" lon="2.44086">
        <ele>553</ele>
        <time>2019-04-11T23:01:37Z</time>
      </trkpt>
      <trkpt lat="42.1017" lon="2.44086">
        <ele>552</ele>
        <time>2019-04-11T23:01:37Z</time>
      </trkpt>
      <trkpt lat="42.1017" lon="2.44086">
        <ele>552</ele>
        <time>2019-04-11T23:01:37Z</time>
      </trkpt>
      <trkpt lat="42.1017" lon="2.44086">
        <ele>552</ele>
        <time>2019-04-11T23:01:37Z</time>
      </trkpt>
      <trkpt lat="42.1017" lon="2.44086">
        <ele>552.1</ele>
        <time>2019-04-11T23:01:37Z</time>
      </trkpt>
      <trkpt lat="42.1017" lon="2.44086">
        <ele>552.2</ele>
        <time>2019-04-11T23:01:37Z</time>
      </trkpt>
      <trkpt lat="42.10169" lon="2.44087">
        <ele>553</ele>
        <time>2019-04-11T23:01:38Z</time>
      </trkpt>
      <trkpt lat="42.1017" lon="2.44087">
        <ele>553</ele>
        <time>2019-04-11T23:01:38Z</time>
      </trkpt>
      <trkpt lat="42.1017" lon="2.44087">
        <ele>553.3</ele>
        <time>2019-04-11T23:01:38Z</time>
      </trkpt>
      <trkpt lat="42.1017" lon="2.44087">
        <ele>553.5</ele>
        <time>2019-04-11T23:01:38Z</time>
      </trkpt>
      <trkpt lat="42.10169" lon="2.44087">
        <ele>553.9</ele>
        <time>2019-04-11T23:01:38Z</time>
      </trkpt>
      <trkpt lat="42.10169" lon="2.44087">
        <ele>554.3</ele>
        <time>2019-04-11T23:01:38Z</time>
      </trkpt>
      <trkpt lat="42.10169" lon="2.44088">
        <ele>554.5</ele>
        <time>2019-04-11T23:01:38Z</time>
      </trkpt>
      <trkpt lat="42.10169" lon="2.44088">
        <ele>555.4</ele>
        <time>2019-04-11T23:01:38Z</time>
      </trkpt>
      <trkpt lat="42.10168" lon="2.44088">
        <ele>556.1</ele>
        <time>2019-04-11T23:01:39Z</time>
      </trkpt>
      <trkpt lat="42.10168" lon="2.44088">
        <ele>556.8</ele>
        <time>2019-04-11T23:01:39Z</time>
      </trkpt>
      <trkpt lat="42.10168" lon="2.44089">
        <ele>557.2</ele>
        <time>2019-04-11T23:01:39Z</time>
      </trkpt>
      <trkpt lat="42.10167" lon="2.44089">
        <ele>557.5</ele>
        <time>2019-04-11T23:01:39Z</time>
      </trkpt>
      <trkpt lat="42.10167" lon="2.44089">
        <ele>557.7</ele>
        <time>2019-04-11T23:01:39Z</time>
      </trkpt>
      <trkpt lat="42.10167" lon="2.44089">
        <ele>558</ele>
        <time>2019-04-11T23:01:39Z</time>
      </trkpt>
      <trkpt lat="42.10167" lon="2.44089">
        <ele>558.3</ele>
        <time>2019-04-11T23:01:39Z</time>
      </trkpt>
      <trkpt lat="42.10167" lon="2.44089">
        <ele>558.5</ele>
        <time>2019-04-11T23:01:39Z</time>
      </trkpt>
      <trkpt lat="42.10166" lon="2.44089">
        <ele>558.5</ele>
        <time>2019-04-11T23:01:40Z</time>
      </trkpt>
      <trkpt lat="42.10166" lon="2.44089">
        <ele>558.5</ele>
        <time>2019-04-11T23:01:40Z</time>
      </trkpt>
      <trkpt lat="42.10166" lon="2.44089">
        <ele>558.5</ele>
        <time>2019-04-11T23:01:40Z</time>
      </trkpt>
      <trkpt lat="42.10166" lon="2.44089">
        <ele>558.8</ele>
        <time>2019-04-11T23:01:40Z</time>
      </trkpt>
      <trkpt lat="42.10166" lon="2.44088">
        <ele>559.1</ele>
        <time>2019-04-11T23:01:40Z</time>
      </trkpt>
      <trkpt lat="42.10165" lon="2.44088">
        <ele>559.2</ele>
        <time>2019-04-11T23:01:40Z</time>
      </trkpt>
      <trkpt lat="42.10165" lon="2.44088">
        <ele>559.5</ele>
        <time>2019-04-11T23:01:40Z</time>
      </trkpt>
      <trkpt lat="42.10165" lon="2.44088">
        <ele>559.5</ele>
        <time>2019-04-11T23:01:40Z</time>
      </trkpt>
      <trkpt lat="42.10165" lon="2.44087">
        <ele>559.5</ele>
        <time>2019-04-11T23:01:40Z</time>
      </trkpt>
      <trkpt lat="42.10165" lon="2.44087">
        <ele>559.6</ele>
        <time>2019-04-11T23:01:40Z</time>
      </trkpt>
      <trkpt lat="42.10165" lon="2.44087">
        <ele>559.6</ele>
        <time>2019-04-11T23:01:40Z</time>
      </trkpt>
      <trkpt lat="42.10165" lon="2.44087">
        <ele>559.7</ele>
        <time>2019-04-11T23:01:41Z</time>
      </trkpt>
      <trkpt lat="42.10165" lon="2.44087">
        <ele>559.7</ele>
        <time>2019-04-11T23:01:41Z</time>
      </trkpt>
      <trkpt lat="42.10165" lon="2.44086">
        <ele>559.5</ele>
        <time>2019-04-11T23:01:41Z</time>
      </trkpt>
      <trkpt lat="42.10165" lon="2.44086">
        <ele>559.3</ele>
        <time>2019-04-11T23:01:41Z</time>
      </trkpt>
      <trkpt lat="42.10165" lon="2.44085">
        <ele>559</ele>
        <time>2019-04-11T23:01:41Z</time>
      </trkpt>
      <trkpt lat="42.10165" lon="2.44085">
        <ele>558.6</ele>
        <time>2019-04-11T23:01:41Z</time>
      </trkpt>
      <trkpt lat="42.10165" lon="2.44085">
        <ele>558.3</ele>
        <time>2019-04-11T23:01:41Z</time>
      </trkpt>
      <trkpt lat="42.10165" lon="2.44084">
        <ele>557.8</ele>
        <time>2019-04-11T23:01:41Z</time>
      </trkpt>
      <trkpt lat="42.10165" lon="2.44084">
        <ele>557.1</ele>
        <time>2019-04-11T23:01:41Z</time>
      </trkpt>
      <trkpt lat="42.10165" lon="2.44084">
        <ele>556.4</ele>
        <time>2019-04-11T23:01:42Z</time>
      </trkpt>
      <trkpt lat="42.10165" lon="2.44084">
        <ele>555.8</ele>
        <time>2019-04-11T23:01:42Z</time>
      </trkpt>
      <trkpt lat="42.10164" lon="2.44083">
        <ele>555.2</ele>
        <time>2019-04-11T23:01:42Z</time>
      </trkpt>
      <trkpt lat="42.10164" lon="2.44083">
        <ele>554.7</ele>
        <time>2019-04-11T23:01:42Z</time>
      </trkpt>
      <trkpt lat="42.10164" lon="2.44083">
        <ele>554.2</ele>
        <time>2019-04-11T23:01:42Z</time>
      </trkpt>
      <trkpt lat="42.10164" lon="2.44082">
        <ele>554</ele>
        <time>2019-04-11T23:01:42Z</time>
      </trkpt>
      <trkpt lat="42.10164" lon="2.44083">
        <ele>553.8</ele>
        <time>2019-04-11T23:01:42Z</time>
      </trkpt>
      <trkpt lat="42.10164" lon="2.44084">
        <ele>553.8</ele>
        <time>2019-04-11T23:01:43Z</time>
      </trkpt>
      <trkpt lat="42.10164" lon="2.44086">
        <ele>554.5</ele>
        <time>2019-04-11T23:01:43Z</time>
      </trkpt>
      <trkpt lat="42.10164" lon="2.44087">
        <ele>554.7</ele>
        <time>2019-04-11T23:01:44Z</time>
      </trkpt>
      <trkpt lat="42.10163" lon="2.44087">
        <ele>555.3</ele>
        <time>2019-04-11T23:01:44Z</time>
      </trkpt>
      <trkpt lat="42.10162" lon="2.44087">
        <ele>555.9</ele>
        <time>2019-04-11T23:01:44Z</time>
      </trkpt>
      <trkpt lat="42.10162" lon="2.44088">
        <ele>556.5</ele>
        <time>2019-04-11T23:01:44Z</time>
      </trkpt>
      <trkpt lat="42.10161" lon="2.44088">
        <ele>557.2</ele>
        <time>2019-04-11T23:01:45Z</time>
      </trkpt>
      <trkpt lat="42.10161" lon="2.44089">
        <ele>558</ele>
        <time>2019-04-11T23:01:45Z</time>
      </trkpt>
      <trkpt lat="42.1016" lon="2.44089">
        <ele>558.7</ele>
        <time>2019-04-11T23:01:45Z</time>
      </trkpt>
      <trkpt lat="42.10159" lon="2.44089">
        <ele>559.5</ele>
        <time>2019-04-11T23:01:46Z</time>
      </trkpt>
      <trkpt lat="42.10159" lon="2.4409">
        <ele>560.3</ele>
        <time>2019-04-11T23:01:46Z</time>
      </trkpt>
      <trkpt lat="42.10158" lon="2.4409">
        <ele>560.7</ele>
        <time>2019-04-11T23:01:46Z</time>
      </trkpt>
      <trkpt lat="42.10157" lon="2.4409">
        <ele>561</ele>
        <time>2019-04-11T23:01:46Z</time>
      </trkpt>
      <trkpt lat="42.10157" lon="2.4409">
        <ele>561.2</ele>
        <time>2019-04-11T23:01:47Z</time>
      </trkpt>
      <trkpt lat="42.10156" lon="2.4409">
        <ele>561.1</ele>
        <time>2019-04-11T23:01:47Z</time>
      </trkpt>
      <trkpt lat="42.10156" lon="2.44089">
        <ele>561.1</ele>
        <time>2019-04-11T23:01:47Z</time>
      </trkpt>
      <trkpt lat="42.10156" lon="2.44088">
        <ele>561</ele>
        <time>2019-04-11T23:01:47Z</time>
      </trkpt>
      <trkpt lat="42.10156" lon="2.44088">
        <ele>560.7</ele>
        <time>2019-04-11T23:01:48Z</time>
      </trkpt>
      <trkpt lat="42.10155" lon="2.44088">
        <ele>560.5</ele>
        <time>2019-04-11T23:01:48Z</time>
      </trkpt>
      <trkpt lat="42.10155" lon="2.44087">
        <ele>560.2</ele>
        <time>2019-04-11T23:01:48Z</time>
      </trkpt>
      <trkpt lat="42.10155" lon="2.44087">
        <ele>560.1</ele>
        <time>2019-04-11T23:01:48Z</time>
      </trkpt>
      <trkpt lat="42.10154" lon="2.44087">
        <ele>559.7</ele>
        <time>2019-04-11T23:01:48Z</time>
      </trkpt>
      <trkpt lat="42.10154" lon="2.44087">
        <ele>559.6</ele>
        <time>2019-04-11T23:01:48Z</time>
      </trkpt>
      <trkpt lat="42.10154" lon="2.44086">
        <ele>559.2</ele>
        <time>2019-04-11T23:01:48Z</time>
      </trkpt>
      <trkpt lat="42.10153" lon="2.44086">
        <ele>559.1</ele>
        <time>2019-04-11T23:01:49Z</time>
      </trkpt>
      <trkpt lat="42.10153" lon="2.44085">
        <ele>558.8</ele>
        <time>2019-04-11T23:01:49Z</time>
      </trkpt>
      <trkpt lat="42.10152" lon="2.44085">
        <ele>558.6</ele>
        <time>2019-04-11T23:01:49Z</time>
      </trkpt>
      <trkpt lat="42.10151" lon="2.44085">
        <ele>558.5</ele>
        <time>2019-04-11T23:01:50Z</time>
      </trkpt>
      <trkpt lat="42.1015" lon="2.44085">
        <ele>558.7</ele>
        <time>2019-04-11T23:01:50Z</time>
      </trkpt>
      <trkpt lat="42.10146" lon="2.44084">
        <ele>559.2</ele>
        <time>2019-04-11T23:01:52Z</time>
      </trkpt>
      <trkpt lat="42.10145" lon="2.44085">
        <ele>559.4</ele>
        <time>2019-04-11T23:01:52Z</time>
      </trkpt>
      <trkpt lat="42.10143" lon="2.44084">
        <ele>559.7</ele>
        <time>2019-04-11T23:01:53Z</time>
      </trkpt>
      <trkpt lat="42.10141" lon="2.44084">
        <ele>560.1</ele>
        <time>2019-04-11T23:01:54Z</time>
      </trkpt>
      <trkpt lat="42.10139" lon="2.44082">
        <ele>560</ele>
        <time>2019-04-11T23:01:55Z</time>
      </trkpt>
      <trkpt lat="42.10138" lon="2.44081">
        <ele>559.9</ele>
        <time>2019-04-11T23:01:55Z</time>
      </trkpt>
      <trkpt lat="42.10136" lon="2.44078">
        <ele>560.1</ele>
        <time>2019-04-11T23:01:56Z</time>
      </trkpt>
      <trkpt lat="42.10136" lon="2.44076">
        <ele>560.3</ele>
        <time>2019-04-11T23:01:57Z</time>
      </trkpt>
      <trkpt lat="42.10136" lon="2.44075">
        <ele>561</ele>
        <time>2019-04-11T23:01:57Z</time>
      </trkpt>
      <trkpt lat="42.10135" lon="2.44073">
        <ele>561.5</ele>
        <time>2019-04-11T23:01:58Z</time>
      </trkpt>
      <trkpt lat="42.10134" lon="2.4407">
        <ele>562.2</ele>
        <time>2019-04-11T23:01:59Z</time>
      </trkpt>
      <trkpt lat="42.10133" lon="2.44068">
        <ele>562.5</ele>
        <time>2019-04-11T23:01:59Z</time>
      </trkpt>
      <trkpt lat="42.10133" lon="2.44066">
        <ele>562.7</ele>
        <time>2019-04-11T23:02:00Z</time>
      </trkpt>
      <trkpt lat="42.10131" lon="2.44061">
        <ele>562.8</ele>
        <time>2019-04-11T23:02:02Z</time>
      </trkpt>
      <trkpt lat="42.1013" lon="2.44058">
        <ele>563.3</ele>
        <time>2019-04-11T23:02:03Z</time>
      </trkpt>
      <trkpt lat="42.10129" lon="2.44056">
        <ele>563.2</ele>
        <time>2019-04-11T23:02:04Z</time>
      </trkpt>
      <trkpt lat="42.10128" lon="2.44052">
        <ele>563.9</ele>
        <time>2019-04-11T23:02:05Z</time>
      </trkpt>
      <trkpt lat="42.10125" lon="2.44048">
        <ele>565</ele>
        <time>2019-04-11T23:02:07Z</time>
      </trkpt>
      <trkpt lat="42.10122" lon="2.44046">
        <ele>565.8</ele>
        <time>2019-04-11T23:02:08Z</time>
      </trkpt>
      <trkpt lat="42.10121" lon="2.44043">
        <ele>566.3</ele>
        <time>2019-04-11T23:02:09Z</time>
      </trkpt>
      <trkpt lat="42.1012" lon="2.44041">
        <ele>566.5</ele>
        <time>2019-04-11T23:02:09Z</time>
      </trkpt>
      <trkpt lat="42.10119" lon="2.44039">
        <ele>566.8</ele>
        <time>2019-04-11T23:02:10Z</time>
      </trkpt>
      <trkpt lat="42.10118" lon="2.44037">
        <ele>566.9</ele>
        <time>2019-04-11T23:02:11Z</time>
      </trkpt>
      <trkpt lat="42.10116" lon="2.44032">
        <ele>567.2</ele>
        <time>2019-04-11T23:02:13Z</time>
      </trkpt>
      <trkpt lat="42.10113" lon="2.44024">
        <ele>567.3</ele>
        <time>2019-04-11T23:02:15Z</time>
      </trkpt>
      <trkpt lat="42.10112" lon="2.44022">
        <ele>567.2</ele>
        <time>2019-04-11T23:02:16Z</time>
      </trkpt>
      <trkpt lat="42.10111" lon="2.44019">
        <ele>567.5</ele>
        <time>2019-04-11T23:02:17Z</time>
      </trkpt>
      <trkpt lat="42.10108" lon="2.44002">
        <ele>568.1</ele>
        <time>2019-04-11T23:02:22Z</time>
      </trkpt>
      <trkpt lat="42.10107" lon="2.43999">
        <ele>568.5</ele>
        <time>2019-04-11T23:02:23Z</time>
      </trkpt>
      <trkpt lat="42.10107" lon="2.43997">
        <ele>569</ele>
        <time>2019-04-11T23:02:24Z</time>
      </trkpt>
      <trkpt lat="42.10106" lon="2.43994">
        <ele>569.2</ele>
        <time>2019-04-11T23:02:25Z</time>
      </trkpt>
      <trkpt lat="42.10104" lon="2.43992">
        <ele>569.8</ele>
        <time>2019-04-11T23:02:26Z</time>
      </trkpt>
      <trkpt lat="42.10104" lon="2.4399">
        <ele>570</ele>
        <time>2019-04-11T23:02:26Z</time>
      </trkpt>
      <trkpt lat="42.10104" lon="2.43988">
        <ele>570</ele>
        <time>2019-04-11T23:02:27Z</time>
      </trkpt>
      <trkpt lat="42.10104" lon="2.43986">
        <ele>570.2</ele>
        <time>2019-04-11T23:02:27Z</time>
      </trkpt>
      <trkpt lat="42.10104" lon="2.43984">
        <ele>570.5</ele>
        <time>2019-04-11T23:02:28Z</time>
      </trkpt>
      <trkpt lat="42.10105" lon="2.43982">
        <ele>570.8</ele>
        <time>2019-04-11T23:02:28Z</time>
      </trkpt>
      <trkpt lat="42.10105" lon="2.4398">
        <ele>570.9</ele>
        <time>2019-04-11T23:02:29Z</time>
      </trkpt>
      <trkpt lat="42.10105" lon="2.43978">
        <ele>571.3</ele>
        <time>2019-04-11T23:02:30Z</time>
      </trkpt>
      <trkpt lat="42.10106" lon="2.43976">
        <ele>571.7</ele>
        <time>2019-04-11T23:02:30Z</time>
      </trkpt>
      <trkpt lat="42.10105" lon="2.43973">
        <ele>572.5</ele>
        <time>2019-04-11T23:02:31Z</time>
      </trkpt>
      <trkpt lat="42.10105" lon="2.43971">
        <ele>573.1</ele>
        <time>2019-04-11T23:02:32Z</time>
      </trkpt>
      <trkpt lat="42.10105" lon="2.43969">
        <ele>573.3</ele>
        <time>2019-04-11T23:02:33Z</time>
      </trkpt>
      <trkpt lat="42.10104" lon="2.43966">
        <ele>573.3</ele>
        <time>2019-04-11T23:02:33Z</time>
      </trkpt>
      <trkpt lat="42.10103" lon="2.43963">
        <ele>573.4</ele>
        <time>2019-04-11T23:02:34Z</time>
      </trkpt>
      <trkpt lat="42.10101" lon="2.43957">
        <ele>573.7</ele>
        <time>2019-04-11T23:02:36Z</time>
      </trkpt>
      <trkpt lat="42.101" lon="2.43955">
        <ele>574.3</ele>
        <time>2019-04-11T23:02:37Z</time>
      </trkpt>
      <trkpt lat="42.10099" lon="2.43951">
        <ele>575.2</ele>
        <time>2019-04-11T23:02:38Z</time>
      </trkpt>
      <trkpt lat="42.10098" lon="2.43948">
        <ele>575.8</ele>
        <time>2019-04-11T23:02:39Z</time>
      </trkpt>
      <trkpt lat="42.10097" lon="2.43942">
        <ele>576</ele>
        <time>2019-04-11T23:02:41Z</time>
      </trkpt>
      <trkpt lat="42.10096" lon="2.43932">
        <ele>576.3</ele>
        <time>2019-04-11T23:02:44Z</time>
      </trkpt>
      <trkpt lat="42.10096" lon="2.43931">
        <ele>576.1</ele>
        <time>2019-04-11T23:02:45Z</time>
      </trkpt>
      <trkpt lat="42.10096" lon="2.43929">
        <ele>576.2</ele>
        <time>2019-04-11T23:02:45Z</time>
      </trkpt>
      <trkpt lat="42.10096" lon="2.43927">
        <ele>576.7</ele>
        <time>2019-04-11T23:02:46Z</time>
      </trkpt>
      <trkpt lat="42.10095" lon="2.43917">
        <ele>578.6</ele>
        <time>2019-04-11T23:02:49Z</time>
      </trkpt>
      <trkpt lat="42.10094" lon="2.43915">
        <ele>578.7</ele>
        <time>2019-04-11T23:02:49Z</time>
      </trkpt>
      <trkpt lat="42.10095" lon="2.43913">
        <ele>579</ele>
        <time>2019-04-11T23:02:50Z</time>
      </trkpt>
      <trkpt lat="42.10095" lon="2.43911">
        <ele>579.5</ele>
        <time>2019-04-11T23:02:51Z</time>
      </trkpt>
      <trkpt lat="42.10095" lon="2.43908">
        <ele>580.3</ele>
        <time>2019-04-11T23:02:51Z</time>
      </trkpt>
      <trkpt lat="42.10094" lon="2.43906">
        <ele>581.2</ele>
        <time>2019-04-11T23:02:52Z</time>
      </trkpt>
      <trkpt lat="42.10093" lon="2.43901">
        <ele>582.8</ele>
        <time>2019-04-11T23:02:54Z</time>
      </trkpt>
      <trkpt lat="42.10092" lon="2.43899">
        <ele>583.2</ele>
        <time>2019-04-11T23:02:54Z</time>
      </trkpt>
      <trkpt lat="42.1009" lon="2.43891">
        <ele>584.7</ele>
        <time>2019-04-11T23:02:57Z</time>
      </trkpt>
      <trkpt lat="42.10086" lon="2.43882">
        <ele>588.2</ele>
        <time>2019-04-11T23:03:00Z</time>
      </trkpt>
      <trkpt lat="42.10086" lon="2.43879">
        <ele>589.3</ele>
        <time>2019-04-11T23:03:01Z</time>
      </trkpt>
      <trkpt lat="42.10082" lon="2.43873">
        <ele>591.7</ele>
        <time>2019-04-11T23:03:03Z</time>
      </trkpt>
      <trkpt lat="42.10081" lon="2.43872">
        <ele>592.7</ele>
        <time>2019-04-11T23:03:04Z</time>
      </trkpt>
      <trkpt lat="42.1008" lon="2.4387">
        <ele>593.7</ele>
        <time>2019-04-11T23:03:04Z</time>
      </trkpt>
      <trkpt lat="42.10077" lon="2.43864">
        <ele>596.1</ele>
        <time>2019-04-11T23:03:07Z</time>
      </trkpt>
      <trkpt lat="42.10076" lon="2.43863">
        <ele>596.6</ele>
        <time>2019-04-11T23:03:07Z</time>
      </trkpt>
      <trkpt lat="42.10076" lon="2.43861">
        <ele>597.2</ele>
        <time>2019-04-11T23:03:08Z</time>
      </trkpt>
      <trkpt lat="42.10075" lon="2.4386">
        <ele>597.8</ele>
        <time>2019-04-11T23:03:08Z</time>
      </trkpt>
      <trkpt lat="42.10075" lon="2.43859">
        <ele>598.2</ele>
        <time>2019-04-11T23:03:08Z</time>
      </trkpt>
      <trkpt lat="42.10075" lon="2.43857">
        <ele>598.8</ele>
        <time>2019-04-11T23:03:09Z</time>
      </trkpt>
      <trkpt lat="42.10074" lon="2.43856">
        <ele>599.2</ele>
        <time>2019-04-11T23:03:09Z</time>
      </trkpt>
      <trkpt lat="42.10074" lon="2.43855">
        <ele>599.8</ele>
        <time>2019-04-11T23:03:10Z</time>
      </trkpt>
      <trkpt lat="42.10072" lon="2.43851">
        <ele>600.3</ele>
        <time>2019-04-11T23:03:11Z</time>
      </trkpt>
      <trkpt lat="42.10072" lon="2.43849">
        <ele>600.7</ele>
        <time>2019-04-11T23:03:12Z</time>
      </trkpt>
      <trkpt lat="42.10071" lon="2.43847">
        <ele>601</ele>
        <time>2019-04-11T23:03:12Z</time>
      </trkpt>
      <trkpt lat="42.10071" lon="2.43846">
        <ele>601.4</ele>
        <time>2019-04-11T23:03:13Z</time>
      </trkpt>
      <trkpt lat="42.1007" lon="2.43844">
        <ele>601.7</ele>
        <time>2019-04-11T23:03:13Z</time>
      </trkpt>
      <trkpt lat="42.10065" lon="2.43834">
        <ele>604.5</ele>
        <time>2019-04-11T23:03:17Z</time>
      </trkpt>
      <trkpt lat="42.10064" lon="2.43832">
        <ele>605</ele>
        <time>2019-04-11T23:03:18Z</time>
      </trkpt>
      <trkpt lat="42.10064" lon="2.4383">
        <ele>605.5</ele>
        <time>2019-04-11T23:03:18Z</time>
      </trkpt>
      <trkpt lat="42.10063" lon="2.43828">
        <ele>605.6</ele>
        <time>2019-04-11T23:03:19Z</time>
      </trkpt>
      <trkpt lat="42.10062" lon="2.43826">
        <ele>605.7</ele>
        <time>2019-04-11T23:03:19Z</time>
      </trkpt>
      <trkpt lat="42.10062" lon="2.43824">
        <ele>606</ele>
        <time>2019-04-11T23:03:20Z</time>
      </trkpt>
      <trkpt lat="42.10061" lon="2.43822">
        <ele>606.4</ele>
        <time>2019-04-11T23:03:21Z</time>
      </trkpt>
      <trkpt lat="42.1006" lon="2.43821">
        <ele>606.9</ele>
        <time>2019-04-11T23:03:21Z</time>
      </trkpt>
      <trkpt lat="42.10058" lon="2.43818">
        <ele>607.9</ele>
        <time>2019-04-11T23:03:23Z</time>
      </trkpt>
      <trkpt lat="42.10057" lon="2.43815">
        <ele>608.2</ele>
        <time>2019-04-11T23:03:23Z</time>
      </trkpt>
      <trkpt lat="42.10055" lon="2.43812">
        <ele>608.5</ele>
        <time>2019-04-11T23:03:25Z</time>
      </trkpt>
      <trkpt lat="42.10055" lon="2.4381">
        <ele>608.5</ele>
        <time>2019-04-11T23:03:25Z</time>
      </trkpt>
      <trkpt lat="42.10054" lon="2.43809">
        <ele>608.8</ele>
        <time>2019-04-11T23:03:26Z</time>
      </trkpt>
      <trkpt lat="42.10054" lon="2.43807">
        <ele>608.9</ele>
        <time>2019-04-11T23:03:26Z</time>
      </trkpt>
      <trkpt lat="42.10054" lon="2.43806">
        <ele>609.2</ele>
        <time>2019-04-11T23:03:27Z</time>
      </trkpt>
      <trkpt lat="42.10055" lon="2.43802">
        <ele>610.5</ele>
        <time>2019-04-11T23:03:28Z</time>
      </trkpt>
      <trkpt lat="42.10055" lon="2.438">
        <ele>611.5</ele>
        <time>2019-04-11T23:03:28Z</time>
      </trkpt>
      <trkpt lat="42.10055" lon="2.43797">
        <ele>613.6</ele>
        <time>2019-04-11T23:03:29Z</time>
      </trkpt>
      <trkpt lat="42.10054" lon="2.43795">
        <ele>614.9</ele>
        <time>2019-04-11T23:03:30Z</time>
      </trkpt>
      <trkpt lat="42.10053" lon="2.43795">
        <ele>616</ele>
        <time>2019-04-11T23:03:30Z</time>
      </trkpt>
      <trkpt lat="42.10052" lon="2.43795">
        <ele>617.4</ele>
        <time>2019-04-11T23:03:31Z</time>
      </trkpt>
      <trkpt lat="42.10052" lon="2.43794">
        <ele>618.6</ele>
        <time>2019-04-11T23:03:31Z</time>
      </trkpt>
      <trkpt lat="42.10052" lon="2.43791">
        <ele>619.5</ele>
        <time>2019-04-11T23:03:32Z</time>
      </trkpt>
      <trkpt lat="42.10052" lon="2.4379">
        <ele>620.5</ele>
        <time>2019-04-11T23:03:32Z</time>
      </trkpt>
      <trkpt lat="42.10052" lon="2.43789">
        <ele>621.2</ele>
        <time>2019-04-11T23:03:32Z</time>
      </trkpt>
      <trkpt lat="42.10052" lon="2.43787">
        <ele>622</ele>
        <time>2019-04-11T23:03:33Z</time>
      </trkpt>
      <trkpt lat="42.10051" lon="2.43786">
        <ele>622.7</ele>
        <time>2019-04-11T23:03:33Z</time>
      </trkpt>
      <trkpt lat="42.10051" lon="2.43782">
        <ele>623.4</ele>
        <time>2019-04-11T23:03:34Z</time>
      </trkpt>
      <trkpt lat="42.10051" lon="2.4378">
        <ele>623.5</ele>
        <time>2019-04-11T23:03:35Z</time>
      </trkpt>
      <trkpt lat="42.1005" lon="2.43776">
        <ele>623.5</ele>
        <time>2019-04-11T23:03:36Z</time>
      </trkpt>
      <trkpt lat="42.10049" lon="2.43774">
        <ele>623.2</ele>
        <time>2019-04-11T23:03:37Z</time>
      </trkpt>
      <trkpt lat="42.10047" lon="2.43769">
        <ele>622.3</ele>
        <time>2019-04-11T23:03:39Z</time>
      </trkpt>
      <trkpt lat="42.10047" lon="2.43758">
        <ele>620.8</ele>
        <time>2019-04-11T23:03:42Z</time>
      </trkpt>
      <trkpt lat="42.10046" lon="2.43756">
        <ele>620.5</ele>
        <time>2019-04-11T23:03:42Z</time>
      </trkpt>
      <trkpt lat="42.10045" lon="2.43754">
        <ele>620.2</ele>
        <time>2019-04-11T23:03:43Z</time>
      </trkpt>
      <trkpt lat="42.10043" lon="2.43748">
        <ele>619.5</ele>
        <time>2019-04-11T23:03:45Z</time>
      </trkpt>
      <trkpt lat="42.10043" lon="2.43744">
        <ele>618.5</ele>
        <time>2019-04-11T23:03:46Z</time>
      </trkpt>
      <trkpt lat="42.10043" lon="2.4374">
        <ele>617.7</ele>
        <time>2019-04-11T23:03:48Z</time>
      </trkpt>
      <trkpt lat="42.1004" lon="2.43733">
        <ele>616.7</ele>
        <time>2019-04-11T23:03:50Z</time>
      </trkpt>
      <trkpt lat="42.10039" lon="2.43731">
        <ele>616.6</ele>
        <time>2019-04-11T23:03:51Z</time>
      </trkpt>
      <trkpt lat="42.10036" lon="2.43724">
        <ele>616.2</ele>
        <time>2019-04-11T23:03:53Z</time>
      </trkpt>
      <trkpt lat="42.10035" lon="2.4372">
        <ele>616</ele>
        <time>2019-04-11T23:03:54Z</time>
      </trkpt>
      <trkpt lat="42.10034" lon="2.43716">
        <ele>616.1</ele>
        <time>2019-04-11T23:03:56Z</time>
      </trkpt>
      <trkpt lat="42.10034" lon="2.43711">
        <ele>616.1</ele>
        <time>2019-04-11T23:03:57Z</time>
      </trkpt>
      <trkpt lat="42.10034" lon="2.43708">
        <ele>616.1</ele>
        <time>2019-04-11T23:03:58Z</time>
      </trkpt>
      <trkpt lat="42.10033" lon="2.43702">
        <ele>616.6</ele>
        <time>2019-04-11T23:04:00Z</time>
      </trkpt>
      <trkpt lat="42.10032" lon="2.43699">
        <ele>616.8</ele>
        <time>2019-04-11T23:04:01Z</time>
      </trkpt>
      <trkpt lat="42.10032" lon="2.43696">
        <ele>616.7</ele>
        <time>2019-04-11T23:04:02Z</time>
      </trkpt>
      <trkpt lat="42.10031" lon="2.43694">
        <ele>616.7</ele>
        <time>2019-04-11T23:04:02Z</time>
      </trkpt>
      <trkpt lat="42.1003" lon="2.43693">
        <ele>616.4</ele>
        <time>2019-04-11T23:04:03Z</time>
      </trkpt>
      <trkpt lat="42.10031" lon="2.43691">
        <ele>616.1</ele>
        <time>2019-04-11T23:04:03Z</time>
      </trkpt>
      <trkpt lat="42.1003" lon="2.43687">
        <ele>616</ele>
        <time>2019-04-11T23:04:05Z</time>
      </trkpt>
      <trkpt lat="42.1003" lon="2.43685">
        <ele>616.4</ele>
        <time>2019-04-11T23:04:05Z</time>
      </trkpt>
      <trkpt lat="42.1003" lon="2.43683">
        <ele>616.8</ele>
        <time>2019-04-11T23:04:06Z</time>
      </trkpt>
      <trkpt lat="42.1003" lon="2.43682">
        <ele>617.3</ele>
        <time>2019-04-11T23:04:06Z</time>
      </trkpt>
      <trkpt lat="42.10031" lon="2.4368">
        <ele>618</ele>
        <time>2019-04-11T23:04:07Z</time>
      </trkpt>
      <trkpt lat="42.10034" lon="2.43671">
        <ele>622.3</ele>
        <time>2019-04-11T23:04:10Z</time>
      </trkpt>
      <trkpt lat="42.10034" lon="2.43667">
        <ele>624</ele>
        <time>2019-04-11T23:04:11Z</time>
      </trkpt>
      <trkpt lat="42.10034" lon="2.43664">
        <ele>624.8</ele>
        <time>2019-04-11T23:04:12Z</time>
      </trkpt>
      <trkpt lat="42.10034" lon="2.4366">
        <ele>625.8</ele>
        <time>2019-04-11T23:04:13Z</time>
      </trkpt>
      <trkpt lat="42.10035" lon="2.43659">
        <ele>626.5</ele>
        <time>2019-04-11T23:04:13Z</time>
      </trkpt>
      <trkpt lat="42.10035" lon="2.43657">
        <ele>627.2</ele>
        <time>2019-04-11T23:04:14Z</time>
      </trkpt>
      <trkpt lat="42.10035" lon="2.43656">
        <ele>627.5</ele>
        <time>2019-04-11T23:04:14Z</time>
      </trkpt>
      <trkpt lat="42.10036" lon="2.43654">
        <ele>627.7</ele>
        <time>2019-04-11T23:04:15Z</time>
      </trkpt>
      <trkpt lat="42.10036" lon="2.43652">
        <ele>627.6</ele>
        <time>2019-04-11T23:04:15Z</time>
      </trkpt>
      <trkpt lat="42.10037" lon="2.43651">
        <ele>627.6</ele>
        <time>2019-04-11T23:04:16Z</time>
      </trkpt>
      <trkpt lat="42.10038" lon="2.43649">
        <ele>628</ele>
        <time>2019-04-11T23:04:17Z</time>
      </trkpt>
      <trkpt lat="42.10038" lon="2.43648">
        <ele>628.5</ele>
        <time>2019-04-11T23:04:17Z</time>
      </trkpt>
      <trkpt lat="42.1004" lon="2.43647">
        <ele>628.9</ele>
        <time>2019-04-11T23:04:18Z</time>
      </trkpt>
      <trkpt lat="42.10042" lon="2.43644">
        <ele>629.3</ele>
        <time>2019-04-11T23:04:19Z</time>
      </trkpt>
      <trkpt lat="42.10045" lon="2.43646">
        <ele>630</ele>
        <time>2019-04-11T23:04:20Z</time>
      </trkpt>
      <trkpt lat="42.10046" lon="2.43645">
        <ele>630</ele>
        <time>2019-04-11T23:04:20Z</time>
      </trkpt>
      <trkpt lat="42.10046" lon="2.43645">
        <ele>630.1</ele>
        <time>2019-04-11T23:04:20Z</time>
      </trkpt>
      <trkpt lat="42.10046" lon="2.43644">
        <ele>630</ele>
        <time>2019-04-11T23:04:21Z</time>
      </trkpt>
      <trkpt lat="42.10045" lon="2.43643">
        <ele>630</ele>
        <time>2019-04-11T23:04:21Z</time>
      </trkpt>
      <trkpt lat="42.10044" lon="2.43642">
        <ele>629.8</ele>
        <time>2019-04-11T23:04:21Z</time>
      </trkpt>
      <trkpt lat="42.10044" lon="2.43641">
        <ele>629.7</ele>
        <time>2019-04-11T23:04:22Z</time>
      </trkpt>
      <trkpt lat="42.10043" lon="2.4364">
        <ele>629.7</ele>
        <time>2019-04-11T23:04:22Z</time>
      </trkpt>
      <trkpt lat="42.10042" lon="2.43639">
        <ele>630.1</ele>
        <time>2019-04-11T23:04:23Z</time>
      </trkpt>
      <trkpt lat="42.10042" lon="2.43638">
        <ele>630.3</ele>
        <time>2019-04-11T23:04:23Z</time>
      </trkpt>
      <trkpt lat="42.10043" lon="2.43636">
        <ele>630.8</ele>
        <time>2019-04-11T23:04:24Z</time>
      </trkpt>
      <trkpt lat="42.10043" lon="2.43634">
        <ele>631.5</ele>
        <time>2019-04-11T23:04:24Z</time>
      </trkpt>
      <trkpt lat="42.10043" lon="2.43633">
        <ele>631.9</ele>
        <time>2019-04-11T23:04:25Z</time>
      </trkpt>
      <trkpt lat="42.10042" lon="2.43632">
        <ele>632.3</ele>
        <time>2019-04-11T23:04:25Z</time>
      </trkpt>
      <trkpt lat="42.10041" lon="2.4363">
        <ele>632.2</ele>
        <time>2019-04-11T23:04:26Z</time>
      </trkpt>
      <trkpt lat="42.10041" lon="2.43629">
        <ele>632.5</ele>
        <time>2019-04-11T23:04:26Z</time>
      </trkpt>
      <trkpt lat="42.1004" lon="2.43625">
        <ele>632.9</ele>
        <time>2019-04-11T23:04:27Z</time>
      </trkpt>
      <trkpt lat="42.1004" lon="2.43622">
        <ele>633</ele>
        <time>2019-04-11T23:04:28Z</time>
      </trkpt>
      <trkpt lat="42.10041" lon="2.43621">
        <ele>633</ele>
        <time>2019-04-11T23:04:29Z</time>
      </trkpt>
      <trkpt lat="42.10041" lon="2.43619">
        <ele>632.7</ele>
        <time>2019-04-11T23:04:29Z</time>
      </trkpt>
      <trkpt lat="42.10041" lon="2.43618">
        <ele>632.5</ele>
        <time>2019-04-11T23:04:29Z</time>
      </trkpt>
      <trkpt lat="42.10041" lon="2.43617">
        <ele>632</ele>
        <time>2019-04-11T23:04:30Z</time>
      </trkpt>
      <trkpt lat="42.10041" lon="2.43616">
        <ele>631</ele>
        <time>2019-04-11T23:04:30Z</time>
      </trkpt>
      <trkpt lat="42.10041" lon="2.43615">
        <ele>630.6</ele>
        <time>2019-04-11T23:04:30Z</time>
      </trkpt>
      <trkpt lat="42.10042" lon="2.43613">
        <ele>630</ele>
        <time>2019-04-11T23:04:31Z</time>
      </trkpt>
      <trkpt lat="42.10042" lon="2.43612">
        <ele>629.5</ele>
        <time>2019-04-11T23:04:31Z</time>
      </trkpt>
      <trkpt lat="42.10042" lon="2.43611">
        <ele>629</ele>
        <time>2019-04-11T23:04:31Z</time>
      </trkpt>
      <trkpt lat="42.10042" lon="2.4361">
        <ele>629</ele>
        <time>2019-04-11T23:04:32Z</time>
      </trkpt>
      <trkpt lat="42.10042" lon="2.43608">
        <ele>628.8</ele>
        <time>2019-04-11T23:04:32Z</time>
      </trkpt>
      <trkpt lat="42.10042" lon="2.43607">
        <ele>628.6</ele>
        <time>2019-04-11T23:04:33Z</time>
      </trkpt>
      <trkpt lat="42.10043" lon="2.43606">
        <ele>628.1</ele>
        <time>2019-04-11T23:04:33Z</time>
      </trkpt>
      <trkpt lat="42.10044" lon="2.43605">
        <ele>627.6</ele>
        <time>2019-04-11T23:04:34Z</time>
      </trkpt>
      <trkpt lat="42.10044" lon="2.43605">
        <ele>627.3</ele>
        <time>2019-04-11T23:04:34Z</time>
      </trkpt>
      <trkpt lat="42.10043" lon="2.43604">
        <ele>627.4</ele>
        <time>2019-04-11T23:04:34Z</time>
      </trkpt>
      <trkpt lat="42.10043" lon="2.43603">
        <ele>627.8</ele>
        <time>2019-04-11T23:04:35Z</time>
      </trkpt>
      <trkpt lat="42.10042" lon="2.43602">
        <ele>628.3</ele>
        <time>2019-04-11T23:04:35Z</time>
      </trkpt>
      <trkpt lat="42.10042" lon="2.43601">
        <ele>628.7</ele>
        <time>2019-04-11T23:04:35Z</time>
      </trkpt>
      <trkpt lat="42.10041" lon="2.436">
        <ele>629.2</ele>
        <time>2019-04-11T23:04:36Z</time>
      </trkpt>
      <trkpt lat="42.10041" lon="2.43599">
        <ele>629.6</ele>
        <time>2019-04-11T23:04:36Z</time>
      </trkpt>
      <trkpt lat="42.1004" lon="2.43597">
        <ele>630.2</ele>
        <time>2019-04-11T23:04:37Z</time>
      </trkpt>
      <trkpt lat="42.1004" lon="2.43596">
        <ele>630.8</ele>
        <time>2019-04-11T23:04:37Z</time>
      </trkpt>
      <trkpt lat="42.10039" lon="2.43595">
        <ele>631.3</ele>
        <time>2019-04-11T23:04:37Z</time>
      </trkpt>
      <trkpt lat="42.10039" lon="2.43594">
        <ele>632.1</ele>
        <time>2019-04-11T23:04:38Z</time>
      </trkpt>
      <trkpt lat="42.10039" lon="2.43592">
        <ele>632.9</ele>
        <time>2019-04-11T23:04:39Z</time>
      </trkpt>
      <trkpt lat="42.10037" lon="2.4359">
        <ele>634.1</ele>
        <time>2019-04-11T23:04:39Z</time>
      </trkpt>
      <trkpt lat="42.10037" lon="2.43589">
        <ele>634.7</ele>
        <time>2019-04-11T23:04:40Z</time>
      </trkpt>
      <trkpt lat="42.10036" lon="2.43588">
        <ele>635.5</ele>
        <time>2019-04-11T23:04:40Z</time>
      </trkpt>
      <trkpt lat="42.10035" lon="2.43586">
        <ele>636.2</ele>
        <time>2019-04-11T23:04:41Z</time>
      </trkpt>
      <trkpt lat="42.10034" lon="2.43585">
        <ele>637</ele>
        <time>2019-04-11T23:04:41Z</time>
      </trkpt>
      <trkpt lat="42.10034" lon="2.43584">
        <ele>638</ele>
        <time>2019-04-11T23:04:42Z</time>
      </trkpt>
      <trkpt lat="42.10033" lon="2.43582">
        <ele>638.8</ele>
        <time>2019-04-11T23:04:42Z</time>
      </trkpt>
      <trkpt lat="42.10032" lon="2.43581">
        <ele>639.5</ele>
        <time>2019-04-11T23:04:43Z</time>
      </trkpt>
      <trkpt lat="42.10032" lon="2.4358">
        <ele>639.7</ele>
        <time>2019-04-11T23:04:43Z</time>
      </trkpt>
      <trkpt lat="42.10031" lon="2.43579">
        <ele>640.2</ele>
        <time>2019-04-11T23:04:43Z</time>
      </trkpt>
      <trkpt lat="42.10031" lon="2.43578">
        <ele>640.5</ele>
        <time>2019-04-11T23:04:44Z</time>
      </trkpt>
      <trkpt lat="42.10031" lon="2.43577">
        <ele>640.8</ele>
        <time>2019-04-11T23:04:44Z</time>
      </trkpt>
      <trkpt lat="42.10032" lon="2.43577">
        <ele>640.9</ele>
        <time>2019-04-11T23:04:44Z</time>
      </trkpt>
      <trkpt lat="42.10032" lon="2.43576">
        <ele>641</ele>
        <time>2019-04-11T23:04:44Z</time>
      </trkpt>
      <trkpt lat="42.10031" lon="2.43574">
        <ele>641</ele>
        <time>2019-04-11T23:04:45Z</time>
      </trkpt>
      <trkpt lat="42.10031" lon="2.43572">
        <ele>641</ele>
        <time>2019-04-11T23:04:45Z</time>
      </trkpt>
      <trkpt lat="42.1003" lon="2.43569">
        <ele>641.5</ele>
        <time>2019-04-11T23:04:46Z</time>
      </trkpt>
      <trkpt lat="42.10029" lon="2.43568">
        <ele>642.1</ele>
        <time>2019-04-11T23:04:47Z</time>
      </trkpt>
      <trkpt lat="42.10026" lon="2.43563">
        <ele>643</ele>
        <time>2019-04-11T23:04:49Z</time>
      </trkpt>
      <trkpt lat="42.10021" lon="2.43553">
        <ele>646.5</ele>
        <time>2019-04-11T23:04:52Z</time>
      </trkpt>
      <trkpt lat="42.10021" lon="2.4355">
        <ele>647.6</ele>
        <time>2019-04-11T23:04:53Z</time>
      </trkpt>
      <trkpt lat="42.1002" lon="2.43549">
        <ele>648.5</ele>
        <time>2019-04-11T23:04:54Z</time>
      </trkpt>
      <trkpt lat="42.10019" lon="2.43548">
        <ele>649.1</ele>
        <time>2019-04-11T23:04:54Z</time>
      </trkpt>
      <trkpt lat="42.10019" lon="2.43546">
        <ele>649.6</ele>
        <time>2019-04-11T23:04:55Z</time>
      </trkpt>
      <trkpt lat="42.10019" lon="2.43544">
        <ele>649.8</ele>
        <time>2019-04-11T23:04:56Z</time>
      </trkpt>
      <trkpt lat="42.10018" lon="2.43543">
        <ele>649.9</ele>
        <time>2019-04-11T23:04:56Z</time>
      </trkpt>
      <trkpt lat="42.10018" lon="2.43541">
        <ele>650.2</ele>
        <time>2019-04-11T23:04:56Z</time>
      </trkpt>
      <trkpt lat="42.10016" lon="2.43539">
        <ele>651.5</ele>
        <time>2019-04-11T23:04:57Z</time>
      </trkpt>
      <trkpt lat="42.10015" lon="2.43538">
        <ele>652.2</ele>
        <time>2019-04-11T23:04:58Z</time>
      </trkpt>
      <trkpt lat="42.10014" lon="2.43536">
        <ele>653.3</ele>
        <time>2019-04-11T23:04:59Z</time>
      </trkpt>
      <trkpt lat="42.10013" lon="2.43535">
        <ele>654</ele>
        <time>2019-04-11T23:04:59Z</time>
      </trkpt>
      <trkpt lat="42.10011" lon="2.43534">
        <ele>655.3</ele>
        <time>2019-04-11T23:05:00Z</time>
      </trkpt>
      <trkpt lat="42.1001" lon="2.43532">
        <ele>656.2</ele>
        <time>2019-04-11T23:05:01Z</time>
      </trkpt>
      <trkpt lat="42.1001" lon="2.4353">
        <ele>657</ele>
        <time>2019-04-11T23:05:01Z</time>
      </trkpt>
      <trkpt lat="42.1001" lon="2.43528">
        <ele>657.6</ele>
        <time>2019-04-11T23:05:02Z</time>
      </trkpt>
      <trkpt lat="42.1001" lon="2.43527">
        <ele>658</ele>
        <time>2019-04-11T23:05:02Z</time>
      </trkpt>
      <trkpt lat="42.1001" lon="2.43525">
        <ele>658.7</ele>
        <time>2019-04-11T23:05:03Z</time>
      </trkpt>
      <trkpt lat="42.10009" lon="2.43523">
        <ele>659.2</ele>
        <time>2019-04-11T23:05:04Z</time>
      </trkpt>
      <trkpt lat="42.10008" lon="2.43521">
        <ele>659.6</ele>
        <time>2019-04-11T23:05:04Z</time>
      </trkpt>
      <trkpt lat="42.10008" lon="2.4352">
        <ele>659.8</ele>
        <time>2019-04-11T23:05:05Z</time>
      </trkpt>
      <trkpt lat="42.10007" lon="2.43518">
        <ele>660.3</ele>
        <time>2019-04-11T23:05:05Z</time>
      </trkpt>
      <trkpt lat="42.10007" lon="2.43517">
        <ele>660.5</ele>
        <time>2019-04-11T23:05:06Z</time>
      </trkpt>
      <trkpt lat="42.10006" lon="2.43516">
        <ele>660.8</ele>
        <time>2019-04-11T23:05:06Z</time>
      </trkpt>
      <trkpt lat="42.10006" lon="2.43514">
        <ele>661</ele>
        <time>2019-04-11T23:05:06Z</time>
      </trkpt>
      <trkpt lat="42.10006" lon="2.43513">
        <ele>661.6</ele>
        <time>2019-04-11T23:05:07Z</time>
      </trkpt>
      <trkpt lat="42.10006" lon="2.43511">
        <ele>662</ele>
        <time>2019-04-11T23:05:07Z</time>
      </trkpt>
      <trkpt lat="42.10005" lon="2.43509">
        <ele>662.3</ele>
        <time>2019-04-11T23:05:08Z</time>
      </trkpt>
      <trkpt lat="42.10003" lon="2.43498">
        <ele>665.5</ele>
        <time>2019-04-11T23:05:12Z</time>
      </trkpt>
      <trkpt lat="42.10004" lon="2.43496">
        <ele>666.4</ele>
        <time>2019-04-11T23:05:12Z</time>
      </trkpt>
      <trkpt lat="42.10003" lon="2.43494">
        <ele>667</ele>
        <time>2019-04-11T23:05:13Z</time>
      </trkpt>
      <trkpt lat="42.10004" lon="2.43492">
        <ele>667.5</ele>
        <time>2019-04-11T23:05:13Z</time>
      </trkpt>
      <trkpt lat="42.10003" lon="2.4349">
        <ele>668</ele>
        <time>2019-04-11T23:05:14Z</time>
      </trkpt>
      <trkpt lat="42.10003" lon="2.43489">
        <ele>667.8</ele>
        <time>2019-04-11T23:05:14Z</time>
      </trkpt>
      <trkpt lat="42.10003" lon="2.43487">
        <ele>667.3</ele>
        <time>2019-04-11T23:05:15Z</time>
      </trkpt>
      <trkpt lat="42.10003" lon="2.43486">
        <ele>666.7</ele>
        <time>2019-04-11T23:05:15Z</time>
      </trkpt>
      <trkpt lat="42.10003" lon="2.43485">
        <ele>666</ele>
        <time>2019-04-11T23:05:15Z</time>
      </trkpt>
      <trkpt lat="42.10002" lon="2.43484">
        <ele>665.5</ele>
        <time>2019-04-11T23:05:16Z</time>
      </trkpt>
      <trkpt lat="42.10001" lon="2.43484">
        <ele>665.2</ele>
        <time>2019-04-11T23:05:16Z</time>
      </trkpt>
      <trkpt lat="42.1" lon="2.43482">
        <ele>665</ele>
        <time>2019-04-11T23:05:17Z</time>
      </trkpt>
      <trkpt lat="42.1" lon="2.43481">
        <ele>664.7</ele>
        <time>2019-04-11T23:05:17Z</time>
      </trkpt>
      <trkpt lat="42.1" lon="2.43479">
        <ele>664.5</ele>
        <time>2019-04-11T23:05:18Z</time>
      </trkpt>
      <trkpt lat="42.09999" lon="2.43478">
        <ele>664.6</ele>
        <time>2019-04-11T23:05:18Z</time>
      </trkpt>
      <trkpt lat="42.09999" lon="2.43476">
        <ele>664.7</ele>
        <time>2019-04-11T23:05:19Z</time>
      </trkpt>
      <trkpt lat="42.09997" lon="2.43471">
        <ele>665.8</ele>
        <time>2019-04-11T23:05:21Z</time>
      </trkpt>
      <trkpt lat="42.09996" lon="2.43468">
        <ele>666.2</ele>
        <time>2019-04-11T23:05:22Z</time>
      </trkpt>
      <trkpt lat="42.09996" lon="2.43466">
        <ele>666.5</ele>
        <time>2019-04-11T23:05:22Z</time>
      </trkpt>
      <trkpt lat="42.09995" lon="2.4346">
        <ele>667</ele>
        <time>2019-04-11T23:05:24Z</time>
      </trkpt>
      <trkpt lat="42.09995" lon="2.43457">
        <ele>667.3</ele>
        <time>2019-04-11T23:05:25Z</time>
      </trkpt>
      <trkpt lat="42.09994" lon="2.43454">
        <ele>667.4</ele>
        <time>2019-04-11T23:05:26Z</time>
      </trkpt>
      <trkpt lat="42.09993" lon="2.43449">
        <ele>667.7</ele>
        <time>2019-04-11T23:05:27Z</time>
      </trkpt>
      <trkpt lat="42.09992" lon="2.43447">
        <ele>668</ele>
        <time>2019-04-11T23:05:28Z</time>
      </trkpt>
      <trkpt lat="42.09991" lon="2.43445">
        <ele>668.5</ele>
        <time>2019-04-11T23:05:29Z</time>
      </trkpt>
      <trkpt lat="42.09988" lon="2.43443">
        <ele>669.2</ele>
        <time>2019-04-11T23:05:30Z</time>
      </trkpt>
      <trkpt lat="42.09988" lon="2.43442">
        <ele>669.5</ele>
        <time>2019-04-11T23:05:31Z</time>
      </trkpt>
      <trkpt lat="42.09987" lon="2.4344">
        <ele>670</ele>
        <time>2019-04-11T23:05:31Z</time>
      </trkpt>
      <trkpt lat="42.09986" lon="2.43439">
        <ele>670.6</ele>
        <time>2019-04-11T23:05:32Z</time>
      </trkpt>
      <trkpt lat="42.09986" lon="2.43437">
        <ele>671</ele>
        <time>2019-04-11T23:05:32Z</time>
      </trkpt>
      <trkpt lat="42.09986" lon="2.43436">
        <ele>671.5</ele>
        <time>2019-04-11T23:05:33Z</time>
      </trkpt>
      <trkpt lat="42.09985" lon="2.43434">
        <ele>672</ele>
        <time>2019-04-11T23:05:33Z</time>
      </trkpt>
      <trkpt lat="42.09985" lon="2.43433">
        <ele>672.1</ele>
        <time>2019-04-11T23:05:33Z</time>
      </trkpt>
      <trkpt lat="42.09984" lon="2.43432">
        <ele>672.4</ele>
        <time>2019-04-11T23:05:34Z</time>
      </trkpt>
      <trkpt lat="42.09984" lon="2.4343">
        <ele>672.5</ele>
        <time>2019-04-11T23:05:34Z</time>
      </trkpt>
      <trkpt lat="42.09983" lon="2.43429">
        <ele>672.7</ele>
        <time>2019-04-11T23:05:35Z</time>
      </trkpt>
      <trkpt lat="42.09983" lon="2.43427">
        <ele>673.5</ele>
        <time>2019-04-11T23:05:36Z</time>
      </trkpt>
      <trkpt lat="42.09981" lon="2.43423">
        <ele>674.6</ele>
        <time>2019-04-11T23:05:37Z</time>
      </trkpt>
      <trkpt lat="42.09979" lon="2.4342">
        <ele>675.8</ele>
        <time>2019-04-11T23:05:38Z</time>
      </trkpt>
      <trkpt lat="42.09978" lon="2.4342">
        <ele>676.2</ele>
        <time>2019-04-11T23:05:38Z</time>
      </trkpt>
      <trkpt lat="42.09977" lon="2.43419">
        <ele>676.9</ele>
        <time>2019-04-11T23:05:39Z</time>
      </trkpt>
      <trkpt lat="42.09977" lon="2.43418">
        <ele>677.5</ele>
        <time>2019-04-11T23:05:39Z</time>
      </trkpt>
      <trkpt lat="42.09976" lon="2.43416">
        <ele>678.1</ele>
        <time>2019-04-11T23:05:40Z</time>
      </trkpt>
      <trkpt lat="42.09975" lon="2.43414">
        <ele>678.6</ele>
        <time>2019-04-11T23:05:41Z</time>
      </trkpt>
      <trkpt lat="42.09973" lon="2.4341">
        <ele>679</ele>
        <time>2019-04-11T23:05:42Z</time>
      </trkpt>
      <trkpt lat="42.0997" lon="2.43408">
        <ele>678.7</ele>
        <time>2019-04-11T23:05:43Z</time>
      </trkpt>
      <trkpt lat="42.09969" lon="2.43406">
        <ele>678.7</ele>
        <time>2019-04-11T23:05:44Z</time>
      </trkpt>
      <trkpt lat="42.09968" lon="2.43405">
        <ele>679.1</ele>
        <time>2019-04-11T23:05:44Z</time>
      </trkpt>
      <trkpt lat="42.09968" lon="2.43404">
        <ele>679.6</ele>
        <time>2019-04-11T23:05:45Z</time>
      </trkpt>
      <trkpt lat="42.09968" lon="2.43403">
        <ele>680.3</ele>
        <time>2019-04-11T23:05:45Z</time>
      </trkpt>
      <trkpt lat="42.09968" lon="2.43403">
        <ele>680.7</ele>
        <time>2019-04-11T23:05:45Z</time>
      </trkpt>
      <trkpt lat="42.09968" lon="2.43402">
        <ele>681</ele>
        <time>2019-04-11T23:05:45Z</time>
      </trkpt>
      <trkpt lat="42.09968" lon="2.43401">
        <ele>681.6</ele>
        <time>2019-04-11T23:05:46Z</time>
      </trkpt>
      <trkpt lat="42.09968" lon="2.43401">
        <ele>681.9</ele>
        <time>2019-04-11T23:05:46Z</time>
      </trkpt>
      <trkpt lat="42.09967" lon="2.43399">
        <ele>682.2</ele>
        <time>2019-04-11T23:05:46Z</time>
      </trkpt>
      <trkpt lat="42.09967" lon="2.43398">
        <ele>682.4</ele>
        <time>2019-04-11T23:05:47Z</time>
      </trkpt>
      <trkpt lat="42.09967" lon="2.43397">
        <ele>682.9</ele>
        <time>2019-04-11T23:05:47Z</time>
      </trkpt>
      <trkpt lat="42.09966" lon="2.43397">
        <ele>683.2</ele>
        <time>2019-04-11T23:05:47Z</time>
      </trkpt>
      <trkpt lat="42.09965" lon="2.43396">
        <ele>683.6</ele>
        <time>2019-04-11T23:05:48Z</time>
      </trkpt>
      <trkpt lat="42.09964" lon="2.43396">
        <ele>683.7</ele>
        <time>2019-04-11T23:05:48Z</time>
      </trkpt>
      <trkpt lat="42.09964" lon="2.43396">
        <ele>684.1</ele>
        <time>2019-04-11T23:05:48Z</time>
      </trkpt>
      <trkpt lat="42.09964" lon="2.43395">
        <ele>684.2</ele>
        <time>2019-04-11T23:05:48Z</time>
      </trkpt>
      <trkpt lat="42.09964" lon="2.43394">
        <ele>684.3</ele>
        <time>2019-04-11T23:05:48Z</time>
      </trkpt>
      <trkpt lat="42.09964" lon="2.43394">
        <ele>684.3</ele>
        <time>2019-04-11T23:05:49Z</time>
      </trkpt>
      <trkpt lat="42.09964" lon="2.43393">
        <ele>684.6</ele>
        <time>2019-04-11T23:05:49Z</time>
      </trkpt>
      <trkpt lat="42.09964" lon="2.43392">
        <ele>684.8</ele>
        <time>2019-04-11T23:05:49Z</time>
      </trkpt>
      <trkpt lat="42.09964" lon="2.43391">
        <ele>685</ele>
        <time>2019-04-11T23:05:49Z</time>
      </trkpt>
      <trkpt lat="42.09964" lon="2.43391">
        <ele>685.2</ele>
        <time>2019-04-11T23:05:50Z</time>
      </trkpt>
      <trkpt lat="42.09964" lon="2.43392">
        <ele>685.5</ele>
        <time>2019-04-11T23:05:50Z</time>
      </trkpt>
      <trkpt lat="42.09964" lon="2.43391">
        <ele>686</ele>
        <time>2019-04-11T23:05:50Z</time>
      </trkpt>
      <trkpt lat="42.09964" lon="2.43391">
        <ele>685.9</ele>
        <time>2019-04-11T23:05:50Z</time>
      </trkpt>
      <trkpt lat="42.09964" lon="2.43391">
        <ele>685.9</ele>
        <time>2019-04-11T23:05:50Z</time>
      </trkpt>
      <trkpt lat="42.09963" lon="2.4339">
        <ele>686.3</ele>
        <time>2019-04-11T23:05:50Z</time>
      </trkpt>
      <trkpt lat="42.09963" lon="2.43389">
        <ele>686.3</ele>
        <time>2019-04-11T23:05:51Z</time>
      </trkpt>
      <trkpt lat="42.09963" lon="2.43388">
        <ele>686.2</ele>
        <time>2019-04-11T23:05:51Z</time>
      </trkpt>
      <trkpt lat="42.09962" lon="2.43387">
        <ele>686.4</ele>
        <time>2019-04-11T23:05:51Z</time>
      </trkpt>
      <trkpt lat="42.09962" lon="2.43386">
        <ele>686.8</ele>
        <time>2019-04-11T23:05:52Z</time>
      </trkpt>
      <trkpt lat="42.09962" lon="2.43385">
        <ele>687.2</ele>
        <time>2019-04-11T23:05:52Z</time>
      </trkpt>
      <trkpt lat="42.09961" lon="2.43383">
        <ele>688.7</ele>
        <time>2019-04-11T23:05:52Z</time>
      </trkpt>
      <trkpt lat="42.09961" lon="2.43383">
        <ele>689.3</ele>
        <time>2019-04-11T23:05:53Z</time>
      </trkpt>
      <trkpt lat="42.09961" lon="2.43382">
        <ele>690</ele>
        <time>2019-04-11T23:05:53Z</time>
      </trkpt>
      <trkpt lat="42.09961" lon="2.43381">
        <ele>690.6</ele>
        <time>2019-04-11T23:05:53Z</time>
      </trkpt>
      <trkpt lat="42.09961" lon="2.4338">
        <ele>691</ele>
        <time>2019-04-11T23:05:53Z</time>
      </trkpt>
      <trkpt lat="42.09961" lon="2.4338">
        <ele>691.8</ele>
        <time>2019-04-11T23:05:54Z</time>
      </trkpt>
      <trkpt lat="42.09961" lon="2.43379">
        <ele>692.6</ele>
        <time>2019-04-11T23:05:54Z</time>
      </trkpt>
      <trkpt lat="42.09961" lon="2.43378">
        <ele>693.4</ele>
        <time>2019-04-11T23:05:54Z</time>
      </trkpt>
      <trkpt lat="42.09962" lon="2.43377">
        <ele>694.3</ele>
        <time>2019-04-11T23:05:55Z</time>
      </trkpt>
      <trkpt lat="42.09963" lon="2.43376">
        <ele>695</ele>
        <time>2019-04-11T23:05:55Z</time>
      </trkpt>
      <trkpt lat="42.09963" lon="2.43376">
        <ele>695.5</ele>
        <time>2019-04-11T23:05:55Z</time>
      </trkpt>
      <trkpt lat="42.09964" lon="2.43375">
        <ele>695.9</ele>
        <time>2019-04-11T23:05:56Z</time>
      </trkpt>
      <trkpt lat="42.09964" lon="2.43374">
        <ele>696.3</ele>
        <time>2019-04-11T23:05:56Z</time>
      </trkpt>
      <trkpt lat="42.09964" lon="2.43369">
        <ele>697.6</ele>
        <time>2019-04-11T23:05:57Z</time>
      </trkpt>
      <trkpt lat="42.09965" lon="2.43368">
        <ele>698.2</ele>
        <time>2019-04-11T23:05:58Z</time>
      </trkpt>
      <trkpt lat="42.09965" lon="2.43367">
        <ele>698.9</ele>
        <time>2019-04-11T23:05:58Z</time>
      </trkpt>
      <trkpt lat="42.09965" lon="2.43366">
        <ele>699.7</ele>
        <time>2019-04-11T23:05:59Z</time>
      </trkpt>
      <trkpt lat="42.09964" lon="2.43364">
        <ele>700.5</ele>
        <time>2019-04-11T23:05:59Z</time>
      </trkpt>
      <trkpt lat="42.09963" lon="2.43363">
        <ele>701.3</ele>
        <time>2019-04-11T23:06:00Z</time>
      </trkpt>
      <trkpt lat="42.09962" lon="2.43362">
        <ele>701.8</ele>
        <time>2019-04-11T23:06:00Z</time>
      </trkpt>
      <trkpt lat="42.09962" lon="2.43361">
        <ele>702.4</ele>
        <time>2019-04-11T23:06:00Z</time>
      </trkpt>
      <trkpt lat="42.09961" lon="2.43359">
        <ele>703.2</ele>
        <time>2019-04-11T23:06:01Z</time>
      </trkpt>
      <trkpt lat="42.09961" lon="2.43358">
        <ele>704.2</ele>
        <time>2019-04-11T23:06:01Z</time>
      </trkpt>
      <trkpt lat="42.09961" lon="2.43358">
        <ele>705.3</ele>
        <time>2019-04-11T23:06:02Z</time>
      </trkpt>
      <trkpt lat="42.0996" lon="2.43357">
        <ele>706.6</ele>
        <time>2019-04-11T23:06:02Z</time>
      </trkpt>
      <trkpt lat="42.0996" lon="2.43356">
        <ele>708.1</ele>
        <time>2019-04-11T23:06:02Z</time>
      </trkpt>
      <trkpt lat="42.0996" lon="2.43354">
        <ele>709.2</ele>
        <time>2019-04-11T23:06:03Z</time>
      </trkpt>
      <trkpt lat="42.0996" lon="2.43352">
        <ele>710.3</ele>
        <time>2019-04-11T23:06:03Z</time>
      </trkpt>
      <trkpt lat="42.0996" lon="2.43351">
        <ele>711.2</ele>
        <time>2019-04-11T23:06:04Z</time>
      </trkpt>
      <trkpt lat="42.0996" lon="2.43349">
        <ele>712.5</ele>
        <time>2019-04-11T23:06:04Z</time>
      </trkpt>
      <trkpt lat="42.09958" lon="2.43347">
        <ele>713.5</ele>
        <time>2019-04-11T23:06:05Z</time>
      </trkpt>
      <trkpt lat="42.09958" lon="2.43346">
        <ele>714.3</ele>
        <time>2019-04-11T23:06:05Z</time>
      </trkpt>
      <trkpt lat="42.09957" lon="2.43343">
        <ele>715</ele>
        <time>2019-04-11T23:06:06Z</time>
      </trkpt>
      <trkpt lat="42.09957" lon="2.43342">
        <ele>715.2</ele>
        <time>2019-04-11T23:06:07Z</time>
      </trkpt>
      <trkpt lat="42.09957" lon="2.43341">
        <ele>715.5</ele>
        <time>2019-04-11T23:06:07Z</time>
      </trkpt>
      <trkpt lat="42.09956" lon="2.43338">
        <ele>715.6</ele>
        <time>2019-04-11T23:06:08Z</time>
      </trkpt>
      <trkpt lat="42.09956" lon="2.43336">
        <ele>715.5</ele>
        <time>2019-04-11T23:06:09Z</time>
      </trkpt>
      <trkpt lat="42.09956" lon="2.43335">
        <ele>715.8</ele>
        <time>2019-04-11T23:06:09Z</time>
      </trkpt>
      <trkpt lat="42.09956" lon="2.43334">
        <ele>715.8</ele>
        <time>2019-04-11T23:06:09Z</time>
      </trkpt>
      <trkpt lat="42.09956" lon="2.43332">
        <ele>716</ele>
        <time>2019-04-11T23:06:10Z</time>
      </trkpt>
      <trkpt lat="42.09955" lon="2.4333">
        <ele>716</ele>
        <time>2019-04-11T23:06:11Z</time>
      </trkpt>
      <trkpt lat="42.09955" lon="2.43318">
        <ele>716.1</ele>
        <time>2019-04-11T23:06:14Z</time>
      </trkpt>
      <trkpt lat="42.09954" lon="2.43316">
        <ele>715.9</ele>
        <time>2019-04-11T23:06:15Z</time>
      </trkpt>
      <trkpt lat="42.09953" lon="2.43315">
        <ele>715.4</ele>
        <time>2019-04-11T23:06:15Z</time>
      </trkpt>
      <trkpt lat="42.09952" lon="2.43312">
        <ele>715.2</ele>
        <time>2019-04-11T23:06:16Z</time>
      </trkpt>
      <trkpt lat="42.09953" lon="2.4331">
        <ele>715.1</ele>
        <time>2019-04-11T23:06:17Z</time>
      </trkpt>
      <trkpt lat="42.09952" lon="2.43306">
        <ele>715.5</ele>
        <time>2019-04-11T23:06:18Z</time>
      </trkpt>
      <trkpt lat="42.09952" lon="2.43305">
        <ele>715.5</ele>
        <time>2019-04-11T23:06:18Z</time>
      </trkpt>
      <trkpt lat="42.09952" lon="2.43305">
        <ele>716</ele>
        <time>2019-04-11T23:06:18Z</time>
      </trkpt>
      <trkpt lat="42.09952" lon="2.43304">
        <ele>716.4</ele>
        <time>2019-04-11T23:06:19Z</time>
      </trkpt>
      <trkpt lat="42.09953" lon="2.43303">
        <ele>717.3</ele>
        <time>2019-04-11T23:06:19Z</time>
      </trkpt>
      <trkpt lat="42.09955" lon="2.43303">
        <ele>718.8</ele>
        <time>2019-04-11T23:06:20Z</time>
      </trkpt>
      <trkpt lat="42.09958" lon="2.43305">
        <ele>720.3</ele>
        <time>2019-04-11T23:06:21Z</time>
      </trkpt>
      <trkpt lat="42.09958" lon="2.43305">
        <ele>721</ele>
        <time>2019-04-11T23:06:21Z</time>
      </trkpt>
      <trkpt lat="42.09959" lon="2.43304">
        <ele>721.2</ele>
        <time>2019-04-11T23:06:22Z</time>
      </trkpt>
      <trkpt lat="42.09959" lon="2.43304">
        <ele>721.5</ele>
        <time>2019-04-11T23:06:22Z</time>
      </trkpt>
      <trkpt lat="42.0996" lon="2.43303">
        <ele>721.9</ele>
        <time>2019-04-11T23:06:22Z</time>
      </trkpt>
      <trkpt lat="42.09961" lon="2.43302">
        <ele>722.2</ele>
        <time>2019-04-11T23:06:23Z</time>
      </trkpt>
      <trkpt lat="42.09961" lon="2.43302">
        <ele>722.2</ele>
        <time>2019-04-11T23:06:23Z</time>
      </trkpt>
      <trkpt lat="42.09961" lon="2.43302">
        <ele>722.2</ele>
        <time>2019-04-11T23:06:23Z</time>
      </trkpt>
      <trkpt lat="42.09962" lon="2.43301">
        <ele>722.2</ele>
        <time>2019-04-11T23:06:23Z</time>
      </trkpt>
      <trkpt lat="42.09962" lon="2.433">
        <ele>722.2</ele>
        <time>2019-04-11T23:06:23Z</time>
      </trkpt>
      <trkpt lat="42.09962" lon="2.433">
        <ele>722.2</ele>
        <time>2019-04-11T23:06:24Z</time>
      </trkpt>
      <trkpt lat="42.09962" lon="2.433">
        <ele>722.3</ele>
        <time>2019-04-11T23:06:24Z</time>
      </trkpt>
      <trkpt lat="42.09962" lon="2.433">
        <ele>722.3</ele>
        <time>2019-04-11T23:06:24Z</time>
      </trkpt>
      <trkpt lat="42.09962" lon="2.43299">
        <ele>722.5</ele>
        <time>2019-04-11T23:06:24Z</time>
      </trkpt>
      <trkpt lat="42.09963" lon="2.43299">
        <ele>723.2</ele>
        <time>2019-04-11T23:06:24Z</time>
      </trkpt>
      <trkpt lat="42.09963" lon="2.43298">
        <ele>723.8</ele>
        <time>2019-04-11T23:06:24Z</time>
      </trkpt>
      <trkpt lat="42.09964" lon="2.43298">
        <ele>724.2</ele>
        <time>2019-04-11T23:06:25Z</time>
      </trkpt>
      <trkpt lat="42.09964" lon="2.43297">
        <ele>725.1</ele>
        <time>2019-04-11T23:06:25Z</time>
      </trkpt>
      <trkpt lat="42.09964" lon="2.43297">
        <ele>725.6</ele>
        <time>2019-04-11T23:06:25Z</time>
      </trkpt>
      <trkpt lat="42.09964" lon="2.43295">
        <ele>726</ele>
        <time>2019-04-11T23:06:26Z</time>
      </trkpt>
      <trkpt lat="42.09963" lon="2.43294">
        <ele>726.5</ele>
        <time>2019-04-11T23:06:26Z</time>
      </trkpt>
      <trkpt lat="42.09963" lon="2.43293">
        <ele>727</ele>
        <time>2019-04-11T23:06:26Z</time>
      </trkpt>
      <trkpt lat="42.09962" lon="2.43291">
        <ele>727</ele>
        <time>2019-04-11T23:06:27Z</time>
      </trkpt>
      <trkpt lat="42.09961" lon="2.4329">
        <ele>727.5</ele>
        <time>2019-04-11T23:06:27Z</time>
      </trkpt>
      <trkpt lat="42.09961" lon="2.4329">
        <ele>727.7</ele>
        <time>2019-04-11T23:06:28Z</time>
      </trkpt>
      <trkpt lat="42.0996" lon="2.43289">
        <ele>728</ele>
        <time>2019-04-11T23:06:28Z</time>
      </trkpt>
      <trkpt lat="42.09959" lon="2.43288">
        <ele>728.2</ele>
        <time>2019-04-11T23:06:29Z</time>
      </trkpt>
      <trkpt lat="42.09959" lon="2.43286">
        <ele>728.7</ele>
        <time>2019-04-11T23:06:29Z</time>
      </trkpt>
      <trkpt lat="42.0996" lon="2.43285">
        <ele>729.2</ele>
        <time>2019-04-11T23:06:29Z</time>
      </trkpt>
      <trkpt lat="42.09959" lon="2.43284">
        <ele>729.8</ele>
        <time>2019-04-11T23:06:30Z</time>
      </trkpt>
      <trkpt lat="42.09959" lon="2.43282">
        <ele>730.5</ele>
        <time>2019-04-11T23:06:30Z</time>
      </trkpt>
      <trkpt lat="42.09959" lon="2.4328">
        <ele>731.5</ele>
        <time>2019-04-11T23:06:31Z</time>
      </trkpt>
      <trkpt lat="42.09958" lon="2.43279">
        <ele>732.3</ele>
        <time>2019-04-11T23:06:31Z</time>
      </trkpt>
      <trkpt lat="42.09957" lon="2.43278">
        <ele>733.2</ele>
        <time>2019-04-11T23:06:32Z</time>
      </trkpt>
      <trkpt lat="42.09956" lon="2.43277">
        <ele>733.6</ele>
        <time>2019-04-11T23:06:32Z</time>
      </trkpt>
      <trkpt lat="42.09956" lon="2.43275">
        <ele>734.2</ele>
        <time>2019-04-11T23:06:33Z</time>
      </trkpt>
      <trkpt lat="42.09955" lon="2.43274">
        <ele>734.7</ele>
        <time>2019-04-11T23:06:33Z</time>
      </trkpt>
      <trkpt lat="42.09954" lon="2.43272">
        <ele>735.5</ele>
        <time>2019-04-11T23:06:34Z</time>
      </trkpt>
      <trkpt lat="42.09954" lon="2.43271">
        <ele>736</ele>
        <time>2019-04-11T23:06:34Z</time>
      </trkpt>
      <trkpt lat="42.09953" lon="2.43269">
        <ele>736.3</ele>
        <time>2019-04-11T23:06:35Z</time>
      </trkpt>
      <trkpt lat="42.09952" lon="2.43268">
        <ele>736.5</ele>
        <time>2019-04-11T23:06:35Z</time>
      </trkpt>
      <trkpt lat="42.09952" lon="2.43266">
        <ele>736.6</ele>
        <time>2019-04-11T23:06:36Z</time>
      </trkpt>
      <trkpt lat="42.09951" lon="2.43265">
        <ele>736.6</ele>
        <time>2019-04-11T23:06:36Z</time>
      </trkpt>
      <trkpt lat="42.0995" lon="2.43264">
        <ele>736.6</ele>
        <time>2019-04-11T23:06:37Z</time>
      </trkpt>
      <trkpt lat="42.09949" lon="2.43263">
        <ele>737</ele>
        <time>2019-04-11T23:06:37Z</time>
      </trkpt>
      <trkpt lat="42.09948" lon="2.43261">
        <ele>737.2</ele>
        <time>2019-04-11T23:06:38Z</time>
      </trkpt>
      <trkpt lat="42.09948" lon="2.4326">
        <ele>737.7</ele>
        <time>2019-04-11T23:06:38Z</time>
      </trkpt>
      <trkpt lat="42.09947" lon="2.43258">
        <ele>738.2</ele>
        <time>2019-04-11T23:06:39Z</time>
      </trkpt>
      <trkpt lat="42.09946" lon="2.43256">
        <ele>738.6</ele>
        <time>2019-04-11T23:06:40Z</time>
      </trkpt>
      <trkpt lat="42.09946" lon="2.43255">
        <ele>739.1</ele>
        <time>2019-04-11T23:06:40Z</time>
      </trkpt>
      <trkpt lat="42.09945" lon="2.43254">
        <ele>739.6</ele>
        <time>2019-04-11T23:06:40Z</time>
      </trkpt>
      <trkpt lat="42.09945" lon="2.43253">
        <ele>740.1</ele>
        <time>2019-04-11T23:06:41Z</time>
      </trkpt>
      <trkpt lat="42.09944" lon="2.43252">
        <ele>740.9</ele>
        <time>2019-04-11T23:06:41Z</time>
      </trkpt>
      <trkpt lat="42.09943" lon="2.43251">
        <ele>741.9</ele>
        <time>2019-04-11T23:06:42Z</time>
      </trkpt>
      <trkpt lat="42.09942" lon="2.43248">
        <ele>743.5</ele>
        <time>2019-04-11T23:06:43Z</time>
      </trkpt>
      <trkpt lat="42.09941" lon="2.43247">
        <ele>743.8</ele>
        <time>2019-04-11T23:06:43Z</time>
      </trkpt>
      <trkpt lat="42.0994" lon="2.43246">
        <ele>744.3</ele>
        <time>2019-04-11T23:06:44Z</time>
      </trkpt>
      <trkpt lat="42.09939" lon="2.43246">
        <ele>744.5</ele>
        <time>2019-04-11T23:06:44Z</time>
      </trkpt>
      <trkpt lat="42.09939" lon="2.43245">
        <ele>744.9</ele>
        <time>2019-04-11T23:06:44Z</time>
      </trkpt>
      <trkpt lat="42.09938" lon="2.43244">
        <ele>745.3</ele>
        <time>2019-04-11T23:06:45Z</time>
      </trkpt>
      <trkpt lat="42.09938" lon="2.43243">
        <ele>745.6</ele>
        <time>2019-04-11T23:06:45Z</time>
      </trkpt>
      <trkpt lat="42.09937" lon="2.43243">
        <ele>745.7</ele>
        <time>2019-04-11T23:06:45Z</time>
      </trkpt>
      <trkpt lat="42.09937" lon="2.43241">
        <ele>746</ele>
        <time>2019-04-11T23:06:46Z</time>
      </trkpt>
      <trkpt lat="42.09936" lon="2.4324">
        <ele>745.9</ele>
        <time>2019-04-11T23:06:46Z</time>
      </trkpt>
      <trkpt lat="42.09936" lon="2.43239">
        <ele>746.1</ele>
        <time>2019-04-11T23:06:46Z</time>
      </trkpt>
      <trkpt lat="42.09936" lon="2.43238">
        <ele>746.2</ele>
        <time>2019-04-11T23:06:47Z</time>
      </trkpt>
      <trkpt lat="42.09936" lon="2.43235">
        <ele>746</ele>
        <time>2019-04-11T23:06:48Z</time>
      </trkpt>
      <trkpt lat="42.09936" lon="2.43234">
        <ele>745.7</ele>
        <time>2019-04-11T23:06:48Z</time>
      </trkpt>
      <trkpt lat="42.09936" lon="2.43232">
        <ele>745.5</ele>
        <time>2019-04-11T23:06:48Z</time>
      </trkpt>
      <trkpt lat="42.09937" lon="2.43229">
        <ele>745.2</ele>
        <time>2019-04-11T23:06:50Z</time>
      </trkpt>
      <trkpt lat="42.09936" lon="2.43228">
        <ele>744.9</ele>
        <time>2019-04-11T23:06:50Z</time>
      </trkpt>
      <trkpt lat="42.09936" lon="2.43228">
        <ele>744.9</ele>
        <time>2019-04-11T23:06:50Z</time>
      </trkpt>
      <trkpt lat="42.09935" lon="2.43228">
        <ele>745.3</ele>
        <time>2019-04-11T23:06:50Z</time>
      </trkpt>
      <trkpt lat="42.09933" lon="2.43225">
        <ele>746.3</ele>
        <time>2019-04-11T23:06:51Z</time>
      </trkpt>
      <trkpt lat="42.09932" lon="2.43223">
        <ele>747.1</ele>
        <time>2019-04-11T23:06:52Z</time>
      </trkpt>
      <trkpt lat="42.0993" lon="2.4322">
        <ele>747.5</ele>
        <time>2019-04-11T23:06:54Z</time>
      </trkpt>
      <trkpt lat="42.09929" lon="2.43219">
        <ele>748.1</ele>
        <time>2019-04-11T23:06:54Z</time>
      </trkpt>
      <trkpt lat="42.09927" lon="2.43218">
        <ele>748.3</ele>
        <time>2019-04-11T23:06:55Z</time>
      </trkpt>
      <trkpt lat="42.09926" lon="2.43217">
        <ele>748.3</ele>
        <time>2019-04-11T23:06:55Z</time>
      </trkpt>
      <trkpt lat="42.09925" lon="2.43215">
        <ele>748.4</ele>
        <time>2019-04-11T23:06:56Z</time>
      </trkpt>
      <trkpt lat="42.09924" lon="2.43213">
        <ele>748.5</ele>
        <time>2019-04-11T23:06:57Z</time>
      </trkpt>
      <trkpt lat="42.09922" lon="2.43209">
        <ele>748.7</ele>
        <time>2019-04-11T23:06:58Z</time>
      </trkpt>
      <trkpt lat="42.09922" lon="2.43206">
        <ele>749.1</ele>
        <time>2019-04-11T23:06:59Z</time>
      </trkpt>
      <trkpt lat="42.09922" lon="2.43205">
        <ele>749</ele>
        <time>2019-04-11T23:06:59Z</time>
      </trkpt>
      <trkpt lat="42.09922" lon="2.43204">
        <ele>749</ele>
        <time>2019-04-11T23:07:00Z</time>
      </trkpt>
      <trkpt lat="42.09922" lon="2.43203">
        <ele>749</ele>
        <time>2019-04-11T23:07:00Z</time>
      </trkpt>
      <trkpt lat="42.09922" lon="2.43202">
        <ele>748.8</ele>
        <time>2019-04-11T23:07:00Z</time>
      </trkpt>
      <trkpt lat="42.09923" lon="2.43201">
        <ele>748.8</ele>
        <time>2019-04-11T23:07:01Z</time>
      </trkpt>
      <trkpt lat="42.09923" lon="2.432">
        <ele>749</ele>
        <time>2019-04-11T23:07:01Z</time>
      </trkpt>
      <trkpt lat="42.09922" lon="2.43199">
        <ele>749.5</ele>
        <time>2019-04-11T23:07:01Z</time>
      </trkpt>
      <trkpt lat="42.09921" lon="2.43198">
        <ele>749.5</ele>
        <time>2019-04-11T23:07:02Z</time>
      </trkpt>
      <trkpt lat="42.0992" lon="2.43197">
        <ele>749.5</ele>
        <time>2019-04-11T23:07:02Z</time>
      </trkpt>
      <trkpt lat="42.0992" lon="2.43196">
        <ele>749.6</ele>
        <time>2019-04-11T23:07:02Z</time>
      </trkpt>
      <trkpt lat="42.0992" lon="2.43196">
        <ele>749.4</ele>
        <time>2019-04-11T23:07:03Z</time>
      </trkpt>
      <trkpt lat="42.0992" lon="2.43195">
        <ele>749.4</ele>
        <time>2019-04-11T23:07:03Z</time>
      </trkpt>
      <trkpt lat="42.0992" lon="2.43194">
        <ele>749.2</ele>
        <time>2019-04-11T23:07:03Z</time>
      </trkpt>
      <trkpt lat="42.0992" lon="2.43193">
        <ele>749.3</ele>
        <time>2019-04-11T23:07:04Z</time>
      </trkpt>
      <trkpt lat="42.0992" lon="2.43191">
        <ele>749.1</ele>
        <time>2019-04-11T23:07:04Z</time>
      </trkpt>
      <trkpt lat="42.09919" lon="2.4319">
        <ele>749</ele>
        <time>2019-04-11T23:07:04Z</time>
      </trkpt>
      <trkpt lat="42.09919" lon="2.43189">
        <ele>749</ele>
        <time>2019-04-11T23:07:05Z</time>
      </trkpt>
      <trkpt lat="42.09919" lon="2.43188">
        <ele>748.9</ele>
        <time>2019-04-11T23:07:05Z</time>
      </trkpt>
      <trkpt lat="42.09919" lon="2.43188">
        <ele>749</ele>
        <time>2019-04-11T23:07:05Z</time>
      </trkpt>
      <trkpt lat="42.09919" lon="2.43186">
        <ele>750.2</ele>
        <time>2019-04-11T23:07:06Z</time>
      </trkpt>
      <trkpt lat="42.09919" lon="2.43185">
        <ele>751</ele>
        <time>2019-04-11T23:07:06Z</time>
      </trkpt>
      <trkpt lat="42.09918" lon="2.43184">
        <ele>752.8</ele>
        <time>2019-04-11T23:07:07Z</time>
      </trkpt>
      <trkpt lat="42.09918" lon="2.43184">
        <ele>753.6</ele>
        <time>2019-04-11T23:07:07Z</time>
      </trkpt>
      <trkpt lat="42.09918" lon="2.43183">
        <ele>754.6</ele>
        <time>2019-04-11T23:07:07Z</time>
      </trkpt>
      <trkpt lat="42.09918" lon="2.43183">
        <ele>755.1</ele>
        <time>2019-04-11T23:07:07Z</time>
      </trkpt>
      <trkpt lat="42.09918" lon="2.43182">
        <ele>755.6</ele>
        <time>2019-04-11T23:07:08Z</time>
      </trkpt>
      <trkpt lat="42.09916" lon="2.43181">
        <ele>756.1</ele>
        <time>2019-04-11T23:07:08Z</time>
      </trkpt>
      <trkpt lat="42.09915" lon="2.4318">
        <ele>756.3</ele>
        <time>2019-04-11T23:07:09Z</time>
      </trkpt>
      <trkpt lat="42.09914" lon="2.4318">
        <ele>756.5</ele>
        <time>2019-04-11T23:07:09Z</time>
      </trkpt>
      <trkpt lat="42.09913" lon="2.43179">
        <ele>756.7</ele>
        <time>2019-04-11T23:07:10Z</time>
      </trkpt>
      <trkpt lat="42.09913" lon="2.43178">
        <ele>756.7</ele>
        <time>2019-04-11T23:07:10Z</time>
      </trkpt>
      <trkpt lat="42.09913" lon="2.43177">
        <ele>757</ele>
        <time>2019-04-11T23:07:10Z</time>
      </trkpt>
      <trkpt lat="42.09913" lon="2.43176">
        <ele>757.2</ele>
        <time>2019-04-11T23:07:10Z</time>
      </trkpt>
      <trkpt lat="42.09914" lon="2.43176">
        <ele>757.5</ele>
        <time>2019-04-11T23:07:11Z</time>
      </trkpt>
      <trkpt lat="42.09914" lon="2.43175">
        <ele>758</ele>
        <time>2019-04-11T23:07:11Z</time>
      </trkpt>
      <trkpt lat="42.09914" lon="2.43175">
        <ele>758.5</ele>
        <time>2019-04-11T23:07:11Z</time>
      </trkpt>
      <trkpt lat="42.09915" lon="2.43175">
        <ele>759.3</ele>
        <time>2019-04-11T23:07:11Z</time>
      </trkpt>
      <trkpt lat="42.09915" lon="2.43174">
        <ele>760.1</ele>
        <time>2019-04-11T23:07:12Z</time>
      </trkpt>
      <trkpt lat="42.09915" lon="2.43173">
        <ele>761</ele>
        <time>2019-04-11T23:07:12Z</time>
      </trkpt>
      <trkpt lat="42.09915" lon="2.43172">
        <ele>762</ele>
        <time>2019-04-11T23:07:12Z</time>
      </trkpt>
      <trkpt lat="42.09914" lon="2.4317">
        <ele>763.2</ele>
        <time>2019-04-11T23:07:13Z</time>
      </trkpt>
      <trkpt lat="42.09913" lon="2.43167">
        <ele>765.2</ele>
        <time>2019-04-11T23:07:14Z</time>
      </trkpt>
      <trkpt lat="42.09913" lon="2.43165">
        <ele>765.9</ele>
        <time>2019-04-11T23:07:14Z</time>
      </trkpt>
      <trkpt lat="42.09913" lon="2.43163">
        <ele>766.3</ele>
        <time>2019-04-11T23:07:15Z</time>
      </trkpt>
      <trkpt lat="42.09913" lon="2.43163">
        <ele>766.5</ele>
        <time>2019-04-11T23:07:15Z</time>
      </trkpt>
      <trkpt lat="42.09914" lon="2.43161">
        <ele>766.9</ele>
        <time>2019-04-11T23:07:16Z</time>
      </trkpt>
      <trkpt lat="42.09913" lon="2.4316">
        <ele>766.9</ele>
        <time>2019-04-11T23:07:16Z</time>
      </trkpt>
      <trkpt lat="42.09912" lon="2.4316">
        <ele>767.2</ele>
        <time>2019-04-11T23:07:16Z</time>
      </trkpt>
      <trkpt lat="42.09911" lon="2.4316">
        <ele>767.7</ele>
        <time>2019-04-11T23:07:17Z</time>
      </trkpt>
      <trkpt lat="42.09912" lon="2.4316">
        <ele>768.1</ele>
        <time>2019-04-11T23:07:17Z</time>
      </trkpt>
      <trkpt lat="42.09912" lon="2.4316">
        <ele>768.8</ele>
        <time>2019-04-11T23:07:17Z</time>
      </trkpt>
      <trkpt lat="42.09911" lon="2.43159">
        <ele>769.5</ele>
        <time>2019-04-11T23:07:17Z</time>
      </trkpt>
      <trkpt lat="42.09911" lon="2.43159">
        <ele>770.5</ele>
        <time>2019-04-11T23:07:17Z</time>
      </trkpt>
      <trkpt lat="42.09912" lon="2.43159">
        <ele>771.5</ele>
        <time>2019-04-11T23:07:18Z</time>
      </trkpt>
      <trkpt lat="42.09912" lon="2.43159">
        <ele>772.6</ele>
        <time>2019-04-11T23:07:18Z</time>
      </trkpt>
      <trkpt lat="42.09912" lon="2.43159">
        <ele>773.6</ele>
        <time>2019-04-11T23:07:18Z</time>
      </trkpt>
      <trkpt lat="42.09912" lon="2.43159">
        <ele>774.7</ele>
        <time>2019-04-11T23:07:18Z</time>
      </trkpt>
      <trkpt lat="42.09913" lon="2.43159">
        <ele>776.3</ele>
        <time>2019-04-11T23:07:18Z</time>
      </trkpt>
      <trkpt lat="42.09913" lon="2.43159">
        <ele>777.8</ele>
        <time>2019-04-11T23:07:18Z</time>
      </trkpt>
      <trkpt lat="42.09914" lon="2.43159">
        <ele>779</ele>
        <time>2019-04-11T23:07:18Z</time>
      </trkpt>
      <trkpt lat="42.09914" lon="2.43158">
        <ele>780</ele>
        <time>2019-04-11T23:07:19Z</time>
      </trkpt>
      <trkpt lat="42.09914" lon="2.43158">
        <ele>780.5</ele>
        <time>2019-04-11T23:07:19Z</time>
      </trkpt>
      <trkpt lat="42.09914" lon="2.43157">
        <ele>781.4</ele>
        <time>2019-04-11T23:07:19Z</time>
      </trkpt>
      <trkpt lat="42.09914" lon="2.43156">
        <ele>781.9</ele>
        <time>2019-04-11T23:07:19Z</time>
      </trkpt>
      <trkpt lat="42.09915" lon="2.43155">
        <ele>782.4</ele>
        <time>2019-04-11T23:07:20Z</time>
      </trkpt>
      <trkpt lat="42.09916" lon="2.43154">
        <ele>782.6</ele>
        <time>2019-04-11T23:07:20Z</time>
      </trkpt>
      <trkpt lat="42.09917" lon="2.43153">
        <ele>781.4</ele>
        <time>2019-04-11T23:07:21Z</time>
      </trkpt>
      <trkpt lat="42.09917" lon="2.43152">
        <ele>780.8</ele>
        <time>2019-04-11T23:07:21Z</time>
      </trkpt>
      <trkpt lat="42.09917" lon="2.43152">
        <ele>780.1</ele>
        <time>2019-04-11T23:07:21Z</time>
      </trkpt>
      <trkpt lat="42.09916" lon="2.43152">
        <ele>779.5</ele>
        <time>2019-04-11T23:07:22Z</time>
      </trkpt>
      <trkpt lat="42.09916" lon="2.4315">
        <ele>778.9</ele>
        <time>2019-04-11T23:07:22Z</time>
      </trkpt>
      <trkpt lat="42.09915" lon="2.43149">
        <ele>778</ele>
        <time>2019-04-11T23:07:22Z</time>
      </trkpt>
      <trkpt lat="42.09914" lon="2.43148">
        <ele>777.5</ele>
        <time>2019-04-11T23:07:23Z</time>
      </trkpt>
      <trkpt lat="42.09913" lon="2.43147">
        <ele>776.5</ele>
        <time>2019-04-11T23:07:23Z</time>
      </trkpt>
      <trkpt lat="42.09912" lon="2.43146">
        <ele>776</ele>
        <time>2019-04-11T23:07:24Z</time>
      </trkpt>
      <trkpt lat="42.09911" lon="2.43145">
        <ele>775.5</ele>
        <time>2019-04-11T23:07:25Z</time>
      </trkpt>
      <trkpt lat="42.0991" lon="2.43144">
        <ele>775.2</ele>
        <time>2019-04-11T23:07:25Z</time>
      </trkpt>
      <trkpt lat="42.0991" lon="2.43144">
        <ele>775.2</ele>
        <time>2019-04-11T23:07:25Z</time>
      </trkpt>
      <trkpt lat="42.0991" lon="2.43144">
        <ele>775</ele>
        <time>2019-04-11T23:07:25Z</time>
      </trkpt>
      <trkpt lat="42.09909" lon="2.43143">
        <ele>774.9</ele>
        <time>2019-04-11T23:07:26Z</time>
      </trkpt>
      <trkpt lat="42.09908" lon="2.43142">
        <ele>774.8</ele>
        <time>2019-04-11T23:07:26Z</time>
      </trkpt>
      <trkpt lat="42.09908" lon="2.43141">
        <ele>774.4</ele>
        <time>2019-04-11T23:07:26Z</time>
      </trkpt>
      <trkpt lat="42.09908" lon="2.43139">
        <ele>774.1</ele>
        <time>2019-04-11T23:07:27Z</time>
      </trkpt>
      <trkpt lat="42.09909" lon="2.43138">
        <ele>773.9</ele>
        <time>2019-04-11T23:07:27Z</time>
      </trkpt>
      <trkpt lat="42.09909" lon="2.43137">
        <ele>773.9</ele>
        <time>2019-04-11T23:07:28Z</time>
      </trkpt>
      <trkpt lat="42.09909" lon="2.43136">
        <ele>773.9</ele>
        <time>2019-04-11T23:07:28Z</time>
      </trkpt>
      <trkpt lat="42.09909" lon="2.43135">
        <ele>774.1</ele>
        <time>2019-04-11T23:07:28Z</time>
      </trkpt>
      <trkpt lat="42.09909" lon="2.43134">
        <ele>774.5</ele>
        <time>2019-04-11T23:07:29Z</time>
      </trkpt>
      <trkpt lat="42.09909" lon="2.43133">
        <ele>774.5</ele>
        <time>2019-04-11T23:07:29Z</time>
      </trkpt>
      <trkpt lat="42.09909" lon="2.43132">
        <ele>775</ele>
        <time>2019-04-11T23:07:29Z</time>
      </trkpt>
      <trkpt lat="42.09908" lon="2.4313">
        <ele>775.7</ele>
        <time>2019-04-11T23:07:30Z</time>
      </trkpt>
      <trkpt lat="42.09907" lon="2.43129">
        <ele>776.3</ele>
        <time>2019-04-11T23:07:30Z</time>
      </trkpt>
      <trkpt lat="42.09907" lon="2.43129">
        <ele>776.6</ele>
        <time>2019-04-11T23:07:30Z</time>
      </trkpt>
      <trkpt lat="42.09907" lon="2.43128">
        <ele>777</ele>
        <time>2019-04-11T23:07:31Z</time>
      </trkpt>
      <trkpt lat="42.09907" lon="2.43128">
        <ele>777.7</ele>
        <time>2019-04-11T23:07:31Z</time>
      </trkpt>
      <trkpt lat="42.09906" lon="2.43127">
        <ele>778.2</ele>
        <time>2019-04-11T23:07:31Z</time>
      </trkpt>
      <trkpt lat="42.09906" lon="2.43127">
        <ele>779</ele>
        <time>2019-04-11T23:07:31Z</time>
      </trkpt>
      <trkpt lat="42.09906" lon="2.43127">
        <ele>779.8</ele>
        <time>2019-04-11T23:07:31Z</time>
      </trkpt>
      <trkpt lat="42.09906" lon="2.43126">
        <ele>780.5</ele>
        <time>2019-04-11T23:07:31Z</time>
      </trkpt>
      <trkpt lat="42.09906" lon="2.43126">
        <ele>781.2</ele>
        <time>2019-04-11T23:07:32Z</time>
      </trkpt>
      <trkpt lat="42.09906" lon="2.43125">
        <ele>782.2</ele>
        <time>2019-04-11T23:07:32Z</time>
      </trkpt>
      <trkpt lat="42.09906" lon="2.43124">
        <ele>783.4</ele>
        <time>2019-04-11T23:07:32Z</time>
      </trkpt>
      <trkpt lat="42.09905" lon="2.43122">
        <ele>785.7</ele>
        <time>2019-04-11T23:07:33Z</time>
      </trkpt>
      <trkpt lat="42.09904" lon="2.43122">
        <ele>787</ele>
        <time>2019-04-11T23:07:33Z</time>
      </trkpt>
      <trkpt lat="42.09904" lon="2.43121">
        <ele>788.4</ele>
        <time>2019-04-11T23:07:33Z</time>
      </trkpt>
      <trkpt lat="42.09904" lon="2.4312">
        <ele>789.8</ele>
        <time>2019-04-11T23:07:34Z</time>
      </trkpt>
      <trkpt lat="42.09904" lon="2.43119">
        <ele>791</ele>
        <time>2019-04-11T23:07:34Z</time>
      </trkpt>
      <trkpt lat="42.09905" lon="2.43118">
        <ele>792.4</ele>
        <time>2019-04-11T23:07:34Z</time>
      </trkpt>
      <trkpt lat="42.09905" lon="2.43118">
        <ele>793.4</ele>
        <time>2019-04-11T23:07:34Z</time>
      </trkpt>
      <trkpt lat="42.09906" lon="2.43119">
        <ele>794.3</ele>
        <time>2019-04-11T23:07:35Z</time>
      </trkpt>
      <trkpt lat="42.09907" lon="2.43118">
        <ele>795.1</ele>
        <time>2019-04-11T23:07:35Z</time>
      </trkpt>
      <trkpt lat="42.09908" lon="2.43118">
        <ele>795.7</ele>
        <time>2019-04-11T23:07:36Z</time>
      </trkpt>
      <trkpt lat="42.09908" lon="2.43119">
        <ele>796</ele>
        <time>2019-04-11T23:07:36Z</time>
      </trkpt>
      <trkpt lat="42.09909" lon="2.43119">
        <ele>796.6</ele>
        <time>2019-04-11T23:07:36Z</time>
      </trkpt>
      <trkpt lat="42.0991" lon="2.4312">
        <ele>797</ele>
        <time>2019-04-11T23:07:37Z</time>
      </trkpt>
      <trkpt lat="42.09911" lon="2.4312">
        <ele>797.5</ele>
        <time>2019-04-11T23:07:37Z</time>
      </trkpt>
      <trkpt lat="42.09912" lon="2.43121">
        <ele>798.5</ele>
        <time>2019-04-11T23:07:38Z</time>
      </trkpt>
      <trkpt lat="42.09913" lon="2.43121">
        <ele>799.4</ele>
        <time>2019-04-11T23:07:38Z</time>
      </trkpt>
      <trkpt lat="42.09914" lon="2.43121">
        <ele>800</ele>
        <time>2019-04-11T23:07:38Z</time>
      </trkpt>
      <trkpt lat="42.09915" lon="2.4312">
        <ele>800.8</ele>
        <time>2019-04-11T23:07:39Z</time>
      </trkpt>
      <trkpt lat="42.09915" lon="2.4312">
        <ele>801.3</ele>
        <time>2019-04-11T23:07:39Z</time>
      </trkpt>
      <trkpt lat="42.09916" lon="2.4312">
        <ele>801.5</ele>
        <time>2019-04-11T23:07:39Z</time>
      </trkpt>
      <trkpt lat="42.09916" lon="2.4312">
        <ele>802</ele>
        <time>2019-04-11T23:07:39Z</time>
      </trkpt>
      <trkpt lat="42.09915" lon="2.43119">
        <ele>802.3</ele>
        <time>2019-04-11T23:07:39Z</time>
      </trkpt>
      <trkpt lat="42.09914" lon="2.43118">
        <ele>802.2</ele>
        <time>2019-04-11T23:07:40Z</time>
      </trkpt>
      <trkpt lat="42.09913" lon="2.43118">
        <ele>802.8</ele>
        <time>2019-04-11T23:07:40Z</time>
      </trkpt>
      <trkpt lat="42.09912" lon="2.43117">
        <ele>803.6</ele>
        <time>2019-04-11T23:07:41Z</time>
      </trkpt>
      <trkpt lat="42.09912" lon="2.43117">
        <ele>804.3</ele>
        <time>2019-04-11T23:07:41Z</time>
      </trkpt>
      <trkpt lat="42.09911" lon="2.43116">
        <ele>805.2</ele>
        <time>2019-04-11T23:07:41Z</time>
      </trkpt>
      <trkpt lat="42.09911" lon="2.43115">
        <ele>806.2</ele>
        <time>2019-04-11T23:07:42Z</time>
      </trkpt>
      <trkpt lat="42.09911" lon="2.43114">
        <ele>807.2</ele>
        <time>2019-04-11T23:07:42Z</time>
      </trkpt>
      <trkpt lat="42.09911" lon="2.43113">
        <ele>808.1</ele>
        <time>2019-04-11T23:07:42Z</time>
      </trkpt>
      <trkpt lat="42.09911" lon="2.43113">
        <ele>808.8</ele>
        <time>2019-04-11T23:07:42Z</time>
      </trkpt>
      <trkpt lat="42.0991" lon="2.43111">
        <ele>809.2</ele>
        <time>2019-04-11T23:07:43Z</time>
      </trkpt>
      <trkpt lat="42.0991" lon="2.4311">
        <ele>809.6</ele>
        <time>2019-04-11T23:07:43Z</time>
      </trkpt>
      <trkpt lat="42.09909" lon="2.4311">
        <ele>810</ele>
        <time>2019-04-11T23:07:43Z</time>
      </trkpt>
      <trkpt lat="42.0991" lon="2.43109">
        <ele>810.8</ele>
        <time>2019-04-11T23:07:44Z</time>
      </trkpt>
      <trkpt lat="42.09911" lon="2.43108">
        <ele>811.6</ele>
        <time>2019-04-11T23:07:44Z</time>
      </trkpt>
      <trkpt lat="42.09911" lon="2.43108">
        <ele>812.5</ele>
        <time>2019-04-11T23:07:44Z</time>
      </trkpt>
      <trkpt lat="42.09912" lon="2.43108">
        <ele>813.2</ele>
        <time>2019-04-11T23:07:45Z</time>
      </trkpt>
      <trkpt lat="42.09913" lon="2.43108">
        <ele>814.4</ele>
        <time>2019-04-11T23:07:45Z</time>
      </trkpt>
      <trkpt lat="42.09913" lon="2.43109">
        <ele>815.6</ele>
        <time>2019-04-11T23:07:45Z</time>
      </trkpt>
      <trkpt lat="42.09914" lon="2.43111">
        <ele>817.2</ele>
        <time>2019-04-11T23:07:46Z</time>
      </trkpt>
      <trkpt lat="42.09914" lon="2.43111">
        <ele>817.7</ele>
        <time>2019-04-11T23:07:46Z</time>
      </trkpt>
      <trkpt lat="42.09914" lon="2.43112">
        <ele>818</ele>
        <time>2019-04-11T23:07:46Z</time>
      </trkpt>
      <trkpt lat="42.09915" lon="2.43111">
        <ele>818</ele>
        <time>2019-04-11T23:07:47Z</time>
      </trkpt>
      <trkpt lat="42.09916" lon="2.43111">
        <ele>818</ele>
        <time>2019-04-11T23:07:47Z</time>
      </trkpt>
      <trkpt lat="42.09916" lon="2.4311">
        <ele>817.7</ele>
        <time>2019-04-11T23:07:47Z</time>
      </trkpt>
      <trkpt lat="42.09916" lon="2.43108">
        <ele>817.7</ele>
        <time>2019-04-11T23:07:48Z</time>
      </trkpt>
      <trkpt lat="42.09917" lon="2.43107">
        <ele>817.6</ele>
        <time>2019-04-11T23:07:48Z</time>
      </trkpt>
      <trkpt lat="42.09918" lon="2.43106">
        <ele>817.5</ele>
        <time>2019-04-11T23:07:48Z</time>
      </trkpt>
      <trkpt lat="42.09918" lon="2.43106">
        <ele>817.7</ele>
        <time>2019-04-11T23:07:49Z</time>
      </trkpt>
      <trkpt lat="42.09918" lon="2.43105">
        <ele>818.2</ele>
        <time>2019-04-11T23:07:49Z</time>
      </trkpt>
      <trkpt lat="42.09919" lon="2.43105">
        <ele>819.1</ele>
        <time>2019-04-11T23:07:49Z</time>
      </trkpt>
      <trkpt lat="42.0992" lon="2.43105">
        <ele>819.7</ele>
        <time>2019-04-11T23:07:50Z</time>
      </trkpt>
      <trkpt lat="42.09921" lon="2.43104">
        <ele>820.5</ele>
        <time>2019-04-11T23:07:50Z</time>
      </trkpt>
      <trkpt lat="42.09922" lon="2.43104">
        <ele>820.8</ele>
        <time>2019-04-11T23:07:50Z</time>
      </trkpt>
      <trkpt lat="42.09923" lon="2.43102">
        <ele>821.5</ele>
        <time>2019-04-11T23:07:51Z</time>
      </trkpt>
      <trkpt lat="42.09925" lon="2.43101">
        <ele>822.5</ele>
        <time>2019-04-11T23:07:52Z</time>
      </trkpt>
      <trkpt lat="42.09927" lon="2.43104">
        <ele>823.5</ele>
        <time>2019-04-11T23:07:53Z</time>
      </trkpt>
      <trkpt lat="42.09928" lon="2.43104">
        <ele>823.6</ele>
        <time>2019-04-11T23:07:54Z</time>
      </trkpt>
      <trkpt lat="42.09929" lon="2.43104">
        <ele>823.5</ele>
        <time>2019-04-11T23:07:54Z</time>
      </trkpt>
      <trkpt lat="42.09929" lon="2.43103">
        <ele>823.2</ele>
        <time>2019-04-11T23:07:54Z</time>
      </trkpt>
      <trkpt lat="42.0993" lon="2.43102">
        <ele>823.2</ele>
        <time>2019-04-11T23:07:54Z</time>
      </trkpt>
      <trkpt lat="42.09931" lon="2.43101">
        <ele>822.8</ele>
        <time>2019-04-11T23:07:55Z</time>
      </trkpt>
      <trkpt lat="42.09932" lon="2.431">
        <ele>822.3</ele>
        <time>2019-04-11T23:07:55Z</time>
      </trkpt>
      <trkpt lat="42.09933" lon="2.431">
        <ele>821.5</ele>
        <time>2019-04-11T23:07:56Z</time>
      </trkpt>
      <trkpt lat="42.09934" lon="2.431">
        <ele>820.7</ele>
        <time>2019-04-11T23:07:56Z</time>
      </trkpt>
      <trkpt lat="42.09935" lon="2.43101">
        <ele>820</ele>
        <time>2019-04-11T23:07:57Z</time>
      </trkpt>
      <trkpt lat="42.09936" lon="2.43102">
        <ele>818.8</ele>
        <time>2019-04-11T23:07:57Z</time>
      </trkpt>
      <trkpt lat="42.09941" lon="2.43102">
        <ele>816.8</ele>
        <time>2019-04-11T23:07:59Z</time>
      </trkpt>
      <trkpt lat="42.09943" lon="2.43103">
        <ele>815.8</ele>
        <time>2019-04-11T23:08:00Z</time>
      </trkpt>
      <trkpt lat="42.09945" lon="2.43104">
        <ele>814.9</ele>
        <time>2019-04-11T23:08:01Z</time>
      </trkpt>
      <trkpt lat="42.09946" lon="2.43105">
        <ele>814.2</ele>
        <time>2019-04-11T23:08:01Z</time>
      </trkpt>
      <trkpt lat="42.09953" lon="2.43106">
        <ele>814.9</ele>
        <time>2019-04-11T23:08:04Z</time>
      </trkpt>
      <trkpt lat="42.09954" lon="2.43107">
        <ele>815.5</ele>
        <time>2019-04-11T23:08:05Z</time>
      </trkpt>
      <trkpt lat="42.09955" lon="2.43108">
        <ele>815.8</ele>
        <time>2019-04-11T23:08:05Z</time>
      </trkpt>
      <trkpt lat="42.09957" lon="2.43108">
        <ele>816.4</ele>
        <time>2019-04-11T23:08:06Z</time>
      </trkpt>
      <trkpt lat="42.09958" lon="2.43108">
        <ele>816.7</ele>
        <time>2019-04-11T23:08:06Z</time>
      </trkpt>
      <trkpt lat="42.09959" lon="2.43109">
        <ele>816.7</ele>
        <time>2019-04-11T23:08:07Z</time>
      </trkpt>
      <trkpt lat="42.09961" lon="2.4311">
        <ele>817</ele>
        <time>2019-04-11T23:08:08Z</time>
      </trkpt>
      <trkpt lat="42.09964" lon="2.4311">
        <ele>817.9</ele>
        <time>2019-04-11T23:08:09Z</time>
      </trkpt>
      <trkpt lat="42.09965" lon="2.43111">
        <ele>818.3</ele>
        <time>2019-04-11T23:08:09Z</time>
      </trkpt>
      <trkpt lat="42.09967" lon="2.4311">
        <ele>819</ele>
        <time>2019-04-11T23:08:10Z</time>
      </trkpt>
      <trkpt lat="42.09968" lon="2.4311">
        <ele>819.2</ele>
        <time>2019-04-11T23:08:11Z</time>
      </trkpt>
      <trkpt lat="42.09969" lon="2.43109">
        <ele>819.2</ele>
        <time>2019-04-11T23:08:11Z</time>
      </trkpt>
      <trkpt lat="42.09969" lon="2.4311">
        <ele>819</ele>
        <time>2019-04-11T23:08:11Z</time>
      </trkpt>
      <trkpt lat="42.09969" lon="2.43109">
        <ele>819</ele>
        <time>2019-04-11T23:08:11Z</time>
      </trkpt>
      <trkpt lat="42.0997" lon="2.43109">
        <ele>819</ele>
        <time>2019-04-11T23:08:11Z</time>
      </trkpt>
      <trkpt lat="42.09971" lon="2.43109">
        <ele>819.1</ele>
        <time>2019-04-11T23:08:12Z</time>
      </trkpt>
      <trkpt lat="42.09971" lon="2.43108">
        <ele>819.3</ele>
        <time>2019-04-11T23:08:12Z</time>
      </trkpt>
      <trkpt lat="42.09971" lon="2.43108">
        <ele>819.6</ele>
        <time>2019-04-11T23:08:12Z</time>
      </trkpt>
      <trkpt lat="42.09972" lon="2.43109">
        <ele>819.7</ele>
        <time>2019-04-11T23:08:12Z</time>
      </trkpt>
      <trkpt lat="42.09972" lon="2.43109">
        <ele>820</ele>
        <time>2019-04-11T23:08:12Z</time>
      </trkpt>
      <trkpt lat="42.09972" lon="2.4311">
        <ele>820</ele>
        <time>2019-04-11T23:08:13Z</time>
      </trkpt>
      <trkpt lat="42.09973" lon="2.43109">
        <ele>820.2</ele>
        <time>2019-04-11T23:08:13Z</time>
      </trkpt>
      <trkpt lat="42.09974" lon="2.43109">
        <ele>819.7</ele>
        <time>2019-04-11T23:08:13Z</time>
      </trkpt>
      <trkpt lat="42.09975" lon="2.43109">
        <ele>819.5</ele>
        <time>2019-04-11T23:08:14Z</time>
      </trkpt>
      <trkpt lat="42.09976" lon="2.43109">
        <ele>819.2</ele>
        <time>2019-04-11T23:08:14Z</time>
      </trkpt>
      <trkpt lat="42.09977" lon="2.43108">
        <ele>819</ele>
        <time>2019-04-11T23:08:14Z</time>
      </trkpt>
      <trkpt lat="42.09977" lon="2.43108">
        <ele>819.1</ele>
        <time>2019-04-11T23:08:15Z</time>
      </trkpt>
      <trkpt lat="42.09978" lon="2.43108">
        <ele>818.6</ele>
        <time>2019-04-11T23:08:15Z</time>
      </trkpt>
      <trkpt lat="42.09978" lon="2.43107">
        <ele>818.7</ele>
        <time>2019-04-11T23:08:15Z</time>
      </trkpt>
      <trkpt lat="42.09979" lon="2.43107">
        <ele>818.7</ele>
        <time>2019-04-11T23:08:16Z</time>
      </trkpt>
      <trkpt lat="42.09979" lon="2.43107">
        <ele>818.6</ele>
        <time>2019-04-11T23:08:16Z</time>
      </trkpt>
      <trkpt lat="42.09981" lon="2.43106">
        <ele>818</ele>
        <time>2019-04-11T23:08:17Z</time>
      </trkpt>
      <trkpt lat="42.09982" lon="2.43106">
        <ele>817.9</ele>
        <time>2019-04-11T23:08:17Z</time>
      </trkpt>
      <trkpt lat="42.09983" lon="2.43107">
        <ele>818</ele>
        <time>2019-04-11T23:08:17Z</time>
      </trkpt>
      <trkpt lat="42.09985" lon="2.43108">
        <ele>818.5</ele>
        <time>2019-04-11T23:08:18Z</time>
      </trkpt>
      <trkpt lat="42.09986" lon="2.43108">
        <ele>819</ele>
        <time>2019-04-11T23:08:19Z</time>
      </trkpt>
      <trkpt lat="42.09987" lon="2.43108">
        <ele>819.7</ele>
        <time>2019-04-11T23:08:19Z</time>
      </trkpt>
      <trkpt lat="42.09989" lon="2.43108">
        <ele>820.3</ele>
        <time>2019-04-11T23:08:20Z</time>
      </trkpt>
      <trkpt lat="42.0999" lon="2.43108">
        <ele>820.7</ele>
        <time>2019-04-11T23:08:20Z</time>
      </trkpt>
      <trkpt lat="42.09991" lon="2.43107">
        <ele>821.3</ele>
        <time>2019-04-11T23:08:21Z</time>
      </trkpt>
      <trkpt lat="42.09992" lon="2.43107">
        <ele>821.5</ele>
        <time>2019-04-11T23:08:21Z</time>
      </trkpt>
      <trkpt lat="42.09993" lon="2.43107">
        <ele>822</ele>
        <time>2019-04-11T23:08:21Z</time>
      </trkpt>
      <trkpt lat="42.09993" lon="2.43107">
        <ele>822</ele>
        <time>2019-04-11T23:08:22Z</time>
      </trkpt>
      <trkpt lat="42.09994" lon="2.43108">
        <ele>822.4</ele>
        <time>2019-04-11T23:08:22Z</time>
      </trkpt>
      <trkpt lat="42.09996" lon="2.43109">
        <ele>823.3</ele>
        <time>2019-04-11T23:08:23Z</time>
      </trkpt>
      <trkpt lat="42.09997" lon="2.4311">
        <ele>823.6</ele>
        <time>2019-04-11T23:08:23Z</time>
      </trkpt>
      <trkpt lat="42.09997" lon="2.43111">
        <ele>823.7</ele>
        <time>2019-04-11T23:08:24Z</time>
      </trkpt>
      <trkpt lat="42.09998" lon="2.43112">
        <ele>823.8</ele>
        <time>2019-04-11T23:08:24Z</time>
      </trkpt>
      <trkpt lat="42.09999" lon="2.43112">
        <ele>823.7</ele>
        <time>2019-04-11T23:08:24Z</time>
      </trkpt>
      <trkpt lat="42.1" lon="2.43113">
        <ele>823.9</ele>
        <time>2019-04-11T23:08:25Z</time>
      </trkpt>
      <trkpt lat="42.10003" lon="2.43113">
        <ele>824.2</ele>
        <time>2019-04-11T23:08:26Z</time>
      </trkpt>
      <trkpt lat="42.10004" lon="2.43113">
        <ele>824.3</ele>
        <time>2019-04-11T23:08:26Z</time>
      </trkpt>
      <trkpt lat="42.10005" lon="2.43113">
        <ele>824.4</ele>
        <time>2019-04-11T23:08:27Z</time>
      </trkpt>
      <trkpt lat="42.10006" lon="2.43114">
        <ele>824.7</ele>
        <time>2019-04-11T23:08:27Z</time>
      </trkpt>
      <trkpt lat="42.10006" lon="2.43114">
        <ele>825</ele>
        <time>2019-04-11T23:08:27Z</time>
      </trkpt>
      <trkpt lat="42.10007" lon="2.43115">
        <ele>825.4</ele>
        <time>2019-04-11T23:08:28Z</time>
      </trkpt>
      <trkpt lat="42.10008" lon="2.43116">
        <ele>825.9</ele>
        <time>2019-04-11T23:08:28Z</time>
      </trkpt>
      <trkpt lat="42.10009" lon="2.43116">
        <ele>826.5</ele>
        <time>2019-04-11T23:08:29Z</time>
      </trkpt>
      <trkpt lat="42.1001" lon="2.43116">
        <ele>827</ele>
        <time>2019-04-11T23:08:29Z</time>
      </trkpt>
      <trkpt lat="42.10011" lon="2.43115">
        <ele>827.3</ele>
        <time>2019-04-11T23:08:29Z</time>
      </trkpt>
      <trkpt lat="42.10012" lon="2.43116">
        <ele>827.5</ele>
        <time>2019-04-11T23:08:30Z</time>
      </trkpt>
      <trkpt lat="42.10013" lon="2.43117">
        <ele>828.2</ele>
        <time>2019-04-11T23:08:30Z</time>
      </trkpt>
      <trkpt lat="42.10014" lon="2.43118">
        <ele>828.6</ele>
        <time>2019-04-11T23:08:31Z</time>
      </trkpt>
      <trkpt lat="42.10015" lon="2.43118">
        <ele>829</ele>
        <time>2019-04-11T23:08:31Z</time>
      </trkpt>
      <trkpt lat="42.10016" lon="2.43119">
        <ele>829.5</ele>
        <time>2019-04-11T23:08:32Z</time>
      </trkpt>
      <trkpt lat="42.1002" lon="2.4312">
        <ele>830.7</ele>
        <time>2019-04-11T23:08:33Z</time>
      </trkpt>
      <trkpt lat="42.10021" lon="2.43121">
        <ele>830.9</ele>
        <time>2019-04-11T23:08:34Z</time>
      </trkpt>
      <trkpt lat="42.10022" lon="2.43121">
        <ele>831.3</ele>
        <time>2019-04-11T23:08:34Z</time>
      </trkpt>
      <trkpt lat="42.10023" lon="2.43122">
        <ele>831.3</ele>
        <time>2019-04-11T23:08:35Z</time>
      </trkpt>
      <trkpt lat="42.10024" lon="2.43123">
        <ele>831.4</ele>
        <time>2019-04-11T23:08:35Z</time>
      </trkpt>
      <trkpt lat="42.10025" lon="2.43124">
        <ele>831.8</ele>
        <time>2019-04-11T23:08:36Z</time>
      </trkpt>
      <trkpt lat="42.10025" lon="2.43125">
        <ele>832</ele>
        <time>2019-04-11T23:08:36Z</time>
      </trkpt>
      <trkpt lat="42.10027" lon="2.43126">
        <ele>832</ele>
        <time>2019-04-11T23:08:37Z</time>
      </trkpt>
      <trkpt lat="42.10029" lon="2.4313">
        <ele>831.8</ele>
        <time>2019-04-11T23:08:38Z</time>
      </trkpt>
      <trkpt lat="42.10029" lon="2.43131">
        <ele>831.6</ele>
        <time>2019-04-11T23:08:38Z</time>
      </trkpt>
      <trkpt lat="42.1003" lon="2.43132">
        <ele>831.4</ele>
        <time>2019-04-11T23:08:39Z</time>
      </trkpt>
      <trkpt lat="42.10031" lon="2.43133">
        <ele>831.2</ele>
        <time>2019-04-11T23:08:39Z</time>
      </trkpt>
      <trkpt lat="42.10033" lon="2.43135">
        <ele>831.6</ele>
        <time>2019-04-11T23:08:41Z</time>
      </trkpt>
      <trkpt lat="42.10034" lon="2.43135">
        <ele>831.8</ele>
        <time>2019-04-11T23:08:41Z</time>
      </trkpt>
      <trkpt lat="42.10035" lon="2.43136">
        <ele>832.1</ele>
        <time>2019-04-11T23:08:41Z</time>
      </trkpt>
      <trkpt lat="42.10036" lon="2.43136">
        <ele>832.8</ele>
        <time>2019-04-11T23:08:42Z</time>
      </trkpt>
      <trkpt lat="42.10037" lon="2.43137">
        <ele>833.2</ele>
        <time>2019-04-11T23:08:42Z</time>
      </trkpt>
      <trkpt lat="42.10039" lon="2.43137">
        <ele>833.7</ele>
        <time>2019-04-11T23:08:43Z</time>
      </trkpt>
      <trkpt lat="42.10039" lon="2.43139">
        <ele>834.3</ele>
        <time>2019-04-11T23:08:43Z</time>
      </trkpt>
      <trkpt lat="42.1004" lon="2.43139">
        <ele>834.7</ele>
        <time>2019-04-11T23:08:44Z</time>
      </trkpt>
      <trkpt lat="42.10041" lon="2.4314">
        <ele>835.6</ele>
        <time>2019-04-11T23:08:44Z</time>
      </trkpt>
      <trkpt lat="42.10042" lon="2.43141">
        <ele>836.5</ele>
        <time>2019-04-11T23:08:45Z</time>
      </trkpt>
      <trkpt lat="42.10043" lon="2.43141">
        <ele>837.4</ele>
        <time>2019-04-11T23:08:45Z</time>
      </trkpt>
      <trkpt lat="42.10044" lon="2.43141">
        <ele>838.3</ele>
        <time>2019-04-11T23:08:45Z</time>
      </trkpt>
      <trkpt lat="42.10045" lon="2.43141">
        <ele>839</ele>
        <time>2019-04-11T23:08:46Z</time>
      </trkpt>
      <trkpt lat="42.10046" lon="2.43142">
        <ele>839.6</ele>
        <time>2019-04-11T23:08:46Z</time>
      </trkpt>
      <trkpt lat="42.10046" lon="2.43142">
        <ele>840.2</ele>
        <time>2019-04-11T23:08:46Z</time>
      </trkpt>
      <trkpt lat="42.10046" lon="2.43142">
        <ele>840.5</ele>
        <time>2019-04-11T23:08:46Z</time>
      </trkpt>
      <trkpt lat="42.10047" lon="2.43143">
        <ele>841.1</ele>
        <time>2019-04-11T23:08:47Z</time>
      </trkpt>
      <trkpt lat="42.10047" lon="2.43144">
        <ele>841.6</ele>
        <time>2019-04-11T23:08:47Z</time>
      </trkpt>
      <trkpt lat="42.10048" lon="2.43145">
        <ele>842</ele>
        <time>2019-04-11T23:08:47Z</time>
      </trkpt>
      <trkpt lat="42.10051" lon="2.43144">
        <ele>842.6</ele>
        <time>2019-04-11T23:08:49Z</time>
      </trkpt>
      <trkpt lat="42.10054" lon="2.43145">
        <ele>842.2</ele>
        <time>2019-04-11T23:08:50Z</time>
      </trkpt>
      <trkpt lat="42.10055" lon="2.43145">
        <ele>842</ele>
        <time>2019-04-11T23:08:51Z</time>
      </trkpt>
      <trkpt lat="42.10056" lon="2.43146">
        <ele>841.2</ele>
        <time>2019-04-11T23:08:51Z</time>
      </trkpt>
      <trkpt lat="42.10057" lon="2.43146">
        <ele>840.5</ele>
        <time>2019-04-11T23:08:51Z</time>
      </trkpt>
      <trkpt lat="42.10058" lon="2.43145">
        <ele>839.8</ele>
        <time>2019-04-11T23:08:52Z</time>
      </trkpt>
      <trkpt lat="42.10059" lon="2.43145">
        <ele>838.9</ele>
        <time>2019-04-11T23:08:52Z</time>
      </trkpt>
      <trkpt lat="42.1006" lon="2.43145">
        <ele>838.4</ele>
        <time>2019-04-11T23:08:52Z</time>
      </trkpt>
      <trkpt lat="42.10061" lon="2.43146">
        <ele>838</ele>
        <time>2019-04-11T23:08:53Z</time>
      </trkpt>
      <trkpt lat="42.10062" lon="2.43146">
        <ele>837.6</ele>
        <time>2019-04-11T23:08:53Z</time>
      </trkpt>
      <trkpt lat="42.10062" lon="2.43146">
        <ele>837</ele>
        <time>2019-04-11T23:08:54Z</time>
      </trkpt>
      <trkpt lat="42.10063" lon="2.43146">
        <ele>836.7</ele>
        <time>2019-04-11T23:08:54Z</time>
      </trkpt>
      <trkpt lat="42.10064" lon="2.43147">
        <ele>836.2</ele>
        <time>2019-04-11T23:08:54Z</time>
      </trkpt>
      <trkpt lat="42.10064" lon="2.43148">
        <ele>835.9</ele>
        <time>2019-04-11T23:08:55Z</time>
      </trkpt>
      <trkpt lat="42.10065" lon="2.43149">
        <ele>835.4</ele>
        <time>2019-04-11T23:08:55Z</time>
      </trkpt>
      <trkpt lat="42.10066" lon="2.4315">
        <ele>835</ele>
        <time>2019-04-11T23:08:55Z</time>
      </trkpt>
      <trkpt lat="42.10066" lon="2.4315">
        <ele>834.7</ele>
        <time>2019-04-11T23:08:56Z</time>
      </trkpt>
      <trkpt lat="42.10067" lon="2.43151">
        <ele>834.6</ele>
        <time>2019-04-11T23:08:56Z</time>
      </trkpt>
      <trkpt lat="42.10068" lon="2.43151">
        <ele>834.1</ele>
        <time>2019-04-11T23:08:56Z</time>
      </trkpt>
      <trkpt lat="42.10068" lon="2.43151">
        <ele>833.5</ele>
        <time>2019-04-11T23:08:56Z</time>
      </trkpt>
      <trkpt lat="42.10069" lon="2.43152">
        <ele>833.3</ele>
        <time>2019-04-11T23:08:57Z</time>
      </trkpt>
      <trkpt lat="42.10069" lon="2.43153">
        <ele>833.1</ele>
        <time>2019-04-11T23:08:57Z</time>
      </trkpt>
      <trkpt lat="42.10069" lon="2.43155">
        <ele>832.5</ele>
        <time>2019-04-11T23:08:58Z</time>
      </trkpt>
      <trkpt lat="42.1007" lon="2.43157">
        <ele>832.5</ele>
        <time>2019-04-11T23:08:58Z</time>
      </trkpt>
      <trkpt lat="42.10071" lon="2.43158">
        <ele>832.7</ele>
        <time>2019-04-11T23:08:59Z</time>
      </trkpt>
      <trkpt lat="42.10072" lon="2.43159">
        <ele>832.8</ele>
        <time>2019-04-11T23:08:59Z</time>
      </trkpt>
      <trkpt lat="42.10072" lon="2.4316">
        <ele>833.1</ele>
        <time>2019-04-11T23:09:00Z</time>
      </trkpt>
      <trkpt lat="42.10073" lon="2.43161">
        <ele>833.6</ele>
        <time>2019-04-11T23:09:00Z</time>
      </trkpt>
      <trkpt lat="42.10075" lon="2.43162">
        <ele>834.1</ele>
        <time>2019-04-11T23:09:01Z</time>
      </trkpt>
      <trkpt lat="42.10078" lon="2.43163">
        <ele>835.6</ele>
        <time>2019-04-11T23:09:02Z</time>
      </trkpt>
      <trkpt lat="42.1008" lon="2.43163">
        <ele>836.4</ele>
        <time>2019-04-11T23:09:03Z</time>
      </trkpt>
      <trkpt lat="42.10081" lon="2.43162">
        <ele>837.5</ele>
        <time>2019-04-11T23:09:03Z</time>
      </trkpt>
      <trkpt lat="42.10081" lon="2.43162">
        <ele>838.6</ele>
        <time>2019-04-11T23:09:04Z</time>
      </trkpt>
      <trkpt lat="42.10082" lon="2.43161">
        <ele>839.5</ele>
        <time>2019-04-11T23:09:04Z</time>
      </trkpt>
      <trkpt lat="42.10083" lon="2.4316">
        <ele>840.2</ele>
        <time>2019-04-11T23:09:04Z</time>
      </trkpt>
      <trkpt lat="42.10084" lon="2.4316">
        <ele>840.5</ele>
        <time>2019-04-11T23:09:05Z</time>
      </trkpt>
      <trkpt lat="42.10085" lon="2.4316">
        <ele>840.9</ele>
        <time>2019-04-11T23:09:05Z</time>
      </trkpt>
      <trkpt lat="42.10085" lon="2.4316">
        <ele>841.5</ele>
        <time>2019-04-11T23:09:06Z</time>
      </trkpt>
      <trkpt lat="42.10086" lon="2.43161">
        <ele>842.2</ele>
        <time>2019-04-11T23:09:06Z</time>
      </trkpt>
      <trkpt lat="42.10087" lon="2.4316">
        <ele>842.7</ele>
        <time>2019-04-11T23:09:06Z</time>
      </trkpt>
      <trkpt lat="42.10088" lon="2.43159">
        <ele>843.3</ele>
        <time>2019-04-11T23:09:07Z</time>
      </trkpt>
      <trkpt lat="42.10088" lon="2.43158">
        <ele>843.6</ele>
        <time>2019-04-11T23:09:07Z</time>
      </trkpt>
      <trkpt lat="42.10088" lon="2.43157">
        <ele>844</ele>
        <time>2019-04-11T23:09:07Z</time>
      </trkpt>
      <trkpt lat="42.10088" lon="2.43157">
        <ele>844.4</ele>
        <time>2019-04-11T23:09:08Z</time>
      </trkpt>
      <trkpt lat="42.10089" lon="2.43157">
        <ele>844.7</ele>
        <time>2019-04-11T23:09:08Z</time>
      </trkpt>
      <trkpt lat="42.1009" lon="2.43156">
        <ele>845</ele>
        <time>2019-04-11T23:09:08Z</time>
      </trkpt>
      <trkpt lat="42.1009" lon="2.43156">
        <ele>845.5</ele>
        <time>2019-04-11T23:09:08Z</time>
      </trkpt>
      <trkpt lat="42.10091" lon="2.43156">
        <ele>845.9</ele>
        <time>2019-04-11T23:09:09Z</time>
      </trkpt>
      <trkpt lat="42.10091" lon="2.43155">
        <ele>846.3</ele>
        <time>2019-04-11T23:09:09Z</time>
      </trkpt>
      <trkpt lat="42.10092" lon="2.43155">
        <ele>846.7</ele>
        <time>2019-04-11T23:09:09Z</time>
      </trkpt>
      <trkpt lat="42.10092" lon="2.43153">
        <ele>847.1</ele>
        <time>2019-04-11T23:09:10Z</time>
      </trkpt>
      <trkpt lat="42.10092" lon="2.43152">
        <ele>847.6</ele>
        <time>2019-04-11T23:09:10Z</time>
      </trkpt>
      <trkpt lat="42.10092" lon="2.4315">
        <ele>847.8</ele>
        <time>2019-04-11T23:09:11Z</time>
      </trkpt>
      <trkpt lat="42.10093" lon="2.43149">
        <ele>848.1</ele>
        <time>2019-04-11T23:09:11Z</time>
      </trkpt>
      <trkpt lat="42.10093" lon="2.43148">
        <ele>848.2</ele>
        <time>2019-04-11T23:09:11Z</time>
      </trkpt>
      <trkpt lat="42.10093" lon="2.43147">
        <ele>848.6</ele>
        <time>2019-04-11T23:09:12Z</time>
      </trkpt>
      <trkpt lat="42.10092" lon="2.43146">
        <ele>848.7</ele>
        <time>2019-04-11T23:09:12Z</time>
      </trkpt>
      <trkpt lat="42.10092" lon="2.43145">
        <ele>849</ele>
        <time>2019-04-11T23:09:12Z</time>
      </trkpt>
      <trkpt lat="42.10092" lon="2.43144">
        <ele>849.3</ele>
        <time>2019-04-11T23:09:13Z</time>
      </trkpt>
      <trkpt lat="42.10092" lon="2.43143">
        <ele>849.6</ele>
        <time>2019-04-11T23:09:13Z</time>
      </trkpt>
      <trkpt lat="42.10092" lon="2.43142">
        <ele>850.1</ele>
        <time>2019-04-11T23:09:13Z</time>
      </trkpt>
      <trkpt lat="42.10091" lon="2.43141">
        <ele>850.8</ele>
        <time>2019-04-11T23:09:13Z</time>
      </trkpt>
      <trkpt lat="42.10091" lon="2.4314">
        <ele>851.4</ele>
        <time>2019-04-11T23:09:14Z</time>
      </trkpt>
      <trkpt lat="42.10091" lon="2.4314">
        <ele>852.1</ele>
        <time>2019-04-11T23:09:14Z</time>
      </trkpt>
      <trkpt lat="42.10091" lon="2.43139">
        <ele>852.8</ele>
        <time>2019-04-11T23:09:14Z</time>
      </trkpt>
      <trkpt lat="42.10091" lon="2.43138">
        <ele>853.5</ele>
        <time>2019-04-11T23:09:14Z</time>
      </trkpt>
      <trkpt lat="42.10091" lon="2.43137">
        <ele>854.1</ele>
        <time>2019-04-11T23:09:15Z</time>
      </trkpt>
      <trkpt lat="42.1009" lon="2.43136">
        <ele>854.7</ele>
        <time>2019-04-11T23:09:15Z</time>
      </trkpt>
      <trkpt lat="42.1009" lon="2.43136">
        <ele>855.2</ele>
        <time>2019-04-11T23:09:15Z</time>
      </trkpt>
      <trkpt lat="42.1009" lon="2.43135">
        <ele>855.5</ele>
        <time>2019-04-11T23:09:15Z</time>
      </trkpt>
      <trkpt lat="42.1009" lon="2.43135">
        <ele>856</ele>
        <time>2019-04-11T23:09:15Z</time>
      </trkpt>
      <trkpt lat="42.10091" lon="2.43136">
        <ele>856.3</ele>
        <time>2019-04-11T23:09:16Z</time>
      </trkpt>
      <trkpt lat="42.10091" lon="2.43137">
        <ele>856.6</ele>
        <time>2019-04-11T23:09:16Z</time>
      </trkpt>
      <trkpt lat="42.10092" lon="2.43136">
        <ele>856.5</ele>
        <time>2019-04-11T23:09:16Z</time>
      </trkpt>
      <trkpt lat="42.10092" lon="2.43135">
        <ele>856.7</ele>
        <time>2019-04-11T23:09:16Z</time>
      </trkpt>
      <trkpt lat="42.10092" lon="2.43134">
        <ele>857.1</ele>
        <time>2019-04-11T23:09:17Z</time>
      </trkpt>
      <trkpt lat="42.10092" lon="2.43134">
        <ele>857</ele>
        <time>2019-04-11T23:09:17Z</time>
      </trkpt>
      <trkpt lat="42.10093" lon="2.43133">
        <ele>857.5</ele>
        <time>2019-04-11T23:09:17Z</time>
      </trkpt>
      <trkpt lat="42.10093" lon="2.43132">
        <ele>857.7</ele>
        <time>2019-04-11T23:09:18Z</time>
      </trkpt>
      <trkpt lat="42.10093" lon="2.43132">
        <ele>858</ele>
        <time>2019-04-11T23:09:18Z</time>
      </trkpt>
      <trkpt lat="42.10093" lon="2.43131">
        <ele>858.5</ele>
        <time>2019-04-11T23:09:18Z</time>
      </trkpt>
      <trkpt lat="42.10093" lon="2.4313">
        <ele>858.7</ele>
        <time>2019-04-11T23:09:18Z</time>
      </trkpt>
      <trkpt lat="42.10094" lon="2.43129">
        <ele>859.3</ele>
        <time>2019-04-11T23:09:19Z</time>
      </trkpt>
      <trkpt lat="42.10094" lon="2.43129">
        <ele>859.8</ele>
        <time>2019-04-11T23:09:19Z</time>
      </trkpt>
      <trkpt lat="42.10095" lon="2.43129">
        <ele>860.2</ele>
        <time>2019-04-11T23:09:19Z</time>
      </trkpt>
      <trkpt lat="42.10095" lon="2.43128">
        <ele>860.8</ele>
        <time>2019-04-11T23:09:19Z</time>
      </trkpt>
      <trkpt lat="42.10094" lon="2.43129">
        <ele>861.6</ele>
        <time>2019-04-11T23:09:19Z</time>
      </trkpt>
      <trkpt lat="42.10095" lon="2.43129">
        <ele>862.2</ele>
        <time>2019-04-11T23:09:19Z</time>
      </trkpt>
      <trkpt lat="42.10095" lon="2.43129">
        <ele>862.7</ele>
        <time>2019-04-11T23:09:19Z</time>
      </trkpt>
      <trkpt lat="42.10095" lon="2.43129">
        <ele>863.2</ele>
        <time>2019-04-11T23:09:20Z</time>
      </trkpt>
      <trkpt lat="42.10094" lon="2.43128">
        <ele>863.5</ele>
        <time>2019-04-11T23:09:20Z</time>
      </trkpt>
      <trkpt lat="42.10094" lon="2.43129">
        <ele>864.1</ele>
        <time>2019-04-11T23:09:20Z</time>
      </trkpt>
      <trkpt lat="42.10094" lon="2.4313">
        <ele>864.6</ele>
        <time>2019-04-11T23:09:20Z</time>
      </trkpt>
      <trkpt lat="42.10095" lon="2.43129">
        <ele>865</ele>
        <time>2019-04-11T23:09:20Z</time>
      </trkpt>
      <trkpt lat="42.10095" lon="2.43129">
        <ele>865.1</ele>
        <time>2019-04-11T23:09:21Z</time>
      </trkpt>
      <trkpt lat="42.10096" lon="2.43128">
        <ele>865.1</ele>
        <time>2019-04-11T23:09:21Z</time>
      </trkpt>
      <trkpt lat="42.10096" lon="2.43128">
        <ele>865.2</ele>
        <time>2019-04-11T23:09:21Z</time>
      </trkpt>
      <trkpt lat="42.10096" lon="2.43127">
        <ele>865.7</ele>
        <time>2019-04-11T23:09:21Z</time>
      </trkpt>
      <trkpt lat="42.10097" lon="2.43126">
        <ele>866.3</ele>
        <time>2019-04-11T23:09:22Z</time>
      </trkpt>
      <trkpt lat="42.10098" lon="2.43125">
        <ele>866.9</ele>
        <time>2019-04-11T23:09:22Z</time>
      </trkpt>
      <trkpt lat="42.10098" lon="2.43126">
        <ele>867.9</ele>
        <time>2019-04-11T23:09:22Z</time>
      </trkpt>
      <trkpt lat="42.10098" lon="2.43126">
        <ele>869</ele>
        <time>2019-04-11T23:09:22Z</time>
      </trkpt>
      <trkpt lat="42.10098" lon="2.43126">
        <ele>869.7</ele>
        <time>2019-04-11T23:09:22Z</time>
      </trkpt>
      <trkpt lat="42.10097" lon="2.43126">
        <ele>870.8</ele>
        <time>2019-04-11T23:09:23Z</time>
      </trkpt>
      <trkpt lat="42.10097" lon="2.43125">
        <ele>871.6</ele>
        <time>2019-04-11T23:09:23Z</time>
      </trkpt>
      <trkpt lat="42.10097" lon="2.43125">
        <ele>872.5</ele>
        <time>2019-04-11T23:09:23Z</time>
      </trkpt>
      <trkpt lat="42.10096" lon="2.43126">
        <ele>873.5</ele>
        <time>2019-04-11T23:09:23Z</time>
      </trkpt>
      <trkpt lat="42.10096" lon="2.43126">
        <ele>874.2</ele>
        <time>2019-04-11T23:09:23Z</time>
      </trkpt>
      <trkpt lat="42.10096" lon="2.43126">
        <ele>874.9</ele>
        <time>2019-04-11T23:09:24Z</time>
      </trkpt>
      <trkpt lat="42.10097" lon="2.43125">
        <ele>875.7</ele>
        <time>2019-04-11T23:09:24Z</time>
      </trkpt>
      <trkpt lat="42.10097" lon="2.43125">
        <ele>876.5</ele>
        <time>2019-04-11T23:09:24Z</time>
      </trkpt>
      <trkpt lat="42.10097" lon="2.43125">
        <ele>877.2</ele>
        <time>2019-04-11T23:09:24Z</time>
      </trkpt>
      <trkpt lat="42.10099" lon="2.43124">
        <ele>879</ele>
        <time>2019-04-11T23:09:25Z</time>
      </trkpt>
      <trkpt lat="42.10099" lon="2.43124">
        <ele>880.2</ele>
        <time>2019-04-11T23:09:25Z</time>
      </trkpt>
      <trkpt lat="42.10099" lon="2.43124">
        <ele>881.5</ele>
        <time>2019-04-11T23:09:25Z</time>
      </trkpt>
      <trkpt lat="42.10099" lon="2.43124">
        <ele>882.5</ele>
        <time>2019-04-11T23:09:25Z</time>
      </trkpt>
      <trkpt lat="42.10099" lon="2.43123">
        <ele>883.8</ele>
        <time>2019-04-11T23:09:25Z</time>
      </trkpt>
      <trkpt lat="42.10098" lon="2.43123">
        <ele>885</ele>
        <time>2019-04-11T23:09:26Z</time>
      </trkpt>
      <trkpt lat="42.10097" lon="2.43122">
        <ele>886.3</ele>
        <time>2019-04-11T23:09:26Z</time>
      </trkpt>
      <trkpt lat="42.10097" lon="2.43122">
        <ele>887.5</ele>
        <time>2019-04-11T23:09:26Z</time>
      </trkpt>
      <trkpt lat="42.10096" lon="2.43121">
        <ele>889</ele>
        <time>2019-04-11T23:09:27Z</time>
      </trkpt>
      <trkpt lat="42.10096" lon="2.4312">
        <ele>890.5</ele>
        <time>2019-04-11T23:09:27Z</time>
      </trkpt>
      <trkpt lat="42.10095" lon="2.43119">
        <ele>892.7</ele>
        <time>2019-04-11T23:09:28Z</time>
      </trkpt>
      <trkpt lat="42.10095" lon="2.43118">
        <ele>893.9</ele>
        <time>2019-04-11T23:09:28Z</time>
      </trkpt>
      <trkpt lat="42.10094" lon="2.43118">
        <ele>894.9</ele>
        <time>2019-04-11T23:09:28Z</time>
      </trkpt>
      <trkpt lat="42.10095" lon="2.43118">
        <ele>895.6</ele>
        <time>2019-04-11T23:09:28Z</time>
      </trkpt>
      <trkpt lat="42.10095" lon="2.43118">
        <ele>896.3</ele>
        <time>2019-04-11T23:09:28Z</time>
      </trkpt>
      <trkpt lat="42.10095" lon="2.43118">
        <ele>896.6</ele>
        <time>2019-04-11T23:09:28Z</time>
      </trkpt>
      <trkpt lat="42.10095" lon="2.43118">
        <ele>897</ele>
        <time>2019-04-11T23:09:28Z</time>
      </trkpt>
      <trkpt lat="42.10095" lon="2.43118">
        <ele>897.1</ele>
        <time>2019-04-11T23:09:28Z</time>
      </trkpt>
      <trkpt lat="42.10096" lon="2.43118">
        <ele>897</ele>
        <time>2019-04-11T23:09:29Z</time>
      </trkpt>
      <trkpt lat="42.10097" lon="2.43117">
        <ele>896.8</ele>
        <time>2019-04-11T23:09:29Z</time>
      </trkpt>
      <trkpt lat="42.10098" lon="2.43118">
        <ele>896.1</ele>
        <time>2019-04-11T23:09:29Z</time>
      </trkpt>
      <trkpt lat="42.10098" lon="2.43118">
        <ele>895.5</ele>
        <time>2019-04-11T23:09:30Z</time>
      </trkpt>
      <trkpt lat="42.10099" lon="2.43118">
        <ele>895</ele>
        <time>2019-04-11T23:09:30Z</time>
      </trkpt>
      <trkpt lat="42.101" lon="2.43118">
        <ele>894.3</ele>
        <time>2019-04-11T23:09:31Z</time>
      </trkpt>
      <trkpt lat="42.10101" lon="2.43118">
        <ele>894</ele>
        <time>2019-04-11T23:09:31Z</time>
      </trkpt>
      <trkpt lat="42.10101" lon="2.43119">
        <ele>893.3</ele>
        <time>2019-04-11T23:09:31Z</time>
      </trkpt>
      <trkpt lat="42.10103" lon="2.4312">
        <ele>892.6</ele>
        <time>2019-04-11T23:09:32Z</time>
      </trkpt>
      <trkpt lat="42.10104" lon="2.4312">
        <ele>891.8</ele>
        <time>2019-04-11T23:09:32Z</time>
      </trkpt>
      <trkpt lat="42.10104" lon="2.4312">
        <ele>890.9</ele>
        <time>2019-04-11T23:09:32Z</time>
      </trkpt>
      <trkpt lat="42.10105" lon="2.4312">
        <ele>889.8</ele>
        <time>2019-04-11T23:09:32Z</time>
      </trkpt>
      <trkpt lat="42.10105" lon="2.4312">
        <ele>888.5</ele>
        <time>2019-04-11T23:09:33Z</time>
      </trkpt>
      <trkpt lat="42.10106" lon="2.43119">
        <ele>887.5</ele>
        <time>2019-04-11T23:09:33Z</time>
      </trkpt>
      <trkpt lat="42.10108" lon="2.43117">
        <ele>886.5</ele>
        <time>2019-04-11T23:09:34Z</time>
      </trkpt>
      <trkpt lat="42.10108" lon="2.43117">
        <ele>885.9</ele>
        <time>2019-04-11T23:09:34Z</time>
      </trkpt>
      <trkpt lat="42.10108" lon="2.43117">
        <ele>885.5</ele>
        <time>2019-04-11T23:09:34Z</time>
      </trkpt>
      <trkpt lat="42.10108" lon="2.43117">
        <ele>885.3</ele>
        <time>2019-04-11T23:09:34Z</time>
      </trkpt>
      <trkpt lat="42.10109" lon="2.43115">
        <ele>884.9</ele>
        <time>2019-04-11T23:09:35Z</time>
      </trkpt>
      <trkpt lat="42.10109" lon="2.43114">
        <ele>884.7</ele>
        <time>2019-04-11T23:09:35Z</time>
      </trkpt>
      <trkpt lat="42.10109" lon="2.43113">
        <ele>884.6</ele>
        <time>2019-04-11T23:09:36Z</time>
      </trkpt>
      <trkpt lat="42.1011" lon="2.43111">
        <ele>884.2</ele>
        <time>2019-04-11T23:09:36Z</time>
      </trkpt>
      <trkpt lat="42.10111" lon="2.43111">
        <ele>883.8</ele>
        <time>2019-04-11T23:09:37Z</time>
      </trkpt>
      <trkpt lat="42.10112" lon="2.4311">
        <ele>883.5</ele>
        <time>2019-04-11T23:09:37Z</time>
      </trkpt>
      <trkpt lat="42.10113" lon="2.43109">
        <ele>883.3</ele>
        <time>2019-04-11T23:09:37Z</time>
      </trkpt>
      <trkpt lat="42.10113" lon="2.43109">
        <ele>882.5</ele>
        <time>2019-04-11T23:09:38Z</time>
      </trkpt>
      <trkpt lat="42.10114" lon="2.43108">
        <ele>881.9</ele>
        <time>2019-04-11T23:09:38Z</time>
      </trkpt>
      <trkpt lat="42.10115" lon="2.43107">
        <ele>881.3</ele>
        <time>2019-04-11T23:09:39Z</time>
      </trkpt>
      <trkpt lat="42.10116" lon="2.43105">
        <ele>880.7</ele>
        <time>2019-04-11T23:09:39Z</time>
      </trkpt>
      <trkpt lat="42.10116" lon="2.43105">
        <ele>880.7</ele>
        <time>2019-04-11T23:09:39Z</time>
      </trkpt>
      <trkpt lat="42.10116" lon="2.43106">
        <ele>880.9</ele>
        <time>2019-04-11T23:09:39Z</time>
      </trkpt>
      <trkpt lat="42.10115" lon="2.43106">
        <ele>881</ele>
        <time>2019-04-11T23:09:39Z</time>
      </trkpt>
      <trkpt lat="42.10116" lon="2.43106">
        <ele>881.1</ele>
        <time>2019-04-11T23:09:40Z</time>
      </trkpt>
      <trkpt lat="42.10116" lon="2.43107">
        <ele>881</ele>
        <time>2019-04-11T23:09:40Z</time>
      </trkpt>
      <trkpt lat="42.10116" lon="2.43107">
        <ele>880.8</ele>
        <time>2019-04-11T23:09:40Z</time>
      </trkpt>
      <trkpt lat="42.10117" lon="2.43107">
        <ele>881</ele>
        <time>2019-04-11T23:09:40Z</time>
      </trkpt>
      <trkpt lat="42.10117" lon="2.43108">
        <ele>881.5</ele>
        <time>2019-04-11T23:09:41Z</time>
      </trkpt>
      <trkpt lat="42.10117" lon="2.43108">
        <ele>882</ele>
        <time>2019-04-11T23:09:41Z</time>
      </trkpt>
      <trkpt lat="42.10117" lon="2.43109">
        <ele>882.5</ele>
        <time>2019-04-11T23:09:41Z</time>
      </trkpt>
      <trkpt lat="42.10117" lon="2.4311">
        <ele>882.8</ele>
        <time>2019-04-11T23:09:41Z</time>
      </trkpt>
      <trkpt lat="42.10117" lon="2.43111">
        <ele>883.3</ele>
        <time>2019-04-11T23:09:42Z</time>
      </trkpt>
      <trkpt lat="42.10117" lon="2.43111">
        <ele>884</ele>
        <time>2019-04-11T23:09:42Z</time>
      </trkpt>
      <trkpt lat="42.10116" lon="2.43111">
        <ele>884.5</ele>
        <time>2019-04-11T23:09:42Z</time>
      </trkpt>
      <trkpt lat="42.10116" lon="2.43111">
        <ele>885.2</ele>
        <time>2019-04-11T23:09:42Z</time>
      </trkpt>
      <trkpt lat="42.10115" lon="2.43112">
        <ele>886.1</ele>
        <time>2019-04-11T23:09:42Z</time>
      </trkpt>
      <trkpt lat="42.10114" lon="2.43112">
        <ele>886.8</ele>
        <time>2019-04-11T23:09:43Z</time>
      </trkpt>
      <trkpt lat="42.10114" lon="2.43113">
        <ele>887.4</ele>
        <time>2019-04-11T23:09:43Z</time>
      </trkpt>
      <trkpt lat="42.10113" lon="2.43113">
        <ele>887.7</ele>
        <time>2019-04-11T23:09:43Z</time>
      </trkpt>
      <trkpt lat="42.10113" lon="2.43113">
        <ele>887.9</ele>
        <time>2019-04-11T23:09:44Z</time>
      </trkpt>
      <trkpt lat="42.10113" lon="2.43113">
        <ele>888</ele>
        <time>2019-04-11T23:09:44Z</time>
      </trkpt>
      <trkpt lat="42.10113" lon="2.43112">
        <ele>888</ele>
        <time>2019-04-11T23:09:44Z</time>
      </trkpt>
      <trkpt lat="42.10113" lon="2.43111">
        <ele>887.8</ele>
        <time>2019-04-11T23:09:44Z</time>
      </trkpt>
      <trkpt lat="42.10113" lon="2.4311">
        <ele>887.4</ele>
        <time>2019-04-11T23:09:44Z</time>
      </trkpt>
      <trkpt lat="42.10113" lon="2.4311">
        <ele>887</ele>
        <time>2019-04-11T23:09:44Z</time>
      </trkpt>
      <trkpt lat="42.10113" lon="2.43111">
        <ele>886.6</ele>
        <time>2019-04-11T23:09:45Z</time>
      </trkpt>
      <trkpt lat="42.10114" lon="2.4311">
        <ele>885.8</ele>
        <time>2019-04-11T23:09:45Z</time>
      </trkpt>
      <trkpt lat="42.10114" lon="2.43109">
        <ele>885.1</ele>
        <time>2019-04-11T23:09:45Z</time>
      </trkpt>
      <trkpt lat="42.10114" lon="2.43108">
        <ele>884.4</ele>
        <time>2019-04-11T23:09:46Z</time>
      </trkpt>
      <trkpt lat="42.10114" lon="2.43107">
        <ele>883.7</ele>
        <time>2019-04-11T23:09:46Z</time>
      </trkpt>
      <trkpt lat="42.10114" lon="2.43107">
        <ele>883.2</ele>
        <time>2019-04-11T23:09:46Z</time>
      </trkpt>
      <trkpt lat="42.10111" lon="2.43107">
        <ele>881.5</ele>
        <time>2019-04-11T23:09:47Z</time>
      </trkpt>
      <trkpt lat="42.10111" lon="2.43109">
        <ele>881.2</ele>
        <time>2019-04-11T23:09:47Z</time>
      </trkpt>
      <trkpt lat="42.10111" lon="2.43109">
        <ele>881</ele>
        <time>2019-04-11T23:09:48Z</time>
      </trkpt>
      <trkpt lat="42.1011" lon="2.4311">
        <ele>880.7</ele>
        <time>2019-04-11T23:09:48Z</time>
      </trkpt>
      <trkpt lat="42.1011" lon="2.43108">
        <ele>880.5</ele>
        <time>2019-04-11T23:09:48Z</time>
      </trkpt>
      <trkpt lat="42.10109" lon="2.43107">
        <ele>880.5</ele>
        <time>2019-04-11T23:09:49Z</time>
      </trkpt>
      <trkpt lat="42.10109" lon="2.43107">
        <ele>880.5</ele>
        <time>2019-04-11T23:09:49Z</time>
      </trkpt>
      <trkpt lat="42.10107" lon="2.4311">
        <ele>879.8</ele>
        <time>2019-04-11T23:09:50Z</time>
      </trkpt>
      <trkpt lat="42.10106" lon="2.4311">
        <ele>879.5</ele>
        <time>2019-04-11T23:09:50Z</time>
      </trkpt>
      <trkpt lat="42.10106" lon="2.4311">
        <ele>879.7</ele>
        <time>2019-04-11T23:09:50Z</time>
      </trkpt>
      <trkpt lat="42.10106" lon="2.4311">
        <ele>879.9</ele>
        <time>2019-04-11T23:09:50Z</time>
      </trkpt>
      <trkpt lat="42.10106" lon="2.4311">
        <ele>880.1</ele>
        <time>2019-04-11T23:09:50Z</time>
      </trkpt>
      <trkpt lat="42.10106" lon="2.4311">
        <ele>880.1</ele>
        <time>2019-04-11T23:09:51Z</time>
      </trkpt>
      <trkpt lat="42.10106" lon="2.4311">
        <ele>880.2</ele>
        <time>2019-04-11T23:09:51Z</time>
      </trkpt>
      <trkpt lat="42.10106" lon="2.4311">
        <ele>880.3</ele>
        <time>2019-04-11T23:09:51Z</time>
      </trkpt>
      <trkpt lat="42.10106" lon="2.4311">
        <ele>880.4</ele>
        <time>2019-04-11T23:09:51Z</time>
      </trkpt>
      <trkpt lat="42.10106" lon="2.4311">
        <ele>880.4</ele>
        <time>2019-04-11T23:09:51Z</time>
      </trkpt>
      <trkpt lat="42.10106" lon="2.43109">
        <ele>880.6</ele>
        <time>2019-04-11T23:09:51Z</time>
      </trkpt>
      <trkpt lat="42.10106" lon="2.43109">
        <ele>880.4</ele>
        <time>2019-04-11T23:09:51Z</time>
      </trkpt>
      <trkpt lat="42.10106" lon="2.43109">
        <ele>880.4</ele>
        <time>2019-04-11T23:09:51Z</time>
      </trkpt>
      <trkpt lat="42.10106" lon="2.43109">
        <ele>880.4</ele>
        <time>2019-04-11T23:09:51Z</time>
      </trkpt>
      <trkpt lat="42.10106" lon="2.43109">
        <ele>880.2</ele>
        <time>2019-04-11T23:09:51Z</time>
      </trkpt>
      <trkpt lat="42.10106" lon="2.43108">
        <ele>880.1</ele>
        <time>2019-04-11T23:09:51Z</time>
      </trkpt>
      <trkpt lat="42.10106" lon="2.43108">
        <ele>879.8</ele>
        <time>2019-04-11T23:09:51Z</time>
      </trkpt>
      <trkpt lat="42.10106" lon="2.43108">
        <ele>879.8</ele>
        <time>2019-04-11T23:09:51Z</time>
      </trkpt>
      <trkpt lat="42.10107" lon="2.43108">
        <ele>879.3</ele>
        <time>2019-04-11T23:09:52Z</time>
      </trkpt>
      <trkpt lat="42.10107" lon="2.43108">
        <ele>879.1</ele>
        <time>2019-04-11T23:09:52Z</time>
      </trkpt>
      <trkpt lat="42.10108" lon="2.43108">
        <ele>878.2</ele>
        <time>2019-04-11T23:09:52Z</time>
      </trkpt>
      <trkpt lat="42.10108" lon="2.43108">
        <ele>878.1</ele>
        <time>2019-04-11T23:09:52Z</time>
      </trkpt>
      <trkpt lat="42.10108" lon="2.43108">
        <ele>878.1</ele>
        <time>2019-04-11T23:09:52Z</time>
      </trkpt>
      <trkpt lat="42.10108" lon="2.43108">
        <ele>878.1</ele>
        <time>2019-04-11T23:09:52Z</time>
      </trkpt>
      <trkpt lat="42.10109" lon="2.43108">
        <ele>877.9</ele>
        <time>2019-04-11T23:09:53Z</time>
      </trkpt>
      <trkpt lat="42.10109" lon="2.43109">
        <ele>878</ele>
        <time>2019-04-11T23:09:53Z</time>
      </trkpt>
      <trkpt lat="42.10109" lon="2.43109">
        <ele>878.2</ele>
        <time>2019-04-11T23:09:53Z</time>
      </trkpt>
      <trkpt lat="42.10109" lon="2.43109">
        <ele>878.7</ele>
        <time>2019-04-11T23:09:53Z</time>
      </trkpt>
      <trkpt lat="42.10109" lon="2.43109">
        <ele>879.1</ele>
        <time>2019-04-11T23:09:53Z</time>
      </trkpt>
      <trkpt lat="42.10109" lon="2.43109">
        <ele>879.5</ele>
        <time>2019-04-11T23:09:53Z</time>
      </trkpt>
      <trkpt lat="42.10109" lon="2.43108">
        <ele>879.7</ele>
        <time>2019-04-11T23:09:53Z</time>
      </trkpt>
      <trkpt lat="42.10109" lon="2.43108">
        <ele>880.2</ele>
        <time>2019-04-11T23:09:53Z</time>
      </trkpt>
      <trkpt lat="42.10109" lon="2.43108">
        <ele>880.5</ele>
        <time>2019-04-11T23:09:53Z</time>
      </trkpt>
      <trkpt lat="42.10108" lon="2.43108">
        <ele>880.9</ele>
        <time>2019-04-11T23:09:53Z</time>
      </trkpt>
      <trkpt lat="42.10108" lon="2.43109">
        <ele>881</ele>
        <time>2019-04-11T23:09:54Z</time>
      </trkpt>
      <trkpt lat="42.10108" lon="2.43109">
        <ele>881.2</ele>
        <time>2019-04-11T23:09:54Z</time>
      </trkpt>
      <trkpt lat="42.10108" lon="2.4311">
        <ele>881.5</ele>
        <time>2019-04-11T23:09:54Z</time>
      </trkpt>
      <trkpt lat="42.10108" lon="2.43109">
        <ele>881.9</ele>
        <time>2019-04-11T23:09:54Z</time>
      </trkpt>
      <trkpt lat="42.10108" lon="2.43109">
        <ele>882.2</ele>
        <time>2019-04-11T23:09:54Z</time>
      </trkpt>
      <trkpt lat="42.10107" lon="2.4311">
        <ele>882.8</ele>
        <time>2019-04-11T23:09:54Z</time>
      </trkpt>
      <trkpt lat="42.10107" lon="2.4311">
        <ele>883.3</ele>
        <time>2019-04-11T23:09:54Z</time>
      </trkpt>
      <trkpt lat="42.10106" lon="2.4311">
        <ele>883.8</ele>
        <time>2019-04-11T23:09:55Z</time>
      </trkpt>
      <trkpt lat="42.10106" lon="2.4311">
        <ele>884.2</ele>
        <time>2019-04-11T23:09:55Z</time>
      </trkpt>
      <trkpt lat="42.10106" lon="2.4311">
        <ele>885</ele>
        <time>2019-04-11T23:09:55Z</time>
      </trkpt>
      <trkpt lat="42.10105" lon="2.4311">
        <ele>885.8</ele>
        <time>2019-04-11T23:09:55Z</time>
      </trkpt>
      <trkpt lat="42.10105" lon="2.4311">
        <ele>886.3</ele>
        <time>2019-04-11T23:09:55Z</time>
      </trkpt>
      <trkpt lat="42.10104" lon="2.4311">
        <ele>886.7</ele>
        <time>2019-04-11T23:09:56Z</time>
      </trkpt>
      <trkpt lat="42.10104" lon="2.4311">
        <ele>887</ele>
        <time>2019-04-11T23:09:56Z</time>
      </trkpt>
      <trkpt lat="42.10104" lon="2.43109">
        <ele>887.4</ele>
        <time>2019-04-11T23:09:56Z</time>
      </trkpt>
      <trkpt lat="42.10104" lon="2.43109">
        <ele>887.8</ele>
        <time>2019-04-11T23:09:56Z</time>
      </trkpt>
      <trkpt lat="42.10104" lon="2.43109">
        <ele>888.1</ele>
        <time>2019-04-11T23:09:56Z</time>
      </trkpt>
      <trkpt lat="42.10104" lon="2.43109">
        <ele>888.2</ele>
        <time>2019-04-11T23:09:56Z</time>
      </trkpt>
      <trkpt lat="42.10104" lon="2.43109">
        <ele>888.5</ele>
        <time>2019-04-11T23:09:56Z</time>
      </trkpt>
      <trkpt lat="42.10104" lon="2.43109">
        <ele>888.7</ele>
        <time>2019-04-11T23:09:56Z</time>
      </trkpt>
      <trkpt lat="42.10104" lon="2.43109">
        <ele>888.7</ele>
        <time>2019-04-11T23:09:56Z</time>
      </trkpt>
      <trkpt lat="42.10105" lon="2.43109">
        <ele>888.6</ele>
        <time>2019-04-11T23:09:57Z</time>
      </trkpt>
      <trkpt lat="42.10105" lon="2.43109">
        <ele>888.5</ele>
        <time>2019-04-11T23:09:57Z</time>
      </trkpt>
      <trkpt lat="42.10106" lon="2.43109">
        <ele>888.5</ele>
        <time>2019-04-11T23:09:57Z</time>
      </trkpt>
      <trkpt lat="42.10106" lon="2.43109">
        <ele>888.5</ele>
        <time>2019-04-11T23:09:57Z</time>
      </trkpt>
      <trkpt lat="42.10107" lon="2.43108">
        <ele>888.6</ele>
        <time>2019-04-11T23:09:58Z</time>
      </trkpt>
      <trkpt lat="42.10107" lon="2.43107">
        <ele>888.7</ele>
        <time>2019-04-11T23:09:58Z</time>
      </trkpt>
      <trkpt lat="42.10107" lon="2.43107">
        <ele>888.9</ele>
        <time>2019-04-11T23:09:58Z</time>
      </trkpt>
      <trkpt lat="42.10107" lon="2.43107">
        <ele>888.7</ele>
        <time>2019-04-11T23:09:58Z</time>
      </trkpt>
      <trkpt lat="42.10107" lon="2.43108">
        <ele>888.9</ele>
        <time>2019-04-11T23:09:59Z</time>
      </trkpt>
      <trkpt lat="42.10107" lon="2.43108">
        <ele>889.5</ele>
        <time>2019-04-11T23:09:59Z</time>
      </trkpt>
      <trkpt lat="42.10107" lon="2.43107">
        <ele>889.6</ele>
        <time>2019-04-11T23:09:59Z</time>
      </trkpt>
      <trkpt lat="42.10107" lon="2.43107">
        <ele>889.5</ele>
        <time>2019-04-11T23:09:59Z</time>
      </trkpt>
      <trkpt lat="42.10107" lon="2.43107">
        <ele>889.4</ele>
        <time>2019-04-11T23:09:59Z</time>
      </trkpt>
      <trkpt lat="42.10108" lon="2.43107">
        <ele>889.2</ele>
        <time>2019-04-11T23:09:59Z</time>
      </trkpt>
      <trkpt lat="42.10108" lon="2.43107">
        <ele>889</ele>
        <time>2019-04-11T23:09:59Z</time>
      </trkpt>
      <trkpt lat="42.10108" lon="2.43106">
        <ele>888.5</ele>
        <time>2019-04-11T23:10:00Z</time>
      </trkpt>
      <trkpt lat="42.10108" lon="2.43105">
        <ele>888</ele>
        <time>2019-04-11T23:10:00Z</time>
      </trkpt>
      <trkpt lat="42.10109" lon="2.43103">
        <ele>887.5</ele>
        <time>2019-04-11T23:10:01Z</time>
      </trkpt>
      <trkpt lat="42.10109" lon="2.43103">
        <ele>887.5</ele>
        <time>2019-04-11T23:10:01Z</time>
      </trkpt>
      <trkpt lat="42.1011" lon="2.43106">
        <ele>888.7</ele>
        <time>2019-04-11T23:10:02Z</time>
      </trkpt>
      <trkpt lat="42.1011" lon="2.43107">
        <ele>889.3</ele>
        <time>2019-04-11T23:10:02Z</time>
      </trkpt>
      <trkpt lat="42.1011" lon="2.43106">
        <ele>889.2</ele>
        <time>2019-04-11T23:10:02Z</time>
      </trkpt>
      <trkpt lat="42.1011" lon="2.43106">
        <ele>889.2</ele>
        <time>2019-04-11T23:10:02Z</time>
      </trkpt>
      <trkpt lat="42.1011" lon="2.43106">
        <ele>889.3</ele>
        <time>2019-04-11T23:10:03Z</time>
      </trkpt>
      <trkpt lat="42.10111" lon="2.43106">
        <ele>889.2</ele>
        <time>2019-04-11T23:10:03Z</time>
      </trkpt>
      <trkpt lat="42.10111" lon="2.43107">
        <ele>889.5</ele>
        <time>2019-04-11T23:10:03Z</time>
      </trkpt>
      <trkpt lat="42.10111" lon="2.43107">
        <ele>889.8</ele>
        <time>2019-04-11T23:10:03Z</time>
      </trkpt>
      <trkpt lat="42.10111" lon="2.43108">
        <ele>889.8</ele>
        <time>2019-04-11T23:10:03Z</time>
      </trkpt>
      <trkpt lat="42.10112" lon="2.43109">
        <ele>889.5</ele>
        <time>2019-04-11T23:10:04Z</time>
      </trkpt>
      <trkpt lat="42.10112" lon="2.43109">
        <ele>889.7</ele>
        <time>2019-04-11T23:10:04Z</time>
      </trkpt>
      <trkpt lat="42.10111" lon="2.43108">
        <ele>889.3</ele>
        <time>2019-04-11T23:10:04Z</time>
      </trkpt>
      <trkpt lat="42.10111" lon="2.43107">
        <ele>888.8</ele>
        <time>2019-04-11T23:10:05Z</time>
      </trkpt>
      <trkpt lat="42.10111" lon="2.43106">
        <ele>888.6</ele>
        <time>2019-04-11T23:10:05Z</time>
      </trkpt>
      <trkpt lat="42.10111" lon="2.43106">
        <ele>888.7</ele>
        <time>2019-04-11T23:10:05Z</time>
      </trkpt>
      <trkpt lat="42.10113" lon="2.43106">
        <ele>888.8</ele>
        <time>2019-04-11T23:10:05Z</time>
      </trkpt>
      <trkpt lat="42.10113" lon="2.43105">
        <ele>888.9</ele>
        <time>2019-04-11T23:10:06Z</time>
      </trkpt>
      <trkpt lat="42.10113" lon="2.43105">
        <ele>889</ele>
        <time>2019-04-11T23:10:06Z</time>
      </trkpt>
      <trkpt lat="42.10113" lon="2.43105">
        <ele>889</ele>
        <time>2019-04-11T23:10:06Z</time>
      </trkpt>
      <trkpt lat="42.10114" lon="2.43105">
        <ele>888.2</ele>
        <time>2019-04-11T23:10:06Z</time>
      </trkpt>
      <trkpt lat="42.10114" lon="2.43105">
        <ele>887.6</ele>
        <time>2019-04-11T23:10:06Z</time>
      </trkpt>
      <trkpt lat="42.10115" lon="2.43105">
        <ele>887.1</ele>
        <time>2019-04-11T23:10:07Z</time>
      </trkpt>
      <trkpt lat="42.10115" lon="2.43106">
        <ele>886.7</ele>
        <time>2019-04-11T23:10:07Z</time>
      </trkpt>
      <trkpt lat="42.10115" lon="2.43107">
        <ele>886.5</ele>
        <time>2019-04-11T23:10:07Z</time>
      </trkpt>
      <trkpt lat="42.10115" lon="2.43107">
        <ele>886.6</ele>
        <time>2019-04-11T23:10:07Z</time>
      </trkpt>
      <trkpt lat="42.10115" lon="2.43109">
        <ele>886.7</ele>
        <time>2019-04-11T23:10:08Z</time>
      </trkpt>
      <trkpt lat="42.10114" lon="2.4311">
        <ele>887.5</ele>
        <time>2019-04-11T23:10:08Z</time>
      </trkpt>
      <trkpt lat="42.10114" lon="2.43111">
        <ele>888.2</ele>
        <time>2019-04-11T23:10:09Z</time>
      </trkpt>
      <trkpt lat="42.10117" lon="2.43113">
        <ele>889</ele>
        <time>2019-04-11T23:10:10Z</time>
      </trkpt>
      <trkpt lat="42.10118" lon="2.43114">
        <ele>889.2</ele>
        <time>2019-04-11T23:10:10Z</time>
      </trkpt>
      <trkpt lat="42.10118" lon="2.43116">
        <ele>890.1</ele>
        <time>2019-04-11T23:10:11Z</time>
      </trkpt>
      <trkpt lat="42.10117" lon="2.43117">
        <ele>891.3</ele>
        <time>2019-04-11T23:10:11Z</time>
      </trkpt>
      <trkpt lat="42.10116" lon="2.43118">
        <ele>892.2</ele>
        <time>2019-04-11T23:10:11Z</time>
      </trkpt>
      <trkpt lat="42.10116" lon="2.43118">
        <ele>893.3</ele>
        <time>2019-04-11T23:10:12Z</time>
      </trkpt>
      <trkpt lat="42.10115" lon="2.43119">
        <ele>894</ele>
        <time>2019-04-11T23:10:12Z</time>
      </trkpt>
      <trkpt lat="42.10115" lon="2.4312">
        <ele>895.3</ele>
        <time>2019-04-11T23:10:12Z</time>
      </trkpt>
      <trkpt lat="42.10115" lon="2.43122">
        <ele>896</ele>
        <time>2019-04-11T23:10:13Z</time>
      </trkpt>
      <trkpt lat="42.10114" lon="2.43123">
        <ele>896.8</ele>
        <time>2019-04-11T23:10:13Z</time>
      </trkpt>
      <trkpt lat="42.10114" lon="2.43124">
        <ele>897.4</ele>
        <time>2019-04-11T23:10:14Z</time>
      </trkpt>
      <trkpt lat="42.10113" lon="2.43125">
        <ele>898</ele>
        <time>2019-04-11T23:10:14Z</time>
      </trkpt>
      <trkpt lat="42.10112" lon="2.43125">
        <ele>898.8</ele>
        <time>2019-04-11T23:10:14Z</time>
      </trkpt>
      <trkpt lat="42.10112" lon="2.43125">
        <ele>899.3</ele>
        <time>2019-04-11T23:10:15Z</time>
      </trkpt>
      <trkpt lat="42.10111" lon="2.43126">
        <ele>899.3</ele>
        <time>2019-04-11T23:10:15Z</time>
      </trkpt>
      <trkpt lat="42.10111" lon="2.43126">
        <ele>899.5</ele>
        <time>2019-04-11T23:10:15Z</time>
      </trkpt>
      <trkpt lat="42.10111" lon="2.43126">
        <ele>899.7</ele>
        <time>2019-04-11T23:10:15Z</time>
      </trkpt>
      <trkpt lat="42.10111" lon="2.43127">
        <ele>900.1</ele>
        <time>2019-04-11T23:10:15Z</time>
      </trkpt>
      <trkpt lat="42.10112" lon="2.43127">
        <ele>900.2</ele>
        <time>2019-04-11T23:10:16Z</time>
      </trkpt>
      <trkpt lat="42.10112" lon="2.43128">
        <ele>900.4</ele>
        <time>2019-04-11T23:10:16Z</time>
      </trkpt>
      <trkpt lat="42.10112" lon="2.43129">
        <ele>900.6</ele>
        <time>2019-04-11T23:10:16Z</time>
      </trkpt>
      <trkpt lat="42.10112" lon="2.43129">
        <ele>900.7</ele>
        <time>2019-04-11T23:10:16Z</time>
      </trkpt>
      <trkpt lat="42.10112" lon="2.4313">
        <ele>900.9</ele>
        <time>2019-04-11T23:10:17Z</time>
      </trkpt>
      <trkpt lat="42.10113" lon="2.4313">
        <ele>901</ele>
        <time>2019-04-11T23:10:17Z</time>
      </trkpt>
      <trkpt lat="42.10113" lon="2.4313">
        <ele>901.2</ele>
        <time>2019-04-11T23:10:17Z</time>
      </trkpt>
      <trkpt lat="42.10113" lon="2.4313">
        <ele>901.3</ele>
        <time>2019-04-11T23:10:17Z</time>
      </trkpt>
      <trkpt lat="42.10113" lon="2.4313">
        <ele>901</ele>
        <time>2019-04-11T23:10:17Z</time>
      </trkpt>
      <trkpt lat="42.10113" lon="2.4313">
        <ele>901.1</ele>
        <time>2019-04-11T23:10:17Z</time>
      </trkpt>
      <trkpt lat="42.10113" lon="2.43132">
        <ele>900.8</ele>
        <time>2019-04-11T23:10:18Z</time>
      </trkpt>
      <trkpt lat="42.10114" lon="2.43132">
        <ele>900.6</ele>
        <time>2019-04-11T23:10:18Z</time>
      </trkpt>
      <trkpt lat="42.10114" lon="2.43132">
        <ele>900</ele>
        <time>2019-04-11T23:10:18Z</time>
      </trkpt>
      <trkpt lat="42.10115" lon="2.43131">
        <ele>899.6</ele>
        <time>2019-04-11T23:10:18Z</time>
      </trkpt>
      <trkpt lat="42.10115" lon="2.43131">
        <ele>898.7</ele>
        <time>2019-04-11T23:10:18Z</time>
      </trkpt>
      <trkpt lat="42.10116" lon="2.4313">
        <ele>898</ele>
        <time>2019-04-11T23:10:19Z</time>
      </trkpt>
      <trkpt lat="42.10115" lon="2.43127">
        <ele>896.7</ele>
        <time>2019-04-11T23:10:20Z</time>
      </trkpt>
      <trkpt lat="42.10115" lon="2.43125">
        <ele>896.1</ele>
        <time>2019-04-11T23:10:20Z</time>
      </trkpt>
      <trkpt lat="42.10116" lon="2.43125">
        <ele>895.2</ele>
        <time>2019-04-11T23:10:21Z</time>
      </trkpt>
      <trkpt lat="42.10118" lon="2.43125">
        <ele>893.6</ele>
        <time>2019-04-11T23:10:22Z</time>
      </trkpt>
      <trkpt lat="42.1012" lon="2.43122">
        <ele>891.7</ele>
        <time>2019-04-11T23:10:23Z</time>
      </trkpt>
      <trkpt lat="42.1012" lon="2.43122">
        <ele>890.7</ele>
        <time>2019-04-11T23:10:23Z</time>
      </trkpt>
      <trkpt lat="42.10121" lon="2.43122">
        <ele>890.6</ele>
        <time>2019-04-11T23:10:23Z</time>
      </trkpt>
      <trkpt lat="42.10121" lon="2.43123">
        <ele>890.6</ele>
        <time>2019-04-11T23:10:23Z</time>
      </trkpt>
      <trkpt lat="42.10121" lon="2.43122">
        <ele>890.8</ele>
        <time>2019-04-11T23:10:23Z</time>
      </trkpt>
      <trkpt lat="42.10121" lon="2.43122">
        <ele>890.7</ele>
        <time>2019-04-11T23:10:23Z</time>
      </trkpt>
      <trkpt lat="42.1012" lon="2.43122">
        <ele>891</ele>
        <time>2019-04-11T23:10:23Z</time>
      </trkpt>
      <trkpt lat="42.1012" lon="2.43122">
        <ele>891.5</ele>
        <time>2019-04-11T23:10:24Z</time>
      </trkpt>
      <trkpt lat="42.1012" lon="2.43122">
        <ele>892</ele>
        <time>2019-04-11T23:10:24Z</time>
      </trkpt>
      <trkpt lat="42.1012" lon="2.43122">
        <ele>891.9</ele>
        <time>2019-04-11T23:10:24Z</time>
      </trkpt>
      <trkpt lat="42.1012" lon="2.43123">
        <ele>891.9</ele>
        <time>2019-04-11T23:10:24Z</time>
      </trkpt>
      <trkpt lat="42.10121" lon="2.43124">
        <ele>891.7</ele>
        <time>2019-04-11T23:10:24Z</time>
      </trkpt>
      <trkpt lat="42.10121" lon="2.43124">
        <ele>892</ele>
        <time>2019-04-11T23:10:24Z</time>
      </trkpt>
      <trkpt lat="42.10122" lon="2.43125">
        <ele>892</ele>
        <time>2019-04-11T23:10:25Z</time>
      </trkpt>
      <trkpt lat="42.10122" lon="2.43126">
        <ele>892.3</ele>
        <time>2019-04-11T23:10:25Z</time>
      </trkpt>
      <trkpt lat="42.10123" lon="2.43126">
        <ele>892.5</ele>
        <time>2019-04-11T23:10:25Z</time>
      </trkpt>
      <trkpt lat="42.10123" lon="2.43126">
        <ele>893.2</ele>
        <time>2019-04-11T23:10:25Z</time>
      </trkpt>
      <trkpt lat="42.10125" lon="2.4313">
        <ele>894.9</ele>
        <time>2019-04-11T23:10:27Z</time>
      </trkpt>
      <trkpt lat="42.10126" lon="2.43131">
        <ele>895.5</ele>
        <time>2019-04-11T23:10:27Z</time>
      </trkpt>
      <trkpt lat="42.10127" lon="2.43133">
        <ele>896.6</ele>
        <time>2019-04-11T23:10:28Z</time>
      </trkpt>
      <trkpt lat="42.10128" lon="2.43134">
        <ele>897</ele>
        <time>2019-04-11T23:10:28Z</time>
      </trkpt>
      <trkpt lat="42.10129" lon="2.43135">
        <ele>897.2</ele>
        <time>2019-04-11T23:10:29Z</time>
      </trkpt>
      <trkpt lat="42.1013" lon="2.43136">
        <ele>897.7</ele>
        <time>2019-04-11T23:10:29Z</time>
      </trkpt>
      <trkpt lat="42.10131" lon="2.43136">
        <ele>898.5</ele>
        <time>2019-04-11T23:10:30Z</time>
      </trkpt>
      <trkpt lat="42.10132" lon="2.43136">
        <ele>899.1</ele>
        <time>2019-04-11T23:10:30Z</time>
      </trkpt>
      <trkpt lat="42.10132" lon="2.43136">
        <ele>900</ele>
        <time>2019-04-11T23:10:30Z</time>
      </trkpt>
      <trkpt lat="42.10133" lon="2.43135">
        <ele>901.5</ele>
        <time>2019-04-11T23:10:31Z</time>
      </trkpt>
      <trkpt lat="42.10133" lon="2.43134">
        <ele>901.9</ele>
        <time>2019-04-11T23:10:31Z</time>
      </trkpt>
      <trkpt lat="42.10133" lon="2.43133">
        <ele>902.2</ele>
        <time>2019-04-11T23:10:31Z</time>
      </trkpt>
      <trkpt lat="42.10134" lon="2.43132">
        <ele>902.7</ele>
        <time>2019-04-11T23:10:32Z</time>
      </trkpt>
      <trkpt lat="42.10134" lon="2.43131">
        <ele>903</ele>
        <time>2019-04-11T23:10:32Z</time>
      </trkpt>
      <trkpt lat="42.10135" lon="2.4313">
        <ele>903.2</ele>
        <time>2019-04-11T23:10:32Z</time>
      </trkpt>
      <trkpt lat="42.10135" lon="2.43129">
        <ele>903.3</ele>
        <time>2019-04-11T23:10:32Z</time>
      </trkpt>
      <trkpt lat="42.10134" lon="2.43129">
        <ele>903.3</ele>
        <time>2019-04-11T23:10:33Z</time>
      </trkpt>
      <trkpt lat="42.10134" lon="2.43129">
        <ele>903.5</ele>
        <time>2019-04-11T23:10:33Z</time>
      </trkpt>
      <trkpt lat="42.10134" lon="2.43129">
        <ele>904.2</ele>
        <time>2019-04-11T23:10:33Z</time>
      </trkpt>
      <trkpt lat="42.10134" lon="2.43128">
        <ele>904.8</ele>
        <time>2019-04-11T23:10:33Z</time>
      </trkpt>
      <trkpt lat="42.10134" lon="2.43127">
        <ele>905.3</ele>
        <time>2019-04-11T23:10:33Z</time>
      </trkpt>
      <trkpt lat="42.10133" lon="2.43127">
        <ele>905.7</ele>
        <time>2019-04-11T23:10:33Z</time>
      </trkpt>
      <trkpt lat="42.10133" lon="2.43126">
        <ele>906.2</ele>
        <time>2019-04-11T23:10:34Z</time>
      </trkpt>
      <trkpt lat="42.10133" lon="2.43126">
        <ele>906.5</ele>
        <time>2019-04-11T23:10:34Z</time>
      </trkpt>
      <trkpt lat="42.10133" lon="2.43125">
        <ele>906.8</ele>
        <time>2019-04-11T23:10:34Z</time>
      </trkpt>
      <trkpt lat="42.10133" lon="2.43124">
        <ele>907</ele>
        <time>2019-04-11T23:10:34Z</time>
      </trkpt>
      <trkpt lat="42.10132" lon="2.43122">
        <ele>906.6</ele>
        <time>2019-04-11T23:10:35Z</time>
      </trkpt>
      <trkpt lat="42.10132" lon="2.43121">
        <ele>906.6</ele>
        <time>2019-04-11T23:10:35Z</time>
      </trkpt>
      <trkpt lat="42.10132" lon="2.4312">
        <ele>906.5</ele>
        <time>2019-04-11T23:10:36Z</time>
      </trkpt>
      <trkpt lat="42.10132" lon="2.43118">
        <ele>906.5</ele>
        <time>2019-04-11T23:10:36Z</time>
      </trkpt>
      <trkpt lat="42.10133" lon="2.43117">
        <ele>906.6</ele>
        <time>2019-04-11T23:10:37Z</time>
      </trkpt>
      <trkpt lat="42.10133" lon="2.43116">
        <ele>906.5</ele>
        <time>2019-04-11T23:10:37Z</time>
      </trkpt>
      <trkpt lat="42.10134" lon="2.43116">
        <ele>907</ele>
        <time>2019-04-11T23:10:38Z</time>
      </trkpt>
      <trkpt lat="42.10135" lon="2.43117">
        <ele>907.2</ele>
        <time>2019-04-11T23:10:38Z</time>
      </trkpt>
      <trkpt lat="42.10135" lon="2.43116">
        <ele>907.5</ele>
        <time>2019-04-11T23:10:38Z</time>
      </trkpt>
      <trkpt lat="42.10137" lon="2.43115">
        <ele>908.1</ele>
        <time>2019-04-11T23:10:39Z</time>
      </trkpt>
      <trkpt lat="42.10137" lon="2.43115">
        <ele>908</ele>
        <time>2019-04-11T23:10:39Z</time>
      </trkpt>
      <trkpt lat="42.10137" lon="2.43114">
        <ele>908.5</ele>
        <time>2019-04-11T23:10:39Z</time>
      </trkpt>
      <trkpt lat="42.10137" lon="2.43113">
        <ele>908.8</ele>
        <time>2019-04-11T23:10:39Z</time>
      </trkpt>
      <trkpt lat="42.10137" lon="2.43113">
        <ele>909.1</ele>
        <time>2019-04-11T23:10:39Z</time>
      </trkpt>
      <trkpt lat="42.10137" lon="2.43112">
        <ele>909.3</ele>
        <time>2019-04-11T23:10:40Z</time>
      </trkpt>
      <trkpt lat="42.10138" lon="2.43111">
        <ele>909.6</ele>
        <time>2019-04-11T23:10:40Z</time>
      </trkpt>
      <trkpt lat="42.10138" lon="2.4311">
        <ele>909.8</ele>
        <time>2019-04-11T23:10:40Z</time>
      </trkpt>
      <trkpt lat="42.10138" lon="2.43109">
        <ele>909.9</ele>
        <time>2019-04-11T23:10:41Z</time>
      </trkpt>
      <trkpt lat="42.10139" lon="2.43109">
        <ele>910.2</ele>
        <time>2019-04-11T23:10:41Z</time>
      </trkpt>
      <trkpt lat="42.10139" lon="2.4311">
        <ele>910.8</ele>
        <time>2019-04-11T23:10:41Z</time>
      </trkpt>
      <trkpt lat="42.1014" lon="2.43111">
        <ele>911.1</ele>
        <time>2019-04-11T23:10:41Z</time>
      </trkpt>
      <trkpt lat="42.1014" lon="2.43112">
        <ele>911.2</ele>
        <time>2019-04-11T23:10:42Z</time>
      </trkpt>
      <trkpt lat="42.1014" lon="2.43112">
        <ele>911.8</ele>
        <time>2019-04-11T23:10:42Z</time>
      </trkpt>
      <trkpt lat="42.1014" lon="2.43112">
        <ele>912</ele>
        <time>2019-04-11T23:10:42Z</time>
      </trkpt>
      <trkpt lat="42.10139" lon="2.43111">
        <ele>912.5</ele>
        <time>2019-04-11T23:10:42Z</time>
      </trkpt>
      <trkpt lat="42.10139" lon="2.43111">
        <ele>913</ele>
        <time>2019-04-11T23:10:42Z</time>
      </trkpt>
      <trkpt lat="42.10139" lon="2.4311">
        <ele>913.4</ele>
        <time>2019-04-11T23:10:42Z</time>
      </trkpt>
      <trkpt lat="42.10139" lon="2.4311">
        <ele>913.7</ele>
        <time>2019-04-11T23:10:43Z</time>
      </trkpt>
      <trkpt lat="42.1014" lon="2.43108">
        <ele>913.7</ele>
        <time>2019-04-11T23:10:43Z</time>
      </trkpt>
      <trkpt lat="42.1014" lon="2.43108">
        <ele>913.7</ele>
        <time>2019-04-11T23:10:43Z</time>
      </trkpt>
      <trkpt lat="42.10141" lon="2.43107">
        <ele>913.8</ele>
        <time>2019-04-11T23:10:44Z</time>
      </trkpt>
      <trkpt lat="42.10141" lon="2.43106">
        <ele>913.7</ele>
        <time>2019-04-11T23:10:44Z</time>
      </trkpt>
      <trkpt lat="42.10141" lon="2.43106">
        <ele>913.8</ele>
        <time>2019-04-11T23:10:44Z</time>
      </trkpt>
      <trkpt lat="42.10141" lon="2.43105">
        <ele>913.5</ele>
        <time>2019-04-11T23:10:44Z</time>
      </trkpt>
      <trkpt lat="42.1014" lon="2.43105">
        <ele>913.8</ele>
        <time>2019-04-11T23:10:44Z</time>
      </trkpt>
      <trkpt lat="42.1014" lon="2.43104">
        <ele>914</ele>
        <time>2019-04-11T23:10:45Z</time>
      </trkpt>
      <trkpt lat="42.1014" lon="2.43104">
        <ele>915</ele>
        <time>2019-04-11T23:10:45Z</time>
      </trkpt>
      <trkpt lat="42.1014" lon="2.43103">
        <ele>915.5</ele>
        <time>2019-04-11T23:10:45Z</time>
      </trkpt>
      <trkpt lat="42.10141" lon="2.43103">
        <ele>916.2</ele>
        <time>2019-04-11T23:10:45Z</time>
      </trkpt>
      <trkpt lat="42.10143" lon="2.43104">
        <ele>917.5</ele>
        <time>2019-04-11T23:10:46Z</time>
      </trkpt>
      <trkpt lat="42.10144" lon="2.43051">
        <ele>934.9</ele>
        <time>2019-04-11T23:44:42Z</time>
      </trkpt>
      <trkpt lat="42.10146" lon="2.43049">
        <ele>936.3</ele>
        <time>2019-04-11T23:44:43Z</time>
      </trkpt>
      <trkpt lat="42.10148" lon="2.43047">
        <ele>937.5</ele>
        <time>2019-04-11T23:44:44Z</time>
      </trkpt>
      <trkpt lat="42.1015" lon="2.43046">
        <ele>938.1</ele>
        <time>2019-04-11T23:44:44Z</time>
      </trkpt>
      <trkpt lat="42.10153" lon="2.43046">
        <ele>938.9</ele>
        <time>2019-04-11T23:44:46Z</time>
      </trkpt>
      <trkpt lat="42.10156" lon="2.43044">
        <ele>940.2</ele>
        <time>2019-04-11T23:44:47Z</time>
      </trkpt>
      <trkpt lat="42.10168" lon="2.43043">
        <ele>943.7</ele>
        <time>2019-04-11T23:44:52Z</time>
      </trkpt>
      <trkpt lat="42.1018" lon="2.43047">
        <ele>945</ele>
        <time>2019-04-11T23:44:57Z</time>
      </trkpt>
      <trkpt lat="42.10189" lon="2.43054">
        <ele>945.6</ele>
        <time>2019-04-11T23:45:01Z</time>
      </trkpt>
      <trkpt lat="42.10193" lon="2.43054">
        <ele>946.4</ele>
        <time>2019-04-11T23:45:02Z</time>
      </trkpt>
      <trkpt lat="42.10197" lon="2.43064">
        <ele>944.9</ele>
        <time>2019-04-11T23:45:06Z</time>
      </trkpt>
      <trkpt lat="42.10199" lon="2.43064">
        <ele>945.6</ele>
        <time>2019-04-11T23:45:07Z</time>
      </trkpt>
      <trkpt lat="42.10201" lon="2.43061">
        <ele>946.8</ele>
        <time>2019-04-11T23:45:08Z</time>
      </trkpt>
      <trkpt lat="42.10201" lon="2.43058">
        <ele>947.5</ele>
        <time>2019-04-11T23:45:09Z</time>
      </trkpt>
      <trkpt lat="42.10205" lon="2.43048">
        <ele>950.6</ele>
        <time>2019-04-11T23:45:12Z</time>
      </trkpt>
      <trkpt lat="42.10209" lon="2.43042">
        <ele>952.9</ele>
        <time>2019-04-11T23:45:14Z</time>
      </trkpt>
      <trkpt lat="42.10214" lon="2.43044">
        <ele>948.9</ele>
        <time>2019-04-11T23:45:17Z</time>
      </trkpt>
      <trkpt lat="42.10218" lon="2.43045">
        <ele>946.4</ele>
        <time>2019-04-11T23:45:18Z</time>
      </trkpt>
      <trkpt lat="42.10202" lon="2.43018">
        <ele>910.9</ele>
        <time>2019-04-11T23:45:29Z</time>
      </trkpt>
      <trkpt lat="42.10203" lon="2.43014">
        <ele>909.6</ele>
        <time>2019-04-11T23:45:30Z</time>
      </trkpt>
      <trkpt lat="42.10211" lon="2.43">
        <ele>908.5</ele>
        <time>2019-04-11T23:45:35Z</time>
      </trkpt>
      <trkpt lat="42.10215" lon="2.42988">
        <ele>907.6</ele>
        <time>2019-04-11T23:45:39Z</time>
      </trkpt>
      <trkpt lat="42.10216" lon="2.42977">
        <ele>906.6</ele>
        <time>2019-04-11T23:45:43Z</time>
      </trkpt>
      <trkpt lat="42.10218" lon="2.42965">
        <ele>906.6</ele>
        <time>2019-04-11T23:45:46Z</time>
      </trkpt>
      <trkpt lat="42.10222" lon="2.42945">
        <ele>905.7</ele>
        <time>2019-04-11T23:45:52Z</time>
      </trkpt>
      <trkpt lat="42.10224" lon="2.42933">
        <ele>905.2</ele>
        <time>2019-04-11T23:45:56Z</time>
      </trkpt>
      <trkpt lat="42.10222" lon="2.42921">
        <ele>904.3</ele>
        <time>2019-04-11T23:45:59Z</time>
      </trkpt>
      <trkpt lat="42.10221" lon="2.42904">
        <ele>903.7</ele>
        <time>2019-04-11T23:46:05Z</time>
      </trkpt>
      <trkpt lat="42.1022" lon="2.42885">
        <ele>902.8</ele>
        <time>2019-04-11T23:46:10Z</time>
      </trkpt>
      <trkpt lat="42.10222" lon="2.42869">
        <ele>901.9</ele>
        <time>2019-04-11T23:46:15Z</time>
      </trkpt>
      <trkpt lat="42.10225" lon="2.4285">
        <ele>902.9</ele>
        <time>2019-04-11T23:46:21Z</time>
      </trkpt>
      <trkpt lat="42.10226" lon="2.42833">
        <ele>902.9</ele>
        <time>2019-04-11T23:46:26Z</time>
      </trkpt>
      <trkpt lat="42.1023" lon="2.42817">
        <ele>901.9</ele>
        <time>2019-04-11T23:46:31Z</time>
      </trkpt>
      <trkpt lat="42.10231" lon="2.42808">
        <ele>901.8</ele>
        <time>2019-04-11T23:46:34Z</time>
      </trkpt>
      <trkpt lat="42.10233" lon="2.42789">
        <ele>903.4</ele>
        <time>2019-04-11T23:46:39Z</time>
      </trkpt>
      <trkpt lat="42.10235" lon="2.42776">
        <ele>901.9</ele>
        <time>2019-04-11T23:46:43Z</time>
      </trkpt>
      <trkpt lat="42.10237" lon="2.42764">
        <ele>903.3</ele>
        <time>2019-04-11T23:46:47Z</time>
      </trkpt>
      <trkpt lat="42.1024" lon="2.42756">
        <ele>901.8</ele>
        <time>2019-04-11T23:46:50Z</time>
      </trkpt>
      <trkpt lat="42.10245" lon="2.42739">
        <ele>901.9</ele>
        <time>2019-04-11T23:46:55Z</time>
      </trkpt>
      <trkpt lat="42.10247" lon="2.42728">
        <ele>901.8</ele>
        <time>2019-04-11T23:46:59Z</time>
      </trkpt>
      <trkpt lat="42.10251" lon="2.42714">
        <ele>902.4</ele>
        <time>2019-04-11T23:47:03Z</time>
      </trkpt>
      <trkpt lat="42.10253" lon="2.42697">
        <ele>901.4</ele>
        <time>2019-04-11T23:47:08Z</time>
      </trkpt>
      <trkpt lat="42.10257" lon="2.42682">
        <ele>900.8</ele>
        <time>2019-04-11T23:47:13Z</time>
      </trkpt>
      <trkpt lat="42.10266" lon="2.42672">
        <ele>898.1</ele>
        <time>2019-04-11T23:47:17Z</time>
      </trkpt>
      <trkpt lat="42.10266" lon="2.42669">
        <ele>898</ele>
        <time>2019-04-11T23:47:18Z</time>
      </trkpt>
      <trkpt lat="42.10269" lon="2.42657">
        <ele>896.1</ele>
        <time>2019-04-11T23:47:22Z</time>
      </trkpt>
      <trkpt lat="42.10276" lon="2.42649">
        <ele>894.2</ele>
        <time>2019-04-11T23:47:26Z</time>
      </trkpt>
      <trkpt lat="42.10281" lon="2.42639">
        <ele>890.9</ele>
        <time>2019-04-11T23:47:29Z</time>
      </trkpt>
      <trkpt lat="42.10281" lon="2.42638">
        <ele>890.8</ele>
        <time>2019-04-11T23:47:30Z</time>
      </trkpt>
      <trkpt lat="42.10288" lon="2.42624">
        <ele>888.8</ele>
        <time>2019-04-11T23:47:35Z</time>
      </trkpt>
      <trkpt lat="42.10295" lon="2.42609">
        <ele>887.5</ele>
        <time>2019-04-11T23:47:40Z</time>
      </trkpt>
      <trkpt lat="42.10299" lon="2.42601">
        <ele>886</ele>
        <time>2019-04-11T23:47:43Z</time>
      </trkpt>
      <trkpt lat="42.10311" lon="2.42591">
        <ele>883.5</ele>
        <time>2019-04-11T23:47:48Z</time>
      </trkpt>
      <trkpt lat="42.10312" lon="2.42589">
        <ele>882.7</ele>
        <time>2019-04-11T23:47:49Z</time>
      </trkpt>
      <trkpt lat="42.10313" lon="2.42577">
        <ele>881.6</ele>
        <time>2019-04-11T23:47:53Z</time>
      </trkpt>
      <trkpt lat="42.10318" lon="2.42567">
        <ele>881.1</ele>
        <time>2019-04-11T23:47:56Z</time>
      </trkpt>
      <trkpt lat="42.10332" lon="2.42551">
        <ele>879.8</ele>
        <time>2019-04-11T23:48:04Z</time>
      </trkpt>
      <trkpt lat="42.10339" lon="2.42542">
        <ele>877.4</ele>
        <time>2019-04-11T23:48:08Z</time>
      </trkpt>
      <trkpt lat="42.10341" lon="2.42536">
        <ele>877.3</ele>
        <time>2019-04-11T23:48:10Z</time>
      </trkpt>
      <trkpt lat="42.10353" lon="2.42522">
        <ele>876</ele>
        <time>2019-04-11T23:48:16Z</time>
      </trkpt>
      <trkpt lat="42.10358" lon="2.42511">
        <ele>874.4</ele>
        <time>2019-04-11T23:48:20Z</time>
      </trkpt>
      <trkpt lat="42.10362" lon="2.42508">
        <ele>873</ele>
        <time>2019-04-11T23:48:22Z</time>
      </trkpt>
      <trkpt lat="42.10368" lon="2.42502">
        <ele>872</ele>
        <time>2019-04-11T23:48:25Z</time>
      </trkpt>
      <trkpt lat="42.10378" lon="2.42489">
        <ele>871.1</ele>
        <time>2019-04-11T23:48:30Z</time>
      </trkpt>
      <trkpt lat="42.10383" lon="2.42483">
        <ele>872</ele>
        <time>2019-04-11T23:48:33Z</time>
      </trkpt>
      <trkpt lat="42.10394" lon="2.42472">
        <ele>872.5</ele>
        <time>2019-04-11T23:48:38Z</time>
      </trkpt>
      <trkpt lat="42.10404" lon="2.42465">
        <ele>872.6</ele>
        <time>2019-04-11T23:48:43Z</time>
      </trkpt>
      <trkpt lat="42.10414" lon="2.42455">
        <ele>872.6</ele>
        <time>2019-04-11T23:48:48Z</time>
      </trkpt>
      <trkpt lat="42.10419" lon="2.42457">
        <ele>871.1</ele>
        <time>2019-04-11T23:48:50Z</time>
      </trkpt>
      <trkpt lat="42.10432" lon="2.4246">
        <ele>869.6</ele>
        <time>2019-04-11T23:48:55Z</time>
      </trkpt>
      <trkpt lat="42.10443" lon="2.42465">
        <ele>868.7</ele>
        <time>2019-04-11T23:49:00Z</time>
      </trkpt>
      <trkpt lat="42.1045" lon="2.42468">
        <ele>868.2</ele>
        <time>2019-04-11T23:49:03Z</time>
      </trkpt>
      <trkpt lat="42.10462" lon="2.42469">
        <ele>867.2</ele>
        <time>2019-04-11T23:49:07Z</time>
      </trkpt>
      <trkpt lat="42.10475" lon="2.42472">
        <ele>866.7</ele>
        <time>2019-04-11T23:49:13Z</time>
      </trkpt>
      <trkpt lat="42.10485" lon="2.42481">
        <ele>865.8</ele>
        <time>2019-04-11T23:49:17Z</time>
      </trkpt>
      <trkpt lat="42.10491" lon="2.42486">
        <ele>863.8</ele>
        <time>2019-04-11T23:49:20Z</time>
      </trkpt>
      <trkpt lat="42.10499" lon="2.42494">
        <ele>863</ele>
        <time>2019-04-11T23:49:24Z</time>
      </trkpt>
      <trkpt lat="42.10506" lon="2.425">
        <ele>861.1</ele>
        <time>2019-04-11T23:49:27Z</time>
      </trkpt>
      <trkpt lat="42.10508" lon="2.42512">
        <ele>858.2</ele>
        <time>2019-04-11T23:49:31Z</time>
      </trkpt>
      <trkpt lat="42.10515" lon="2.4252">
        <ele>856.7</ele>
        <time>2019-04-11T23:49:35Z</time>
      </trkpt>
      <trkpt lat="42.1052" lon="2.42526">
        <ele>855.3</ele>
        <time>2019-04-11T23:49:38Z</time>
      </trkpt>
      <trkpt lat="42.1053" lon="2.4254">
        <ele>855.2</ele>
        <time>2019-04-11T23:49:43Z</time>
      </trkpt>
      <trkpt lat="42.10536" lon="2.42546">
        <ele>854.2</ele>
        <time>2019-04-11T23:49:46Z</time>
      </trkpt>
      <trkpt lat="42.10538" lon="2.42546">
        <ele>854.3</ele>
        <time>2019-04-11T23:49:47Z</time>
      </trkpt>
      <trkpt lat="42.10552" lon="2.42556">
        <ele>854.2</ele>
        <time>2019-04-11T23:49:53Z</time>
      </trkpt>
      <trkpt lat="42.10556" lon="2.42557">
        <ele>853.3</ele>
        <time>2019-04-11T23:49:55Z</time>
      </trkpt>
      <trkpt lat="42.10564" lon="2.42566">
        <ele>852.4</ele>
        <time>2019-04-11T23:49:59Z</time>
      </trkpt>
      <trkpt lat="42.10568" lon="2.42567">
        <ele>852.3</ele>
        <time>2019-04-11T23:50:01Z</time>
      </trkpt>
      <trkpt lat="42.1058" lon="2.42567">
        <ele>852.3</ele>
        <time>2019-04-11T23:50:06Z</time>
      </trkpt>
      <trkpt lat="42.10583" lon="2.42578">
        <ele>851</ele>
        <time>2019-04-11T23:50:09Z</time>
      </trkpt>
      <trkpt lat="42.10587" lon="2.42584">
        <ele>849</ele>
        <time>2019-04-11T23:50:12Z</time>
      </trkpt>
      <trkpt lat="42.10593" lon="2.42597">
        <ele>846.2</ele>
        <time>2019-04-11T23:50:16Z</time>
      </trkpt>
      <trkpt lat="42.10604" lon="2.42607">
        <ele>845.6</ele>
        <time>2019-04-11T23:50:22Z</time>
      </trkpt>
      <trkpt lat="42.10616" lon="2.42615">
        <ele>845.6</ele>
        <time>2019-04-11T23:50:27Z</time>
      </trkpt>
      <trkpt lat="42.10619" lon="2.42623">
        <ele>843.6</ele>
        <time>2019-04-11T23:50:30Z</time>
      </trkpt>
      <trkpt lat="42.10628" lon="2.42631">
        <ele>843.2</ele>
        <time>2019-04-11T23:50:34Z</time>
      </trkpt>
      <trkpt lat="42.10636" lon="2.42638">
        <ele>842.2</ele>
        <time>2019-04-11T23:50:38Z</time>
      </trkpt>
      <trkpt lat="42.10638" lon="2.42639">
        <ele>840.8</ele>
        <time>2019-04-11T23:50:39Z</time>
      </trkpt>
      <trkpt lat="42.10639" lon="2.42648">
        <ele>838.4</ele>
        <time>2019-04-11T23:50:41Z</time>
      </trkpt>
      <trkpt lat="42.10645" lon="2.42657">
        <ele>836</ele>
        <time>2019-04-11T23:50:45Z</time>
      </trkpt>
      <trkpt lat="42.10649" lon="2.42661">
        <ele>834.6</ele>
        <time>2019-04-11T23:50:47Z</time>
      </trkpt>
      <trkpt lat="42.10658" lon="2.42675">
        <ele>831.6</ele>
        <time>2019-04-11T23:50:52Z</time>
      </trkpt>
      <trkpt lat="42.10667" lon="2.42683">
        <ele>828.8</ele>
        <time>2019-04-11T23:50:57Z</time>
      </trkpt>
      <trkpt lat="42.10668" lon="2.42691">
        <ele>825.9</ele>
        <time>2019-04-11T23:50:59Z</time>
      </trkpt>
      <trkpt lat="42.10673" lon="2.42698">
        <ele>823.5</ele>
        <time>2019-04-11T23:51:02Z</time>
      </trkpt>
      <trkpt lat="42.10677" lon="2.42707">
        <ele>821.6</ele>
        <time>2019-04-11T23:51:05Z</time>
      </trkpt>
      <trkpt lat="42.10683" lon="2.42702">
        <ele>819.7</ele>
        <time>2019-04-11T23:51:08Z</time>
      </trkpt>
      <trkpt lat="42.10693" lon="2.427">
        <ele>817.2</ele>
        <time>2019-04-11T23:51:12Z</time>
      </trkpt>
      <trkpt lat="42.10696" lon="2.427">
        <ele>816.3</ele>
        <time>2019-04-11T23:51:13Z</time>
      </trkpt>
      <trkpt lat="42.10701" lon="2.42701">
        <ele>813.8</ele>
        <time>2019-04-11T23:51:15Z</time>
      </trkpt>
      <trkpt lat="42.10707" lon="2.42698">
        <ele>812.9</ele>
        <time>2019-04-11T23:51:18Z</time>
      </trkpt>
      <trkpt lat="42.10714" lon="2.42698">
        <ele>811.5</ele>
        <time>2019-04-11T23:51:20Z</time>
      </trkpt>
      <trkpt lat="42.10717" lon="2.42697">
        <ele>811</ele>
        <time>2019-04-11T23:51:22Z</time>
      </trkpt>
      <trkpt lat="42.1072" lon="2.42698">
        <ele>811.1</ele>
        <time>2019-04-11T23:51:23Z</time>
      </trkpt>
      <trkpt lat="42.10734" lon="2.42696">
        <ele>809.1</ele>
        <time>2019-04-11T23:51:29Z</time>
      </trkpt>
      <trkpt lat="42.10739" lon="2.42696">
        <ele>808.2</ele>
        <time>2019-04-11T23:51:31Z</time>
      </trkpt>
      <trkpt lat="42.10746" lon="2.42694">
        <ele>807.2</ele>
        <time>2019-04-11T23:51:33Z</time>
      </trkpt>
      <trkpt lat="42.10758" lon="2.42693">
        <ele>805.7</ele>
        <time>2019-04-11T23:51:38Z</time>
      </trkpt>
      <trkpt lat="42.10764" lon="2.42695">
        <ele>804.3</ele>
        <time>2019-04-11T23:51:41Z</time>
      </trkpt>
      <trkpt lat="42.10775" lon="2.42695">
        <ele>803.3</ele>
        <time>2019-04-11T23:51:45Z</time>
      </trkpt>
      <trkpt lat="42.10778" lon="2.42693">
        <ele>803.3</ele>
        <time>2019-04-11T23:51:46Z</time>
      </trkpt>
      <trkpt lat="42.10781" lon="2.42689">
        <ele>804.2</ele>
        <time>2019-04-11T23:51:48Z</time>
      </trkpt>
      <trkpt lat="42.10782" lon="2.42687">
        <ele>802.3</ele>
        <time>2019-04-11T23:51:49Z</time>
      </trkpt>
      <trkpt lat="42.10793" lon="2.42681">
        <ele>802.4</ele>
        <time>2019-04-11T23:51:54Z</time>
      </trkpt>
      <trkpt lat="42.10796" lon="2.42682">
        <ele>802.9</ele>
        <time>2019-04-11T23:51:55Z</time>
      </trkpt>
      <trkpt lat="42.108" lon="2.42683">
        <ele>801.4</ele>
        <time>2019-04-11T23:51:56Z</time>
      </trkpt>
      <trkpt lat="42.10802" lon="2.42684">
        <ele>800.9</ele>
        <time>2019-04-11T23:51:58Z</time>
      </trkpt>
      <trkpt lat="42.10811" lon="2.42685">
        <ele>800</ele>
        <time>2019-04-11T23:52:01Z</time>
      </trkpt>
      <trkpt lat="42.10817" lon="2.42684">
        <ele>799.5</ele>
        <time>2019-04-11T23:52:03Z</time>
      </trkpt>
      <trkpt lat="42.10825" lon="2.42688">
        <ele>798.1</ele>
        <time>2019-04-11T23:52:07Z</time>
      </trkpt>
      <trkpt lat="42.10829" lon="2.42694">
        <ele>797.1</ele>
        <time>2019-04-11T23:52:09Z</time>
      </trkpt>
      <trkpt lat="42.10839" lon="2.4271">
        <ele>795.6</ele>
        <time>2019-04-11T23:52:15Z</time>
      </trkpt>
      <trkpt lat="42.10843" lon="2.42718">
        <ele>795.1</ele>
        <time>2019-04-11T23:52:18Z</time>
      </trkpt>
      <trkpt lat="42.10851" lon="2.42727">
        <ele>794.6</ele>
        <time>2019-04-11T23:52:22Z</time>
      </trkpt>
      <trkpt lat="42.10864" lon="2.42733">
        <ele>791.7</ele>
        <time>2019-04-11T23:52:28Z</time>
      </trkpt>
      <trkpt lat="42.10866" lon="2.42733">
        <ele>793.2</ele>
        <time>2019-04-11T23:52:29Z</time>
      </trkpt>
      <trkpt lat="42.1087" lon="2.42733">
        <ele>793.3</ele>
        <time>2019-04-11T23:52:30Z</time>
      </trkpt>
      <trkpt lat="42.10873" lon="2.42733">
        <ele>791.8</ele>
        <time>2019-04-11T23:52:32Z</time>
      </trkpt>
      <trkpt lat="42.1088" lon="2.42733">
        <ele>790.4</ele>
        <time>2019-04-11T23:52:35Z</time>
      </trkpt>
      <trkpt lat="42.10893" lon="2.42732">
        <ele>788.5</ele>
        <time>2019-04-11T23:52:40Z</time>
      </trkpt>
      <trkpt lat="42.10909" lon="2.42726">
        <ele>786.9</ele>
        <time>2019-04-11T23:52:46Z</time>
      </trkpt>
      <trkpt lat="42.10921" lon="2.4272">
        <ele>786.5</ele>
        <time>2019-04-11T23:52:51Z</time>
      </trkpt>
      <trkpt lat="42.10929" lon="2.42714">
        <ele>784.6</ele>
        <time>2019-04-11T23:52:55Z</time>
      </trkpt>
      <trkpt lat="42.10932" lon="2.42713">
        <ele>785.6</ele>
        <time>2019-04-11T23:52:56Z</time>
      </trkpt>
      <trkpt lat="42.10935" lon="2.42712">
        <ele>785</ele>
        <time>2019-04-11T23:52:58Z</time>
      </trkpt>
      <trkpt lat="42.10945" lon="2.42706">
        <ele>783.6</ele>
        <time>2019-04-11T23:53:02Z</time>
      </trkpt>
      <trkpt lat="42.10951" lon="2.42705">
        <ele>782.7</ele>
        <time>2019-04-11T23:53:04Z</time>
      </trkpt>
      <trkpt lat="42.10958" lon="2.42705">
        <ele>782.6</ele>
        <time>2019-04-11T23:53:07Z</time>
      </trkpt>
      <trkpt lat="42.10969" lon="2.42702">
        <ele>782.6</ele>
        <time>2019-04-11T23:53:12Z</time>
      </trkpt>
      <trkpt lat="42.10974" lon="2.42702">
        <ele>782.1</ele>
        <time>2019-04-11T23:53:14Z</time>
      </trkpt>
      <trkpt lat="42.10982" lon="2.42706">
        <ele>782.6</ele>
        <time>2019-04-11T23:53:17Z</time>
      </trkpt>
      <trkpt lat="42.10988" lon="2.42708">
        <ele>781.3</ele>
        <time>2019-04-11T23:53:20Z</time>
      </trkpt>
      <trkpt lat="42.10993" lon="2.42708">
        <ele>781.2</ele>
        <time>2019-04-11T23:53:22Z</time>
      </trkpt>
      <trkpt lat="42.10996" lon="2.42708">
        <ele>781.2</ele>
        <time>2019-04-11T23:53:23Z</time>
      </trkpt>
      <trkpt lat="42.11004" lon="2.42708">
        <ele>781.2</ele>
        <time>2019-04-11T23:53:26Z</time>
      </trkpt>
      <trkpt lat="42.11008" lon="2.42709">
        <ele>781.3</ele>
        <time>2019-04-11T23:53:28Z</time>
      </trkpt>
      <trkpt lat="42.11014" lon="2.42713">
        <ele>782.6</ele>
        <time>2019-04-11T23:53:30Z</time>
      </trkpt>
      <trkpt lat="42.11016" lon="2.42714">
        <ele>781.2</ele>
        <time>2019-04-11T23:53:31Z</time>
      </trkpt>
      <trkpt lat="42.11019" lon="2.42716">
        <ele>780.7</ele>
        <time>2019-04-11T23:53:33Z</time>
      </trkpt>
      <trkpt lat="42.11022" lon="2.42718">
        <ele>779.8</ele>
        <time>2019-04-11T23:53:34Z</time>
      </trkpt>
      <trkpt lat="42.11034" lon="2.4272">
        <ele>779.7</ele>
        <time>2019-04-11T23:53:39Z</time>
      </trkpt>
      <trkpt lat="42.11047" lon="2.42723">
        <ele>779.3</ele>
        <time>2019-04-11T23:53:44Z</time>
      </trkpt>
      <trkpt lat="42.11049" lon="2.42724">
        <ele>778.8</ele>
        <time>2019-04-11T23:53:45Z</time>
      </trkpt>
      <trkpt lat="42.11055" lon="2.42726">
        <ele>778.8</ele>
        <time>2019-04-11T23:53:47Z</time>
      </trkpt>
      <trkpt lat="42.11065" lon="2.42731">
        <ele>776.9</ele>
        <time>2019-04-11T23:53:52Z</time>
      </trkpt>
      <trkpt lat="42.11073" lon="2.42733">
        <ele>776.5</ele>
        <time>2019-04-11T23:53:55Z</time>
      </trkpt>
      <trkpt lat="42.11086" lon="2.42737">
        <ele>774.9</ele>
        <time>2019-04-11T23:54:00Z</time>
      </trkpt>
      <trkpt lat="42.11097" lon="2.42738">
        <ele>774.5</ele>
        <time>2019-04-11T23:54:05Z</time>
      </trkpt>
      <trkpt lat="42.11098" lon="2.42738">
        <ele>774.4</ele>
        <time>2019-04-11T23:54:05Z</time>
      </trkpt>
      <trkpt lat="42.11105" lon="2.42738">
        <ele>773.5</ele>
        <time>2019-04-11T23:54:08Z</time>
      </trkpt>
      <trkpt lat="42.11118" lon="2.42736">
        <ele>772</ele>
        <time>2019-04-11T23:54:13Z</time>
      </trkpt>
      <trkpt lat="42.1113" lon="2.42738">
        <ele>770.6</ele>
        <time>2019-04-11T23:54:18Z</time>
      </trkpt>
      <trkpt lat="42.11132" lon="2.42739">
        <ele>770.7</ele>
        <time>2019-04-11T23:54:19Z</time>
      </trkpt>
      <trkpt lat="42.11139" lon="2.42737">
        <ele>770.6</ele>
        <time>2019-04-11T23:54:22Z</time>
      </trkpt>
      <trkpt lat="42.11145" lon="2.42738">
        <ele>769.6</ele>
        <time>2019-04-11T23:54:24Z</time>
      </trkpt>
      <trkpt lat="42.11155" lon="2.42741">
        <ele>767.8</ele>
        <time>2019-04-11T23:54:28Z</time>
      </trkpt>
      <trkpt lat="42.11159" lon="2.42741">
        <ele>766.8</ele>
        <time>2019-04-11T23:54:30Z</time>
      </trkpt>
      <trkpt lat="42.11171" lon="2.4274">
        <ele>764.9</ele>
        <time>2019-04-11T23:54:35Z</time>
      </trkpt>
      <trkpt lat="42.11184" lon="2.42732">
        <ele>764.4</ele>
        <time>2019-04-11T23:54:40Z</time>
      </trkpt>
      <trkpt lat="42.11188" lon="2.42727">
        <ele>762.9</ele>
        <time>2019-04-11T23:54:43Z</time>
      </trkpt>
      <trkpt lat="42.11194" lon="2.42712">
        <ele>761</ele>
        <time>2019-04-11T23:54:48Z</time>
      </trkpt>
      <trkpt lat="42.11197" lon="2.42698">
        <ele>759.1</ele>
        <time>2019-04-11T23:54:52Z</time>
      </trkpt>
      <trkpt lat="42.11207" lon="2.42686">
        <ele>756.3</ele>
        <time>2019-04-11T23:54:57Z</time>
      </trkpt>
      <trkpt lat="42.1122" lon="2.42673">
        <ele>754.3</ele>
        <time>2019-04-11T23:55:04Z</time>
      </trkpt>
      <trkpt lat="42.11223" lon="2.42671">
        <ele>754.2</ele>
        <time>2019-04-11T23:55:05Z</time>
      </trkpt>
      <trkpt lat="42.11234" lon="2.42657">
        <ele>751.8</ele>
        <time>2019-04-11T23:55:11Z</time>
      </trkpt>
      <trkpt lat="42.11242" lon="2.42651">
        <ele>750.5</ele>
        <time>2019-04-11T23:55:15Z</time>
      </trkpt>
      <trkpt lat="42.11246" lon="2.42657">
        <ele>747.6</ele>
        <time>2019-04-11T23:55:17Z</time>
      </trkpt>
      <trkpt lat="42.11249" lon="2.42668">
        <ele>745.2</ele>
        <time>2019-04-11T23:55:21Z</time>
      </trkpt>
      <trkpt lat="42.11249" lon="2.4268">
        <ele>743.2</ele>
        <time>2019-04-11T23:55:24Z</time>
      </trkpt>
      <trkpt lat="42.11246" lon="2.42696">
        <ele>740.8</ele>
        <time>2019-04-11T23:55:29Z</time>
      </trkpt>
      <trkpt lat="42.11245" lon="2.42708">
        <ele>738.9</ele>
        <time>2019-04-11T23:55:33Z</time>
      </trkpt>
      <trkpt lat="42.11246" lon="2.42714">
        <ele>736</ele>
        <time>2019-04-11T23:55:35Z</time>
      </trkpt>
      <trkpt lat="42.11248" lon="2.42729">
        <ele>733.1</ele>
        <time>2019-04-11T23:55:39Z</time>
      </trkpt>
      <trkpt lat="42.11251" lon="2.42744">
        <ele>730.3</ele>
        <time>2019-04-11T23:55:44Z</time>
      </trkpt>
      <trkpt lat="42.11245" lon="2.42756">
        <ele>728.3</ele>
        <time>2019-04-11T23:55:48Z</time>
      </trkpt>
      <trkpt lat="42.11241" lon="2.42766">
        <ele>726.4</ele>
        <time>2019-04-11T23:55:52Z</time>
      </trkpt>
      <trkpt lat="42.11238" lon="2.4278">
        <ele>724.1</ele>
        <time>2019-04-11T23:55:56Z</time>
      </trkpt>
      <trkpt lat="42.11237" lon="2.42785">
        <ele>722.6</ele>
        <time>2019-04-11T23:55:57Z</time>
      </trkpt>
      <trkpt lat="42.11237" lon="2.42794">
        <ele>720.6</ele>
        <time>2019-04-11T23:56:00Z</time>
      </trkpt>
      <trkpt lat="42.11241" lon="2.42792">
        <ele>717.2</ele>
        <time>2019-04-11T23:56:02Z</time>
      </trkpt>
      <trkpt lat="42.11249" lon="2.42792">
        <ele>715.4</ele>
        <time>2019-04-11T23:56:05Z</time>
      </trkpt>
      <trkpt lat="42.1125" lon="2.428">
        <ele>713.5</ele>
        <time>2019-04-11T23:56:08Z</time>
      </trkpt>
      <trkpt lat="42.11249" lon="2.42814">
        <ele>711</ele>
        <time>2019-04-11T23:56:12Z</time>
      </trkpt>
      <trkpt lat="42.11248" lon="2.42826">
        <ele>709.1</ele>
        <time>2019-04-11T23:56:15Z</time>
      </trkpt>
      <trkpt lat="42.11247" lon="2.42838">
        <ele>707.6</ele>
        <time>2019-04-11T23:56:19Z</time>
      </trkpt>
      <trkpt lat="42.11253" lon="2.42837">
        <ele>705.8</ele>
        <time>2019-04-11T23:56:21Z</time>
      </trkpt>
      <trkpt lat="42.11256" lon="2.42843">
        <ele>703.8</ele>
        <time>2019-04-11T23:56:24Z</time>
      </trkpt>
      <trkpt lat="42.11259" lon="2.4285">
        <ele>701.4</ele>
        <time>2019-04-11T23:56:26Z</time>
      </trkpt>
      <trkpt lat="42.1126" lon="2.42861">
        <ele>699.1</ele>
        <time>2019-04-11T23:56:29Z</time>
      </trkpt>
      <trkpt lat="42.1126" lon="2.42874">
        <ele>696.1</ele>
        <time>2019-04-11T23:56:33Z</time>
      </trkpt>
      <trkpt lat="42.11263" lon="2.42878">
        <ele>695.7</ele>
        <time>2019-04-11T23:56:35Z</time>
      </trkpt>
      <trkpt lat="42.1127" lon="2.42885">
        <ele>693.3</ele>
        <time>2019-04-11T23:56:38Z</time>
      </trkpt>
      <trkpt lat="42.11274" lon="2.42888">
        <ele>690.9</ele>
        <time>2019-04-11T23:56:40Z</time>
      </trkpt>
      <trkpt lat="42.11279" lon="2.42892">
        <ele>688.4</ele>
        <time>2019-04-11T23:56:42Z</time>
      </trkpt>
      <trkpt lat="42.11284" lon="2.42895">
        <ele>687</ele>
        <time>2019-04-11T23:56:45Z</time>
      </trkpt>
      <trkpt lat="42.11288" lon="2.42899">
        <ele>684.6</ele>
        <time>2019-04-11T23:56:46Z</time>
      </trkpt>
      <trkpt lat="42.11289" lon="2.429">
        <ele>684.6</ele>
        <time>2019-04-11T23:56:47Z</time>
      </trkpt>
      <trkpt lat="42.11295" lon="2.42905">
        <ele>681.7</ele>
        <time>2019-04-11T23:56:50Z</time>
      </trkpt>
      <trkpt lat="42.113" lon="2.42909">
        <ele>679.3</ele>
        <time>2019-04-11T23:56:52Z</time>
      </trkpt>
      <trkpt lat="42.11306" lon="2.42915">
        <ele>676.4</ele>
        <time>2019-04-11T23:56:55Z</time>
      </trkpt>
      <trkpt lat="42.1131" lon="2.42919">
        <ele>674.5</ele>
        <time>2019-04-11T23:56:57Z</time>
      </trkpt>
      <trkpt lat="42.11318" lon="2.42921">
        <ele>671.6</ele>
        <time>2019-04-11T23:57:00Z</time>
      </trkpt>
      <trkpt lat="42.11321" lon="2.42922">
        <ele>669.2</ele>
        <time>2019-04-11T23:57:02Z</time>
      </trkpt>
      <trkpt lat="42.11322" lon="2.42933">
        <ele>667.2</ele>
        <time>2019-04-11T23:57:05Z</time>
      </trkpt>
      <trkpt lat="42.11323" lon="2.42941">
        <ele>664.8</ele>
        <time>2019-04-11T23:57:08Z</time>
      </trkpt>
      <trkpt lat="42.11327" lon="2.42948">
        <ele>662.4</ele>
        <time>2019-04-11T23:57:10Z</time>
      </trkpt>
      <trkpt lat="42.11329" lon="2.42952">
        <ele>661.6</ele>
        <time>2019-04-11T23:57:12Z</time>
      </trkpt>
      <trkpt lat="42.11331" lon="2.42956">
        <ele>660.5</ele>
        <time>2019-04-11T23:57:13Z</time>
      </trkpt>
      <trkpt lat="42.11336" lon="2.42952">
        <ele>659.1</ele>
        <time>2019-04-11T23:57:16Z</time>
      </trkpt>
      <trkpt lat="42.11341" lon="2.42944">
        <ele>656.8</ele>
        <time>2019-04-11T23:57:19Z</time>
      </trkpt>
      <trkpt lat="42.11348" lon="2.4293">
        <ele>654.3</ele>
        <time>2019-04-11T23:57:24Z</time>
      </trkpt>
      <trkpt lat="42.11358" lon="2.42913">
        <ele>652.4</ele>
        <time>2019-04-11T23:57:30Z</time>
      </trkpt>
      <trkpt lat="42.11364" lon="2.42901">
        <ele>650</ele>
        <time>2019-04-11T23:57:35Z</time>
      </trkpt>
      <trkpt lat="42.11374" lon="2.42888">
        <ele>647.5</ele>
        <time>2019-04-11T23:57:40Z</time>
      </trkpt>
      <trkpt lat="42.11382" lon="2.42879">
        <ele>645.2</ele>
        <time>2019-04-11T23:57:44Z</time>
      </trkpt>
      <trkpt lat="42.11385" lon="2.42867">
        <ele>642.7</ele>
        <time>2019-04-11T23:57:48Z</time>
      </trkpt>
      <trkpt lat="42.11392" lon="2.42864">
        <ele>639.4</ele>
        <time>2019-04-11T23:57:51Z</time>
      </trkpt>
      <trkpt lat="42.11393" lon="2.42857">
        <ele>637.4</ele>
        <time>2019-04-11T23:57:53Z</time>
      </trkpt>
      <trkpt lat="42.11399" lon="2.42851">
        <ele>634.6</ele>
        <time>2019-04-11T23:57:56Z</time>
      </trkpt>
      <trkpt lat="42.11407" lon="2.42843">
        <ele>632.6</ele>
        <time>2019-04-11T23:58:00Z</time>
      </trkpt>
      <trkpt lat="42.11414" lon="2.42838">
        <ele>629.8</ele>
        <time>2019-04-11T23:58:03Z</time>
      </trkpt>
      <trkpt lat="42.11423" lon="2.42831">
        <ele>627.4</ele>
        <time>2019-04-11T23:58:08Z</time>
      </trkpt>
      <trkpt lat="42.11422" lon="2.42815">
        <ele>626.5</ele>
        <time>2019-04-11T23:58:12Z</time>
      </trkpt>
      <trkpt lat="42.11427" lon="2.42809">
        <ele>625.5</ele>
        <time>2019-04-11T23:58:15Z</time>
      </trkpt>
      <trkpt lat="42.11433" lon="2.42805">
        <ele>623.6</ele>
        <time>2019-04-11T23:58:18Z</time>
      </trkpt>
      <trkpt lat="42.11438" lon="2.42793">
        <ele>621.7</ele>
        <time>2019-04-11T23:58:22Z</time>
      </trkpt>
      <trkpt lat="42.11446" lon="2.42785">
        <ele>620.2</ele>
        <time>2019-04-11T23:58:26Z</time>
      </trkpt>
      <trkpt lat="42.11449" lon="2.42772">
        <ele>618.8</ele>
        <time>2019-04-11T23:58:30Z</time>
      </trkpt>
      <trkpt lat="42.11459" lon="2.42757">
        <ele>617.4</ele>
        <time>2019-04-11T23:58:36Z</time>
      </trkpt>
      <trkpt lat="42.11467" lon="2.42745">
        <ele>614.9</ele>
        <time>2019-04-11T23:58:41Z</time>
      </trkpt>
      <trkpt lat="42.11473" lon="2.42731">
        <ele>614</ele>
        <time>2019-04-11T23:58:46Z</time>
      </trkpt>
      <trkpt lat="42.1148" lon="2.42724">
        <ele>612.5</ele>
        <time>2019-04-11T23:58:49Z</time>
      </trkpt>
      <trkpt lat="42.11491" lon="2.4271">
        <ele>611.5</ele>
        <time>2019-04-11T23:58:55Z</time>
      </trkpt>
      <trkpt lat="42.11495" lon="2.42707">
        <ele>611.1</ele>
        <time>2019-04-11T23:58:57Z</time>
      </trkpt>
      <trkpt lat="42.1151" lon="2.42698">
        <ele>608.7</ele>
        <time>2019-04-11T23:59:03Z</time>
      </trkpt>
      <trkpt lat="42.11515" lon="2.42687">
        <ele>606.7</ele>
        <time>2019-04-11T23:59:07Z</time>
      </trkpt>
      <trkpt lat="42.11523" lon="2.42672">
        <ele>604.8</ele>
        <time>2019-04-11T23:59:13Z</time>
      </trkpt>
      <trkpt lat="42.11533" lon="2.42654">
        <ele>602.8</ele>
        <time>2019-04-11T23:59:19Z</time>
      </trkpt>
      <trkpt lat="42.11535" lon="2.42652">
        <ele>602.9</ele>
        <time>2019-04-11T23:59:20Z</time>
      </trkpt>
      <trkpt lat="42.11544" lon="2.42635">
        <ele>600.1</ele>
        <time>2019-04-11T23:59:26Z</time>
      </trkpt>
      <trkpt lat="42.11549" lon="2.42623">
        <ele>599.1</ele>
        <time>2019-04-11T23:59:31Z</time>
      </trkpt>
      <trkpt lat="42.11555" lon="2.42611">
        <ele>597.2</ele>
        <time>2019-04-11T23:59:35Z</time>
      </trkpt>
      <trkpt lat="42.11566" lon="2.42594">
        <ele>594.8</ele>
        <time>2019-04-11T23:59:41Z</time>
      </trkpt>
      <trkpt lat="42.11572" lon="2.4258">
        <ele>593.2</ele>
        <time>2019-04-11T23:59:46Z</time>
      </trkpt>
      <trkpt lat="42.11581" lon="2.42566">
        <ele>591.8</ele>
        <time>2019-04-11T23:59:52Z</time>
      </trkpt>
      <trkpt lat="42.11582" lon="2.42562">
        <ele>591.9</ele>
        <time>2019-04-11T23:59:53Z</time>
      </trkpt>
      <trkpt lat="42.11584" lon="2.42559">
        <ele>591.3</ele>
        <time>2019-04-11T23:59:54Z</time>
      </trkpt>
      <trkpt lat="42.11589" lon="2.42542">
        <ele>590.4</ele>
        <time>2019-04-12T00:00:00Z</time>
      </trkpt>
      <trkpt lat="42.11593" lon="2.4253">
        <ele>589.9</ele>
        <time>2019-04-12T00:00:04Z</time>
      </trkpt>
      <trkpt lat="42.1161" lon="2.42529">
        <ele>591.3</ele>
        <time>2019-04-12T00:00:10Z</time>
      </trkpt>
      <trkpt lat="42.11614" lon="2.42534">
        <ele>589.4</ele>
        <time>2019-04-12T00:00:12Z</time>
      </trkpt>
      <trkpt lat="42.1162" lon="2.42538">
        <ele>587</ele>
        <time>2019-04-12T00:00:15Z</time>
      </trkpt>
      <trkpt lat="42.11629" lon="2.4254">
        <ele>584.6</ele>
        <time>2019-04-12T00:00:19Z</time>
      </trkpt>
      <trkpt lat="42.11636" lon="2.4254">
        <ele>582.8</ele>
        <time>2019-04-12T00:00:21Z</time>
      </trkpt>
      <trkpt lat="42.11647" lon="2.4254">
        <ele>579.8</ele>
        <time>2019-04-12T00:00:26Z</time>
      </trkpt>
      <trkpt lat="42.11654" lon="2.42535">
        <ele>577.4</ele>
        <time>2019-04-12T00:00:29Z</time>
      </trkpt>
      <trkpt lat="42.11662" lon="2.42531">
        <ele>576.9</ele>
        <time>2019-04-12T00:00:33Z</time>
      </trkpt>
      <trkpt lat="42.11671" lon="2.42531">
        <ele>577</ele>
        <time>2019-04-12T00:00:36Z</time>
      </trkpt>
      <trkpt lat="42.11672" lon="2.42535">
        <ele>577</ele>
        <time>2019-04-12T00:00:37Z</time>
      </trkpt>
      <trkpt lat="42.11676" lon="2.42523">
        <ele>576.4</ele>
        <time>2019-04-12T00:00:41Z</time>
      </trkpt>
      <trkpt lat="42.11683" lon="2.42512">
        <ele>573</ele>
        <time>2019-04-12T00:00:45Z</time>
      </trkpt>
      <trkpt lat="42.11689" lon="2.42499">
        <ele>569.8</ele>
        <time>2019-04-12T00:00:50Z</time>
      </trkpt>
      <trkpt lat="42.11687" lon="2.42482">
        <ele>568.7</ele>
        <time>2019-04-12T00:00:55Z</time>
      </trkpt>
      <trkpt lat="42.1169" lon="2.42467">
        <ele>565.8</ele>
        <time>2019-04-12T00:01:00Z</time>
      </trkpt>
      <trkpt lat="42.11689" lon="2.42453">
        <ele>563</ele>
        <time>2019-04-12T00:01:04Z</time>
      </trkpt>
      <trkpt lat="42.11687" lon="2.42448">
        <ele>562.5</ele>
        <time>2019-04-12T00:01:06Z</time>
      </trkpt>
      <trkpt lat="42.11683" lon="2.4243">
        <ele>560.6</ele>
        <time>2019-04-12T00:01:11Z</time>
      </trkpt>
      <trkpt lat="42.11682" lon="2.42425">
        <ele>559.6</ele>
        <time>2019-04-12T00:01:13Z</time>
      </trkpt>
      <trkpt lat="42.11675" lon="2.42418">
        <ele>558.1</ele>
        <time>2019-04-12T00:01:16Z</time>
      </trkpt>
      <trkpt lat="42.11674" lon="2.42411">
        <ele>555.3</ele>
        <time>2019-04-12T00:01:18Z</time>
      </trkpt>
      <trkpt lat="42.11685" lon="2.42411">
        <ele>555.4</ele>
        <time>2019-04-12T00:01:23Z</time>
      </trkpt>
      <trkpt lat="42.11698" lon="2.42413">
        <ele>554.3</ele>
        <time>2019-04-12T00:01:28Z</time>
      </trkpt>
      <trkpt lat="42.11708" lon="2.42414">
        <ele>553.4</ele>
        <time>2019-04-12T00:01:32Z</time>
      </trkpt>
      <trkpt lat="42.1171" lon="2.42412">
        <ele>553.4</ele>
        <time>2019-04-12T00:01:33Z</time>
      </trkpt>
      <trkpt lat="42.11719" lon="2.42404">
        <ele>553.8</ele>
        <time>2019-04-12T00:01:37Z</time>
      </trkpt>
      <trkpt lat="42.11722" lon="2.42399">
        <ele>553.4</ele>
        <time>2019-04-12T00:01:39Z</time>
      </trkpt>
      <trkpt lat="42.11726" lon="2.42394">
        <ele>553.4</ele>
        <time>2019-04-12T00:01:41Z</time>
      </trkpt>
      <trkpt lat="42.11733" lon="2.42386">
        <ele>552.9</ele>
        <time>2019-04-12T00:01:45Z</time>
      </trkpt>
      <trkpt lat="42.11739" lon="2.42378">
        <ele>552</ele>
        <time>2019-04-12T00:01:48Z</time>
      </trkpt>
      <trkpt lat="42.11739" lon="2.42375">
        <ele>551.9</ele>
        <time>2019-04-12T00:01:49Z</time>
      </trkpt>
      <trkpt lat="42.11743" lon="2.42364">
        <ele>551.9</ele>
        <time>2019-04-12T00:01:53Z</time>
      </trkpt>
      <trkpt lat="42.11751" lon="2.42351">
        <ele>550.9</ele>
        <time>2019-04-12T00:01:58Z</time>
      </trkpt>
      <trkpt lat="42.11759" lon="2.42358">
        <ele>550</ele>
        <time>2019-04-12T00:02:02Z</time>
      </trkpt>
      <trkpt lat="42.11761" lon="2.42361">
        <ele>550.1</ele>
        <time>2019-04-12T00:02:03Z</time>
      </trkpt>
      <trkpt lat="42.11763" lon="2.42363">
        <ele>549</ele>
        <time>2019-04-12T00:02:04Z</time>
      </trkpt>
      <trkpt lat="42.11761" lon="2.42357">
        <ele>549.1</ele>
        <time>2019-04-12T00:02:06Z</time>
      </trkpt>
      <trkpt lat="42.11763" lon="2.42359">
        <ele>549.1</ele>
        <time>2019-04-12T00:02:07Z</time>
      </trkpt>
      <trkpt lat="42.11762" lon="2.42357">
        <ele>549.1</ele>
        <time>2019-04-12T00:02:08Z</time>
      </trkpt>
      <trkpt lat="42.11762" lon="2.42357">
        <ele>549.1</ele>
        <time>2019-04-12T00:02:08Z</time>
      </trkpt>
      <trkpt lat="42.11751" lon="2.42352">
        <ele>550.9</ele>
        <time>2019-04-12T00:02:13Z</time>
      </trkpt>
      <trkpt lat="42.11751" lon="2.42343">
        <ele>552</ele>
        <time>2019-04-12T00:02:15Z</time>
      </trkpt>
      <trkpt lat="42.11753" lon="2.42335">
        <ele>551.9</ele>
        <time>2019-04-12T00:02:18Z</time>
      </trkpt>
      <trkpt lat="42.11756" lon="2.42319">
        <ele>552.4</ele>
        <time>2019-04-12T00:02:23Z</time>
      </trkpt>
      <trkpt lat="42.11758" lon="2.42313">
        <ele>552</ele>
        <time>2019-04-12T00:02:25Z</time>
      </trkpt>
      <trkpt lat="42.11759" lon="2.42303">
        <ele>551</ele>
        <time>2019-04-12T00:02:28Z</time>
      </trkpt>
      <trkpt lat="42.1176" lon="2.42299">
        <ele>551</ele>
        <time>2019-04-12T00:02:29Z</time>
      </trkpt>
      <trkpt lat="42.11768" lon="2.42271">
        <ele>551</ele>
        <time>2019-04-12T00:02:38Z</time>
      </trkpt>
      <trkpt lat="42.11775" lon="2.42259">
        <ele>550.5</ele>
        <time>2019-04-12T00:02:43Z</time>
      </trkpt>
      <trkpt lat="42.11778" lon="2.42253">
        <ele>550.1</ele>
        <time>2019-04-12T00:02:45Z</time>
      </trkpt>
      <trkpt lat="42.11778" lon="2.42251">
        <ele>550</ele>
        <time>2019-04-12T00:02:45Z</time>
      </trkpt>
      <trkpt lat="42.11786" lon="2.42233">
        <ele>551</ele>
        <time>2019-04-12T00:02:51Z</time>
      </trkpt>
      <trkpt lat="42.1179" lon="2.42215">
        <ele>551</ele>
        <time>2019-04-12T00:02:57Z</time>
      </trkpt>
      <trkpt lat="42.11789" lon="2.42204">
        <ele>553.3</ele>
        <time>2019-04-12T00:03:00Z</time>
      </trkpt>
      <trkpt lat="42.11789" lon="2.42203">
        <ele>553.3</ele>
        <time>2019-04-12T00:03:01Z</time>
      </trkpt>
      <trkpt lat="42.11783" lon="2.42201">
        <ele>552.4</ele>
        <time>2019-04-12T00:03:03Z</time>
      </trkpt>
      <trkpt lat="42.11782" lon="2.42201">
        <ele>552.5</ele>
        <time>2019-04-12T00:03:03Z</time>
      </trkpt>
      <trkpt lat="42.11778" lon="2.42197">
        <ele>553.8</ele>
        <time>2019-04-12T00:03:05Z</time>
      </trkpt>
      <trkpt lat="42.11774" lon="2.42195">
        <ele>552.9</ele>
        <time>2019-04-12T00:03:07Z</time>
      </trkpt>
      <trkpt lat="42.11764" lon="2.42188">
        <ele>553</ele>
        <time>2019-04-12T00:03:12Z</time>
      </trkpt>
      <trkpt lat="42.11761" lon="2.42185">
        <ele>553.9</ele>
        <time>2019-04-12T00:03:13Z</time>
      </trkpt>
      <trkpt lat="42.1176" lon="2.42183">
        <ele>554.4</ele>
        <time>2019-04-12T00:03:14Z</time>
      </trkpt>
      <trkpt lat="42.11747" lon="2.42175">
        <ele>555.4</ele>
        <time>2019-04-12T00:03:20Z</time>
      </trkpt>
      <trkpt lat="42.11737" lon="2.42165">
        <ele>555.7</ele>
        <time>2019-04-12T00:03:25Z</time>
      </trkpt>
      <trkpt lat="42.1179" lon="2.41961">
        <ele>570.8</ele>
        <time>2019-04-12T00:45:13Z</time>
      </trkpt>
      <trkpt lat="42.11793" lon="2.41944">
        <ele>570.2</ele>
        <time>2019-04-12T00:45:18Z</time>
      </trkpt>
      <trkpt lat="42.11795" lon="2.4193">
        <ele>570.2</ele>
        <time>2019-04-12T00:45:22Z</time>
      </trkpt>
      <trkpt lat="42.11799" lon="2.41913">
        <ele>571.2</ele>
        <time>2019-04-12T00:45:27Z</time>
      </trkpt>
      <trkpt lat="42.11803" lon="2.419">
        <ele>572.1</ele>
        <time>2019-04-12T00:45:31Z</time>
      </trkpt>
      <trkpt lat="42.11801" lon="2.4188">
        <ele>572.6</ele>
        <time>2019-04-12T00:45:37Z</time>
      </trkpt>
      <trkpt lat="42.11798" lon="2.41865">
        <ele>573.6</ele>
        <time>2019-04-12T00:45:42Z</time>
      </trkpt>
      <trkpt lat="42.1179" lon="2.41859">
        <ele>575.1</ele>
        <time>2019-04-12T00:45:46Z</time>
      </trkpt>
      <trkpt lat="42.1178" lon="2.41853">
        <ele>575.5</ele>
        <time>2019-04-12T00:45:50Z</time>
      </trkpt>
      <trkpt lat="42.11769" lon="2.41848">
        <ele>576.1</ele>
        <time>2019-04-12T00:45:55Z</time>
      </trkpt>
      <trkpt lat="42.11765" lon="2.41842">
        <ele>576.5</ele>
        <time>2019-04-12T00:45:57Z</time>
      </trkpt>
      <trkpt lat="42.11765" lon="2.41832">
        <ele>575.5</ele>
        <time>2019-04-12T00:46:00Z</time>
      </trkpt>
      <trkpt lat="42.11767" lon="2.41824">
        <ele>575.6</ele>
        <time>2019-04-12T00:46:02Z</time>
      </trkpt>
      <trkpt lat="42.11768" lon="2.41823">
        <ele>575.5</ele>
        <time>2019-04-12T00:46:03Z</time>
      </trkpt>
      <trkpt lat="42.11768" lon="2.41814">
        <ele>576</ele>
        <time>2019-04-12T00:46:06Z</time>
      </trkpt>
      <trkpt lat="42.11765" lon="2.41795">
        <ele>578.4</ele>
        <time>2019-04-12T00:46:11Z</time>
      </trkpt>
      <trkpt lat="42.1177" lon="2.41783">
        <ele>582.3</ele>
        <time>2019-04-12T00:46:15Z</time>
      </trkpt>
      <trkpt lat="42.11779" lon="2.41786">
        <ele>584.2</ele>
        <time>2019-04-12T00:46:19Z</time>
      </trkpt>
      <trkpt lat="42.1178" lon="2.41784">
        <ele>583.3</ele>
        <time>2019-04-12T00:46:20Z</time>
      </trkpt>
      <trkpt lat="42.11779" lon="2.41782">
        <ele>583.3</ele>
        <time>2019-04-12T00:46:20Z</time>
      </trkpt>
      <trkpt lat="42.11776" lon="2.41769">
        <ele>585.7</ele>
        <time>2019-04-12T00:46:24Z</time>
      </trkpt>
      <trkpt lat="42.11777" lon="2.41757">
        <ele>586.1</ele>
        <time>2019-04-12T00:46:28Z</time>
      </trkpt>
      <trkpt lat="42.11772" lon="2.41742">
        <ele>587.5</ele>
        <time>2019-04-12T00:46:33Z</time>
      </trkpt>
      <trkpt lat="42.11767" lon="2.41727">
        <ele>590</ele>
        <time>2019-04-12T00:46:38Z</time>
      </trkpt>
      <trkpt lat="42.11763" lon="2.41713">
        <ele>591.4</ele>
        <time>2019-04-12T00:46:42Z</time>
      </trkpt>
      <trkpt lat="42.11763" lon="2.41701">
        <ele>592.8</ele>
        <time>2019-04-12T00:46:46Z</time>
      </trkpt>
      <trkpt lat="42.11763" lon="2.41689">
        <ele>593.8</ele>
        <time>2019-04-12T00:46:49Z</time>
      </trkpt>
      <trkpt lat="42.11765" lon="2.4168">
        <ele>595.3</ele>
        <time>2019-04-12T00:46:52Z</time>
      </trkpt>
      <trkpt lat="42.11766" lon="2.41665">
        <ele>597.7</ele>
        <time>2019-04-12T00:46:56Z</time>
      </trkpt>
      <trkpt lat="42.11767" lon="2.41654">
        <ele>599.1</ele>
        <time>2019-04-12T00:47:00Z</time>
      </trkpt>
      <trkpt lat="42.11771" lon="2.4164">
        <ele>599.6</ele>
        <time>2019-04-12T00:47:04Z</time>
      </trkpt>
      <trkpt lat="42.1177" lon="2.41632">
        <ele>601.4</ele>
        <time>2019-04-12T00:47:07Z</time>
      </trkpt>
      <trkpt lat="42.11761" lon="2.41622">
        <ele>602</ele>
        <time>2019-04-12T00:47:11Z</time>
      </trkpt>
      <trkpt lat="42.11761" lon="2.41621">
        <ele>602</ele>
        <time>2019-04-12T00:47:12Z</time>
      </trkpt>
      <trkpt lat="42.1176" lon="2.41618">
        <ele>601.9</ele>
        <time>2019-04-12T00:47:13Z</time>
      </trkpt>
      <trkpt lat="42.11761" lon="2.41615">
        <ele>601.4</ele>
        <time>2019-04-12T00:47:13Z</time>
      </trkpt>
      <trkpt lat="42.11753" lon="2.41604">
        <ele>600.5</ele>
        <time>2019-04-12T00:47:18Z</time>
      </trkpt>
      <trkpt lat="42.11747" lon="2.41593">
        <ele>601.4</ele>
        <time>2019-04-12T00:47:22Z</time>
      </trkpt>
      <trkpt lat="42.11751" lon="2.41588">
        <ele>602.5</ele>
        <time>2019-04-12T00:47:24Z</time>
      </trkpt>
      <trkpt lat="42.11753" lon="2.41586">
        <ele>602.4</ele>
        <time>2019-04-12T00:47:25Z</time>
      </trkpt>
      <trkpt lat="42.11763" lon="2.41571">
        <ele>603.5</ele>
        <time>2019-04-12T00:47:31Z</time>
      </trkpt>
      <trkpt lat="42.11769" lon="2.41563">
        <ele>604.3</ele>
        <time>2019-04-12T00:47:35Z</time>
      </trkpt>
      <trkpt lat="42.1177" lon="2.41562">
        <ele>604.4</ele>
        <time>2019-04-12T00:47:35Z</time>
      </trkpt>
      <trkpt lat="42.11779" lon="2.41559">
        <ele>604.3</ele>
        <time>2019-04-12T00:47:39Z</time>
      </trkpt>
      <trkpt lat="42.11781" lon="2.41558">
        <ele>604.4</ele>
        <time>2019-04-12T00:47:40Z</time>
      </trkpt>
      <trkpt lat="42.11772" lon="2.41549">
        <ele>604.8</ele>
        <time>2019-04-12T00:47:44Z</time>
      </trkpt>
      <trkpt lat="42.11762" lon="2.41539">
        <ele>605.4</ele>
        <time>2019-04-12T00:47:49Z</time>
      </trkpt>
      <trkpt lat="42.11751" lon="2.41532">
        <ele>606.3</ele>
        <time>2019-04-12T00:47:54Z</time>
      </trkpt>
      <trkpt lat="42.1175" lon="2.41531">
        <ele>606.3</ele>
        <time>2019-04-12T00:47:54Z</time>
      </trkpt>
      <trkpt lat="42.11742" lon="2.41519">
        <ele>608.2</ele>
        <time>2019-04-12T00:47:59Z</time>
      </trkpt>
      <trkpt lat="42.11741" lon="2.41518">
        <ele>608.3</ele>
        <time>2019-04-12T00:48:00Z</time>
      </trkpt>
      <trkpt lat="42.1174" lon="2.41515">
        <ele>608.2</ele>
        <time>2019-04-12T00:48:01Z</time>
      </trkpt>
      <trkpt lat="42.11737" lon="2.41501">
        <ele>608.7</ele>
        <time>2019-04-12T00:48:05Z</time>
      </trkpt>
      <trkpt lat="42.11734" lon="2.41485">
        <ele>611.2</ele>
        <time>2019-04-12T00:48:10Z</time>
      </trkpt>
      <trkpt lat="42.11736" lon="2.41478">
        <ele>612.1</ele>
        <time>2019-04-12T00:48:12Z</time>
      </trkpt>
      <trkpt lat="42.11737" lon="2.41477">
        <ele>612.5</ele>
        <time>2019-04-12T00:48:13Z</time>
      </trkpt>
      <trkpt lat="42.11738" lon="2.41462">
        <ele>613.5</ele>
        <time>2019-04-12T00:48:17Z</time>
      </trkpt>
      <trkpt lat="42.11739" lon="2.4145">
        <ele>612.1</ele>
        <time>2019-04-12T00:48:21Z</time>
      </trkpt>
      <trkpt lat="42.11738" lon="2.41442">
        <ele>613</ele>
        <time>2019-04-12T00:48:23Z</time>
      </trkpt>
      <trkpt lat="42.11739" lon="2.41437">
        <ele>612.5</ele>
        <time>2019-04-12T00:48:25Z</time>
      </trkpt>
      <trkpt lat="42.11736" lon="2.41427">
        <ele>612.5</ele>
        <time>2019-04-12T00:48:28Z</time>
      </trkpt>
      <trkpt lat="42.11733" lon="2.41411">
        <ele>610.2</ele>
        <time>2019-04-12T00:48:33Z</time>
      </trkpt>
      <trkpt lat="42.11731" lon="2.41394">
        <ele>608.2</ele>
        <time>2019-04-12T00:48:38Z</time>
      </trkpt>
      <trkpt lat="42.11729" lon="2.41377">
        <ele>607.8</ele>
        <time>2019-04-12T00:48:43Z</time>
      </trkpt>
      <trkpt lat="42.11723" lon="2.41356">
        <ele>605.4</ele>
        <time>2019-04-12T00:48:50Z</time>
      </trkpt>
      <trkpt lat="42.11723" lon="2.41341">
        <ele>604.4</ele>
        <time>2019-04-12T00:48:54Z</time>
      </trkpt>
      <trkpt lat="42.11723" lon="2.41329">
        <ele>604.4</ele>
        <time>2019-04-12T00:48:58Z</time>
      </trkpt>
      <trkpt lat="42.11722" lon="2.41317">
        <ele>604</ele>
        <time>2019-04-12T00:49:01Z</time>
      </trkpt>
      <trkpt lat="42.11718" lon="2.41299">
        <ele>604.9</ele>
        <time>2019-04-12T00:49:07Z</time>
      </trkpt>
      <trkpt lat="42.11716" lon="2.41286">
        <ele>605.8</ele>
        <time>2019-04-12T00:49:11Z</time>
      </trkpt>
      <trkpt lat="42.11717" lon="2.41271">
        <ele>605.3</ele>
        <time>2019-04-12T00:49:15Z</time>
      </trkpt>
      <trkpt lat="42.11713" lon="2.41257">
        <ele>604.9</ele>
        <time>2019-04-12T00:49:19Z</time>
      </trkpt>
      <trkpt lat="42.11713" lon="2.41256">
        <ele>604.8</ele>
        <time>2019-04-12T00:49:20Z</time>
      </trkpt>
      <trkpt lat="42.11708" lon="2.41251">
        <ele>604.3</ele>
        <time>2019-04-12T00:49:22Z</time>
      </trkpt>
      <trkpt lat="42.11706" lon="2.41248">
        <ele>604.3</ele>
        <time>2019-04-12T00:49:23Z</time>
      </trkpt>
      <trkpt lat="42.117" lon="2.41234">
        <ele>605.8</ele>
        <time>2019-04-12T00:49:28Z</time>
      </trkpt>
      <trkpt lat="42.11698" lon="2.41229">
        <ele>606.4</ele>
        <time>2019-04-12T00:49:30Z</time>
      </trkpt>
      <trkpt lat="42.11693" lon="2.41221">
        <ele>606.8</ele>
        <time>2019-04-12T00:49:33Z</time>
      </trkpt>
      <trkpt lat="42.11693" lon="2.41223">
        <ele>606.3</ele>
        <time>2019-04-12T00:49:33Z</time>
      </trkpt>
      <trkpt lat="42.11686" lon="2.41233">
        <ele>605.3</ele>
        <time>2019-04-12T00:49:37Z</time>
      </trkpt>
      <trkpt lat="42.11685" lon="2.41233">
        <ele>604.8</ele>
        <time>2019-04-12T00:49:38Z</time>
      </trkpt>
      <trkpt lat="42.11684" lon="2.4123">
        <ele>605.3</ele>
        <time>2019-04-12T00:49:39Z</time>
      </trkpt>
      <trkpt lat="42.11677" lon="2.41217">
        <ele>608.8</ele>
        <time>2019-04-12T00:49:43Z</time>
      </trkpt>
      <trkpt lat="42.11673" lon="2.41213">
        <ele>609.7</ele>
        <time>2019-04-12T00:49:45Z</time>
      </trkpt>
      <trkpt lat="42.11662" lon="2.41211">
        <ele>612.5</ele>
        <time>2019-04-12T00:49:50Z</time>
      </trkpt>
      <trkpt lat="42.11656" lon="2.4121">
        <ele>613.5</ele>
        <time>2019-04-12T00:49:52Z</time>
      </trkpt>
      <trkpt lat="42.11643" lon="2.41213">
        <ele>617.3</ele>
        <time>2019-04-12T00:49:58Z</time>
      </trkpt>
      <trkpt lat="42.1164" lon="2.41214">
        <ele>617.8</ele>
        <time>2019-04-12T00:49:59Z</time>
      </trkpt>
      <trkpt lat="42.1163" lon="2.41211">
        <ele>620.3</ele>
        <time>2019-04-12T00:50:03Z</time>
      </trkpt>
      <trkpt lat="42.1162" lon="2.41208">
        <ele>621.7</ele>
        <time>2019-04-12T00:50:07Z</time>
      </trkpt>
      <trkpt lat="42.11611" lon="2.41207">
        <ele>623.1</ele>
        <time>2019-04-12T00:50:10Z</time>
      </trkpt>
      <trkpt lat="42.116" lon="2.41202">
        <ele>625.5</ele>
        <time>2019-04-12T00:50:15Z</time>
      </trkpt>
      <trkpt lat="42.11592" lon="2.41195">
        <ele>626.9</ele>
        <time>2019-04-12T00:50:19Z</time>
      </trkpt>
      <trkpt lat="42.1159" lon="2.41194">
        <ele>627</ele>
        <time>2019-04-12T00:50:20Z</time>
      </trkpt>
      <trkpt lat="42.1158" lon="2.41183">
        <ele>627.5</ele>
        <time>2019-04-12T00:50:25Z</time>
      </trkpt>
      <trkpt lat="42.1157" lon="2.41174">
        <ele>629.3</ele>
        <time>2019-04-12T00:50:30Z</time>
      </trkpt>
      <trkpt lat="42.11564" lon="2.41174">
        <ele>632.8</ele>
        <time>2019-04-12T00:50:32Z</time>
      </trkpt>
      <trkpt lat="42.11562" lon="2.41162">
        <ele>633.7</ele>
        <time>2019-04-12T00:50:36Z</time>
      </trkpt>
      <trkpt lat="42.11564" lon="2.4116">
        <ele>634.2</ele>
        <time>2019-04-12T00:50:37Z</time>
      </trkpt>
      <trkpt lat="42.11564" lon="2.4116">
        <ele>634.7</ele>
        <time>2019-04-12T00:50:37Z</time>
      </trkpt>
      <trkpt lat="42.11569" lon="2.41145">
        <ele>637.1</ele>
        <time>2019-04-12T00:50:42Z</time>
      </trkpt>
      <trkpt lat="42.11569" lon="2.41139">
        <ele>637.5</ele>
        <time>2019-04-12T00:50:44Z</time>
      </trkpt>
      <trkpt lat="42.11567" lon="2.41125">
        <ele>635.6</ele>
        <time>2019-04-12T00:50:48Z</time>
      </trkpt>
      <trkpt lat="42.11564" lon="2.41115">
        <ele>634.6</ele>
        <time>2019-04-12T00:50:51Z</time>
      </trkpt>
      <trkpt lat="42.11561" lon="2.41108">
        <ele>634.1</ele>
        <time>2019-04-12T00:50:54Z</time>
      </trkpt>
      <trkpt lat="42.11557" lon="2.41098">
        <ele>634.7</ele>
        <time>2019-04-12T00:50:57Z</time>
      </trkpt>
      <trkpt lat="42.11556" lon="2.41095">
        <ele>634.6</ele>
        <time>2019-04-12T00:50:58Z</time>
      </trkpt>
      <trkpt lat="42.11549" lon="2.41081">
        <ele>634.7</ele>
        <time>2019-04-12T00:51:03Z</time>
      </trkpt>
      <trkpt lat="42.11549" lon="2.41069">
        <ele>634.6</ele>
        <time>2019-04-12T00:51:06Z</time>
      </trkpt>
      <trkpt lat="42.11547" lon="2.41056">
        <ele>635.2</ele>
        <time>2019-04-12T00:51:10Z</time>
      </trkpt>
      <trkpt lat="42.11542" lon="2.41047">
        <ele>635.6</ele>
        <time>2019-04-12T00:51:14Z</time>
      </trkpt>
      <trkpt lat="42.1154" lon="2.41045">
        <ele>636.5</ele>
        <time>2019-04-12T00:51:15Z</time>
      </trkpt>
      <trkpt lat="42.11531" lon="2.4103">
        <ele>637.5</ele>
        <time>2019-04-12T00:51:20Z</time>
      </trkpt>
      <trkpt lat="42.11525" lon="2.41022">
        <ele>638.9</ele>
        <time>2019-04-12T00:51:24Z</time>
      </trkpt>
      <trkpt lat="42.1152" lon="2.41006">
        <ele>639.4</ele>
        <time>2019-04-12T00:51:29Z</time>
      </trkpt>
      <trkpt lat="42.11517" lon="2.40999">
        <ele>639.4</ele>
        <time>2019-04-12T00:51:31Z</time>
      </trkpt>
      <trkpt lat="42.11512" lon="2.40989">
        <ele>640</ele>
        <time>2019-04-12T00:51:35Z</time>
      </trkpt>
      <trkpt lat="42.11505" lon="2.40981">
        <ele>640.9</ele>
        <time>2019-04-12T00:51:39Z</time>
      </trkpt>
      <trkpt lat="42.11505" lon="2.40977">
        <ele>641</ele>
        <time>2019-04-12T00:51:40Z</time>
      </trkpt>
      <trkpt lat="42.11505" lon="2.40965">
        <ele>641.4</ele>
        <time>2019-04-12T00:51:43Z</time>
      </trkpt>
      <trkpt lat="42.11502" lon="2.40962">
        <ele>641.9</ele>
        <time>2019-04-12T00:51:45Z</time>
      </trkpt>
      <trkpt lat="42.11494" lon="2.4096">
        <ele>643.7</ele>
        <time>2019-04-12T00:51:48Z</time>
      </trkpt>
      <trkpt lat="42.11489" lon="2.40958">
        <ele>646.2</ele>
        <time>2019-04-12T00:51:50Z</time>
      </trkpt>
      <trkpt lat="42.11486" lon="2.40956">
        <ele>647.2</ele>
        <time>2019-04-12T00:51:52Z</time>
      </trkpt>
      <trkpt lat="42.11478" lon="2.4095">
        <ele>649</ele>
        <time>2019-04-12T00:51:55Z</time>
      </trkpt>
      <trkpt lat="42.11474" lon="2.4094">
        <ele>649.5</ele>
        <time>2019-04-12T00:51:58Z</time>
      </trkpt>
      <trkpt lat="42.11471" lon="2.40934">
        <ele>650.5</ele>
        <time>2019-04-12T00:52:01Z</time>
      </trkpt>
      <trkpt lat="42.11466" lon="2.40924">
        <ele>651.9</ele>
        <time>2019-04-12T00:52:04Z</time>
      </trkpt>
      <trkpt lat="42.11462" lon="2.40918">
        <ele>653</ele>
        <time>2019-04-12T00:52:07Z</time>
      </trkpt>
      <trkpt lat="42.11453" lon="2.40908">
        <ele>655.3</ele>
        <time>2019-04-12T00:52:11Z</time>
      </trkpt>
      <trkpt lat="42.11447" lon="2.40897">
        <ele>657.8</ele>
        <time>2019-04-12T00:52:15Z</time>
      </trkpt>
      <trkpt lat="42.11437" lon="2.40888">
        <ele>659.2</ele>
        <time>2019-04-12T00:52:20Z</time>
      </trkpt>
      <trkpt lat="42.11429" lon="2.40878">
        <ele>659.7</ele>
        <time>2019-04-12T00:52:24Z</time>
      </trkpt>
      <trkpt lat="42.11422" lon="2.40873">
        <ele>659.1</ele>
        <time>2019-04-12T00:52:28Z</time>
      </trkpt>
      <trkpt lat="42.11417" lon="2.40867">
        <ele>659.1</ele>
        <time>2019-04-12T00:52:30Z</time>
      </trkpt>
      <trkpt lat="42.11416" lon="2.40865">
        <ele>658.6</ele>
        <time>2019-04-12T00:52:31Z</time>
      </trkpt>
      <trkpt lat="42.11404" lon="2.40857">
        <ele>659.6</ele>
        <time>2019-04-12T00:52:36Z</time>
      </trkpt>
      <trkpt lat="42.11398" lon="2.40857">
        <ele>661.6</ele>
        <time>2019-04-12T00:52:39Z</time>
      </trkpt>
      <trkpt lat="42.11387" lon="2.40855">
        <ele>664.4</ele>
        <time>2019-04-12T00:52:43Z</time>
      </trkpt>
      <trkpt lat="42.11381" lon="2.40856">
        <ele>666.4</ele>
        <time>2019-04-12T00:52:46Z</time>
      </trkpt>
      <trkpt lat="42.11376" lon="2.40848">
        <ele>667.3</ele>
        <time>2019-04-12T00:52:49Z</time>
      </trkpt>
      <trkpt lat="42.11375" lon="2.40844">
        <ele>666.9</ele>
        <time>2019-04-12T00:52:50Z</time>
      </trkpt>
      <trkpt lat="42.11379" lon="2.40835">
        <ele>667.3</ele>
        <time>2019-04-12T00:52:53Z</time>
      </trkpt>
      <trkpt lat="42.11387" lon="2.40839">
        <ele>667.8</ele>
        <time>2019-04-12T00:52:57Z</time>
      </trkpt>
      <trkpt lat="42.11398" lon="2.4084">
        <ele>667.8</ele>
        <time>2019-04-12T00:53:01Z</time>
      </trkpt>
      <trkpt lat="42.11411" lon="2.40837">
        <ele>668.7</ele>
        <time>2019-04-12T00:53:06Z</time>
      </trkpt>
      <trkpt lat="42.11421" lon="2.40838">
        <ele>669.2</ele>
        <time>2019-04-12T00:53:10Z</time>
      </trkpt>
      <trkpt lat="42.11428" lon="2.40832">
        <ele>669.7</ele>
        <time>2019-04-12T00:53:14Z</time>
      </trkpt>
      <trkpt lat="42.11434" lon="2.40817">
        <ele>670.7</ele>
        <time>2019-04-12T00:53:19Z</time>
      </trkpt>
      <trkpt lat="42.11434" lon="2.40814">
        <ele>671.2</ele>
        <time>2019-04-12T00:53:20Z</time>
      </trkpt>
      <trkpt lat="42.11434" lon="2.4081">
        <ele>671.1</ele>
        <time>2019-04-12T00:53:21Z</time>
      </trkpt>
      <trkpt lat="42.11428" lon="2.40799">
        <ele>670.8</ele>
        <time>2019-04-12T00:53:25Z</time>
      </trkpt>
      <trkpt lat="42.11418" lon="2.4079">
        <ele>671.1</ele>
        <time>2019-04-12T00:53:29Z</time>
      </trkpt>
      <trkpt lat="42.11413" lon="2.40779">
        <ele>670.3</ele>
        <time>2019-04-12T00:53:33Z</time>
      </trkpt>
      <trkpt lat="42.11414" lon="2.40774">
        <ele>670.2</ele>
        <time>2019-04-12T00:53:35Z</time>
      </trkpt>
      <trkpt lat="42.1141" lon="2.40758">
        <ele>669.8</ele>
        <time>2019-04-12T00:53:40Z</time>
      </trkpt>
      <trkpt lat="42.11407" lon="2.40743">
        <ele>669.7</ele>
        <time>2019-04-12T00:53:44Z</time>
      </trkpt>
      <trkpt lat="42.11406" lon="2.4074">
        <ele>670.2</ele>
        <time>2019-04-12T00:53:45Z</time>
      </trkpt>
      <trkpt lat="42.11402" lon="2.40732">
        <ele>670.7</ele>
        <time>2019-04-12T00:53:48Z</time>
      </trkpt>
      <trkpt lat="42.11405" lon="2.40718">
        <ele>669.7</ele>
        <time>2019-04-12T00:53:53Z</time>
      </trkpt>
      <trkpt lat="42.11409" lon="2.40701">
        <ele>668.7</ele>
        <time>2019-04-12T00:53:58Z</time>
      </trkpt>
      <trkpt lat="42.11406" lon="2.40691">
        <ele>668.8</ele>
        <time>2019-04-12T00:54:01Z</time>
      </trkpt>
      <trkpt lat="42.11403" lon="2.40678">
        <ele>668.3</ele>
        <time>2019-04-12T00:54:05Z</time>
      </trkpt>
      <trkpt lat="42.11402" lon="2.40673">
        <ele>668.4</ele>
        <time>2019-04-12T00:54:06Z</time>
      </trkpt>
      <trkpt lat="42.11397" lon="2.40662">
        <ele>668.7</ele>
        <time>2019-04-12T00:54:10Z</time>
      </trkpt>
      <trkpt lat="42.11392" lon="2.40652">
        <ele>670.3</ele>
        <time>2019-04-12T00:54:14Z</time>
      </trkpt>
      <trkpt lat="42.1139" lon="2.40638">
        <ele>672.7</ele>
        <time>2019-04-12T00:54:18Z</time>
      </trkpt>
      <trkpt lat="42.11389" lon="2.40633">
        <ele>673.1</ele>
        <time>2019-04-12T00:54:20Z</time>
      </trkpt>
      <trkpt lat="42.11385" lon="2.40619">
        <ele>675</ele>
        <time>2019-04-12T00:54:24Z</time>
      </trkpt>
      <trkpt lat="42.11378" lon="2.40605">
        <ele>677.4</ele>
        <time>2019-04-12T00:54:29Z</time>
      </trkpt>
      <trkpt lat="42.1137" lon="2.40593">
        <ele>679.3</ele>
        <time>2019-04-12T00:54:34Z</time>
      </trkpt>
      <trkpt lat="42.11361" lon="2.4058">
        <ele>685.6</ele>
        <time>2019-04-12T00:54:39Z</time>
      </trkpt>
      <trkpt lat="42.11359" lon="2.4057">
        <ele>686.1</ele>
        <time>2019-04-12T00:54:42Z</time>
      </trkpt>
      <trkpt lat="42.11361" lon="2.40551">
        <ele>686.6</ele>
        <time>2019-04-12T00:54:48Z</time>
      </trkpt>
      <trkpt lat="42.11361" lon="2.40537">
        <ele>686.1</ele>
        <time>2019-04-12T00:54:52Z</time>
      </trkpt>
      <trkpt lat="42.11363" lon="2.40521">
        <ele>687.5</ele>
        <time>2019-04-12T00:54:57Z</time>
      </trkpt>
      <trkpt lat="42.11363" lon="2.40514">
        <ele>689</ele>
        <time>2019-04-12T00:54:59Z</time>
      </trkpt>
      <trkpt lat="42.11364" lon="2.40508">
        <ele>688.5</ele>
        <time>2019-04-12T00:55:01Z</time>
      </trkpt>
      <trkpt lat="42.11365" lon="2.40497">
        <ele>688</ele>
        <time>2019-04-12T00:55:04Z</time>
      </trkpt>
      <trkpt lat="42.11367" lon="2.40485">
        <ele>686.5</ele>
        <time>2019-04-12T00:55:08Z</time>
      </trkpt>
      <trkpt lat="42.1137" lon="2.40464">
        <ele>686.5</ele>
        <time>2019-04-12T00:55:14Z</time>
      </trkpt>
      <trkpt lat="42.1137" lon="2.4045">
        <ele>686.5</ele>
        <time>2019-04-12T00:55:18Z</time>
      </trkpt>
      <trkpt lat="42.1137" lon="2.40448">
        <ele>686.6</ele>
        <time>2019-04-12T00:55:19Z</time>
      </trkpt>
      <trkpt lat="42.11369" lon="2.40429">
        <ele>686</ele>
        <time>2019-04-12T00:55:24Z</time>
      </trkpt>
      <trkpt lat="42.11372" lon="2.40414">
        <ele>687.1</ele>
        <time>2019-04-12T00:55:29Z</time>
      </trkpt>
      <trkpt lat="42.11377" lon="2.40407">
        <ele>687.1</ele>
        <time>2019-04-12T00:55:32Z</time>
      </trkpt>
      <trkpt lat="42.1138" lon="2.40396">
        <ele>687.6</ele>
        <time>2019-04-12T00:55:35Z</time>
      </trkpt>
      <trkpt lat="42.11376" lon="2.40389">
        <ele>687</ele>
        <time>2019-04-12T00:55:38Z</time>
      </trkpt>
      <trkpt lat="42.11368" lon="2.40374">
        <ele>688</ele>
        <time>2019-04-12T00:55:43Z</time>
      </trkpt>
      <trkpt lat="42.11366" lon="2.40365">
        <ele>686.5</ele>
        <time>2019-04-12T00:55:46Z</time>
      </trkpt>
      <trkpt lat="42.11364" lon="2.40356">
        <ele>686.5</ele>
        <time>2019-04-12T00:55:49Z</time>
      </trkpt>
      <trkpt lat="42.1136" lon="2.40341">
        <ele>686.5</ele>
        <time>2019-04-12T00:55:54Z</time>
      </trkpt>
      <trkpt lat="42.11361" lon="2.40328">
        <ele>687.6</ele>
        <time>2019-04-12T00:55:58Z</time>
      </trkpt>
      <trkpt lat="42.11361" lon="2.40319">
        <ele>688.1</ele>
        <time>2019-04-12T00:56:00Z</time>
      </trkpt>
      <trkpt lat="42.11361" lon="2.40303">
        <ele>689</ele>
        <time>2019-04-12T00:56:05Z</time>
      </trkpt>
      <trkpt lat="42.11361" lon="2.40302">
        <ele>689.4</ele>
        <time>2019-04-12T00:56:05Z</time>
      </trkpt>
      <trkpt lat="42.11362" lon="2.4029">
        <ele>690.4</ele>
        <time>2019-04-12T00:56:09Z</time>
      </trkpt>
      <trkpt lat="42.11363" lon="2.40272">
        <ele>691.4</ele>
        <time>2019-04-12T00:56:14Z</time>
      </trkpt>
      <trkpt lat="42.11364" lon="2.40267">
        <ele>691.8</ele>
        <time>2019-04-12T00:56:16Z</time>
      </trkpt>
      <trkpt lat="42.11368" lon="2.40253">
        <ele>693.4</ele>
        <time>2019-04-12T00:56:20Z</time>
      </trkpt>
      <trkpt lat="42.1138" lon="2.40237">
        <ele>695.2</ele>
        <time>2019-04-12T00:56:27Z</time>
      </trkpt>
      <trkpt lat="42.11386" lon="2.40226">
        <ele>696.6</ele>
        <time>2019-04-12T00:56:31Z</time>
      </trkpt>
      <trkpt lat="42.11391" lon="2.40217">
        <ele>697.6</ele>
        <time>2019-04-12T00:56:34Z</time>
      </trkpt>
      <trkpt lat="42.11397" lon="2.40209">
        <ele>699.1</ele>
        <time>2019-04-12T00:56:38Z</time>
      </trkpt>
      <trkpt lat="42.11408" lon="2.40196">
        <ele>702</ele>
        <time>2019-04-12T00:56:44Z</time>
      </trkpt>
      <trkpt lat="42.11412" lon="2.40186">
        <ele>703.8</ele>
        <time>2019-04-12T00:56:47Z</time>
      </trkpt>
      <trkpt lat="42.1142" lon="2.40188">
        <ele>705.3</ele>
        <time>2019-04-12T00:56:50Z</time>
      </trkpt>
      <trkpt lat="42.11425" lon="2.40182">
        <ele>706.3</ele>
        <time>2019-04-12T00:56:53Z</time>
      </trkpt>
      <trkpt lat="42.11433" lon="2.40168">
        <ele>706.3</ele>
        <time>2019-04-12T00:56:58Z</time>
      </trkpt>
      <trkpt lat="42.11442" lon="2.40161">
        <ele>705.8</ele>
        <time>2019-04-12T00:57:02Z</time>
      </trkpt>
      <trkpt lat="42.11447" lon="2.40156">
        <ele>705.9</ele>
        <time>2019-04-12T00:57:05Z</time>
      </trkpt>
      <trkpt lat="42.11452" lon="2.40149">
        <ele>706.3</ele>
        <time>2019-04-12T00:57:07Z</time>
      </trkpt>
      <trkpt lat="42.11453" lon="2.40145">
        <ele>706.2</ele>
        <time>2019-04-12T00:57:09Z</time>
      </trkpt>
      <trkpt lat="42.11457" lon="2.40134">
        <ele>707.2</ele>
        <time>2019-04-12T00:57:12Z</time>
      </trkpt>
      <trkpt lat="42.11461" lon="2.40124">
        <ele>708.3</ele>
        <time>2019-04-12T00:57:16Z</time>
      </trkpt>
      <trkpt lat="42.11472" lon="2.40114">
        <ele>710.1</ele>
        <time>2019-04-12T00:57:21Z</time>
      </trkpt>
      <trkpt lat="42.11479" lon="2.40106">
        <ele>712</ele>
        <time>2019-04-12T00:57:25Z</time>
      </trkpt>
      <trkpt lat="42.11488" lon="2.40095">
        <ele>714.4</ele>
        <time>2019-04-12T00:57:30Z</time>
      </trkpt>
      <trkpt lat="42.11495" lon="2.40088">
        <ele>715.5</ele>
        <time>2019-04-12T00:57:33Z</time>
      </trkpt>
      <trkpt lat="42.11495" lon="2.40077">
        <ele>716.4</ele>
        <time>2019-04-12T00:57:36Z</time>
      </trkpt>
      <trkpt lat="42.11493" lon="2.40068">
        <ele>717.4</ele>
        <time>2019-04-12T00:57:39Z</time>
      </trkpt>
      <trkpt lat="42.11493" lon="2.40054">
        <ele>718.3</ele>
        <time>2019-04-12T00:57:43Z</time>
      </trkpt>
      <trkpt lat="42.11495" lon="2.4005">
        <ele>718.2</ele>
        <time>2019-04-12T00:57:44Z</time>
      </trkpt>
      <trkpt lat="42.11499" lon="2.40046">
        <ele>719.2</ele>
        <time>2019-04-12T00:57:47Z</time>
      </trkpt>
      <trkpt lat="42.11507" lon="2.40045">
        <ele>721.6</ele>
        <time>2019-04-12T00:57:50Z</time>
      </trkpt>
      <trkpt lat="42.1151" lon="2.40042">
        <ele>722.7</ele>
        <time>2019-04-12T00:57:51Z</time>
      </trkpt>
      <trkpt lat="42.1151" lon="2.40042">
        <ele>723.1</ele>
        <time>2019-04-12T00:57:51Z</time>
      </trkpt>
      <trkpt lat="42.11511" lon="2.40041">
        <ele>723.2</ele>
        <time>2019-04-12T00:57:52Z</time>
      </trkpt>
      <trkpt lat="42.11514" lon="2.40041">
        <ele>723.6</ele>
        <time>2019-04-12T00:57:53Z</time>
      </trkpt>
      <trkpt lat="42.11514" lon="2.40041">
        <ele>723.6</ele>
        <time>2019-04-12T00:57:53Z</time>
      </trkpt>
      <trkpt lat="42.11514" lon="2.4004">
        <ele>723.5</ele>
        <time>2019-04-12T00:57:53Z</time>
      </trkpt>
      <trkpt lat="42.11516" lon="2.4003">
        <ele>724</ele>
        <time>2019-04-12T00:57:56Z</time>
      </trkpt>
      <trkpt lat="42.11517" lon="2.40029">
        <ele>724</ele>
        <time>2019-04-12T00:57:57Z</time>
      </trkpt>
      <trkpt lat="42.11521" lon="2.40021">
        <ele>724.6</ele>
        <time>2019-04-12T00:58:00Z</time>
      </trkpt>
      <trkpt lat="42.11527" lon="2.40011">
        <ele>727.4</ele>
        <time>2019-04-12T00:58:03Z</time>
      </trkpt>
      <trkpt lat="42.11535" lon="2.4">
        <ele>730.7</ele>
        <time>2019-04-12T00:58:08Z</time>
      </trkpt>
      <trkpt lat="42.1154" lon="2.39992">
        <ele>732.2</ele>
        <time>2019-04-12T00:58:11Z</time>
      </trkpt>
      <trkpt lat="42.1154" lon="2.39989">
        <ele>733.2</ele>
        <time>2019-04-12T00:58:12Z</time>
      </trkpt>
      <trkpt lat="42.11545" lon="2.39982">
        <ele>734.6</ele>
        <time>2019-04-12T00:58:15Z</time>
      </trkpt>
      <trkpt lat="42.1155" lon="2.3997">
        <ele>736</ele>
        <time>2019-04-12T00:58:19Z</time>
      </trkpt>
      <trkpt lat="42.11554" lon="2.39963">
        <ele>736.5</ele>
        <time>2019-04-12T00:58:21Z</time>
      </trkpt>
      <trkpt lat="42.11559" lon="2.39955">
        <ele>737</ele>
        <time>2019-04-12T00:58:24Z</time>
      </trkpt>
      <trkpt lat="42.11561" lon="2.39941">
        <ele>738.1</ele>
        <time>2019-04-12T00:58:29Z</time>
      </trkpt>
      <trkpt lat="42.11559" lon="2.39928">
        <ele>741.4</ele>
        <time>2019-04-12T00:58:33Z</time>
      </trkpt>
      <trkpt lat="42.11558" lon="2.39918">
        <ele>743.3</ele>
        <time>2019-04-12T00:58:36Z</time>
      </trkpt>
      <trkpt lat="42.11558" lon="2.39911">
        <ele>744.2</ele>
        <time>2019-04-12T00:58:38Z</time>
      </trkpt>
      <trkpt lat="42.11556" lon="2.39904">
        <ele>746.1</ele>
        <time>2019-04-12T00:58:40Z</time>
      </trkpt>
      <trkpt lat="42.11552" lon="2.39898">
        <ele>747.6</ele>
        <time>2019-04-12T00:58:42Z</time>
      </trkpt>
      <trkpt lat="42.11546" lon="2.39897">
        <ele>750.1</ele>
        <time>2019-04-12T00:58:45Z</time>
      </trkpt>
      <trkpt lat="42.11542" lon="2.39903">
        <ele>752.5</ele>
        <time>2019-04-12T00:58:47Z</time>
      </trkpt>
      <trkpt lat="42.11534" lon="2.39909">
        <ele>757.3</ele>
        <time>2019-04-12T00:58:51Z</time>
      </trkpt>
      <trkpt lat="42.11526" lon="2.39913">
        <ele>759.1</ele>
        <time>2019-04-12T00:58:54Z</time>
      </trkpt>
      <trkpt lat="42.11517" lon="2.39911">
        <ele>761.1</ele>
        <time>2019-04-12T00:58:58Z</time>
      </trkpt>
      <trkpt lat="42.11511" lon="2.39905">
        <ele>761</ele>
        <time>2019-04-12T00:59:01Z</time>
      </trkpt>
      <trkpt lat="42.11506" lon="2.39899">
        <ele>761.6</ele>
        <time>2019-04-12T00:59:03Z</time>
      </trkpt>
      <trkpt lat="42.11499" lon="2.39893">
        <ele>762.1</ele>
        <time>2019-04-12T00:59:07Z</time>
      </trkpt>
      <trkpt lat="42.11491" lon="2.39883">
        <ele>762.9</ele>
        <time>2019-04-12T00:59:11Z</time>
      </trkpt>
      <trkpt lat="42.11485" lon="2.39873">
        <ele>763.4</ele>
        <time>2019-04-12T00:59:15Z</time>
      </trkpt>
      <trkpt lat="42.1148" lon="2.39863">
        <ele>764.4</ele>
        <time>2019-04-12T00:59:19Z</time>
      </trkpt>
      <trkpt lat="42.11472" lon="2.39854">
        <ele>765.9</ele>
        <time>2019-04-12T00:59:23Z</time>
      </trkpt>
      <trkpt lat="42.11463" lon="2.39847">
        <ele>767.3</ele>
        <time>2019-04-12T00:59:27Z</time>
      </trkpt>
      <trkpt lat="42.11454" lon="2.39836">
        <ele>767.4</ele>
        <time>2019-04-12T00:59:32Z</time>
      </trkpt>
      <trkpt lat="42.11447" lon="2.39827">
        <ele>766.3</ele>
        <time>2019-04-12T00:59:36Z</time>
      </trkpt>
      <trkpt lat="42.11439" lon="2.39819">
        <ele>765.5</ele>
        <time>2019-04-12T00:59:40Z</time>
      </trkpt>
      <trkpt lat="42.11436" lon="2.39809">
        <ele>764.5</ele>
        <time>2019-04-12T00:59:43Z</time>
      </trkpt>
      <trkpt lat="42.11437" lon="2.39792">
        <ele>764.5</ele>
        <time>2019-04-12T00:59:48Z</time>
      </trkpt>
      <trkpt lat="42.11441" lon="2.3978">
        <ele>764.5</ele>
        <time>2019-04-12T00:59:52Z</time>
      </trkpt>
      <trkpt lat="42.11442" lon="2.39762">
        <ele>763.9</ele>
        <time>2019-04-12T00:59:57Z</time>
      </trkpt>
      <trkpt lat="42.11445" lon="2.39748">
        <ele>763.9</ele>
        <time>2019-04-12T01:00:01Z</time>
      </trkpt>
      <trkpt lat="42.11447" lon="2.39745">
        <ele>763.5</ele>
        <time>2019-04-12T01:00:03Z</time>
      </trkpt>
      <trkpt lat="42.11444" lon="2.39743">
        <ele>763</ele>
        <time>2019-04-12T01:00:04Z</time>
      </trkpt>
      <trkpt lat="42.11444" lon="2.39743">
        <ele>762.9</ele>
        <time>2019-04-12T01:00:04Z</time>
      </trkpt>
      <trkpt lat="42.11444" lon="2.39743">
        <ele>762.9</ele>
        <time>2019-04-12T01:00:04Z</time>
      </trkpt>
      <trkpt lat="42.11444" lon="2.39743">
        <ele>762.9</ele>
        <time>2019-04-12T01:00:04Z</time>
      </trkpt>
      <trkpt lat="42.11444" lon="2.39743">
        <ele>763</ele>
        <time>2019-04-12T01:00:04Z</time>
      </trkpt>
      <trkpt lat="42.11444" lon="2.39743">
        <ele>762.9</ele>
        <time>2019-04-12T01:00:04Z</time>
      </trkpt>
      <trkpt lat="42.11444" lon="2.39742">
        <ele>763.5</ele>
        <time>2019-04-12T01:00:04Z</time>
      </trkpt>
      <trkpt lat="42.11443" lon="2.39734">
        <ele>766.9</ele>
        <time>2019-04-12T01:00:07Z</time>
      </trkpt>
      <trkpt lat="42.11441" lon="2.39726">
        <ele>775.4</ele>
        <time>2019-04-12T01:00:09Z</time>
      </trkpt>
      <trkpt lat="42.1144" lon="2.39717">
        <ele>778.3</ele>
        <time>2019-04-12T01:00:12Z</time>
      </trkpt>
      <trkpt lat="42.11441" lon="2.3971">
        <ele>778.9</ele>
        <time>2019-04-12T01:00:14Z</time>
      </trkpt>
      <trkpt lat="42.11442" lon="2.39695">
        <ele>778.4</ele>
        <time>2019-04-12T01:00:18Z</time>
      </trkpt>
      <trkpt lat="42.11448" lon="2.39691">
        <ele>776</ele>
        <time>2019-04-12T01:00:21Z</time>
      </trkpt>
      <trkpt lat="42.11453" lon="2.39693">
        <ele>773.5</ele>
        <time>2019-04-12T01:00:23Z</time>
      </trkpt>
      <trkpt lat="42.1146" lon="2.39692">
        <ele>772.2</ele>
        <time>2019-04-12T01:00:26Z</time>
      </trkpt>
      <trkpt lat="42.11467" lon="2.39694">
        <ele>769.3</ele>
        <time>2019-04-12T01:00:29Z</time>
      </trkpt>
      <trkpt lat="42.11467" lon="2.39694">
        <ele>769.2</ele>
        <time>2019-04-12T01:00:29Z</time>
      </trkpt>
      <trkpt lat="42.11467" lon="2.39693">
        <ele>768.8</ele>
        <time>2019-04-12T01:00:29Z</time>
      </trkpt>
      <trkpt lat="42.11467" lon="2.39693">
        <ele>768.8</ele>
        <time>2019-04-12T01:00:29Z</time>
      </trkpt>
      <trkpt lat="42.11469" lon="2.39691">
        <ele>767.8</ele>
        <time>2019-04-12T01:00:30Z</time>
      </trkpt>
      <trkpt lat="42.11472" lon="2.39684">
        <ele>766.8</ele>
        <time>2019-04-12T01:00:33Z</time>
      </trkpt>
      <trkpt lat="42.11471" lon="2.39682">
        <ele>766.9</ele>
        <time>2019-04-12T01:00:34Z</time>
      </trkpt>
      <trkpt lat="42.11466" lon="2.39673">
        <ele>766.9</ele>
        <time>2019-04-12T01:00:37Z</time>
      </trkpt>
      <trkpt lat="42.11461" lon="2.39666">
        <ele>767.9</ele>
        <time>2019-04-12T01:00:40Z</time>
      </trkpt>
      <trkpt lat="42.1146" lon="2.39664">
        <ele>767.9</ele>
        <time>2019-04-12T01:00:41Z</time>
      </trkpt>
      <trkpt lat="42.11458" lon="2.39649">
        <ele>768.3</ele>
        <time>2019-04-12T01:00:45Z</time>
      </trkpt>
      <trkpt lat="42.11455" lon="2.39634">
        <ele>769.2</ele>
        <time>2019-04-12T01:00:50Z</time>
      </trkpt>
      <trkpt lat="42.11455" lon="2.39627">
        <ele>769.7</ele>
        <time>2019-04-12T01:00:52Z</time>
      </trkpt>
      <trkpt lat="42.11458" lon="2.39613">
        <ele>769.7</ele>
        <time>2019-04-12T01:00:56Z</time>
      </trkpt>
      <trkpt lat="42.11458" lon="2.39613">
        <ele>769.7</ele>
        <time>2019-04-12T01:00:56Z</time>
      </trkpt>
      <trkpt lat="42.11459" lon="2.39609">
        <ele>769.7</ele>
        <time>2019-04-12T01:00:57Z</time>
      </trkpt>
      <trkpt lat="42.11459" lon="2.39608">
        <ele>769.7</ele>
        <time>2019-04-12T01:00:58Z</time>
      </trkpt>
      <trkpt lat="42.11462" lon="2.39592">
        <ele>771.2</ele>
        <time>2019-04-12T01:01:03Z</time>
      </trkpt>
      <trkpt lat="42.11461" lon="2.39589">
        <ele>771.6</ele>
        <time>2019-04-12T01:01:04Z</time>
      </trkpt>
      <trkpt lat="42.11459" lon="2.39574">
        <ele>776.9</ele>
        <time>2019-04-12T01:01:08Z</time>
      </trkpt>
      <trkpt lat="42.11459" lon="2.3957">
        <ele>778.3</ele>
        <time>2019-04-12T01:01:09Z</time>
      </trkpt>
      <trkpt lat="42.11457" lon="2.39552">
        <ele>781.3</ele>
        <time>2019-04-12T01:01:15Z</time>
      </trkpt>
      <trkpt lat="42.11456" lon="2.39549">
        <ele>781.3</ele>
        <time>2019-04-12T01:01:16Z</time>
      </trkpt>
      <trkpt lat="42.11452" lon="2.39534">
        <ele>783.2</ele>
        <time>2019-04-12T01:01:20Z</time>
      </trkpt>
      <trkpt lat="42.11449" lon="2.39531">
        <ele>784.7</ele>
        <time>2019-04-12T01:01:22Z</time>
      </trkpt>
      <trkpt lat="42.11444" lon="2.39522">
        <ele>786.5</ele>
        <time>2019-04-12T01:01:25Z</time>
      </trkpt>
      <trkpt lat="42.11444" lon="2.3952">
        <ele>787</ele>
        <time>2019-04-12T01:01:26Z</time>
      </trkpt>
      <trkpt lat="42.11441" lon="2.39509">
        <ele>789.4</ele>
        <time>2019-04-12T01:01:29Z</time>
      </trkpt>
      <trkpt lat="42.11441" lon="2.39498">
        <ele>791.9</ele>
        <time>2019-04-12T01:01:32Z</time>
      </trkpt>
      <trkpt lat="42.11439" lon="2.3949">
        <ele>793.7</ele>
        <time>2019-04-12T01:01:35Z</time>
      </trkpt>
      <trkpt lat="42.1144" lon="2.39474">
        <ele>797.2</ele>
        <time>2019-04-12T01:01:40Z</time>
      </trkpt>
      <trkpt lat="42.11439" lon="2.3947">
        <ele>798.1</ele>
        <time>2019-04-12T01:01:41Z</time>
      </trkpt>
      <trkpt lat="42.11437" lon="2.39466">
        <ele>799</ele>
        <time>2019-04-12T01:01:42Z</time>
      </trkpt>
      <trkpt lat="42.11431" lon="2.39458">
        <ele>801.4</ele>
        <time>2019-04-12T01:01:46Z</time>
      </trkpt>
      <trkpt lat="42.11425" lon="2.39455">
        <ele>802.9</ele>
        <time>2019-04-12T01:01:48Z</time>
      </trkpt>
      <trkpt lat="42.1142" lon="2.39443">
        <ele>803.9</ele>
        <time>2019-04-12T01:01:52Z</time>
      </trkpt>
      <trkpt lat="42.11418" lon="2.39432">
        <ele>804.9</ele>
        <time>2019-04-12T01:01:55Z</time>
      </trkpt>
      <trkpt lat="42.11414" lon="2.3942">
        <ele>805.2</ele>
        <time>2019-04-12T01:01:59Z</time>
      </trkpt>
      <trkpt lat="42.11414" lon="2.39418">
        <ele>805.2</ele>
        <time>2019-04-12T01:02:00Z</time>
      </trkpt>
      <trkpt lat="42.11415" lon="2.39408">
        <ele>806.7</ele>
        <time>2019-04-12T01:02:03Z</time>
      </trkpt>
      <trkpt lat="42.11417" lon="2.39403">
        <ele>807.2</ele>
        <time>2019-04-12T01:02:05Z</time>
      </trkpt>
      <trkpt lat="42.11424" lon="2.39407">
        <ele>808.7</ele>
        <time>2019-04-12T01:02:08Z</time>
      </trkpt>
      <trkpt lat="42.11425" lon="2.39408">
        <ele>809.1</ele>
        <time>2019-04-12T01:02:09Z</time>
      </trkpt>
      <trkpt lat="42.11433" lon="2.39418">
        <ele>813</ele>
        <time>2019-04-12T01:02:13Z</time>
      </trkpt>
      <trkpt lat="42.1144" lon="2.39431">
        <ele>814</ele>
        <time>2019-04-12T01:02:18Z</time>
      </trkpt>
      <trkpt lat="42.11442" lon="2.39426">
        <ele>814</ele>
        <time>2019-04-12T01:02:19Z</time>
      </trkpt>
      <trkpt lat="42.11441" lon="2.39423">
        <ele>813.9</ele>
        <time>2019-04-12T01:02:20Z</time>
      </trkpt>
      <trkpt lat="42.11437" lon="2.39407">
        <ele>815.3</ele>
        <time>2019-04-12T01:02:26Z</time>
      </trkpt>
      <trkpt lat="42.11434" lon="2.39396">
        <ele>815.8</ele>
        <time>2019-04-12T01:02:29Z</time>
      </trkpt>
      <trkpt lat="42.11433" lon="2.39389">
        <ele>815.8</ele>
        <time>2019-04-12T01:02:31Z</time>
      </trkpt>
      <trkpt lat="42.1143" lon="2.39373">
        <ele>816.9</ele>
        <time>2019-04-12T01:02:36Z</time>
      </trkpt>
      <trkpt lat="42.11429" lon="2.39361">
        <ele>818.3</ele>
        <time>2019-04-12T01:02:40Z</time>
      </trkpt>
      <trkpt lat="42.11429" lon="2.39359">
        <ele>818.2</ele>
        <time>2019-04-12T01:02:40Z</time>
      </trkpt>
      <trkpt lat="42.11431" lon="2.3935">
        <ele>818.3</ele>
        <time>2019-04-12T01:02:43Z</time>
      </trkpt>
      <trkpt lat="42.11431" lon="2.39335">
        <ele>818.7</ele>
        <time>2019-04-12T01:02:48Z</time>
      </trkpt>
      <trkpt lat="42.11432" lon="2.39325">
        <ele>818.7</ele>
        <time>2019-04-12T01:02:50Z</time>
      </trkpt>
      <trkpt lat="42.11433" lon="2.39311">
        <ele>820.2</ele>
        <time>2019-04-12T01:02:55Z</time>
      </trkpt>
      <trkpt lat="42.11434" lon="2.39294">
        <ele>820.7</ele>
        <time>2019-04-12T01:03:00Z</time>
      </trkpt>
      <trkpt lat="42.11435" lon="2.39281">
        <ele>821.2</ele>
        <time>2019-04-12T01:03:04Z</time>
      </trkpt>
      <trkpt lat="42.11435" lon="2.39264">
        <ele>822.6</ele>
        <time>2019-04-12T01:03:09Z</time>
      </trkpt>
      <trkpt lat="42.11438" lon="2.39247">
        <ele>822.6</ele>
        <time>2019-04-12T01:03:14Z</time>
      </trkpt>
      <trkpt lat="42.11441" lon="2.39236">
        <ele>823.1</ele>
        <time>2019-04-12T01:03:17Z</time>
      </trkpt>
      <trkpt lat="42.11446" lon="2.3923">
        <ele>823.1</ele>
        <time>2019-04-12T01:03:20Z</time>
      </trkpt>
      <trkpt lat="42.11457" lon="2.39217">
        <ele>823</ele>
        <time>2019-04-12T01:03:26Z</time>
      </trkpt>
      <trkpt lat="42.11461" lon="2.39213">
        <ele>823.1</ele>
        <time>2019-04-12T01:03:28Z</time>
      </trkpt>
      <trkpt lat="42.11471" lon="2.392">
        <ele>823</ele>
        <time>2019-04-12T01:03:33Z</time>
      </trkpt>
      <trkpt lat="42.11476" lon="2.39194">
        <ele>823.1</ele>
        <time>2019-04-12T01:03:36Z</time>
      </trkpt>
      <trkpt lat="42.11482" lon="2.39187">
        <ele>823.6</ele>
        <time>2019-04-12T01:03:39Z</time>
      </trkpt>
      <trkpt lat="42.11491" lon="2.39176">
        <ele>823.6</ele>
        <time>2019-04-12T01:03:44Z</time>
      </trkpt>
      <trkpt lat="42.11497" lon="2.39168">
        <ele>824</ele>
        <time>2019-04-12T01:03:48Z</time>
      </trkpt>
      <trkpt lat="42.11499" lon="2.39167">
        <ele>824</ele>
        <time>2019-04-12T01:03:48Z</time>
      </trkpt>
      <trkpt lat="42.11499" lon="2.39167">
        <ele>824</ele>
        <time>2019-04-12T01:03:48Z</time>
      </trkpt>
      <trkpt lat="42.115" lon="2.39167">
        <ele>824.1</ele>
        <time>2019-04-12T01:03:49Z</time>
      </trkpt>
      <trkpt lat="42.11503" lon="2.3917">
        <ele>824.1</ele>
        <time>2019-04-12T01:03:50Z</time>
      </trkpt>
      <trkpt lat="42.11504" lon="2.39172">
        <ele>824.5</ele>
        <time>2019-04-12T01:03:51Z</time>
      </trkpt>
      <trkpt lat="42.11506" lon="2.39173">
        <ele>825.5</ele>
        <time>2019-04-12T01:03:52Z</time>
      </trkpt>
      <trkpt lat="42.11506" lon="2.39173">
        <ele>825.5</ele>
        <time>2019-04-12T01:03:52Z</time>
      </trkpt>
      <trkpt lat="42.11506" lon="2.39173">
        <ele>825.5</ele>
        <time>2019-04-12T01:03:52Z</time>
      </trkpt>
      <trkpt lat="42.11506" lon="2.39173">
        <ele>825.5</ele>
        <time>2019-04-12T01:03:52Z</time>
      </trkpt>
      <trkpt lat="42.11506" lon="2.39173">
        <ele>825.5</ele>
        <time>2019-04-12T01:03:52Z</time>
      </trkpt>
      <trkpt lat="42.11506" lon="2.39173">
        <ele>825.4</ele>
        <time>2019-04-12T01:03:52Z</time>
      </trkpt>
      <trkpt lat="42.11506" lon="2.39173">
        <ele>825.4</ele>
        <time>2019-04-12T01:03:52Z</time>
      </trkpt>
      <trkpt lat="42.11506" lon="2.39173">
        <ele>825.4</ele>
        <time>2019-04-12T01:03:52Z</time>
      </trkpt>
      <trkpt lat="42.11507" lon="2.39172">
        <ele>826</ele>
        <time>2019-04-12T01:03:52Z</time>
      </trkpt>
      <trkpt lat="42.11509" lon="2.39171">
        <ele>827.4</ele>
        <time>2019-04-12T01:03:53Z</time>
      </trkpt>
      <trkpt lat="42.11509" lon="2.39171">
        <ele>827.4</ele>
        <time>2019-04-12T01:03:53Z</time>
      </trkpt>
      <trkpt lat="42.11509" lon="2.39171">
        <ele>827.4</ele>
        <time>2019-04-12T01:03:53Z</time>
      </trkpt>
      <trkpt lat="42.11509" lon="2.39171">
        <ele>827.8</ele>
        <time>2019-04-12T01:03:54Z</time>
      </trkpt>
      <trkpt lat="42.11509" lon="2.39171">
        <ele>827.8</ele>
        <time>2019-04-12T01:03:54Z</time>
      </trkpt>
      <trkpt lat="42.11515" lon="2.39164">
        <ele>828.3</ele>
        <time>2019-04-12T01:03:56Z</time>
      </trkpt>
      <trkpt lat="42.11515" lon="2.39165">
        <ele>828.8</ele>
        <time>2019-04-12T01:03:57Z</time>
      </trkpt>
      <trkpt lat="42.11515" lon="2.39165">
        <ele>828.8</ele>
        <time>2019-04-12T01:03:57Z</time>
      </trkpt>
      <trkpt lat="42.11522" lon="2.39168">
        <ele>829.3</ele>
        <time>2019-04-12T01:04:00Z</time>
      </trkpt>
      <trkpt lat="42.1152" lon="2.39172">
        <ele>830.2</ele>
        <time>2019-04-12T01:04:01Z</time>
      </trkpt>
      <trkpt lat="42.1152" lon="2.39172">
        <ele>830.3</ele>
        <time>2019-04-12T01:04:01Z</time>
      </trkpt>
      <trkpt lat="42.11514" lon="2.39173">
        <ele>830.7</ele>
        <time>2019-04-12T01:04:04Z</time>
      </trkpt>
      <trkpt lat="42.11513" lon="2.39174">
        <ele>830.8</ele>
        <time>2019-04-12T01:04:04Z</time>
      </trkpt>
      <trkpt lat="42.11513" lon="2.39174">
        <ele>830.7</ele>
        <time>2019-04-12T01:04:04Z</time>
      </trkpt>
      <trkpt lat="42.1151" lon="2.39174">
        <ele>830.8</ele>
        <time>2019-04-12T01:04:05Z</time>
      </trkpt>
      <trkpt lat="42.1151" lon="2.39174">
        <ele>830.7</ele>
        <time>2019-04-12T01:04:05Z</time>
      </trkpt>
      <trkpt lat="42.1151" lon="2.39174">
        <ele>830.7</ele>
        <time>2019-04-12T01:04:05Z</time>
      </trkpt>
      <trkpt lat="42.11509" lon="2.39175">
        <ele>830.8</ele>
        <time>2019-04-12T01:04:06Z</time>
      </trkpt>
      <trkpt lat="42.11502" lon="2.3918">
        <ele>834.1</ele>
        <time>2019-04-12T01:04:09Z</time>
      </trkpt>
      <trkpt lat="42.11496" lon="2.39184">
        <ele>834.6</ele>
        <time>2019-04-12T01:04:12Z</time>
      </trkpt>
      <trkpt lat="42.11495" lon="2.39185">
        <ele>834.6</ele>
        <time>2019-04-12T01:04:12Z</time>
      </trkpt>
      <trkpt lat="42.11493" lon="2.39191">
        <ele>835.1</ele>
        <time>2019-04-12T01:04:14Z</time>
      </trkpt>
      <trkpt lat="42.11491" lon="2.39193">
        <ele>835.1</ele>
        <time>2019-04-12T01:04:15Z</time>
      </trkpt>
      <trkpt lat="42.11481" lon="2.39204">
        <ele>833.2</ele>
        <time>2019-04-12T01:04:20Z</time>
      </trkpt>
      <trkpt lat="42.11481" lon="2.39208">
        <ele>832.7</ele>
        <time>2019-04-12T01:04:21Z</time>
      </trkpt>
      <trkpt lat="42.11479" lon="2.39214">
        <ele>830.8</ele>
        <time>2019-04-12T01:04:23Z</time>
      </trkpt>
      <trkpt lat="42.11472" lon="2.39228">
        <ele>830.3</ele>
        <time>2019-04-12T01:04:29Z</time>
      </trkpt>
      <trkpt lat="42.11464" lon="2.39237">
        <ele>827.8</ele>
        <time>2019-04-12T01:04:33Z</time>
      </trkpt>
      <trkpt lat="42.11458" lon="2.39251">
        <ele>826.9</ele>
        <time>2019-04-12T01:04:38Z</time>
      </trkpt>
      <trkpt lat="42.11459" lon="2.39261">
        <ele>827.9</ele>
        <time>2019-04-12T01:04:40Z</time>
      </trkpt>
      <trkpt lat="42.1146" lon="2.39258">
        <ele>828.3</ele>
        <time>2019-04-12T01:04:41Z</time>
      </trkpt>
      <trkpt lat="42.11464" lon="2.39272">
        <ele>831.2</ele>
        <time>2019-04-12T01:04:46Z</time>
      </trkpt>
      <trkpt lat="42.11463" lon="2.39281">
        <ele>832.7</ele>
        <time>2019-04-12T01:04:48Z</time>
      </trkpt>
      <trkpt lat="42.11465" lon="2.39297">
        <ele>833.7</ele>
        <time>2019-04-12T01:04:53Z</time>
      </trkpt>
      <trkpt lat="42.11467" lon="2.39307">
        <ele>835.1</ele>
        <time>2019-04-12T01:04:56Z</time>
      </trkpt>
      <trkpt lat="42.11472" lon="2.39327">
        <ele>838.9</ele>
        <time>2019-04-12T01:05:02Z</time>
      </trkpt>
      <trkpt lat="42.11475" lon="2.39333">
        <ele>846.6</ele>
        <time>2019-04-12T01:05:05Z</time>
      </trkpt>
      <trkpt lat="42.11482" lon="2.39332">
        <ele>848.6</ele>
        <time>2019-04-12T01:05:07Z</time>
      </trkpt>
      <trkpt lat="42.11486" lon="2.39337">
        <ele>851</ele>
        <time>2019-04-12T01:05:09Z</time>
      </trkpt>
      <trkpt lat="42.11494" lon="2.39339">
        <ele>852.4</ele>
        <time>2019-04-12T01:05:13Z</time>
      </trkpt>
      <trkpt lat="42.11505" lon="2.39338">
        <ele>856.7</ele>
        <time>2019-04-12T01:05:17Z</time>
      </trkpt>
      <trkpt lat="42.11512" lon="2.39343">
        <ele>857.6</ele>
        <time>2019-04-12T01:05:20Z</time>
      </trkpt>
      <trkpt lat="42.11526" lon="2.39345">
        <ele>859.6</ele>
        <time>2019-04-12T01:05:26Z</time>
      </trkpt>
      <trkpt lat="42.11533" lon="2.3932">
        <ele>864.1</ele>
        <time>2019-04-12T01:45:37Z</time>
      </trkpt>
      <trkpt lat="42.11519" lon="2.39314">
        <ele>862.2</ele>
        <time>2019-04-12T01:45:42Z</time>
      </trkpt>
      <trkpt lat="42.11514" lon="2.39292">
        <ele>860.7</ele>
        <time>2019-04-12T01:45:49Z</time>
      </trkpt>
      <trkpt lat="42.11516" lon="2.39271">
        <ele>858.9</ele>
        <time>2019-04-12T01:45:55Z</time>
      </trkpt>
      <trkpt lat="42.11528" lon="2.3925">
        <ele>859.3</ele>
        <time>2019-04-12T01:46:03Z</time>
      </trkpt>
      <trkpt lat="42.11531" lon="2.39239">
        <ele>858.2</ele>
        <time>2019-04-12T01:46:07Z</time>
      </trkpt>
      <trkpt lat="42.1154" lon="2.39216">
        <ele>857</ele>
        <time>2019-04-12T01:46:14Z</time>
      </trkpt>
      <trkpt lat="42.11549" lon="2.39195">
        <ele>853.9</ele>
        <time>2019-04-12T01:46:22Z</time>
      </trkpt>
      <trkpt lat="42.11559" lon="2.3918">
        <ele>851.6</ele>
        <time>2019-04-12T01:46:28Z</time>
      </trkpt>
      <trkpt lat="42.11576" lon="2.39145">
        <ele>848</ele>
        <time>2019-04-12T01:46:40Z</time>
      </trkpt>
      <trkpt lat="42.11573" lon="2.39129">
        <ele>848.8</ele>
        <time>2019-04-12T01:46:45Z</time>
      </trkpt>
      <trkpt lat="42.11556" lon="2.39116">
        <ele>845.6</ele>
        <time>2019-04-12T01:46:53Z</time>
      </trkpt>
      <trkpt lat="42.11546" lon="2.39099">
        <ele>845.8</ele>
        <time>2019-04-12T01:46:59Z</time>
      </trkpt>
      <trkpt lat="42.11529" lon="2.39088">
        <ele>847.5</ele>
        <time>2019-04-12T01:47:07Z</time>
      </trkpt>
      <trkpt lat="42.11509" lon="2.39097">
        <ele>848.6</ele>
        <time>2019-04-12T01:47:15Z</time>
      </trkpt>
      <trkpt lat="42.11489" lon="2.39103">
        <ele>850.2</ele>
        <time>2019-04-12T01:47:23Z</time>
      </trkpt>
      <trkpt lat="42.1148" lon="2.39106">
        <ele>851.3</ele>
        <time>2019-04-12T01:47:27Z</time>
      </trkpt>
      <trkpt lat="42.1148" lon="2.39106">
        <ele>851.3</ele>
        <time>2019-04-12T01:47:27Z</time>
      </trkpt>
      <trkpt lat="42.1148" lon="2.39106">
        <ele>851.3</ele>
        <time>2019-04-12T01:47:27Z</time>
      </trkpt>
      <trkpt lat="42.11475" lon="2.3911">
        <ele>850.9</ele>
        <time>2019-04-12T01:47:30Z</time>
      </trkpt>
      <trkpt lat="42.11455" lon="2.39117">
        <ele>850.3</ele>
        <time>2019-04-12T01:47:38Z</time>
      </trkpt>
      <trkpt lat="42.11435" lon="2.39096">
        <ele>853.1</ele>
        <time>2019-04-12T01:47:48Z</time>
      </trkpt>
      <trkpt lat="42.11427" lon="2.39078">
        <ele>853.4</ele>
        <time>2019-04-12T01:47:54Z</time>
      </trkpt>
      <trkpt lat="42.11423" lon="2.39062">
        <ele>853.2</ele>
        <time>2019-04-12T01:47:59Z</time>
      </trkpt>
      <trkpt lat="42.1142" lon="2.39035">
        <ele>854.1</ele>
        <time>2019-04-12T01:48:07Z</time>
      </trkpt>
      <trkpt lat="42.11418" lon="2.3902">
        <ele>853.8</ele>
        <time>2019-04-12T01:48:12Z</time>
      </trkpt>
      <trkpt lat="42.11414" lon="2.38995">
        <ele>851.4</ele>
        <time>2019-04-12T01:48:19Z</time>
      </trkpt>
      <trkpt lat="42.1141" lon="2.38974">
        <ele>848.1</ele>
        <time>2019-04-12T01:48:26Z</time>
      </trkpt>
      <trkpt lat="42.11408" lon="2.38944">
        <ele>844.1</ele>
        <time>2019-04-12T01:48:35Z</time>
      </trkpt>
      <trkpt lat="42.11411" lon="2.38923">
        <ele>845.3</ele>
        <time>2019-04-12T01:48:41Z</time>
      </trkpt>
      <trkpt lat="42.1141" lon="2.38893">
        <ele>843.7</ele>
        <time>2019-04-12T01:48:50Z</time>
      </trkpt>
      <trkpt lat="42.11411" lon="2.38873">
        <ele>842.6</ele>
        <time>2019-04-12T01:48:56Z</time>
      </trkpt>
      <trkpt lat="42.1142" lon="2.38846">
        <ele>844.5</ele>
        <time>2019-04-12T01:49:05Z</time>
      </trkpt>
      <trkpt lat="42.11428" lon="2.38818">
        <ele>849</ele>
        <time>2019-04-12T01:49:14Z</time>
      </trkpt>
      <trkpt lat="42.11414" lon="2.3879">
        <ele>852.2</ele>
        <time>2019-04-12T01:49:24Z</time>
      </trkpt>
      <trkpt lat="42.11382" lon="2.38793">
        <ele>866.4</ele>
        <time>2019-04-12T01:49:37Z</time>
      </trkpt>
      <trkpt lat="42.11361" lon="2.38792">
        <ele>877.5</ele>
        <time>2019-04-12T01:49:45Z</time>
      </trkpt>
      <trkpt lat="42.11361" lon="2.38792">
        <ele>877.4</ele>
        <time>2019-04-12T01:49:45Z</time>
      </trkpt>
      <trkpt lat="42.11361" lon="2.38792">
        <ele>877.5</ele>
        <time>2019-04-12T01:49:45Z</time>
      </trkpt>
      <trkpt lat="42.11351" lon="2.38792">
        <ele>876.8</ele>
        <time>2019-04-12T01:49:49Z</time>
      </trkpt>
      <trkpt lat="42.11346" lon="2.38777">
        <ele>879.6</ele>
        <time>2019-04-12T01:49:54Z</time>
      </trkpt>
      <trkpt lat="42.11344" lon="2.3876">
        <ele>884</ele>
        <time>2019-04-12T01:49:59Z</time>
      </trkpt>
      <trkpt lat="42.11349" lon="2.38743">
        <ele>890.2</ele>
        <time>2019-04-12T01:50:04Z</time>
      </trkpt>
      <trkpt lat="42.11351" lon="2.38735">
        <ele>893.7</ele>
        <time>2019-04-12T01:50:07Z</time>
      </trkpt>
      <trkpt lat="42.11351" lon="2.38735">
        <ele>893.7</ele>
        <time>2019-04-12T01:50:07Z</time>
      </trkpt>
      <trkpt lat="42.11351" lon="2.38735">
        <ele>893.6</ele>
        <time>2019-04-12T01:50:07Z</time>
      </trkpt>
      <trkpt lat="42.11353" lon="2.38732">
        <ele>895.1</ele>
        <time>2019-04-12T01:50:08Z</time>
      </trkpt>
      <trkpt lat="42.11367" lon="2.38716">
        <ele>902.5</ele>
        <time>2019-04-12T01:50:15Z</time>
      </trkpt>
      <trkpt lat="42.11367" lon="2.38716">
        <ele>902.5</ele>
        <time>2019-04-12T01:50:15Z</time>
      </trkpt>
      <trkpt lat="42.11367" lon="2.38716">
        <ele>902.5</ele>
        <time>2019-04-12T01:50:15Z</time>
      </trkpt>
      <trkpt lat="42.11354" lon="2.38705">
        <ele>905.5</ele>
        <time>2019-04-12T01:50:22Z</time>
      </trkpt>
      <trkpt lat="42.11354" lon="2.38705">
        <ele>905.4</ele>
        <time>2019-04-12T01:50:22Z</time>
      </trkpt>
      <trkpt lat="42.11354" lon="2.38705">
        <ele>905.4</ele>
        <time>2019-04-12T01:50:22Z</time>
      </trkpt>
      <trkpt lat="42.11363" lon="2.38695">
        <ele>912.5</ele>
        <time>2019-04-12T01:50:26Z</time>
      </trkpt>
      <trkpt lat="42.11363" lon="2.38695">
        <ele>912.6</ele>
        <time>2019-04-12T01:50:26Z</time>
      </trkpt>
      <trkpt lat="42.11363" lon="2.38695">
        <ele>912.5</ele>
        <time>2019-04-12T01:50:26Z</time>
      </trkpt>
      <trkpt lat="42.11367" lon="2.38647">
        <ele>922</ele>
        <time>2019-04-12T01:50:40Z</time>
      </trkpt>
      <trkpt lat="42.11367" lon="2.38647">
        <ele>922</ele>
        <time>2019-04-12T01:50:40Z</time>
      </trkpt>
      <trkpt lat="42.11367" lon="2.38647">
        <ele>922</ele>
        <time>2019-04-12T01:50:40Z</time>
      </trkpt>
      <trkpt lat="42.11367" lon="2.38647">
        <ele>922.1</ele>
        <time>2019-04-12T01:50:40Z</time>
      </trkpt>
      <trkpt lat="42.11377" lon="2.38613">
        <ele>928.3</ele>
        <time>2019-04-12T01:50:51Z</time>
      </trkpt>
      <trkpt lat="42.11362" lon="2.38608">
        <ele>932.7</ele>
        <time>2019-04-12T01:50:58Z</time>
      </trkpt>
      <trkpt lat="42.11362" lon="2.38608">
        <ele>932.7</ele>
        <time>2019-04-12T01:50:58Z</time>
      </trkpt>
      <trkpt lat="42.11362" lon="2.38608">
        <ele>932.6</ele>
        <time>2019-04-12T01:50:58Z</time>
      </trkpt>
      <trkpt lat="42.11361" lon="2.38605">
        <ele>933.2</ele>
        <time>2019-04-12T01:50:59Z</time>
      </trkpt>
      <trkpt lat="42.11364" lon="2.3857">
        <ele>939.9</ele>
        <time>2019-04-12T01:51:09Z</time>
      </trkpt>
      <trkpt lat="42.11364" lon="2.3857">
        <ele>940</ele>
        <time>2019-04-12T01:51:09Z</time>
      </trkpt>
      <trkpt lat="42.11364" lon="2.3857">
        <ele>939.9</ele>
        <time>2019-04-12T01:51:09Z</time>
      </trkpt>
      <trkpt lat="42.11364" lon="2.3857">
        <ele>940</ele>
        <time>2019-04-12T01:51:09Z</time>
      </trkpt>
      <trkpt lat="42.11357" lon="2.38531">
        <ele>950.5</ele>
        <time>2019-04-12T01:51:21Z</time>
      </trkpt>
      <trkpt lat="42.11359" lon="2.38517">
        <ele>954.8</ele>
        <time>2019-04-12T01:51:25Z</time>
      </trkpt>
      <trkpt lat="42.11356" lon="2.38511">
        <ele>956.3</ele>
        <time>2019-04-12T01:51:28Z</time>
      </trkpt>
      <trkpt lat="42.11356" lon="2.38511">
        <ele>956.2</ele>
        <time>2019-04-12T01:51:28Z</time>
      </trkpt>
      <trkpt lat="42.11356" lon="2.38511">
        <ele>956.3</ele>
        <time>2019-04-12T01:51:28Z</time>
      </trkpt>
      <trkpt lat="42.1135" lon="2.38509">
        <ele>956.9</ele>
        <time>2019-04-12T01:51:30Z</time>
      </trkpt>
      <trkpt lat="42.11334" lon="2.38477">
        <ele>968.5</ele>
        <time>2019-04-12T01:51:42Z</time>
      </trkpt>
      <trkpt lat="42.11343" lon="2.38439">
        <ele>979.4</ele>
        <time>2019-04-12T01:51:53Z</time>
      </trkpt>
      <trkpt lat="42.11352" lon="2.38401">
        <ele>995</ele>
        <time>2019-04-12T01:52:05Z</time>
      </trkpt>
      <trkpt lat="42.11349" lon="2.38338">
        <ele>1019.9</ele>
        <time>2019-04-12T01:52:24Z</time>
      </trkpt>
      <trkpt lat="42.11349" lon="2.38338">
        <ele>1019.8</ele>
        <time>2019-04-12T01:52:24Z</time>
      </trkpt>
      <trkpt lat="42.11349" lon="2.38338">
        <ele>1019.8</ele>
        <time>2019-04-12T01:52:24Z</time>
      </trkpt>
      <trkpt lat="42.11332" lon="2.3831">
        <ele>1032.1</ele>
        <time>2019-04-12T01:52:35Z</time>
      </trkpt>
      <trkpt lat="42.11332" lon="2.3831">
        <ele>1032.1</ele>
        <time>2019-04-12T01:52:35Z</time>
      </trkpt>
      <trkpt lat="42.11332" lon="2.3831">
        <ele>1032.1</ele>
        <time>2019-04-12T01:52:35Z</time>
      </trkpt>
      <trkpt lat="42.11324" lon="2.38306">
        <ele>1032</ele>
        <time>2019-04-12T01:52:38Z</time>
      </trkpt>
      <trkpt lat="42.11318" lon="2.3829">
        <ele>1030.8</ele>
        <time>2019-04-12T01:52:43Z</time>
      </trkpt>
      <trkpt lat="42.11334" lon="2.38251">
        <ele>1039.8</ele>
        <time>2019-04-12T01:52:57Z</time>
      </trkpt>
      <trkpt lat="42.11326" lon="2.38233">
        <ele>1039.8</ele>
        <time>2019-04-12T01:53:03Z</time>
      </trkpt>
      <trkpt lat="42.11326" lon="2.38233">
        <ele>1039.8</ele>
        <time>2019-04-12T01:53:03Z</time>
      </trkpt>
      <trkpt lat="42.11326" lon="2.38233">
        <ele>1039.8</ele>
        <time>2019-04-12T01:53:03Z</time>
      </trkpt>
      <trkpt lat="42.11326" lon="2.38233">
        <ele>1039.9</ele>
        <time>2019-04-12T01:53:03Z</time>
      </trkpt>
      <trkpt lat="42.11321" lon="2.382">
        <ele>1044.1</ele>
        <time>2019-04-12T01:53:13Z</time>
      </trkpt>
      <trkpt lat="42.1132" lon="2.38189">
        <ele>1045.7</ele>
        <time>2019-04-12T01:53:16Z</time>
      </trkpt>
      <trkpt lat="42.1132" lon="2.38189">
        <ele>1045.8</ele>
        <time>2019-04-12T01:53:16Z</time>
      </trkpt>
      <trkpt lat="42.1132" lon="2.38189">
        <ele>1045.7</ele>
        <time>2019-04-12T01:53:16Z</time>
      </trkpt>
      <trkpt lat="42.11319" lon="2.38187">
        <ele>1046</ele>
        <time>2019-04-12T01:53:17Z</time>
      </trkpt>
      <trkpt lat="42.11305" lon="2.38173">
        <ele>1049.2</ele>
        <time>2019-04-12T01:53:24Z</time>
      </trkpt>
      <trkpt lat="42.11294" lon="2.38153">
        <ele>1049.6</ele>
        <time>2019-04-12T01:53:31Z</time>
      </trkpt>
      <trkpt lat="42.11288" lon="2.38125">
        <ele>1055.5</ele>
        <time>2019-04-12T01:53:40Z</time>
      </trkpt>
      <trkpt lat="42.11288" lon="2.3811">
        <ele>1058.9</ele>
        <time>2019-04-12T01:53:44Z</time>
      </trkpt>
      <trkpt lat="42.11294" lon="2.38084">
        <ele>1061.3</ele>
        <time>2019-04-12T01:53:53Z</time>
      </trkpt>
      <trkpt lat="42.11295" lon="2.38056">
        <ele>1062.8</ele>
        <time>2019-04-12T01:54:01Z</time>
      </trkpt>
      <trkpt lat="42.11291" lon="2.38033">
        <ele>1065.8</ele>
        <time>2019-04-12T01:54:08Z</time>
      </trkpt>
      <trkpt lat="42.11284" lon="2.38018">
        <ele>1068.5</ele>
        <time>2019-04-12T01:54:13Z</time>
      </trkpt>
      <trkpt lat="42.11272" lon="2.37997">
        <ele>1072.8</ele>
        <time>2019-04-12T01:54:21Z</time>
      </trkpt>
      <trkpt lat="42.11268" lon="2.37981">
        <ele>1075.9</ele>
        <time>2019-04-12T01:54:26Z</time>
      </trkpt>
      <trkpt lat="42.11266" lon="2.3796">
        <ele>1079.1</ele>
        <time>2019-04-12T01:54:32Z</time>
      </trkpt>
      <trkpt lat="42.11268" lon="2.37942">
        <ele>1080.8</ele>
        <time>2019-04-12T01:54:38Z</time>
      </trkpt>
      <trkpt lat="42.11277" lon="2.37926">
        <ele>1081.7</ele>
        <time>2019-04-12T01:54:44Z</time>
      </trkpt>
      <trkpt lat="42.11268" lon="2.37884">
        <ele>1089.6</ele>
        <time>2019-04-12T01:54:57Z</time>
      </trkpt>
      <trkpt lat="42.11268" lon="2.37884">
        <ele>1089.7</ele>
        <time>2019-04-12T01:54:57Z</time>
      </trkpt>
      <trkpt lat="42.11268" lon="2.37884">
        <ele>1089.7</ele>
        <time>2019-04-12T01:54:57Z</time>
      </trkpt>
      <trkpt lat="42.11269" lon="2.37871">
        <ele>1091.8</ele>
        <time>2019-04-12T01:55:00Z</time>
      </trkpt>
      <trkpt lat="42.11274" lon="2.3785">
        <ele>1095.8</ele>
        <time>2019-04-12T01:55:07Z</time>
      </trkpt>
      <trkpt lat="42.11274" lon="2.37814">
        <ele>1105.2</ele>
        <time>2019-04-12T01:55:18Z</time>
      </trkpt>
      <trkpt lat="42.11261" lon="2.37814">
        <ele>1107.6</ele>
        <time>2019-04-12T01:55:23Z</time>
      </trkpt>
      <trkpt lat="42.11245" lon="2.37816">
        <ele>1109.1</ele>
        <time>2019-04-12T01:55:29Z</time>
      </trkpt>
      <trkpt lat="42.11234" lon="2.37818">
        <ele>1109.9</ele>
        <time>2019-04-12T01:55:34Z</time>
      </trkpt>
      <trkpt lat="42.11227" lon="2.37817">
        <ele>1110.6</ele>
        <time>2019-04-12T01:55:37Z</time>
      </trkpt>
      <trkpt lat="42.11227" lon="2.37817">
        <ele>1110.6</ele>
        <time>2019-04-12T01:55:37Z</time>
      </trkpt>
      <trkpt lat="42.11227" lon="2.37817">
        <ele>1110.6</ele>
        <time>2019-04-12T01:55:37Z</time>
      </trkpt>
      <trkpt lat="42.11224" lon="2.37808">
        <ele>1113.3</ele>
        <time>2019-04-12T01:55:40Z</time>
      </trkpt>
      <trkpt lat="42.11216" lon="2.37792">
        <ele>1117.3</ele>
        <time>2019-04-12T01:55:45Z</time>
      </trkpt>
      <trkpt lat="42.11212" lon="2.37777">
        <ele>1121.2</ele>
        <time>2019-04-12T01:55:50Z</time>
      </trkpt>
      <trkpt lat="42.11224" lon="2.37754">
        <ele>1127.8</ele>
        <time>2019-04-12T01:55:58Z</time>
      </trkpt>
      <trkpt lat="42.11239" lon="2.37735">
        <ele>1134.2</ele>
        <time>2019-04-12T01:56:07Z</time>
      </trkpt>
      <trkpt lat="42.11263" lon="2.37719">
        <ele>1138.7</ele>
        <time>2019-04-12T01:56:18Z</time>
      </trkpt>
      <trkpt lat="42.11273" lon="2.37708">
        <ele>1142</ele>
        <time>2019-04-12T01:56:23Z</time>
      </trkpt>
      <trkpt lat="42.11268" lon="2.37676">
        <ele>1155.2</ele>
        <time>2019-04-12T01:56:33Z</time>
      </trkpt>
      <trkpt lat="42.11268" lon="2.37676">
        <ele>1155.2</ele>
        <time>2019-04-12T01:56:33Z</time>
      </trkpt>
      <trkpt lat="42.11268" lon="2.37676">
        <ele>1155.2</ele>
        <time>2019-04-12T01:56:33Z</time>
      </trkpt>
      <trkpt lat="42.11261" lon="2.37685">
        <ele>1154</ele>
        <time>2019-04-12T01:56:36Z</time>
      </trkpt>
      <trkpt lat="42.11241" lon="2.37663">
        <ele>1168.2</ele>
        <time>2019-04-12T01:56:47Z</time>
      </trkpt>
      <trkpt lat="42.11229" lon="2.37632">
        <ele>1184.8</ele>
        <time>2019-04-12T01:56:57Z</time>
      </trkpt>
      <trkpt lat="42.11214" lon="2.37632">
        <ele>1187.8</ele>
        <time>2019-04-12T01:57:03Z</time>
      </trkpt>
      <trkpt lat="42.11203" lon="2.3763">
        <ele>1190.6</ele>
        <time>2019-04-12T01:57:08Z</time>
      </trkpt>
      <trkpt lat="42.11203" lon="2.3763">
        <ele>1190.7</ele>
        <time>2019-04-12T01:57:08Z</time>
      </trkpt>
      <trkpt lat="42.11203" lon="2.3763">
        <ele>1190.6</ele>
        <time>2019-04-12T01:57:08Z</time>
      </trkpt>
      <trkpt lat="42.11203" lon="2.3763">
        <ele>1190.6</ele>
        <time>2019-04-12T01:57:08Z</time>
      </trkpt>
      <trkpt lat="42.112" lon="2.37616">
        <ele>1199.1</ele>
        <time>2019-04-12T01:57:12Z</time>
      </trkpt>
      <trkpt lat="42.11188" lon="2.37601">
        <ele>1209.7</ele>
        <time>2019-04-12T01:57:18Z</time>
      </trkpt>
      <trkpt lat="42.11166" lon="2.37594">
        <ele>1217.3</ele>
        <time>2019-04-12T01:57:28Z</time>
      </trkpt>
      <trkpt lat="42.11143" lon="2.37566">
        <ele>1224.1</ele>
        <time>2019-04-12T01:57:40Z</time>
      </trkpt>
      <trkpt lat="42.11127" lon="2.37533">
        <ele>1212.3</ele>
        <time>2019-04-12T01:57:52Z</time>
      </trkpt>
      <trkpt lat="42.11127" lon="2.37533">
        <ele>1212.3</ele>
        <time>2019-04-12T01:57:52Z</time>
      </trkpt>
      <trkpt lat="42.11127" lon="2.37533">
        <ele>1212.3</ele>
        <time>2019-04-12T01:57:52Z</time>
      </trkpt>
      <trkpt lat="42.11127" lon="2.37533">
        <ele>1212.2</ele>
        <time>2019-04-12T01:57:52Z</time>
      </trkpt>
      <trkpt lat="42.11152" lon="2.37529">
        <ele>1225.5</ele>
        <time>2019-04-12T01:58:02Z</time>
      </trkpt>
      <trkpt lat="42.11152" lon="2.37529">
        <ele>1225.4</ele>
        <time>2019-04-12T01:58:02Z</time>
      </trkpt>
      <trkpt lat="42.11152" lon="2.37529">
        <ele>1225.4</ele>
        <time>2019-04-12T01:58:02Z</time>
      </trkpt>
      <trkpt lat="42.11156" lon="2.37517">
        <ele>1224.6</ele>
        <time>2019-04-12T01:58:06Z</time>
      </trkpt>
      <trkpt lat="42.11164" lon="2.375">
        <ele>1223.9</ele>
        <time>2019-04-12T01:58:12Z</time>
      </trkpt>
      <trkpt lat="42.11174" lon="2.37484">
        <ele>1224.7</ele>
        <time>2019-04-12T01:58:18Z</time>
      </trkpt>
      <trkpt lat="42.11183" lon="2.37463">
        <ele>1223.6</ele>
        <time>2019-04-12T01:58:25Z</time>
      </trkpt>
      <trkpt lat="42.11192" lon="2.3744">
        <ele>1220.6</ele>
        <time>2019-04-12T01:58:33Z</time>
      </trkpt>
      <trkpt lat="42.11199" lon="2.37425">
        <ele>1220.5</ele>
        <time>2019-04-12T01:58:38Z</time>
      </trkpt>
      <trkpt lat="42.11209" lon="2.37413">
        <ele>1225.3</ele>
        <time>2019-04-12T01:58:44Z</time>
      </trkpt>
      <trkpt lat="42.11209" lon="2.37413">
        <ele>1225.4</ele>
        <time>2019-04-12T01:58:44Z</time>
      </trkpt>
      <trkpt lat="42.11209" lon="2.37413">
        <ele>1225.3</ele>
        <time>2019-04-12T01:58:44Z</time>
      </trkpt>
      <trkpt lat="42.11218" lon="2.374">
        <ele>1230.4</ele>
        <time>2019-04-12T01:58:49Z</time>
      </trkpt>
      <trkpt lat="42.11218" lon="2.374">
        <ele>1230.4</ele>
        <time>2019-04-12T01:58:49Z</time>
      </trkpt>
      <trkpt lat="42.11218" lon="2.374">
        <ele>1230.4</ele>
        <time>2019-04-12T01:58:49Z</time>
      </trkpt>
      <trkpt lat="42.11218" lon="2.37391">
        <ele>1229.7</ele>
        <time>2019-04-12T01:58:52Z</time>
      </trkpt>
      <trkpt lat="42.11218" lon="2.37391">
        <ele>1229.7</ele>
        <time>2019-04-12T01:58:52Z</time>
      </trkpt>
      <trkpt lat="42.11218" lon="2.37391">
        <ele>1229.7</ele>
        <time>2019-04-12T01:58:52Z</time>
      </trkpt>
      <trkpt lat="42.11219" lon="2.37376">
        <ele>1226.4</ele>
        <time>2019-04-12T01:58:56Z</time>
      </trkpt>
      <trkpt lat="42.11219" lon="2.37365">
        <ele>1223.7</ele>
        <time>2019-04-12T01:58:59Z</time>
      </trkpt>
      <trkpt lat="42.11218" lon="2.37338">
        <ele>1212.4</ele>
        <time>2019-04-12T01:59:07Z</time>
      </trkpt>
      <trkpt lat="42.11221" lon="2.37322">
        <ele>1207.3</ele>
        <time>2019-04-12T01:59:12Z</time>
      </trkpt>
      <trkpt lat="42.11235" lon="2.37305">
        <ele>1210.4</ele>
        <time>2019-04-12T01:59:20Z</time>
      </trkpt>
      <trkpt lat="42.11248" lon="2.37286">
        <ele>1215.5</ele>
        <time>2019-04-12T01:59:27Z</time>
      </trkpt>
      <trkpt lat="42.11257" lon="2.37268">
        <ele>1221</ele>
        <time>2019-04-12T01:59:34Z</time>
      </trkpt>
      <trkpt lat="42.11262" lon="2.37242">
        <ele>1222.5</ele>
        <time>2019-04-12T01:59:42Z</time>
      </trkpt>
      <trkpt lat="42.11266" lon="2.37215">
        <ele>1219</ele>
        <time>2019-04-12T01:59:50Z</time>
      </trkpt>
      <trkpt lat="42.11274" lon="2.37201">
        <ele>1217</ele>
        <time>2019-04-12T01:59:55Z</time>
      </trkpt>
      <trkpt lat="42.1128" lon="2.37201">
        <ele>1220</ele>
        <time>2019-04-12T01:59:57Z</time>
      </trkpt>
      <trkpt lat="42.1128" lon="2.37201">
        <ele>1219.9</ele>
        <time>2019-04-12T01:59:57Z</time>
      </trkpt>
      <trkpt lat="42.1128" lon="2.37201">
        <ele>1220</ele>
        <time>2019-04-12T01:59:57Z</time>
      </trkpt>
      <trkpt lat="42.11283" lon="2.37201">
        <ele>1221.5</ele>
        <time>2019-04-12T01:59:59Z</time>
      </trkpt>
      <trkpt lat="42.11312" lon="2.37192">
        <ele>1231.9</ele>
        <time>2019-04-12T02:00:10Z</time>
      </trkpt>
      <trkpt lat="42.11339" lon="2.37167">
        <ele>1232.3</ele>
        <time>2019-04-12T02:00:24Z</time>
      </trkpt>
      <trkpt lat="42.11356" lon="2.37137">
        <ele>1226</ele>
        <time>2019-04-12T02:00:35Z</time>
      </trkpt>
      <trkpt lat="42.11385" lon="2.3713">
        <ele>1221.9</ele>
        <time>2019-04-12T02:00:46Z</time>
      </trkpt>
      <trkpt lat="42.11385" lon="2.3713">
        <ele>1221.8</ele>
        <time>2019-04-12T02:00:46Z</time>
      </trkpt>
      <trkpt lat="42.11385" lon="2.3713">
        <ele>1221.8</ele>
        <time>2019-04-12T02:00:46Z</time>
      </trkpt>
      <trkpt lat="42.11393" lon="2.37133">
        <ele>1222.8</ele>
        <time>2019-04-12T02:00:50Z</time>
      </trkpt>
      <trkpt lat="42.11409" lon="2.37141">
        <ele>1227.9</ele>
        <time>2019-04-12T02:00:57Z</time>
      </trkpt>
      <trkpt lat="42.11421" lon="2.3714">
        <ele>1230.3</ele>
        <time>2019-04-12T02:01:02Z</time>
      </trkpt>
      <trkpt lat="42.11421" lon="2.3714">
        <ele>1230.2</ele>
        <time>2019-04-12T02:01:02Z</time>
      </trkpt>
      <trkpt lat="42.11421" lon="2.3714">
        <ele>1230.2</ele>
        <time>2019-04-12T02:01:02Z</time>
      </trkpt>
      <trkpt lat="42.11426" lon="2.37137">
        <ele>1231.2</ele>
        <time>2019-04-12T02:01:04Z</time>
      </trkpt>
      <trkpt lat="42.11437" lon="2.37133">
        <ele>1234.4</ele>
        <time>2019-04-12T02:01:08Z</time>
      </trkpt>
      <trkpt lat="42.11453" lon="2.37104">
        <ele>1235</ele>
        <time>2019-04-12T02:01:19Z</time>
      </trkpt>
      <trkpt lat="42.11466" lon="2.37089">
        <ele>1238.1</ele>
        <time>2019-04-12T02:01:26Z</time>
      </trkpt>
      <trkpt lat="42.11469" lon="2.37068">
        <ele>1234.7</ele>
        <time>2019-04-12T02:01:32Z</time>
      </trkpt>
      <trkpt lat="42.11481" lon="2.37048">
        <ele>1236.2</ele>
        <time>2019-04-12T02:01:40Z</time>
      </trkpt>
      <trkpt lat="42.1149" lon="2.37036">
        <ele>1237.5</ele>
        <time>2019-04-12T02:01:45Z</time>
      </trkpt>
      <trkpt lat="42.11496" lon="2.37013">
        <ele>1232.4</ele>
        <time>2019-04-12T02:01:52Z</time>
      </trkpt>
      <trkpt lat="42.11513" lon="2.36995">
        <ele>1234.6</ele>
        <time>2019-04-12T02:02:01Z</time>
      </trkpt>
      <trkpt lat="42.11528" lon="2.36969">
        <ele>1232</ele>
        <time>2019-04-12T02:02:11Z</time>
      </trkpt>
      <trkpt lat="42.11538" lon="2.36959">
        <ele>1234.1</ele>
        <time>2019-04-12T02:02:16Z</time>
      </trkpt>
      <trkpt lat="42.11549" lon="2.36946">
        <ele>1237.1</ele>
        <time>2019-04-12T02:02:22Z</time>
      </trkpt>
      <trkpt lat="42.11549" lon="2.36946">
        <ele>1237.2</ele>
        <time>2019-04-12T02:02:22Z</time>
      </trkpt>
      <trkpt lat="42.11549" lon="2.36946">
        <ele>1237.2</ele>
        <time>2019-04-12T02:02:22Z</time>
      </trkpt>
      <trkpt lat="42.11549" lon="2.36946">
        <ele>1237.2</ele>
        <time>2019-04-12T02:02:22Z</time>
      </trkpt>
      <trkpt lat="42.11562" lon="2.36931">
        <ele>1241.2</ele>
        <time>2019-04-12T02:02:28Z</time>
      </trkpt>
      <trkpt lat="42.1158" lon="2.36921">
        <ele>1247.4</ele>
        <time>2019-04-12T02:02:36Z</time>
      </trkpt>
      <trkpt lat="42.1158" lon="2.36921">
        <ele>1247.4</ele>
        <time>2019-04-12T02:02:36Z</time>
      </trkpt>
      <trkpt lat="42.1158" lon="2.36921">
        <ele>1247.5</ele>
        <time>2019-04-12T02:02:36Z</time>
      </trkpt>
      <trkpt lat="42.11588" lon="2.36915">
        <ele>1248.5</ele>
        <time>2019-04-12T02:02:40Z</time>
      </trkpt>
      <trkpt lat="42.11611" lon="2.3695">
        <ele>1249.4</ele>
        <time>2019-04-12T02:02:54Z</time>
      </trkpt>
      <trkpt lat="42.11611" lon="2.3695">
        <ele>1249.4</ele>
        <time>2019-04-12T02:02:54Z</time>
      </trkpt>
      <trkpt lat="42.11611" lon="2.3695">
        <ele>1249.3</ele>
        <time>2019-04-12T02:02:54Z</time>
      </trkpt>
      <trkpt lat="42.11611" lon="2.3695">
        <ele>1249.3</ele>
        <time>2019-04-12T02:02:54Z</time>
      </trkpt>
      <trkpt lat="42.11624" lon="2.36966">
        <ele>1258</ele>
        <time>2019-04-12T02:03:01Z</time>
      </trkpt>
      <trkpt lat="42.1165" lon="2.36981">
        <ele>1274.1</ele>
        <time>2019-04-12T02:03:12Z</time>
      </trkpt>
      <trkpt lat="42.11666" lon="2.36971">
        <ele>1269.5</ele>
        <time>2019-04-12T02:03:19Z</time>
      </trkpt>
      <trkpt lat="42.11684" lon="2.36972">
        <ele>1266.4</ele>
        <time>2019-04-12T02:03:26Z</time>
      </trkpt>
      <trkpt lat="42.11696" lon="2.36971">
        <ele>1263.2</ele>
        <time>2019-04-12T02:03:31Z</time>
      </trkpt>
      <trkpt lat="42.11696" lon="2.36971">
        <ele>1263.2</ele>
        <time>2019-04-12T02:03:31Z</time>
      </trkpt>
      <trkpt lat="42.11696" lon="2.36971">
        <ele>1263.3</ele>
        <time>2019-04-12T02:03:31Z</time>
      </trkpt>
      <trkpt lat="42.11707" lon="2.36972">
        <ele>1266.8</ele>
        <time>2019-04-12T02:03:35Z</time>
      </trkpt>
      <trkpt lat="42.11724" lon="2.36975">
        <ele>1271.6</ele>
        <time>2019-04-12T02:03:42Z</time>
      </trkpt>
      <trkpt lat="42.11741" lon="2.36974">
        <ele>1271.5</ele>
        <time>2019-04-12T02:03:49Z</time>
      </trkpt>
      <trkpt lat="42.11763" lon="2.36968">
        <ele>1270.5</ele>
        <time>2019-04-12T02:03:58Z</time>
      </trkpt>
      <trkpt lat="42.11781" lon="2.36962">
        <ele>1268.7</ele>
        <time>2019-04-12T02:04:05Z</time>
      </trkpt>
      <trkpt lat="42.11791" lon="2.36964">
        <ele>1270.4</ele>
        <time>2019-04-12T02:04:09Z</time>
      </trkpt>
      <trkpt lat="42.11797" lon="2.36969">
        <ele>1275</ele>
        <time>2019-04-12T02:04:12Z</time>
      </trkpt>
      <trkpt lat="42.11797" lon="2.36969">
        <ele>1275</ele>
        <time>2019-04-12T02:04:12Z</time>
      </trkpt>
      <trkpt lat="42.11797" lon="2.36969">
        <ele>1275</ele>
        <time>2019-04-12T02:04:12Z</time>
      </trkpt>
      <trkpt lat="42.11804" lon="2.36968">
        <ele>1274.9</ele>
        <time>2019-04-12T02:04:15Z</time>
      </trkpt>
      <trkpt lat="42.11823" lon="2.36972">
        <ele>1268.8</ele>
        <time>2019-04-12T02:04:23Z</time>
      </trkpt>
      <trkpt lat="42.11823" lon="2.36972">
        <ele>1268.8</ele>
        <time>2019-04-12T02:04:23Z</time>
      </trkpt>
      <trkpt lat="42.11823" lon="2.36972">
        <ele>1268.8</ele>
        <time>2019-04-12T02:04:23Z</time>
      </trkpt>
      <trkpt lat="42.11823" lon="2.36972">
        <ele>1268.8</ele>
        <time>2019-04-12T02:04:23Z</time>
      </trkpt>
      <trkpt lat="42.11839" lon="2.36981">
        <ele>1260.2</ele>
        <time>2019-04-12T02:04:30Z</time>
      </trkpt>
      <trkpt lat="42.11851" lon="2.36988">
        <ele>1249.5</ele>
        <time>2019-04-12T02:04:35Z</time>
      </trkpt>
      <trkpt lat="42.11859" lon="2.36999">
        <ele>1241.7</ele>
        <time>2019-04-12T02:04:40Z</time>
      </trkpt>
      <trkpt lat="42.11869" lon="2.37035">
        <ele>1242.3</ele>
        <time>2019-04-12T02:04:51Z</time>
      </trkpt>
      <trkpt lat="42.11869" lon="2.37066">
        <ele>1252.9</ele>
        <time>2019-04-12T02:05:00Z</time>
      </trkpt>
      <trkpt lat="42.11878" lon="2.37106">
        <ele>1272.1</ele>
        <time>2019-04-12T02:05:13Z</time>
      </trkpt>
      <trkpt lat="42.11887" lon="2.37102">
        <ele>1267.4</ele>
        <time>2019-04-12T02:05:16Z</time>
      </trkpt>
      <trkpt lat="42.11897" lon="2.37101">
        <ele>1263.5</ele>
        <time>2019-04-12T02:05:21Z</time>
      </trkpt>
      <trkpt lat="42.11903" lon="2.37105">
        <ele>1263.3</ele>
        <time>2019-04-12T02:05:23Z</time>
      </trkpt>
      <trkpt lat="42.11903" lon="2.37105">
        <ele>1263.3</ele>
        <time>2019-04-12T02:05:23Z</time>
      </trkpt>
      <trkpt lat="42.11903" lon="2.37105">
        <ele>1263.3</ele>
        <time>2019-04-12T02:05:23Z</time>
      </trkpt>
      <trkpt lat="42.11913" lon="2.37111">
        <ele>1262.6</ele>
        <time>2019-04-12T02:05:28Z</time>
      </trkpt>
      <trkpt lat="42.1194" lon="2.37131">
        <ele>1271.9</ele>
        <time>2019-04-12T02:05:40Z</time>
      </trkpt>
      <trkpt lat="42.1194" lon="2.37131">
        <ele>1272</ele>
        <time>2019-04-12T02:05:40Z</time>
      </trkpt>
      <trkpt lat="42.1194" lon="2.37131">
        <ele>1271.9</ele>
        <time>2019-04-12T02:05:40Z</time>
      </trkpt>
      <trkpt lat="42.11947" lon="2.37129">
        <ele>1271.3</ele>
        <time>2019-04-12T02:05:43Z</time>
      </trkpt>
      <trkpt lat="42.11971" lon="2.37139">
        <ele>1280.8</ele>
        <time>2019-04-12T02:05:53Z</time>
      </trkpt>
      <trkpt lat="42.11971" lon="2.37139">
        <ele>1280.8</ele>
        <time>2019-04-12T02:05:53Z</time>
      </trkpt>
      <trkpt lat="42.11971" lon="2.37139">
        <ele>1280.9</ele>
        <time>2019-04-12T02:05:53Z</time>
      </trkpt>
      <trkpt lat="42.11971" lon="2.37139">
        <ele>1280.9</ele>
        <time>2019-04-12T02:05:53Z</time>
      </trkpt>
      <trkpt lat="42.11977" lon="2.37133">
        <ele>1284.1</ele>
        <time>2019-04-12T02:05:56Z</time>
      </trkpt>
      <trkpt lat="42.11977" lon="2.37133">
        <ele>1284.2</ele>
        <time>2019-04-12T02:05:56Z</time>
      </trkpt>
      <trkpt lat="42.11977" lon="2.37133">
        <ele>1284.1</ele>
        <time>2019-04-12T02:05:56Z</time>
      </trkpt>
      <trkpt lat="42.11981" lon="2.3713">
        <ele>1287.1</ele>
        <time>2019-04-12T02:05:58Z</time>
      </trkpt>
      <trkpt lat="42.12005" lon="2.37121">
        <ele>1304.2</ele>
        <time>2019-04-12T02:06:08Z</time>
      </trkpt>
      <trkpt lat="42.12034" lon="2.37103">
        <ele>1315.2</ele>
        <time>2019-04-12T02:06:20Z</time>
      </trkpt>
      <trkpt lat="42.12053" lon="2.37099">
        <ele>1315.1</ele>
        <time>2019-04-12T02:06:28Z</time>
      </trkpt>
      <trkpt lat="42.12053" lon="2.37099">
        <ele>1315.1</ele>
        <time>2019-04-12T02:06:28Z</time>
      </trkpt>
      <trkpt lat="42.12053" lon="2.37099">
        <ele>1315.1</ele>
        <time>2019-04-12T02:06:28Z</time>
      </trkpt>
      <trkpt lat="42.12053" lon="2.37099">
        <ele>1315.2</ele>
        <time>2019-04-12T02:06:28Z</time>
      </trkpt>
      <trkpt lat="42.12061" lon="2.37101">
        <ele>1315.5</ele>
        <time>2019-04-12T02:06:31Z</time>
      </trkpt>
      <trkpt lat="42.12061" lon="2.37101">
        <ele>1315.6</ele>
        <time>2019-04-12T02:06:31Z</time>
      </trkpt>
      <trkpt lat="42.12061" lon="2.37101">
        <ele>1315.6</ele>
        <time>2019-04-12T02:06:31Z</time>
      </trkpt>
      <trkpt lat="42.12068" lon="2.37103">
        <ele>1316.3</ele>
        <time>2019-04-12T02:06:34Z</time>
      </trkpt>
      <trkpt lat="42.12084" lon="2.37112">
        <ele>1320</ele>
        <time>2019-04-12T02:06:41Z</time>
      </trkpt>
      <trkpt lat="42.12105" lon="2.37117">
        <ele>1313.5</ele>
        <time>2019-04-12T02:06:50Z</time>
      </trkpt>
      <trkpt lat="42.12119" lon="2.37124">
        <ele>1311.5</ele>
        <time>2019-04-12T02:06:56Z</time>
      </trkpt>
      <trkpt lat="42.12119" lon="2.37124">
        <ele>1311.5</ele>
        <time>2019-04-12T02:06:56Z</time>
      </trkpt>
      <trkpt lat="42.12119" lon="2.37124">
        <ele>1311.5</ele>
        <time>2019-04-12T02:06:56Z</time>
      </trkpt>
      <trkpt lat="42.12125" lon="2.37125">
        <ele>1311</ele>
        <time>2019-04-12T02:06:58Z</time>
      </trkpt>
      <trkpt lat="42.12142" lon="2.37134">
        <ele>1312.3</ele>
        <time>2019-04-12T02:07:05Z</time>
      </trkpt>
      <trkpt lat="42.12154" lon="2.37141">
        <ele>1313.3</ele>
        <time>2019-04-12T02:07:11Z</time>
      </trkpt>
      <trkpt lat="42.12173" lon="2.37146">
        <ele>1310.9</ele>
        <time>2019-04-12T02:07:18Z</time>
      </trkpt>
      <trkpt lat="42.12183" lon="2.37155">
        <ele>1311.2</ele>
        <time>2019-04-12T02:07:23Z</time>
      </trkpt>
      <trkpt lat="42.1219" lon="2.37163">
        <ele>1311.6</ele>
        <time>2019-04-12T02:07:27Z</time>
      </trkpt>
      <trkpt lat="42.12207" lon="2.37176">
        <ele>1302.1</ele>
        <time>2019-04-12T02:07:35Z</time>
      </trkpt>
      <trkpt lat="42.12223" lon="2.37195">
        <ele>1294.9</ele>
        <time>2019-04-12T02:07:43Z</time>
      </trkpt>
      <trkpt lat="42.12233" lon="2.37214">
        <ele>1289.9</ele>
        <time>2019-04-12T02:07:50Z</time>
      </trkpt>
      <trkpt lat="42.12239" lon="2.37237">
        <ele>1284.3</ele>
        <time>2019-04-12T02:07:57Z</time>
      </trkpt>
      <trkpt lat="42.12244" lon="2.37263">
        <ele>1278</ele>
        <time>2019-04-12T02:08:05Z</time>
      </trkpt>
      <trkpt lat="42.12244" lon="2.3729">
        <ele>1276.7</ele>
        <time>2019-04-12T02:08:13Z</time>
      </trkpt>
      <trkpt lat="42.12243" lon="2.37307">
        <ele>1276.9</ele>
        <time>2019-04-12T02:08:18Z</time>
      </trkpt>
      <trkpt lat="42.12243" lon="2.37307">
        <ele>1276.9</ele>
        <time>2019-04-12T02:08:18Z</time>
      </trkpt>
      <trkpt lat="42.12243" lon="2.37307">
        <ele>1277</ele>
        <time>2019-04-12T02:08:18Z</time>
      </trkpt>
      <trkpt lat="42.12243" lon="2.37307">
        <ele>1277</ele>
        <time>2019-04-12T02:08:18Z</time>
      </trkpt>
      <trkpt lat="42.12238" lon="2.37327">
        <ele>1282.4</ele>
        <time>2019-04-12T02:08:25Z</time>
      </trkpt>
      <trkpt lat="42.12238" lon="2.37327">
        <ele>1282.5</ele>
        <time>2019-04-12T02:08:25Z</time>
      </trkpt>
      <trkpt lat="42.12238" lon="2.37327">
        <ele>1282.5</ele>
        <time>2019-04-12T02:08:25Z</time>
      </trkpt>
      <trkpt lat="42.12238" lon="2.37327">
        <ele>1282.4</ele>
        <time>2019-04-12T02:08:25Z</time>
      </trkpt>
      <trkpt lat="42.12248" lon="2.37343">
        <ele>1284.3</ele>
        <time>2019-04-12T02:08:31Z</time>
      </trkpt>
      <trkpt lat="42.12255" lon="2.3736">
        <ele>1290.8</ele>
        <time>2019-04-12T02:08:37Z</time>
      </trkpt>
      <trkpt lat="42.12255" lon="2.3736">
        <ele>1290.8</ele>
        <time>2019-04-12T02:08:37Z</time>
      </trkpt>
      <trkpt lat="42.12255" lon="2.3736">
        <ele>1290.9</ele>
        <time>2019-04-12T02:08:37Z</time>
      </trkpt>
      <trkpt lat="42.12255" lon="2.3736">
        <ele>1290.9</ele>
        <time>2019-04-12T02:08:37Z</time>
      </trkpt>
      <trkpt lat="42.1227" lon="2.37349">
        <ele>1289.7</ele>
        <time>2019-04-12T02:08:43Z</time>
      </trkpt>
      <trkpt lat="42.12293" lon="2.37342">
        <ele>1286.6</ele>
        <time>2019-04-12T02:08:53Z</time>
      </trkpt>
      <trkpt lat="42.1231" lon="2.37344">
        <ele>1285.2</ele>
        <time>2019-04-12T02:09:00Z</time>
      </trkpt>
      <trkpt lat="42.12324" lon="2.37352">
        <ele>1285.6</ele>
        <time>2019-04-12T02:09:06Z</time>
      </trkpt>
      <trkpt lat="42.12337" lon="2.37361">
        <ele>1287.7</ele>
        <time>2019-04-12T02:09:12Z</time>
      </trkpt>
      <trkpt lat="42.12353" lon="2.37373">
        <ele>1290.5</ele>
        <time>2019-04-12T02:09:19Z</time>
      </trkpt>
      <trkpt lat="42.12353" lon="2.37373">
        <ele>1290.5</ele>
        <time>2019-04-12T02:09:19Z</time>
      </trkpt>
      <trkpt lat="42.12353" lon="2.37373">
        <ele>1290.5</ele>
        <time>2019-04-12T02:09:19Z</time>
      </trkpt>
      <trkpt lat="42.12353" lon="2.37373">
        <ele>1290.6</ele>
        <time>2019-04-12T02:09:19Z</time>
      </trkpt>
      <trkpt lat="42.12369" lon="2.3738">
        <ele>1293.5</ele>
        <time>2019-04-12T02:09:26Z</time>
      </trkpt>
      <trkpt lat="42.12395" lon="2.3739">
        <ele>1297.6</ele>
        <time>2019-04-12T02:09:37Z</time>
      </trkpt>
      <trkpt lat="42.12395" lon="2.3739">
        <ele>1297.6</ele>
        <time>2019-04-12T02:09:37Z</time>
      </trkpt>
      <trkpt lat="42.12395" lon="2.3739">
        <ele>1297.6</ele>
        <time>2019-04-12T02:09:37Z</time>
      </trkpt>
      <trkpt lat="42.12395" lon="2.3739">
        <ele>1297.6</ele>
        <time>2019-04-12T02:09:37Z</time>
      </trkpt>
      <trkpt lat="42.1241" lon="2.37396">
        <ele>1302</ele>
        <time>2019-04-12T02:09:43Z</time>
      </trkpt>
      <trkpt lat="42.1241" lon="2.37396">
        <ele>1302.1</ele>
        <time>2019-04-12T02:09:43Z</time>
      </trkpt>
      <trkpt lat="42.1241" lon="2.37396">
        <ele>1302</ele>
        <time>2019-04-12T02:09:43Z</time>
      </trkpt>
      <trkpt lat="42.1241" lon="2.37396">
        <ele>1302</ele>
        <time>2019-04-12T02:09:43Z</time>
      </trkpt>
      <trkpt lat="42.1242" lon="2.37368">
        <ele>1310.3</ele>
        <time>2019-04-12T02:09:52Z</time>
      </trkpt>
      <trkpt lat="42.1242" lon="2.37368">
        <ele>1310.4</ele>
        <time>2019-04-12T02:09:52Z</time>
      </trkpt>
      <trkpt lat="42.1242" lon="2.37368">
        <ele>1310.3</ele>
        <time>2019-04-12T02:09:52Z</time>
      </trkpt>
      <trkpt lat="42.1242" lon="2.37368">
        <ele>1310.4</ele>
        <time>2019-04-12T02:09:52Z</time>
      </trkpt>
      <trkpt lat="42.12414" lon="2.37364">
        <ele>1309</ele>
        <time>2019-04-12T02:09:54Z</time>
      </trkpt>
      <trkpt lat="42.12414" lon="2.37364">
        <ele>1309</ele>
        <time>2019-04-12T02:09:54Z</time>
      </trkpt>
      <trkpt lat="42.12414" lon="2.37364">
        <ele>1309.1</ele>
        <time>2019-04-12T02:09:54Z</time>
      </trkpt>
      <trkpt lat="42.12411" lon="2.3736">
        <ele>1308</ele>
        <time>2019-04-12T02:09:56Z</time>
      </trkpt>
      <trkpt lat="42.12412" lon="2.37339">
        <ele>1311.8</ele>
        <time>2019-04-12T02:10:02Z</time>
      </trkpt>
      <trkpt lat="42.12419" lon="2.37327">
        <ele>1316.2</ele>
        <time>2019-04-12T02:10:07Z</time>
      </trkpt>
      <trkpt lat="42.12421" lon="2.37304">
        <ele>1313.3</ele>
        <time>2019-04-12T02:10:14Z</time>
      </trkpt>
      <trkpt lat="42.12428" lon="2.37285">
        <ele>1309.2</ele>
        <time>2019-04-12T02:10:20Z</time>
      </trkpt>
      <trkpt lat="42.1244" lon="2.37272">
        <ele>1307.8</ele>
        <time>2019-04-12T02:10:26Z</time>
      </trkpt>
      <trkpt lat="42.12467" lon="2.37252">
        <ele>1303.4</ele>
        <time>2019-04-12T02:10:39Z</time>
      </trkpt>
      <trkpt lat="42.12467" lon="2.37252">
        <ele>1303.5</ele>
        <time>2019-04-12T02:10:39Z</time>
      </trkpt>
      <trkpt lat="42.12467" lon="2.37252">
        <ele>1303.5</ele>
        <time>2019-04-12T02:10:39Z</time>
      </trkpt>
      <trkpt lat="42.12467" lon="2.37252">
        <ele>1303.4</ele>
        <time>2019-04-12T02:10:39Z</time>
      </trkpt>
      <trkpt lat="42.12483" lon="2.37256">
        <ele>1302.2</ele>
        <time>2019-04-12T02:10:45Z</time>
      </trkpt>
      <trkpt lat="42.125" lon="2.37263">
        <ele>1299.8</ele>
        <time>2019-04-12T02:10:53Z</time>
      </trkpt>
      <trkpt lat="42.12517" lon="2.37281">
        <ele>1301</ele>
        <time>2019-04-12T02:11:01Z</time>
      </trkpt>
      <trkpt lat="42.12517" lon="2.37281">
        <ele>1301.1</ele>
        <time>2019-04-12T02:11:01Z</time>
      </trkpt>
      <trkpt lat="42.12517" lon="2.37281">
        <ele>1301</ele>
        <time>2019-04-12T02:11:01Z</time>
      </trkpt>
      <trkpt lat="42.12517" lon="2.37281">
        <ele>1301</ele>
        <time>2019-04-12T02:11:01Z</time>
      </trkpt>
      <trkpt lat="42.12523" lon="2.37281">
        <ele>1300.3</ele>
        <time>2019-04-12T02:11:03Z</time>
      </trkpt>
      <trkpt lat="42.12523" lon="2.37281">
        <ele>1300.3</ele>
        <time>2019-04-12T02:11:03Z</time>
      </trkpt>
      <trkpt lat="42.12523" lon="2.37281">
        <ele>1300.3</ele>
        <time>2019-04-12T02:11:03Z</time>
      </trkpt>
      <trkpt lat="42.12537" lon="2.37285">
        <ele>1301.4</ele>
        <time>2019-04-12T02:11:09Z</time>
      </trkpt>
      <trkpt lat="42.12551" lon="2.37295">
        <ele>1305.1</ele>
        <time>2019-04-12T02:11:15Z</time>
      </trkpt>
      <trkpt lat="42.12566" lon="2.37296">
        <ele>1306.3</ele>
        <time>2019-04-12T02:11:21Z</time>
      </trkpt>
      <trkpt lat="42.12581" lon="2.37289">
        <ele>1304.8</ele>
        <time>2019-04-12T02:11:28Z</time>
      </trkpt>
      <trkpt lat="42.12595" lon="2.37284">
        <ele>1302.7</ele>
        <time>2019-04-12T02:11:34Z</time>
      </trkpt>
      <trkpt lat="42.12606" lon="2.37281">
        <ele>1301.8</ele>
        <time>2019-04-12T02:11:38Z</time>
      </trkpt>
      <trkpt lat="42.12621" lon="2.37281">
        <ele>1301.5</ele>
        <time>2019-04-12T02:11:44Z</time>
      </trkpt>
      <trkpt lat="42.12637" lon="2.37289">
        <ele>1302.6</ele>
        <time>2019-04-12T02:11:51Z</time>
      </trkpt>
      <trkpt lat="42.12656" lon="2.3729">
        <ele>1305.2</ele>
        <time>2019-04-12T02:11:59Z</time>
      </trkpt>
      <trkpt lat="42.12676" lon="2.37283">
        <ele>1307.1</ele>
        <time>2019-04-12T02:12:07Z</time>
      </trkpt>
      <trkpt lat="42.12677" lon="2.3727">
        <ele>1308.8</ele>
        <time>2019-04-12T02:12:10Z</time>
      </trkpt>
      <trkpt lat="42.12667" lon="2.37252">
        <ele>1311.6</ele>
        <time>2019-04-12T02:12:17Z</time>
      </trkpt>
      <trkpt lat="42.12677" lon="2.37215">
        <ele>1321.2</ele>
        <time>2019-04-12T02:12:29Z</time>
      </trkpt>
      <trkpt lat="42.12677" lon="2.37215">
        <ele>1321.3</ele>
        <time>2019-04-12T02:12:29Z</time>
      </trkpt>
      <trkpt lat="42.12677" lon="2.37215">
        <ele>1321.3</ele>
        <time>2019-04-12T02:12:29Z</time>
      </trkpt>
      <trkpt lat="42.12681" lon="2.37214">
        <ele>1322.1</ele>
        <time>2019-04-12T02:12:31Z</time>
      </trkpt>
      <trkpt lat="42.12692" lon="2.37213">
        <ele>1324</ele>
        <time>2019-04-12T02:12:35Z</time>
      </trkpt>
      <trkpt lat="42.12717" lon="2.37211">
        <ele>1327.4</ele>
        <time>2019-04-12T02:12:45Z</time>
      </trkpt>
      <trkpt lat="42.12726" lon="2.37211">
        <ele>1328.4</ele>
        <time>2019-04-12T02:12:49Z</time>
      </trkpt>
      <trkpt lat="42.12744" lon="2.37211">
        <ele>1329.6</ele>
        <time>2019-04-12T02:12:56Z</time>
      </trkpt>
      <trkpt lat="42.12761" lon="2.37209">
        <ele>1329.8</ele>
        <time>2019-04-12T02:13:03Z</time>
      </trkpt>
      <trkpt lat="42.12775" lon="2.37208">
        <ele>1329.9</ele>
        <time>2019-04-12T02:13:08Z</time>
      </trkpt>
      <trkpt lat="42.12797" lon="2.37201">
        <ele>1328.4</ele>
        <time>2019-04-12T02:13:17Z</time>
      </trkpt>
      <trkpt lat="42.12811" lon="2.37189">
        <ele>1327.1</ele>
        <time>2019-04-12T02:13:24Z</time>
      </trkpt>
      <trkpt lat="42.1282" lon="2.37184">
        <ele>1327.7</ele>
        <time>2019-04-12T02:13:28Z</time>
      </trkpt>
      <trkpt lat="42.1282" lon="2.37184">
        <ele>1327.7</ele>
        <time>2019-04-12T02:13:28Z</time>
      </trkpt>
      <trkpt lat="42.1282" lon="2.37184">
        <ele>1327.8</ele>
        <time>2019-04-12T02:13:28Z</time>
      </trkpt>
      <trkpt lat="42.1282" lon="2.37184">
        <ele>1327.7</ele>
        <time>2019-04-12T02:13:28Z</time>
      </trkpt>
      <trkpt lat="42.12825" lon="2.37178">
        <ele>1328.3</ele>
        <time>2019-04-12T02:13:31Z</time>
      </trkpt>
      <trkpt lat="42.12825" lon="2.37178">
        <ele>1328.3</ele>
        <time>2019-04-12T02:13:31Z</time>
      </trkpt>
      <trkpt lat="42.12825" lon="2.37178">
        <ele>1328.3</ele>
        <time>2019-04-12T02:13:31Z</time>
      </trkpt>
      <trkpt lat="42.12828" lon="2.37174">
        <ele>1328.9</ele>
        <time>2019-04-12T02:13:32Z</time>
      </trkpt>
      <trkpt lat="42.12839" lon="2.37151">
        <ele>1333</ele>
        <time>2019-04-12T02:13:40Z</time>
      </trkpt>
      <trkpt lat="42.12846" lon="2.37138">
        <ele>1335.3</ele>
        <time>2019-04-12T02:13:45Z</time>
      </trkpt>
      <trkpt lat="42.12848" lon="2.37116">
        <ele>1339.9</ele>
        <time>2019-04-12T02:13:52Z</time>
      </trkpt>
      <trkpt lat="42.12848" lon="2.37096">
        <ele>1343.3</ele>
        <time>2019-04-12T02:13:58Z</time>
      </trkpt>
      <trkpt lat="42.12839" lon="2.37075">
        <ele>1346.8</ele>
        <time>2019-04-12T02:14:05Z</time>
      </trkpt>
      <trkpt lat="42.12838" lon="2.37061">
        <ele>1349.4</ele>
        <time>2019-04-12T02:14:09Z</time>
      </trkpt>
      <trkpt lat="42.12837" lon="2.37047">
        <ele>1353.2</ele>
        <time>2019-04-12T02:14:13Z</time>
      </trkpt>
      <trkpt lat="42.1283" lon="2.37035">
        <ele>1356.2</ele>
        <time>2019-04-12T02:14:18Z</time>
      </trkpt>
      <trkpt lat="42.12824" lon="2.37012">
        <ele>1363</ele>
        <time>2019-04-12T02:14:25Z</time>
      </trkpt>
      <trkpt lat="42.12821" lon="2.36997">
        <ele>1368.3</ele>
        <time>2019-04-12T02:14:30Z</time>
      </trkpt>
      <trkpt lat="42.12821" lon="2.36956">
        <ele>1389.7</ele>
        <time>2019-04-12T02:14:42Z</time>
      </trkpt>
      <trkpt lat="42.12821" lon="2.36956">
        <ele>1389.7</ele>
        <time>2019-04-12T02:14:42Z</time>
      </trkpt>
      <trkpt lat="42.12821" lon="2.36956">
        <ele>1389.7</ele>
        <time>2019-04-12T02:14:42Z</time>
      </trkpt>
      <trkpt lat="42.12821" lon="2.36956">
        <ele>1389.7</ele>
        <time>2019-04-12T02:14:42Z</time>
      </trkpt>
      <trkpt lat="42.12849" lon="2.36965">
        <ele>1389.6</ele>
        <time>2019-04-12T02:14:53Z</time>
      </trkpt>
      <trkpt lat="42.1287" lon="2.36933">
        <ele>1398.7</ele>
        <time>2019-04-12T02:15:06Z</time>
      </trkpt>
      <trkpt lat="42.12879" lon="2.3693">
        <ele>1396.3</ele>
        <time>2019-04-12T02:15:09Z</time>
      </trkpt>
      <trkpt lat="42.1289" lon="2.36922">
        <ele>1395</ele>
        <time>2019-04-12T02:15:15Z</time>
      </trkpt>
      <trkpt lat="42.1289" lon="2.36922">
        <ele>1395</ele>
        <time>2019-04-12T02:15:15Z</time>
      </trkpt>
      <trkpt lat="42.1289" lon="2.36922">
        <ele>1395</ele>
        <time>2019-04-12T02:15:15Z</time>
      </trkpt>
      <trkpt lat="42.1289" lon="2.36922">
        <ele>1395</ele>
        <time>2019-04-12T02:15:15Z</time>
      </trkpt>
      <trkpt lat="42.12904" lon="2.3691">
        <ele>1393.5</ele>
        <time>2019-04-12T02:15:21Z</time>
      </trkpt>
      <trkpt lat="42.12917" lon="2.36895">
        <ele>1393.6</ele>
        <time>2019-04-12T02:15:28Z</time>
      </trkpt>
      <trkpt lat="42.12928" lon="2.36881">
        <ele>1394.1</ele>
        <time>2019-04-12T02:15:34Z</time>
      </trkpt>
      <trkpt lat="42.12928" lon="2.36881">
        <ele>1394</ele>
        <time>2019-04-12T02:15:34Z</time>
      </trkpt>
      <trkpt lat="42.12928" lon="2.36881">
        <ele>1394.1</ele>
        <time>2019-04-12T02:15:34Z</time>
      </trkpt>
      <trkpt lat="42.12928" lon="2.36881">
        <ele>1394</ele>
        <time>2019-04-12T02:15:34Z</time>
      </trkpt>
      <trkpt lat="42.12943" lon="2.36859">
        <ele>1397.6</ele>
        <time>2019-04-12T02:15:43Z</time>
      </trkpt>
      <trkpt lat="42.12959" lon="2.36847">
        <ele>1400.1</ele>
        <time>2019-04-12T02:15:50Z</time>
      </trkpt>
      <trkpt lat="42.12974" lon="2.36838">
        <ele>1402.9</ele>
        <time>2019-04-12T02:15:57Z</time>
      </trkpt>
      <trkpt lat="42.12994" lon="2.36827">
        <ele>1409.5</ele>
        <time>2019-04-12T02:16:05Z</time>
      </trkpt>
      <trkpt lat="42.13006" lon="2.36807">
        <ele>1415</ele>
        <time>2019-04-12T02:16:13Z</time>
      </trkpt>
      <trkpt lat="42.13011" lon="2.36788">
        <ele>1417.6</ele>
        <time>2019-04-12T02:16:19Z</time>
      </trkpt>
      <trkpt lat="42.13012" lon="2.36757">
        <ele>1422.3</ele>
        <time>2019-04-12T02:16:28Z</time>
      </trkpt>
      <trkpt lat="42.13012" lon="2.36742">
        <ele>1425.6</ele>
        <time>2019-04-12T02:16:33Z</time>
      </trkpt>
      <trkpt lat="42.1301" lon="2.36714">
        <ele>1430.9</ele>
        <time>2019-04-12T02:16:41Z</time>
      </trkpt>
      <trkpt lat="42.13029" lon="2.36694">
        <ele>1427.3</ele>
        <time>2019-04-12T02:16:51Z</time>
      </trkpt>
      <trkpt lat="42.13029" lon="2.36694">
        <ele>1427.3</ele>
        <time>2019-04-12T02:16:51Z</time>
      </trkpt>
      <trkpt lat="42.13059" lon="2.36699">
        <ele>1407.2</ele>
        <time>2019-04-12T02:17:03Z</time>
      </trkpt>
      <trkpt lat="42.13059" lon="2.36699">
        <ele>1407.2</ele>
        <time>2019-04-12T02:17:03Z</time>
      </trkpt>
      <trkpt lat="42.13083" lon="2.36678">
        <ele>1385.4</ele>
        <time>2019-04-12T02:17:14Z</time>
      </trkpt>
      <trkpt lat="42.13083" lon="2.36678">
        <ele>1385.4</ele>
        <time>2019-04-12T02:17:14Z</time>
      </trkpt>
      <trkpt lat="42.13087" lon="2.36637">
        <ele>1374.2</ele>
        <time>2019-04-12T02:17:26Z</time>
      </trkpt>
      <trkpt lat="42.13078" lon="2.36596">
        <ele>1370</ele>
        <time>2019-04-12T02:17:39Z</time>
      </trkpt>
      <trkpt lat="42.13092" lon="2.36562">
        <ele>1353</ele>
        <time>2019-04-12T02:17:51Z</time>
      </trkpt>
      <trkpt lat="42.13092" lon="2.36562">
        <ele>1353</ele>
        <time>2019-04-12T02:17:51Z</time>
      </trkpt>
      <trkpt lat="42.13092" lon="2.36562">
        <ele>1353.1</ele>
        <time>2019-04-12T02:17:51Z</time>
      </trkpt>
      <trkpt lat="42.13092" lon="2.36562">
        <ele>1353.1</ele>
        <time>2019-04-12T02:17:51Z</time>
      </trkpt>
      <trkpt lat="42.13091" lon="2.36526">
        <ele>1341.5</ele>
        <time>2019-04-12T02:18:01Z</time>
      </trkpt>
      <trkpt lat="42.13118" lon="2.36527">
        <ele>1334.2</ele>
        <time>2019-04-12T02:18:12Z</time>
      </trkpt>
      <trkpt lat="42.13138" lon="2.36548">
        <ele>1329.9</ele>
        <time>2019-04-12T02:18:22Z</time>
      </trkpt>
      <trkpt lat="42.13165" lon="2.36576">
        <ele>1322</ele>
        <time>2019-04-12T02:18:36Z</time>
      </trkpt>
      <trkpt lat="42.13165" lon="2.36576">
        <ele>1322</ele>
        <time>2019-04-12T02:18:36Z</time>
      </trkpt>
      <trkpt lat="42.13165" lon="2.36576">
        <ele>1322.1</ele>
        <time>2019-04-12T02:18:36Z</time>
      </trkpt>
      <trkpt lat="42.13165" lon="2.36576">
        <ele>1322</ele>
        <time>2019-04-12T02:18:36Z</time>
      </trkpt>
      <trkpt lat="42.13189" lon="2.36586">
        <ele>1312.6</ele>
        <time>2019-04-12T02:18:46Z</time>
      </trkpt>
      <trkpt lat="42.13219" lon="2.36586">
        <ele>1301.4</ele>
        <time>2019-04-12T02:18:58Z</time>
      </trkpt>
      <trkpt lat="42.13249" lon="2.36579">
        <ele>1290</ele>
        <time>2019-04-12T02:19:10Z</time>
      </trkpt>
      <trkpt lat="42.13281" lon="2.36576">
        <ele>1279.7</ele>
        <time>2019-04-12T02:19:23Z</time>
      </trkpt>
      <trkpt lat="42.13281" lon="2.36576">
        <ele>1279.8</ele>
        <time>2019-04-12T02:19:23Z</time>
      </trkpt>
      <trkpt lat="42.13281" lon="2.36576">
        <ele>1279.7</ele>
        <time>2019-04-12T02:19:23Z</time>
      </trkpt>
      <trkpt lat="42.13292" lon="2.36574">
        <ele>1277</ele>
        <time>2019-04-12T02:19:28Z</time>
      </trkpt>
      <trkpt lat="42.13306" lon="2.36572">
        <ele>1273.4</ele>
        <time>2019-04-12T02:19:33Z</time>
      </trkpt>
      <trkpt lat="42.13336" lon="2.36571">
        <ele>1266.1</ele>
        <time>2019-04-12T02:19:45Z</time>
      </trkpt>
      <trkpt lat="42.1337" lon="2.36558">
        <ele>1259.3</ele>
        <time>2019-04-12T02:19:59Z</time>
      </trkpt>
      <trkpt lat="42.13382" lon="2.36555">
        <ele>1256.6</ele>
        <time>2019-04-12T02:20:04Z</time>
      </trkpt>
      <trkpt lat="42.13396" lon="2.36551">
        <ele>1253.8</ele>
        <time>2019-04-12T02:20:10Z</time>
      </trkpt>
      <trkpt lat="42.13412" lon="2.3655">
        <ele>1250.9</ele>
        <time>2019-04-12T02:20:16Z</time>
      </trkpt>
      <trkpt lat="42.13424" lon="2.3655">
        <ele>1248.9</ele>
        <time>2019-04-12T02:20:21Z</time>
      </trkpt>
      <trkpt lat="42.13448" lon="2.36549">
        <ele>1244.8</ele>
        <time>2019-04-12T02:20:31Z</time>
      </trkpt>
      <trkpt lat="42.13457" lon="2.36548">
        <ele>1243.6</ele>
        <time>2019-04-12T02:20:34Z</time>
      </trkpt>
      <trkpt lat="42.13457" lon="2.36548">
        <ele>1243.5</ele>
        <time>2019-04-12T02:20:34Z</time>
      </trkpt>
      <trkpt lat="42.13457" lon="2.36548">
        <ele>1243.6</ele>
        <time>2019-04-12T02:20:34Z</time>
      </trkpt>
      <trkpt lat="42.13469" lon="2.36548">
        <ele>1241.8</ele>
        <time>2019-04-12T02:20:39Z</time>
      </trkpt>
      <trkpt lat="42.13479" lon="2.36551">
        <ele>1240.5</ele>
        <time>2019-04-12T02:20:43Z</time>
      </trkpt>
      <trkpt lat="42.13489" lon="2.36554">
        <ele>1239.3</ele>
        <time>2019-04-12T02:20:47Z</time>
      </trkpt>
      <trkpt lat="42.13515" lon="2.36574">
        <ele>1236.2</ele>
        <time>2019-04-12T02:20:59Z</time>
      </trkpt>
      <trkpt lat="42.13523" lon="2.36606">
        <ele>1233.1</ele>
        <time>2019-04-12T02:21:09Z</time>
      </trkpt>
      <trkpt lat="42.13523" lon="2.36606">
        <ele>1233.1</ele>
        <time>2019-04-12T02:21:09Z</time>
      </trkpt>
      <trkpt lat="42.13521" lon="2.36626">
        <ele>1231.6</ele>
        <time>2019-04-12T02:21:15Z</time>
      </trkpt>
      <trkpt lat="42.1352" lon="2.36647">
        <ele>1229.9</ele>
        <time>2019-04-12T02:21:22Z</time>
      </trkpt>
      <trkpt lat="42.13516" lon="2.36685">
        <ele>1226.4</ele>
        <time>2019-04-12T02:21:33Z</time>
      </trkpt>
      <trkpt lat="42.13512" lon="2.36707">
        <ele>1224.4</ele>
        <time>2019-04-12T02:21:39Z</time>
      </trkpt>
      <trkpt lat="42.13515" lon="2.36734">
        <ele>1221.5</ele>
        <time>2019-04-12T02:21:48Z</time>
      </trkpt>
      <trkpt lat="42.13517" lon="2.36753">
        <ele>1218.9</ele>
        <time>2019-04-12T02:21:53Z</time>
      </trkpt>
      <trkpt lat="42.1352" lon="2.36764">
        <ele>1217.8</ele>
        <time>2019-04-12T02:21:57Z</time>
      </trkpt>
      <trkpt lat="42.13528" lon="2.36782">
        <ele>1215.7</ele>
        <time>2019-04-12T02:22:03Z</time>
      </trkpt>
      <trkpt lat="42.13536" lon="2.36809">
        <ele>1213.7</ele>
        <time>2019-04-12T02:22:12Z</time>
      </trkpt>
      <trkpt lat="42.13536" lon="2.36821">
        <ele>1213.4</ele>
        <time>2019-04-12T02:22:15Z</time>
      </trkpt>
      <trkpt lat="42.13536" lon="2.36821">
        <ele>1213.5</ele>
        <time>2019-04-12T02:22:15Z</time>
      </trkpt>
      <trkpt lat="42.13536" lon="2.36821">
        <ele>1213.5</ele>
        <time>2019-04-12T02:22:15Z</time>
      </trkpt>
      <trkpt lat="42.1354" lon="2.36831">
        <ele>1212.8</ele>
        <time>2019-04-12T02:22:18Z</time>
      </trkpt>
      <trkpt lat="42.13548" lon="2.36849">
        <ele>1212.6</ele>
        <time>2019-04-12T02:22:25Z</time>
      </trkpt>
      <trkpt lat="42.13562" lon="2.3687">
        <ele>1211.9</ele>
        <time>2019-04-12T02:22:33Z</time>
      </trkpt>
      <trkpt lat="42.13568" lon="2.3689">
        <ele>1211.8</ele>
        <time>2019-04-12T02:22:40Z</time>
      </trkpt>
      <trkpt lat="42.13574" lon="2.36908">
        <ele>1211.5</ele>
        <time>2019-04-12T02:22:45Z</time>
      </trkpt>
      <trkpt lat="42.13578" lon="2.36935">
        <ele>1210.7</ele>
        <time>2019-04-12T02:22:54Z</time>
      </trkpt>
      <trkpt lat="42.13583" lon="2.36963">
        <ele>1208.7</ele>
        <time>2019-04-12T02:23:02Z</time>
      </trkpt>
      <trkpt lat="42.13585" lon="2.36986">
        <ele>1207</ele>
        <time>2019-04-12T02:23:09Z</time>
      </trkpt>
      <trkpt lat="42.1359" lon="2.37008">
        <ele>1207.1</ele>
        <time>2019-04-12T02:23:16Z</time>
      </trkpt>
      <trkpt lat="42.13592" lon="2.37019">
        <ele>1208.8</ele>
        <time>2019-04-12T02:23:19Z</time>
      </trkpt>
      <trkpt lat="42.13592" lon="2.37019">
        <ele>1208.8</ele>
        <time>2019-04-12T02:23:19Z</time>
      </trkpt>
      <trkpt lat="42.13592" lon="2.37019">
        <ele>1208.8</ele>
        <time>2019-04-12T02:23:19Z</time>
      </trkpt>
      <trkpt lat="42.13596" lon="2.3702">
        <ele>1208.4</ele>
        <time>2019-04-12T02:23:21Z</time>
      </trkpt>
      <trkpt lat="42.13606" lon="2.37032">
        <ele>1209.7</ele>
        <time>2019-04-12T02:23:26Z</time>
      </trkpt>
      <trkpt lat="42.13623" lon="2.37047">
        <ele>1212.4</ele>
        <time>2019-04-12T02:23:34Z</time>
      </trkpt>
      <trkpt lat="42.13632" lon="2.37063">
        <ele>1215.7</ele>
        <time>2019-04-12T02:23:40Z</time>
      </trkpt>
      <trkpt lat="42.13645" lon="2.37096">
        <ele>1220.8</ele>
        <time>2019-04-12T02:23:51Z</time>
      </trkpt>
      <trkpt lat="42.13648" lon="2.37103">
        <ele>1221.7</ele>
        <time>2019-04-12T02:23:54Z</time>
      </trkpt>
      <trkpt lat="42.13648" lon="2.37103">
        <ele>1221.7</ele>
        <time>2019-04-12T02:23:54Z</time>
      </trkpt>
      <trkpt lat="42.13648" lon="2.37103">
        <ele>1221.7</ele>
        <time>2019-04-12T02:23:54Z</time>
      </trkpt>
      <trkpt lat="42.13646" lon="2.37112">
        <ele>1223.3</ele>
        <time>2019-04-12T02:23:56Z</time>
      </trkpt>
      <trkpt lat="42.13643" lon="2.37131">
        <ele>1225.1</ele>
        <time>2019-04-12T02:24:02Z</time>
      </trkpt>
      <trkpt lat="42.13639" lon="2.37146">
        <ele>1226.2</ele>
        <time>2019-04-12T02:24:07Z</time>
      </trkpt>
      <trkpt lat="42.13636" lon="2.37164">
        <ele>1228</ele>
        <time>2019-04-12T02:24:12Z</time>
      </trkpt>
      <trkpt lat="42.13633" lon="2.37176">
        <ele>1228</ele>
        <time>2019-04-12T02:24:16Z</time>
      </trkpt>
      <trkpt lat="42.13625" lon="2.37196">
        <ele>1228</ele>
        <time>2019-04-12T02:24:23Z</time>
      </trkpt>
      <trkpt lat="42.13619" lon="2.37208">
        <ele>1228</ele>
        <time>2019-04-12T02:24:27Z</time>
      </trkpt>
      <trkpt lat="42.13599" lon="2.3724">
        <ele>1226.9</ele>
        <time>2019-04-12T02:24:40Z</time>
      </trkpt>
      <trkpt lat="42.1358" lon="2.37246">
        <ele>1226.8</ele>
        <time>2019-04-12T02:24:47Z</time>
      </trkpt>
      <trkpt lat="42.13559" lon="2.37253">
        <ele>1228.4</ele>
        <time>2019-04-12T02:24:56Z</time>
      </trkpt>
      <trkpt lat="42.13551" lon="2.3726">
        <ele>1228.3</ele>
        <time>2019-04-12T02:25:00Z</time>
      </trkpt>
      <trkpt lat="42.13534" lon="2.37265">
        <ele>1229</ele>
        <time>2019-04-12T02:25:07Z</time>
      </trkpt>
      <trkpt lat="42.13512" lon="2.37274">
        <ele>1229.7</ele>
        <time>2019-04-12T02:25:16Z</time>
      </trkpt>
      <trkpt lat="42.13499" lon="2.3729">
        <ele>1229.5</ele>
        <time>2019-04-12T02:25:23Z</time>
      </trkpt>
      <trkpt lat="42.13492" lon="2.37303">
        <ele>1229.5</ele>
        <time>2019-04-12T02:25:28Z</time>
      </trkpt>
      <trkpt lat="42.1348" lon="2.37327">
        <ele>1228.3</ele>
        <time>2019-04-12T02:25:36Z</time>
      </trkpt>
      <trkpt lat="42.13468" lon="2.37339">
        <ele>1228.9</ele>
        <time>2019-04-12T02:25:42Z</time>
      </trkpt>
      <trkpt lat="42.13455" lon="2.37354">
        <ele>1228.3</ele>
        <time>2019-04-12T02:25:49Z</time>
      </trkpt>
      <trkpt lat="42.13449" lon="2.37377">
        <ele>1226.2</ele>
        <time>2019-04-12T02:25:57Z</time>
      </trkpt>
      <trkpt lat="42.13447" lon="2.37392">
        <ele>1224.6</ele>
        <time>2019-04-12T02:26:01Z</time>
      </trkpt>
      <trkpt lat="42.13445" lon="2.37418">
        <ele>1221.9</ele>
        <time>2019-04-12T02:26:09Z</time>
      </trkpt>
      <trkpt lat="42.13435" lon="2.37435">
        <ele>1220.3</ele>
        <time>2019-04-12T02:26:15Z</time>
      </trkpt>
      <trkpt lat="42.13436" lon="2.37461">
        <ele>1222.2</ele>
        <time>2019-04-12T02:26:23Z</time>
      </trkpt>
      <trkpt lat="42.13436" lon="2.37461">
        <ele>1222.3</ele>
        <time>2019-04-12T02:26:23Z</time>
      </trkpt>
      <trkpt lat="42.13436" lon="2.37461">
        <ele>1222.3</ele>
        <time>2019-04-12T02:26:23Z</time>
      </trkpt>
      <trkpt lat="42.13441" lon="2.37467">
        <ele>1222.6</ele>
        <time>2019-04-12T02:26:26Z</time>
      </trkpt>
      <trkpt lat="42.13456" lon="2.37478">
        <ele>1222.7</ele>
        <time>2019-04-12T02:26:33Z</time>
      </trkpt>
      <trkpt lat="42.13475" lon="2.37493">
        <ele>1223.8</ele>
        <time>2019-04-12T02:26:41Z</time>
      </trkpt>
      <trkpt lat="42.13487" lon="2.37507">
        <ele>1225.8</ele>
        <time>2019-04-12T02:26:48Z</time>
      </trkpt>
      <trkpt lat="42.13501" lon="2.37514">
        <ele>1225.9</ele>
        <time>2019-04-12T02:26:54Z</time>
      </trkpt>
      <trkpt lat="42.13501" lon="2.37514">
        <ele>1226</ele>
        <time>2019-04-12T02:26:54Z</time>
      </trkpt>
      <trkpt lat="42.13501" lon="2.37514">
        <ele>1225.9</ele>
        <time>2019-04-12T02:26:54Z</time>
      </trkpt>
      <trkpt lat="42.13501" lon="2.37514">
        <ele>1225.9</ele>
        <time>2019-04-12T02:26:54Z</time>
      </trkpt>
      <trkpt lat="42.13515" lon="2.37528">
        <ele>1227.5</ele>
        <time>2019-04-12T02:27:01Z</time>
      </trkpt>
      <trkpt lat="42.13533" lon="2.37546">
        <ele>1229.8</ele>
        <time>2019-04-12T02:27:10Z</time>
      </trkpt>
      <trkpt lat="42.13545" lon="2.37558">
        <ele>1231.8</ele>
        <time>2019-04-12T02:27:15Z</time>
      </trkpt>
      <trkpt lat="42.13556" lon="2.37569">
        <ele>1232.9</ele>
        <time>2019-04-12T02:27:21Z</time>
      </trkpt>
      <trkpt lat="42.13563" lon="2.37575">
        <ele>1233.2</ele>
        <time>2019-04-12T02:27:25Z</time>
      </trkpt>
      <trkpt lat="42.13563" lon="2.37575">
        <ele>1233.3</ele>
        <time>2019-04-12T02:27:25Z</time>
      </trkpt>
      <trkpt lat="42.13563" lon="2.37575">
        <ele>1233.2</ele>
        <time>2019-04-12T02:27:25Z</time>
      </trkpt>
      <trkpt lat="42.13569" lon="2.37575">
        <ele>1232.8</ele>
        <time>2019-04-12T02:27:27Z</time>
      </trkpt>
      <trkpt lat="42.1359" lon="2.37583">
        <ele>1232.2</ele>
        <time>2019-04-12T02:27:35Z</time>
      </trkpt>
      <trkpt lat="42.13607" lon="2.37595">
        <ele>1231.7</ele>
        <time>2019-04-12T02:27:43Z</time>
      </trkpt>
      <trkpt lat="42.13623" lon="2.37599">
        <ele>1230.7</ele>
        <time>2019-04-12T02:27:50Z</time>
      </trkpt>
      <trkpt lat="42.13628" lon="2.37603">
        <ele>1230.7</ele>
        <time>2019-04-12T02:27:52Z</time>
      </trkpt>
      <trkpt lat="42.13628" lon="2.37603">
        <ele>1230.7</ele>
        <time>2019-04-12T02:27:52Z</time>
      </trkpt>
      <trkpt lat="42.13628" lon="2.37603">
        <ele>1230.8</ele>
        <time>2019-04-12T02:27:52Z</time>
      </trkpt>
      <trkpt lat="42.13633" lon="2.37606">
        <ele>1230.8</ele>
        <time>2019-04-12T02:27:54Z</time>
      </trkpt>
      <trkpt lat="42.13641" lon="2.37608">
        <ele>1230.5</ele>
        <time>2019-04-12T02:27:57Z</time>
      </trkpt>
      <trkpt lat="42.13671" lon="2.37613">
        <ele>1228.6</ele>
        <time>2019-04-12T02:28:10Z</time>
      </trkpt>
      <trkpt lat="42.13696" lon="2.37628">
        <ele>1226.2</ele>
        <time>2019-04-12T02:28:20Z</time>
      </trkpt>
      <trkpt lat="42.1372" lon="2.3765">
        <ele>1214.6</ele>
        <time>2019-04-12T02:28:32Z</time>
      </trkpt>
      <trkpt lat="42.13736" lon="2.37671">
        <ele>1193.4</ele>
        <time>2019-04-12T02:28:41Z</time>
      </trkpt>
      <trkpt lat="42.13736" lon="2.37671">
        <ele>1193.4</ele>
        <time>2019-04-12T02:28:41Z</time>
      </trkpt>
      <trkpt lat="42.13755" lon="2.37714">
        <ele>1152.9</ele>
        <time>2019-04-12T02:28:56Z</time>
      </trkpt>
      <trkpt lat="42.13755" lon="2.37714">
        <ele>1152.9</ele>
        <time>2019-04-12T02:28:56Z</time>
      </trkpt>
      <trkpt lat="42.13778" lon="2.37733">
        <ele>1132</ele>
        <time>2019-04-12T02:29:07Z</time>
      </trkpt>
      <trkpt lat="42.13801" lon="2.37756">
        <ele>1110.9</ele>
        <time>2019-04-12T02:29:18Z</time>
      </trkpt>
      <trkpt lat="42.1382" lon="2.37787">
        <ele>1088.3</ele>
        <time>2019-04-12T02:29:30Z</time>
      </trkpt>
      <trkpt lat="42.138" lon="2.37818">
        <ele>1086.1</ele>
        <time>2019-04-12T02:29:42Z</time>
      </trkpt>
      <trkpt lat="42.13785" lon="2.3785">
        <ele>1084.5</ele>
        <time>2019-04-12T02:29:54Z</time>
      </trkpt>
      <trkpt lat="42.13782" lon="2.37871">
        <ele>1079.8</ele>
        <time>2019-04-12T02:30:00Z</time>
      </trkpt>
      <trkpt lat="42.1377" lon="2.37889">
        <ele>1080.9</ele>
        <time>2019-04-12T02:30:07Z</time>
      </trkpt>
      <trkpt lat="42.13765" lon="2.37895">
        <ele>1081.6</ele>
        <time>2019-04-12T02:30:09Z</time>
      </trkpt>
      <trkpt lat="42.13765" lon="2.37895">
        <ele>1081.6</ele>
        <time>2019-04-12T02:30:09Z</time>
      </trkpt>
      <trkpt lat="42.13765" lon="2.37895">
        <ele>1081.7</ele>
        <time>2019-04-12T02:30:09Z</time>
      </trkpt>
      <trkpt lat="42.13769" lon="2.37902">
        <ele>1078.6</ele>
        <time>2019-04-12T02:30:12Z</time>
      </trkpt>
      <trkpt lat="42.13779" lon="2.37931">
        <ele>1069.3</ele>
        <time>2019-04-12T02:30:21Z</time>
      </trkpt>
      <trkpt lat="42.13779" lon="2.37931">
        <ele>1069.3</ele>
        <time>2019-04-12T02:30:21Z</time>
      </trkpt>
      <trkpt lat="42.13779" lon="2.37931">
        <ele>1069.4</ele>
        <time>2019-04-12T02:30:21Z</time>
      </trkpt>
      <trkpt lat="42.13779" lon="2.37931">
        <ele>1069.4</ele>
        <time>2019-04-12T02:30:21Z</time>
      </trkpt>
      <trkpt lat="42.13763" lon="2.37939">
        <ele>1070.2</ele>
        <time>2019-04-12T02:30:28Z</time>
      </trkpt>
      <trkpt lat="42.13757" lon="2.37956">
        <ele>1066.1</ele>
        <time>2019-04-12T02:30:34Z</time>
      </trkpt>
      <trkpt lat="42.13764" lon="2.38">
        <ele>1052.4</ele>
        <time>2019-04-12T02:30:47Z</time>
      </trkpt>
      <trkpt lat="42.1376" lon="2.38013">
        <ele>1050.4</ele>
        <time>2019-04-12T02:30:51Z</time>
      </trkpt>
      <trkpt lat="42.1376" lon="2.38013">
        <ele>1050.4</ele>
        <time>2019-04-12T02:30:51Z</time>
      </trkpt>
      <trkpt lat="42.1376" lon="2.38013">
        <ele>1050.5</ele>
        <time>2019-04-12T02:30:51Z</time>
      </trkpt>
      <trkpt lat="42.13749" lon="2.38017">
        <ele>1051.5</ele>
        <time>2019-04-12T02:30:56Z</time>
      </trkpt>
      <trkpt lat="42.13742" lon="2.38052">
        <ele>1046.3</ele>
        <time>2019-04-12T02:31:06Z</time>
      </trkpt>
      <trkpt lat="42.1374" lon="2.38068">
        <ele>1043.4</ele>
        <time>2019-04-12T02:31:12Z</time>
      </trkpt>
      <trkpt lat="42.1374" lon="2.38068">
        <ele>1043.4</ele>
        <time>2019-04-12T02:31:12Z</time>
      </trkpt>
      <trkpt lat="42.1374" lon="2.38068">
        <ele>1043.4</ele>
        <time>2019-04-12T02:31:12Z</time>
      </trkpt>
      <trkpt lat="42.1374" lon="2.38068">
        <ele>1043.3</ele>
        <time>2019-04-12T02:31:12Z</time>
      </trkpt>
      <trkpt lat="42.13731" lon="2.38085">
        <ele>1040.9</ele>
        <time>2019-04-12T02:31:18Z</time>
      </trkpt>
      <trkpt lat="42.13725" lon="2.38107">
        <ele>1032.2</ele>
        <time>2019-04-12T02:31:25Z</time>
      </trkpt>
      <trkpt lat="42.1372" lon="2.38122">
        <ele>1027.3</ele>
        <time>2019-04-12T02:31:30Z</time>
      </trkpt>
      <trkpt lat="42.13712" lon="2.38133">
        <ele>1024.4</ele>
        <time>2019-04-12T02:31:34Z</time>
      </trkpt>
      <trkpt lat="42.13701" lon="2.38146">
        <ele>1025.4</ele>
        <time>2019-04-12T02:31:40Z</time>
      </trkpt>
      <trkpt lat="42.13682" lon="2.38149">
        <ele>1029</ele>
        <time>2019-04-12T02:31:48Z</time>
      </trkpt>
      <trkpt lat="42.13657" lon="2.38155">
        <ele>1035.8</ele>
        <time>2019-04-12T02:31:58Z</time>
      </trkpt>
      <trkpt lat="42.13657" lon="2.38155">
        <ele>1035.7</ele>
        <time>2019-04-12T02:31:58Z</time>
      </trkpt>
      <trkpt lat="42.13657" lon="2.38155">
        <ele>1035.8</ele>
        <time>2019-04-12T02:31:58Z</time>
      </trkpt>
      <trkpt lat="42.13666" lon="2.38161">
        <ele>1036.9</ele>
        <time>2019-04-12T02:32:02Z</time>
      </trkpt>
      <trkpt lat="42.13672" lon="2.38173">
        <ele>1040.3</ele>
        <time>2019-04-12T02:32:06Z</time>
      </trkpt>
      <trkpt lat="42.13688" lon="2.38176">
        <ele>1037.7</ele>
        <time>2019-04-12T02:32:13Z</time>
      </trkpt>
      <trkpt lat="42.13705" lon="2.38178">
        <ele>1036.3</ele>
        <time>2019-04-12T02:32:19Z</time>
      </trkpt>
      <trkpt lat="42.13731" lon="2.38185">
        <ele>1036.6</ele>
        <time>2019-04-12T02:32:30Z</time>
      </trkpt>
      <trkpt lat="42.13755" lon="2.38193">
        <ele>1039.6</ele>
        <time>2019-04-12T02:32:40Z</time>
      </trkpt>
      <trkpt lat="42.13773" lon="2.38202">
        <ele>1044.8</ele>
        <time>2019-04-12T02:32:48Z</time>
      </trkpt>
      <trkpt lat="42.13794" lon="2.38194">
        <ele>1043.4</ele>
        <time>2019-04-12T02:32:56Z</time>
      </trkpt>
      <trkpt lat="42.13794" lon="2.38194">
        <ele>1043.4</ele>
        <time>2019-04-12T02:32:56Z</time>
      </trkpt>
      <trkpt lat="42.13794" lon="2.38194">
        <ele>1043.3</ele>
        <time>2019-04-12T02:32:56Z</time>
      </trkpt>
      <trkpt lat="42.138" lon="2.38191">
        <ele>1042.5</ele>
        <time>2019-04-12T02:32:59Z</time>
      </trkpt>
      <trkpt lat="42.13818" lon="2.3819">
        <ele>1042.1</ele>
        <time>2019-04-12T02:33:06Z</time>
      </trkpt>
      <trkpt lat="42.13825" lon="2.38185">
        <ele>1040.6</ele>
        <time>2019-04-12T02:33:09Z</time>
      </trkpt>
      <trkpt lat="42.13825" lon="2.38185">
        <ele>1040.6</ele>
        <time>2019-04-12T02:33:09Z</time>
      </trkpt>
      <trkpt lat="42.13825" lon="2.38185">
        <ele>1040.6</ele>
        <time>2019-04-12T02:33:09Z</time>
      </trkpt>
      <trkpt lat="42.1383" lon="2.38186">
        <ele>1041.1</ele>
        <time>2019-04-12T02:33:11Z</time>
      </trkpt>
      <trkpt lat="42.13843" lon="2.3818">
        <ele>1039.3</ele>
        <time>2019-04-12T02:33:16Z</time>
      </trkpt>
      <trkpt lat="42.1387" lon="2.38175">
        <ele>1037.6</ele>
        <time>2019-04-12T02:33:27Z</time>
      </trkpt>
      <trkpt lat="42.13895" lon="2.382">
        <ele>1041.2</ele>
        <time>2019-04-12T02:33:40Z</time>
      </trkpt>
      <trkpt lat="42.13896" lon="2.38113">
        <ele>1014</ele>
        <time>2019-04-12T03:46:04Z</time>
      </trkpt>
      <trkpt lat="42.13892" lon="2.38113">
        <ele>1013.4</ele>
        <time>2019-04-12T03:46:05Z</time>
      </trkpt>
      <trkpt lat="42.13883" lon="2.38111">
        <ele>1013.5</ele>
        <time>2019-04-12T03:46:09Z</time>
      </trkpt>
      <trkpt lat="42.13877" lon="2.3811">
        <ele>1013.8</ele>
        <time>2019-04-12T03:46:11Z</time>
      </trkpt>
      <trkpt lat="42.13873" lon="2.38109">
        <ele>1014.2</ele>
        <time>2019-04-12T03:46:13Z</time>
      </trkpt>
      <trkpt lat="42.13868" lon="2.38109">
        <ele>1015.6</ele>
        <time>2019-04-12T03:46:15Z</time>
      </trkpt>
      <trkpt lat="42.13851" lon="2.38113">
        <ele>1017.9</ele>
        <time>2019-04-12T03:46:22Z</time>
      </trkpt>
      <trkpt lat="42.13846" lon="2.38115">
        <ele>1021</ele>
        <time>2019-04-12T03:46:24Z</time>
      </trkpt>
      <trkpt lat="42.13841" lon="2.38115">
        <ele>1024.2</ele>
        <time>2019-04-12T03:46:26Z</time>
      </trkpt>
      <trkpt lat="42.13835" lon="2.38111">
        <ele>1028.3</ele>
        <time>2019-04-12T03:46:29Z</time>
      </trkpt>
      <trkpt lat="42.1383" lon="2.38113">
        <ele>1031.6</ele>
        <time>2019-04-12T03:46:31Z</time>
      </trkpt>
      <trkpt lat="42.13824" lon="2.38106">
        <ele>1033.4</ele>
        <time>2019-04-12T03:46:34Z</time>
      </trkpt>
      <trkpt lat="42.13821" lon="2.381">
        <ele>1032.1</ele>
        <time>2019-04-12T03:46:36Z</time>
      </trkpt>
      <trkpt lat="42.13819" lon="2.38094">
        <ele>1030</ele>
        <time>2019-04-12T03:46:38Z</time>
      </trkpt>
      <trkpt lat="42.13824" lon="2.38092">
        <ele>1027.2</ele>
        <time>2019-04-12T03:46:40Z</time>
      </trkpt>
      <trkpt lat="42.1383" lon="2.3809">
        <ele>1025.2</ele>
        <time>2019-04-12T03:46:42Z</time>
      </trkpt>
      <trkpt lat="42.13827" lon="2.38083">
        <ele>1021.3</ele>
        <time>2019-04-12T03:46:45Z</time>
      </trkpt>
      <trkpt lat="42.1383" lon="2.38077">
        <ele>1018.7</ele>
        <time>2019-04-12T03:46:47Z</time>
      </trkpt>
      <trkpt lat="42.13834" lon="2.38072">
        <ele>1017.6</ele>
        <time>2019-04-12T03:46:49Z</time>
      </trkpt>
      <trkpt lat="42.13837" lon="2.38068">
        <ele>1017.3</ele>
        <time>2019-04-12T03:46:51Z</time>
      </trkpt>
      <trkpt lat="42.13841" lon="2.38064">
        <ele>1017.5</ele>
        <time>2019-04-12T03:46:53Z</time>
      </trkpt>
      <trkpt lat="42.13845" lon="2.3806">
        <ele>1017.6</ele>
        <time>2019-04-12T03:46:55Z</time>
      </trkpt>
      <trkpt lat="42.13848" lon="2.38055">
        <ele>1018.1</ele>
        <time>2019-04-12T03:46:57Z</time>
      </trkpt>
      <trkpt lat="42.1385" lon="2.38049">
        <ele>1018.8</ele>
        <time>2019-04-12T03:46:58Z</time>
      </trkpt>
      <trkpt lat="42.13854" lon="2.38045">
        <ele>1018.5</ele>
        <time>2019-04-12T03:47:00Z</time>
      </trkpt>
      <trkpt lat="42.13858" lon="2.3804">
        <ele>1018.9</ele>
        <time>2019-04-12T03:47:02Z</time>
      </trkpt>
      <trkpt lat="42.13862" lon="2.3804">
        <ele>1019.2</ele>
        <time>2019-04-12T03:47:04Z</time>
      </trkpt>
      <trkpt lat="42.13867" lon="2.3804">
        <ele>1017.9</ele>
        <time>2019-04-12T03:47:06Z</time>
      </trkpt>
      <trkpt lat="42.13872" lon="2.3804">
        <ele>1018.4</ele>
        <time>2019-04-12T03:47:08Z</time>
      </trkpt>
      <trkpt lat="42.13878" lon="2.38038">
        <ele>1018.6</ele>
        <time>2019-04-12T03:47:11Z</time>
      </trkpt>
      <trkpt lat="42.13882" lon="2.38036">
        <ele>1018.3</ele>
        <time>2019-04-12T03:47:12Z</time>
      </trkpt>
      <trkpt lat="42.13889" lon="2.38034">
        <ele>1017.1</ele>
        <time>2019-04-12T03:47:15Z</time>
      </trkpt>
      <trkpt lat="42.13894" lon="2.38031">
        <ele>1016.5</ele>
        <time>2019-04-12T03:47:18Z</time>
      </trkpt>
      <trkpt lat="42.139" lon="2.38033">
        <ele>1016.5</ele>
        <time>2019-04-12T03:47:20Z</time>
      </trkpt>
      <trkpt lat="42.13905" lon="2.38034">
        <ele>1016.8</ele>
        <time>2019-04-12T03:47:22Z</time>
      </trkpt>
      <trkpt lat="42.13909" lon="2.38034">
        <ele>1017.6</ele>
        <time>2019-04-12T03:47:24Z</time>
      </trkpt>
      <trkpt lat="42.13914" lon="2.38031">
        <ele>1017.2</ele>
        <time>2019-04-12T03:47:26Z</time>
      </trkpt>
      <trkpt lat="42.13919" lon="2.3803">
        <ele>1017.1</ele>
        <time>2019-04-12T03:47:28Z</time>
      </trkpt>
      <trkpt lat="42.13924" lon="2.38029">
        <ele>1016.9</ele>
        <time>2019-04-12T03:47:30Z</time>
      </trkpt>
      <trkpt lat="42.13928" lon="2.38023">
        <ele>1015.9</ele>
        <time>2019-04-12T03:47:32Z</time>
      </trkpt>
      <trkpt lat="42.13932" lon="2.3802">
        <ele>1015.6</ele>
        <time>2019-04-12T03:47:34Z</time>
      </trkpt>
      <trkpt lat="42.13939" lon="2.38017">
        <ele>1014.9</ele>
        <time>2019-04-12T03:47:37Z</time>
      </trkpt>
      <trkpt lat="42.13943" lon="2.38017">
        <ele>1014</ele>
        <time>2019-04-12T03:47:39Z</time>
      </trkpt>
      <trkpt lat="42.13949" lon="2.38016">
        <ele>1013.1</ele>
        <time>2019-04-12T03:47:41Z</time>
      </trkpt>
      <trkpt lat="42.13953" lon="2.38016">
        <ele>1012.4</ele>
        <time>2019-04-12T03:47:43Z</time>
      </trkpt>
      <trkpt lat="42.13959" lon="2.38015">
        <ele>1012.3</ele>
        <time>2019-04-12T03:47:45Z</time>
      </trkpt>
      <trkpt lat="42.13964" lon="2.38015">
        <ele>1013.8</ele>
        <time>2019-04-12T03:47:47Z</time>
      </trkpt>
      <trkpt lat="42.13969" lon="2.38015">
        <ele>1015.3</ele>
        <time>2019-04-12T03:47:49Z</time>
      </trkpt>
      <trkpt lat="42.13975" lon="2.38015">
        <ele>1017.9</ele>
        <time>2019-04-12T03:47:51Z</time>
      </trkpt>
      <trkpt lat="42.13979" lon="2.3801">
        <ele>1020.4</ele>
        <time>2019-04-12T03:47:53Z</time>
      </trkpt>
      <trkpt lat="42.13981" lon="2.38004">
        <ele>1022.3</ele>
        <time>2019-04-12T03:47:55Z</time>
      </trkpt>
      <trkpt lat="42.13983" lon="2.37998">
        <ele>1023</ele>
        <time>2019-04-12T03:47:57Z</time>
      </trkpt>
      <trkpt lat="42.13987" lon="2.37996">
        <ele>1026.1</ele>
        <time>2019-04-12T03:47:59Z</time>
      </trkpt>
      <trkpt lat="42.13988" lon="2.37989">
        <ele>1025.4</ele>
        <time>2019-04-12T03:48:01Z</time>
      </trkpt>
      <trkpt lat="42.1399" lon="2.37983">
        <ele>1024.7</ele>
        <time>2019-04-12T03:48:03Z</time>
      </trkpt>
      <trkpt lat="42.1399" lon="2.37977">
        <ele>1023.7</ele>
        <time>2019-04-12T03:48:05Z</time>
      </trkpt>
      <trkpt lat="42.13993" lon="2.37972">
        <ele>1023.3</ele>
        <time>2019-04-12T03:48:07Z</time>
      </trkpt>
      <trkpt lat="42.13997" lon="2.37966">
        <ele>1023.3</ele>
        <time>2019-04-12T03:48:09Z</time>
      </trkpt>
      <trkpt lat="42.13999" lon="2.3796">
        <ele>1023.3</ele>
        <time>2019-04-12T03:48:11Z</time>
      </trkpt>
      <trkpt lat="42.14002" lon="2.37954">
        <ele>1022.7</ele>
        <time>2019-04-12T03:48:13Z</time>
      </trkpt>
      <trkpt lat="42.14005" lon="2.3795">
        <ele>1021.4</ele>
        <time>2019-04-12T03:48:15Z</time>
      </trkpt>
      <trkpt lat="42.1401" lon="2.37944">
        <ele>1019.6</ele>
        <time>2019-04-12T03:48:18Z</time>
      </trkpt>
      <trkpt lat="42.14015" lon="2.37936">
        <ele>1017.6</ele>
        <time>2019-04-12T03:48:21Z</time>
      </trkpt>
      <trkpt lat="42.14018" lon="2.3793">
        <ele>1015.8</ele>
        <time>2019-04-12T03:48:23Z</time>
      </trkpt>
      <trkpt lat="42.14021" lon="2.37918">
        <ele>1015.3</ele>
        <time>2019-04-12T03:48:27Z</time>
      </trkpt>
      <trkpt lat="42.14023" lon="2.37911">
        <ele>1016.7</ele>
        <time>2019-04-12T03:48:29Z</time>
      </trkpt>
      <trkpt lat="42.14026" lon="2.37903">
        <ele>1018.1</ele>
        <time>2019-04-12T03:48:32Z</time>
      </trkpt>
      <trkpt lat="42.14029" lon="2.37896">
        <ele>1018.5</ele>
        <time>2019-04-12T03:48:34Z</time>
      </trkpt>
      <trkpt lat="42.1403" lon="2.37889">
        <ele>1019.2</ele>
        <time>2019-04-12T03:48:36Z</time>
      </trkpt>
      <trkpt lat="42.1403" lon="2.37882">
        <ele>1020.5</ele>
        <time>2019-04-12T03:48:38Z</time>
      </trkpt>
      <trkpt lat="42.14027" lon="2.37876">
        <ele>1020.6</ele>
        <time>2019-04-12T03:48:40Z</time>
      </trkpt>
      <trkpt lat="42.14025" lon="2.3787">
        <ele>1020.1</ele>
        <time>2019-04-12T03:48:42Z</time>
      </trkpt>
      <trkpt lat="42.14024" lon="2.37864">
        <ele>1019.8</ele>
        <time>2019-04-12T03:48:44Z</time>
      </trkpt>
      <trkpt lat="42.14022" lon="2.37857">
        <ele>1020.2</ele>
        <time>2019-04-12T03:48:46Z</time>
      </trkpt>
      <trkpt lat="42.14019" lon="2.37851">
        <ele>1020.7</ele>
        <time>2019-04-12T03:48:48Z</time>
      </trkpt>
      <trkpt lat="42.14017" lon="2.37846">
        <ele>1020.2</ele>
        <time>2019-04-12T03:48:50Z</time>
      </trkpt>
      <trkpt lat="42.14014" lon="2.37837">
        <ele>1020.6</ele>
        <time>2019-04-12T03:48:53Z</time>
      </trkpt>
      <trkpt lat="42.14011" lon="2.3783">
        <ele>1020.8</ele>
        <time>2019-04-12T03:48:55Z</time>
      </trkpt>
      <trkpt lat="42.1401" lon="2.37823">
        <ele>1020.4</ele>
        <time>2019-04-12T03:48:57Z</time>
      </trkpt>
      <trkpt lat="42.14008" lon="2.37815">
        <ele>1020.4</ele>
        <time>2019-04-12T03:49:00Z</time>
      </trkpt>
      <trkpt lat="42.14009" lon="2.37808">
        <ele>1021.2</ele>
        <time>2019-04-12T03:49:02Z</time>
      </trkpt>
      <trkpt lat="42.1401" lon="2.37802">
        <ele>1022.9</ele>
        <time>2019-04-12T03:49:04Z</time>
      </trkpt>
      <trkpt lat="42.14014" lon="2.37797">
        <ele>1025.3</ele>
        <time>2019-04-12T03:49:06Z</time>
      </trkpt>
      <trkpt lat="42.14016" lon="2.3779">
        <ele>1026.7</ele>
        <time>2019-04-12T03:49:08Z</time>
      </trkpt>
      <trkpt lat="42.14016" lon="2.37783">
        <ele>1026.8</ele>
        <time>2019-04-12T03:49:10Z</time>
      </trkpt>
      <trkpt lat="42.14012" lon="2.37779">
        <ele>1025.8</ele>
        <time>2019-04-12T03:49:12Z</time>
      </trkpt>
      <trkpt lat="42.14008" lon="2.37776">
        <ele>1025.5</ele>
        <time>2019-04-12T03:49:14Z</time>
      </trkpt>
      <trkpt lat="42.14002" lon="2.37769">
        <ele>1023</ele>
        <time>2019-04-12T03:49:17Z</time>
      </trkpt>
      <trkpt lat="42.13998" lon="2.37765">
        <ele>1021.4</ele>
        <time>2019-04-12T03:49:19Z</time>
      </trkpt>
      <trkpt lat="42.13994" lon="2.37762">
        <ele>1020.6</ele>
        <time>2019-04-12T03:49:21Z</time>
      </trkpt>
      <trkpt lat="42.13991" lon="2.37757">
        <ele>1019.4</ele>
        <time>2019-04-12T03:49:23Z</time>
      </trkpt>
      <trkpt lat="42.13993" lon="2.3775">
        <ele>1018.7</ele>
        <time>2019-04-12T03:49:25Z</time>
      </trkpt>
      <trkpt lat="42.13992" lon="2.37743">
        <ele>1017</ele>
        <time>2019-04-12T03:49:27Z</time>
      </trkpt>
      <trkpt lat="42.13989" lon="2.37737">
        <ele>1016.1</ele>
        <time>2019-04-12T03:49:29Z</time>
      </trkpt>
      <trkpt lat="42.13986" lon="2.3773">
        <ele>1016.5</ele>
        <time>2019-04-12T03:49:32Z</time>
      </trkpt>
      <trkpt lat="42.13988" lon="2.37724">
        <ele>1019.9</ele>
        <time>2019-04-12T03:49:34Z</time>
      </trkpt>
      <trkpt lat="42.13991" lon="2.37717">
        <ele>1018.3</ele>
        <time>2019-04-12T03:49:36Z</time>
      </trkpt>
      <trkpt lat="42.13995" lon="2.37709">
        <ele>1016.9</ele>
        <time>2019-04-12T03:49:39Z</time>
      </trkpt>
      <trkpt lat="42.13999" lon="2.37702">
        <ele>1015.9</ele>
        <time>2019-04-12T03:49:42Z</time>
      </trkpt>
      <trkpt lat="42.14001" lon="2.37697">
        <ele>1015.5</ele>
        <time>2019-04-12T03:49:44Z</time>
      </trkpt>
      <trkpt lat="42.14006" lon="2.37692">
        <ele>1014.9</ele>
        <time>2019-04-12T03:49:46Z</time>
      </trkpt>
      <trkpt lat="42.14009" lon="2.37688">
        <ele>1013.8</ele>
        <time>2019-04-12T03:49:48Z</time>
      </trkpt>
      <trkpt lat="42.14014" lon="2.37684">
        <ele>1012.7</ele>
        <time>2019-04-12T03:49:50Z</time>
      </trkpt>
      <trkpt lat="42.14018" lon="2.37678">
        <ele>1011.6</ele>
        <time>2019-04-12T03:49:52Z</time>
      </trkpt>
      <trkpt lat="42.14021" lon="2.37674">
        <ele>1011.2</ele>
        <time>2019-04-12T03:49:54Z</time>
      </trkpt>
      <trkpt lat="42.14024" lon="2.37669">
        <ele>1010.4</ele>
        <time>2019-04-12T03:49:56Z</time>
      </trkpt>
      <trkpt lat="42.14026" lon="2.37662">
        <ele>1009.7</ele>
        <time>2019-04-12T03:49:58Z</time>
      </trkpt>
      <trkpt lat="42.14029" lon="2.37657">
        <ele>1009.8</ele>
        <time>2019-04-12T03:50:00Z</time>
      </trkpt>
      <trkpt lat="42.14031" lon="2.37649">
        <ele>1009.4</ele>
        <time>2019-04-12T03:50:02Z</time>
      </trkpt>
      <trkpt lat="42.14031" lon="2.37641">
        <ele>1009.3</ele>
        <time>2019-04-12T03:50:05Z</time>
      </trkpt>
      <trkpt lat="42.14034" lon="2.37636">
        <ele>1009.2</ele>
        <time>2019-04-12T03:50:07Z</time>
      </trkpt>
      <trkpt lat="42.14038" lon="2.37631">
        <ele>1009.6</ele>
        <time>2019-04-12T03:50:09Z</time>
      </trkpt>
      <trkpt lat="42.14041" lon="2.37626">
        <ele>1008.3</ele>
        <time>2019-04-12T03:50:11Z</time>
      </trkpt>
      <trkpt lat="42.14045" lon="2.37618">
        <ele>1008.1</ele>
        <time>2019-04-12T03:50:14Z</time>
      </trkpt>
      <trkpt lat="42.14049" lon="2.37613">
        <ele>1007.9</ele>
        <time>2019-04-12T03:50:16Z</time>
      </trkpt>
      <trkpt lat="42.14054" lon="2.37609">
        <ele>1008.3</ele>
        <time>2019-04-12T03:50:18Z</time>
      </trkpt>
      <trkpt lat="42.14059" lon="2.37606">
        <ele>1007.6</ele>
        <time>2019-04-12T03:50:20Z</time>
      </trkpt>
      <trkpt lat="42.14064" lon="2.37605">
        <ele>1007.9</ele>
        <time>2019-04-12T03:50:22Z</time>
      </trkpt>
      <trkpt lat="42.1407" lon="2.37604">
        <ele>1009.5</ele>
        <time>2019-04-12T03:50:25Z</time>
      </trkpt>
      <trkpt lat="42.14074" lon="2.37604">
        <ele>1012.5</ele>
        <time>2019-04-12T03:50:26Z</time>
      </trkpt>
      <trkpt lat="42.1408" lon="2.37605">
        <ele>1014.6</ele>
        <time>2019-04-12T03:50:29Z</time>
      </trkpt>
      <trkpt lat="42.14076" lon="2.37603">
        <ele>1015.5</ele>
        <time>2019-04-12T03:50:31Z</time>
      </trkpt>
      <trkpt lat="42.1407" lon="2.37604">
        <ele>1016.2</ele>
        <time>2019-04-12T03:50:33Z</time>
      </trkpt>
      <trkpt lat="42.1407" lon="2.37596">
        <ele>1018.3</ele>
        <time>2019-04-12T03:50:35Z</time>
      </trkpt>
      <trkpt lat="42.14067" lon="2.37592">
        <ele>1017.9</ele>
        <time>2019-04-12T03:50:37Z</time>
      </trkpt>
      <trkpt lat="42.14064" lon="2.37588">
        <ele>1017</ele>
        <time>2019-04-12T03:50:39Z</time>
      </trkpt>
      <trkpt lat="42.14059" lon="2.37584">
        <ele>1017.4</ele>
        <time>2019-04-12T03:50:41Z</time>
      </trkpt>
      <trkpt lat="42.14055" lon="2.3758">
        <ele>1017.6</ele>
        <time>2019-04-12T03:50:43Z</time>
      </trkpt>
      <trkpt lat="42.1405" lon="2.37577">
        <ele>1017.9</ele>
        <time>2019-04-12T03:50:45Z</time>
      </trkpt>
      <trkpt lat="42.14045" lon="2.37576">
        <ele>1017.7</ele>
        <time>2019-04-12T03:50:47Z</time>
      </trkpt>
      <trkpt lat="42.1404" lon="2.37569">
        <ele>1017.3</ele>
        <time>2019-04-12T03:50:50Z</time>
      </trkpt>
      <trkpt lat="42.14039" lon="2.37561">
        <ele>1016.1</ele>
        <time>2019-04-12T03:50:52Z</time>
      </trkpt>
      <trkpt lat="42.14041" lon="2.37556">
        <ele>1015.2</ele>
        <time>2019-04-12T03:50:54Z</time>
      </trkpt>
      <trkpt lat="42.14043" lon="2.37549">
        <ele>1015.8</ele>
        <time>2019-04-12T03:50:56Z</time>
      </trkpt>
      <trkpt lat="42.14048" lon="2.37546">
        <ele>1014.8</ele>
        <time>2019-04-12T03:50:58Z</time>
      </trkpt>
      <trkpt lat="42.14052" lon="2.37542">
        <ele>1013.3</ele>
        <time>2019-04-12T03:51:01Z</time>
      </trkpt>
      <trkpt lat="42.14057" lon="2.3754">
        <ele>1013.3</ele>
        <time>2019-04-12T03:51:03Z</time>
      </trkpt>
      <trkpt lat="42.14062" lon="2.37537">
        <ele>1013.3</ele>
        <time>2019-04-12T03:51:05Z</time>
      </trkpt>
      <trkpt lat="42.14067" lon="2.37536">
        <ele>1013.2</ele>
        <time>2019-04-12T03:51:07Z</time>
      </trkpt>
      <trkpt lat="42.14072" lon="2.37534">
        <ele>1013.3</ele>
        <time>2019-04-12T03:51:09Z</time>
      </trkpt>
      <trkpt lat="42.14077" lon="2.37531">
        <ele>1014.2</ele>
        <time>2019-04-12T03:51:11Z</time>
      </trkpt>
      <trkpt lat="42.14082" lon="2.3753">
        <ele>1014.8</ele>
        <time>2019-04-12T03:51:13Z</time>
      </trkpt>
      <trkpt lat="42.14087" lon="2.3753">
        <ele>1014.5</ele>
        <time>2019-04-12T03:51:15Z</time>
      </trkpt>
      <trkpt lat="42.14092" lon="2.37527">
        <ele>1013.3</ele>
        <time>2019-04-12T03:51:17Z</time>
      </trkpt>
      <trkpt lat="42.14096" lon="2.37522">
        <ele>1012.8</ele>
        <time>2019-04-12T03:51:20Z</time>
      </trkpt>
      <trkpt lat="42.141" lon="2.37517">
        <ele>1012.4</ele>
        <time>2019-04-12T03:51:22Z</time>
      </trkpt>
      <trkpt lat="42.14103" lon="2.37511">
        <ele>1012.7</ele>
        <time>2019-04-12T03:51:24Z</time>
      </trkpt>
      <trkpt lat="42.14107" lon="2.37505">
        <ele>1013.1</ele>
        <time>2019-04-12T03:51:26Z</time>
      </trkpt>
      <trkpt lat="42.14109" lon="2.375">
        <ele>1014.4</ele>
        <time>2019-04-12T03:51:28Z</time>
      </trkpt>
      <trkpt lat="42.14113" lon="2.37495">
        <ele>1016.6</ele>
        <time>2019-04-12T03:51:30Z</time>
      </trkpt>
      <trkpt lat="42.14117" lon="2.3749">
        <ele>1018.1</ele>
        <time>2019-04-12T03:51:32Z</time>
      </trkpt>
      <trkpt lat="42.1412" lon="2.37485">
        <ele>1019.4</ele>
        <time>2019-04-12T03:51:34Z</time>
      </trkpt>
      <trkpt lat="42.14124" lon="2.37481">
        <ele>1021.1</ele>
        <time>2019-04-12T03:51:36Z</time>
      </trkpt>
      <trkpt lat="42.14128" lon="2.37476">
        <ele>1022.4</ele>
        <time>2019-04-12T03:51:38Z</time>
      </trkpt>
      <trkpt lat="42.14129" lon="2.37468">
        <ele>1023.2</ele>
        <time>2019-04-12T03:51:41Z</time>
      </trkpt>
      <trkpt lat="42.1413" lon="2.37462">
        <ele>1021.1</ele>
        <time>2019-04-12T03:51:43Z</time>
      </trkpt>
      <trkpt lat="42.14131" lon="2.37455">
        <ele>1020.2</ele>
        <time>2019-04-12T03:51:45Z</time>
      </trkpt>
      <trkpt lat="42.14133" lon="2.37448">
        <ele>1021</ele>
        <time>2019-04-12T03:51:47Z</time>
      </trkpt>
      <trkpt lat="42.14135" lon="2.37442">
        <ele>1021.5</ele>
        <time>2019-04-12T03:51:49Z</time>
      </trkpt>
      <trkpt lat="42.14139" lon="2.37435">
        <ele>1022.3</ele>
        <time>2019-04-12T03:51:51Z</time>
      </trkpt>
      <trkpt lat="42.14141" lon="2.37429">
        <ele>1023.7</ele>
        <time>2019-04-12T03:51:53Z</time>
      </trkpt>
      <trkpt lat="42.14139" lon="2.37422">
        <ele>1024.6</ele>
        <time>2019-04-12T03:51:56Z</time>
      </trkpt>
      <trkpt lat="42.14137" lon="2.37414">
        <ele>1024.9</ele>
        <time>2019-04-12T03:51:58Z</time>
      </trkpt>
      <trkpt lat="42.14138" lon="2.37408">
        <ele>1025.4</ele>
        <time>2019-04-12T03:52:00Z</time>
      </trkpt>
      <trkpt lat="42.14142" lon="2.37403">
        <ele>1025.7</ele>
        <time>2019-04-12T03:52:02Z</time>
      </trkpt>
      <trkpt lat="42.14146" lon="2.37399">
        <ele>1026.6</ele>
        <time>2019-04-12T03:52:04Z</time>
      </trkpt>
      <trkpt lat="42.1415" lon="2.37395">
        <ele>1026.7</ele>
        <time>2019-04-12T03:52:06Z</time>
      </trkpt>
      <trkpt lat="42.14152" lon="2.37388">
        <ele>1027.2</ele>
        <time>2019-04-12T03:52:08Z</time>
      </trkpt>
      <trkpt lat="42.14153" lon="2.37377">
        <ele>1026.5</ele>
        <time>2019-04-12T03:52:11Z</time>
      </trkpt>
      <trkpt lat="42.14152" lon="2.37371">
        <ele>1025.3</ele>
        <time>2019-04-12T03:52:13Z</time>
      </trkpt>
      <trkpt lat="42.14151" lon="2.37364">
        <ele>1024.9</ele>
        <time>2019-04-12T03:52:15Z</time>
      </trkpt>
      <trkpt lat="42.14151" lon="2.37358">
        <ele>1024.6</ele>
        <time>2019-04-12T03:52:17Z</time>
      </trkpt>
      <trkpt lat="42.14152" lon="2.37352">
        <ele>1024.3</ele>
        <time>2019-04-12T03:52:19Z</time>
      </trkpt>
      <trkpt lat="42.14153" lon="2.37344">
        <ele>1024.5</ele>
        <time>2019-04-12T03:52:22Z</time>
      </trkpt>
      <trkpt lat="42.14153" lon="2.37337">
        <ele>1025.2</ele>
        <time>2019-04-12T03:52:24Z</time>
      </trkpt>
      <trkpt lat="42.14152" lon="2.37329">
        <ele>1026.6</ele>
        <time>2019-04-12T03:52:26Z</time>
      </trkpt>
      <trkpt lat="42.14151" lon="2.37321">
        <ele>1027.5</ele>
        <time>2019-04-12T03:52:28Z</time>
      </trkpt>
      <trkpt lat="42.14152" lon="2.37315">
        <ele>1028.5</ele>
        <time>2019-04-12T03:52:30Z</time>
      </trkpt>
      <trkpt lat="42.14153" lon="2.37308">
        <ele>1028.6</ele>
        <time>2019-04-12T03:52:32Z</time>
      </trkpt>
      <trkpt lat="42.14152" lon="2.37302">
        <ele>1027.4</ele>
        <time>2019-04-12T03:52:34Z</time>
      </trkpt>
      <trkpt lat="42.14149" lon="2.37277">
        <ele>1026.3</ele>
        <time>2019-04-12T03:52:42Z</time>
      </trkpt>
      <trkpt lat="42.14147" lon="2.37267">
        <ele>1026.9</ele>
        <time>2019-04-12T03:52:45Z</time>
      </trkpt>
      <trkpt lat="42.14144" lon="2.37259">
        <ele>1027.9</ele>
        <time>2019-04-12T03:52:47Z</time>
      </trkpt>
      <trkpt lat="42.14144" lon="2.37253">
        <ele>1029</ele>
        <time>2019-04-12T03:52:49Z</time>
      </trkpt>
      <trkpt lat="42.14142" lon="2.37245">
        <ele>1030</ele>
        <time>2019-04-12T03:52:52Z</time>
      </trkpt>
      <trkpt lat="42.1414" lon="2.37238">
        <ele>1030.5</ele>
        <time>2019-04-12T03:52:54Z</time>
      </trkpt>
      <trkpt lat="42.14139" lon="2.37232">
        <ele>1030.1</ele>
        <time>2019-04-12T03:52:56Z</time>
      </trkpt>
      <trkpt lat="42.14137" lon="2.37223">
        <ele>1029.4</ele>
        <time>2019-04-12T03:52:58Z</time>
      </trkpt>
      <trkpt lat="42.14137" lon="2.37214">
        <ele>1029.7</ele>
        <time>2019-04-12T03:53:01Z</time>
      </trkpt>
      <trkpt lat="42.14137" lon="2.37207">
        <ele>1030</ele>
        <time>2019-04-12T03:53:03Z</time>
      </trkpt>
      <trkpt lat="42.14138" lon="2.372">
        <ele>1029.7</ele>
        <time>2019-04-12T03:53:05Z</time>
      </trkpt>
      <trkpt lat="42.14141" lon="2.37194">
        <ele>1029.4</ele>
        <time>2019-04-12T03:53:08Z</time>
      </trkpt>
      <trkpt lat="42.14143" lon="2.37186">
        <ele>1028.9</ele>
        <time>2019-04-12T03:53:10Z</time>
      </trkpt>
      <trkpt lat="42.14146" lon="2.37179">
        <ele>1029.4</ele>
        <time>2019-04-12T03:53:12Z</time>
      </trkpt>
      <trkpt lat="42.14149" lon="2.37173">
        <ele>1030.7</ele>
        <time>2019-04-12T03:53:15Z</time>
      </trkpt>
      <trkpt lat="42.14151" lon="2.37166">
        <ele>1031.1</ele>
        <time>2019-04-12T03:53:17Z</time>
      </trkpt>
      <trkpt lat="42.14153" lon="2.37158">
        <ele>1030.9</ele>
        <time>2019-04-12T03:53:19Z</time>
      </trkpt>
      <trkpt lat="42.14155" lon="2.37151">
        <ele>1031.2</ele>
        <time>2019-04-12T03:53:21Z</time>
      </trkpt>
      <trkpt lat="42.14157" lon="2.37144">
        <ele>1031.6</ele>
        <time>2019-04-12T03:53:24Z</time>
      </trkpt>
      <trkpt lat="42.1416" lon="2.37136">
        <ele>1031.8</ele>
        <time>2019-04-12T03:53:26Z</time>
      </trkpt>
      <trkpt lat="42.14162" lon="2.37129">
        <ele>1032.2</ele>
        <time>2019-04-12T03:53:29Z</time>
      </trkpt>
      <trkpt lat="42.14164" lon="2.3712">
        <ele>1032.8</ele>
        <time>2019-04-12T03:53:31Z</time>
      </trkpt>
      <trkpt lat="42.14166" lon="2.37111">
        <ele>1033.1</ele>
        <time>2019-04-12T03:53:34Z</time>
      </trkpt>
      <trkpt lat="42.14169" lon="2.37102">
        <ele>1033.1</ele>
        <time>2019-04-12T03:53:37Z</time>
      </trkpt>
      <trkpt lat="42.1417" lon="2.37094">
        <ele>1032.9</ele>
        <time>2019-04-12T03:53:39Z</time>
      </trkpt>
      <trkpt lat="42.14171" lon="2.37085">
        <ele>1033.2</ele>
        <time>2019-04-12T03:53:42Z</time>
      </trkpt>
      <trkpt lat="42.14172" lon="2.37079">
        <ele>1033.3</ele>
        <time>2019-04-12T03:53:44Z</time>
      </trkpt>
      <trkpt lat="42.14174" lon="2.37073">
        <ele>1033.3</ele>
        <time>2019-04-12T03:53:46Z</time>
      </trkpt>
      <trkpt lat="42.14174" lon="2.37065">
        <ele>1033.4</ele>
        <time>2019-04-12T03:53:48Z</time>
      </trkpt>
      <trkpt lat="42.14174" lon="2.37059">
        <ele>1034.1</ele>
        <time>2019-04-12T03:53:50Z</time>
      </trkpt>
      <trkpt lat="42.14173" lon="2.3705">
        <ele>1035.4</ele>
        <time>2019-04-12T03:53:53Z</time>
      </trkpt>
      <trkpt lat="42.14174" lon="2.37043">
        <ele>1036.2</ele>
        <time>2019-04-12T03:53:55Z</time>
      </trkpt>
      <trkpt lat="42.14177" lon="2.37036">
        <ele>1038.9</ele>
        <time>2019-04-12T03:53:57Z</time>
      </trkpt>
      <trkpt lat="42.14182" lon="2.37033">
        <ele>1042.6</ele>
        <time>2019-04-12T03:53:59Z</time>
      </trkpt>
      <trkpt lat="42.14186" lon="2.37028">
        <ele>1044.7</ele>
        <time>2019-04-12T03:54:02Z</time>
      </trkpt>
      <trkpt lat="42.14189" lon="2.37022">
        <ele>1046.4</ele>
        <time>2019-04-12T03:54:04Z</time>
      </trkpt>
      <trkpt lat="42.14193" lon="2.37018">
        <ele>1048</ele>
        <time>2019-04-12T03:54:06Z</time>
      </trkpt>
      <trkpt lat="42.14197" lon="2.37013">
        <ele>1049.7</ele>
        <time>2019-04-12T03:54:08Z</time>
      </trkpt>
      <trkpt lat="42.142" lon="2.37007">
        <ele>1051.5</ele>
        <time>2019-04-12T03:54:10Z</time>
      </trkpt>
      <trkpt lat="42.14205" lon="2.37004">
        <ele>1053</ele>
        <time>2019-04-12T03:54:12Z</time>
      </trkpt>
      <trkpt lat="42.1421" lon="2.37004">
        <ele>1054.9</ele>
        <time>2019-04-12T03:54:14Z</time>
      </trkpt>
      <trkpt lat="42.14216" lon="2.37003">
        <ele>1057.9</ele>
        <time>2019-04-12T03:54:17Z</time>
      </trkpt>
      <trkpt lat="42.14216" lon="2.36996">
        <ele>1061.8</ele>
        <time>2019-04-12T03:54:19Z</time>
      </trkpt>
      <trkpt lat="42.14212" lon="2.36992">
        <ele>1063</ele>
        <time>2019-04-12T03:54:21Z</time>
      </trkpt>
      <trkpt lat="42.14212" lon="2.36985">
        <ele>1064.3</ele>
        <time>2019-04-12T03:54:23Z</time>
      </trkpt>
      <trkpt lat="42.14208" lon="2.36982">
        <ele>1064.6</ele>
        <time>2019-04-12T03:54:25Z</time>
      </trkpt>
      <trkpt lat="42.14206" lon="2.36976">
        <ele>1064.3</ele>
        <time>2019-04-12T03:54:27Z</time>
      </trkpt>
      <trkpt lat="42.14212" lon="2.36976">
        <ele>1066.4</ele>
        <time>2019-04-12T03:54:29Z</time>
      </trkpt>
      <trkpt lat="42.14218" lon="2.36975">
        <ele>1069.2</ele>
        <time>2019-04-12T03:54:31Z</time>
      </trkpt>
      <trkpt lat="42.14219" lon="2.3697">
        <ele>1071.8</ele>
        <time>2019-04-12T03:54:33Z</time>
      </trkpt>
      <trkpt lat="42.1422" lon="2.36963">
        <ele>1075</ele>
        <time>2019-04-12T03:54:35Z</time>
      </trkpt>
      <trkpt lat="42.14218" lon="2.36955">
        <ele>1077.6</ele>
        <time>2019-04-12T03:54:37Z</time>
      </trkpt>
      <trkpt lat="42.14217" lon="2.36949">
        <ele>1077.9</ele>
        <time>2019-04-12T03:54:39Z</time>
      </trkpt>
      <trkpt lat="42.14213" lon="2.36944">
        <ele>1077.8</ele>
        <time>2019-04-12T03:54:42Z</time>
      </trkpt>
      <trkpt lat="42.14209" lon="2.36938">
        <ele>1080.2</ele>
        <time>2019-04-12T03:54:44Z</time>
      </trkpt>
      <trkpt lat="42.14205" lon="2.36935">
        <ele>1079.6</ele>
        <time>2019-04-12T03:54:46Z</time>
      </trkpt>
      <trkpt lat="42.14201" lon="2.3693">
        <ele>1075.7</ele>
        <time>2019-04-12T03:54:48Z</time>
      </trkpt>
      <trkpt lat="42.14199" lon="2.36925">
        <ele>1071.7</ele>
        <time>2019-04-12T03:54:50Z</time>
      </trkpt>
      <trkpt lat="42.14195" lon="2.36921">
        <ele>1073.2</ele>
        <time>2019-04-12T03:54:51Z</time>
      </trkpt>
      <trkpt lat="42.1419" lon="2.36919">
        <ele>1074.6</ele>
        <time>2019-04-12T03:54:54Z</time>
      </trkpt>
      <trkpt lat="42.14185" lon="2.36915">
        <ele>1075.6</ele>
        <time>2019-04-12T03:54:56Z</time>
      </trkpt>
      <trkpt lat="42.14179" lon="2.36912">
        <ele>1077.2</ele>
        <time>2019-04-12T03:54:58Z</time>
      </trkpt>
      <trkpt lat="42.14175" lon="2.36911">
        <ele>1077.8</ele>
        <time>2019-04-12T03:55:00Z</time>
      </trkpt>
      <trkpt lat="42.1417" lon="2.36914">
        <ele>1079.4</ele>
        <time>2019-04-12T03:55:02Z</time>
      </trkpt>
      <trkpt lat="42.14171" lon="2.36921">
        <ele>1081.5</ele>
        <time>2019-04-12T03:55:05Z</time>
      </trkpt>
      <trkpt lat="42.14172" lon="2.3693">
        <ele>1084.4</ele>
        <time>2019-04-12T03:55:07Z</time>
      </trkpt>
      <trkpt lat="42.14174" lon="2.36936">
        <ele>1087.7</ele>
        <time>2019-04-12T03:55:09Z</time>
      </trkpt>
      <trkpt lat="42.14176" lon="2.36942">
        <ele>1091.7</ele>
        <time>2019-04-12T03:55:11Z</time>
      </trkpt>
      <trkpt lat="42.14167" lon="2.36942">
        <ele>1094</ele>
        <time>2019-04-12T03:55:15Z</time>
      </trkpt>
      <trkpt lat="42.14164" lon="2.36936">
        <ele>1096.4</ele>
        <time>2019-04-12T03:55:17Z</time>
      </trkpt>
      <trkpt lat="42.14161" lon="2.3693">
        <ele>1099.2</ele>
        <time>2019-04-12T03:55:19Z</time>
      </trkpt>
      <trkpt lat="42.14156" lon="2.36928">
        <ele>1101</ele>
        <time>2019-04-12T03:55:21Z</time>
      </trkpt>
      <trkpt lat="42.14149" lon="2.36927">
        <ele>1101.3</ele>
        <time>2019-04-12T03:55:24Z</time>
      </trkpt>
      <trkpt lat="42.14145" lon="2.36929">
        <ele>1102.1</ele>
        <time>2019-04-12T03:55:26Z</time>
      </trkpt>
      <trkpt lat="42.1414" lon="2.36929">
        <ele>1101.9</ele>
        <time>2019-04-12T03:55:28Z</time>
      </trkpt>
      <trkpt lat="42.14134" lon="2.36931">
        <ele>1102.9</ele>
        <time>2019-04-12T03:55:30Z</time>
      </trkpt>
      <trkpt lat="42.14129" lon="2.3693">
        <ele>1102.6</ele>
        <time>2019-04-12T03:55:32Z</time>
      </trkpt>
      <trkpt lat="42.14124" lon="2.36927">
        <ele>1103.4</ele>
        <time>2019-04-12T03:55:34Z</time>
      </trkpt>
      <trkpt lat="42.14119" lon="2.36926">
        <ele>1104.6</ele>
        <time>2019-04-12T03:55:36Z</time>
      </trkpt>
      <trkpt lat="42.14116" lon="2.36921">
        <ele>1107.4</ele>
        <time>2019-04-12T03:55:38Z</time>
      </trkpt>
      <trkpt lat="42.14112" lon="2.36917">
        <ele>1111.3</ele>
        <time>2019-04-12T03:55:40Z</time>
      </trkpt>
      <trkpt lat="42.14107" lon="2.36916">
        <ele>1114</ele>
        <time>2019-04-12T03:55:42Z</time>
      </trkpt>
      <trkpt lat="42.14102" lon="2.36918">
        <ele>1116.2</ele>
        <time>2019-04-12T03:55:44Z</time>
      </trkpt>
      <trkpt lat="42.141" lon="2.36912">
        <ele>1118</ele>
        <time>2019-04-12T03:55:46Z</time>
      </trkpt>
      <trkpt lat="42.14097" lon="2.36906">
        <ele>1120.3</ele>
        <time>2019-04-12T03:55:48Z</time>
      </trkpt>
      <trkpt lat="42.14097" lon="2.369">
        <ele>1120.8</ele>
        <time>2019-04-12T03:55:50Z</time>
      </trkpt>
      <trkpt lat="42.141" lon="2.36894">
        <ele>1123</ele>
        <time>2019-04-12T03:55:52Z</time>
      </trkpt>
      <trkpt lat="42.14105" lon="2.36891">
        <ele>1124.7</ele>
        <time>2019-04-12T03:55:54Z</time>
      </trkpt>
      <trkpt lat="42.1411" lon="2.36889">
        <ele>1127</ele>
        <time>2019-04-12T03:55:56Z</time>
      </trkpt>
      <trkpt lat="42.1411" lon="2.36883">
        <ele>1129.4</ele>
        <time>2019-04-12T03:55:58Z</time>
      </trkpt>
      <trkpt lat="42.14106" lon="2.36884">
        <ele>1130.7</ele>
        <time>2019-04-12T03:56:00Z</time>
      </trkpt>
      <trkpt lat="42.14104" lon="2.36878">
        <ele>1133</ele>
        <time>2019-04-12T03:56:02Z</time>
      </trkpt>
      <trkpt lat="42.14107" lon="2.36871">
        <ele>1134.9</ele>
        <time>2019-04-12T03:56:04Z</time>
      </trkpt>
      <trkpt lat="42.14104" lon="2.36866">
        <ele>1135.8</ele>
        <time>2019-04-12T03:56:06Z</time>
      </trkpt>
      <trkpt lat="42.14098" lon="2.36868">
        <ele>1135.9</ele>
        <time>2019-04-12T03:56:09Z</time>
      </trkpt>
      <trkpt lat="42.14094" lon="2.36871">
        <ele>1137</ele>
        <time>2019-04-12T03:56:10Z</time>
      </trkpt>
      <trkpt lat="42.14089" lon="2.36872">
        <ele>1138.6</ele>
        <time>2019-04-12T03:56:12Z</time>
      </trkpt>
      <trkpt lat="42.14084" lon="2.36873">
        <ele>1139.4</ele>
        <time>2019-04-12T03:56:14Z</time>
      </trkpt>
      <trkpt lat="42.14079" lon="2.36875">
        <ele>1140.8</ele>
        <time>2019-04-12T03:56:16Z</time>
      </trkpt>
      <trkpt lat="42.14074" lon="2.36879">
        <ele>1143.7</ele>
        <time>2019-04-12T03:56:19Z</time>
      </trkpt>
      <trkpt lat="42.14072" lon="2.36872">
        <ele>1145.4</ele>
        <time>2019-04-12T03:56:21Z</time>
      </trkpt>
      <trkpt lat="42.14067" lon="2.36873">
        <ele>1146.7</ele>
        <time>2019-04-12T03:56:24Z</time>
      </trkpt>
      <trkpt lat="42.14062" lon="2.36877">
        <ele>1148.7</ele>
        <time>2019-04-12T03:56:26Z</time>
      </trkpt>
      <trkpt lat="42.14057" lon="2.36881">
        <ele>1150.9</ele>
        <time>2019-04-12T03:56:28Z</time>
      </trkpt>
      <trkpt lat="42.14056" lon="2.36875">
        <ele>1152.6</ele>
        <time>2019-04-12T03:56:30Z</time>
      </trkpt>
      <trkpt lat="42.14053" lon="2.36869">
        <ele>1152.9</ele>
        <time>2019-04-12T03:56:32Z</time>
      </trkpt>
      <trkpt lat="42.14051" lon="2.36863">
        <ele>1153.3</ele>
        <time>2019-04-12T03:56:34Z</time>
      </trkpt>
      <trkpt lat="42.14048" lon="2.36855">
        <ele>1153.2</ele>
        <time>2019-04-12T03:56:36Z</time>
      </trkpt>
      <trkpt lat="42.14045" lon="2.3685">
        <ele>1155.2</ele>
        <time>2019-04-12T03:56:38Z</time>
      </trkpt>
      <trkpt lat="42.14044" lon="2.36844">
        <ele>1156.5</ele>
        <time>2019-04-12T03:56:40Z</time>
      </trkpt>
      <trkpt lat="42.14041" lon="2.36839">
        <ele>1157.5</ele>
        <time>2019-04-12T03:56:42Z</time>
      </trkpt>
      <trkpt lat="42.14045" lon="2.36835">
        <ele>1158.8</ele>
        <time>2019-04-12T03:56:44Z</time>
      </trkpt>
      <trkpt lat="42.14049" lon="2.36832">
        <ele>1159.2</ele>
        <time>2019-04-12T03:56:46Z</time>
      </trkpt>
      <trkpt lat="42.14052" lon="2.36825">
        <ele>1160</ele>
        <time>2019-04-12T03:56:48Z</time>
      </trkpt>
      <trkpt lat="42.14054" lon="2.36818">
        <ele>1161.1</ele>
        <time>2019-04-12T03:56:50Z</time>
      </trkpt>
      <trkpt lat="42.14054" lon="2.36811">
        <ele>1162.4</ele>
        <time>2019-04-12T03:56:52Z</time>
      </trkpt>
      <trkpt lat="42.14055" lon="2.36805">
        <ele>1163.3</ele>
        <time>2019-04-12T03:56:54Z</time>
      </trkpt>
      <trkpt lat="42.14055" lon="2.36798">
        <ele>1163.8</ele>
        <time>2019-04-12T03:56:56Z</time>
      </trkpt>
      <trkpt lat="42.14054" lon="2.36791">
        <ele>1164.1</ele>
        <time>2019-04-12T03:56:58Z</time>
      </trkpt>
      <trkpt lat="42.14053" lon="2.36784">
        <ele>1163.9</ele>
        <time>2019-04-12T03:57:00Z</time>
      </trkpt>
      <trkpt lat="42.14054" lon="2.36777">
        <ele>1163</ele>
        <time>2019-04-12T03:57:02Z</time>
      </trkpt>
      <trkpt lat="42.14053" lon="2.3677">
        <ele>1162.8</ele>
        <time>2019-04-12T03:57:05Z</time>
      </trkpt>
      <trkpt lat="42.14049" lon="2.36763">
        <ele>1162.5</ele>
        <time>2019-04-12T03:57:07Z</time>
      </trkpt>
      <trkpt lat="42.14046" lon="2.36757">
        <ele>1163.2</ele>
        <time>2019-04-12T03:57:09Z</time>
      </trkpt>
      <trkpt lat="42.14042" lon="2.36753">
        <ele>1163.1</ele>
        <time>2019-04-12T03:57:11Z</time>
      </trkpt>
      <trkpt lat="42.14038" lon="2.36747">
        <ele>1163</ele>
        <time>2019-04-12T03:57:14Z</time>
      </trkpt>
      <trkpt lat="42.14034" lon="2.36746">
        <ele>1163.3</ele>
        <time>2019-04-12T03:57:15Z</time>
      </trkpt>
      <trkpt lat="42.14029" lon="2.36742">
        <ele>1164.7</ele>
        <time>2019-04-12T03:57:18Z</time>
      </trkpt>
      <trkpt lat="42.14026" lon="2.36737">
        <ele>1166.3</ele>
        <time>2019-04-12T03:57:19Z</time>
      </trkpt>
      <trkpt lat="42.14025" lon="2.3673">
        <ele>1169.1</ele>
        <time>2019-04-12T03:57:22Z</time>
      </trkpt>
      <trkpt lat="42.14029" lon="2.36728">
        <ele>1171.6</ele>
        <time>2019-04-12T03:57:23Z</time>
      </trkpt>
      <trkpt lat="42.14034" lon="2.3673">
        <ele>1173.8</ele>
        <time>2019-04-12T03:57:26Z</time>
      </trkpt>
      <trkpt lat="42.1404" lon="2.36731">
        <ele>1175.4</ele>
        <time>2019-04-12T03:57:28Z</time>
      </trkpt>
      <trkpt lat="42.14045" lon="2.3673">
        <ele>1176.9</ele>
        <time>2019-04-12T03:57:30Z</time>
      </trkpt>
      <trkpt lat="42.14048" lon="2.36726">
        <ele>1178.1</ele>
        <time>2019-04-12T03:57:32Z</time>
      </trkpt>
      <trkpt lat="42.14047" lon="2.3672">
        <ele>1179.2</ele>
        <time>2019-04-12T03:57:34Z</time>
      </trkpt>
      <trkpt lat="42.14044" lon="2.36715">
        <ele>1180.4</ele>
        <time>2019-04-12T03:57:35Z</time>
      </trkpt>
      <trkpt lat="42.14041" lon="2.36707">
        <ele>1181.1</ele>
        <time>2019-04-12T03:57:38Z</time>
      </trkpt>
      <trkpt lat="42.1404" lon="2.36701">
        <ele>1182.2</ele>
        <time>2019-04-12T03:57:40Z</time>
      </trkpt>
      <trkpt lat="42.14036" lon="2.36698">
        <ele>1182.9</ele>
        <time>2019-04-12T03:57:42Z</time>
      </trkpt>
      <trkpt lat="42.14033" lon="2.36693">
        <ele>1183.5</ele>
        <time>2019-04-12T03:57:44Z</time>
      </trkpt>
      <trkpt lat="42.1403" lon="2.36685">
        <ele>1183.9</ele>
        <time>2019-04-12T03:57:46Z</time>
      </trkpt>
      <trkpt lat="42.14029" lon="2.36676">
        <ele>1184.9</ele>
        <time>2019-04-12T03:57:49Z</time>
      </trkpt>
      <trkpt lat="42.14028" lon="2.36667">
        <ele>1185.4</ele>
        <time>2019-04-12T03:57:52Z</time>
      </trkpt>
      <trkpt lat="42.14027" lon="2.36658">
        <ele>1185.7</ele>
        <time>2019-04-12T03:57:54Z</time>
      </trkpt>
      <trkpt lat="42.14027" lon="2.36651">
        <ele>1186.6</ele>
        <time>2019-04-12T03:57:56Z</time>
      </trkpt>
      <trkpt lat="42.14028" lon="2.36643">
        <ele>1188.2</ele>
        <time>2019-04-12T03:57:59Z</time>
      </trkpt>
      <trkpt lat="42.1403" lon="2.36636">
        <ele>1190.7</ele>
        <time>2019-04-12T03:58:01Z</time>
      </trkpt>
      <trkpt lat="42.14034" lon="2.3663">
        <ele>1193.1</ele>
        <time>2019-04-12T03:58:03Z</time>
      </trkpt>
      <trkpt lat="42.14037" lon="2.36624">
        <ele>1195.1</ele>
        <time>2019-04-12T03:58:06Z</time>
      </trkpt>
      <trkpt lat="42.14039" lon="2.36617">
        <ele>1197.7</ele>
        <time>2019-04-12T03:58:08Z</time>
      </trkpt>
      <trkpt lat="42.14041" lon="2.36609">
        <ele>1199.4</ele>
        <time>2019-04-12T03:58:10Z</time>
      </trkpt>
      <trkpt lat="42.14043" lon="2.36603">
        <ele>1199.6</ele>
        <time>2019-04-12T03:58:12Z</time>
      </trkpt>
      <trkpt lat="42.14045" lon="2.36595">
        <ele>1200.4</ele>
        <time>2019-04-12T03:58:15Z</time>
      </trkpt>
      <trkpt lat="42.14046" lon="2.36587">
        <ele>1201.9</ele>
        <time>2019-04-12T03:58:17Z</time>
      </trkpt>
      <trkpt lat="42.14046" lon="2.3658">
        <ele>1203.6</ele>
        <time>2019-04-12T03:58:19Z</time>
      </trkpt>
      <trkpt lat="42.14046" lon="2.36572">
        <ele>1206.4</ele>
        <time>2019-04-12T03:58:22Z</time>
      </trkpt>
      <trkpt lat="42.14045" lon="2.3656">
        <ele>1208.6</ele>
        <time>2019-04-12T03:58:25Z</time>
      </trkpt>
      <trkpt lat="42.14042" lon="2.36555">
        <ele>1210.8</ele>
        <time>2019-04-12T03:58:27Z</time>
      </trkpt>
      <trkpt lat="42.14039" lon="2.3655">
        <ele>1211.7</ele>
        <time>2019-04-12T03:58:29Z</time>
      </trkpt>
      <trkpt lat="42.14035" lon="2.36546">
        <ele>1212</ele>
        <time>2019-04-12T03:58:31Z</time>
      </trkpt>
      <trkpt lat="42.14029" lon="2.36543">
        <ele>1211.9</ele>
        <time>2019-04-12T03:58:33Z</time>
      </trkpt>
      <trkpt lat="42.14026" lon="2.36539">
        <ele>1211.7</ele>
        <time>2019-04-12T03:58:35Z</time>
      </trkpt>
      <trkpt lat="42.14021" lon="2.36534">
        <ele>1212</ele>
        <time>2019-04-12T03:58:37Z</time>
      </trkpt>
      <trkpt lat="42.14017" lon="2.3653">
        <ele>1212.6</ele>
        <time>2019-04-12T03:58:39Z</time>
      </trkpt>
      <trkpt lat="42.14014" lon="2.36526">
        <ele>1212.8</ele>
        <time>2019-04-12T03:58:41Z</time>
      </trkpt>
      <trkpt lat="42.1401" lon="2.36523">
        <ele>1213.2</ele>
        <time>2019-04-12T03:58:43Z</time>
      </trkpt>
      <trkpt lat="42.14003" lon="2.36519">
        <ele>1213.7</ele>
        <time>2019-04-12T03:58:46Z</time>
      </trkpt>
      <trkpt lat="42.13998" lon="2.36516">
        <ele>1215.5</ele>
        <time>2019-04-12T03:58:48Z</time>
      </trkpt>
      <trkpt lat="42.13994" lon="2.36511">
        <ele>1216.9</ele>
        <time>2019-04-12T03:58:51Z</time>
      </trkpt>
      <trkpt lat="42.13991" lon="2.36505">
        <ele>1217.8</ele>
        <time>2019-04-12T03:58:52Z</time>
      </trkpt>
      <trkpt lat="42.13992" lon="2.36499">
        <ele>1217.6</ele>
        <time>2019-04-12T03:58:54Z</time>
      </trkpt>
      <trkpt lat="42.13992" lon="2.36493">
        <ele>1216.4</ele>
        <time>2019-04-12T03:58:56Z</time>
      </trkpt>
      <trkpt lat="42.13994" lon="2.36485">
        <ele>1216.7</ele>
        <time>2019-04-12T03:58:59Z</time>
      </trkpt>
      <trkpt lat="42.13995" lon="2.36474">
        <ele>1217.6</ele>
        <time>2019-04-12T03:59:02Z</time>
      </trkpt>
      <trkpt lat="42.13996" lon="2.36465">
        <ele>1218.5</ele>
        <time>2019-04-12T03:59:05Z</time>
      </trkpt>
      <trkpt lat="42.13997" lon="2.36458">
        <ele>1220.2</ele>
        <time>2019-04-12T03:59:07Z</time>
      </trkpt>
      <trkpt lat="42.13997" lon="2.36449">
        <ele>1222.7</ele>
        <time>2019-04-12T03:59:09Z</time>
      </trkpt>
      <trkpt lat="42.13996" lon="2.3644">
        <ele>1224.5</ele>
        <time>2019-04-12T03:59:12Z</time>
      </trkpt>
      <trkpt lat="42.13995" lon="2.36433">
        <ele>1224.7</ele>
        <time>2019-04-12T03:59:14Z</time>
      </trkpt>
      <trkpt lat="42.13993" lon="2.36426">
        <ele>1225</ele>
        <time>2019-04-12T03:59:16Z</time>
      </trkpt>
      <trkpt lat="42.1399" lon="2.36421">
        <ele>1224.7</ele>
        <time>2019-04-12T03:59:18Z</time>
      </trkpt>
      <trkpt lat="42.13985" lon="2.36414">
        <ele>1225.1</ele>
        <time>2019-04-12T03:59:21Z</time>
      </trkpt>
      <trkpt lat="42.13982" lon="2.36407">
        <ele>1226.2</ele>
        <time>2019-04-12T03:59:24Z</time>
      </trkpt>
      <trkpt lat="42.1398" lon="2.364">
        <ele>1228.3</ele>
        <time>2019-04-12T03:59:26Z</time>
      </trkpt>
      <trkpt lat="42.13973" lon="2.36393">
        <ele>1229.5</ele>
        <time>2019-04-12T03:59:29Z</time>
      </trkpt>
      <trkpt lat="42.13969" lon="2.36388">
        <ele>1231</ele>
        <time>2019-04-12T03:59:32Z</time>
      </trkpt>
      <trkpt lat="42.13962" lon="2.36383">
        <ele>1232.2</ele>
        <time>2019-04-12T03:59:35Z</time>
      </trkpt>
      <trkpt lat="42.13956" lon="2.36379">
        <ele>1234.2</ele>
        <time>2019-04-12T03:59:37Z</time>
      </trkpt>
      <trkpt lat="42.13951" lon="2.36376">
        <ele>1235</ele>
        <time>2019-04-12T03:59:39Z</time>
      </trkpt>
      <trkpt lat="42.13948" lon="2.36371">
        <ele>1236.2</ele>
        <time>2019-04-12T03:59:41Z</time>
      </trkpt>
      <trkpt lat="42.13944" lon="2.36369">
        <ele>1236.3</ele>
        <time>2019-04-12T03:59:43Z</time>
      </trkpt>
      <trkpt lat="42.13939" lon="2.36366">
        <ele>1236.4</ele>
        <time>2019-04-12T03:59:45Z</time>
      </trkpt>
      <trkpt lat="42.13933" lon="2.36363">
        <ele>1236.6</ele>
        <time>2019-04-12T03:59:48Z</time>
      </trkpt>
      <trkpt lat="42.13928" lon="2.36358">
        <ele>1236.3</ele>
        <time>2019-04-12T03:59:50Z</time>
      </trkpt>
      <trkpt lat="42.13924" lon="2.36355">
        <ele>1235.7</ele>
        <time>2019-04-12T03:59:52Z</time>
      </trkpt>
      <trkpt lat="42.13917" lon="2.36352">
        <ele>1235.7</ele>
        <time>2019-04-12T03:59:55Z</time>
      </trkpt>
      <trkpt lat="42.13908" lon="2.36351">
        <ele>1235.5</ele>
        <time>2019-04-12T03:59:59Z</time>
      </trkpt>
      <trkpt lat="42.13902" lon="2.36347">
        <ele>1236.3</ele>
        <time>2019-04-12T04:00:01Z</time>
      </trkpt>
      <trkpt lat="42.13897" lon="2.36344">
        <ele>1237.2</ele>
        <time>2019-04-12T04:00:04Z</time>
      </trkpt>
      <trkpt lat="42.13893" lon="2.36341">
        <ele>1238</ele>
        <time>2019-04-12T04:00:05Z</time>
      </trkpt>
      <trkpt lat="42.1389" lon="2.36331">
        <ele>1238.1</ele>
        <time>2019-04-12T04:00:09Z</time>
      </trkpt>
      <trkpt lat="42.13889" lon="2.36324">
        <ele>1237.4</ele>
        <time>2019-04-12T04:00:11Z</time>
      </trkpt>
      <trkpt lat="42.13889" lon="2.36318">
        <ele>1237.1</ele>
        <time>2019-04-12T04:00:13Z</time>
      </trkpt>
      <trkpt lat="42.1389" lon="2.36311">
        <ele>1237.2</ele>
        <time>2019-04-12T04:00:15Z</time>
      </trkpt>
      <trkpt lat="42.13891" lon="2.36302">
        <ele>1236.7</ele>
        <time>2019-04-12T04:00:17Z</time>
      </trkpt>
      <trkpt lat="42.13891" lon="2.36294">
        <ele>1237.3</ele>
        <time>2019-04-12T04:00:20Z</time>
      </trkpt>
      <trkpt lat="42.13892" lon="2.36287">
        <ele>1237.6</ele>
        <time>2019-04-12T04:00:22Z</time>
      </trkpt>
      <trkpt lat="42.13892" lon="2.3628">
        <ele>1236.7</ele>
        <time>2019-04-12T04:00:24Z</time>
      </trkpt>
      <trkpt lat="42.13891" lon="2.36274">
        <ele>1236.6</ele>
        <time>2019-04-12T04:00:26Z</time>
      </trkpt>
      <trkpt lat="42.1389" lon="2.36265">
        <ele>1236.4</ele>
        <time>2019-04-12T04:00:28Z</time>
      </trkpt>
      <trkpt lat="42.1389" lon="2.36258">
        <ele>1235.5</ele>
        <time>2019-04-12T04:00:30Z</time>
      </trkpt>
      <trkpt lat="42.1389" lon="2.3625">
        <ele>1234.6</ele>
        <time>2019-04-12T04:00:33Z</time>
      </trkpt>
      <trkpt lat="42.13889" lon="2.36243">
        <ele>1235.2</ele>
        <time>2019-04-12T04:00:35Z</time>
      </trkpt>
      <trkpt lat="42.13888" lon="2.36237">
        <ele>1236</ele>
        <time>2019-04-12T04:00:37Z</time>
      </trkpt>
      <trkpt lat="42.13888" lon="2.3623">
        <ele>1237.2</ele>
        <time>2019-04-12T04:00:39Z</time>
      </trkpt>
      <trkpt lat="42.1389" lon="2.36223">
        <ele>1236.1</ele>
        <time>2019-04-12T04:00:41Z</time>
      </trkpt>
      <trkpt lat="42.1389" lon="2.36216">
        <ele>1236.2</ele>
        <time>2019-04-12T04:00:43Z</time>
      </trkpt>
      <trkpt lat="42.13886" lon="2.36209">
        <ele>1238.4</ele>
        <time>2019-04-12T04:00:46Z</time>
      </trkpt>
      <trkpt lat="42.1388" lon="2.36189">
        <ele>1240.8</ele>
        <time>2019-04-12T04:00:52Z</time>
      </trkpt>
      <trkpt lat="42.13884" lon="2.36206">
        <ele>1243.9</ele>
        <time>2019-04-12T04:00:58Z</time>
      </trkpt>
      <trkpt lat="42.13879" lon="2.36203">
        <ele>1245.1</ele>
        <time>2019-04-12T04:01:00Z</time>
      </trkpt>
      <trkpt lat="42.13875" lon="2.36199">
        <ele>1245.1</ele>
        <time>2019-04-12T04:01:02Z</time>
      </trkpt>
      <trkpt lat="42.1387" lon="2.36195">
        <ele>1246.6</ele>
        <time>2019-04-12T04:01:04Z</time>
      </trkpt>
      <trkpt lat="42.13865" lon="2.36191">
        <ele>1248.4</ele>
        <time>2019-04-12T04:01:07Z</time>
      </trkpt>
      <trkpt lat="42.13861" lon="2.36186">
        <ele>1249.3</ele>
        <time>2019-04-12T04:01:09Z</time>
      </trkpt>
      <trkpt lat="42.13855" lon="2.3618">
        <ele>1250.9</ele>
        <time>2019-04-12T04:01:12Z</time>
      </trkpt>
      <trkpt lat="42.13852" lon="2.36176">
        <ele>1253</ele>
        <time>2019-04-12T04:01:14Z</time>
      </trkpt>
      <trkpt lat="42.13848" lon="2.3617">
        <ele>1254.8</ele>
        <time>2019-04-12T04:01:16Z</time>
      </trkpt>
      <trkpt lat="42.13846" lon="2.36163">
        <ele>1254.8</ele>
        <time>2019-04-12T04:01:18Z</time>
      </trkpt>
      <trkpt lat="42.13844" lon="2.36155">
        <ele>1255.2</ele>
        <time>2019-04-12T04:01:21Z</time>
      </trkpt>
      <trkpt lat="42.13842" lon="2.36148">
        <ele>1254.8</ele>
        <time>2019-04-12T04:01:23Z</time>
      </trkpt>
      <trkpt lat="42.1384" lon="2.36142">
        <ele>1255.1</ele>
        <time>2019-04-12T04:01:25Z</time>
      </trkpt>
      <trkpt lat="42.13838" lon="2.36135">
        <ele>1255.1</ele>
        <time>2019-04-12T04:01:27Z</time>
      </trkpt>
      <trkpt lat="42.13836" lon="2.36128">
        <ele>1255.8</ele>
        <time>2019-04-12T04:01:29Z</time>
      </trkpt>
      <trkpt lat="42.13832" lon="2.3612">
        <ele>1256.3</ele>
        <time>2019-04-12T04:01:32Z</time>
      </trkpt>
      <trkpt lat="42.13829" lon="2.36113">
        <ele>1257.3</ele>
        <time>2019-04-12T04:01:35Z</time>
      </trkpt>
      <trkpt lat="42.13824" lon="2.36107">
        <ele>1258.1</ele>
        <time>2019-04-12T04:01:37Z</time>
      </trkpt>
      <trkpt lat="42.1382" lon="2.36104">
        <ele>1258</ele>
        <time>2019-04-12T04:01:39Z</time>
      </trkpt>
      <trkpt lat="42.13814" lon="2.36102">
        <ele>1256.7</ele>
        <time>2019-04-12T04:01:41Z</time>
      </trkpt>
      <trkpt lat="42.13809" lon="2.36101">
        <ele>1257</ele>
        <time>2019-04-12T04:01:43Z</time>
      </trkpt>
      <trkpt lat="42.13804" lon="2.361">
        <ele>1257.8</ele>
        <time>2019-04-12T04:01:45Z</time>
      </trkpt>
      <trkpt lat="42.13799" lon="2.361">
        <ele>1258.1</ele>
        <time>2019-04-12T04:01:47Z</time>
      </trkpt>
      <trkpt lat="42.13793" lon="2.361">
        <ele>1258.1</ele>
        <time>2019-04-12T04:01:50Z</time>
      </trkpt>
      <trkpt lat="42.13788" lon="2.361">
        <ele>1259.5</ele>
        <time>2019-04-12T04:01:52Z</time>
      </trkpt>
      <trkpt lat="42.13783" lon="2.36101">
        <ele>1260.5</ele>
        <time>2019-04-12T04:01:54Z</time>
      </trkpt>
      <trkpt lat="42.13778" lon="2.36102">
        <ele>1262.9</ele>
        <time>2019-04-12T04:01:56Z</time>
      </trkpt>
      <trkpt lat="42.13772" lon="2.36102">
        <ele>1266.2</ele>
        <time>2019-04-12T04:01:58Z</time>
      </trkpt>
      <trkpt lat="42.13769" lon="2.36106">
        <ele>1268.4</ele>
        <time>2019-04-12T04:02:00Z</time>
      </trkpt>
      <trkpt lat="42.13766" lon="2.36101">
        <ele>1270.1</ele>
        <time>2019-04-12T04:02:02Z</time>
      </trkpt>
      <trkpt lat="42.13764" lon="2.36094">
        <ele>1270.8</ele>
        <time>2019-04-12T04:02:04Z</time>
      </trkpt>
      <trkpt lat="42.13762" lon="2.36087">
        <ele>1271.8</ele>
        <time>2019-04-12T04:02:06Z</time>
      </trkpt>
      <trkpt lat="42.13758" lon="2.36081">
        <ele>1273</ele>
        <time>2019-04-12T04:02:09Z</time>
      </trkpt>
      <trkpt lat="42.13755" lon="2.36075">
        <ele>1273.6</ele>
        <time>2019-04-12T04:02:11Z</time>
      </trkpt>
      <trkpt lat="42.13751" lon="2.3607">
        <ele>1274.7</ele>
        <time>2019-04-12T04:02:13Z</time>
      </trkpt>
      <trkpt lat="42.13749" lon="2.36064">
        <ele>1275.6</ele>
        <time>2019-04-12T04:02:15Z</time>
      </trkpt>
      <trkpt lat="42.13748" lon="2.36057">
        <ele>1276.1</ele>
        <time>2019-04-12T04:02:17Z</time>
      </trkpt>
      <trkpt lat="42.13748" lon="2.36051">
        <ele>1276.1</ele>
        <time>2019-04-12T04:02:19Z</time>
      </trkpt>
      <trkpt lat="42.13747" lon="2.36044">
        <ele>1276</ele>
        <time>2019-04-12T04:02:21Z</time>
      </trkpt>
      <trkpt lat="42.13747" lon="2.36036">
        <ele>1276</ele>
        <time>2019-04-12T04:02:23Z</time>
      </trkpt>
      <trkpt lat="42.13747" lon="2.3603">
        <ele>1276.2</ele>
        <time>2019-04-12T04:02:25Z</time>
      </trkpt>
      <trkpt lat="42.13747" lon="2.36024">
        <ele>1276.2</ele>
        <time>2019-04-12T04:02:27Z</time>
      </trkpt>
      <trkpt lat="42.13747" lon="2.36017">
        <ele>1276.5</ele>
        <time>2019-04-12T04:02:29Z</time>
      </trkpt>
      <trkpt lat="42.13747" lon="2.3601">
        <ele>1276.8</ele>
        <time>2019-04-12T04:02:31Z</time>
      </trkpt>
      <trkpt lat="42.13747" lon="2.36003">
        <ele>1276.7</ele>
        <time>2019-04-12T04:02:33Z</time>
      </trkpt>
      <trkpt lat="42.13746" lon="2.35995">
        <ele>1276.4</ele>
        <time>2019-04-12T04:02:36Z</time>
      </trkpt>
      <trkpt lat="42.13745" lon="2.35988">
        <ele>1276.8</ele>
        <time>2019-04-12T04:02:38Z</time>
      </trkpt>
      <trkpt lat="42.13746" lon="2.35981">
        <ele>1277.3</ele>
        <time>2019-04-12T04:02:40Z</time>
      </trkpt>
      <trkpt lat="42.13747" lon="2.35974">
        <ele>1277.7</ele>
        <time>2019-04-12T04:02:42Z</time>
      </trkpt>
      <trkpt lat="42.13747" lon="2.35968">
        <ele>1278.1</ele>
        <time>2019-04-12T04:02:44Z</time>
      </trkpt>
      <trkpt lat="42.13747" lon="2.35961">
        <ele>1278.1</ele>
        <time>2019-04-12T04:02:46Z</time>
      </trkpt>
      <trkpt lat="42.13746" lon="2.35954">
        <ele>1278.2</ele>
        <time>2019-04-12T04:02:48Z</time>
      </trkpt>
      <trkpt lat="42.13747" lon="2.35948">
        <ele>1278.5</ele>
        <time>2019-04-12T04:02:50Z</time>
      </trkpt>
      <trkpt lat="42.13747" lon="2.35942">
        <ele>1278.8</ele>
        <time>2019-04-12T04:02:51Z</time>
      </trkpt>
      <trkpt lat="42.13747" lon="2.35934">
        <ele>1279.2</ele>
        <time>2019-04-12T04:02:54Z</time>
      </trkpt>
      <trkpt lat="42.13747" lon="2.35927">
        <ele>1280.1</ele>
        <time>2019-04-12T04:02:56Z</time>
      </trkpt>
      <trkpt lat="42.13747" lon="2.35921">
        <ele>1280.6</ele>
        <time>2019-04-12T04:02:58Z</time>
      </trkpt>
      <trkpt lat="42.13747" lon="2.35915">
        <ele>1280.9</ele>
        <time>2019-04-12T04:02:59Z</time>
      </trkpt>
      <trkpt lat="42.13747" lon="2.35908">
        <ele>1281.4</ele>
        <time>2019-04-12T04:03:02Z</time>
      </trkpt>
      <trkpt lat="42.13747" lon="2.35901">
        <ele>1281.6</ele>
        <time>2019-04-12T04:03:04Z</time>
      </trkpt>
      <trkpt lat="42.13747" lon="2.35895">
        <ele>1281.4</ele>
        <time>2019-04-12T04:03:05Z</time>
      </trkpt>
      <trkpt lat="42.13748" lon="2.35887">
        <ele>1280.8</ele>
        <time>2019-04-12T04:03:08Z</time>
      </trkpt>
      <trkpt lat="42.1375" lon="2.3588">
        <ele>1280.6</ele>
        <time>2019-04-12T04:03:10Z</time>
      </trkpt>
      <trkpt lat="42.13753" lon="2.35875">
        <ele>1281</ele>
        <time>2019-04-12T04:03:12Z</time>
      </trkpt>
      <trkpt lat="42.13757" lon="2.3587">
        <ele>1281.8</ele>
        <time>2019-04-12T04:03:14Z</time>
      </trkpt>
      <trkpt lat="42.1376" lon="2.35864">
        <ele>1282.2</ele>
        <time>2019-04-12T04:03:16Z</time>
      </trkpt>
      <trkpt lat="42.13763" lon="2.35857">
        <ele>1282.8</ele>
        <time>2019-04-12T04:03:19Z</time>
      </trkpt>
      <trkpt lat="42.13764" lon="2.3585">
        <ele>1283.4</ele>
        <time>2019-04-12T04:03:21Z</time>
      </trkpt>
      <trkpt lat="42.13764" lon="2.35844">
        <ele>1283.8</ele>
        <time>2019-04-12T04:03:23Z</time>
      </trkpt>
      <trkpt lat="42.13765" lon="2.35836">
        <ele>1284.3</ele>
        <time>2019-04-12T04:03:25Z</time>
      </trkpt>
      <trkpt lat="42.13767" lon="2.3583">
        <ele>1284.5</ele>
        <time>2019-04-12T04:03:27Z</time>
      </trkpt>
      <trkpt lat="42.13769" lon="2.35824">
        <ele>1284.8</ele>
        <time>2019-04-12T04:03:29Z</time>
      </trkpt>
      <trkpt lat="42.13771" lon="2.35818">
        <ele>1285.2</ele>
        <time>2019-04-12T04:03:31Z</time>
      </trkpt>
      <trkpt lat="42.13773" lon="2.35813">
        <ele>1285.2</ele>
        <time>2019-04-12T04:03:32Z</time>
      </trkpt>
      <trkpt lat="42.13776" lon="2.35807">
        <ele>1285.3</ele>
        <time>2019-04-12T04:03:34Z</time>
      </trkpt>
      <trkpt lat="42.13779" lon="2.35802">
        <ele>1285.5</ele>
        <time>2019-04-12T04:03:36Z</time>
      </trkpt>
      <trkpt lat="42.13783" lon="2.35797">
        <ele>1285.9</ele>
        <time>2019-04-12T04:03:39Z</time>
      </trkpt>
      <trkpt lat="42.13786" lon="2.35792">
        <ele>1286.6</ele>
        <time>2019-04-12T04:03:41Z</time>
      </trkpt>
      <trkpt lat="42.13791" lon="2.35788">
        <ele>1287.6</ele>
        <time>2019-04-12T04:03:43Z</time>
      </trkpt>
      <trkpt lat="42.13796" lon="2.35786">
        <ele>1288.6</ele>
        <time>2019-04-12T04:03:45Z</time>
      </trkpt>
      <trkpt lat="42.13801" lon="2.35784">
        <ele>1290.2</ele>
        <time>2019-04-12T04:03:47Z</time>
      </trkpt>
      <trkpt lat="42.13807" lon="2.35781">
        <ele>1291.6</ele>
        <time>2019-04-12T04:03:49Z</time>
      </trkpt>
      <trkpt lat="42.1381" lon="2.35775">
        <ele>1292.6</ele>
        <time>2019-04-12T04:03:51Z</time>
      </trkpt>
      <trkpt lat="42.13813" lon="2.35769">
        <ele>1293.1</ele>
        <time>2019-04-12T04:03:54Z</time>
      </trkpt>
      <trkpt lat="42.13817" lon="2.35764">
        <ele>1293.7</ele>
        <time>2019-04-12T04:03:56Z</time>
      </trkpt>
      <trkpt lat="42.1382" lon="2.3576">
        <ele>1294.8</ele>
        <time>2019-04-12T04:03:58Z</time>
      </trkpt>
      <trkpt lat="42.13824" lon="2.35755">
        <ele>1295.1</ele>
        <time>2019-04-12T04:04:00Z</time>
      </trkpt>
      <trkpt lat="42.13827" lon="2.3575">
        <ele>1295.2</ele>
        <time>2019-04-12T04:04:02Z</time>
      </trkpt>
      <trkpt lat="42.13831" lon="2.35747">
        <ele>1296</ele>
        <time>2019-04-12T04:04:04Z</time>
      </trkpt>
      <trkpt lat="42.13834" lon="2.35741">
        <ele>1296.6</ele>
        <time>2019-04-12T04:04:06Z</time>
      </trkpt>
      <trkpt lat="42.13837" lon="2.35733">
        <ele>1297</ele>
        <time>2019-04-12T04:04:08Z</time>
      </trkpt>
      <trkpt lat="42.13839" lon="2.35727">
        <ele>1296.8</ele>
        <time>2019-04-12T04:04:10Z</time>
      </trkpt>
      <trkpt lat="42.1384" lon="2.3572">
        <ele>1297.4</ele>
        <time>2019-04-12T04:04:12Z</time>
      </trkpt>
      <trkpt lat="42.13839" lon="2.35712">
        <ele>1298.2</ele>
        <time>2019-04-12T04:04:15Z</time>
      </trkpt>
      <trkpt lat="42.13837" lon="2.35707">
        <ele>1298.8</ele>
        <time>2019-04-12T04:04:17Z</time>
      </trkpt>
      <trkpt lat="42.13834" lon="2.35702">
        <ele>1300</ele>
        <time>2019-04-12T04:04:18Z</time>
      </trkpt>
      <trkpt lat="42.13832" lon="2.35695">
        <ele>1301.3</ele>
        <time>2019-04-12T04:04:21Z</time>
      </trkpt>
      <trkpt lat="42.13831" lon="2.35688">
        <ele>1302.2</ele>
        <time>2019-04-12T04:04:23Z</time>
      </trkpt>
      <trkpt lat="42.13832" lon="2.35682">
        <ele>1303</ele>
        <time>2019-04-12T04:04:25Z</time>
      </trkpt>
      <trkpt lat="42.13834" lon="2.35676">
        <ele>1303</ele>
        <time>2019-04-12T04:04:27Z</time>
      </trkpt>
      <trkpt lat="42.13837" lon="2.35671">
        <ele>1303</ele>
        <time>2019-04-12T04:04:29Z</time>
      </trkpt>
      <trkpt lat="42.1384" lon="2.35666">
        <ele>1303.1</ele>
        <time>2019-04-12T04:04:30Z</time>
      </trkpt>
      <trkpt lat="42.13843" lon="2.35662">
        <ele>1302.9</ele>
        <time>2019-04-12T04:04:32Z</time>
      </trkpt>
      <trkpt lat="42.13848" lon="2.35658">
        <ele>1302.9</ele>
        <time>2019-04-12T04:04:34Z</time>
      </trkpt>
      <trkpt lat="42.13852" lon="2.35654">
        <ele>1302.7</ele>
        <time>2019-04-12T04:04:37Z</time>
      </trkpt>
      <trkpt lat="42.13856" lon="2.35649">
        <ele>1303</ele>
        <time>2019-04-12T04:04:39Z</time>
      </trkpt>
      <trkpt lat="42.13861" lon="2.35647">
        <ele>1303.7</ele>
        <time>2019-04-12T04:04:41Z</time>
      </trkpt>
      <trkpt lat="42.13865" lon="2.35644">
        <ele>1304.7</ele>
        <time>2019-04-12T04:04:43Z</time>
      </trkpt>
      <trkpt lat="42.13869" lon="2.3564">
        <ele>1305.1</ele>
        <time>2019-04-12T04:04:45Z</time>
      </trkpt>
      <trkpt lat="42.13873" lon="2.35637">
        <ele>1305</ele>
        <time>2019-04-12T04:04:46Z</time>
      </trkpt>
      <trkpt lat="42.13878" lon="2.35632">
        <ele>1304.9</ele>
        <time>2019-04-12T04:04:49Z</time>
      </trkpt>
      <trkpt lat="42.13882" lon="2.35627">
        <ele>1304.8</ele>
        <time>2019-04-12T04:04:51Z</time>
      </trkpt>
      <trkpt lat="42.13885" lon="2.3562">
        <ele>1304.6</ele>
        <time>2019-04-12T04:04:53Z</time>
      </trkpt>
      <trkpt lat="42.13889" lon="2.35615">
        <ele>1304.4</ele>
        <time>2019-04-12T04:04:55Z</time>
      </trkpt>
      <trkpt lat="42.13892" lon="2.35609">
        <ele>1304</ele>
        <time>2019-04-12T04:04:58Z</time>
      </trkpt>
      <trkpt lat="42.13895" lon="2.35603">
        <ele>1303.9</ele>
        <time>2019-04-12T04:05:00Z</time>
      </trkpt>
      <trkpt lat="42.13898" lon="2.35597">
        <ele>1303.8</ele>
        <time>2019-04-12T04:05:02Z</time>
      </trkpt>
      <trkpt lat="42.13901" lon="2.35591">
        <ele>1302.8</ele>
        <time>2019-04-12T04:05:04Z</time>
      </trkpt>
      <trkpt lat="42.13904" lon="2.35586">
        <ele>1302.8</ele>
        <time>2019-04-12T04:05:06Z</time>
      </trkpt>
      <trkpt lat="42.13907" lon="2.3558">
        <ele>1303.3</ele>
        <time>2019-04-12T04:05:08Z</time>
      </trkpt>
      <trkpt lat="42.13911" lon="2.35576">
        <ele>1303.4</ele>
        <time>2019-04-12T04:05:10Z</time>
      </trkpt>
      <trkpt lat="42.13916" lon="2.35573">
        <ele>1303.1</ele>
        <time>2019-04-12T04:05:12Z</time>
      </trkpt>
      <trkpt lat="42.13916" lon="2.3558">
        <ele>1304.4</ele>
        <time>2019-04-12T04:05:14Z</time>
      </trkpt>
      <trkpt lat="42.13917" lon="2.35587">
        <ele>1305.3</ele>
        <time>2019-04-12T04:05:16Z</time>
      </trkpt>
      <trkpt lat="42.1392" lon="2.35581">
        <ele>1303.5</ele>
        <time>2019-04-12T04:05:18Z</time>
      </trkpt>
      <trkpt lat="42.13917" lon="2.35576">
        <ele>1305.9</ele>
        <time>2019-04-12T04:05:20Z</time>
      </trkpt>
      <trkpt lat="42.13918" lon="2.3557">
        <ele>1307.2</ele>
        <time>2019-04-12T04:05:22Z</time>
      </trkpt>
      <trkpt lat="42.13923" lon="2.35568">
        <ele>1306.7</ele>
        <time>2019-04-12T04:05:24Z</time>
      </trkpt>
      <trkpt lat="42.1392" lon="2.35563">
        <ele>1307.8</ele>
        <time>2019-04-12T04:05:26Z</time>
      </trkpt>
      <trkpt lat="42.13915" lon="2.35562">
        <ele>1308.3</ele>
        <time>2019-04-12T04:05:28Z</time>
      </trkpt>
      <trkpt lat="42.1391" lon="2.35563">
        <ele>1307.2</ele>
        <time>2019-04-12T04:05:30Z</time>
      </trkpt>
      <trkpt lat="42.13905" lon="2.35565">
        <ele>1305.9</ele>
        <time>2019-04-12T04:05:33Z</time>
      </trkpt>
      <trkpt lat="42.13901" lon="2.35569">
        <ele>1305</ele>
        <time>2019-04-12T04:05:35Z</time>
      </trkpt>
      <trkpt lat="42.13898" lon="2.35574">
        <ele>1304.4</ele>
        <time>2019-04-12T04:05:36Z</time>
      </trkpt>
      <trkpt lat="42.13894" lon="2.3558">
        <ele>1304.1</ele>
        <time>2019-04-12T04:05:39Z</time>
      </trkpt>
      <trkpt lat="42.1389" lon="2.35585">
        <ele>1303.6</ele>
        <time>2019-04-12T04:05:41Z</time>
      </trkpt>
      <trkpt lat="42.13888" lon="2.3559">
        <ele>1302.7</ele>
        <time>2019-04-12T04:05:43Z</time>
      </trkpt>
      <trkpt lat="42.13885" lon="2.35596">
        <ele>1301.3</ele>
        <time>2019-04-12T04:05:45Z</time>
      </trkpt>
      <trkpt lat="42.1388" lon="2.35601">
        <ele>1300.9</ele>
        <time>2019-04-12T04:05:47Z</time>
      </trkpt>
      <trkpt lat="42.13877" lon="2.35605">
        <ele>1300.9</ele>
        <time>2019-04-12T04:05:49Z</time>
      </trkpt>
      <trkpt lat="42.13871" lon="2.3561">
        <ele>1300.7</ele>
        <time>2019-04-12T04:05:52Z</time>
      </trkpt>
      <trkpt lat="42.13867" lon="2.35613">
        <ele>1300.7</ele>
        <time>2019-04-12T04:05:54Z</time>
      </trkpt>
      <trkpt lat="42.13863" lon="2.35618">
        <ele>1299.8</ele>
        <time>2019-04-12T04:05:56Z</time>
      </trkpt>
      <trkpt lat="42.13858" lon="2.3562">
        <ele>1299.8</ele>
        <time>2019-04-12T04:05:58Z</time>
      </trkpt>
      <trkpt lat="42.13854" lon="2.35623">
        <ele>1299.8</ele>
        <time>2019-04-12T04:05:59Z</time>
      </trkpt>
      <trkpt lat="42.1385" lon="2.35625">
        <ele>1300.4</ele>
        <time>2019-04-12T04:06:01Z</time>
      </trkpt>
      <trkpt lat="42.13845" lon="2.35626">
        <ele>1300.6</ele>
        <time>2019-04-12T04:06:03Z</time>
      </trkpt>
      <trkpt lat="42.1384" lon="2.35629">
        <ele>1301.1</ele>
        <time>2019-04-12T04:06:05Z</time>
      </trkpt>
      <trkpt lat="42.13835" lon="2.35631">
        <ele>1301.3</ele>
        <time>2019-04-12T04:06:07Z</time>
      </trkpt>
      <trkpt lat="42.13829" lon="2.35633">
        <ele>1302</ele>
        <time>2019-04-12T04:06:10Z</time>
      </trkpt>
      <trkpt lat="42.13823" lon="2.35634">
        <ele>1302.8</ele>
        <time>2019-04-12T04:06:12Z</time>
      </trkpt>
      <trkpt lat="42.13818" lon="2.35636">
        <ele>1303.3</ele>
        <time>2019-04-12T04:06:14Z</time>
      </trkpt>
      <trkpt lat="42.13814" lon="2.35639">
        <ele>1302.8</ele>
        <time>2019-04-12T04:06:16Z</time>
      </trkpt>
      <trkpt lat="42.13809" lon="2.35643">
        <ele>1302</ele>
        <time>2019-04-12T04:06:19Z</time>
      </trkpt>
      <trkpt lat="42.13805" lon="2.35647">
        <ele>1301.4</ele>
        <time>2019-04-12T04:06:21Z</time>
      </trkpt>
      <trkpt lat="42.138" lon="2.35651">
        <ele>1301.1</ele>
        <time>2019-04-12T04:06:23Z</time>
      </trkpt>
      <trkpt lat="42.13796" lon="2.35655">
        <ele>1300.5</ele>
        <time>2019-04-12T04:06:25Z</time>
      </trkpt>
      <trkpt lat="42.1379" lon="2.35658">
        <ele>1300.2</ele>
        <time>2019-04-12T04:06:27Z</time>
      </trkpt>
      <trkpt lat="42.13786" lon="2.35662">
        <ele>1299.7</ele>
        <time>2019-04-12T04:06:30Z</time>
      </trkpt>
      <trkpt lat="42.13781" lon="2.35666">
        <ele>1299.7</ele>
        <time>2019-04-12T04:06:32Z</time>
      </trkpt>
      <trkpt lat="42.13777" lon="2.35669">
        <ele>1299.6</ele>
        <time>2019-04-12T04:06:34Z</time>
      </trkpt>
      <trkpt lat="42.13772" lon="2.35672">
        <ele>1299.6</ele>
        <time>2019-04-12T04:06:36Z</time>
      </trkpt>
      <trkpt lat="42.13767" lon="2.35675">
        <ele>1299.3</ele>
        <time>2019-04-12T04:06:38Z</time>
      </trkpt>
      <trkpt lat="42.13763" lon="2.35677">
        <ele>1299</ele>
        <time>2019-04-12T04:06:40Z</time>
      </trkpt>
      <trkpt lat="42.13758" lon="2.35679">
        <ele>1299.3</ele>
        <time>2019-04-12T04:06:42Z</time>
      </trkpt>
      <trkpt lat="42.13753" lon="2.3568">
        <ele>1298.9</ele>
        <time>2019-04-12T04:06:44Z</time>
      </trkpt>
      <trkpt lat="42.13747" lon="2.35682">
        <ele>1299.1</ele>
        <time>2019-04-12T04:06:46Z</time>
      </trkpt>
      <trkpt lat="42.13743" lon="2.35683">
        <ele>1299.3</ele>
        <time>2019-04-12T04:06:48Z</time>
      </trkpt>
      <trkpt lat="42.13737" lon="2.35684">
        <ele>1299.5</ele>
        <time>2019-04-12T04:06:50Z</time>
      </trkpt>
      <trkpt lat="42.13732" lon="2.35685">
        <ele>1299.4</ele>
        <time>2019-04-12T04:06:53Z</time>
      </trkpt>
      <trkpt lat="42.13726" lon="2.35686">
        <ele>1299.6</ele>
        <time>2019-04-12T04:06:55Z</time>
      </trkpt>
      <trkpt lat="42.13721" lon="2.35687">
        <ele>1299.4</ele>
        <time>2019-04-12T04:06:57Z</time>
      </trkpt>
      <trkpt lat="42.13716" lon="2.35688">
        <ele>1299.8</ele>
        <time>2019-04-12T04:06:59Z</time>
      </trkpt>
      <trkpt lat="42.13712" lon="2.3569">
        <ele>1300.5</ele>
        <time>2019-04-12T04:07:01Z</time>
      </trkpt>
      <trkpt lat="42.13707" lon="2.35689">
        <ele>1300.8</ele>
        <time>2019-04-12T04:07:03Z</time>
      </trkpt>
      <trkpt lat="42.13701" lon="2.35688">
        <ele>1300.8</ele>
        <time>2019-04-12T04:07:05Z</time>
      </trkpt>
      <trkpt lat="42.13695" lon="2.35685">
        <ele>1301.5</ele>
        <time>2019-04-12T04:07:07Z</time>
      </trkpt>
      <trkpt lat="42.13691" lon="2.35682">
        <ele>1301.9</ele>
        <time>2019-04-12T04:07:09Z</time>
      </trkpt>
      <trkpt lat="42.13687" lon="2.35678">
        <ele>1301.9</ele>
        <time>2019-04-12T04:07:11Z</time>
      </trkpt>
      <trkpt lat="42.13681" lon="2.35674">
        <ele>1301.7</ele>
        <time>2019-04-12T04:07:14Z</time>
      </trkpt>
      <trkpt lat="42.13674" lon="2.35672">
        <ele>1302.9</ele>
        <time>2019-04-12T04:07:17Z</time>
      </trkpt>
      <trkpt lat="42.13668" lon="2.35672">
        <ele>1305.1</ele>
        <time>2019-04-12T04:07:19Z</time>
      </trkpt>
      <trkpt lat="42.13664" lon="2.3567">
        <ele>1305.1</ele>
        <time>2019-04-12T04:07:21Z</time>
      </trkpt>
      <trkpt lat="42.13658" lon="2.35667">
        <ele>1305.3</ele>
        <time>2019-04-12T04:07:24Z</time>
      </trkpt>
      <trkpt lat="42.13653" lon="2.35665">
        <ele>1305.6</ele>
        <time>2019-04-12T04:07:26Z</time>
      </trkpt>
      <trkpt lat="42.13648" lon="2.35661">
        <ele>1306.8</ele>
        <time>2019-04-12T04:07:28Z</time>
      </trkpt>
      <trkpt lat="42.13646" lon="2.35656">
        <ele>1308</ele>
        <time>2019-04-12T04:07:30Z</time>
      </trkpt>
      <trkpt lat="42.13646" lon="2.35649">
        <ele>1311.3</ele>
        <time>2019-04-12T04:07:32Z</time>
      </trkpt>
      <trkpt lat="42.13646" lon="2.35642">
        <ele>1312.7</ele>
        <time>2019-04-12T04:07:34Z</time>
      </trkpt>
      <trkpt lat="42.13645" lon="2.35636">
        <ele>1314.7</ele>
        <time>2019-04-12T04:07:36Z</time>
      </trkpt>
      <trkpt lat="42.13644" lon="2.3563">
        <ele>1318.5</ele>
        <time>2019-04-12T04:07:38Z</time>
      </trkpt>
      <trkpt lat="42.13638" lon="2.35626">
        <ele>1319.7</ele>
        <time>2019-04-12T04:07:40Z</time>
      </trkpt>
      <trkpt lat="42.13634" lon="2.35622">
        <ele>1322.7</ele>
        <time>2019-04-12T04:07:42Z</time>
      </trkpt>
      <trkpt lat="42.13635" lon="2.35615">
        <ele>1323.4</ele>
        <time>2019-04-12T04:07:44Z</time>
      </trkpt>
      <trkpt lat="42.13631" lon="2.35612">
        <ele>1324.3</ele>
        <time>2019-04-12T04:07:46Z</time>
      </trkpt>
      <trkpt lat="42.13629" lon="2.35607">
        <ele>1325.2</ele>
        <time>2019-04-12T04:07:48Z</time>
      </trkpt>
      <trkpt lat="42.13629" lon="2.356">
        <ele>1326.2</ele>
        <time>2019-04-12T04:07:50Z</time>
      </trkpt>
      <trkpt lat="42.13629" lon="2.35592">
        <ele>1326.9</ele>
        <time>2019-04-12T04:07:52Z</time>
      </trkpt>
      <trkpt lat="42.1363" lon="2.35586">
        <ele>1328.3</ele>
        <time>2019-04-12T04:07:54Z</time>
      </trkpt>
      <trkpt lat="42.1363" lon="2.35578">
        <ele>1330</ele>
        <time>2019-04-12T04:07:56Z</time>
      </trkpt>
      <trkpt lat="42.13632" lon="2.35572">
        <ele>1332</ele>
        <time>2019-04-12T04:07:58Z</time>
      </trkpt>
      <trkpt lat="42.13634" lon="2.35566">
        <ele>1333.3</ele>
        <time>2019-04-12T04:08:00Z</time>
      </trkpt>
      <trkpt lat="42.13631" lon="2.35562">
        <ele>1333.5</ele>
        <time>2019-04-12T04:08:02Z</time>
      </trkpt>
      <trkpt lat="42.13627" lon="2.35558">
        <ele>1334.5</ele>
        <time>2019-04-12T04:08:04Z</time>
      </trkpt>
      <trkpt lat="42.13627" lon="2.35551">
        <ele>1336.3</ele>
        <time>2019-04-12T04:08:06Z</time>
      </trkpt>
      <trkpt lat="42.13627" lon="2.35545">
        <ele>1338.6</ele>
        <time>2019-04-12T04:08:08Z</time>
      </trkpt>
      <trkpt lat="42.13632" lon="2.35542">
        <ele>1341.8</ele>
        <time>2019-04-12T04:08:10Z</time>
      </trkpt>
      <trkpt lat="42.13635" lon="2.35538">
        <ele>1342.5</ele>
        <time>2019-04-12T04:08:12Z</time>
      </trkpt>
      <trkpt lat="42.13639" lon="2.35533">
        <ele>1343.7</ele>
        <time>2019-04-12T04:08:14Z</time>
      </trkpt>
      <trkpt lat="42.13642" lon="2.35528">
        <ele>1344.8</ele>
        <time>2019-04-12T04:08:16Z</time>
      </trkpt>
      <trkpt lat="42.13645" lon="2.35523">
        <ele>1346.2</ele>
        <time>2019-04-12T04:08:17Z</time>
      </trkpt>
      <trkpt lat="42.1365" lon="2.35521">
        <ele>1347.5</ele>
        <time>2019-04-12T04:08:19Z</time>
      </trkpt>
      <trkpt lat="42.13654" lon="2.35519">
        <ele>1349.3</ele>
        <time>2019-04-12T04:08:21Z</time>
      </trkpt>
      <trkpt lat="42.13659" lon="2.35516">
        <ele>1350.8</ele>
        <time>2019-04-12T04:08:24Z</time>
      </trkpt>
      <trkpt lat="42.13665" lon="2.35512">
        <ele>1351.3</ele>
        <time>2019-04-12T04:08:26Z</time>
      </trkpt>
      <trkpt lat="42.13669" lon="2.35508">
        <ele>1351.4</ele>
        <time>2019-04-12T04:08:28Z</time>
      </trkpt>
      <trkpt lat="42.13672" lon="2.35502">
        <ele>1351.5</ele>
        <time>2019-04-12T04:08:30Z</time>
      </trkpt>
      <trkpt lat="42.13675" lon="2.35496">
        <ele>1351.9</ele>
        <time>2019-04-12T04:08:32Z</time>
      </trkpt>
      <trkpt lat="42.13679" lon="2.3549">
        <ele>1353.2</ele>
        <time>2019-04-12T04:08:35Z</time>
      </trkpt>
      <trkpt lat="42.13683" lon="2.35486">
        <ele>1355.4</ele>
        <time>2019-04-12T04:08:37Z</time>
      </trkpt>
      <trkpt lat="42.13685" lon="2.35478">
        <ele>1356.5</ele>
        <time>2019-04-12T04:08:39Z</time>
      </trkpt>
      <trkpt lat="42.13688" lon="2.35471">
        <ele>1358.2</ele>
        <time>2019-04-12T04:08:41Z</time>
      </trkpt>
      <trkpt lat="42.13691" lon="2.35468">
        <ele>1361</ele>
        <time>2019-04-12T04:08:43Z</time>
      </trkpt>
      <trkpt lat="42.13687" lon="2.35465">
        <ele>1365</ele>
        <time>2019-04-12T04:08:45Z</time>
      </trkpt>
      <trkpt lat="42.13682" lon="2.35464">
        <ele>1367.6</ele>
        <time>2019-04-12T04:08:47Z</time>
      </trkpt>
      <trkpt lat="42.13677" lon="2.35465">
        <ele>1370.8</ele>
        <time>2019-04-12T04:08:49Z</time>
      </trkpt>
      <trkpt lat="42.1366" lon="2.35466">
        <ele>1372.3</ele>
        <time>2019-04-12T04:08:56Z</time>
      </trkpt>
      <trkpt lat="42.13655" lon="2.35467">
        <ele>1372.5</ele>
        <time>2019-04-12T04:08:58Z</time>
      </trkpt>
      <trkpt lat="42.1364" lon="2.35466">
        <ele>1372.4</ele>
        <time>2019-04-12T04:09:04Z</time>
      </trkpt>
      <trkpt lat="42.13634" lon="2.35464">
        <ele>1374.7</ele>
        <time>2019-04-12T04:09:06Z</time>
      </trkpt>
      <trkpt lat="42.13629" lon="2.35465">
        <ele>1377.8</ele>
        <time>2019-04-12T04:09:08Z</time>
      </trkpt>
      <trkpt lat="42.13624" lon="2.35464">
        <ele>1380.5</ele>
        <time>2019-04-12T04:09:11Z</time>
      </trkpt>
      <trkpt lat="42.1362" lon="2.35461">
        <ele>1381.6</ele>
        <time>2019-04-12T04:09:13Z</time>
      </trkpt>
      <trkpt lat="42.13615" lon="2.35458">
        <ele>1382.9</ele>
        <time>2019-04-12T04:09:15Z</time>
      </trkpt>
      <trkpt lat="42.1361" lon="2.35456">
        <ele>1384.3</ele>
        <time>2019-04-12T04:09:17Z</time>
      </trkpt>
      <trkpt lat="42.13605" lon="2.35455">
        <ele>1384.6</ele>
        <time>2019-04-12T04:09:19Z</time>
      </trkpt>
      <trkpt lat="42.1361" lon="2.35446">
        <ele>1383</ele>
        <time>2019-04-12T04:09:22Z</time>
      </trkpt>
      <trkpt lat="42.13615" lon="2.35443">
        <ele>1384.6</ele>
        <time>2019-04-12T04:09:24Z</time>
      </trkpt>
      <trkpt lat="42.1362" lon="2.3544">
        <ele>1385.6</ele>
        <time>2019-04-12T04:09:26Z</time>
      </trkpt>
      <trkpt lat="42.13624" lon="2.35436">
        <ele>1387.5</ele>
        <time>2019-04-12T04:09:28Z</time>
      </trkpt>
      <trkpt lat="42.13626" lon="2.35431">
        <ele>1391.4</ele>
        <time>2019-04-12T04:09:30Z</time>
      </trkpt>
      <trkpt lat="42.1363" lon="2.35426">
        <ele>1394.3</ele>
        <time>2019-04-12T04:09:32Z</time>
      </trkpt>
      <trkpt lat="42.13634" lon="2.35421">
        <ele>1396</ele>
        <time>2019-04-12T04:09:34Z</time>
      </trkpt>
      <trkpt lat="42.13637" lon="2.35416">
        <ele>1398.1</ele>
        <time>2019-04-12T04:09:36Z</time>
      </trkpt>
      <trkpt lat="42.13639" lon="2.3541">
        <ele>1399.7</ele>
        <time>2019-04-12T04:09:38Z</time>
      </trkpt>
      <trkpt lat="42.13643" lon="2.35405">
        <ele>1400.8</ele>
        <time>2019-04-12T04:09:40Z</time>
      </trkpt>
      <trkpt lat="42.13648" lon="2.35402">
        <ele>1402.1</ele>
        <time>2019-04-12T04:09:43Z</time>
      </trkpt>
      <trkpt lat="42.13652" lon="2.35397">
        <ele>1403.6</ele>
        <time>2019-04-12T04:09:45Z</time>
      </trkpt>
      <trkpt lat="42.13654" lon="2.35392">
        <ele>1405.5</ele>
        <time>2019-04-12T04:09:47Z</time>
      </trkpt>
      <trkpt lat="42.13659" lon="2.35385">
        <ele>1407.4</ele>
        <time>2019-04-12T04:09:49Z</time>
      </trkpt>
      <trkpt lat="42.13662" lon="2.35379">
        <ele>1408.4</ele>
        <time>2019-04-12T04:09:51Z</time>
      </trkpt>
      <trkpt lat="42.13665" lon="2.35373">
        <ele>1410.1</ele>
        <time>2019-04-12T04:09:54Z</time>
      </trkpt>
      <trkpt lat="42.13669" lon="2.35367">
        <ele>1411</ele>
        <time>2019-04-12T04:09:56Z</time>
      </trkpt>
      <trkpt lat="42.13672" lon="2.35361">
        <ele>1411.1</ele>
        <time>2019-04-12T04:09:58Z</time>
      </trkpt>
      <trkpt lat="42.13676" lon="2.35356">
        <ele>1412.7</ele>
        <time>2019-04-12T04:10:00Z</time>
      </trkpt>
      <trkpt lat="42.13681" lon="2.35353">
        <ele>1413.4</ele>
        <time>2019-04-12T04:10:03Z</time>
      </trkpt>
      <trkpt lat="42.13685" lon="2.35348">
        <ele>1415.3</ele>
        <time>2019-04-12T04:10:05Z</time>
      </trkpt>
      <trkpt lat="42.1369" lon="2.3534">
        <ele>1417.9</ele>
        <time>2019-04-12T04:10:08Z</time>
      </trkpt>
      <trkpt lat="42.13692" lon="2.35335">
        <ele>1420</ele>
        <time>2019-04-12T04:10:10Z</time>
      </trkpt>
      <trkpt lat="42.13697" lon="2.35329">
        <ele>1422.4</ele>
        <time>2019-04-12T04:10:12Z</time>
      </trkpt>
      <trkpt lat="42.13701" lon="2.35326">
        <ele>1425.5</ele>
        <time>2019-04-12T04:10:14Z</time>
      </trkpt>
      <trkpt lat="42.13704" lon="2.35321">
        <ele>1427.6</ele>
        <time>2019-04-12T04:10:16Z</time>
      </trkpt>
      <trkpt lat="42.13705" lon="2.35313">
        <ele>1427.6</ele>
        <time>2019-04-12T04:10:18Z</time>
      </trkpt>
      <trkpt lat="42.13706" lon="2.35306">
        <ele>1427.6</ele>
        <time>2019-04-12T04:10:20Z</time>
      </trkpt>
      <trkpt lat="42.13708" lon="2.35298">
        <ele>1429.8</ele>
        <time>2019-04-12T04:10:23Z</time>
      </trkpt>
      <trkpt lat="42.1371" lon="2.3529">
        <ele>1433.2</ele>
        <time>2019-04-12T04:10:25Z</time>
      </trkpt>
      <trkpt lat="42.13714" lon="2.35286">
        <ele>1435.7</ele>
        <time>2019-04-12T04:10:27Z</time>
      </trkpt>
      <trkpt lat="42.13714" lon="2.3528">
        <ele>1437.2</ele>
        <time>2019-04-12T04:10:29Z</time>
      </trkpt>
      <trkpt lat="42.13711" lon="2.35276">
        <ele>1439</ele>
        <time>2019-04-12T04:10:31Z</time>
      </trkpt>
      <trkpt lat="42.13706" lon="2.35273">
        <ele>1439.4</ele>
        <time>2019-04-12T04:10:33Z</time>
      </trkpt>
      <trkpt lat="42.13703" lon="2.35269">
        <ele>1441.5</ele>
        <time>2019-04-12T04:10:35Z</time>
      </trkpt>
      <trkpt lat="42.13705" lon="2.35263">
        <ele>1442.1</ele>
        <time>2019-04-12T04:10:37Z</time>
      </trkpt>
      <trkpt lat="42.13709" lon="2.35257">
        <ele>1442.5</ele>
        <time>2019-04-12T04:10:39Z</time>
      </trkpt>
      <trkpt lat="42.13713" lon="2.35253">
        <ele>1443.2</ele>
        <time>2019-04-12T04:10:41Z</time>
      </trkpt>
      <trkpt lat="42.13717" lon="2.35248">
        <ele>1444.2</ele>
        <time>2019-04-12T04:10:43Z</time>
      </trkpt>
      <trkpt lat="42.13721" lon="2.35243">
        <ele>1445.4</ele>
        <time>2019-04-12T04:10:45Z</time>
      </trkpt>
      <trkpt lat="42.13725" lon="2.35237">
        <ele>1447.3</ele>
        <time>2019-04-12T04:10:48Z</time>
      </trkpt>
      <trkpt lat="42.13729" lon="2.35231">
        <ele>1448.5</ele>
        <time>2019-04-12T04:10:51Z</time>
      </trkpt>
      <trkpt lat="42.13734" lon="2.35227">
        <ele>1451</ele>
        <time>2019-04-12T04:10:53Z</time>
      </trkpt>
      <trkpt lat="42.13737" lon="2.3522">
        <ele>1454.1</ele>
        <time>2019-04-12T04:10:55Z</time>
      </trkpt>
      <trkpt lat="42.1374" lon="2.35217">
        <ele>1456</ele>
        <time>2019-04-12T04:10:57Z</time>
      </trkpt>
      <trkpt lat="42.13745" lon="2.35212">
        <ele>1458.2</ele>
        <time>2019-04-12T04:10:59Z</time>
      </trkpt>
      <trkpt lat="42.13748" lon="2.35208">
        <ele>1460.6</ele>
        <time>2019-04-12T04:11:01Z</time>
      </trkpt>
      <trkpt lat="42.13749" lon="2.35201">
        <ele>1462.7</ele>
        <time>2019-04-12T04:11:03Z</time>
      </trkpt>
      <trkpt lat="42.13751" lon="2.35193">
        <ele>1462.1</ele>
        <time>2019-04-12T04:11:05Z</time>
      </trkpt>
      <trkpt lat="42.1375" lon="2.35183">
        <ele>1461.8</ele>
        <time>2019-04-12T04:11:08Z</time>
      </trkpt>
      <trkpt lat="42.1375" lon="2.35177">
        <ele>1462.5</ele>
        <time>2019-04-12T04:11:10Z</time>
      </trkpt>
      <trkpt lat="42.1375" lon="2.3517">
        <ele>1463.2</ele>
        <time>2019-04-12T04:11:12Z</time>
      </trkpt>
      <trkpt lat="42.13755" lon="2.35169">
        <ele>1465.6</ele>
        <time>2019-04-12T04:11:14Z</time>
      </trkpt>
      <trkpt lat="42.13755" lon="2.35162">
        <ele>1466.2</ele>
        <time>2019-04-12T04:11:16Z</time>
      </trkpt>
      <trkpt lat="42.13759" lon="2.35158">
        <ele>1466.7</ele>
        <time>2019-04-12T04:11:18Z</time>
      </trkpt>
      <trkpt lat="42.13763" lon="2.35153">
        <ele>1466.8</ele>
        <time>2019-04-12T04:11:20Z</time>
      </trkpt>
      <trkpt lat="42.13764" lon="2.35147">
        <ele>1467.1</ele>
        <time>2019-04-12T04:11:22Z</time>
      </trkpt>
      <trkpt lat="42.13767" lon="2.3514">
        <ele>1468.1</ele>
        <time>2019-04-12T04:11:24Z</time>
      </trkpt>
      <trkpt lat="42.13769" lon="2.35134">
        <ele>1468.3</ele>
        <time>2019-04-12T04:11:27Z</time>
      </trkpt>
      <trkpt lat="42.13771" lon="2.35128">
        <ele>1467.6</ele>
        <time>2019-04-12T04:11:29Z</time>
      </trkpt>
      <trkpt lat="42.13773" lon="2.35117">
        <ele>1467.5</ele>
        <time>2019-04-12T04:11:32Z</time>
      </trkpt>
      <trkpt lat="42.13772" lon="2.35111">
        <ele>1468.8</ele>
        <time>2019-04-12T04:11:34Z</time>
      </trkpt>
      <trkpt lat="42.13776" lon="2.35106">
        <ele>1469.7</ele>
        <time>2019-04-12T04:11:35Z</time>
      </trkpt>
      <trkpt lat="42.13779" lon="2.35102">
        <ele>1471.7</ele>
        <time>2019-04-12T04:11:37Z</time>
      </trkpt>
      <trkpt lat="42.1378" lon="2.35095">
        <ele>1473</ele>
        <time>2019-04-12T04:11:39Z</time>
      </trkpt>
      <trkpt lat="42.13781" lon="2.35088">
        <ele>1473.9</ele>
        <time>2019-04-12T04:11:41Z</time>
      </trkpt>
      <trkpt lat="42.13781" lon="2.3508">
        <ele>1475.9</ele>
        <time>2019-04-12T04:11:44Z</time>
      </trkpt>
      <trkpt lat="42.1378" lon="2.35073">
        <ele>1477.4</ele>
        <time>2019-04-12T04:11:46Z</time>
      </trkpt>
      <trkpt lat="42.13774" lon="2.35072">
        <ele>1479.3</ele>
        <time>2019-04-12T04:11:48Z</time>
      </trkpt>
      <trkpt lat="42.13769" lon="2.35077">
        <ele>1479.8</ele>
        <time>2019-04-12T04:11:51Z</time>
      </trkpt>
      <trkpt lat="42.13764" lon="2.35073">
        <ele>1478.7</ele>
        <time>2019-04-12T04:11:53Z</time>
      </trkpt>
      <trkpt lat="42.13767" lon="2.35068">
        <ele>1475.4</ele>
        <time>2019-04-12T04:11:55Z</time>
      </trkpt>
      <trkpt lat="42.13766" lon="2.35062">
        <ele>1473.3</ele>
        <time>2019-04-12T04:11:57Z</time>
      </trkpt>
      <trkpt lat="42.13765" lon="2.35055">
        <ele>1470.4</ele>
        <time>2019-04-12T04:11:59Z</time>
      </trkpt>
      <trkpt lat="42.13763" lon="2.35047">
        <ele>1466.3</ele>
        <time>2019-04-12T04:12:01Z</time>
      </trkpt>
      <trkpt lat="42.13759" lon="2.35043">
        <ele>1464.2</ele>
        <time>2019-04-12T04:12:03Z</time>
      </trkpt>
      <trkpt lat="42.13761" lon="2.35037">
        <ele>1464.1</ele>
        <time>2019-04-12T04:12:05Z</time>
      </trkpt>
      <trkpt lat="42.13766" lon="2.35039">
        <ele>1463</ele>
        <time>2019-04-12T04:12:07Z</time>
      </trkpt>
      <trkpt lat="42.13764" lon="2.35031">
        <ele>1462.6</ele>
        <time>2019-04-12T04:12:09Z</time>
      </trkpt>
      <trkpt lat="42.13762" lon="2.35025">
        <ele>1462.7</ele>
        <time>2019-04-12T04:12:11Z</time>
      </trkpt>
      <trkpt lat="42.13767" lon="2.3503">
        <ele>1460.1</ele>
        <time>2019-04-12T04:12:14Z</time>
      </trkpt>
      <trkpt lat="42.13785" lon="2.35047">
        <ele>1459.2</ele>
        <time>2019-04-12T04:12:23Z</time>
      </trkpt>
      <trkpt lat="42.13791" lon="2.35052">
        <ele>1456.3</ele>
        <time>2019-04-12T04:12:26Z</time>
      </trkpt>
      <trkpt lat="42.13794" lon="2.35057">
        <ele>1455.6</ele>
        <time>2019-04-12T04:12:27Z</time>
      </trkpt>
      <trkpt lat="42.13796" lon="2.35062">
        <ele>1455.6</ele>
        <time>2019-04-12T04:12:29Z</time>
      </trkpt>
      <trkpt lat="42.13802" lon="2.35064">
        <ele>1454.2</ele>
        <time>2019-04-12T04:12:31Z</time>
      </trkpt>
      <trkpt lat="42.13805" lon="2.35069">
        <ele>1452.2</ele>
        <time>2019-04-12T04:12:34Z</time>
      </trkpt>
      <trkpt lat="42.13809" lon="2.35066">
        <ele>1450.6</ele>
        <time>2019-04-12T04:12:35Z</time>
      </trkpt>
      <trkpt lat="42.13814" lon="2.35063">
        <ele>1447.9</ele>
        <time>2019-04-12T04:12:37Z</time>
      </trkpt>
      <trkpt lat="42.13819" lon="2.35059">
        <ele>1445</ele>
        <time>2019-04-12T04:12:40Z</time>
      </trkpt>
      <trkpt lat="42.13824" lon="2.35059">
        <ele>1443.2</ele>
        <time>2019-04-12T04:12:42Z</time>
      </trkpt>
      <trkpt lat="42.13829" lon="2.35056">
        <ele>1441.7</ele>
        <time>2019-04-12T04:12:44Z</time>
      </trkpt>
      <trkpt lat="42.13834" lon="2.35054">
        <ele>1441.2</ele>
        <time>2019-04-12T04:12:46Z</time>
      </trkpt>
      <trkpt lat="42.13839" lon="2.35055">
        <ele>1439.5</ele>
        <time>2019-04-12T04:12:48Z</time>
      </trkpt>
      <trkpt lat="42.13844" lon="2.35055">
        <ele>1436.9</ele>
        <time>2019-04-12T04:12:50Z</time>
      </trkpt>
      <trkpt lat="42.13852" lon="2.35052">
        <ele>1433.6</ele>
        <time>2019-04-12T04:12:53Z</time>
      </trkpt>
      <trkpt lat="42.13857" lon="2.35052">
        <ele>1431.7</ele>
        <time>2019-04-12T04:12:55Z</time>
      </trkpt>
      <trkpt lat="42.13862" lon="2.35052">
        <ele>1430.3</ele>
        <time>2019-04-12T04:12:57Z</time>
      </trkpt>
      <trkpt lat="42.13868" lon="2.35051">
        <ele>1427.4</ele>
        <time>2019-04-12T04:13:00Z</time>
      </trkpt>
      <trkpt lat="42.13873" lon="2.35051">
        <ele>1425.4</ele>
        <time>2019-04-12T04:13:02Z</time>
      </trkpt>
      <trkpt lat="42.13879" lon="2.35052">
        <ele>1425.1</ele>
        <time>2019-04-12T04:13:04Z</time>
      </trkpt>
      <trkpt lat="42.13884" lon="2.35052">
        <ele>1424.8</ele>
        <time>2019-04-12T04:13:06Z</time>
      </trkpt>
      <trkpt lat="42.13891" lon="2.35056">
        <ele>1422.7</ele>
        <time>2019-04-12T04:13:09Z</time>
      </trkpt>
      <trkpt lat="42.13887" lon="2.35061">
        <ele>1421.3</ele>
        <time>2019-04-12T04:13:12Z</time>
      </trkpt>
      <trkpt lat="42.13883" lon="2.35065">
        <ele>1420.4</ele>
        <time>2019-04-12T04:13:14Z</time>
      </trkpt>
      <trkpt lat="42.13877" lon="2.35071">
        <ele>1419.4</ele>
        <time>2019-04-12T04:13:16Z</time>
      </trkpt>
      <trkpt lat="42.13873" lon="2.35074">
        <ele>1417.2</ele>
        <time>2019-04-12T04:13:18Z</time>
      </trkpt>
      <trkpt lat="42.13869" lon="2.35077">
        <ele>1416.2</ele>
        <time>2019-04-12T04:13:20Z</time>
      </trkpt>
      <trkpt lat="42.13866" lon="2.35082">
        <ele>1416.4</ele>
        <time>2019-04-12T04:13:22Z</time>
      </trkpt>
      <trkpt lat="42.13862" lon="2.35088">
        <ele>1416</ele>
        <time>2019-04-12T04:13:24Z</time>
      </trkpt>
      <trkpt lat="42.13857" lon="2.35091">
        <ele>1414.2</ele>
        <time>2019-04-12T04:13:27Z</time>
      </trkpt>
      <trkpt lat="42.13853" lon="2.35094">
        <ele>1411.3</ele>
        <time>2019-04-12T04:13:29Z</time>
      </trkpt>
      <trkpt lat="42.13848" lon="2.35098">
        <ele>1408.2</ele>
        <time>2019-04-12T04:13:31Z</time>
      </trkpt>
      <trkpt lat="42.13843" lon="2.351">
        <ele>1405.9</ele>
        <time>2019-04-12T04:13:33Z</time>
      </trkpt>
      <trkpt lat="42.13838" lon="2.35102">
        <ele>1404.5</ele>
        <time>2019-04-12T04:13:35Z</time>
      </trkpt>
      <trkpt lat="42.13835" lon="2.35107">
        <ele>1403.6</ele>
        <time>2019-04-12T04:13:37Z</time>
      </trkpt>
      <trkpt lat="42.13833" lon="2.35114">
        <ele>1402.9</ele>
        <time>2019-04-12T04:13:39Z</time>
      </trkpt>
      <trkpt lat="42.13833" lon="2.3512">
        <ele>1402.2</ele>
        <time>2019-04-12T04:13:41Z</time>
      </trkpt>
      <trkpt lat="42.13832" lon="2.35127">
        <ele>1402.2</ele>
        <time>2019-04-12T04:13:43Z</time>
      </trkpt>
      <trkpt lat="42.13829" lon="2.35133">
        <ele>1401.7</ele>
        <time>2019-04-12T04:13:45Z</time>
      </trkpt>
      <trkpt lat="42.13826" lon="2.35138">
        <ele>1401</ele>
        <time>2019-04-12T04:13:47Z</time>
      </trkpt>
      <trkpt lat="42.13824" lon="2.35145">
        <ele>1399.6</ele>
        <time>2019-04-12T04:13:49Z</time>
      </trkpt>
      <trkpt lat="42.13827" lon="2.35152">
        <ele>1400.1</ele>
        <time>2019-04-12T04:13:51Z</time>
      </trkpt>
      <trkpt lat="42.13826" lon="2.3516">
        <ele>1401.5</ele>
        <time>2019-04-12T04:13:54Z</time>
      </trkpt>
      <trkpt lat="42.13826" lon="2.35168">
        <ele>1402.5</ele>
        <time>2019-04-12T04:13:56Z</time>
      </trkpt>
      <trkpt lat="42.13828" lon="2.35174">
        <ele>1403.4</ele>
        <time>2019-04-12T04:13:58Z</time>
      </trkpt>
      <trkpt lat="42.13824" lon="2.35183">
        <ele>1400.4</ele>
        <time>2019-04-12T04:14:01Z</time>
      </trkpt>
      <trkpt lat="42.13821" lon="2.35188">
        <ele>1398</ele>
        <time>2019-04-12T04:14:03Z</time>
      </trkpt>
      <trkpt lat="42.13818" lon="2.35193">
        <ele>1397.3</ele>
        <time>2019-04-12T04:14:05Z</time>
      </trkpt>
      <trkpt lat="42.13821" lon="2.35198">
        <ele>1401.3</ele>
        <time>2019-04-12T04:14:07Z</time>
      </trkpt>
      <trkpt lat="42.13827" lon="2.35197">
        <ele>1400.8</ele>
        <time>2019-04-12T04:14:09Z</time>
      </trkpt>
      <trkpt lat="42.13832" lon="2.35195">
        <ele>1400</ele>
        <time>2019-04-12T04:14:11Z</time>
      </trkpt>
      <trkpt lat="42.13837" lon="2.3519">
        <ele>1398.8</ele>
        <time>2019-04-12T04:14:14Z</time>
      </trkpt>
      <trkpt lat="42.13841" lon="2.35185">
        <ele>1397.3</ele>
        <time>2019-04-12T04:14:16Z</time>
      </trkpt>
      <trkpt lat="42.13845" lon="2.35182">
        <ele>1396.2</ele>
        <time>2019-04-12T04:14:18Z</time>
      </trkpt>
      <trkpt lat="42.1385" lon="2.3518">
        <ele>1396.2</ele>
        <time>2019-04-12T04:14:20Z</time>
      </trkpt>
      <trkpt lat="42.13855" lon="2.35177">
        <ele>1396.5</ele>
        <time>2019-04-12T04:14:22Z</time>
      </trkpt>
      <trkpt lat="42.13859" lon="2.35174">
        <ele>1395.5</ele>
        <time>2019-04-12T04:14:24Z</time>
      </trkpt>
      <trkpt lat="42.13864" lon="2.3516">
        <ele>1393.8</ele>
        <time>2019-04-12T04:14:29Z</time>
      </trkpt>
      <trkpt lat="42.13868" lon="2.35156">
        <ele>1394.4</ele>
        <time>2019-04-12T04:14:31Z</time>
      </trkpt>
      <trkpt lat="42.13873" lon="2.35152">
        <ele>1394.9</ele>
        <time>2019-04-12T04:14:33Z</time>
      </trkpt>
      <trkpt lat="42.13878" lon="2.35151">
        <ele>1394.9</ele>
        <time>2019-04-12T04:14:35Z</time>
      </trkpt>
      <trkpt lat="42.13882" lon="2.3515">
        <ele>1395.4</ele>
        <time>2019-04-12T04:14:37Z</time>
      </trkpt>
      <trkpt lat="42.13888" lon="2.35148">
        <ele>1395.1</ele>
        <time>2019-04-12T04:14:39Z</time>
      </trkpt>
      <trkpt lat="42.13893" lon="2.35149">
        <ele>1394.6</ele>
        <time>2019-04-12T04:14:41Z</time>
      </trkpt>
      <trkpt lat="42.13898" lon="2.35147">
        <ele>1393.1</ele>
        <time>2019-04-12T04:14:43Z</time>
      </trkpt>
      <trkpt lat="42.13905" lon="2.35145">
        <ele>1389.8</ele>
        <time>2019-04-12T04:14:46Z</time>
      </trkpt>
      <trkpt lat="42.1391" lon="2.35145">
        <ele>1386.2</ele>
        <time>2019-04-12T04:14:48Z</time>
      </trkpt>
      <trkpt lat="42.13915" lon="2.35143">
        <ele>1383.7</ele>
        <time>2019-04-12T04:14:50Z</time>
      </trkpt>
      <trkpt lat="42.13922" lon="2.35141">
        <ele>1381.5</ele>
        <time>2019-04-12T04:14:53Z</time>
      </trkpt>
      <trkpt lat="42.1393" lon="2.35131">
        <ele>1379.2</ele>
        <time>2019-04-12T04:14:57Z</time>
      </trkpt>
      <trkpt lat="42.13934" lon="2.35128">
        <ele>1378.7</ele>
        <time>2019-04-12T04:14:59Z</time>
      </trkpt>
      <trkpt lat="42.13939" lon="2.35127">
        <ele>1378.6</ele>
        <time>2019-04-12T04:15:01Z</time>
      </trkpt>
      <trkpt lat="42.13947" lon="2.35118">
        <ele>1378.3</ele>
        <time>2019-04-12T04:15:05Z</time>
      </trkpt>
      <trkpt lat="42.13951" lon="2.35114">
        <ele>1377.7</ele>
        <time>2019-04-12T04:15:07Z</time>
      </trkpt>
      <trkpt lat="42.13955" lon="2.3511">
        <ele>1378.3</ele>
        <time>2019-04-12T04:15:09Z</time>
      </trkpt>
      <trkpt lat="42.13962" lon="2.35108">
        <ele>1378.6</ele>
        <time>2019-04-12T04:15:12Z</time>
      </trkpt>
      <trkpt lat="42.13966" lon="2.35105">
        <ele>1379</ele>
        <time>2019-04-12T04:15:14Z</time>
      </trkpt>
      <trkpt lat="42.1397" lon="2.35101">
        <ele>1380.4</ele>
        <time>2019-04-12T04:15:16Z</time>
      </trkpt>
      <trkpt lat="42.13975" lon="2.35098">
        <ele>1380.1</ele>
        <time>2019-04-12T04:15:18Z</time>
      </trkpt>
      <trkpt lat="42.1398" lon="2.35097">
        <ele>1379.4</ele>
        <time>2019-04-12T04:15:20Z</time>
      </trkpt>
      <trkpt lat="42.13984" lon="2.35094">
        <ele>1379</ele>
        <time>2019-04-12T04:15:22Z</time>
      </trkpt>
      <trkpt lat="42.13987" lon="2.35089">
        <ele>1379.1</ele>
        <time>2019-04-12T04:15:24Z</time>
      </trkpt>
      <trkpt lat="42.13991" lon="2.35085">
        <ele>1379.9</ele>
        <time>2019-04-12T04:15:26Z</time>
      </trkpt>
      <trkpt lat="42.13995" lon="2.35082">
        <ele>1380.7</ele>
        <time>2019-04-12T04:15:28Z</time>
      </trkpt>
      <trkpt lat="42.13999" lon="2.35077">
        <ele>1380.4</ele>
        <time>2019-04-12T04:15:30Z</time>
      </trkpt>
      <trkpt lat="42.14003" lon="2.35074">
        <ele>1380</ele>
        <time>2019-04-12T04:15:32Z</time>
      </trkpt>
      <trkpt lat="42.14008" lon="2.35069">
        <ele>1378.8</ele>
        <time>2019-04-12T04:15:34Z</time>
      </trkpt>
      <trkpt lat="42.14012" lon="2.35065">
        <ele>1376.7</ele>
        <time>2019-04-12T04:15:36Z</time>
      </trkpt>
      <trkpt lat="42.14015" lon="2.35061">
        <ele>1373.8</ele>
        <time>2019-04-12T04:15:38Z</time>
      </trkpt>
      <trkpt lat="42.1402" lon="2.35057">
        <ele>1371.6</ele>
        <time>2019-04-12T04:15:40Z</time>
      </trkpt>
      <trkpt lat="42.14024" lon="2.35053">
        <ele>1369.4</ele>
        <time>2019-04-12T04:15:42Z</time>
      </trkpt>
      <trkpt lat="42.14029" lon="2.35051">
        <ele>1367.8</ele>
        <time>2019-04-12T04:15:44Z</time>
      </trkpt>
      <trkpt lat="42.14035" lon="2.35044">
        <ele>1366.3</ele>
        <time>2019-04-12T04:15:47Z</time>
      </trkpt>
      <trkpt lat="42.14038" lon="2.35038">
        <ele>1365.6</ele>
        <time>2019-04-12T04:15:50Z</time>
      </trkpt>
      <trkpt lat="42.14041" lon="2.35033">
        <ele>1365.3</ele>
        <time>2019-04-12T04:15:51Z</time>
      </trkpt>
      <trkpt lat="42.14044" lon="2.35028">
        <ele>1364.2</ele>
        <time>2019-04-12T04:15:53Z</time>
      </trkpt>
      <trkpt lat="42.14047" lon="2.35022">
        <ele>1361.8</ele>
        <time>2019-04-12T04:15:55Z</time>
      </trkpt>
      <trkpt lat="42.14051" lon="2.35019">
        <ele>1360.3</ele>
        <time>2019-04-12T04:15:57Z</time>
      </trkpt>
      <trkpt lat="42.14056" lon="2.35017">
        <ele>1357.7</ele>
        <time>2019-04-12T04:16:00Z</time>
      </trkpt>
      <trkpt lat="42.1407" lon="2.35002">
        <ele>1353.7</ele>
        <time>2019-04-12T04:16:06Z</time>
      </trkpt>
      <trkpt lat="42.14075" lon="2.35003">
        <ele>1350.8</ele>
        <time>2019-04-12T04:16:08Z</time>
      </trkpt>
      <trkpt lat="42.1408" lon="2.35005">
        <ele>1347.4</ele>
        <time>2019-04-12T04:16:11Z</time>
      </trkpt>
      <trkpt lat="42.14085" lon="2.35008">
        <ele>1344.9</ele>
        <time>2019-04-12T04:16:13Z</time>
      </trkpt>
      <trkpt lat="42.14089" lon="2.35007">
        <ele>1342.8</ele>
        <time>2019-04-12T04:16:15Z</time>
      </trkpt>
      <trkpt lat="42.14094" lon="2.35007">
        <ele>1340.6</ele>
        <time>2019-04-12T04:16:17Z</time>
      </trkpt>
      <trkpt lat="42.14099" lon="2.35007">
        <ele>1338.9</ele>
        <time>2019-04-12T04:16:19Z</time>
      </trkpt>
      <trkpt lat="42.14104" lon="2.35007">
        <ele>1336.9</ele>
        <time>2019-04-12T04:16:21Z</time>
      </trkpt>
      <trkpt lat="42.14109" lon="2.35004">
        <ele>1333.5</ele>
        <time>2019-04-12T04:16:23Z</time>
      </trkpt>
      <trkpt lat="42.14113" lon="2.35006">
        <ele>1332</ele>
        <time>2019-04-12T04:16:24Z</time>
      </trkpt>
      <trkpt lat="42.14118" lon="2.35006">
        <ele>1331.3</ele>
        <time>2019-04-12T04:16:26Z</time>
      </trkpt>
      <trkpt lat="42.14123" lon="2.35007">
        <ele>1330.8</ele>
        <time>2019-04-12T04:16:28Z</time>
      </trkpt>
      <trkpt lat="42.14128" lon="2.35007">
        <ele>1330</ele>
        <time>2019-04-12T04:16:31Z</time>
      </trkpt>
      <trkpt lat="42.14134" lon="2.35007">
        <ele>1330.6</ele>
        <time>2019-04-12T04:16:33Z</time>
      </trkpt>
      <trkpt lat="42.14138" lon="2.35005">
        <ele>1330.3</ele>
        <time>2019-04-12T04:16:35Z</time>
      </trkpt>
      <trkpt lat="42.14142" lon="2.35003">
        <ele>1329.8</ele>
        <time>2019-04-12T04:16:36Z</time>
      </trkpt>
      <trkpt lat="42.14147" lon="2.35001">
        <ele>1329.7</ele>
        <time>2019-04-12T04:16:38Z</time>
      </trkpt>
      <trkpt lat="42.14151" lon="2.35">
        <ele>1329.5</ele>
        <time>2019-04-12T04:16:40Z</time>
      </trkpt>
      <trkpt lat="42.14156" lon="2.35">
        <ele>1329.8</ele>
        <time>2019-04-12T04:16:42Z</time>
      </trkpt>
      <trkpt lat="42.14161" lon="2.35">
        <ele>1328.4</ele>
        <time>2019-04-12T04:16:44Z</time>
      </trkpt>
      <trkpt lat="42.14166" lon="2.35001">
        <ele>1326.8</ele>
        <time>2019-04-12T04:16:46Z</time>
      </trkpt>
      <trkpt lat="42.14171" lon="2.34999">
        <ele>1325.5</ele>
        <time>2019-04-12T04:16:48Z</time>
      </trkpt>
      <trkpt lat="42.14176" lon="2.34996">
        <ele>1323.2</ele>
        <time>2019-04-12T04:16:50Z</time>
      </trkpt>
      <trkpt lat="42.1418" lon="2.34993">
        <ele>1321.4</ele>
        <time>2019-04-12T04:16:52Z</time>
      </trkpt>
      <trkpt lat="42.14185" lon="2.34989">
        <ele>1319.7</ele>
        <time>2019-04-12T04:16:54Z</time>
      </trkpt>
      <trkpt lat="42.1419" lon="2.34986">
        <ele>1317.5</ele>
        <time>2019-04-12T04:16:57Z</time>
      </trkpt>
      <trkpt lat="42.14194" lon="2.34982">
        <ele>1315</ele>
        <time>2019-04-12T04:16:59Z</time>
      </trkpt>
      <trkpt lat="42.14199" lon="2.34978">
        <ele>1312.5</ele>
        <time>2019-04-12T04:17:01Z</time>
      </trkpt>
      <trkpt lat="42.14203" lon="2.34974">
        <ele>1310.1</ele>
        <time>2019-04-12T04:17:03Z</time>
      </trkpt>
      <trkpt lat="42.14208" lon="2.34971">
        <ele>1308.1</ele>
        <time>2019-04-12T04:17:05Z</time>
      </trkpt>
      <trkpt lat="42.14215" lon="2.34965">
        <ele>1306.2</ele>
        <time>2019-04-12T04:17:08Z</time>
      </trkpt>
      <trkpt lat="42.1422" lon="2.3496">
        <ele>1305</ele>
        <time>2019-04-12T04:17:11Z</time>
      </trkpt>
      <trkpt lat="42.14224" lon="2.34958">
        <ele>1303.8</ele>
        <time>2019-04-12T04:17:13Z</time>
      </trkpt>
      <trkpt lat="42.1423" lon="2.34956">
        <ele>1302.8</ele>
        <time>2019-04-12T04:17:15Z</time>
      </trkpt>
      <trkpt lat="42.14232" lon="2.3495">
        <ele>1301.5</ele>
        <time>2019-04-12T04:17:17Z</time>
      </trkpt>
      <trkpt lat="42.14235" lon="2.34944">
        <ele>1300.4</ele>
        <time>2019-04-12T04:17:19Z</time>
      </trkpt>
      <trkpt lat="42.14237" lon="2.34938">
        <ele>1301.9</ele>
        <time>2019-04-12T04:17:21Z</time>
      </trkpt>
      <trkpt lat="42.14239" lon="2.34932">
        <ele>1305.9</ele>
        <time>2019-04-12T04:17:23Z</time>
      </trkpt>
      <trkpt lat="42.14242" lon="2.34927">
        <ele>1306.5</ele>
        <time>2019-04-12T04:17:25Z</time>
      </trkpt>
      <trkpt lat="42.14245" lon="2.34922">
        <ele>1306.8</ele>
        <time>2019-04-12T04:17:27Z</time>
      </trkpt>
      <trkpt lat="42.14246" lon="2.34914">
        <ele>1306.6</ele>
        <time>2019-04-12T04:17:29Z</time>
      </trkpt>
      <trkpt lat="42.14254" lon="2.34904">
        <ele>1304.3</ele>
        <time>2019-04-12T04:17:33Z</time>
      </trkpt>
      <trkpt lat="42.14259" lon="2.34904">
        <ele>1303.1</ele>
        <time>2019-04-12T04:17:35Z</time>
      </trkpt>
      <trkpt lat="42.14262" lon="2.34909">
        <ele>1303.9</ele>
        <time>2019-04-12T04:17:37Z</time>
      </trkpt>
      <trkpt lat="42.14262" lon="2.34915">
        <ele>1302.6</ele>
        <time>2019-04-12T04:17:39Z</time>
      </trkpt>
      <trkpt lat="42.14268" lon="2.34918">
        <ele>1299.8</ele>
        <time>2019-04-12T04:17:41Z</time>
      </trkpt>
      <trkpt lat="42.14272" lon="2.34924">
        <ele>1296.3</ele>
        <time>2019-04-12T04:17:44Z</time>
      </trkpt>
      <trkpt lat="42.14273" lon="2.34931">
        <ele>1292.3</ele>
        <time>2019-04-12T04:17:46Z</time>
      </trkpt>
      <trkpt lat="42.14276" lon="2.34937">
        <ele>1290.6</ele>
        <time>2019-04-12T04:17:48Z</time>
      </trkpt>
      <trkpt lat="42.14279" lon="2.34942">
        <ele>1288.3</ele>
        <time>2019-04-12T04:17:50Z</time>
      </trkpt>
      <trkpt lat="42.14281" lon="2.34949">
        <ele>1285.1</ele>
        <time>2019-04-12T04:17:52Z</time>
      </trkpt>
      <trkpt lat="42.14279" lon="2.34955">
        <ele>1283</ele>
        <time>2019-04-12T04:17:54Z</time>
      </trkpt>
      <trkpt lat="42.14277" lon="2.34963">
        <ele>1281</ele>
        <time>2019-04-12T04:17:57Z</time>
      </trkpt>
      <trkpt lat="42.14274" lon="2.34968">
        <ele>1277.1</ele>
        <time>2019-04-12T04:17:59Z</time>
      </trkpt>
      <trkpt lat="42.14299" lon="2.35017">
        <ele>1278.3</ele>
        <time>2019-04-12T04:18:16Z</time>
      </trkpt>
      <trkpt lat="42.14299" lon="2.35024">
        <ele>1278.4</ele>
        <time>2019-04-12T04:18:19Z</time>
      </trkpt>
      <trkpt lat="42.14299" lon="2.3503">
        <ele>1277.9</ele>
        <time>2019-04-12T04:18:20Z</time>
      </trkpt>
      <trkpt lat="42.14298" lon="2.35037">
        <ele>1277.1</ele>
        <time>2019-04-12T04:18:22Z</time>
      </trkpt>
      <trkpt lat="42.14297" lon="2.35044">
        <ele>1275.5</ele>
        <time>2019-04-12T04:18:25Z</time>
      </trkpt>
      <trkpt lat="42.14296" lon="2.35051">
        <ele>1274.4</ele>
        <time>2019-04-12T04:18:27Z</time>
      </trkpt>
      <trkpt lat="42.14298" lon="2.35058">
        <ele>1272</ele>
        <time>2019-04-12T04:18:29Z</time>
      </trkpt>
      <trkpt lat="42.14301" lon="2.35063">
        <ele>1269.2</ele>
        <time>2019-04-12T04:18:31Z</time>
      </trkpt>
      <trkpt lat="42.14305" lon="2.35068">
        <ele>1267.2</ele>
        <time>2019-04-12T04:18:33Z</time>
      </trkpt>
      <trkpt lat="42.14307" lon="2.35074">
        <ele>1267.9</ele>
        <time>2019-04-12T04:18:35Z</time>
      </trkpt>
      <trkpt lat="42.14307" lon="2.35081">
        <ele>1266.9</ele>
        <time>2019-04-12T04:18:37Z</time>
      </trkpt>
      <trkpt lat="42.14307" lon="2.35088">
        <ele>1266.8</ele>
        <time>2019-04-12T04:18:39Z</time>
      </trkpt>
      <trkpt lat="42.14308" lon="2.35095">
        <ele>1266.6</ele>
        <time>2019-04-12T04:18:41Z</time>
      </trkpt>
      <trkpt lat="42.14311" lon="2.35102">
        <ele>1266.3</ele>
        <time>2019-04-12T04:18:44Z</time>
      </trkpt>
      <trkpt lat="42.14314" lon="2.35108">
        <ele>1265.8</ele>
        <time>2019-04-12T04:18:46Z</time>
      </trkpt>
      <trkpt lat="42.14316" lon="2.35115">
        <ele>1264.4</ele>
        <time>2019-04-12T04:18:48Z</time>
      </trkpt>
      <trkpt lat="42.14317" lon="2.35121">
        <ele>1263.1</ele>
        <time>2019-04-12T04:18:50Z</time>
      </trkpt>
      <trkpt lat="42.14318" lon="2.35127">
        <ele>1261.2</ele>
        <time>2019-04-12T04:18:52Z</time>
      </trkpt>
      <trkpt lat="42.1432" lon="2.35134">
        <ele>1261.1</ele>
        <time>2019-04-12T04:18:54Z</time>
      </trkpt>
      <trkpt lat="42.14322" lon="2.35141">
        <ele>1260.9</ele>
        <time>2019-04-12T04:18:56Z</time>
      </trkpt>
      <trkpt lat="42.14323" lon="2.35148">
        <ele>1260.1</ele>
        <time>2019-04-12T04:18:58Z</time>
      </trkpt>
      <trkpt lat="42.14323" lon="2.35156">
        <ele>1258.8</ele>
        <time>2019-04-12T04:19:01Z</time>
      </trkpt>
      <trkpt lat="42.14324" lon="2.35163">
        <ele>1257.8</ele>
        <time>2019-04-12T04:19:03Z</time>
      </trkpt>
      <trkpt lat="42.14326" lon="2.35169">
        <ele>1255.6</ele>
        <time>2019-04-12T04:19:05Z</time>
      </trkpt>
      <trkpt lat="42.14328" lon="2.35175">
        <ele>1253.2</ele>
        <time>2019-04-12T04:19:07Z</time>
      </trkpt>
      <trkpt lat="42.14331" lon="2.35182">
        <ele>1250.5</ele>
        <time>2019-04-12T04:19:09Z</time>
      </trkpt>
      <trkpt lat="42.14334" lon="2.35187">
        <ele>1249.4</ele>
        <time>2019-04-12T04:19:11Z</time>
      </trkpt>
      <trkpt lat="42.14337" lon="2.35193">
        <ele>1247.6</ele>
        <time>2019-04-12T04:19:13Z</time>
      </trkpt>
      <trkpt lat="42.1434" lon="2.35198">
        <ele>1245.8</ele>
        <time>2019-04-12T04:19:15Z</time>
      </trkpt>
      <trkpt lat="42.14343" lon="2.35203">
        <ele>1245.4</ele>
        <time>2019-04-12T04:19:17Z</time>
      </trkpt>
      <trkpt lat="42.14346" lon="2.35208">
        <ele>1245.3</ele>
        <time>2019-04-12T04:19:19Z</time>
      </trkpt>
      <trkpt lat="42.14351" lon="2.35211">
        <ele>1245.5</ele>
        <time>2019-04-12T04:19:21Z</time>
      </trkpt>
      <trkpt lat="42.14355" lon="2.35214">
        <ele>1244.9</ele>
        <time>2019-04-12T04:19:23Z</time>
      </trkpt>
      <trkpt lat="42.14359" lon="2.35217">
        <ele>1244.8</ele>
        <time>2019-04-12T04:19:25Z</time>
      </trkpt>
      <trkpt lat="42.14363" lon="2.35223">
        <ele>1244.3</ele>
        <time>2019-04-12T04:19:27Z</time>
      </trkpt>
      <trkpt lat="42.14366" lon="2.35229">
        <ele>1244.3</ele>
        <time>2019-04-12T04:19:29Z</time>
      </trkpt>
      <trkpt lat="42.14369" lon="2.35235">
        <ele>1244.3</ele>
        <time>2019-04-12T04:19:31Z</time>
      </trkpt>
      <trkpt lat="42.14371" lon="2.3524">
        <ele>1244.3</ele>
        <time>2019-04-12T04:19:33Z</time>
      </trkpt>
      <trkpt lat="42.14373" lon="2.35246">
        <ele>1243</ele>
        <time>2019-04-12T04:19:35Z</time>
      </trkpt>
      <trkpt lat="42.14376" lon="2.35253">
        <ele>1241.6</ele>
        <time>2019-04-12T04:19:37Z</time>
      </trkpt>
      <trkpt lat="42.14378" lon="2.3526">
        <ele>1240.6</ele>
        <time>2019-04-12T04:19:39Z</time>
      </trkpt>
      <trkpt lat="42.1438" lon="2.35266">
        <ele>1240.7</ele>
        <time>2019-04-12T04:19:42Z</time>
      </trkpt>
      <trkpt lat="42.14382" lon="2.35272">
        <ele>1241.8</ele>
        <time>2019-04-12T04:19:43Z</time>
      </trkpt>
      <trkpt lat="42.14383" lon="2.35279">
        <ele>1243.6</ele>
        <time>2019-04-12T04:19:46Z</time>
      </trkpt>
      <trkpt lat="42.14385" lon="2.35285">
        <ele>1246</ele>
        <time>2019-04-12T04:19:47Z</time>
      </trkpt>
      <trkpt lat="42.14387" lon="2.35291">
        <ele>1248.3</ele>
        <time>2019-04-12T04:19:49Z</time>
      </trkpt>
      <trkpt lat="42.14389" lon="2.35298">
        <ele>1250.5</ele>
        <time>2019-04-12T04:19:52Z</time>
      </trkpt>
      <trkpt lat="42.14389" lon="2.35306">
        <ele>1251.2</ele>
        <time>2019-04-12T04:19:54Z</time>
      </trkpt>
      <trkpt lat="42.14387" lon="2.35313">
        <ele>1252.5</ele>
        <time>2019-04-12T04:19:56Z</time>
      </trkpt>
      <trkpt lat="42.14383" lon="2.35317">
        <ele>1254</ele>
        <time>2019-04-12T04:19:58Z</time>
      </trkpt>
      <trkpt lat="42.14378" lon="2.35323">
        <ele>1254.7</ele>
        <time>2019-04-12T04:20:01Z</time>
      </trkpt>
      <trkpt lat="42.14374" lon="2.35326">
        <ele>1253.6</ele>
        <time>2019-04-12T04:20:03Z</time>
      </trkpt>
      <trkpt lat="42.14376" lon="2.35331">
        <ele>1251.8</ele>
        <time>2019-04-12T04:20:05Z</time>
      </trkpt>
      <trkpt lat="42.14376" lon="2.35338">
        <ele>1250.1</ele>
        <time>2019-04-12T04:20:07Z</time>
      </trkpt>
      <trkpt lat="42.14375" lon="2.35345">
        <ele>1247.3</ele>
        <time>2019-04-12T04:20:09Z</time>
      </trkpt>
      <trkpt lat="42.14374" lon="2.35352">
        <ele>1246</ele>
        <time>2019-04-12T04:20:11Z</time>
      </trkpt>
      <trkpt lat="42.14373" lon="2.3536">
        <ele>1244.5</ele>
        <time>2019-04-12T04:20:13Z</time>
      </trkpt>
      <trkpt lat="42.14372" lon="2.35367">
        <ele>1243.5</ele>
        <time>2019-04-12T04:20:15Z</time>
      </trkpt>
      <trkpt lat="42.14371" lon="2.35374">
        <ele>1243.2</ele>
        <time>2019-04-12T04:20:18Z</time>
      </trkpt>
      <trkpt lat="42.14369" lon="2.35381">
        <ele>1241.7</ele>
        <time>2019-04-12T04:20:20Z</time>
      </trkpt>
      <trkpt lat="42.14369" lon="2.35391">
        <ele>1240.8</ele>
        <time>2019-04-12T04:20:23Z</time>
      </trkpt>
      <trkpt lat="42.14369" lon="2.35397">
        <ele>1240.6</ele>
        <time>2019-04-12T04:20:25Z</time>
      </trkpt>
      <trkpt lat="42.14368" lon="2.35404">
        <ele>1242.2</ele>
        <time>2019-04-12T04:20:27Z</time>
      </trkpt>
      <trkpt lat="42.14368" lon="2.35411">
        <ele>1243.6</ele>
        <time>2019-04-12T04:20:29Z</time>
      </trkpt>
      <trkpt lat="42.14368" lon="2.35429">
        <ele>1245.3</ele>
        <time>2019-04-12T04:20:34Z</time>
      </trkpt>
      <trkpt lat="42.14368" lon="2.35437">
        <ele>1244.1</ele>
        <time>2019-04-12T04:20:36Z</time>
      </trkpt>
      <trkpt lat="42.14367" lon="2.35444">
        <ele>1242.1</ele>
        <time>2019-04-12T04:20:39Z</time>
      </trkpt>
      <trkpt lat="42.14372" lon="2.35451">
        <ele>1238.9</ele>
        <time>2019-04-12T04:20:41Z</time>
      </trkpt>
      <trkpt lat="42.14371" lon="2.35457">
        <ele>1235.9</ele>
        <time>2019-04-12T04:20:44Z</time>
      </trkpt>
      <trkpt lat="42.14372" lon="2.35464">
        <ele>1234.5</ele>
        <time>2019-04-12T04:20:46Z</time>
      </trkpt>
      <trkpt lat="42.14374" lon="2.35471">
        <ele>1232.7</ele>
        <time>2019-04-12T04:20:48Z</time>
      </trkpt>
      <trkpt lat="42.14374" lon="2.35477">
        <ele>1231.7</ele>
        <time>2019-04-12T04:20:49Z</time>
      </trkpt>
      <trkpt lat="42.14374" lon="2.35484">
        <ele>1228.5</ele>
        <time>2019-04-12T04:20:51Z</time>
      </trkpt>
      <trkpt lat="42.14373" lon="2.3549">
        <ele>1226</ele>
        <time>2019-04-12T04:20:53Z</time>
      </trkpt>
      <trkpt lat="42.14371" lon="2.35497">
        <ele>1224</ele>
        <time>2019-04-12T04:20:56Z</time>
      </trkpt>
      <trkpt lat="42.14367" lon="2.35505">
        <ele>1223.9</ele>
        <time>2019-04-12T04:20:58Z</time>
      </trkpt>
      <trkpt lat="42.14364" lon="2.35511">
        <ele>1222.3</ele>
        <time>2019-04-12T04:21:00Z</time>
      </trkpt>
      <trkpt lat="42.14362" lon="2.35516">
        <ele>1220.2</ele>
        <time>2019-04-12T04:21:02Z</time>
      </trkpt>
      <trkpt lat="42.1436" lon="2.35523">
        <ele>1217</ele>
        <time>2019-04-12T04:21:05Z</time>
      </trkpt>
      <trkpt lat="42.1436" lon="2.3553">
        <ele>1215.5</ele>
        <time>2019-04-12T04:21:07Z</time>
      </trkpt>
      <trkpt lat="42.14359" lon="2.35538">
        <ele>1214.4</ele>
        <time>2019-04-12T04:21:09Z</time>
      </trkpt>
      <trkpt lat="42.14357" lon="2.35544">
        <ele>1214.4</ele>
        <time>2019-04-12T04:21:11Z</time>
      </trkpt>
      <trkpt lat="42.14356" lon="2.35551">
        <ele>1214</ele>
        <time>2019-04-12T04:21:13Z</time>
      </trkpt>
      <trkpt lat="42.14356" lon="2.35557">
        <ele>1213.2</ele>
        <time>2019-04-12T04:21:15Z</time>
      </trkpt>
      <trkpt lat="42.14355" lon="2.35564">
        <ele>1212.5</ele>
        <time>2019-04-12T04:21:17Z</time>
      </trkpt>
      <trkpt lat="42.14354" lon="2.35571">
        <ele>1212.8</ele>
        <time>2019-04-12T04:21:19Z</time>
      </trkpt>
      <trkpt lat="42.14354" lon="2.35577">
        <ele>1214</ele>
        <time>2019-04-12T04:21:21Z</time>
      </trkpt>
      <trkpt lat="42.14355" lon="2.35583">
        <ele>1215.4</ele>
        <time>2019-04-12T04:21:23Z</time>
      </trkpt>
      <trkpt lat="42.14358" lon="2.35589">
        <ele>1215.5</ele>
        <time>2019-04-12T04:21:25Z</time>
      </trkpt>
      <trkpt lat="42.14363" lon="2.35593">
        <ele>1215.8</ele>
        <time>2019-04-12T04:21:27Z</time>
      </trkpt>
      <trkpt lat="42.14365" lon="2.35599">
        <ele>1215.7</ele>
        <time>2019-04-12T04:21:29Z</time>
      </trkpt>
      <trkpt lat="42.14364" lon="2.35605">
        <ele>1214.6</ele>
        <time>2019-04-12T04:21:31Z</time>
      </trkpt>
      <trkpt lat="42.14363" lon="2.35612">
        <ele>1214.9</ele>
        <time>2019-04-12T04:21:33Z</time>
      </trkpt>
      <trkpt lat="42.14363" lon="2.35619">
        <ele>1215.4</ele>
        <time>2019-04-12T04:21:35Z</time>
      </trkpt>
      <trkpt lat="42.14362" lon="2.35626">
        <ele>1214.2</ele>
        <time>2019-04-12T04:21:37Z</time>
      </trkpt>
      <trkpt lat="42.14361" lon="2.35634">
        <ele>1213.5</ele>
        <time>2019-04-12T04:21:40Z</time>
      </trkpt>
      <trkpt lat="42.1436" lon="2.35641">
        <ele>1213.7</ele>
        <time>2019-04-12T04:21:42Z</time>
      </trkpt>
      <trkpt lat="42.14359" lon="2.35648">
        <ele>1214</ele>
        <time>2019-04-12T04:21:44Z</time>
      </trkpt>
      <trkpt lat="42.14357" lon="2.35653">
        <ele>1214.5</ele>
        <time>2019-04-12T04:21:46Z</time>
      </trkpt>
      <trkpt lat="42.1436" lon="2.35658">
        <ele>1213.3</ele>
        <time>2019-04-12T04:21:48Z</time>
      </trkpt>
      <trkpt lat="42.14363" lon="2.35664">
        <ele>1211.9</ele>
        <time>2019-04-12T04:21:50Z</time>
      </trkpt>
      <trkpt lat="42.14367" lon="2.35668">
        <ele>1213</ele>
        <time>2019-04-12T04:21:52Z</time>
      </trkpt>
      <trkpt lat="42.1437" lon="2.35674">
        <ele>1213.6</ele>
        <time>2019-04-12T04:21:54Z</time>
      </trkpt>
      <trkpt lat="42.14371" lon="2.35681">
        <ele>1214.3</ele>
        <time>2019-04-12T04:21:56Z</time>
      </trkpt>
      <trkpt lat="42.14373" lon="2.35687">
        <ele>1214.3</ele>
        <time>2019-04-12T04:21:58Z</time>
      </trkpt>
      <trkpt lat="42.14375" lon="2.35694">
        <ele>1212.8</ele>
        <time>2019-04-12T04:22:00Z</time>
      </trkpt>
      <trkpt lat="42.14378" lon="2.35701">
        <ele>1211.1</ele>
        <time>2019-04-12T04:22:02Z</time>
      </trkpt>
      <trkpt lat="42.1438" lon="2.35708">
        <ele>1209.5</ele>
        <time>2019-04-12T04:22:05Z</time>
      </trkpt>
      <trkpt lat="42.14381" lon="2.35716">
        <ele>1208.2</ele>
        <time>2019-04-12T04:22:07Z</time>
      </trkpt>
      <trkpt lat="42.14381" lon="2.35722">
        <ele>1208.1</ele>
        <time>2019-04-12T04:22:09Z</time>
      </trkpt>
      <trkpt lat="42.14382" lon="2.3573">
        <ele>1208</ele>
        <time>2019-04-12T04:22:11Z</time>
      </trkpt>
      <trkpt lat="42.14383" lon="2.35738">
        <ele>1207.7</ele>
        <time>2019-04-12T04:22:14Z</time>
      </trkpt>
      <trkpt lat="42.14384" lon="2.35745">
        <ele>1206.6</ele>
        <time>2019-04-12T04:22:16Z</time>
      </trkpt>
      <trkpt lat="42.14385" lon="2.35752">
        <ele>1206.7</ele>
        <time>2019-04-12T04:22:18Z</time>
      </trkpt>
      <trkpt lat="42.14386" lon="2.35758">
        <ele>1206.9</ele>
        <time>2019-04-12T04:22:20Z</time>
      </trkpt>
      <trkpt lat="42.14385" lon="2.35766">
        <ele>1207.1</ele>
        <time>2019-04-12T04:22:22Z</time>
      </trkpt>
      <trkpt lat="42.14384" lon="2.35772">
        <ele>1206.4</ele>
        <time>2019-04-12T04:22:24Z</time>
      </trkpt>
      <trkpt lat="42.14383" lon="2.3578">
        <ele>1205.7</ele>
        <time>2019-04-12T04:22:26Z</time>
      </trkpt>
      <trkpt lat="42.14381" lon="2.35787">
        <ele>1205.1</ele>
        <time>2019-04-12T04:22:29Z</time>
      </trkpt>
      <trkpt lat="42.14379" lon="2.35793">
        <ele>1205</ele>
        <time>2019-04-12T04:22:31Z</time>
      </trkpt>
      <trkpt lat="42.14376" lon="2.358">
        <ele>1204.6</ele>
        <time>2019-04-12T04:22:33Z</time>
      </trkpt>
      <trkpt lat="42.14372" lon="2.35804">
        <ele>1204.1</ele>
        <time>2019-04-12T04:22:35Z</time>
      </trkpt>
      <trkpt lat="42.14369" lon="2.35809">
        <ele>1203.4</ele>
        <time>2019-04-12T04:22:37Z</time>
      </trkpt>
      <trkpt lat="42.14366" lon="2.35816">
        <ele>1204</ele>
        <time>2019-04-12T04:22:39Z</time>
      </trkpt>
      <trkpt lat="42.14363" lon="2.35822">
        <ele>1205.3</ele>
        <time>2019-04-12T04:22:42Z</time>
      </trkpt>
      <trkpt lat="42.14362" lon="2.35829">
        <ele>1207.4</ele>
        <time>2019-04-12T04:22:44Z</time>
      </trkpt>
      <trkpt lat="42.14361" lon="2.35837">
        <ele>1209.4</ele>
        <time>2019-04-12T04:22:46Z</time>
      </trkpt>
      <trkpt lat="42.14359" lon="2.35843">
        <ele>1212.9</ele>
        <time>2019-04-12T04:22:48Z</time>
      </trkpt>
      <trkpt lat="42.14356" lon="2.35849">
        <ele>1216.8</ele>
        <time>2019-04-12T04:22:50Z</time>
      </trkpt>
      <trkpt lat="42.14354" lon="2.35855">
        <ele>1219.8</ele>
        <time>2019-04-12T04:22:52Z</time>
      </trkpt>
      <trkpt lat="42.14353" lon="2.35861">
        <ele>1220.8</ele>
        <time>2019-04-12T04:22:54Z</time>
      </trkpt>
      <trkpt lat="42.14353" lon="2.35868">
        <ele>1220.5</ele>
        <time>2019-04-12T04:22:56Z</time>
      </trkpt>
      <trkpt lat="42.14352" lon="2.35875">
        <ele>1219.2</ele>
        <time>2019-04-12T04:22:58Z</time>
      </trkpt>
      <trkpt lat="42.14352" lon="2.35881">
        <ele>1218.5</ele>
        <time>2019-04-12T04:23:00Z</time>
      </trkpt>
      <trkpt lat="42.14351" lon="2.35888">
        <ele>1217.9</ele>
        <time>2019-04-12T04:23:02Z</time>
      </trkpt>
      <trkpt lat="42.1435" lon="2.35896">
        <ele>1217.7</ele>
        <time>2019-04-12T04:23:04Z</time>
      </trkpt>
      <trkpt lat="42.14349" lon="2.35903">
        <ele>1216.5</ele>
        <time>2019-04-12T04:23:07Z</time>
      </trkpt>
      <trkpt lat="42.14348" lon="2.35911">
        <ele>1215.9</ele>
        <time>2019-04-12T04:23:09Z</time>
      </trkpt>
      <trkpt lat="42.14348" lon="2.35917">
        <ele>1213.6</ele>
        <time>2019-04-12T04:23:11Z</time>
      </trkpt>
      <trkpt lat="42.14346" lon="2.35923">
        <ele>1211.1</ele>
        <time>2019-04-12T04:23:13Z</time>
      </trkpt>
      <trkpt lat="42.14344" lon="2.35929">
        <ele>1208.2</ele>
        <time>2019-04-12T04:23:15Z</time>
      </trkpt>
      <trkpt lat="42.14341" lon="2.35935">
        <ele>1206.6</ele>
        <time>2019-04-12T04:23:17Z</time>
      </trkpt>
      <trkpt lat="42.14339" lon="2.35942">
        <ele>1205.5</ele>
        <time>2019-04-12T04:23:19Z</time>
      </trkpt>
      <trkpt lat="42.14337" lon="2.35948">
        <ele>1204.3</ele>
        <time>2019-04-12T04:23:21Z</time>
      </trkpt>
      <trkpt lat="42.14334" lon="2.35954">
        <ele>1203.6</ele>
        <time>2019-04-12T04:23:23Z</time>
      </trkpt>
      <trkpt lat="42.14331" lon="2.35959">
        <ele>1203.8</ele>
        <time>2019-04-12T04:23:25Z</time>
      </trkpt>
      <trkpt lat="42.14329" lon="2.35966">
        <ele>1203.5</ele>
        <time>2019-04-12T04:23:27Z</time>
      </trkpt>
      <trkpt lat="42.14326" lon="2.35971">
        <ele>1203.4</ele>
        <time>2019-04-12T04:23:29Z</time>
      </trkpt>
      <trkpt lat="42.14324" lon="2.35976">
        <ele>1203.4</ele>
        <time>2019-04-12T04:23:31Z</time>
      </trkpt>
      <trkpt lat="42.1432" lon="2.35983">
        <ele>1202.8</ele>
        <time>2019-04-12T04:23:33Z</time>
      </trkpt>
      <trkpt lat="42.14316" lon="2.35988">
        <ele>1202.3</ele>
        <time>2019-04-12T04:23:36Z</time>
      </trkpt>
      <trkpt lat="42.14312" lon="2.35992">
        <ele>1201.5</ele>
        <time>2019-04-12T04:23:38Z</time>
      </trkpt>
      <trkpt lat="42.14308" lon="2.35995">
        <ele>1200.8</ele>
        <time>2019-04-12T04:23:40Z</time>
      </trkpt>
      <trkpt lat="42.14304" lon="2.36">
        <ele>1200.2</ele>
        <time>2019-04-12T04:23:42Z</time>
      </trkpt>
      <trkpt lat="42.14303" lon="2.36007">
        <ele>1200.1</ele>
        <time>2019-04-12T04:23:44Z</time>
      </trkpt>
      <trkpt lat="42.143" lon="2.36012">
        <ele>1201.3</ele>
        <time>2019-04-12T04:23:46Z</time>
      </trkpt>
      <trkpt lat="42.14296" lon="2.36016">
        <ele>1202.6</ele>
        <time>2019-04-12T04:23:48Z</time>
      </trkpt>
      <trkpt lat="42.14292" lon="2.36022">
        <ele>1203.4</ele>
        <time>2019-04-12T04:23:50Z</time>
      </trkpt>
      <trkpt lat="42.14291" lon="2.36029">
        <ele>1203.4</ele>
        <time>2019-04-12T04:23:52Z</time>
      </trkpt>
      <trkpt lat="42.1429" lon="2.36036">
        <ele>1202.1</ele>
        <time>2019-04-12T04:23:54Z</time>
      </trkpt>
      <trkpt lat="42.14288" lon="2.36043">
        <ele>1200.4</ele>
        <time>2019-04-12T04:23:56Z</time>
      </trkpt>
      <trkpt lat="42.14287" lon="2.3605">
        <ele>1199.9</ele>
        <time>2019-04-12T04:23:59Z</time>
      </trkpt>
      <trkpt lat="42.14286" lon="2.36057">
        <ele>1198.7</ele>
        <time>2019-04-12T04:24:01Z</time>
      </trkpt>
      <trkpt lat="42.14285" lon="2.36064">
        <ele>1196.9</ele>
        <time>2019-04-12T04:24:03Z</time>
      </trkpt>
      <trkpt lat="42.14285" lon="2.36071">
        <ele>1194.7</ele>
        <time>2019-04-12T04:24:05Z</time>
      </trkpt>
      <trkpt lat="42.14284" lon="2.36079">
        <ele>1192.8</ele>
        <time>2019-04-12T04:24:07Z</time>
      </trkpt>
      <trkpt lat="42.14281" lon="2.36087">
        <ele>1192.3</ele>
        <time>2019-04-12T04:24:10Z</time>
      </trkpt>
      <trkpt lat="42.14278" lon="2.36094">
        <ele>1192.7</ele>
        <time>2019-04-12T04:24:12Z</time>
      </trkpt>
      <trkpt lat="42.14275" lon="2.36098">
        <ele>1192.9</ele>
        <time>2019-04-12T04:24:14Z</time>
      </trkpt>
      <trkpt lat="42.14273" lon="2.36104">
        <ele>1192.6</ele>
        <time>2019-04-12T04:24:16Z</time>
      </trkpt>
      <trkpt lat="42.14271" lon="2.3611">
        <ele>1192.2</ele>
        <time>2019-04-12T04:24:18Z</time>
      </trkpt>
      <trkpt lat="42.14271" lon="2.36117">
        <ele>1193.3</ele>
        <time>2019-04-12T04:24:20Z</time>
      </trkpt>
      <trkpt lat="42.1427" lon="2.36124">
        <ele>1193.2</ele>
        <time>2019-04-12T04:24:22Z</time>
      </trkpt>
      <trkpt lat="42.1427" lon="2.36131">
        <ele>1193.6</ele>
        <time>2019-04-12T04:24:24Z</time>
      </trkpt>
      <trkpt lat="42.14268" lon="2.36137">
        <ele>1194.4</ele>
        <time>2019-04-12T04:24:26Z</time>
      </trkpt>
      <trkpt lat="42.14268" lon="2.36144">
        <ele>1195.1</ele>
        <time>2019-04-12T04:24:28Z</time>
      </trkpt>
      <trkpt lat="42.14267" lon="2.36151">
        <ele>1194.4</ele>
        <time>2019-04-12T04:24:30Z</time>
      </trkpt>
      <trkpt lat="42.14266" lon="2.36158">
        <ele>1192.4</ele>
        <time>2019-04-12T04:24:32Z</time>
      </trkpt>
      <trkpt lat="42.14268" lon="2.36165">
        <ele>1191</ele>
        <time>2019-04-12T04:24:34Z</time>
      </trkpt>
      <trkpt lat="42.14267" lon="2.36172">
        <ele>1190.3</ele>
        <time>2019-04-12T04:24:37Z</time>
      </trkpt>
      <trkpt lat="42.14268" lon="2.3618">
        <ele>1190.3</ele>
        <time>2019-04-12T04:24:39Z</time>
      </trkpt>
      <trkpt lat="42.14267" lon="2.36186">
        <ele>1189.8</ele>
        <time>2019-04-12T04:24:41Z</time>
      </trkpt>
      <trkpt lat="42.14269" lon="2.36194">
        <ele>1190.3</ele>
        <time>2019-04-12T04:24:43Z</time>
      </trkpt>
      <trkpt lat="42.14272" lon="2.36202">
        <ele>1190.9</ele>
        <time>2019-04-12T04:24:46Z</time>
      </trkpt>
      <trkpt lat="42.14276" lon="2.36201">
        <ele>1189.4</ele>
        <time>2019-04-12T04:24:48Z</time>
      </trkpt>
      <trkpt lat="42.14283" lon="2.362">
        <ele>1189</ele>
        <time>2019-04-12T04:24:50Z</time>
      </trkpt>
      <trkpt lat="42.14288" lon="2.36201">
        <ele>1186.8</ele>
        <time>2019-04-12T04:24:52Z</time>
      </trkpt>
      <trkpt lat="42.14288" lon="2.36208">
        <ele>1185.2</ele>
        <time>2019-04-12T04:24:54Z</time>
      </trkpt>
      <trkpt lat="42.14288" lon="2.36216">
        <ele>1183.2</ele>
        <time>2019-04-12T04:24:57Z</time>
      </trkpt>
      <trkpt lat="42.14292" lon="2.36219">
        <ele>1181.9</ele>
        <time>2019-04-12T04:24:59Z</time>
      </trkpt>
      <trkpt lat="42.14296" lon="2.36223">
        <ele>1184.4</ele>
        <time>2019-04-12T04:25:01Z</time>
      </trkpt>
      <trkpt lat="42.14301" lon="2.36225">
        <ele>1188.3</ele>
        <time>2019-04-12T04:25:03Z</time>
      </trkpt>
      <trkpt lat="42.14307" lon="2.36229">
        <ele>1192.3</ele>
        <time>2019-04-12T04:25:05Z</time>
      </trkpt>
      <trkpt lat="42.14312" lon="2.36232">
        <ele>1191.1</ele>
        <time>2019-04-12T04:25:07Z</time>
      </trkpt>
      <trkpt lat="42.14316" lon="2.36228">
        <ele>1189.7</ele>
        <time>2019-04-12T04:25:10Z</time>
      </trkpt>
      <trkpt lat="42.1432" lon="2.36231">
        <ele>1187.4</ele>
        <time>2019-04-12T04:25:11Z</time>
      </trkpt>
      <trkpt lat="42.1432" lon="2.36237">
        <ele>1184.3</ele>
        <time>2019-04-12T04:25:13Z</time>
      </trkpt>
      <trkpt lat="42.14318" lon="2.36244">
        <ele>1181.8</ele>
        <time>2019-04-12T04:25:15Z</time>
      </trkpt>
      <trkpt lat="42.14317" lon="2.36251">
        <ele>1180.3</ele>
        <time>2019-04-12T04:25:18Z</time>
      </trkpt>
      <trkpt lat="42.14315" lon="2.36258">
        <ele>1178.4</ele>
        <time>2019-04-12T04:25:20Z</time>
      </trkpt>
      <trkpt lat="42.14311" lon="2.36262">
        <ele>1177.9</ele>
        <time>2019-04-12T04:25:22Z</time>
      </trkpt>
      <trkpt lat="42.14306" lon="2.36264">
        <ele>1176.9</ele>
        <time>2019-04-12T04:25:24Z</time>
      </trkpt>
      <trkpt lat="42.14301" lon="2.36266">
        <ele>1175.5</ele>
        <time>2019-04-12T04:25:26Z</time>
      </trkpt>
      <trkpt lat="42.14297" lon="2.3627">
        <ele>1173</ele>
        <time>2019-04-12T04:25:28Z</time>
      </trkpt>
      <trkpt lat="42.14293" lon="2.36276">
        <ele>1170.1</ele>
        <time>2019-04-12T04:25:30Z</time>
      </trkpt>
      <trkpt lat="42.14288" lon="2.36281">
        <ele>1168.1</ele>
        <time>2019-04-12T04:25:33Z</time>
      </trkpt>
      <trkpt lat="42.14285" lon="2.36284">
        <ele>1166.8</ele>
        <time>2019-04-12T04:25:35Z</time>
      </trkpt>
      <trkpt lat="42.1428" lon="2.36288">
        <ele>1164.7</ele>
        <time>2019-04-12T04:25:36Z</time>
      </trkpt>
      <trkpt lat="42.14276" lon="2.36291">
        <ele>1165.1</ele>
        <time>2019-04-12T04:25:39Z</time>
      </trkpt>
      <trkpt lat="42.14271" lon="2.36291">
        <ele>1166.3</ele>
        <time>2019-04-12T04:25:41Z</time>
      </trkpt>
      <trkpt lat="42.14267" lon="2.36295">
        <ele>1166.6</ele>
        <time>2019-04-12T04:25:43Z</time>
      </trkpt>
      <trkpt lat="42.14263" lon="2.36299">
        <ele>1164.9</ele>
        <time>2019-04-12T04:25:45Z</time>
      </trkpt>
      <trkpt lat="42.14259" lon="2.36303">
        <ele>1163</ele>
        <time>2019-04-12T04:25:47Z</time>
      </trkpt>
      <trkpt lat="42.14255" lon="2.36307">
        <ele>1161.5</ele>
        <time>2019-04-12T04:25:49Z</time>
      </trkpt>
      <trkpt lat="42.1425" lon="2.36311">
        <ele>1161.9</ele>
        <time>2019-04-12T04:25:51Z</time>
      </trkpt>
      <trkpt lat="42.14245" lon="2.36314">
        <ele>1163.3</ele>
        <time>2019-04-12T04:25:53Z</time>
      </trkpt>
      <trkpt lat="42.14242" lon="2.3632">
        <ele>1164</ele>
        <time>2019-04-12T04:25:55Z</time>
      </trkpt>
      <trkpt lat="42.14241" lon="2.36328">
        <ele>1164.6</ele>
        <time>2019-04-12T04:25:58Z</time>
      </trkpt>
      <trkpt lat="42.1424" lon="2.36334">
        <ele>1165.7</ele>
        <time>2019-04-12T04:26:00Z</time>
      </trkpt>
      <trkpt lat="42.14238" lon="2.36341">
        <ele>1166.7</ele>
        <time>2019-04-12T04:26:02Z</time>
      </trkpt>
      <trkpt lat="42.14235" lon="2.36348">
        <ele>1168.3</ele>
        <time>2019-04-12T04:26:04Z</time>
      </trkpt>
      <trkpt lat="42.14231" lon="2.36354">
        <ele>1169.7</ele>
        <time>2019-04-12T04:26:06Z</time>
      </trkpt>
      <trkpt lat="42.14229" lon="2.3636">
        <ele>1170.2</ele>
        <time>2019-04-12T04:26:08Z</time>
      </trkpt>
      <trkpt lat="42.14229" lon="2.36367">
        <ele>1169.5</ele>
        <time>2019-04-12T04:26:11Z</time>
      </trkpt>
      <trkpt lat="42.14227" lon="2.36374">
        <ele>1169.5</ele>
        <time>2019-04-12T04:26:12Z</time>
      </trkpt>
      <trkpt lat="42.14229" lon="2.3638">
        <ele>1169.8</ele>
        <time>2019-04-12T04:26:14Z</time>
      </trkpt>
      <trkpt lat="42.14231" lon="2.36385">
        <ele>1171.5</ele>
        <time>2019-04-12T04:26:16Z</time>
      </trkpt>
      <trkpt lat="42.14233" lon="2.36392">
        <ele>1171.6</ele>
        <time>2019-04-12T04:26:18Z</time>
      </trkpt>
      <trkpt lat="42.14235" lon="2.36397">
        <ele>1170.3</ele>
        <time>2019-04-12T04:26:20Z</time>
      </trkpt>
      <trkpt lat="42.14237" lon="2.36404">
        <ele>1168.3</ele>
        <time>2019-04-12T04:26:22Z</time>
      </trkpt>
      <trkpt lat="42.14239" lon="2.36412">
        <ele>1165.7</ele>
        <time>2019-04-12T04:26:25Z</time>
      </trkpt>
      <trkpt lat="42.14238" lon="2.36419">
        <ele>1164.1</ele>
        <time>2019-04-12T04:26:27Z</time>
      </trkpt>
      <trkpt lat="42.14237" lon="2.36427">
        <ele>1162.6</ele>
        <time>2019-04-12T04:26:29Z</time>
      </trkpt>
      <trkpt lat="42.14236" lon="2.36434">
        <ele>1159.5</ele>
        <time>2019-04-12T04:26:31Z</time>
      </trkpt>
      <trkpt lat="42.14236" lon="2.3644">
        <ele>1157.6</ele>
        <time>2019-04-12T04:26:33Z</time>
      </trkpt>
      <trkpt lat="42.14234" lon="2.36447">
        <ele>1155.7</ele>
        <time>2019-04-12T04:26:36Z</time>
      </trkpt>
      <trkpt lat="42.14234" lon="2.36454">
        <ele>1154.6</ele>
        <time>2019-04-12T04:26:38Z</time>
      </trkpt>
      <trkpt lat="42.14234" lon="2.36462">
        <ele>1152.1</ele>
        <time>2019-04-12T04:26:40Z</time>
      </trkpt>
      <trkpt lat="42.14233" lon="2.36468">
        <ele>1150.5</ele>
        <time>2019-04-12T04:26:42Z</time>
      </trkpt>
      <trkpt lat="42.14232" lon="2.36474">
        <ele>1148.7</ele>
        <time>2019-04-12T04:26:44Z</time>
      </trkpt>
      <trkpt lat="42.14229" lon="2.3648">
        <ele>1149</ele>
        <time>2019-04-12T04:26:46Z</time>
      </trkpt>
      <trkpt lat="42.14226" lon="2.36485">
        <ele>1150.9</ele>
        <time>2019-04-12T04:26:48Z</time>
      </trkpt>
      <trkpt lat="42.14224" lon="2.3649">
        <ele>1152.8</ele>
        <time>2019-04-12T04:26:49Z</time>
      </trkpt>
      <trkpt lat="42.1423" lon="2.36502">
        <ele>1152.5</ele>
        <time>2019-04-12T04:26:54Z</time>
      </trkpt>
      <trkpt lat="42.14242" lon="2.36502">
        <ele>1150.7</ele>
        <time>2019-04-12T04:26:58Z</time>
      </trkpt>
      <trkpt lat="42.14237" lon="2.36505">
        <ele>1148.4</ele>
        <time>2019-04-12T04:27:01Z</time>
      </trkpt>
      <trkpt lat="42.14232" lon="2.3651">
        <ele>1146</ele>
        <time>2019-04-12T04:27:03Z</time>
      </trkpt>
      <trkpt lat="42.14228" lon="2.36514">
        <ele>1144.6</ele>
        <time>2019-04-12T04:27:05Z</time>
      </trkpt>
      <trkpt lat="42.14224" lon="2.36517">
        <ele>1142.2</ele>
        <time>2019-04-12T04:27:07Z</time>
      </trkpt>
      <trkpt lat="42.1422" lon="2.3652">
        <ele>1141.1</ele>
        <time>2019-04-12T04:27:09Z</time>
      </trkpt>
      <trkpt lat="42.14219" lon="2.36527">
        <ele>1139.3</ele>
        <time>2019-04-12T04:27:11Z</time>
      </trkpt>
      <trkpt lat="42.1422" lon="2.36536">
        <ele>1138.1</ele>
        <time>2019-04-12T04:27:14Z</time>
      </trkpt>
      <trkpt lat="42.14219" lon="2.36542">
        <ele>1137.5</ele>
        <time>2019-04-12T04:27:16Z</time>
      </trkpt>
      <trkpt lat="42.14218" lon="2.3655">
        <ele>1135.9</ele>
        <time>2019-04-12T04:27:18Z</time>
      </trkpt>
      <trkpt lat="42.14221" lon="2.36557">
        <ele>1135.3</ele>
        <time>2019-04-12T04:27:20Z</time>
      </trkpt>
      <trkpt lat="42.14224" lon="2.36561">
        <ele>1134.8</ele>
        <time>2019-04-12T04:27:22Z</time>
      </trkpt>
      <trkpt lat="42.14227" lon="2.36568">
        <ele>1132.6</ele>
        <time>2019-04-12T04:27:25Z</time>
      </trkpt>
      <trkpt lat="42.14231" lon="2.36572">
        <ele>1130.2</ele>
        <time>2019-04-12T04:27:27Z</time>
      </trkpt>
      <trkpt lat="42.14233" lon="2.3658">
        <ele>1128.1</ele>
        <time>2019-04-12T04:27:29Z</time>
      </trkpt>
      <trkpt lat="42.14233" lon="2.36586">
        <ele>1127.6</ele>
        <time>2019-04-12T04:27:31Z</time>
      </trkpt>
      <trkpt lat="42.14234" lon="2.36593">
        <ele>1127.1</ele>
        <time>2019-04-12T04:27:33Z</time>
      </trkpt>
      <trkpt lat="42.14234" lon="2.36599">
        <ele>1126.6</ele>
        <time>2019-04-12T04:27:35Z</time>
      </trkpt>
      <trkpt lat="42.14234" lon="2.36605">
        <ele>1126.9</ele>
        <time>2019-04-12T04:27:37Z</time>
      </trkpt>
      <trkpt lat="42.14236" lon="2.36611">
        <ele>1126</ele>
        <time>2019-04-12T04:27:39Z</time>
      </trkpt>
      <trkpt lat="42.14238" lon="2.36618">
        <ele>1124.7</ele>
        <time>2019-04-12T04:27:41Z</time>
      </trkpt>
      <trkpt lat="42.14239" lon="2.36625">
        <ele>1123.2</ele>
        <time>2019-04-12T04:27:43Z</time>
      </trkpt>
      <trkpt lat="42.14241" lon="2.36631">
        <ele>1124.7</ele>
        <time>2019-04-12T04:27:45Z</time>
      </trkpt>
      <trkpt lat="42.14245" lon="2.36636">
        <ele>1128.7</ele>
        <time>2019-04-12T04:27:47Z</time>
      </trkpt>
      <trkpt lat="42.1425" lon="2.3664">
        <ele>1129.3</ele>
        <time>2019-04-12T04:27:49Z</time>
      </trkpt>
      <trkpt lat="42.14253" lon="2.36644">
        <ele>1130.1</ele>
        <time>2019-04-12T04:27:51Z</time>
      </trkpt>
      <trkpt lat="42.14257" lon="2.36648">
        <ele>1129.9</ele>
        <time>2019-04-12T04:27:53Z</time>
      </trkpt>
      <trkpt lat="42.14261" lon="2.36651">
        <ele>1130.6</ele>
        <time>2019-04-12T04:27:55Z</time>
      </trkpt>
      <trkpt lat="42.14265" lon="2.36655">
        <ele>1130.8</ele>
        <time>2019-04-12T04:27:57Z</time>
      </trkpt>
      <trkpt lat="42.1427" lon="2.36658">
        <ele>1130.7</ele>
        <time>2019-04-12T04:27:59Z</time>
      </trkpt>
      <trkpt lat="42.14273" lon="2.36661">
        <ele>1130.4</ele>
        <time>2019-04-12T04:28:01Z</time>
      </trkpt>
      <trkpt lat="42.14276" lon="2.36667">
        <ele>1129.9</ele>
        <time>2019-04-12T04:28:03Z</time>
      </trkpt>
      <trkpt lat="42.14277" lon="2.36673">
        <ele>1129.7</ele>
        <time>2019-04-12T04:28:05Z</time>
      </trkpt>
      <trkpt lat="42.14282" lon="2.36675">
        <ele>1129.5</ele>
        <time>2019-04-12T04:28:07Z</time>
      </trkpt>
      <trkpt lat="42.14288" lon="2.36675">
        <ele>1130</ele>
        <time>2019-04-12T04:28:09Z</time>
      </trkpt>
      <trkpt lat="42.14291" lon="2.3668">
        <ele>1129.2</ele>
        <time>2019-04-12T04:28:11Z</time>
      </trkpt>
      <trkpt lat="42.14294" lon="2.36687">
        <ele>1128.8</ele>
        <time>2019-04-12T04:28:14Z</time>
      </trkpt>
      <trkpt lat="42.14298" lon="2.3669">
        <ele>1127.9</ele>
        <time>2019-04-12T04:28:15Z</time>
      </trkpt>
      <trkpt lat="42.14304" lon="2.36687">
        <ele>1129</ele>
        <time>2019-04-12T04:28:18Z</time>
      </trkpt>
      <trkpt lat="42.14309" lon="2.36689">
        <ele>1128.8</ele>
        <time>2019-04-12T04:28:20Z</time>
      </trkpt>
      <trkpt lat="42.1431" lon="2.36696">
        <ele>1129.3</ele>
        <time>2019-04-12T04:28:22Z</time>
      </trkpt>
      <trkpt lat="42.14313" lon="2.36701">
        <ele>1127.5</ele>
        <time>2019-04-12T04:28:24Z</time>
      </trkpt>
      <trkpt lat="42.14314" lon="2.36708">
        <ele>1126.6</ele>
        <time>2019-04-12T04:28:26Z</time>
      </trkpt>
      <trkpt lat="42.14316" lon="2.36714">
        <ele>1124.9</ele>
        <time>2019-04-12T04:28:28Z</time>
      </trkpt>
      <trkpt lat="42.14318" lon="2.36721">
        <ele>1121.9</ele>
        <time>2019-04-12T04:28:30Z</time>
      </trkpt>
      <trkpt lat="42.1432" lon="2.36728">
        <ele>1119.8</ele>
        <time>2019-04-12T04:28:33Z</time>
      </trkpt>
      <trkpt lat="42.14321" lon="2.36735">
        <ele>1117.6</ele>
        <time>2019-04-12T04:28:35Z</time>
      </trkpt>
      <trkpt lat="42.1432" lon="2.36743">
        <ele>1114.7</ele>
        <time>2019-04-12T04:28:37Z</time>
      </trkpt>
      <trkpt lat="42.1432" lon="2.36749">
        <ele>1113</ele>
        <time>2019-04-12T04:28:39Z</time>
      </trkpt>
      <trkpt lat="42.14321" lon="2.36755">
        <ele>1111.4</ele>
        <time>2019-04-12T04:28:41Z</time>
      </trkpt>
      <trkpt lat="42.14321" lon="2.36762">
        <ele>1111</ele>
        <time>2019-04-12T04:28:43Z</time>
      </trkpt>
      <trkpt lat="42.1432" lon="2.36769">
        <ele>1108.4</ele>
        <time>2019-04-12T04:28:45Z</time>
      </trkpt>
      <trkpt lat="42.14318" lon="2.36775">
        <ele>1107.8</ele>
        <time>2019-04-12T04:28:47Z</time>
      </trkpt>
      <trkpt lat="42.14317" lon="2.36784">
        <ele>1107</ele>
        <time>2019-04-12T04:28:49Z</time>
      </trkpt>
      <trkpt lat="42.14317" lon="2.36791">
        <ele>1104.7</ele>
        <time>2019-04-12T04:28:51Z</time>
      </trkpt>
      <trkpt lat="42.14318" lon="2.36798">
        <ele>1103.2</ele>
        <time>2019-04-12T04:28:54Z</time>
      </trkpt>
      <trkpt lat="42.14318" lon="2.36808">
        <ele>1101</ele>
        <time>2019-04-12T04:28:56Z</time>
      </trkpt>
      <trkpt lat="42.14318" lon="2.36817">
        <ele>1098.2</ele>
        <time>2019-04-12T04:28:59Z</time>
      </trkpt>
      <trkpt lat="42.14318" lon="2.36823">
        <ele>1096.9</ele>
        <time>2019-04-12T04:29:01Z</time>
      </trkpt>
      <trkpt lat="42.14321" lon="2.3683">
        <ele>1095.5</ele>
        <time>2019-04-12T04:29:03Z</time>
      </trkpt>
      <trkpt lat="42.14324" lon="2.36835">
        <ele>1095.2</ele>
        <time>2019-04-12T04:29:05Z</time>
      </trkpt>
      <trkpt lat="42.14327" lon="2.36841">
        <ele>1093.8</ele>
        <time>2019-04-12T04:29:07Z</time>
      </trkpt>
      <trkpt lat="42.14329" lon="2.36846">
        <ele>1093.7</ele>
        <time>2019-04-12T04:29:09Z</time>
      </trkpt>
      <trkpt lat="42.14333" lon="2.36851">
        <ele>1092.7</ele>
        <time>2019-04-12T04:29:11Z</time>
      </trkpt>
      <trkpt lat="42.14336" lon="2.36856">
        <ele>1092.9</ele>
        <time>2019-04-12T04:29:13Z</time>
      </trkpt>
      <trkpt lat="42.14341" lon="2.36858">
        <ele>1094.1</ele>
        <time>2019-04-12T04:29:15Z</time>
      </trkpt>
      <trkpt lat="42.14347" lon="2.3686">
        <ele>1094.2</ele>
        <time>2019-04-12T04:29:18Z</time>
      </trkpt>
      <trkpt lat="42.14354" lon="2.36862">
        <ele>1095.5</ele>
        <time>2019-04-12T04:29:21Z</time>
      </trkpt>
      <trkpt lat="42.14356" lon="2.36868">
        <ele>1096.5</ele>
        <time>2019-04-12T04:29:23Z</time>
      </trkpt>
      <trkpt lat="42.14359" lon="2.36873">
        <ele>1097.5</ele>
        <time>2019-04-12T04:29:24Z</time>
      </trkpt>
      <trkpt lat="42.14364" lon="2.36873">
        <ele>1097.2</ele>
        <time>2019-04-12T04:29:26Z</time>
      </trkpt>
      <trkpt lat="42.14366" lon="2.36878">
        <ele>1096.6</ele>
        <time>2019-04-12T04:29:28Z</time>
      </trkpt>
      <trkpt lat="42.1437" lon="2.36882">
        <ele>1095.5</ele>
        <time>2019-04-12T04:29:30Z</time>
      </trkpt>
      <trkpt lat="42.14376" lon="2.36882">
        <ele>1093.8</ele>
        <time>2019-04-12T04:29:33Z</time>
      </trkpt>
      <trkpt lat="42.1439" lon="2.36899">
        <ele>1093.7</ele>
        <time>2019-04-12T04:29:40Z</time>
      </trkpt>
      <trkpt lat="42.14395" lon="2.36903">
        <ele>1094.3</ele>
        <time>2019-04-12T04:29:42Z</time>
      </trkpt>
      <trkpt lat="42.14401" lon="2.36904">
        <ele>1095</ele>
        <time>2019-04-12T04:29:45Z</time>
      </trkpt>
      <trkpt lat="42.14402" lon="2.36911">
        <ele>1095.7</ele>
        <time>2019-04-12T04:29:47Z</time>
      </trkpt>
      <trkpt lat="42.14405" lon="2.36917">
        <ele>1096.2</ele>
        <time>2019-04-12T04:29:49Z</time>
      </trkpt>
      <trkpt lat="42.1441" lon="2.3692">
        <ele>1097</ele>
        <time>2019-04-12T04:29:51Z</time>
      </trkpt>
      <trkpt lat="42.14415" lon="2.36923">
        <ele>1098.4</ele>
        <time>2019-04-12T04:29:54Z</time>
      </trkpt>
      <trkpt lat="42.14417" lon="2.36932">
        <ele>1098</ele>
        <time>2019-04-12T04:29:56Z</time>
      </trkpt>
      <trkpt lat="42.1442" lon="2.36937">
        <ele>1098</ele>
        <time>2019-04-12T04:29:58Z</time>
      </trkpt>
      <trkpt lat="42.14425" lon="2.36939">
        <ele>1097.4</ele>
        <time>2019-04-12T04:30:00Z</time>
      </trkpt>
      <trkpt lat="42.14426" lon="2.36967">
        <ele>1098.8</ele>
        <time>2019-04-12T04:30:09Z</time>
      </trkpt>
      <trkpt lat="42.14428" lon="2.36974">
        <ele>1099.4</ele>
        <time>2019-04-12T04:30:11Z</time>
      </trkpt>
      <trkpt lat="42.1443" lon="2.3698">
        <ele>1100.8</ele>
        <time>2019-04-12T04:30:13Z</time>
      </trkpt>
      <trkpt lat="42.14431" lon="2.36988">
        <ele>1100.7</ele>
        <time>2019-04-12T04:30:15Z</time>
      </trkpt>
      <trkpt lat="42.14434" lon="2.36994">
        <ele>1100.4</ele>
        <time>2019-04-12T04:30:17Z</time>
      </trkpt>
      <trkpt lat="42.14437" lon="2.37">
        <ele>1101.9</ele>
        <time>2019-04-12T04:30:20Z</time>
      </trkpt>
      <trkpt lat="42.14441" lon="2.37002">
        <ele>1103.1</ele>
        <time>2019-04-12T04:30:21Z</time>
      </trkpt>
      <trkpt lat="42.14447" lon="2.37002">
        <ele>1104.5</ele>
        <time>2019-04-12T04:30:24Z</time>
      </trkpt>
      <trkpt lat="42.14453" lon="2.37001">
        <ele>1104</ele>
        <time>2019-04-12T04:30:26Z</time>
      </trkpt>
      <trkpt lat="42.14458" lon="2.36999">
        <ele>1102.7</ele>
        <time>2019-04-12T04:30:28Z</time>
      </trkpt>
      <trkpt lat="42.14461" lon="2.37005">
        <ele>1101.8</ele>
        <time>2019-04-12T04:30:30Z</time>
      </trkpt>
      <trkpt lat="42.14465" lon="2.3701">
        <ele>1101.8</ele>
        <time>2019-04-12T04:30:32Z</time>
      </trkpt>
      <trkpt lat="42.14468" lon="2.37015">
        <ele>1101.5</ele>
        <time>2019-04-12T04:30:34Z</time>
      </trkpt>
      <trkpt lat="42.14466" lon="2.37021">
        <ele>1101.2</ele>
        <time>2019-04-12T04:30:36Z</time>
      </trkpt>
      <trkpt lat="42.14461" lon="2.37026">
        <ele>1099.3</ele>
        <time>2019-04-12T04:30:39Z</time>
      </trkpt>
      <trkpt lat="42.14458" lon="2.3703">
        <ele>1096.8</ele>
        <time>2019-04-12T04:30:41Z</time>
      </trkpt>
      <trkpt lat="42.14453" lon="2.37035">
        <ele>1093.9</ele>
        <time>2019-04-12T04:30:43Z</time>
      </trkpt>
      <trkpt lat="42.14449" lon="2.37039">
        <ele>1093.1</ele>
        <time>2019-04-12T04:30:45Z</time>
      </trkpt>
      <trkpt lat="42.14444" lon="2.37042">
        <ele>1092.4</ele>
        <time>2019-04-12T04:30:47Z</time>
      </trkpt>
      <trkpt lat="42.14441" lon="2.37046">
        <ele>1091.2</ele>
        <time>2019-04-12T04:30:49Z</time>
      </trkpt>
      <trkpt lat="42.14435" lon="2.37052">
        <ele>1088.7</ele>
        <time>2019-04-12T04:30:52Z</time>
      </trkpt>
      <trkpt lat="42.1443" lon="2.37055">
        <ele>1087.2</ele>
        <time>2019-04-12T04:30:54Z</time>
      </trkpt>
      <trkpt lat="42.14425" lon="2.37059">
        <ele>1086.6</ele>
        <time>2019-04-12T04:30:57Z</time>
      </trkpt>
      <trkpt lat="42.14419" lon="2.37063">
        <ele>1085.7</ele>
        <time>2019-04-12T04:30:59Z</time>
      </trkpt>
      <trkpt lat="42.14415" lon="2.37068">
        <ele>1084.2</ele>
        <time>2019-04-12T04:31:01Z</time>
      </trkpt>
      <trkpt lat="42.14412" lon="2.37073">
        <ele>1083.5</ele>
        <time>2019-04-12T04:31:03Z</time>
      </trkpt>
      <trkpt lat="42.14408" lon="2.37078">
        <ele>1082.5</ele>
        <time>2019-04-12T04:31:05Z</time>
      </trkpt>
      <trkpt lat="42.14404" lon="2.37082">
        <ele>1081.4</ele>
        <time>2019-04-12T04:31:07Z</time>
      </trkpt>
      <trkpt lat="42.14399" lon="2.37084">
        <ele>1081.6</ele>
        <time>2019-04-12T04:31:09Z</time>
      </trkpt>
      <trkpt lat="42.14395" lon="2.37085">
        <ele>1081.2</ele>
        <time>2019-04-12T04:31:11Z</time>
      </trkpt>
      <trkpt lat="42.1439" lon="2.37089">
        <ele>1081.3</ele>
        <time>2019-04-12T04:31:14Z</time>
      </trkpt>
      <trkpt lat="42.14386" lon="2.37094">
        <ele>1080.6</ele>
        <time>2019-04-12T04:31:16Z</time>
      </trkpt>
      <trkpt lat="42.14381" lon="2.37099">
        <ele>1080.3</ele>
        <time>2019-04-12T04:31:18Z</time>
      </trkpt>
      <trkpt lat="42.14371" lon="2.37097">
        <ele>1080.5</ele>
        <time>2019-04-12T04:31:22Z</time>
      </trkpt>
      <trkpt lat="42.14368" lon="2.37105">
        <ele>1078.2</ele>
        <time>2019-04-12T04:31:25Z</time>
      </trkpt>
      <trkpt lat="42.14365" lon="2.37111">
        <ele>1076.3</ele>
        <time>2019-04-12T04:31:27Z</time>
      </trkpt>
      <trkpt lat="42.14362" lon="2.37117">
        <ele>1077</ele>
        <time>2019-04-12T04:31:29Z</time>
      </trkpt>
      <trkpt lat="42.14361" lon="2.37124">
        <ele>1077.7</ele>
        <time>2019-04-12T04:31:31Z</time>
      </trkpt>
      <trkpt lat="42.14359" lon="2.37131">
        <ele>1078</ele>
        <time>2019-04-12T04:31:33Z</time>
      </trkpt>
      <trkpt lat="42.14359" lon="2.37138">
        <ele>1079.1</ele>
        <time>2019-04-12T04:31:35Z</time>
      </trkpt>
      <trkpt lat="42.14361" lon="2.37144">
        <ele>1079.9</ele>
        <time>2019-04-12T04:31:37Z</time>
      </trkpt>
      <trkpt lat="42.14364" lon="2.37149">
        <ele>1080.4</ele>
        <time>2019-04-12T04:31:39Z</time>
      </trkpt>
      <trkpt lat="42.14367" lon="2.37155">
        <ele>1079.7</ele>
        <time>2019-04-12T04:31:41Z</time>
      </trkpt>
      <trkpt lat="42.14371" lon="2.37162">
        <ele>1079.5</ele>
        <time>2019-04-12T04:31:44Z</time>
      </trkpt>
      <trkpt lat="42.14372" lon="2.37169">
        <ele>1079</ele>
        <time>2019-04-12T04:31:46Z</time>
      </trkpt>
      <trkpt lat="42.14373" lon="2.37175">
        <ele>1078.9</ele>
        <time>2019-04-12T04:31:48Z</time>
      </trkpt>
      <trkpt lat="42.14374" lon="2.37181">
        <ele>1078.1</ele>
        <time>2019-04-12T04:31:50Z</time>
      </trkpt>
      <trkpt lat="42.14373" lon="2.37189">
        <ele>1077.6</ele>
        <time>2019-04-12T04:31:52Z</time>
      </trkpt>
      <trkpt lat="42.14372" lon="2.37195">
        <ele>1076.4</ele>
        <time>2019-04-12T04:31:54Z</time>
      </trkpt>
      <trkpt lat="42.1437" lon="2.37202">
        <ele>1076</ele>
        <time>2019-04-12T04:31:56Z</time>
      </trkpt>
      <trkpt lat="42.14369" lon="2.3721">
        <ele>1075.8</ele>
        <time>2019-04-12T04:31:58Z</time>
      </trkpt>
      <trkpt lat="42.14368" lon="2.37216">
        <ele>1076.3</ele>
        <time>2019-04-12T04:32:00Z</time>
      </trkpt>
      <trkpt lat="42.14367" lon="2.37224">
        <ele>1076.6</ele>
        <time>2019-04-12T04:32:03Z</time>
      </trkpt>
      <trkpt lat="42.14368" lon="2.37232">
        <ele>1075.5</ele>
        <time>2019-04-12T04:32:05Z</time>
      </trkpt>
      <trkpt lat="42.14368" lon="2.37239">
        <ele>1075.1</ele>
        <time>2019-04-12T04:32:07Z</time>
      </trkpt>
      <trkpt lat="42.1437" lon="2.37245">
        <ele>1073.9</ele>
        <time>2019-04-12T04:32:09Z</time>
      </trkpt>
      <trkpt lat="42.14372" lon="2.37252">
        <ele>1073</ele>
        <time>2019-04-12T04:32:11Z</time>
      </trkpt>
      <trkpt lat="42.14375" lon="2.37259">
        <ele>1073</ele>
        <time>2019-04-12T04:32:14Z</time>
      </trkpt>
      <trkpt lat="42.14378" lon="2.37266">
        <ele>1072.3</ele>
        <time>2019-04-12T04:32:16Z</time>
      </trkpt>
      <trkpt lat="42.14379" lon="2.37271">
        <ele>1072.6</ele>
        <time>2019-04-12T04:32:18Z</time>
      </trkpt>
      <trkpt lat="42.1438" lon="2.37278">
        <ele>1072.8</ele>
        <time>2019-04-12T04:32:20Z</time>
      </trkpt>
      <trkpt lat="42.1438" lon="2.37284">
        <ele>1073.4</ele>
        <time>2019-04-12T04:32:21Z</time>
      </trkpt>
      <trkpt lat="42.1438" lon="2.37291">
        <ele>1074.2</ele>
        <time>2019-04-12T04:32:24Z</time>
      </trkpt>
      <trkpt lat="42.14381" lon="2.37298">
        <ele>1075.7</ele>
        <time>2019-04-12T04:32:26Z</time>
      </trkpt>
      <trkpt lat="42.14383" lon="2.37306">
        <ele>1076.8</ele>
        <time>2019-04-12T04:32:28Z</time>
      </trkpt>
      <trkpt lat="42.14385" lon="2.37313">
        <ele>1076.8</ele>
        <time>2019-04-12T04:32:30Z</time>
      </trkpt>
      <trkpt lat="42.14386" lon="2.37322">
        <ele>1075.8</ele>
        <time>2019-04-12T04:32:33Z</time>
      </trkpt>
      <trkpt lat="42.14389" lon="2.37327">
        <ele>1075.7</ele>
        <time>2019-04-12T04:32:35Z</time>
      </trkpt>
      <trkpt lat="42.14393" lon="2.3733">
        <ele>1074.8</ele>
        <time>2019-04-12T04:32:37Z</time>
      </trkpt>
      <trkpt lat="42.14398" lon="2.37335">
        <ele>1073.3</ele>
        <time>2019-04-12T04:32:39Z</time>
      </trkpt>
      <trkpt lat="42.14399" lon="2.37342">
        <ele>1072.9</ele>
        <time>2019-04-12T04:32:41Z</time>
      </trkpt>
      <trkpt lat="42.14404" lon="2.37345">
        <ele>1073.4</ele>
        <time>2019-04-12T04:32:43Z</time>
      </trkpt>
      <trkpt lat="42.14406" lon="2.37351">
        <ele>1072.9</ele>
        <time>2019-04-12T04:32:45Z</time>
      </trkpt>
      <trkpt lat="42.14409" lon="2.37357">
        <ele>1072</ele>
        <time>2019-04-12T04:32:47Z</time>
      </trkpt>
      <trkpt lat="42.14412" lon="2.37362">
        <ele>1071.1</ele>
        <time>2019-04-12T04:32:50Z</time>
      </trkpt>
      <trkpt lat="42.14414" lon="2.3737">
        <ele>1070.4</ele>
        <time>2019-04-12T04:32:52Z</time>
      </trkpt>
      <trkpt lat="42.14415" lon="2.37377">
        <ele>1070</ele>
        <time>2019-04-12T04:32:54Z</time>
      </trkpt>
      <trkpt lat="42.14417" lon="2.37383">
        <ele>1069.8</ele>
        <time>2019-04-12T04:32:56Z</time>
      </trkpt>
      <trkpt lat="42.14419" lon="2.37391">
        <ele>1069.1</ele>
        <time>2019-04-12T04:32:59Z</time>
      </trkpt>
      <trkpt lat="42.1442" lon="2.374">
        <ele>1069.1</ele>
        <time>2019-04-12T04:33:01Z</time>
      </trkpt>
      <trkpt lat="42.14419" lon="2.37409">
        <ele>1069.6</ele>
        <time>2019-04-12T04:33:04Z</time>
      </trkpt>
      <trkpt lat="42.14419" lon="2.37415">
        <ele>1070.7</ele>
        <time>2019-04-12T04:33:06Z</time>
      </trkpt>
      <trkpt lat="42.14419" lon="2.37422">
        <ele>1071.8</ele>
        <time>2019-04-12T04:33:08Z</time>
      </trkpt>
      <trkpt lat="42.14423" lon="2.37428">
        <ele>1071.7</ele>
        <time>2019-04-12T04:33:10Z</time>
      </trkpt>
      <trkpt lat="42.14426" lon="2.37435">
        <ele>1072.2</ele>
        <time>2019-04-12T04:33:12Z</time>
      </trkpt>
      <trkpt lat="42.14428" lon="2.37441">
        <ele>1070.2</ele>
        <time>2019-04-12T04:33:14Z</time>
      </trkpt>
      <trkpt lat="42.14432" lon="2.37444">
        <ele>1066.3</ele>
        <time>2019-04-12T04:33:16Z</time>
      </trkpt>
      <trkpt lat="42.14431" lon="2.37451">
        <ele>1062.2</ele>
        <time>2019-04-12T04:33:18Z</time>
      </trkpt>
      <trkpt lat="42.14428" lon="2.37459">
        <ele>1059</ele>
        <time>2019-04-12T04:33:21Z</time>
      </trkpt>
      <trkpt lat="42.14426" lon="2.37466">
        <ele>1056.9</ele>
        <time>2019-04-12T04:33:23Z</time>
      </trkpt>
      <trkpt lat="42.14424" lon="2.37472">
        <ele>1054.9</ele>
        <time>2019-04-12T04:33:25Z</time>
      </trkpt>
      <trkpt lat="42.14423" lon="2.37478">
        <ele>1054.7</ele>
        <time>2019-04-12T04:33:27Z</time>
      </trkpt>
      <trkpt lat="42.14422" lon="2.37484">
        <ele>1055</ele>
        <time>2019-04-12T04:33:29Z</time>
      </trkpt>
      <trkpt lat="42.14423" lon="2.3749">
        <ele>1057</ele>
        <time>2019-04-12T04:33:31Z</time>
      </trkpt>
      <trkpt lat="42.14421" lon="2.37499">
        <ele>1057.6</ele>
        <time>2019-04-12T04:33:33Z</time>
      </trkpt>
      <trkpt lat="42.14419" lon="2.37504">
        <ele>1057.4</ele>
        <time>2019-04-12T04:33:35Z</time>
      </trkpt>
      <trkpt lat="42.14419" lon="2.37511">
        <ele>1057.5</ele>
        <time>2019-04-12T04:33:37Z</time>
      </trkpt>
      <trkpt lat="42.14424" lon="2.37514">
        <ele>1057</ele>
        <time>2019-04-12T04:33:39Z</time>
      </trkpt>
      <trkpt lat="42.1442" lon="2.37519">
        <ele>1057</ele>
        <time>2019-04-12T04:33:41Z</time>
      </trkpt>
      <trkpt lat="42.14416" lon="2.37522">
        <ele>1056.1</ele>
        <time>2019-04-12T04:33:43Z</time>
      </trkpt>
      <trkpt lat="42.14412" lon="2.37527">
        <ele>1055.5</ele>
        <time>2019-04-12T04:33:45Z</time>
      </trkpt>
      <trkpt lat="42.14406" lon="2.37529">
        <ele>1054.6</ele>
        <time>2019-04-12T04:33:48Z</time>
      </trkpt>
      <trkpt lat="42.144" lon="2.37528">
        <ele>1056.2</ele>
        <time>2019-04-12T04:33:50Z</time>
      </trkpt>
      <trkpt lat="42.14398" lon="2.37535">
        <ele>1054.9</ele>
        <time>2019-04-12T04:33:53Z</time>
      </trkpt>
      <trkpt lat="42.14394" lon="2.37541">
        <ele>1053.2</ele>
        <time>2019-04-12T04:33:55Z</time>
      </trkpt>
      <trkpt lat="42.14389" lon="2.37543">
        <ele>1051.2</ele>
        <time>2019-04-12T04:33:57Z</time>
      </trkpt>
      <trkpt lat="42.14385" lon="2.37546">
        <ele>1047.9</ele>
        <time>2019-04-12T04:33:59Z</time>
      </trkpt>
      <trkpt lat="42.14383" lon="2.37552">
        <ele>1044</ele>
        <time>2019-04-12T04:34:01Z</time>
      </trkpt>
      <trkpt lat="42.14382" lon="2.37558">
        <ele>1041.2</ele>
        <time>2019-04-12T04:34:03Z</time>
      </trkpt>
      <trkpt lat="42.14377" lon="2.37561">
        <ele>1039.9</ele>
        <time>2019-04-12T04:34:05Z</time>
      </trkpt>
      <trkpt lat="42.14378" lon="2.37569">
        <ele>1039.6</ele>
        <time>2019-04-12T04:34:07Z</time>
      </trkpt>
      <trkpt lat="42.14376" lon="2.37575">
        <ele>1040</ele>
        <time>2019-04-12T04:34:09Z</time>
      </trkpt>
      <trkpt lat="42.14373" lon="2.3758">
        <ele>1039.2</ele>
        <time>2019-04-12T04:34:11Z</time>
      </trkpt>
      <trkpt lat="42.14367" lon="2.37581">
        <ele>1039.3</ele>
        <time>2019-04-12T04:34:13Z</time>
      </trkpt>
      <trkpt lat="42.14363" lon="2.37586">
        <ele>1038.6</ele>
        <time>2019-04-12T04:34:15Z</time>
      </trkpt>
      <trkpt lat="42.1436" lon="2.37591">
        <ele>1037.7</ele>
        <time>2019-04-12T04:34:17Z</time>
      </trkpt>
      <trkpt lat="42.14361" lon="2.37599">
        <ele>1036.8</ele>
        <time>2019-04-12T04:34:20Z</time>
      </trkpt>
      <trkpt lat="42.14362" lon="2.37607">
        <ele>1035.3</ele>
        <time>2019-04-12T04:34:22Z</time>
      </trkpt>
      <trkpt lat="42.1436" lon="2.37613">
        <ele>1034.3</ele>
        <time>2019-04-12T04:34:24Z</time>
      </trkpt>
      <trkpt lat="42.1436" lon="2.37621">
        <ele>1033.8</ele>
        <time>2019-04-12T04:34:26Z</time>
      </trkpt>
      <trkpt lat="42.1436" lon="2.37627">
        <ele>1033</ele>
        <time>2019-04-12T04:34:28Z</time>
      </trkpt>
      <trkpt lat="42.1436" lon="2.37633">
        <ele>1032.9</ele>
        <time>2019-04-12T04:34:30Z</time>
      </trkpt>
      <trkpt lat="42.14359" lon="2.37641">
        <ele>1033.5</ele>
        <time>2019-04-12T04:34:32Z</time>
      </trkpt>
      <trkpt lat="42.14359" lon="2.37647">
        <ele>1034.3</ele>
        <time>2019-04-12T04:34:34Z</time>
      </trkpt>
      <trkpt lat="42.14359" lon="2.37654">
        <ele>1035.2</ele>
        <time>2019-04-12T04:34:36Z</time>
      </trkpt>
      <trkpt lat="42.14357" lon="2.37661">
        <ele>1036.6</ele>
        <time>2019-04-12T04:34:38Z</time>
      </trkpt>
      <trkpt lat="42.14356" lon="2.37668">
        <ele>1037</ele>
        <time>2019-04-12T04:34:40Z</time>
      </trkpt>
      <trkpt lat="42.14357" lon="2.37675">
        <ele>1035.7</ele>
        <time>2019-04-12T04:34:43Z</time>
      </trkpt>
      <trkpt lat="42.14361" lon="2.37675">
        <ele>1035.5</ele>
        <time>2019-04-12T04:34:45Z</time>
      </trkpt>
      <trkpt lat="42.14366" lon="2.37678">
        <ele>1035.8</ele>
        <time>2019-04-12T04:34:47Z</time>
      </trkpt>
      <trkpt lat="42.14368" lon="2.37683">
        <ele>1036.4</ele>
        <time>2019-04-12T04:34:48Z</time>
      </trkpt>
      <trkpt lat="42.14369" lon="2.37691">
        <ele>1035.9</ele>
        <time>2019-04-12T04:34:51Z</time>
      </trkpt>
      <trkpt lat="42.1437" lon="2.37698">
        <ele>1035.1</ele>
        <time>2019-04-12T04:34:53Z</time>
      </trkpt>
      <trkpt lat="42.14371" lon="2.37705">
        <ele>1033.7</ele>
        <time>2019-04-12T04:34:55Z</time>
      </trkpt>
      <trkpt lat="42.14372" lon="2.3771">
        <ele>1032.3</ele>
        <time>2019-04-12T04:34:57Z</time>
      </trkpt>
      <trkpt lat="42.14372" lon="2.37719">
        <ele>1029.6</ele>
        <time>2019-04-12T04:34:59Z</time>
      </trkpt>
      <trkpt lat="42.14373" lon="2.37727">
        <ele>1026.1</ele>
        <time>2019-04-12T04:35:02Z</time>
      </trkpt>
      <trkpt lat="42.14375" lon="2.37733">
        <ele>1022.7</ele>
        <time>2019-04-12T04:35:04Z</time>
      </trkpt>
      <trkpt lat="42.1438" lon="2.37731">
        <ele>1019.3</ele>
        <time>2019-04-12T04:35:06Z</time>
      </trkpt>
      <trkpt lat="42.14383" lon="2.37737">
        <ele>1017.4</ele>
        <time>2019-04-12T04:35:08Z</time>
      </trkpt>
      <trkpt lat="42.14384" lon="2.37744">
        <ele>1014.9</ele>
        <time>2019-04-12T04:35:10Z</time>
      </trkpt>
      <trkpt lat="42.14382" lon="2.37751">
        <ele>1012.8</ele>
        <time>2019-04-12T04:35:12Z</time>
      </trkpt>
      <trkpt lat="42.1438" lon="2.37745">
        <ele>1011.5</ele>
        <time>2019-04-12T04:35:14Z</time>
      </trkpt>
      <trkpt lat="42.14378" lon="2.3775">
        <ele>1010.5</ele>
        <time>2019-04-12T04:35:16Z</time>
      </trkpt>
      <trkpt lat="42.14374" lon="2.37754">
        <ele>1009.3</ele>
        <time>2019-04-12T04:35:18Z</time>
      </trkpt>
      <trkpt lat="42.1437" lon="2.37759">
        <ele>1008.2</ele>
        <time>2019-04-12T04:35:20Z</time>
      </trkpt>
      <trkpt lat="42.14364" lon="2.37761">
        <ele>1006.4</ele>
        <time>2019-04-12T04:35:23Z</time>
      </trkpt>
      <trkpt lat="42.1436" lon="2.37762">
        <ele>1004.1</ele>
        <time>2019-04-12T04:35:25Z</time>
      </trkpt>
      <trkpt lat="42.14355" lon="2.37762">
        <ele>1002.8</ele>
        <time>2019-04-12T04:35:27Z</time>
      </trkpt>
      <trkpt lat="42.14354" lon="2.37756">
        <ele>1000</ele>
        <time>2019-04-12T04:35:29Z</time>
      </trkpt>
      <trkpt lat="42.1435" lon="2.37758">
        <ele>998</ele>
        <time>2019-04-12T04:35:30Z</time>
      </trkpt>
      <trkpt lat="42.14348" lon="2.37766">
        <ele>997.3</ele>
        <time>2019-04-12T04:35:33Z</time>
      </trkpt>
      <trkpt lat="42.14345" lon="2.3777">
        <ele>996.7</ele>
        <time>2019-04-12T04:35:34Z</time>
      </trkpt>
      <trkpt lat="42.1434" lon="2.3777">
        <ele>995.2</ele>
        <time>2019-04-12T04:35:36Z</time>
      </trkpt>
      <trkpt lat="42.14335" lon="2.37772">
        <ele>993.5</ele>
        <time>2019-04-12T04:35:39Z</time>
      </trkpt>
      <trkpt lat="42.14329" lon="2.37774">
        <ele>990.4</ele>
        <time>2019-04-12T04:35:41Z</time>
      </trkpt>
      <trkpt lat="42.14317" lon="2.37783">
        <ele>987.2</ele>
        <time>2019-04-12T04:35:46Z</time>
      </trkpt>
      <trkpt lat="42.14311" lon="2.37786">
        <ele>984.8</ele>
        <time>2019-04-12T04:35:49Z</time>
      </trkpt>
      <trkpt lat="42.14305" lon="2.37786">
        <ele>980.7</ele>
        <time>2019-04-12T04:35:52Z</time>
      </trkpt>
      <trkpt lat="42.14303" lon="2.37779">
        <ele>977.2</ele>
        <time>2019-04-12T04:35:54Z</time>
      </trkpt>
      <trkpt lat="42.14303" lon="2.37772">
        <ele>973.2</ele>
        <time>2019-04-12T04:35:56Z</time>
      </trkpt>
      <trkpt lat="42.14302" lon="2.37766">
        <ele>970.7</ele>
        <time>2019-04-12T04:35:58Z</time>
      </trkpt>
      <trkpt lat="42.14299" lon="2.37761">
        <ele>970.3</ele>
        <time>2019-04-12T04:36:00Z</time>
      </trkpt>
      <trkpt lat="42.14294" lon="2.37756">
        <ele>970.6</ele>
        <time>2019-04-12T04:36:02Z</time>
      </trkpt>
      <trkpt lat="42.14291" lon="2.37751">
        <ele>970.9</ele>
        <time>2019-04-12T04:36:04Z</time>
      </trkpt>
      <trkpt lat="42.14285" lon="2.37747">
        <ele>971.5</ele>
        <time>2019-04-12T04:36:07Z</time>
      </trkpt>
      <trkpt lat="42.14282" lon="2.37741">
        <ele>969.2</ele>
        <time>2019-04-12T04:36:09Z</time>
      </trkpt>
      <trkpt lat="42.14276" lon="2.37739">
        <ele>966.1</ele>
        <time>2019-04-12T04:36:11Z</time>
      </trkpt>
      <trkpt lat="42.14272" lon="2.37733">
        <ele>962</ele>
        <time>2019-04-12T04:36:13Z</time>
      </trkpt>
      <trkpt lat="42.14267" lon="2.37732">
        <ele>958.1</ele>
        <time>2019-04-12T04:36:15Z</time>
      </trkpt>
      <trkpt lat="42.14264" lon="2.37727">
        <ele>954</ele>
        <time>2019-04-12T04:36:17Z</time>
      </trkpt>
      <trkpt lat="42.14262" lon="2.3772">
        <ele>950</ele>
        <time>2019-04-12T04:36:20Z</time>
      </trkpt>
      <trkpt lat="42.14262" lon="2.3771">
        <ele>946</ele>
        <time>2019-04-12T04:36:23Z</time>
      </trkpt>
      <trkpt lat="42.14264" lon="2.37699">
        <ele>942.1</ele>
        <time>2019-04-12T04:36:26Z</time>
      </trkpt>
      <trkpt lat="42.1426" lon="2.37692">
        <ele>938</ele>
        <time>2019-04-12T04:36:29Z</time>
      </trkpt>
      <trkpt lat="42.14255" lon="2.37678">
        <ele>934</ele>
        <time>2019-04-12T04:36:33Z</time>
      </trkpt>
      <trkpt lat="42.14252" lon="2.37673">
        <ele>930</ele>
        <time>2019-04-12T04:36:35Z</time>
      </trkpt>
      <trkpt lat="42.14249" lon="2.37667">
        <ele>926</ele>
        <time>2019-04-12T04:36:37Z</time>
      </trkpt>
      <trkpt lat="42.14255" lon="2.37696">
        <ele>922.1</ele>
        <time>2019-04-12T04:36:46Z</time>
      </trkpt>
      <trkpt lat="42.14253" lon="2.37703">
        <ele>918.1</ele>
        <time>2019-04-12T04:36:48Z</time>
      </trkpt>
      <trkpt lat="42.14249" lon="2.377">
        <ele>914</ele>
        <time>2019-04-12T04:36:50Z</time>
      </trkpt>
      <trkpt lat="42.14244" lon="2.37698">
        <ele>910.1</ele>
        <time>2019-04-12T04:36:52Z</time>
      </trkpt>
      <trkpt lat="42.14238" lon="2.37694">
        <ele>906.1</ele>
        <time>2019-04-12T04:36:55Z</time>
      </trkpt>
      <trkpt lat="42.14234" lon="2.3769">
        <ele>902.1</ele>
        <time>2019-04-12T04:36:57Z</time>
      </trkpt>
      <trkpt lat="42.14229" lon="2.37694">
        <ele>898</ele>
        <time>2019-04-12T04:36:59Z</time>
      </trkpt>
      <trkpt lat="42.14221" lon="2.37698">
        <ele>894</ele>
        <time>2019-04-12T04:37:02Z</time>
      </trkpt>
      <trkpt lat="42.14217" lon="2.37699">
        <ele>890</ele>
        <time>2019-04-12T04:37:04Z</time>
      </trkpt>
      <trkpt lat="42.14211" lon="2.37701">
        <ele>886.1</ele>
        <time>2019-04-12T04:37:07Z</time>
      </trkpt>
      <trkpt lat="42.14206" lon="2.37701">
        <ele>882</ele>
        <time>2019-04-12T04:37:08Z</time>
      </trkpt>
      <trkpt lat="42.14195" lon="2.3772">
        <ele>878</ele>
        <time>2019-04-12T04:37:16Z</time>
      </trkpt>
      <trkpt lat="42.14199" lon="2.37716">
        <ele>877.4</ele>
        <time>2019-04-12T04:37:18Z</time>
      </trkpt>
      <trkpt lat="42.14204" lon="2.37717">
        <ele>875.5</ele>
        <time>2019-04-12T04:37:20Z</time>
      </trkpt>
      <trkpt lat="42.1421" lon="2.3772">
        <ele>873.2</ele>
        <time>2019-04-12T04:37:22Z</time>
      </trkpt>
      <trkpt lat="42.14204" lon="2.37723">
        <ele>870.5</ele>
        <time>2019-04-12T04:37:25Z</time>
      </trkpt>
      <trkpt lat="42.14198" lon="2.37724">
        <ele>866.8</ele>
        <time>2019-04-12T04:37:28Z</time>
      </trkpt>
      <trkpt lat="42.14193" lon="2.37722">
        <ele>862.8</ele>
        <time>2019-04-12T04:37:30Z</time>
      </trkpt>
      <trkpt lat="42.14189" lon="2.37736">
        <ele>858.8</ele>
        <time>2019-04-12T04:37:34Z</time>
      </trkpt>
      <trkpt lat="42.14186" lon="2.37741">
        <ele>855.3</ele>
        <time>2019-04-12T04:37:36Z</time>
      </trkpt>
      <trkpt lat="42.14183" lon="2.37747">
        <ele>851.2</ele>
        <time>2019-04-12T04:37:38Z</time>
      </trkpt>
      <trkpt lat="42.14175" lon="2.37751">
        <ele>847.2</ele>
        <time>2019-04-12T04:37:41Z</time>
      </trkpt>
      <trkpt lat="42.1417" lon="2.3775">
        <ele>845.2</ele>
        <time>2019-04-12T04:37:44Z</time>
      </trkpt>
      <trkpt lat="42.14175" lon="2.37751">
        <ele>841.9</ele>
        <time>2019-04-12T04:37:46Z</time>
      </trkpt>
      <trkpt lat="42.14172" lon="2.37757">
        <ele>839.1</ele>
        <time>2019-04-12T04:37:48Z</time>
      </trkpt>
      <trkpt lat="42.14167" lon="2.37758">
        <ele>836.5</ele>
        <time>2019-04-12T04:37:50Z</time>
      </trkpt>
      <trkpt lat="42.14165" lon="2.37767">
        <ele>835</ele>
        <time>2019-04-12T04:37:53Z</time>
      </trkpt>
      <trkpt lat="42.14163" lon="2.37773">
        <ele>833.5</ele>
        <time>2019-04-12T04:37:55Z</time>
      </trkpt>
      <trkpt lat="42.14159" lon="2.37777">
        <ele>831.3</ele>
        <time>2019-04-12T04:37:57Z</time>
      </trkpt>
      <trkpt lat="42.14145" lon="2.37794">
        <ele>827.3</ele>
        <time>2019-04-12T04:38:04Z</time>
      </trkpt>
      <trkpt lat="42.14143" lon="2.378">
        <ele>826.6</ele>
        <time>2019-04-12T04:38:06Z</time>
      </trkpt>
      <trkpt lat="42.14153" lon="2.37811">
        <ele>826.3</ele>
        <time>2019-04-12T04:38:11Z</time>
      </trkpt>
      <trkpt lat="42.14157" lon="2.37817">
        <ele>826.6</ele>
        <time>2019-04-12T04:38:14Z</time>
      </trkpt>
      <trkpt lat="42.14159" lon="2.37824">
        <ele>825.5</ele>
        <time>2019-04-12T04:38:16Z</time>
      </trkpt>
      <trkpt lat="42.14162" lon="2.37829">
        <ele>823.9</ele>
        <time>2019-04-12T04:38:18Z</time>
      </trkpt>
      <trkpt lat="42.14164" lon="2.37843">
        <ele>821.2</ele>
        <time>2019-04-12T04:38:22Z</time>
      </trkpt>
      <trkpt lat="42.14163" lon="2.3785">
        <ele>818.2</ele>
        <time>2019-04-12T04:38:24Z</time>
      </trkpt>
      <trkpt lat="42.14167" lon="2.37855">
        <ele>816.9</ele>
        <time>2019-04-12T04:38:26Z</time>
      </trkpt>
      <trkpt lat="42.14169" lon="2.3786">
        <ele>815.6</ele>
        <time>2019-04-12T04:38:28Z</time>
      </trkpt>
      <trkpt lat="42.14169" lon="2.37867">
        <ele>815.9</ele>
        <time>2019-04-12T04:38:30Z</time>
      </trkpt>
      <trkpt lat="42.1417" lon="2.37874">
        <ele>813.9</ele>
        <time>2019-04-12T04:38:32Z</time>
      </trkpt>
      <trkpt lat="42.14173" lon="2.37883">
        <ele>812.6</ele>
        <time>2019-04-12T04:38:35Z</time>
      </trkpt>
      <trkpt lat="42.14174" lon="2.37889">
        <ele>809.9</ele>
        <time>2019-04-12T04:38:37Z</time>
      </trkpt>
      <trkpt lat="42.14177" lon="2.37893">
        <ele>806.4</ele>
        <time>2019-04-12T04:38:39Z</time>
      </trkpt>
      <trkpt lat="42.14173" lon="2.37907">
        <ele>802.5</ele>
        <time>2019-04-12T04:38:43Z</time>
      </trkpt>
      <trkpt lat="42.14175" lon="2.37915">
        <ele>799.5</ele>
        <time>2019-04-12T04:38:46Z</time>
      </trkpt>
      <trkpt lat="42.14173" lon="2.37921">
        <ele>797</ele>
        <time>2019-04-12T04:38:48Z</time>
      </trkpt>
      <trkpt lat="42.14172" lon="2.37929">
        <ele>795.1</ele>
        <time>2019-04-12T04:38:50Z</time>
      </trkpt>
      <trkpt lat="42.14173" lon="2.37938">
        <ele>793.2</ele>
        <time>2019-04-12T04:38:53Z</time>
      </trkpt>
      <trkpt lat="42.14172" lon="2.37947">
        <ele>790.1</ele>
        <time>2019-04-12T04:38:55Z</time>
      </trkpt>
      <trkpt lat="42.14173" lon="2.37954">
        <ele>789</ele>
        <time>2019-04-12T04:38:58Z</time>
      </trkpt>
      <trkpt lat="42.14175" lon="2.37962">
        <ele>788.2</ele>
        <time>2019-04-12T04:39:00Z</time>
      </trkpt>
      <trkpt lat="42.14175" lon="2.37968">
        <ele>787.1</ele>
        <time>2019-04-12T04:39:02Z</time>
      </trkpt>
      <trkpt lat="42.14175" lon="2.37974">
        <ele>785.9</ele>
        <time>2019-04-12T04:39:04Z</time>
      </trkpt>
      <trkpt lat="42.14175" lon="2.37983">
        <ele>784.6</ele>
        <time>2019-04-12T04:39:06Z</time>
      </trkpt>
      <trkpt lat="42.14178" lon="2.37989">
        <ele>781.1</ele>
        <time>2019-04-12T04:39:09Z</time>
      </trkpt>
      <trkpt lat="42.1418" lon="2.37996">
        <ele>777.2</ele>
        <time>2019-04-12T04:39:11Z</time>
      </trkpt>
      <trkpt lat="42.1418" lon="2.38003">
        <ele>773.1</ele>
        <time>2019-04-12T04:39:13Z</time>
      </trkpt>
      <trkpt lat="42.14183" lon="2.38009">
        <ele>769.1</ele>
        <time>2019-04-12T04:39:15Z</time>
      </trkpt>
      <trkpt lat="42.14185" lon="2.38015">
        <ele>765.1</ele>
        <time>2019-04-12T04:39:17Z</time>
      </trkpt>
      <trkpt lat="42.14184" lon="2.38022">
        <ele>764</ele>
        <time>2019-04-12T04:39:19Z</time>
      </trkpt>
      <trkpt lat="42.14183" lon="2.38031">
        <ele>762.5</ele>
        <time>2019-04-12T04:39:21Z</time>
      </trkpt>
      <trkpt lat="42.14184" lon="2.38038">
        <ele>759.6</ele>
        <time>2019-04-12T04:39:24Z</time>
      </trkpt>
      <trkpt lat="42.14186" lon="2.38046">
        <ele>758.7</ele>
        <time>2019-04-12T04:39:26Z</time>
      </trkpt>
      <trkpt lat="42.1419" lon="2.38057">
        <ele>756.5</ele>
        <time>2019-04-12T04:39:30Z</time>
      </trkpt>
      <trkpt lat="42.14194" lon="2.38063">
        <ele>757.7</ele>
        <time>2019-04-12T04:39:32Z</time>
      </trkpt>
      <trkpt lat="42.14196" lon="2.38068">
        <ele>759.5</ele>
        <time>2019-04-12T04:39:34Z</time>
      </trkpt>
      <trkpt lat="42.14198" lon="2.38075">
        <ele>759.2</ele>
        <time>2019-04-12T04:39:36Z</time>
      </trkpt>
      <trkpt lat="42.14197" lon="2.38082">
        <ele>756.6</ele>
        <time>2019-04-12T04:39:38Z</time>
      </trkpt>
      <trkpt lat="42.14198" lon="2.38089">
        <ele>753.5</ele>
        <time>2019-04-12T04:39:40Z</time>
      </trkpt>
      <trkpt lat="42.14199" lon="2.38099">
        <ele>749.5</ele>
        <time>2019-04-12T04:39:43Z</time>
      </trkpt>
      <trkpt lat="42.14197" lon="2.38106">
        <ele>749.2</ele>
        <time>2019-04-12T04:39:45Z</time>
      </trkpt>
      <trkpt lat="42.14197" lon="2.38112">
        <ele>746.7</ele>
        <time>2019-04-12T04:39:47Z</time>
      </trkpt>
      <trkpt lat="42.14199" lon="2.38119">
        <ele>744.7</ele>
        <time>2019-04-12T04:39:50Z</time>
      </trkpt>
      <trkpt lat="42.14201" lon="2.38126">
        <ele>741.2</ele>
        <time>2019-04-12T04:39:52Z</time>
      </trkpt>
      <trkpt lat="42.14203" lon="2.38132">
        <ele>737.9</ele>
        <time>2019-04-12T04:39:54Z</time>
      </trkpt>
      <trkpt lat="42.14206" lon="2.38138">
        <ele>733.9</ele>
        <time>2019-04-12T04:39:56Z</time>
      </trkpt>
      <trkpt lat="42.14206" lon="2.38145">
        <ele>730.6</ele>
        <time>2019-04-12T04:39:58Z</time>
      </trkpt>
      <trkpt lat="42.14211" lon="2.38153">
        <ele>727.2</ele>
        <time>2019-04-12T04:40:01Z</time>
      </trkpt>
      <trkpt lat="42.14215" lon="2.38158">
        <ele>726.7</ele>
        <time>2019-04-12T04:40:03Z</time>
      </trkpt>
      <trkpt lat="42.14218" lon="2.38164">
        <ele>725.1</ele>
        <time>2019-04-12T04:40:05Z</time>
      </trkpt>
      <trkpt lat="42.14222" lon="2.3817">
        <ele>725</ele>
        <time>2019-04-12T04:40:08Z</time>
      </trkpt>
      <trkpt lat="42.14225" lon="2.38175">
        <ele>727.1</ele>
        <time>2019-04-12T04:40:10Z</time>
      </trkpt>
      <trkpt lat="42.14232" lon="2.38179">
        <ele>731.1</ele>
        <time>2019-04-12T04:40:13Z</time>
      </trkpt>
      <trkpt lat="42.14237" lon="2.38183">
        <ele>735.1</ele>
        <time>2019-04-12T04:40:15Z</time>
      </trkpt>
      <trkpt lat="42.14241" lon="2.38187">
        <ele>738.7</ele>
        <time>2019-04-12T04:40:17Z</time>
      </trkpt>
      <trkpt lat="42.14247" lon="2.38189">
        <ele>741.1</ele>
        <time>2019-04-12T04:40:19Z</time>
      </trkpt>
      <trkpt lat="42.14251" lon="2.38192">
        <ele>741.1</ele>
        <time>2019-04-12T04:40:21Z</time>
      </trkpt>
      <trkpt lat="42.14255" lon="2.38196">
        <ele>741.2</ele>
        <time>2019-04-12T04:40:23Z</time>
      </trkpt>
      <trkpt lat="42.14262" lon="2.38214">
        <ele>739.3</ele>
        <time>2019-04-12T04:40:29Z</time>
      </trkpt>
      <trkpt lat="42.14266" lon="2.38219">
        <ele>738.9</ele>
        <time>2019-04-12T04:40:31Z</time>
      </trkpt>
      <trkpt lat="42.14269" lon="2.38223">
        <ele>738.2</ele>
        <time>2019-04-12T04:40:33Z</time>
      </trkpt>
      <trkpt lat="42.14272" lon="2.38229">
        <ele>740.3</ele>
        <time>2019-04-12T04:40:35Z</time>
      </trkpt>
      <trkpt lat="42.14281" lon="2.38236">
        <ele>740.6</ele>
        <time>2019-04-12T04:40:39Z</time>
      </trkpt>
      <trkpt lat="42.14281" lon="2.38242">
        <ele>739.6</ele>
        <time>2019-04-12T04:40:41Z</time>
      </trkpt>
      <trkpt lat="42.14284" lon="2.38248">
        <ele>738</ele>
        <time>2019-04-12T04:40:43Z</time>
      </trkpt>
      <trkpt lat="42.14289" lon="2.38253">
        <ele>736.7</ele>
        <time>2019-04-12T04:40:45Z</time>
      </trkpt>
      <trkpt lat="42.14292" lon="2.38257">
        <ele>734.6</ele>
        <time>2019-04-12T04:40:47Z</time>
      </trkpt>
      <trkpt lat="42.14296" lon="2.3826">
        <ele>733.1</ele>
        <time>2019-04-12T04:40:49Z</time>
      </trkpt>
      <trkpt lat="42.14298" lon="2.38268">
        <ele>731.9</ele>
        <time>2019-04-12T04:40:51Z</time>
      </trkpt>
      <trkpt lat="42.14299" lon="2.38275">
        <ele>731.4</ele>
        <time>2019-04-12T04:40:54Z</time>
      </trkpt>
      <trkpt lat="42.14302" lon="2.38282">
        <ele>730.3</ele>
        <time>2019-04-12T04:40:56Z</time>
      </trkpt>
      <trkpt lat="42.14307" lon="2.38299">
        <ele>727.3</ele>
        <time>2019-04-12T04:41:01Z</time>
      </trkpt>
      <trkpt lat="42.14308" lon="2.38307">
        <ele>726.4</ele>
        <time>2019-04-12T04:41:04Z</time>
      </trkpt>
      <trkpt lat="42.14311" lon="2.38312">
        <ele>724.9</ele>
        <time>2019-04-12T04:41:06Z</time>
      </trkpt>
      <trkpt lat="42.14313" lon="2.38318">
        <ele>722.9</ele>
        <time>2019-04-12T04:41:08Z</time>
      </trkpt>
      <trkpt lat="42.1432" lon="2.38331">
        <ele>721.7</ele>
        <time>2019-04-12T04:41:13Z</time>
      </trkpt>
      <trkpt lat="42.14322" lon="2.38337">
        <ele>721.7</ele>
        <time>2019-04-12T04:41:14Z</time>
      </trkpt>
      <trkpt lat="42.14323" lon="2.38344">
        <ele>720.3</ele>
        <time>2019-04-12T04:41:17Z</time>
      </trkpt>
      <trkpt lat="42.14319" lon="2.38361">
        <ele>718.1</ele>
        <time>2019-04-12T04:41:22Z</time>
      </trkpt>
      <trkpt lat="42.14321" lon="2.38369">
        <ele>716.2</ele>
        <time>2019-04-12T04:41:24Z</time>
      </trkpt>
      <trkpt lat="42.14322" lon="2.38375">
        <ele>714.5</ele>
        <time>2019-04-12T04:41:26Z</time>
      </trkpt>
      <trkpt lat="42.14322" lon="2.38382">
        <ele>712.4</ele>
        <time>2019-04-12T04:41:28Z</time>
      </trkpt>
      <trkpt lat="42.14323" lon="2.3839">
        <ele>711.3</ele>
        <time>2019-04-12T04:41:30Z</time>
      </trkpt>
      <trkpt lat="42.14324" lon="2.38398">
        <ele>710.2</ele>
        <time>2019-04-12T04:41:33Z</time>
      </trkpt>
      <trkpt lat="42.14327" lon="2.38405">
        <ele>707.9</ele>
        <time>2019-04-12T04:41:35Z</time>
      </trkpt>
      <trkpt lat="42.14329" lon="2.38411">
        <ele>706.5</ele>
        <time>2019-04-12T04:41:37Z</time>
      </trkpt>
      <trkpt lat="42.14332" lon="2.38417">
        <ele>704.7</ele>
        <time>2019-04-12T04:41:39Z</time>
      </trkpt>
      <trkpt lat="42.14333" lon="2.38424">
        <ele>701.9</ele>
        <time>2019-04-12T04:41:41Z</time>
      </trkpt>
      <trkpt lat="42.1434" lon="2.38429">
        <ele>697.9</ele>
        <time>2019-04-12T04:41:44Z</time>
      </trkpt>
      <trkpt lat="42.14344" lon="2.38433">
        <ele>695.9</ele>
        <time>2019-04-12T04:41:46Z</time>
      </trkpt>
      <trkpt lat="42.1435" lon="2.38433">
        <ele>691.9</ele>
        <time>2019-04-12T04:41:49Z</time>
      </trkpt>
      <trkpt lat="42.14356" lon="2.38433">
        <ele>689.3</ele>
        <time>2019-04-12T04:41:51Z</time>
      </trkpt>
      <trkpt lat="42.14363" lon="2.38431">
        <ele>687</ele>
        <time>2019-04-12T04:41:54Z</time>
      </trkpt>
      <trkpt lat="42.14369" lon="2.3843">
        <ele>685.6</ele>
        <time>2019-04-12T04:41:56Z</time>
      </trkpt>
      <trkpt lat="42.14374" lon="2.3843">
        <ele>686.2</ele>
        <time>2019-04-12T04:41:58Z</time>
      </trkpt>
      <trkpt lat="42.14379" lon="2.38431">
        <ele>687.1</ele>
        <time>2019-04-12T04:42:00Z</time>
      </trkpt>
      <trkpt lat="42.14383" lon="2.38434">
        <ele>687.3</ele>
        <time>2019-04-12T04:42:02Z</time>
      </trkpt>
      <trkpt lat="42.14387" lon="2.38436">
        <ele>686.2</ele>
        <time>2019-04-12T04:42:04Z</time>
      </trkpt>
      <trkpt lat="42.1439" lon="2.38442">
        <ele>684.3</ele>
        <time>2019-04-12T04:42:06Z</time>
      </trkpt>
      <trkpt lat="42.14395" lon="2.38444">
        <ele>682.7</ele>
        <time>2019-04-12T04:42:08Z</time>
      </trkpt>
      <trkpt lat="42.144" lon="2.38441">
        <ele>680.7</ele>
        <time>2019-04-12T04:42:10Z</time>
      </trkpt>
      <trkpt lat="42.14405" lon="2.3844">
        <ele>679.5</ele>
        <time>2019-04-12T04:42:13Z</time>
      </trkpt>
      <trkpt lat="42.1441" lon="2.38437">
        <ele>679.3</ele>
        <time>2019-04-12T04:42:15Z</time>
      </trkpt>
      <trkpt lat="42.14416" lon="2.38437">
        <ele>677.5</ele>
        <time>2019-04-12T04:42:17Z</time>
      </trkpt>
      <trkpt lat="42.14421" lon="2.38438">
        <ele>677.3</ele>
        <time>2019-04-12T04:42:19Z</time>
      </trkpt>
      <trkpt lat="42.14432" lon="2.38443">
        <ele>677.6</ele>
        <time>2019-04-12T04:42:24Z</time>
      </trkpt>
      <trkpt lat="42.14433" lon="2.3845">
        <ele>680.1</ele>
        <time>2019-04-12T04:42:26Z</time>
      </trkpt>
      <trkpt lat="42.14433" lon="2.38456">
        <ele>681.7</ele>
        <time>2019-04-12T04:42:28Z</time>
      </trkpt>
      <trkpt lat="42.14435" lon="2.38463">
        <ele>684.1</ele>
        <time>2019-04-12T04:42:30Z</time>
      </trkpt>
      <trkpt lat="42.14438" lon="2.38477">
        <ele>685.4</ele>
        <time>2019-04-12T04:42:34Z</time>
      </trkpt>
      <trkpt lat="42.14437" lon="2.38484">
        <ele>687.7</ele>
        <time>2019-04-12T04:42:36Z</time>
      </trkpt>
      <trkpt lat="42.14434" lon="2.38488">
        <ele>688.3</ele>
        <time>2019-04-12T04:42:38Z</time>
      </trkpt>
      <trkpt lat="42.14431" lon="2.38493">
        <ele>687.9</ele>
        <time>2019-04-12T04:42:40Z</time>
      </trkpt>
      <trkpt lat="42.14427" lon="2.38499">
        <ele>688.5</ele>
        <time>2019-04-12T04:42:42Z</time>
      </trkpt>
      <trkpt lat="42.14426" lon="2.38506">
        <ele>687</ele>
        <time>2019-04-12T04:42:44Z</time>
      </trkpt>
      <trkpt lat="42.14426" lon="2.38514">
        <ele>687</ele>
        <time>2019-04-12T04:42:47Z</time>
      </trkpt>
      <trkpt lat="42.14431" lon="2.38517">
        <ele>688.3</ele>
        <time>2019-04-12T04:42:49Z</time>
      </trkpt>
      <trkpt lat="42.14439" lon="2.38557">
        <ele>689.1</ele>
        <time>2019-04-12T04:43:01Z</time>
      </trkpt>
      <trkpt lat="42.14441" lon="2.38563">
        <ele>687.9</ele>
        <time>2019-04-12T04:43:03Z</time>
      </trkpt>
      <trkpt lat="42.14441" lon="2.3857">
        <ele>686</ele>
        <time>2019-04-12T04:43:05Z</time>
      </trkpt>
      <trkpt lat="42.1444" lon="2.38576">
        <ele>686.1</ele>
        <time>2019-04-12T04:43:07Z</time>
      </trkpt>
      <trkpt lat="42.1444" lon="2.38584">
        <ele>686.1</ele>
        <time>2019-04-12T04:43:10Z</time>
      </trkpt>
      <trkpt lat="42.1444" lon="2.3859">
        <ele>685</ele>
        <time>2019-04-12T04:43:12Z</time>
      </trkpt>
      <trkpt lat="42.14438" lon="2.38597">
        <ele>683.6</ele>
        <time>2019-04-12T04:43:14Z</time>
      </trkpt>
      <trkpt lat="42.14436" lon="2.38603">
        <ele>682.8</ele>
        <time>2019-04-12T04:43:16Z</time>
      </trkpt>
      <trkpt lat="42.14436" lon="2.38611">
        <ele>682.2</ele>
        <time>2019-04-12T04:43:18Z</time>
      </trkpt>
      <trkpt lat="42.14435" lon="2.3862">
        <ele>681.2</ele>
        <time>2019-04-12T04:43:21Z</time>
      </trkpt>
      <trkpt lat="42.14434" lon="2.38627">
        <ele>679.4</ele>
        <time>2019-04-12T04:43:23Z</time>
      </trkpt>
      <trkpt lat="42.14434" lon="2.38646">
        <ele>677.7</ele>
        <time>2019-04-12T04:43:28Z</time>
      </trkpt>
      <trkpt lat="42.14433" lon="2.38652">
        <ele>675.6</ele>
        <time>2019-04-12T04:43:30Z</time>
      </trkpt>
      <trkpt lat="42.14432" lon="2.3866">
        <ele>672.7</ele>
        <time>2019-04-12T04:43:33Z</time>
      </trkpt>
      <trkpt lat="42.14433" lon="2.38668">
        <ele>671.8</ele>
        <time>2019-04-12T04:43:35Z</time>
      </trkpt>
      <trkpt lat="42.14434" lon="2.38675">
        <ele>671.2</ele>
        <time>2019-04-12T04:43:37Z</time>
      </trkpt>
      <trkpt lat="42.14434" lon="2.38681">
        <ele>671.5</ele>
        <time>2019-04-12T04:43:39Z</time>
      </trkpt>
      <trkpt lat="42.14433" lon="2.3869">
        <ele>672.6</ele>
        <time>2019-04-12T04:43:41Z</time>
      </trkpt>
      <trkpt lat="42.14433" lon="2.38697">
        <ele>673.2</ele>
        <time>2019-04-12T04:43:44Z</time>
      </trkpt>
      <trkpt lat="42.14434" lon="2.38703">
        <ele>673.5</ele>
        <time>2019-04-12T04:43:46Z</time>
      </trkpt>
      <trkpt lat="42.14437" lon="2.3871">
        <ele>674.6</ele>
        <time>2019-04-12T04:43:48Z</time>
      </trkpt>
      <trkpt lat="42.14448" lon="2.38728">
        <ele>675.2</ele>
        <time>2019-04-12T04:43:55Z</time>
      </trkpt>
      <trkpt lat="42.14451" lon="2.38734">
        <ele>676</ele>
        <time>2019-04-12T04:43:57Z</time>
      </trkpt>
      <trkpt lat="42.14455" lon="2.38739">
        <ele>675.5</ele>
        <time>2019-04-12T04:43:59Z</time>
      </trkpt>
      <trkpt lat="42.14458" lon="2.38743">
        <ele>674.6</ele>
        <time>2019-04-12T04:44:01Z</time>
      </trkpt>
      <trkpt lat="42.14463" lon="2.38746">
        <ele>673.7</ele>
        <time>2019-04-12T04:44:03Z</time>
      </trkpt>
      <trkpt lat="42.14466" lon="2.3875">
        <ele>672.8</ele>
        <time>2019-04-12T04:44:05Z</time>
      </trkpt>
      <trkpt lat="42.14468" lon="2.38757">
        <ele>674.1</ele>
        <time>2019-04-12T04:44:07Z</time>
      </trkpt>
      <trkpt lat="42.14472" lon="2.38761">
        <ele>675.6</ele>
        <time>2019-04-12T04:44:09Z</time>
      </trkpt>
      <trkpt lat="42.14478" lon="2.38767">
        <ele>676.8</ele>
        <time>2019-04-12T04:44:12Z</time>
      </trkpt>
      <trkpt lat="42.14481" lon="2.38776">
        <ele>678.9</ele>
        <time>2019-04-12T04:44:15Z</time>
      </trkpt>
      <trkpt lat="42.14484" lon="2.38781">
        <ele>680.3</ele>
        <time>2019-04-12T04:44:17Z</time>
      </trkpt>
      <trkpt lat="42.14489" lon="2.38785">
        <ele>682.8</ele>
        <time>2019-04-12T04:44:19Z</time>
      </trkpt>
      <trkpt lat="42.14494" lon="2.38788">
        <ele>684.8</ele>
        <time>2019-04-12T04:44:22Z</time>
      </trkpt>
      <trkpt lat="42.14499" lon="2.38792">
        <ele>686.1</ele>
        <time>2019-04-12T04:44:24Z</time>
      </trkpt>
      <trkpt lat="42.14503" lon="2.38795">
        <ele>688.2</ele>
        <time>2019-04-12T04:44:26Z</time>
      </trkpt>
      <trkpt lat="42.14507" lon="2.38799">
        <ele>688</ele>
        <time>2019-04-12T04:44:28Z</time>
      </trkpt>
      <trkpt lat="42.14513" lon="2.38805">
        <ele>686.9</ele>
        <time>2019-04-12T04:44:31Z</time>
      </trkpt>
      <trkpt lat="42.14515" lon="2.38812">
        <ele>685.7</ele>
        <time>2019-04-12T04:44:33Z</time>
      </trkpt>
      <trkpt lat="42.14516" lon="2.38818">
        <ele>684.3</ele>
        <time>2019-04-12T04:44:35Z</time>
      </trkpt>
      <trkpt lat="42.14516" lon="2.38825">
        <ele>682</ele>
        <time>2019-04-12T04:44:37Z</time>
      </trkpt>
      <trkpt lat="42.14516" lon="2.38831">
        <ele>679.4</ele>
        <time>2019-04-12T04:44:39Z</time>
      </trkpt>
      <trkpt lat="42.14515" lon="2.38839">
        <ele>679.9</ele>
        <time>2019-04-12T04:44:41Z</time>
      </trkpt>
      <trkpt lat="42.14515" lon="2.38846">
        <ele>680</ele>
        <time>2019-04-12T04:44:43Z</time>
      </trkpt>
      <trkpt lat="42.14513" lon="2.38852">
        <ele>678.9</ele>
        <time>2019-04-12T04:44:45Z</time>
      </trkpt>
      <trkpt lat="42.14514" lon="2.38858">
        <ele>677.6</ele>
        <time>2019-04-12T04:44:47Z</time>
      </trkpt>
      <trkpt lat="42.14515" lon="2.38864">
        <ele>676.8</ele>
        <time>2019-04-12T04:44:49Z</time>
      </trkpt>
      <trkpt lat="42.14515" lon="2.3887">
        <ele>674.6</ele>
        <time>2019-04-12T04:44:50Z</time>
      </trkpt>
      <trkpt lat="42.14515" lon="2.38879">
        <ele>672.6</ele>
        <time>2019-04-12T04:44:53Z</time>
      </trkpt>
      <trkpt lat="42.14516" lon="2.38885">
        <ele>671.7</ele>
        <time>2019-04-12T04:44:55Z</time>
      </trkpt>
      <trkpt lat="42.14517" lon="2.38893">
        <ele>671</ele>
        <time>2019-04-12T04:44:57Z</time>
      </trkpt>
      <trkpt lat="42.14517" lon="2.389">
        <ele>669.8</ele>
        <time>2019-04-12T04:44:59Z</time>
      </trkpt>
      <trkpt lat="42.14517" lon="2.38908">
        <ele>667.2</ele>
        <time>2019-04-12T04:45:02Z</time>
      </trkpt>
      <trkpt lat="42.14516" lon="2.38916">
        <ele>666.3</ele>
        <time>2019-04-12T04:45:04Z</time>
      </trkpt>
      <trkpt lat="42.14515" lon="2.38922">
        <ele>665.1</ele>
        <time>2019-04-12T04:45:06Z</time>
      </trkpt>
      <trkpt lat="42.14514" lon="2.3893">
        <ele>665.3</ele>
        <time>2019-04-12T04:45:08Z</time>
      </trkpt>
      <trkpt lat="42.14514" lon="2.38938">
        <ele>665.8</ele>
        <time>2019-04-12T04:45:11Z</time>
      </trkpt>
      <trkpt lat="42.14511" lon="2.38943">
        <ele>665.7</ele>
        <time>2019-04-12T04:45:12Z</time>
      </trkpt>
      <trkpt lat="42.14509" lon="2.38948">
        <ele>665.6</ele>
        <time>2019-04-12T04:45:14Z</time>
      </trkpt>
      <trkpt lat="42.14507" lon="2.38956">
        <ele>666.7</ele>
        <time>2019-04-12T04:45:17Z</time>
      </trkpt>
      <trkpt lat="42.14506" lon="2.38963">
        <ele>667.2</ele>
        <time>2019-04-12T04:45:19Z</time>
      </trkpt>
      <trkpt lat="42.14506" lon="2.3897">
        <ele>667.3</ele>
        <time>2019-04-12T04:45:21Z</time>
      </trkpt>
      <trkpt lat="42.14506" lon="2.38977">
        <ele>667</ele>
        <time>2019-04-12T04:45:23Z</time>
      </trkpt>
      <trkpt lat="42.14506" lon="2.38984">
        <ele>667.9</ele>
        <time>2019-04-12T04:45:25Z</time>
      </trkpt>
      <trkpt lat="42.14507" lon="2.38991">
        <ele>666.6</ele>
        <time>2019-04-12T04:45:27Z</time>
      </trkpt>
      <trkpt lat="42.14504" lon="2.38996">
        <ele>666.4</ele>
        <time>2019-04-12T04:45:29Z</time>
      </trkpt>
      <trkpt lat="42.14501" lon="2.39001">
        <ele>666.6</ele>
        <time>2019-04-12T04:45:31Z</time>
      </trkpt>
      <trkpt lat="42.14499" lon="2.39008">
        <ele>666.4</ele>
        <time>2019-04-12T04:45:33Z</time>
      </trkpt>
      <trkpt lat="42.14497" lon="2.39014">
        <ele>665.5</ele>
        <time>2019-04-12T04:45:35Z</time>
      </trkpt>
      <trkpt lat="42.14495" lon="2.39022">
        <ele>663.7</ele>
        <time>2019-04-12T04:45:38Z</time>
      </trkpt>
      <trkpt lat="42.14494" lon="2.39031">
        <ele>664.1</ele>
        <time>2019-04-12T04:45:40Z</time>
      </trkpt>
      <trkpt lat="42.14492" lon="2.39038">
        <ele>664.3</ele>
        <time>2019-04-12T04:45:43Z</time>
      </trkpt>
      <trkpt lat="42.14489" lon="2.39043">
        <ele>664.4</ele>
        <time>2019-04-12T04:45:44Z</time>
      </trkpt>
      <trkpt lat="42.14487" lon="2.3905">
        <ele>663.9</ele>
        <time>2019-04-12T04:45:47Z</time>
      </trkpt>
      <trkpt lat="42.14485" lon="2.39061">
        <ele>665</ele>
        <time>2019-04-12T04:45:50Z</time>
      </trkpt>
      <trkpt lat="42.14482" lon="2.39068">
        <ele>665.1</ele>
        <time>2019-04-12T04:45:52Z</time>
      </trkpt>
      <trkpt lat="42.14479" lon="2.39073">
        <ele>665.7</ele>
        <time>2019-04-12T04:45:54Z</time>
      </trkpt>
      <trkpt lat="42.14478" lon="2.3908">
        <ele>666.8</ele>
        <time>2019-04-12T04:45:56Z</time>
      </trkpt>
      <trkpt lat="42.14477" lon="2.39088">
        <ele>667.3</ele>
        <time>2019-04-12T04:45:59Z</time>
      </trkpt>
      <trkpt lat="42.14476" lon="2.39094">
        <ele>667.5</ele>
        <time>2019-04-12T04:46:01Z</time>
      </trkpt>
      <trkpt lat="42.14474" lon="2.391">
        <ele>665.2</ele>
        <time>2019-04-12T04:46:03Z</time>
      </trkpt>
      <trkpt lat="42.14471" lon="2.39105">
        <ele>661.2</ele>
        <time>2019-04-12T04:46:05Z</time>
      </trkpt>
      <trkpt lat="42.14467" lon="2.39109">
        <ele>657.4</ele>
        <time>2019-04-12T04:46:07Z</time>
      </trkpt>
      <trkpt lat="42.14464" lon="2.39115">
        <ele>655</ele>
        <time>2019-04-12T04:46:09Z</time>
      </trkpt>
      <trkpt lat="42.14463" lon="2.39122">
        <ele>651.8</ele>
        <time>2019-04-12T04:46:11Z</time>
      </trkpt>
      <trkpt lat="42.14461" lon="2.39129">
        <ele>649.6</ele>
        <time>2019-04-12T04:46:13Z</time>
      </trkpt>
      <trkpt lat="42.14459" lon="2.39135">
        <ele>648.9</ele>
        <time>2019-04-12T04:46:15Z</time>
      </trkpt>
      <trkpt lat="42.14457" lon="2.39142">
        <ele>646.8</ele>
        <time>2019-04-12T04:46:17Z</time>
      </trkpt>
      <trkpt lat="42.14455" lon="2.39149">
        <ele>645.3</ele>
        <time>2019-04-12T04:46:20Z</time>
      </trkpt>
      <trkpt lat="42.14454" lon="2.39156">
        <ele>644.4</ele>
        <time>2019-04-12T04:46:22Z</time>
      </trkpt>
      <trkpt lat="42.14452" lon="2.39161">
        <ele>643.9</ele>
        <time>2019-04-12T04:46:23Z</time>
      </trkpt>
      <trkpt lat="42.1445" lon="2.39166">
        <ele>643.9</ele>
        <time>2019-04-12T04:46:25Z</time>
      </trkpt>
      <trkpt lat="42.14449" lon="2.39173">
        <ele>643.3</ele>
        <time>2019-04-12T04:46:27Z</time>
      </trkpt>
      <trkpt lat="42.14446" lon="2.39178">
        <ele>644.1</ele>
        <time>2019-04-12T04:46:29Z</time>
      </trkpt>
      <trkpt lat="42.14443" lon="2.39184">
        <ele>645.5</ele>
        <time>2019-04-12T04:46:31Z</time>
      </trkpt>
      <trkpt lat="42.14441" lon="2.3919">
        <ele>646.4</ele>
        <time>2019-04-12T04:46:33Z</time>
      </trkpt>
      <trkpt lat="42.14441" lon="2.39197">
        <ele>645.5</ele>
        <time>2019-04-12T04:46:35Z</time>
      </trkpt>
      <trkpt lat="42.14444" lon="2.39207">
        <ele>645.2</ele>
        <time>2019-04-12T04:46:38Z</time>
      </trkpt>
      <trkpt lat="42.14443" lon="2.39213">
        <ele>644.7</ele>
        <time>2019-04-12T04:46:40Z</time>
      </trkpt>
      <trkpt lat="42.14442" lon="2.39221">
        <ele>643.8</ele>
        <time>2019-04-12T04:46:42Z</time>
      </trkpt>
      <trkpt lat="42.14441" lon="2.39227">
        <ele>643.3</ele>
        <time>2019-04-12T04:46:44Z</time>
      </trkpt>
      <trkpt lat="42.14441" lon="2.39234">
        <ele>642.3</ele>
        <time>2019-04-12T04:46:46Z</time>
      </trkpt>
      <trkpt lat="42.14441" lon="2.39242">
        <ele>642.5</ele>
        <time>2019-04-12T04:46:49Z</time>
      </trkpt>
      <trkpt lat="42.14442" lon="2.39249">
        <ele>642.4</ele>
        <time>2019-04-12T04:46:51Z</time>
      </trkpt>
      <trkpt lat="42.14442" lon="2.39256">
        <ele>642.8</ele>
        <time>2019-04-12T04:46:53Z</time>
      </trkpt>
      <trkpt lat="42.14441" lon="2.39264">
        <ele>643.6</ele>
        <time>2019-04-12T04:46:55Z</time>
      </trkpt>
      <trkpt lat="42.14441" lon="2.39271">
        <ele>643.5</ele>
        <time>2019-04-12T04:46:57Z</time>
      </trkpt>
      <trkpt lat="42.14441" lon="2.39278">
        <ele>643.2</ele>
        <time>2019-04-12T04:47:00Z</time>
      </trkpt>
      <trkpt lat="42.14441" lon="2.39284">
        <ele>643.6</ele>
        <time>2019-04-12T04:47:01Z</time>
      </trkpt>
      <trkpt lat="42.1444" lon="2.39291">
        <ele>644</ele>
        <time>2019-04-12T04:47:03Z</time>
      </trkpt>
      <trkpt lat="42.14442" lon="2.39298">
        <ele>644</ele>
        <time>2019-04-12T04:47:06Z</time>
      </trkpt>
      <trkpt lat="42.14444" lon="2.39304">
        <ele>644.1</ele>
        <time>2019-04-12T04:47:07Z</time>
      </trkpt>
      <trkpt lat="42.14444" lon="2.3931">
        <ele>644.9</ele>
        <time>2019-04-12T04:47:09Z</time>
      </trkpt>
      <trkpt lat="42.14444" lon="2.39318">
        <ele>646.2</ele>
        <time>2019-04-12T04:47:12Z</time>
      </trkpt>
      <trkpt lat="42.14443" lon="2.39325">
        <ele>646.2</ele>
        <time>2019-04-12T04:47:14Z</time>
      </trkpt>
      <trkpt lat="42.1444" lon="2.39331">
        <ele>645.1</ele>
        <time>2019-04-12T04:47:16Z</time>
      </trkpt>
      <trkpt lat="42.14436" lon="2.39335">
        <ele>643.9</ele>
        <time>2019-04-12T04:47:18Z</time>
      </trkpt>
      <trkpt lat="42.14435" lon="2.39343">
        <ele>643.3</ele>
        <time>2019-04-12T04:47:20Z</time>
      </trkpt>
      <trkpt lat="42.14434" lon="2.39349">
        <ele>642.3</ele>
        <time>2019-04-12T04:47:22Z</time>
      </trkpt>
      <trkpt lat="42.14433" lon="2.39357">
        <ele>640.6</ele>
        <time>2019-04-12T04:47:25Z</time>
      </trkpt>
      <trkpt lat="42.1443" lon="2.39362">
        <ele>639.8</ele>
        <time>2019-04-12T04:47:26Z</time>
      </trkpt>
      <trkpt lat="42.14429" lon="2.39371">
        <ele>639.2</ele>
        <time>2019-04-12T04:47:29Z</time>
      </trkpt>
      <trkpt lat="42.14428" lon="2.39378">
        <ele>638.6</ele>
        <time>2019-04-12T04:47:31Z</time>
      </trkpt>
      <trkpt lat="42.14431" lon="2.39386">
        <ele>637.2</ele>
        <time>2019-04-12T04:47:34Z</time>
      </trkpt>
      <trkpt lat="42.14436" lon="2.39389">
        <ele>636.2</ele>
        <time>2019-04-12T04:47:36Z</time>
      </trkpt>
      <trkpt lat="42.14442" lon="2.39388">
        <ele>636.3</ele>
        <time>2019-04-12T04:47:38Z</time>
      </trkpt>
      <trkpt lat="42.14447" lon="2.39388">
        <ele>636</ele>
        <time>2019-04-12T04:47:41Z</time>
      </trkpt>
      <trkpt lat="42.14451" lon="2.39386">
        <ele>634.9</ele>
        <time>2019-04-12T04:47:42Z</time>
      </trkpt>
      <trkpt lat="42.14456" lon="2.39383">
        <ele>634.4</ele>
        <time>2019-04-12T04:47:44Z</time>
      </trkpt>
      <trkpt lat="42.1446" lon="2.39381">
        <ele>633</ele>
        <time>2019-04-12T04:47:46Z</time>
      </trkpt>
      <trkpt lat="42.14465" lon="2.39379">
        <ele>629.7</ele>
        <time>2019-04-12T04:47:48Z</time>
      </trkpt>
      <trkpt lat="42.14468" lon="2.39385">
        <ele>625.7</ele>
        <time>2019-04-12T04:47:50Z</time>
      </trkpt>
      <trkpt lat="42.14465" lon="2.39391">
        <ele>621.8</ele>
        <time>2019-04-12T04:47:53Z</time>
      </trkpt>
      <trkpt lat="42.14469" lon="2.39387">
        <ele>618.4</ele>
        <time>2019-04-12T04:47:55Z</time>
      </trkpt>
      <trkpt lat="42.14474" lon="2.39389">
        <ele>618.7</ele>
        <time>2019-04-12T04:47:57Z</time>
      </trkpt>
      <trkpt lat="42.14476" lon="2.39396">
        <ele>618</ele>
        <time>2019-04-12T04:47:59Z</time>
      </trkpt>
      <trkpt lat="42.14477" lon="2.39404">
        <ele>617.6</ele>
        <time>2019-04-12T04:48:01Z</time>
      </trkpt>
      <trkpt lat="42.14469" lon="2.39388">
        <ele>607.8</ele>
        <time>2019-04-12T05:46:28Z</time>
      </trkpt>
      <trkpt lat="42.14468" lon="2.3939">
        <ele>607.7</ele>
        <time>2019-04-12T05:46:28Z</time>
      </trkpt>
      <trkpt lat="42.14466" lon="2.39393">
        <ele>607.7</ele>
        <time>2019-04-12T05:46:30Z</time>
      </trkpt>
      <trkpt lat="42.14465" lon="2.39395">
        <ele>607.7</ele>
        <time>2019-04-12T05:46:30Z</time>
      </trkpt>
      <trkpt lat="42.14462" lon="2.39399">
        <ele>608.3</ele>
        <time>2019-04-12T05:46:32Z</time>
      </trkpt>
      <trkpt lat="42.14461" lon="2.39399">
        <ele>608.2</ele>
        <time>2019-04-12T05:46:32Z</time>
      </trkpt>
      <trkpt lat="42.14457" lon="2.39398">
        <ele>608.5</ele>
        <time>2019-04-12T05:46:34Z</time>
      </trkpt>
      <trkpt lat="42.14455" lon="2.39398">
        <ele>608.7</ele>
        <time>2019-04-12T05:46:35Z</time>
      </trkpt>
      <trkpt lat="42.14449" lon="2.394">
        <ele>609.5</ele>
        <time>2019-04-12T05:46:37Z</time>
      </trkpt>
      <trkpt lat="42.14446" lon="2.39401">
        <ele>610.1</ele>
        <time>2019-04-12T05:46:38Z</time>
      </trkpt>
      <trkpt lat="42.14441" lon="2.39403">
        <ele>611</ele>
        <time>2019-04-12T05:46:40Z</time>
      </trkpt>
      <trkpt lat="42.14441" lon="2.39402">
        <ele>611.3</ele>
        <time>2019-04-12T05:46:40Z</time>
      </trkpt>
      <trkpt lat="42.1444" lon="2.39402">
        <ele>611.5</ele>
        <time>2019-04-12T05:46:41Z</time>
      </trkpt>
      <trkpt lat="42.14437" lon="2.39402">
        <ele>612</ele>
        <time>2019-04-12T05:46:42Z</time>
      </trkpt>
      <trkpt lat="42.14436" lon="2.39402">
        <ele>612</ele>
        <time>2019-04-12T05:46:42Z</time>
      </trkpt>
      <trkpt lat="42.14435" lon="2.39402">
        <ele>612.2</ele>
        <time>2019-04-12T05:46:43Z</time>
      </trkpt>
      <trkpt lat="42.14429" lon="2.394">
        <ele>613.1</ele>
        <time>2019-04-12T05:46:45Z</time>
      </trkpt>
      <trkpt lat="42.14424" lon="2.39399">
        <ele>613.4</ele>
        <time>2019-04-12T05:46:47Z</time>
      </trkpt>
      <trkpt lat="42.14422" lon="2.39396">
        <ele>614.5</ele>
        <time>2019-04-12T05:46:48Z</time>
      </trkpt>
      <trkpt lat="42.14421" lon="2.39395">
        <ele>614.5</ele>
        <time>2019-04-12T05:46:49Z</time>
      </trkpt>
      <trkpt lat="42.14418" lon="2.39389">
        <ele>615.4</ele>
        <time>2019-04-12T05:46:51Z</time>
      </trkpt>
      <trkpt lat="42.14418" lon="2.39388">
        <ele>615.5</ele>
        <time>2019-04-12T05:46:51Z</time>
      </trkpt>
      <trkpt lat="42.14417" lon="2.39387">
        <ele>616.1</ele>
        <time>2019-04-12T05:46:52Z</time>
      </trkpt>
      <trkpt lat="42.14415" lon="2.39387">
        <ele>616.4</ele>
        <time>2019-04-12T05:46:53Z</time>
      </trkpt>
      <trkpt lat="42.14414" lon="2.39387">
        <ele>616.6</ele>
        <time>2019-04-12T05:46:53Z</time>
      </trkpt>
      <trkpt lat="42.14413" lon="2.39387">
        <ele>617.2</ele>
        <time>2019-04-12T05:46:54Z</time>
      </trkpt>
      <trkpt lat="42.14411" lon="2.39388">
        <ele>617.5</ele>
        <time>2019-04-12T05:46:54Z</time>
      </trkpt>
      <trkpt lat="42.1441" lon="2.39388">
        <ele>617.7</ele>
        <time>2019-04-12T05:46:55Z</time>
      </trkpt>
      <trkpt lat="42.14409" lon="2.3939">
        <ele>617.7</ele>
        <time>2019-04-12T05:46:55Z</time>
      </trkpt>
      <trkpt lat="42.14407" lon="2.3939">
        <ele>618</ele>
        <time>2019-04-12T05:46:56Z</time>
      </trkpt>
      <trkpt lat="42.14403" lon="2.39392">
        <ele>617.8</ele>
        <time>2019-04-12T05:46:58Z</time>
      </trkpt>
      <trkpt lat="42.14402" lon="2.39393">
        <ele>617.7</ele>
        <time>2019-04-12T05:46:58Z</time>
      </trkpt>
      <trkpt lat="42.14401" lon="2.39394">
        <ele>617.7</ele>
        <time>2019-04-12T05:46:59Z</time>
      </trkpt>
      <trkpt lat="42.14399" lon="2.39396">
        <ele>617.7</ele>
        <time>2019-04-12T05:47:00Z</time>
      </trkpt>
      <trkpt lat="42.14399" lon="2.39396">
        <ele>617.8</ele>
        <time>2019-04-12T05:47:00Z</time>
      </trkpt>
      <trkpt lat="42.14397" lon="2.39396">
        <ele>618.3</ele>
        <time>2019-04-12T05:47:01Z</time>
      </trkpt>
      <trkpt lat="42.14395" lon="2.39395">
        <ele>618.6</ele>
        <time>2019-04-12T05:47:01Z</time>
      </trkpt>
      <trkpt lat="42.14394" lon="2.39395">
        <ele>618.8</ele>
        <time>2019-04-12T05:47:02Z</time>
      </trkpt>
      <trkpt lat="42.1439" lon="2.39397">
        <ele>619.5</ele>
        <time>2019-04-12T05:47:04Z</time>
      </trkpt>
      <trkpt lat="42.14388" lon="2.39397">
        <ele>620</ele>
        <time>2019-04-12T05:47:04Z</time>
      </trkpt>
      <trkpt lat="42.14387" lon="2.39398">
        <ele>620.2</ele>
        <time>2019-04-12T05:47:05Z</time>
      </trkpt>
      <trkpt lat="42.14385" lon="2.394">
        <ele>621</ele>
        <time>2019-04-12T05:47:06Z</time>
      </trkpt>
      <trkpt lat="42.14384" lon="2.39402">
        <ele>621.2</ele>
        <time>2019-04-12T05:47:06Z</time>
      </trkpt>
      <trkpt lat="42.14384" lon="2.39403">
        <ele>621.4</ele>
        <time>2019-04-12T05:47:06Z</time>
      </trkpt>
      <trkpt lat="42.14383" lon="2.39404">
        <ele>621.7</ele>
        <time>2019-04-12T05:47:07Z</time>
      </trkpt>
      <trkpt lat="42.14384" lon="2.39408">
        <ele>622.2</ele>
        <time>2019-04-12T05:47:08Z</time>
      </trkpt>
      <trkpt lat="42.14384" lon="2.39409">
        <ele>622.5</ele>
        <time>2019-04-12T05:47:09Z</time>
      </trkpt>
      <trkpt lat="42.14383" lon="2.3941">
        <ele>622.6</ele>
        <time>2019-04-12T05:47:09Z</time>
      </trkpt>
      <trkpt lat="42.14381" lon="2.39409">
        <ele>622.7</ele>
        <time>2019-04-12T05:47:10Z</time>
      </trkpt>
      <trkpt lat="42.14378" lon="2.39414">
        <ele>623.2</ele>
        <time>2019-04-12T05:47:11Z</time>
      </trkpt>
      <trkpt lat="42.14378" lon="2.39414">
        <ele>623.5</ele>
        <time>2019-04-12T05:47:12Z</time>
      </trkpt>
      <trkpt lat="42.14377" lon="2.39417">
        <ele>624.2</ele>
        <time>2019-04-12T05:47:12Z</time>
      </trkpt>
      <trkpt lat="42.14376" lon="2.39417">
        <ele>624.5</ele>
        <time>2019-04-12T05:47:13Z</time>
      </trkpt>
      <trkpt lat="42.14375" lon="2.39417">
        <ele>624.4</ele>
        <time>2019-04-12T05:47:13Z</time>
      </trkpt>
      <trkpt lat="42.14373" lon="2.39417">
        <ele>624.5</ele>
        <time>2019-04-12T05:47:14Z</time>
      </trkpt>
      <trkpt lat="42.14372" lon="2.39418">
        <ele>624.7</ele>
        <time>2019-04-12T05:47:15Z</time>
      </trkpt>
      <trkpt lat="42.14368" lon="2.3942">
        <ele>625</ele>
        <time>2019-04-12T05:47:16Z</time>
      </trkpt>
      <trkpt lat="42.14366" lon="2.39421">
        <ele>625.4</ele>
        <time>2019-04-12T05:47:17Z</time>
      </trkpt>
      <trkpt lat="42.14365" lon="2.39421">
        <ele>625.6</ele>
        <time>2019-04-12T05:47:17Z</time>
      </trkpt>
      <trkpt lat="42.14363" lon="2.3942">
        <ele>626</ele>
        <time>2019-04-12T05:47:18Z</time>
      </trkpt>
      <trkpt lat="42.14363" lon="2.3942">
        <ele>626.3</ele>
        <time>2019-04-12T05:47:18Z</time>
      </trkpt>
      <trkpt lat="42.14362" lon="2.39419">
        <ele>626.5</ele>
        <time>2019-04-12T05:47:19Z</time>
      </trkpt>
      <trkpt lat="42.14362" lon="2.39419">
        <ele>626.5</ele>
        <time>2019-04-12T05:47:19Z</time>
      </trkpt>
      <trkpt lat="42.1436" lon="2.39421">
        <ele>627</ele>
        <time>2019-04-12T05:47:20Z</time>
      </trkpt>
      <trkpt lat="42.1436" lon="2.39421">
        <ele>627.3</ele>
        <time>2019-04-12T05:47:20Z</time>
      </trkpt>
      <trkpt lat="42.1436" lon="2.39422">
        <ele>627.4</ele>
        <time>2019-04-12T05:47:20Z</time>
      </trkpt>
      <trkpt lat="42.1436" lon="2.39423">
        <ele>628</ele>
        <time>2019-04-12T05:47:20Z</time>
      </trkpt>
      <trkpt lat="42.1436" lon="2.39424">
        <ele>628.3</ele>
        <time>2019-04-12T05:47:21Z</time>
      </trkpt>
      <trkpt lat="42.14358" lon="2.39425">
        <ele>628.6</ele>
        <time>2019-04-12T05:47:22Z</time>
      </trkpt>
      <trkpt lat="42.14355" lon="2.39425">
        <ele>628.8</ele>
        <time>2019-04-12T05:47:23Z</time>
      </trkpt>
      <trkpt lat="42.14355" lon="2.39426">
        <ele>628.7</ele>
        <time>2019-04-12T05:47:23Z</time>
      </trkpt>
      <trkpt lat="42.14351" lon="2.39429">
        <ele>629.8</ele>
        <time>2019-04-12T05:47:25Z</time>
      </trkpt>
      <trkpt lat="42.14349" lon="2.39429">
        <ele>630</ele>
        <time>2019-04-12T05:47:25Z</time>
      </trkpt>
      <trkpt lat="42.14346" lon="2.39432">
        <ele>630.5</ele>
        <time>2019-04-12T05:47:27Z</time>
      </trkpt>
      <trkpt lat="42.14343" lon="2.39436">
        <ele>630.7</ele>
        <time>2019-04-12T05:47:28Z</time>
      </trkpt>
      <trkpt lat="42.14343" lon="2.39435">
        <ele>630.7</ele>
        <time>2019-04-12T05:47:28Z</time>
      </trkpt>
      <trkpt lat="42.14342" lon="2.39437">
        <ele>631.5</ele>
        <time>2019-04-12T05:47:29Z</time>
      </trkpt>
      <trkpt lat="42.14343" lon="2.39438">
        <ele>631.7</ele>
        <time>2019-04-12T05:47:29Z</time>
      </trkpt>
      <trkpt lat="42.14343" lon="2.39438">
        <ele>632</ele>
        <time>2019-04-12T05:47:29Z</time>
      </trkpt>
      <trkpt lat="42.14342" lon="2.39439">
        <ele>632.4</ele>
        <time>2019-04-12T05:47:30Z</time>
      </trkpt>
      <trkpt lat="42.14342" lon="2.3944">
        <ele>632.8</ele>
        <time>2019-04-12T05:47:30Z</time>
      </trkpt>
      <trkpt lat="42.14342" lon="2.39441">
        <ele>633</ele>
        <time>2019-04-12T05:47:30Z</time>
      </trkpt>
      <trkpt lat="42.14341" lon="2.39441">
        <ele>633.5</ele>
        <time>2019-04-12T05:47:30Z</time>
      </trkpt>
      <trkpt lat="42.14341" lon="2.39441">
        <ele>633.6</ele>
        <time>2019-04-12T05:47:31Z</time>
      </trkpt>
      <trkpt lat="42.14341" lon="2.39441">
        <ele>633.8</ele>
        <time>2019-04-12T05:47:31Z</time>
      </trkpt>
      <trkpt lat="42.14341" lon="2.39442">
        <ele>634.2</ele>
        <time>2019-04-12T05:47:31Z</time>
      </trkpt>
      <trkpt lat="42.14342" lon="2.39443">
        <ele>635.2</ele>
        <time>2019-04-12T05:47:31Z</time>
      </trkpt>
      <trkpt lat="42.14342" lon="2.39443">
        <ele>635.5</ele>
        <time>2019-04-12T05:47:32Z</time>
      </trkpt>
      <trkpt lat="42.14343" lon="2.39445">
        <ele>635.8</ele>
        <time>2019-04-12T05:47:32Z</time>
      </trkpt>
      <trkpt lat="42.14342" lon="2.39449">
        <ele>636.5</ele>
        <time>2019-04-12T05:47:33Z</time>
      </trkpt>
      <trkpt lat="42.1434" lon="2.39452">
        <ele>637.6</ele>
        <time>2019-04-12T05:47:35Z</time>
      </trkpt>
      <trkpt lat="42.14335" lon="2.39454">
        <ele>638.7</ele>
        <time>2019-04-12T05:47:37Z</time>
      </trkpt>
      <trkpt lat="42.14328" lon="2.39456">
        <ele>639.7</ele>
        <time>2019-04-12T05:47:39Z</time>
      </trkpt>
      <trkpt lat="42.14328" lon="2.39456">
        <ele>640.1</ele>
        <time>2019-04-12T05:47:40Z</time>
      </trkpt>
      <trkpt lat="42.14326" lon="2.39457">
        <ele>640</ele>
        <time>2019-04-12T05:47:40Z</time>
      </trkpt>
      <trkpt lat="42.14325" lon="2.39457">
        <ele>640.2</ele>
        <time>2019-04-12T05:47:41Z</time>
      </trkpt>
      <trkpt lat="42.14324" lon="2.39457">
        <ele>640.3</ele>
        <time>2019-04-12T05:47:41Z</time>
      </trkpt>
      <trkpt lat="42.14322" lon="2.39458">
        <ele>640.6</ele>
        <time>2019-04-12T05:47:42Z</time>
      </trkpt>
      <trkpt lat="42.14321" lon="2.39459">
        <ele>640.7</ele>
        <time>2019-04-12T05:47:42Z</time>
      </trkpt>
      <trkpt lat="42.1432" lon="2.39459">
        <ele>641</ele>
        <time>2019-04-12T05:47:43Z</time>
      </trkpt>
      <trkpt lat="42.14317" lon="2.39458">
        <ele>641.4</ele>
        <time>2019-04-12T05:47:44Z</time>
      </trkpt>
      <trkpt lat="42.14315" lon="2.39456">
        <ele>641.7</ele>
        <time>2019-04-12T05:47:45Z</time>
      </trkpt>
      <trkpt lat="42.14312" lon="2.39456">
        <ele>642.3</ele>
        <time>2019-04-12T05:47:46Z</time>
      </trkpt>
      <trkpt lat="42.1431" lon="2.39455">
        <ele>642.8</ele>
        <time>2019-04-12T05:47:47Z</time>
      </trkpt>
      <trkpt lat="42.14306" lon="2.39455">
        <ele>643.1</ele>
        <time>2019-04-12T05:47:49Z</time>
      </trkpt>
      <trkpt lat="42.14304" lon="2.39456">
        <ele>643.1</ele>
        <time>2019-04-12T05:47:49Z</time>
      </trkpt>
      <trkpt lat="42.14303" lon="2.39456">
        <ele>643.2</ele>
        <time>2019-04-12T05:47:50Z</time>
      </trkpt>
      <trkpt lat="42.14302" lon="2.39456">
        <ele>643.8</ele>
        <time>2019-04-12T05:47:51Z</time>
      </trkpt>
      <trkpt lat="42.143" lon="2.39456">
        <ele>644.5</ele>
        <time>2019-04-12T05:47:51Z</time>
      </trkpt>
      <trkpt lat="42.14298" lon="2.39457">
        <ele>644.6</ele>
        <time>2019-04-12T05:47:52Z</time>
      </trkpt>
      <trkpt lat="42.14297" lon="2.39457">
        <ele>644.7</ele>
        <time>2019-04-12T05:47:53Z</time>
      </trkpt>
      <trkpt lat="42.14294" lon="2.39456">
        <ele>645.4</ele>
        <time>2019-04-12T05:47:54Z</time>
      </trkpt>
      <trkpt lat="42.14293" lon="2.39455">
        <ele>645.5</ele>
        <time>2019-04-12T05:47:54Z</time>
      </trkpt>
      <trkpt lat="42.14291" lon="2.39455">
        <ele>645.8</ele>
        <time>2019-04-12T05:47:55Z</time>
      </trkpt>
      <trkpt lat="42.14291" lon="2.39454">
        <ele>646</ele>
        <time>2019-04-12T05:47:55Z</time>
      </trkpt>
      <trkpt lat="42.14289" lon="2.39455">
        <ele>646.5</ele>
        <time>2019-04-12T05:47:56Z</time>
      </trkpt>
      <trkpt lat="42.14287" lon="2.39455">
        <ele>646.5</ele>
        <time>2019-04-12T05:47:56Z</time>
      </trkpt>
      <trkpt lat="42.14286" lon="2.39454">
        <ele>646.6</ele>
        <time>2019-04-12T05:47:57Z</time>
      </trkpt>
      <trkpt lat="42.14282" lon="2.39452">
        <ele>647</ele>
        <time>2019-04-12T05:47:59Z</time>
      </trkpt>
      <trkpt lat="42.14279" lon="2.39451">
        <ele>647.6</ele>
        <time>2019-04-12T05:48:00Z</time>
      </trkpt>
      <trkpt lat="42.14275" lon="2.3945">
        <ele>648.1</ele>
        <time>2019-04-12T05:48:01Z</time>
      </trkpt>
      <trkpt lat="42.14275" lon="2.39449">
        <ele>648.3</ele>
        <time>2019-04-12T05:48:02Z</time>
      </trkpt>
      <trkpt lat="42.14273" lon="2.39448">
        <ele>648.5</ele>
        <time>2019-04-12T05:48:03Z</time>
      </trkpt>
      <trkpt lat="42.14271" lon="2.39446">
        <ele>648.7</ele>
        <time>2019-04-12T05:48:03Z</time>
      </trkpt>
      <trkpt lat="42.14271" lon="2.39446">
        <ele>649</ele>
        <time>2019-04-12T05:48:04Z</time>
      </trkpt>
      <trkpt lat="42.1427" lon="2.39445">
        <ele>649.4</ele>
        <time>2019-04-12T05:48:04Z</time>
      </trkpt>
      <trkpt lat="42.14268" lon="2.39444">
        <ele>649.7</ele>
        <time>2019-04-12T05:48:05Z</time>
      </trkpt>
      <trkpt lat="42.14267" lon="2.39444">
        <ele>649.8</ele>
        <time>2019-04-12T05:48:05Z</time>
      </trkpt>
      <trkpt lat="42.14267" lon="2.39443">
        <ele>650.1</ele>
        <time>2019-04-12T05:48:06Z</time>
      </trkpt>
      <trkpt lat="42.14266" lon="2.39441">
        <ele>650.8</ele>
        <time>2019-04-12T05:48:06Z</time>
      </trkpt>
      <trkpt lat="42.14265" lon="2.39443">
        <ele>651.6</ele>
        <time>2019-04-12T05:48:07Z</time>
      </trkpt>
      <trkpt lat="42.14264" lon="2.39443">
        <ele>651.8</ele>
        <time>2019-04-12T05:48:07Z</time>
      </trkpt>
      <trkpt lat="42.14263" lon="2.39443">
        <ele>652.1</ele>
        <time>2019-04-12T05:48:07Z</time>
      </trkpt>
      <trkpt lat="42.14262" lon="2.39444">
        <ele>652.5</ele>
        <time>2019-04-12T05:48:08Z</time>
      </trkpt>
      <trkpt lat="42.14261" lon="2.39444">
        <ele>653.2</ele>
        <time>2019-04-12T05:48:08Z</time>
      </trkpt>
      <trkpt lat="42.1426" lon="2.39444">
        <ele>653.4</ele>
        <time>2019-04-12T05:48:09Z</time>
      </trkpt>
      <trkpt lat="42.14258" lon="2.39443">
        <ele>653.8</ele>
        <time>2019-04-12T05:48:10Z</time>
      </trkpt>
      <trkpt lat="42.14256" lon="2.39443">
        <ele>654.4</ele>
        <time>2019-04-12T05:48:10Z</time>
      </trkpt>
      <trkpt lat="42.14255" lon="2.39443">
        <ele>655</ele>
        <time>2019-04-12T05:48:11Z</time>
      </trkpt>
      <trkpt lat="42.14254" lon="2.39443">
        <ele>655.3</ele>
        <time>2019-04-12T05:48:11Z</time>
      </trkpt>
      <trkpt lat="42.14254" lon="2.39443">
        <ele>655.6</ele>
        <time>2019-04-12T05:48:11Z</time>
      </trkpt>
      <trkpt lat="42.14254" lon="2.39443">
        <ele>655.7</ele>
        <time>2019-04-12T05:48:11Z</time>
      </trkpt>
      <trkpt lat="42.14254" lon="2.39443">
        <ele>656.2</ele>
        <time>2019-04-12T05:48:12Z</time>
      </trkpt>
      <trkpt lat="42.14253" lon="2.39444">
        <ele>656.5</ele>
        <time>2019-04-12T05:48:12Z</time>
      </trkpt>
      <trkpt lat="42.14253" lon="2.39445">
        <ele>656.8</ele>
        <time>2019-04-12T05:48:12Z</time>
      </trkpt>
      <trkpt lat="42.1425" lon="2.39445">
        <ele>657.4</ele>
        <time>2019-04-12T05:48:13Z</time>
      </trkpt>
      <trkpt lat="42.14249" lon="2.39445">
        <ele>657.5</ele>
        <time>2019-04-12T05:48:13Z</time>
      </trkpt>
      <trkpt lat="42.14249" lon="2.39444">
        <ele>657.7</ele>
        <time>2019-04-12T05:48:14Z</time>
      </trkpt>
      <trkpt lat="42.14245" lon="2.39446">
        <ele>658.8</ele>
        <time>2019-04-12T05:48:15Z</time>
      </trkpt>
      <trkpt lat="42.14243" lon="2.39448">
        <ele>659.5</ele>
        <time>2019-04-12T05:48:16Z</time>
      </trkpt>
      <trkpt lat="42.14241" lon="2.39449">
        <ele>660.1</ele>
        <time>2019-04-12T05:48:17Z</time>
      </trkpt>
      <trkpt lat="42.14237" lon="2.39451">
        <ele>661</ele>
        <time>2019-04-12T05:48:19Z</time>
      </trkpt>
      <trkpt lat="42.14236" lon="2.3945">
        <ele>661.2</ele>
        <time>2019-04-12T05:48:19Z</time>
      </trkpt>
      <trkpt lat="42.14231" lon="2.39454">
        <ele>662.1</ele>
        <time>2019-04-12T05:48:21Z</time>
      </trkpt>
      <trkpt lat="42.1423" lon="2.39454">
        <ele>662.1</ele>
        <time>2019-04-12T05:48:22Z</time>
      </trkpt>
      <trkpt lat="42.14222" lon="2.39456">
        <ele>663.2</ele>
        <time>2019-04-12T05:48:25Z</time>
      </trkpt>
      <trkpt lat="42.14221" lon="2.39456">
        <ele>663.5</ele>
        <time>2019-04-12T05:48:25Z</time>
      </trkpt>
      <trkpt lat="42.14219" lon="2.39455">
        <ele>663.7</ele>
        <time>2019-04-12T05:48:26Z</time>
      </trkpt>
      <trkpt lat="42.14219" lon="2.39455">
        <ele>664</ele>
        <time>2019-04-12T05:48:27Z</time>
      </trkpt>
      <trkpt lat="42.14217" lon="2.39455">
        <ele>664.4</ele>
        <time>2019-04-12T05:48:27Z</time>
      </trkpt>
      <trkpt lat="42.14216" lon="2.39455">
        <ele>664.8</ele>
        <time>2019-04-12T05:48:28Z</time>
      </trkpt>
      <trkpt lat="42.14212" lon="2.39454">
        <ele>665.5</ele>
        <time>2019-04-12T05:48:29Z</time>
      </trkpt>
      <trkpt lat="42.14211" lon="2.39454">
        <ele>665.6</ele>
        <time>2019-04-12T05:48:30Z</time>
      </trkpt>
      <trkpt lat="42.1421" lon="2.39454">
        <ele>665.8</ele>
        <time>2019-04-12T05:48:30Z</time>
      </trkpt>
      <trkpt lat="42.14207" lon="2.39454">
        <ele>666.1</ele>
        <time>2019-04-12T05:48:31Z</time>
      </trkpt>
      <trkpt lat="42.14205" lon="2.39454">
        <ele>666.4</ele>
        <time>2019-04-12T05:48:32Z</time>
      </trkpt>
      <trkpt lat="42.14204" lon="2.39454">
        <ele>666.6</ele>
        <time>2019-04-12T05:48:32Z</time>
      </trkpt>
      <trkpt lat="42.14204" lon="2.39454">
        <ele>666.7</ele>
        <time>2019-04-12T05:48:33Z</time>
      </trkpt>
      <trkpt lat="42.14203" lon="2.39454">
        <ele>667.1</ele>
        <time>2019-04-12T05:48:33Z</time>
      </trkpt>
      <trkpt lat="42.14202" lon="2.39455">
        <ele>667.2</ele>
        <time>2019-04-12T05:48:34Z</time>
      </trkpt>
      <trkpt lat="42.142" lon="2.39455">
        <ele>667.4</ele>
        <time>2019-04-12T05:48:34Z</time>
      </trkpt>
      <trkpt lat="42.14198" lon="2.39455">
        <ele>667.7</ele>
        <time>2019-04-12T05:48:35Z</time>
      </trkpt>
      <trkpt lat="42.14196" lon="2.39457">
        <ele>669</ele>
        <time>2019-04-12T05:48:36Z</time>
      </trkpt>
      <trkpt lat="42.14193" lon="2.39458">
        <ele>669.7</ele>
        <time>2019-04-12T05:48:37Z</time>
      </trkpt>
      <trkpt lat="42.14193" lon="2.39458">
        <ele>670</ele>
        <time>2019-04-12T05:48:37Z</time>
      </trkpt>
      <trkpt lat="42.14192" lon="2.39458">
        <ele>670.2</ele>
        <time>2019-04-12T05:48:38Z</time>
      </trkpt>
      <trkpt lat="42.1419" lon="2.39458">
        <ele>670.5</ele>
        <time>2019-04-12T05:48:38Z</time>
      </trkpt>
      <trkpt lat="42.14187" lon="2.39458">
        <ele>670.8</ele>
        <time>2019-04-12T05:48:40Z</time>
      </trkpt>
      <trkpt lat="42.14186" lon="2.39459">
        <ele>671.1</ele>
        <time>2019-04-12T05:48:40Z</time>
      </trkpt>
      <trkpt lat="42.14185" lon="2.3946">
        <ele>671</ele>
        <time>2019-04-12T05:48:40Z</time>
      </trkpt>
      <trkpt lat="42.14184" lon="2.3946">
        <ele>671.4</ele>
        <time>2019-04-12T05:48:41Z</time>
      </trkpt>
      <trkpt lat="42.14182" lon="2.3946">
        <ele>671.5</ele>
        <time>2019-04-12T05:48:42Z</time>
      </trkpt>
      <trkpt lat="42.1418" lon="2.3946">
        <ele>671.7</ele>
        <time>2019-04-12T05:48:42Z</time>
      </trkpt>
      <trkpt lat="42.14179" lon="2.39461">
        <ele>672.5</ele>
        <time>2019-04-12T05:48:43Z</time>
      </trkpt>
      <trkpt lat="42.14176" lon="2.39461">
        <ele>673.5</ele>
        <time>2019-04-12T05:48:44Z</time>
      </trkpt>
      <trkpt lat="42.14175" lon="2.39461">
        <ele>673.5</ele>
        <time>2019-04-12T05:48:45Z</time>
      </trkpt>
      <trkpt lat="42.14174" lon="2.39461">
        <ele>673.8</ele>
        <time>2019-04-12T05:48:45Z</time>
      </trkpt>
      <trkpt lat="42.14173" lon="2.39461">
        <ele>674</ele>
        <time>2019-04-12T05:48:45Z</time>
      </trkpt>
      <trkpt lat="42.1417" lon="2.39462">
        <ele>675</ele>
        <time>2019-04-12T05:48:46Z</time>
      </trkpt>
      <trkpt lat="42.14169" lon="2.39463">
        <ele>675.4</ele>
        <time>2019-04-12T05:48:47Z</time>
      </trkpt>
      <trkpt lat="42.14167" lon="2.39464">
        <ele>676.2</ele>
        <time>2019-04-12T05:48:48Z</time>
      </trkpt>
      <trkpt lat="42.14159" lon="2.39461">
        <ele>677.3</ele>
        <time>2019-04-12T05:48:51Z</time>
      </trkpt>
      <trkpt lat="42.14159" lon="2.3946">
        <ele>677.4</ele>
        <time>2019-04-12T05:48:52Z</time>
      </trkpt>
      <trkpt lat="42.14155" lon="2.39461">
        <ele>678.5</ele>
        <time>2019-04-12T05:48:53Z</time>
      </trkpt>
      <trkpt lat="42.14155" lon="2.39461">
        <ele>678.7</ele>
        <time>2019-04-12T05:48:53Z</time>
      </trkpt>
      <trkpt lat="42.14154" lon="2.3946">
        <ele>679.2</ele>
        <time>2019-04-12T05:48:54Z</time>
      </trkpt>
      <trkpt lat="42.14154" lon="2.39459">
        <ele>679.5</ele>
        <time>2019-04-12T05:48:54Z</time>
      </trkpt>
      <trkpt lat="42.14152" lon="2.39459">
        <ele>680.6</ele>
        <time>2019-04-12T05:48:55Z</time>
      </trkpt>
      <trkpt lat="42.14151" lon="2.39459">
        <ele>681</ele>
        <time>2019-04-12T05:48:55Z</time>
      </trkpt>
      <trkpt lat="42.14149" lon="2.39459">
        <ele>681.5</ele>
        <time>2019-04-12T05:48:56Z</time>
      </trkpt>
      <trkpt lat="42.14147" lon="2.39458">
        <ele>682.5</ele>
        <time>2019-04-12T05:48:56Z</time>
      </trkpt>
      <trkpt lat="42.14143" lon="2.39455">
        <ele>682.7</ele>
        <time>2019-04-12T05:48:58Z</time>
      </trkpt>
      <trkpt lat="42.14142" lon="2.39454">
        <ele>682.8</ele>
        <time>2019-04-12T05:48:59Z</time>
      </trkpt>
      <trkpt lat="42.14139" lon="2.39453">
        <ele>682.8</ele>
        <time>2019-04-12T05:49:00Z</time>
      </trkpt>
      <trkpt lat="42.14137" lon="2.39452">
        <ele>683.5</ele>
        <time>2019-04-12T05:49:01Z</time>
      </trkpt>
      <trkpt lat="42.14131" lon="2.39449">
        <ele>684.4</ele>
        <time>2019-04-12T05:49:04Z</time>
      </trkpt>
      <trkpt lat="42.14128" lon="2.39448">
        <ele>684.7</ele>
        <time>2019-04-12T05:49:05Z</time>
      </trkpt>
      <trkpt lat="42.14125" lon="2.39447">
        <ele>685.5</ele>
        <time>2019-04-12T05:49:06Z</time>
      </trkpt>
      <trkpt lat="42.14124" lon="2.39447">
        <ele>685.8</ele>
        <time>2019-04-12T05:49:06Z</time>
      </trkpt>
      <trkpt lat="42.14122" lon="2.39448">
        <ele>686.6</ele>
        <time>2019-04-12T05:49:07Z</time>
      </trkpt>
      <trkpt lat="42.1412" lon="2.39448">
        <ele>687.2</ele>
        <time>2019-04-12T05:49:08Z</time>
      </trkpt>
      <trkpt lat="42.14119" lon="2.39448">
        <ele>687.5</ele>
        <time>2019-04-12T05:49:08Z</time>
      </trkpt>
      <trkpt lat="42.14119" lon="2.39448">
        <ele>688.1</ele>
        <time>2019-04-12T05:49:08Z</time>
      </trkpt>
      <trkpt lat="42.14117" lon="2.39447">
        <ele>688.5</ele>
        <time>2019-04-12T05:49:09Z</time>
      </trkpt>
      <trkpt lat="42.14116" lon="2.39446">
        <ele>688.6</ele>
        <time>2019-04-12T05:49:10Z</time>
      </trkpt>
      <trkpt lat="42.14115" lon="2.39446">
        <ele>689.3</ele>
        <time>2019-04-12T05:49:10Z</time>
      </trkpt>
      <trkpt lat="42.14113" lon="2.39447">
        <ele>690</ele>
        <time>2019-04-12T05:49:11Z</time>
      </trkpt>
      <trkpt lat="42.14113" lon="2.39448">
        <ele>690.5</ele>
        <time>2019-04-12T05:49:11Z</time>
      </trkpt>
      <trkpt lat="42.14112" lon="2.39448">
        <ele>690.7</ele>
        <time>2019-04-12T05:49:12Z</time>
      </trkpt>
      <trkpt lat="42.14107" lon="2.39448">
        <ele>691.4</ele>
        <time>2019-04-12T05:49:13Z</time>
      </trkpt>
      <trkpt lat="42.14106" lon="2.39447">
        <ele>691.5</ele>
        <time>2019-04-12T05:49:14Z</time>
      </trkpt>
      <trkpt lat="42.14104" lon="2.39447">
        <ele>691.7</ele>
        <time>2019-04-12T05:49:15Z</time>
      </trkpt>
      <trkpt lat="42.14101" lon="2.39447">
        <ele>692.1</ele>
        <time>2019-04-12T05:49:16Z</time>
      </trkpt>
      <trkpt lat="42.14096" lon="2.39449">
        <ele>692.1</ele>
        <time>2019-04-12T05:49:18Z</time>
      </trkpt>
      <trkpt lat="42.14095" lon="2.3945">
        <ele>692.5</ele>
        <time>2019-04-12T05:49:19Z</time>
      </trkpt>
      <trkpt lat="42.14094" lon="2.39451">
        <ele>693</ele>
        <time>2019-04-12T05:49:19Z</time>
      </trkpt>
      <trkpt lat="42.14093" lon="2.39451">
        <ele>693.6</ele>
        <time>2019-04-12T05:49:20Z</time>
      </trkpt>
      <trkpt lat="42.14092" lon="2.39452">
        <ele>694</ele>
        <time>2019-04-12T05:49:20Z</time>
      </trkpt>
      <trkpt lat="42.14091" lon="2.39452">
        <ele>694.3</ele>
        <time>2019-04-12T05:49:20Z</time>
      </trkpt>
      <trkpt lat="42.1409" lon="2.39452">
        <ele>695.4</ele>
        <time>2019-04-12T05:49:21Z</time>
      </trkpt>
      <trkpt lat="42.14089" lon="2.39452">
        <ele>695.5</ele>
        <time>2019-04-12T05:49:21Z</time>
      </trkpt>
      <trkpt lat="42.14089" lon="2.39451">
        <ele>696.4</ele>
        <time>2019-04-12T05:49:21Z</time>
      </trkpt>
      <trkpt lat="42.14087" lon="2.39445">
        <ele>697.5</ele>
        <time>2019-04-12T05:49:23Z</time>
      </trkpt>
      <trkpt lat="42.14083" lon="2.39441">
        <ele>698.7</ele>
        <time>2019-04-12T05:49:25Z</time>
      </trkpt>
      <trkpt lat="42.1408" lon="2.39438">
        <ele>699.1</ele>
        <time>2019-04-12T05:49:27Z</time>
      </trkpt>
      <trkpt lat="42.14077" lon="2.39436">
        <ele>699.7</ele>
        <time>2019-04-12T05:49:28Z</time>
      </trkpt>
      <trkpt lat="42.14075" lon="2.39435">
        <ele>700.3</ele>
        <time>2019-04-12T05:49:29Z</time>
      </trkpt>
      <trkpt lat="42.14072" lon="2.39435">
        <ele>700.5</ele>
        <time>2019-04-12T05:49:30Z</time>
      </trkpt>
      <trkpt lat="42.14071" lon="2.39437">
        <ele>701.1</ele>
        <time>2019-04-12T05:49:31Z</time>
      </trkpt>
      <trkpt lat="42.1407" lon="2.39436">
        <ele>702.1</ele>
        <time>2019-04-12T05:49:31Z</time>
      </trkpt>
      <trkpt lat="42.14069" lon="2.39436">
        <ele>702.2</ele>
        <time>2019-04-12T05:49:31Z</time>
      </trkpt>
      <trkpt lat="42.14068" lon="2.39436">
        <ele>702.5</ele>
        <time>2019-04-12T05:49:32Z</time>
      </trkpt>
      <trkpt lat="42.14067" lon="2.39435">
        <ele>703</ele>
        <time>2019-04-12T05:49:32Z</time>
      </trkpt>
      <trkpt lat="42.14066" lon="2.39435">
        <ele>703.7</ele>
        <time>2019-04-12T05:49:33Z</time>
      </trkpt>
      <trkpt lat="42.14066" lon="2.39435">
        <ele>704</ele>
        <time>2019-04-12T05:49:33Z</time>
      </trkpt>
      <trkpt lat="42.14066" lon="2.39435">
        <ele>704.2</ele>
        <time>2019-04-12T05:49:33Z</time>
      </trkpt>
      <trkpt lat="42.14065" lon="2.39434">
        <ele>705.6</ele>
        <time>2019-04-12T05:49:33Z</time>
      </trkpt>
      <trkpt lat="42.14064" lon="2.39434">
        <ele>706.1</ele>
        <time>2019-04-12T05:49:34Z</time>
      </trkpt>
      <trkpt lat="42.14057" lon="2.39435">
        <ele>706.8</ele>
        <time>2019-04-12T05:49:36Z</time>
      </trkpt>
      <trkpt lat="42.14054" lon="2.39435">
        <ele>707.6</ele>
        <time>2019-04-12T05:49:38Z</time>
      </trkpt>
      <trkpt lat="42.14052" lon="2.39435">
        <ele>707.8</ele>
        <time>2019-04-12T05:49:39Z</time>
      </trkpt>
      <trkpt lat="42.1405" lon="2.39436">
        <ele>708.2</ele>
        <time>2019-04-12T05:49:39Z</time>
      </trkpt>
      <trkpt lat="42.14048" lon="2.39435">
        <ele>708.7</ele>
        <time>2019-04-12T05:49:40Z</time>
      </trkpt>
      <trkpt lat="42.14045" lon="2.39433">
        <ele>710.1</ele>
        <time>2019-04-12T05:49:42Z</time>
      </trkpt>
      <trkpt lat="42.14044" lon="2.39432">
        <ele>710.2</ele>
        <time>2019-04-12T05:49:42Z</time>
      </trkpt>
      <trkpt lat="42.14041" lon="2.39431">
        <ele>710.4</ele>
        <time>2019-04-12T05:49:43Z</time>
      </trkpt>
      <trkpt lat="42.1404" lon="2.3943">
        <ele>710.5</ele>
        <time>2019-04-12T05:49:44Z</time>
      </trkpt>
      <trkpt lat="42.14034" lon="2.39428">
        <ele>710.8</ele>
        <time>2019-04-12T05:49:46Z</time>
      </trkpt>
      <trkpt lat="42.14032" lon="2.39427">
        <ele>711</ele>
        <time>2019-04-12T05:49:47Z</time>
      </trkpt>
      <trkpt lat="42.14026" lon="2.39425">
        <ele>711.2</ele>
        <time>2019-04-12T05:49:50Z</time>
      </trkpt>
      <trkpt lat="42.14024" lon="2.39425">
        <ele>711.3</ele>
        <time>2019-04-12T05:49:50Z</time>
      </trkpt>
      <trkpt lat="42.14017" lon="2.39424">
        <ele>712.1</ele>
        <time>2019-04-12T05:49:53Z</time>
      </trkpt>
      <trkpt lat="42.14016" lon="2.39423">
        <ele>712</ele>
        <time>2019-04-12T05:49:54Z</time>
      </trkpt>
      <trkpt lat="42.14013" lon="2.39423">
        <ele>712.4</ele>
        <time>2019-04-12T05:49:55Z</time>
      </trkpt>
      <trkpt lat="42.14012" lon="2.39423">
        <ele>712.6</ele>
        <time>2019-04-12T05:49:55Z</time>
      </trkpt>
      <trkpt lat="42.14009" lon="2.39421">
        <ele>712.6</ele>
        <time>2019-04-12T05:49:57Z</time>
      </trkpt>
      <trkpt lat="42.14008" lon="2.39421">
        <ele>713</ele>
        <time>2019-04-12T05:49:57Z</time>
      </trkpt>
      <trkpt lat="42.14007" lon="2.39421">
        <ele>713.2</ele>
        <time>2019-04-12T05:49:57Z</time>
      </trkpt>
      <trkpt lat="42.14003" lon="2.39417">
        <ele>713.4</ele>
        <time>2019-04-12T05:49:59Z</time>
      </trkpt>
      <trkpt lat="42.14002" lon="2.39414">
        <ele>713.5</ele>
        <time>2019-04-12T05:50:00Z</time>
      </trkpt>
      <trkpt lat="42.14002" lon="2.39412">
        <ele>714</ele>
        <time>2019-04-12T05:50:01Z</time>
      </trkpt>
      <trkpt lat="42.14002" lon="2.3941">
        <ele>714.3</ele>
        <time>2019-04-12T05:50:01Z</time>
      </trkpt>
      <trkpt lat="42.14001" lon="2.39407">
        <ele>714.5</ele>
        <time>2019-04-12T05:50:02Z</time>
      </trkpt>
      <trkpt lat="42.14001" lon="2.39406">
        <ele>714.7</ele>
        <time>2019-04-12T05:50:03Z</time>
      </trkpt>
      <trkpt lat="42.14" lon="2.39405">
        <ele>715.5</ele>
        <time>2019-04-12T05:50:03Z</time>
      </trkpt>
      <trkpt lat="42.13999" lon="2.39406">
        <ele>715.8</ele>
        <time>2019-04-12T05:50:04Z</time>
      </trkpt>
      <trkpt lat="42.13999" lon="2.39407">
        <ele>716.5</ele>
        <time>2019-04-12T05:50:04Z</time>
      </trkpt>
      <trkpt lat="42.13999" lon="2.39407">
        <ele>716.6</ele>
        <time>2019-04-12T05:50:04Z</time>
      </trkpt>
      <trkpt lat="42.13999" lon="2.39408">
        <ele>717.2</ele>
        <time>2019-04-12T05:50:04Z</time>
      </trkpt>
      <trkpt lat="42.13999" lon="2.39408">
        <ele>717.4</ele>
        <time>2019-04-12T05:50:04Z</time>
      </trkpt>
      <trkpt lat="42.13997" lon="2.39408">
        <ele>717.6</ele>
        <time>2019-04-12T05:50:05Z</time>
      </trkpt>
      <trkpt lat="42.13996" lon="2.39408">
        <ele>717.6</ele>
        <time>2019-04-12T05:50:05Z</time>
      </trkpt>
      <trkpt lat="42.13993" lon="2.39408">
        <ele>718.4</ele>
        <time>2019-04-12T05:50:07Z</time>
      </trkpt>
      <trkpt lat="42.1399" lon="2.3941">
        <ele>719.1</ele>
        <time>2019-04-12T05:50:08Z</time>
      </trkpt>
      <trkpt lat="42.13989" lon="2.39411">
        <ele>719.3</ele>
        <time>2019-04-12T05:50:08Z</time>
      </trkpt>
      <trkpt lat="42.13989" lon="2.39412">
        <ele>719.6</ele>
        <time>2019-04-12T05:50:09Z</time>
      </trkpt>
      <trkpt lat="42.13989" lon="2.39412">
        <ele>720</ele>
        <time>2019-04-12T05:50:09Z</time>
      </trkpt>
      <trkpt lat="42.13987" lon="2.39412">
        <ele>720.5</ele>
        <time>2019-04-12T05:50:09Z</time>
      </trkpt>
      <trkpt lat="42.13987" lon="2.39413">
        <ele>720.7</ele>
        <time>2019-04-12T05:50:10Z</time>
      </trkpt>
      <trkpt lat="42.13985" lon="2.39412">
        <ele>721.3</ele>
        <time>2019-04-12T05:50:10Z</time>
      </trkpt>
      <trkpt lat="42.13982" lon="2.39409">
        <ele>722</ele>
        <time>2019-04-12T05:50:12Z</time>
      </trkpt>
      <trkpt lat="42.13981" lon="2.39403">
        <ele>722.2</ele>
        <time>2019-04-12T05:50:14Z</time>
      </trkpt>
      <trkpt lat="42.13983" lon="2.39396">
        <ele>722.5</ele>
        <time>2019-04-12T05:50:16Z</time>
      </trkpt>
      <trkpt lat="42.13982" lon="2.39391">
        <ele>722.5</ele>
        <time>2019-04-12T05:50:18Z</time>
      </trkpt>
      <trkpt lat="42.13982" lon="2.39389">
        <ele>722.6</ele>
        <time>2019-04-12T05:50:18Z</time>
      </trkpt>
      <trkpt lat="42.13982" lon="2.39387">
        <ele>722.4</ele>
        <time>2019-04-12T05:50:19Z</time>
      </trkpt>
      <trkpt lat="42.13982" lon="2.39386">
        <ele>722.5</ele>
        <time>2019-04-12T05:50:19Z</time>
      </trkpt>
      <trkpt lat="42.13984" lon="2.39383">
        <ele>722.7</ele>
        <time>2019-04-12T05:50:20Z</time>
      </trkpt>
      <trkpt lat="42.13983" lon="2.39381">
        <ele>722.8</ele>
        <time>2019-04-12T05:50:21Z</time>
      </trkpt>
      <trkpt lat="42.13983" lon="2.3938">
        <ele>725.3</ele>
        <time>2019-04-12T05:50:21Z</time>
      </trkpt>
      <trkpt lat="42.13982" lon="2.39379">
        <ele>723.7</ele>
        <time>2019-04-12T05:50:21Z</time>
      </trkpt>
      <trkpt lat="42.13981" lon="2.39379">
        <ele>722.5</ele>
        <time>2019-04-12T05:50:22Z</time>
      </trkpt>
      <trkpt lat="42.1398" lon="2.39377">
        <ele>722</ele>
        <time>2019-04-12T05:50:22Z</time>
      </trkpt>
      <trkpt lat="42.13979" lon="2.39375">
        <ele>722.5</ele>
        <time>2019-04-12T05:50:23Z</time>
      </trkpt>
      <trkpt lat="42.13975" lon="2.39371">
        <ele>723.1</ele>
        <time>2019-04-12T05:50:25Z</time>
      </trkpt>
      <trkpt lat="42.13975" lon="2.39367">
        <ele>723.6</ele>
        <time>2019-04-12T05:50:26Z</time>
      </trkpt>
      <trkpt lat="42.13975" lon="2.39365">
        <ele>723.7</ele>
        <time>2019-04-12T05:50:27Z</time>
      </trkpt>
      <trkpt lat="42.13975" lon="2.39364">
        <ele>724.1</ele>
        <time>2019-04-12T05:50:27Z</time>
      </trkpt>
      <trkpt lat="42.13977" lon="2.39364">
        <ele>722.8</ele>
        <time>2019-04-12T05:50:28Z</time>
      </trkpt>
      <trkpt lat="42.13977" lon="2.39362">
        <ele>723.1</ele>
        <time>2019-04-12T05:50:28Z</time>
      </trkpt>
      <trkpt lat="42.13978" lon="2.3936">
        <ele>722.4</ele>
        <time>2019-04-12T05:50:29Z</time>
      </trkpt>
      <trkpt lat="42.13979" lon="2.3936">
        <ele>722.6</ele>
        <time>2019-04-12T05:50:29Z</time>
      </trkpt>
      <trkpt lat="42.13981" lon="2.39358">
        <ele>722.5</ele>
        <time>2019-04-12T05:50:30Z</time>
      </trkpt>
      <trkpt lat="42.13983" lon="2.39352">
        <ele>722.7</ele>
        <time>2019-04-12T05:50:32Z</time>
      </trkpt>
      <trkpt lat="42.13983" lon="2.39351">
        <ele>722.7</ele>
        <time>2019-04-12T05:50:32Z</time>
      </trkpt>
      <trkpt lat="42.13984" lon="2.39346">
        <ele>723.5</ele>
        <time>2019-04-12T05:50:34Z</time>
      </trkpt>
      <trkpt lat="42.13985" lon="2.39342">
        <ele>723</ele>
        <time>2019-04-12T05:50:35Z</time>
      </trkpt>
      <trkpt lat="42.13987" lon="2.39338">
        <ele>724.3</ele>
        <time>2019-04-12T05:50:36Z</time>
      </trkpt>
      <trkpt lat="42.13989" lon="2.39338">
        <ele>724.1</ele>
        <time>2019-04-12T05:50:37Z</time>
      </trkpt>
      <trkpt lat="42.13995" lon="2.39339">
        <ele>724.7</ele>
        <time>2019-04-12T05:50:40Z</time>
      </trkpt>
      <trkpt lat="42.13996" lon="2.39339">
        <ele>725.7</ele>
        <time>2019-04-12T05:50:40Z</time>
      </trkpt>
      <trkpt lat="42.13997" lon="2.39338">
        <ele>726.3</ele>
        <time>2019-04-12T05:50:41Z</time>
      </trkpt>
      <trkpt lat="42.14" lon="2.39335">
        <ele>726.6</ele>
        <time>2019-04-12T05:50:42Z</time>
      </trkpt>
      <trkpt lat="42.14004" lon="2.3933">
        <ele>726.2</ele>
        <time>2019-04-12T05:50:44Z</time>
      </trkpt>
      <trkpt lat="42.14006" lon="2.39326">
        <ele>726.6</ele>
        <time>2019-04-12T05:50:46Z</time>
      </trkpt>
      <trkpt lat="42.14007" lon="2.39324">
        <ele>726.7</ele>
        <time>2019-04-12T05:50:46Z</time>
      </trkpt>
      <trkpt lat="42.14008" lon="2.39323">
        <ele>726.7</ele>
        <time>2019-04-12T05:50:47Z</time>
      </trkpt>
      <trkpt lat="42.14009" lon="2.39323">
        <ele>726.7</ele>
        <time>2019-04-12T05:50:47Z</time>
      </trkpt>
      <trkpt lat="42.14013" lon="2.39318">
        <ele>726.3</ele>
        <time>2019-04-12T05:50:49Z</time>
      </trkpt>
      <trkpt lat="42.14015" lon="2.39316">
        <ele>726.5</ele>
        <time>2019-04-12T05:50:51Z</time>
      </trkpt>
      <trkpt lat="42.14019" lon="2.39312">
        <ele>726.7</ele>
        <time>2019-04-12T05:50:52Z</time>
      </trkpt>
      <trkpt lat="42.14022" lon="2.39308">
        <ele>728.1</ele>
        <time>2019-04-12T05:50:54Z</time>
      </trkpt>
      <trkpt lat="42.14023" lon="2.39307">
        <ele>728</ele>
        <time>2019-04-12T05:50:54Z</time>
      </trkpt>
      <trkpt lat="42.14024" lon="2.39306">
        <ele>728.3</ele>
        <time>2019-04-12T05:50:55Z</time>
      </trkpt>
      <trkpt lat="42.14025" lon="2.39305">
        <ele>728.5</ele>
        <time>2019-04-12T05:50:56Z</time>
      </trkpt>
      <trkpt lat="42.14027" lon="2.39303">
        <ele>729.3</ele>
        <time>2019-04-12T05:50:57Z</time>
      </trkpt>
      <trkpt lat="42.14028" lon="2.39302">
        <ele>729.4</ele>
        <time>2019-04-12T05:50:57Z</time>
      </trkpt>
      <trkpt lat="42.14028" lon="2.39301">
        <ele>729.6</ele>
        <time>2019-04-12T05:50:57Z</time>
      </trkpt>
      <trkpt lat="42.14032" lon="2.39299">
        <ele>729.7</ele>
        <time>2019-04-12T05:50:59Z</time>
      </trkpt>
      <trkpt lat="42.14034" lon="2.39296">
        <ele>729.7</ele>
        <time>2019-04-12T05:51:00Z</time>
      </trkpt>
      <trkpt lat="42.14036" lon="2.39294">
        <ele>730.3</ele>
        <time>2019-04-12T05:51:01Z</time>
      </trkpt>
      <trkpt lat="42.14037" lon="2.39293">
        <ele>730.6</ele>
        <time>2019-04-12T05:51:01Z</time>
      </trkpt>
      <trkpt lat="42.14038" lon="2.39292">
        <ele>730.8</ele>
        <time>2019-04-12T05:51:02Z</time>
      </trkpt>
      <trkpt lat="42.14039" lon="2.39291">
        <ele>731.1</ele>
        <time>2019-04-12T05:51:03Z</time>
      </trkpt>
      <trkpt lat="42.1404" lon="2.39291">
        <ele>731.2</ele>
        <time>2019-04-12T05:51:03Z</time>
      </trkpt>
      <trkpt lat="42.14041" lon="2.3929">
        <ele>731.5</ele>
        <time>2019-04-12T05:51:03Z</time>
      </trkpt>
      <trkpt lat="42.14042" lon="2.39289">
        <ele>731.6</ele>
        <time>2019-04-12T05:51:04Z</time>
      </trkpt>
      <trkpt lat="42.14044" lon="2.39287">
        <ele>732.1</ele>
        <time>2019-04-12T05:51:05Z</time>
      </trkpt>
      <trkpt lat="42.14047" lon="2.39285">
        <ele>732.6</ele>
        <time>2019-04-12T05:51:06Z</time>
      </trkpt>
      <trkpt lat="42.14048" lon="2.39284">
        <ele>732.7</ele>
        <time>2019-04-12T05:51:06Z</time>
      </trkpt>
      <trkpt lat="42.14051" lon="2.39281">
        <ele>733.5</ele>
        <time>2019-04-12T05:51:08Z</time>
      </trkpt>
      <trkpt lat="42.14054" lon="2.3928">
        <ele>733.7</ele>
        <time>2019-04-12T05:51:09Z</time>
      </trkpt>
      <trkpt lat="42.14057" lon="2.39277">
        <ele>733.7</ele>
        <time>2019-04-12T05:51:11Z</time>
      </trkpt>
      <trkpt lat="42.14059" lon="2.39276">
        <ele>734.4</ele>
        <time>2019-04-12T05:51:12Z</time>
      </trkpt>
      <trkpt lat="42.14062" lon="2.39276">
        <ele>734.5</ele>
        <time>2019-04-12T05:51:13Z</time>
      </trkpt>
      <trkpt lat="42.14065" lon="2.39275">
        <ele>734.8</ele>
        <time>2019-04-12T05:51:14Z</time>
      </trkpt>
      <trkpt lat="42.14069" lon="2.39274">
        <ele>735.3</ele>
        <time>2019-04-12T05:51:16Z</time>
      </trkpt>
      <trkpt lat="42.1407" lon="2.39274">
        <ele>734.7</ele>
        <time>2019-04-12T05:51:16Z</time>
      </trkpt>
      <trkpt lat="42.14072" lon="2.39273">
        <ele>735.1</ele>
        <time>2019-04-12T05:51:17Z</time>
      </trkpt>
      <trkpt lat="42.14077" lon="2.39272">
        <ele>735.5</ele>
        <time>2019-04-12T05:51:19Z</time>
      </trkpt>
      <trkpt lat="42.14078" lon="2.39271">
        <ele>735.2</ele>
        <time>2019-04-12T05:51:19Z</time>
      </trkpt>
      <trkpt lat="42.14081" lon="2.39269">
        <ele>735.5</ele>
        <time>2019-04-12T05:51:21Z</time>
      </trkpt>
      <trkpt lat="42.14083" lon="2.39268">
        <ele>735.4</ele>
        <time>2019-04-12T05:51:22Z</time>
      </trkpt>
      <trkpt lat="42.14084" lon="2.39267">
        <ele>735.4</ele>
        <time>2019-04-12T05:51:22Z</time>
      </trkpt>
      <trkpt lat="42.14087" lon="2.39264">
        <ele>735.5</ele>
        <time>2019-04-12T05:51:24Z</time>
      </trkpt>
      <trkpt lat="42.14088" lon="2.39263">
        <ele>736.2</ele>
        <time>2019-04-12T05:51:24Z</time>
      </trkpt>
      <trkpt lat="42.1409" lon="2.39261">
        <ele>737.2</ele>
        <time>2019-04-12T05:51:25Z</time>
      </trkpt>
      <trkpt lat="42.14091" lon="2.3926">
        <ele>737.4</ele>
        <time>2019-04-12T05:51:26Z</time>
      </trkpt>
      <trkpt lat="42.14092" lon="2.39259">
        <ele>737.5</ele>
        <time>2019-04-12T05:51:26Z</time>
      </trkpt>
      <trkpt lat="42.14095" lon="2.39258">
        <ele>737.3</ele>
        <time>2019-04-12T05:51:27Z</time>
      </trkpt>
      <trkpt lat="42.14096" lon="2.39257">
        <ele>737.3</ele>
        <time>2019-04-12T05:51:28Z</time>
      </trkpt>
      <trkpt lat="42.14099" lon="2.39256">
        <ele>737.5</ele>
        <time>2019-04-12T05:51:29Z</time>
      </trkpt>
      <trkpt lat="42.14102" lon="2.39255">
        <ele>737.7</ele>
        <time>2019-04-12T05:51:30Z</time>
      </trkpt>
      <trkpt lat="42.14103" lon="2.39254">
        <ele>738</ele>
        <time>2019-04-12T05:51:31Z</time>
      </trkpt>
      <trkpt lat="42.14106" lon="2.39252">
        <ele>738.5</ele>
        <time>2019-04-12T05:51:32Z</time>
      </trkpt>
      <trkpt lat="42.14106" lon="2.39252">
        <ele>738.7</ele>
        <time>2019-04-12T05:51:33Z</time>
      </trkpt>
      <trkpt lat="42.14108" lon="2.3925">
        <ele>739.5</ele>
        <time>2019-04-12T05:51:33Z</time>
      </trkpt>
      <trkpt lat="42.14108" lon="2.39249">
        <ele>739.7</ele>
        <time>2019-04-12T05:51:34Z</time>
      </trkpt>
      <trkpt lat="42.14109" lon="2.39247">
        <ele>740.3</ele>
        <time>2019-04-12T05:51:34Z</time>
      </trkpt>
      <trkpt lat="42.14109" lon="2.39246">
        <ele>740.2</ele>
        <time>2019-04-12T05:51:35Z</time>
      </trkpt>
      <trkpt lat="42.14108" lon="2.39245">
        <ele>740.5</ele>
        <time>2019-04-12T05:51:35Z</time>
      </trkpt>
      <trkpt lat="42.14108" lon="2.39245">
        <ele>740.4</ele>
        <time>2019-04-12T05:51:35Z</time>
      </trkpt>
      <trkpt lat="42.14108" lon="2.39246">
        <ele>740.5</ele>
        <time>2019-04-12T05:51:35Z</time>
      </trkpt>
      <trkpt lat="42.14107" lon="2.39247">
        <ele>740.7</ele>
        <time>2019-04-12T05:51:36Z</time>
      </trkpt>
      <trkpt lat="42.14107" lon="2.39248">
        <ele>741.1</ele>
        <time>2019-04-12T05:51:36Z</time>
      </trkpt>
      <trkpt lat="42.14107" lon="2.39249">
        <ele>741.2</ele>
        <time>2019-04-12T05:51:36Z</time>
      </trkpt>
      <trkpt lat="42.14107" lon="2.39248">
        <ele>741.5</ele>
        <time>2019-04-12T05:51:36Z</time>
      </trkpt>
      <trkpt lat="42.14108" lon="2.39247">
        <ele>742</ele>
        <time>2019-04-12T05:51:37Z</time>
      </trkpt>
      <trkpt lat="42.14108" lon="2.39246">
        <ele>742.1</ele>
        <time>2019-04-12T05:51:37Z</time>
      </trkpt>
      <trkpt lat="42.14108" lon="2.39246">
        <ele>742.5</ele>
        <time>2019-04-12T05:51:37Z</time>
      </trkpt>
      <trkpt lat="42.14108" lon="2.39245">
        <ele>742.4</ele>
        <time>2019-04-12T05:51:38Z</time>
      </trkpt>
      <trkpt lat="42.14108" lon="2.39242">
        <ele>743.2</ele>
        <time>2019-04-12T05:51:38Z</time>
      </trkpt>
      <trkpt lat="42.14108" lon="2.39241">
        <ele>743.6</ele>
        <time>2019-04-12T05:51:39Z</time>
      </trkpt>
      <trkpt lat="42.14108" lon="2.3924">
        <ele>744.6</ele>
        <time>2019-04-12T05:51:39Z</time>
      </trkpt>
      <trkpt lat="42.14104" lon="2.39241">
        <ele>745.4</ele>
        <time>2019-04-12T05:51:40Z</time>
      </trkpt>
      <trkpt lat="42.14104" lon="2.3924">
        <ele>745.7</ele>
        <time>2019-04-12T05:51:40Z</time>
      </trkpt>
      <trkpt lat="42.14104" lon="2.3924">
        <ele>746.2</ele>
        <time>2019-04-12T05:51:41Z</time>
      </trkpt>
      <trkpt lat="42.14101" lon="2.39238">
        <ele>746.8</ele>
        <time>2019-04-12T05:51:42Z</time>
      </trkpt>
      <trkpt lat="42.141" lon="2.39238">
        <ele>747</ele>
        <time>2019-04-12T05:51:42Z</time>
      </trkpt>
      <trkpt lat="42.14099" lon="2.39237">
        <ele>747.4</ele>
        <time>2019-04-12T05:51:43Z</time>
      </trkpt>
      <trkpt lat="42.14099" lon="2.39236">
        <ele>748.3</ele>
        <time>2019-04-12T05:51:43Z</time>
      </trkpt>
      <trkpt lat="42.14098" lon="2.39232">
        <ele>749.1</ele>
        <time>2019-04-12T05:51:44Z</time>
      </trkpt>
      <trkpt lat="42.14098" lon="2.39229">
        <ele>749.5</ele>
        <time>2019-04-12T05:51:45Z</time>
      </trkpt>
      <trkpt lat="42.14097" lon="2.39225">
        <ele>750.3</ele>
        <time>2019-04-12T05:51:47Z</time>
      </trkpt>
      <trkpt lat="42.14097" lon="2.39223">
        <ele>750.7</ele>
        <time>2019-04-12T05:51:47Z</time>
      </trkpt>
      <trkpt lat="42.14097" lon="2.39219">
        <ele>751.4</ele>
        <time>2019-04-12T05:51:48Z</time>
      </trkpt>
      <trkpt lat="42.14097" lon="2.39217">
        <ele>752.1</ele>
        <time>2019-04-12T05:51:49Z</time>
      </trkpt>
      <trkpt lat="42.14097" lon="2.39217">
        <ele>752</ele>
        <time>2019-04-12T05:51:49Z</time>
      </trkpt>
      <trkpt lat="42.14101" lon="2.39215">
        <ele>752.8</ele>
        <time>2019-04-12T05:51:50Z</time>
      </trkpt>
      <trkpt lat="42.14101" lon="2.39214">
        <ele>753</ele>
        <time>2019-04-12T05:51:51Z</time>
      </trkpt>
      <trkpt lat="42.14101" lon="2.39214">
        <ele>753</ele>
        <time>2019-04-12T05:51:51Z</time>
      </trkpt>
      <trkpt lat="42.14102" lon="2.39213">
        <ele>753.2</ele>
        <time>2019-04-12T05:51:51Z</time>
      </trkpt>
      <trkpt lat="42.14106" lon="2.39209">
        <ele>754.1</ele>
        <time>2019-04-12T05:51:53Z</time>
      </trkpt>
      <trkpt lat="42.14106" lon="2.39208">
        <ele>754.6</ele>
        <time>2019-04-12T05:51:53Z</time>
      </trkpt>
      <trkpt lat="42.14107" lon="2.39207">
        <ele>754.7</ele>
        <time>2019-04-12T05:51:54Z</time>
      </trkpt>
      <trkpt lat="42.14107" lon="2.39206">
        <ele>755.5</ele>
        <time>2019-04-12T05:51:54Z</time>
      </trkpt>
      <trkpt lat="42.14108" lon="2.39206">
        <ele>755.7</ele>
        <time>2019-04-12T05:51:54Z</time>
      </trkpt>
      <trkpt lat="42.14107" lon="2.39206">
        <ele>756.6</ele>
        <time>2019-04-12T05:51:54Z</time>
      </trkpt>
      <trkpt lat="42.14107" lon="2.39208">
        <ele>757.1</ele>
        <time>2019-04-12T05:51:55Z</time>
      </trkpt>
      <trkpt lat="42.14105" lon="2.39213">
        <ele>757.8</ele>
        <time>2019-04-12T05:51:57Z</time>
      </trkpt>
      <trkpt lat="42.14102" lon="2.39215">
        <ele>758</ele>
        <time>2019-04-12T05:51:58Z</time>
      </trkpt>
      <trkpt lat="42.14102" lon="2.39216">
        <ele>758.3</ele>
        <time>2019-04-12T05:51:58Z</time>
      </trkpt>
      <trkpt lat="42.14101" lon="2.39217">
        <ele>758.5</ele>
        <time>2019-04-12T05:51:59Z</time>
      </trkpt>
      <trkpt lat="42.141" lon="2.39215">
        <ele>759.4</ele>
        <time>2019-04-12T05:51:59Z</time>
      </trkpt>
      <trkpt lat="42.14099" lon="2.39212">
        <ele>759.8</ele>
        <time>2019-04-12T05:52:00Z</time>
      </trkpt>
      <trkpt lat="42.141" lon="2.39209">
        <ele>760.1</ele>
        <time>2019-04-12T05:52:01Z</time>
      </trkpt>
      <trkpt lat="42.141" lon="2.39207">
        <ele>760.2</ele>
        <time>2019-04-12T05:52:02Z</time>
      </trkpt>
      <trkpt lat="42.14101" lon="2.39204">
        <ele>760.5</ele>
        <time>2019-04-12T05:52:03Z</time>
      </trkpt>
      <trkpt lat="42.14102" lon="2.39201">
        <ele>761.1</ele>
        <time>2019-04-12T05:52:04Z</time>
      </trkpt>
      <trkpt lat="42.14103" lon="2.39199">
        <ele>761.5</ele>
        <time>2019-04-12T05:52:05Z</time>
      </trkpt>
      <trkpt lat="42.14104" lon="2.39197">
        <ele>762</ele>
        <time>2019-04-12T05:52:05Z</time>
      </trkpt>
      <trkpt lat="42.14105" lon="2.39195">
        <ele>762</ele>
        <time>2019-04-12T05:52:06Z</time>
      </trkpt>
      <trkpt lat="42.14106" lon="2.39192">
        <ele>762.4</ele>
        <time>2019-04-12T05:52:07Z</time>
      </trkpt>
      <trkpt lat="42.14105" lon="2.39189">
        <ele>762.6</ele>
        <time>2019-04-12T05:52:08Z</time>
      </trkpt>
      <trkpt lat="42.14105" lon="2.39188">
        <ele>763.2</ele>
        <time>2019-04-12T05:52:08Z</time>
      </trkpt>
      <trkpt lat="42.14104" lon="2.39188">
        <ele>763.7</ele>
        <time>2019-04-12T05:52:09Z</time>
      </trkpt>
      <trkpt lat="42.14104" lon="2.39187">
        <ele>764.3</ele>
        <time>2019-04-12T05:52:09Z</time>
      </trkpt>
      <trkpt lat="42.14104" lon="2.39187">
        <ele>764.3</ele>
        <time>2019-04-12T05:52:09Z</time>
      </trkpt>
      <trkpt lat="42.14104" lon="2.39186">
        <ele>764.6</ele>
        <time>2019-04-12T05:52:09Z</time>
      </trkpt>
      <trkpt lat="42.14104" lon="2.39186">
        <ele>765.4</ele>
        <time>2019-04-12T05:52:09Z</time>
      </trkpt>
      <trkpt lat="42.14103" lon="2.39186">
        <ele>766.1</ele>
        <time>2019-04-12T05:52:09Z</time>
      </trkpt>
      <trkpt lat="42.14105" lon="2.39184">
        <ele>766.6</ele>
        <time>2019-04-12T05:52:10Z</time>
      </trkpt>
      <trkpt lat="42.14105" lon="2.39182">
        <ele>767.1</ele>
        <time>2019-04-12T05:52:11Z</time>
      </trkpt>
      <trkpt lat="42.14107" lon="2.39177">
        <ele>767.8</ele>
        <time>2019-04-12T05:52:13Z</time>
      </trkpt>
      <trkpt lat="42.14108" lon="2.39173">
        <ele>767.5</ele>
        <time>2019-04-12T05:52:14Z</time>
      </trkpt>
      <trkpt lat="42.1411" lon="2.39168">
        <ele>766.7</ele>
        <time>2019-04-12T05:52:16Z</time>
      </trkpt>
      <trkpt lat="42.14111" lon="2.39164">
        <ele>766.4</ele>
        <time>2019-04-12T05:52:17Z</time>
      </trkpt>
      <trkpt lat="42.14112" lon="2.39161">
        <ele>766.5</ele>
        <time>2019-04-12T05:52:18Z</time>
      </trkpt>
      <trkpt lat="42.14111" lon="2.39161">
        <ele>767.1</ele>
        <time>2019-04-12T05:52:18Z</time>
      </trkpt>
      <trkpt lat="42.14111" lon="2.39161">
        <ele>767.3</ele>
        <time>2019-04-12T05:52:18Z</time>
      </trkpt>
      <trkpt lat="42.1411" lon="2.39161">
        <ele>767.4</ele>
        <time>2019-04-12T05:52:19Z</time>
      </trkpt>
      <trkpt lat="42.14107" lon="2.3916">
        <ele>767.8</ele>
        <time>2019-04-12T05:52:20Z</time>
      </trkpt>
      <trkpt lat="42.14106" lon="2.39158">
        <ele>767.5</ele>
        <time>2019-04-12T05:52:21Z</time>
      </trkpt>
      <trkpt lat="42.14106" lon="2.39157">
        <ele>767.6</ele>
        <time>2019-04-12T05:52:21Z</time>
      </trkpt>
      <trkpt lat="42.14106" lon="2.39155">
        <ele>767.5</ele>
        <time>2019-04-12T05:52:21Z</time>
      </trkpt>
      <trkpt lat="42.14106" lon="2.39151">
        <ele>768.1</ele>
        <time>2019-04-12T05:52:22Z</time>
      </trkpt>
      <trkpt lat="42.14107" lon="2.39148">
        <ele>768.5</ele>
        <time>2019-04-12T05:52:23Z</time>
      </trkpt>
      <trkpt lat="42.14108" lon="2.39148">
        <ele>768.5</ele>
        <time>2019-04-12T05:52:24Z</time>
      </trkpt>
      <trkpt lat="42.14108" lon="2.39147">
        <ele>768.7</ele>
        <time>2019-04-12T05:52:24Z</time>
      </trkpt>
      <trkpt lat="42.14106" lon="2.39145">
        <ele>768.7</ele>
        <time>2019-04-12T05:52:25Z</time>
      </trkpt>
      <trkpt lat="42.14106" lon="2.39142">
        <ele>769.7</ele>
        <time>2019-04-12T05:52:26Z</time>
      </trkpt>
      <trkpt lat="42.14106" lon="2.3914">
        <ele>770.6</ele>
        <time>2019-04-12T05:52:26Z</time>
      </trkpt>
      <trkpt lat="42.14107" lon="2.39138">
        <ele>771</ele>
        <time>2019-04-12T05:52:27Z</time>
      </trkpt>
      <trkpt lat="42.14108" lon="2.39134">
        <ele>771.5</ele>
        <time>2019-04-12T05:52:28Z</time>
      </trkpt>
      <trkpt lat="42.1411" lon="2.39129">
        <ele>771.4</ele>
        <time>2019-04-12T05:52:30Z</time>
      </trkpt>
      <trkpt lat="42.14111" lon="2.39125">
        <ele>771.8</ele>
        <time>2019-04-12T05:52:31Z</time>
      </trkpt>
      <trkpt lat="42.14113" lon="2.39122">
        <ele>772.1</ele>
        <time>2019-04-12T05:52:32Z</time>
      </trkpt>
      <trkpt lat="42.14114" lon="2.3912">
        <ele>772.2</ele>
        <time>2019-04-12T05:52:33Z</time>
      </trkpt>
      <trkpt lat="42.14116" lon="2.39118">
        <ele>772.6</ele>
        <time>2019-04-12T05:52:34Z</time>
      </trkpt>
      <trkpt lat="42.14117" lon="2.39113">
        <ele>774.1</ele>
        <time>2019-04-12T05:52:35Z</time>
      </trkpt>
      <trkpt lat="42.14118" lon="2.39113">
        <ele>773.7</ele>
        <time>2019-04-12T05:52:36Z</time>
      </trkpt>
      <trkpt lat="42.14119" lon="2.39112">
        <ele>773.7</ele>
        <time>2019-04-12T05:52:36Z</time>
      </trkpt>
      <trkpt lat="42.1412" lon="2.39107">
        <ele>775</ele>
        <time>2019-04-12T05:52:38Z</time>
      </trkpt>
      <trkpt lat="42.14121" lon="2.39104">
        <ele>775.5</ele>
        <time>2019-04-12T05:52:39Z</time>
      </trkpt>
      <trkpt lat="42.14121" lon="2.39103">
        <ele>775.5</ele>
        <time>2019-04-12T05:52:39Z</time>
      </trkpt>
      <trkpt lat="42.14122" lon="2.391">
        <ele>775.5</ele>
        <time>2019-04-12T05:52:40Z</time>
      </trkpt>
      <trkpt lat="42.14126" lon="2.39095">
        <ele>775.5</ele>
        <time>2019-04-12T05:52:42Z</time>
      </trkpt>
      <trkpt lat="42.1413" lon="2.39088">
        <ele>776.5</ele>
        <time>2019-04-12T05:52:45Z</time>
      </trkpt>
      <trkpt lat="42.1413" lon="2.39086">
        <ele>776.5</ele>
        <time>2019-04-12T05:52:45Z</time>
      </trkpt>
      <trkpt lat="42.14132" lon="2.39084">
        <ele>777</ele>
        <time>2019-04-12T05:52:46Z</time>
      </trkpt>
      <trkpt lat="42.14134" lon="2.39083">
        <ele>777.5</ele>
        <time>2019-04-12T05:52:47Z</time>
      </trkpt>
      <trkpt lat="42.14135" lon="2.39079">
        <ele>779.1</ele>
        <time>2019-04-12T05:52:48Z</time>
      </trkpt>
      <trkpt lat="42.14135" lon="2.39078">
        <ele>779</ele>
        <time>2019-04-12T05:52:49Z</time>
      </trkpt>
      <trkpt lat="42.14137" lon="2.39074">
        <ele>779</ele>
        <time>2019-04-12T05:52:50Z</time>
      </trkpt>
      <trkpt lat="42.14138" lon="2.39072">
        <ele>779.4</ele>
        <time>2019-04-12T05:52:51Z</time>
      </trkpt>
      <trkpt lat="42.14138" lon="2.39071">
        <ele>779.3</ele>
        <time>2019-04-12T05:52:51Z</time>
      </trkpt>
      <trkpt lat="42.14141" lon="2.39067">
        <ele>779.3</ele>
        <time>2019-04-12T05:52:53Z</time>
      </trkpt>
      <trkpt lat="42.14143" lon="2.39062">
        <ele>780.1</ele>
        <time>2019-04-12T05:52:54Z</time>
      </trkpt>
      <trkpt lat="42.14143" lon="2.39061">
        <ele>780.5</ele>
        <time>2019-04-12T05:52:55Z</time>
      </trkpt>
      <trkpt lat="42.14143" lon="2.3906">
        <ele>780.7</ele>
        <time>2019-04-12T05:52:55Z</time>
      </trkpt>
      <trkpt lat="42.14143" lon="2.39057">
        <ele>780.7</ele>
        <time>2019-04-12T05:52:56Z</time>
      </trkpt>
      <trkpt lat="42.14143" lon="2.39055">
        <ele>781.2</ele>
        <time>2019-04-12T05:52:56Z</time>
      </trkpt>
      <trkpt lat="42.14142" lon="2.39053">
        <ele>781.3</ele>
        <time>2019-04-12T05:52:57Z</time>
      </trkpt>
      <trkpt lat="42.14142" lon="2.39052">
        <ele>781.4</ele>
        <time>2019-04-12T05:52:57Z</time>
      </trkpt>
      <trkpt lat="42.14142" lon="2.39051">
        <ele>781.7</ele>
        <time>2019-04-12T05:52:57Z</time>
      </trkpt>
      <trkpt lat="42.14139" lon="2.39049">
        <ele>782</ele>
        <time>2019-04-12T05:52:59Z</time>
      </trkpt>
      <trkpt lat="42.14139" lon="2.39049">
        <ele>782.1</ele>
        <time>2019-04-12T05:52:59Z</time>
      </trkpt>
      <trkpt lat="42.14138" lon="2.39048">
        <ele>782.1</ele>
        <time>2019-04-12T05:52:59Z</time>
      </trkpt>
      <trkpt lat="42.14138" lon="2.39048">
        <ele>782.2</ele>
        <time>2019-04-12T05:53:00Z</time>
      </trkpt>
      <trkpt lat="42.14137" lon="2.39048">
        <ele>782.8</ele>
        <time>2019-04-12T05:53:00Z</time>
      </trkpt>
      <trkpt lat="42.14137" lon="2.39047">
        <ele>783.4</ele>
        <time>2019-04-12T05:53:00Z</time>
      </trkpt>
      <trkpt lat="42.14138" lon="2.39045">
        <ele>784.1</ele>
        <time>2019-04-12T05:53:00Z</time>
      </trkpt>
      <trkpt lat="42.14138" lon="2.39043">
        <ele>784.3</ele>
        <time>2019-04-12T05:53:01Z</time>
      </trkpt>
      <trkpt lat="42.14138" lon="2.39042">
        <ele>784.6</ele>
        <time>2019-04-12T05:53:01Z</time>
      </trkpt>
      <trkpt lat="42.14137" lon="2.39042">
        <ele>784.8</ele>
        <time>2019-04-12T05:53:02Z</time>
      </trkpt>
      <trkpt lat="42.14132" lon="2.39041">
        <ele>784.8</ele>
        <time>2019-04-12T05:53:04Z</time>
      </trkpt>
      <trkpt lat="42.1413" lon="2.3904">
        <ele>784.5</ele>
        <time>2019-04-12T05:53:05Z</time>
      </trkpt>
      <trkpt lat="42.14129" lon="2.3904">
        <ele>784.4</ele>
        <time>2019-04-12T05:53:05Z</time>
      </trkpt>
      <trkpt lat="42.14127" lon="2.39039">
        <ele>784.8</ele>
        <time>2019-04-12T05:53:06Z</time>
      </trkpt>
      <trkpt lat="42.14127" lon="2.39039">
        <ele>785.8</ele>
        <time>2019-04-12T05:53:06Z</time>
      </trkpt>
      <trkpt lat="42.14126" lon="2.39039">
        <ele>786.6</ele>
        <time>2019-04-12T05:53:06Z</time>
      </trkpt>
      <trkpt lat="42.14124" lon="2.39038">
        <ele>787.1</ele>
        <time>2019-04-12T05:53:07Z</time>
      </trkpt>
      <trkpt lat="42.14124" lon="2.39037">
        <ele>787.2</ele>
        <time>2019-04-12T05:53:07Z</time>
      </trkpt>
      <trkpt lat="42.14121" lon="2.39033">
        <ele>787.4</ele>
        <time>2019-04-12T05:53:09Z</time>
      </trkpt>
      <trkpt lat="42.1412" lon="2.39031">
        <ele>787.5</ele>
        <time>2019-04-12T05:53:09Z</time>
      </trkpt>
      <trkpt lat="42.1412" lon="2.39024">
        <ele>788.1</ele>
        <time>2019-04-12T05:53:12Z</time>
      </trkpt>
      <trkpt lat="42.14122" lon="2.39018">
        <ele>788.4</ele>
        <time>2019-04-12T05:53:14Z</time>
      </trkpt>
      <trkpt lat="42.14122" lon="2.39017">
        <ele>788.6</ele>
        <time>2019-04-12T05:53:14Z</time>
      </trkpt>
      <trkpt lat="42.14122" lon="2.39013">
        <ele>789</ele>
        <time>2019-04-12T05:53:15Z</time>
      </trkpt>
      <trkpt lat="42.14121" lon="2.39012">
        <ele>789.2</ele>
        <time>2019-04-12T05:53:15Z</time>
      </trkpt>
      <trkpt lat="42.14121" lon="2.39006">
        <ele>790</ele>
        <time>2019-04-12T05:53:17Z</time>
      </trkpt>
      <trkpt lat="42.14121" lon="2.39004">
        <ele>790.4</ele>
        <time>2019-04-12T05:53:18Z</time>
      </trkpt>
      <trkpt lat="42.14122" lon="2.38999">
        <ele>791.2</ele>
        <time>2019-04-12T05:53:19Z</time>
      </trkpt>
      <trkpt lat="42.14122" lon="2.38999">
        <ele>791.5</ele>
        <time>2019-04-12T05:53:20Z</time>
      </trkpt>
      <trkpt lat="42.14122" lon="2.38997">
        <ele>792.1</ele>
        <time>2019-04-12T05:53:20Z</time>
      </trkpt>
      <trkpt lat="42.14122" lon="2.38995">
        <ele>792.1</ele>
        <time>2019-04-12T05:53:21Z</time>
      </trkpt>
      <trkpt lat="42.14122" lon="2.38991">
        <ele>792.2</ele>
        <time>2019-04-12T05:53:22Z</time>
      </trkpt>
      <trkpt lat="42.14123" lon="2.3899">
        <ele>792.6</ele>
        <time>2019-04-12T05:53:22Z</time>
      </trkpt>
      <trkpt lat="42.14123" lon="2.38988">
        <ele>792.5</ele>
        <time>2019-04-12T05:53:23Z</time>
      </trkpt>
      <trkpt lat="42.14124" lon="2.38987">
        <ele>792.5</ele>
        <time>2019-04-12T05:53:23Z</time>
      </trkpt>
      <trkpt lat="42.14126" lon="2.38984">
        <ele>792</ele>
        <time>2019-04-12T05:53:24Z</time>
      </trkpt>
      <trkpt lat="42.14128" lon="2.38982">
        <ele>792</ele>
        <time>2019-04-12T05:53:26Z</time>
      </trkpt>
      <trkpt lat="42.14131" lon="2.3898">
        <ele>791.8</ele>
        <time>2019-04-12T05:53:27Z</time>
      </trkpt>
      <trkpt lat="42.14133" lon="2.38974">
        <ele>792.5</ele>
        <time>2019-04-12T05:53:29Z</time>
      </trkpt>
      <trkpt lat="42.14132" lon="2.38972">
        <ele>792.7</ele>
        <time>2019-04-12T05:53:29Z</time>
      </trkpt>
      <trkpt lat="42.1413" lon="2.3897">
        <ele>793.6</ele>
        <time>2019-04-12T05:53:30Z</time>
      </trkpt>
      <trkpt lat="42.1413" lon="2.38969">
        <ele>793.5</ele>
        <time>2019-04-12T05:53:31Z</time>
      </trkpt>
      <trkpt lat="42.14127" lon="2.38967">
        <ele>794.3</ele>
        <time>2019-04-12T05:53:32Z</time>
      </trkpt>
      <trkpt lat="42.14126" lon="2.38966">
        <ele>794.6</ele>
        <time>2019-04-12T05:53:32Z</time>
      </trkpt>
      <trkpt lat="42.14125" lon="2.38964">
        <ele>794.6</ele>
        <time>2019-04-12T05:53:33Z</time>
      </trkpt>
      <trkpt lat="42.14125" lon="2.38963">
        <ele>794.5</ele>
        <time>2019-04-12T05:53:33Z</time>
      </trkpt>
      <trkpt lat="42.14124" lon="2.38961">
        <ele>794.8</ele>
        <time>2019-04-12T05:53:34Z</time>
      </trkpt>
      <trkpt lat="42.14123" lon="2.38959">
        <ele>795</ele>
        <time>2019-04-12T05:53:35Z</time>
      </trkpt>
      <trkpt lat="42.14123" lon="2.38958">
        <ele>795.2</ele>
        <time>2019-04-12T05:53:35Z</time>
      </trkpt>
      <trkpt lat="42.14121" lon="2.38955">
        <ele>795</ele>
        <time>2019-04-12T05:53:36Z</time>
      </trkpt>
      <trkpt lat="42.14118" lon="2.38952">
        <ele>794.3</ele>
        <time>2019-04-12T05:53:38Z</time>
      </trkpt>
      <trkpt lat="42.14115" lon="2.38949">
        <ele>794.5</ele>
        <time>2019-04-12T05:53:39Z</time>
      </trkpt>
      <trkpt lat="42.14113" lon="2.38943">
        <ele>795.2</ele>
        <time>2019-04-12T05:53:41Z</time>
      </trkpt>
      <trkpt lat="42.14113" lon="2.38941">
        <ele>796</ele>
        <time>2019-04-12T05:53:41Z</time>
      </trkpt>
      <trkpt lat="42.14113" lon="2.3894">
        <ele>795.8</ele>
        <time>2019-04-12T05:53:42Z</time>
      </trkpt>
      <trkpt lat="42.14112" lon="2.38937">
        <ele>795.6</ele>
        <time>2019-04-12T05:53:43Z</time>
      </trkpt>
      <trkpt lat="42.1411" lon="2.38927">
        <ele>797</ele>
        <time>2019-04-12T05:53:46Z</time>
      </trkpt>
      <trkpt lat="42.1411" lon="2.38925">
        <ele>797</ele>
        <time>2019-04-12T05:53:46Z</time>
      </trkpt>
      <trkpt lat="42.14109" lon="2.38923">
        <ele>797.2</ele>
        <time>2019-04-12T05:53:47Z</time>
      </trkpt>
      <trkpt lat="42.14107" lon="2.38916">
        <ele>798</ele>
        <time>2019-04-12T05:53:49Z</time>
      </trkpt>
      <trkpt lat="42.14106" lon="2.38915">
        <ele>798.5</ele>
        <time>2019-04-12T05:53:50Z</time>
      </trkpt>
      <trkpt lat="42.14104" lon="2.3891">
        <ele>798.6</ele>
        <time>2019-04-12T05:53:51Z</time>
      </trkpt>
      <trkpt lat="42.14104" lon="2.38904">
        <ele>798.5</ele>
        <time>2019-04-12T05:53:53Z</time>
      </trkpt>
      <trkpt lat="42.14104" lon="2.38902">
        <ele>798.3</ele>
        <time>2019-04-12T05:53:54Z</time>
      </trkpt>
      <trkpt lat="42.14104" lon="2.389">
        <ele>798.5</ele>
        <time>2019-04-12T05:53:55Z</time>
      </trkpt>
      <trkpt lat="42.14104" lon="2.38895">
        <ele>799.8</ele>
        <time>2019-04-12T05:53:56Z</time>
      </trkpt>
      <trkpt lat="42.14104" lon="2.38893">
        <ele>799.4</ele>
        <time>2019-04-12T05:53:56Z</time>
      </trkpt>
      <trkpt lat="42.14104" lon="2.3889">
        <ele>798.3</ele>
        <time>2019-04-12T05:53:57Z</time>
      </trkpt>
      <trkpt lat="42.14103" lon="2.38884">
        <ele>799</ele>
        <time>2019-04-12T05:53:59Z</time>
      </trkpt>
      <trkpt lat="42.14103" lon="2.38882">
        <ele>799.5</ele>
        <time>2019-04-12T05:54:00Z</time>
      </trkpt>
      <trkpt lat="42.14102" lon="2.3888">
        <ele>800</ele>
        <time>2019-04-12T05:54:00Z</time>
      </trkpt>
      <trkpt lat="42.14102" lon="2.38879">
        <ele>801</ele>
        <time>2019-04-12T05:54:01Z</time>
      </trkpt>
      <trkpt lat="42.14102" lon="2.38877">
        <ele>801.7</ele>
        <time>2019-04-12T05:54:01Z</time>
      </trkpt>
      <trkpt lat="42.14102" lon="2.38876">
        <ele>802.2</ele>
        <time>2019-04-12T05:54:02Z</time>
      </trkpt>
      <trkpt lat="42.14102" lon="2.38873">
        <ele>801.7</ele>
        <time>2019-04-12T05:54:03Z</time>
      </trkpt>
      <trkpt lat="42.141" lon="2.3887">
        <ele>802.2</ele>
        <time>2019-04-12T05:54:04Z</time>
      </trkpt>
      <trkpt lat="42.14099" lon="2.38866">
        <ele>802</ele>
        <time>2019-04-12T05:54:05Z</time>
      </trkpt>
      <trkpt lat="42.14097" lon="2.38862">
        <ele>802.5</ele>
        <time>2019-04-12T05:54:06Z</time>
      </trkpt>
      <trkpt lat="42.14094" lon="2.38859">
        <ele>802.5</ele>
        <time>2019-04-12T05:54:08Z</time>
      </trkpt>
      <trkpt lat="42.14093" lon="2.38856">
        <ele>802.8</ele>
        <time>2019-04-12T05:54:09Z</time>
      </trkpt>
      <trkpt lat="42.14092" lon="2.38855">
        <ele>803.6</ele>
        <time>2019-04-12T05:54:09Z</time>
      </trkpt>
      <trkpt lat="42.14091" lon="2.38854">
        <ele>804.5</ele>
        <time>2019-04-12T05:54:10Z</time>
      </trkpt>
      <trkpt lat="42.1409" lon="2.38853">
        <ele>804.5</ele>
        <time>2019-04-12T05:54:10Z</time>
      </trkpt>
      <trkpt lat="42.14089" lon="2.38852">
        <ele>805</ele>
        <time>2019-04-12T05:54:11Z</time>
      </trkpt>
      <trkpt lat="42.14087" lon="2.38851">
        <ele>805.2</ele>
        <time>2019-04-12T05:54:11Z</time>
      </trkpt>
      <trkpt lat="42.14088" lon="2.38846">
        <ele>805.6</ele>
        <time>2019-04-12T05:54:13Z</time>
      </trkpt>
      <trkpt lat="42.14088" lon="2.38842">
        <ele>805.6</ele>
        <time>2019-04-12T05:54:14Z</time>
      </trkpt>
      <trkpt lat="42.14088" lon="2.38841">
        <ele>805.6</ele>
        <time>2019-04-12T05:54:14Z</time>
      </trkpt>
      <trkpt lat="42.14088" lon="2.38837">
        <ele>807.1</ele>
        <time>2019-04-12T05:54:16Z</time>
      </trkpt>
      <trkpt lat="42.14087" lon="2.38835">
        <ele>807.2</ele>
        <time>2019-04-12T05:54:16Z</time>
      </trkpt>
      <trkpt lat="42.14087" lon="2.38834">
        <ele>807.6</ele>
        <time>2019-04-12T05:54:17Z</time>
      </trkpt>
      <trkpt lat="42.14086" lon="2.38831">
        <ele>808.1</ele>
        <time>2019-04-12T05:54:18Z</time>
      </trkpt>
      <trkpt lat="42.14086" lon="2.38829">
        <ele>808.2</ele>
        <time>2019-04-12T05:54:18Z</time>
      </trkpt>
      <trkpt lat="42.14087" lon="2.38826">
        <ele>808.2</ele>
        <time>2019-04-12T05:54:19Z</time>
      </trkpt>
      <trkpt lat="42.14089" lon="2.38817">
        <ele>809.3</ele>
        <time>2019-04-12T05:54:22Z</time>
      </trkpt>
      <trkpt lat="42.14089" lon="2.38813">
        <ele>809.7</ele>
        <time>2019-04-12T05:54:23Z</time>
      </trkpt>
      <trkpt lat="42.1409" lon="2.3881">
        <ele>810.5</ele>
        <time>2019-04-12T05:54:24Z</time>
      </trkpt>
      <trkpt lat="42.14089" lon="2.38806">
        <ele>809.6</ele>
        <time>2019-04-12T05:54:25Z</time>
      </trkpt>
      <trkpt lat="42.14088" lon="2.38806">
        <ele>810.3</ele>
        <time>2019-04-12T05:54:25Z</time>
      </trkpt>
      <trkpt lat="42.14088" lon="2.38805">
        <ele>810.5</ele>
        <time>2019-04-12T05:54:26Z</time>
      </trkpt>
      <trkpt lat="42.14086" lon="2.38803">
        <ele>811.2</ele>
        <time>2019-04-12T05:54:27Z</time>
      </trkpt>
      <trkpt lat="42.14085" lon="2.38802">
        <ele>811.6</ele>
        <time>2019-04-12T05:54:27Z</time>
      </trkpt>
      <trkpt lat="42.14084" lon="2.388">
        <ele>812.1</ele>
        <time>2019-04-12T05:54:28Z</time>
      </trkpt>
      <trkpt lat="42.14083" lon="2.388">
        <ele>812.3</ele>
        <time>2019-04-12T05:54:28Z</time>
      </trkpt>
      <trkpt lat="42.14082" lon="2.38798">
        <ele>812.5</ele>
        <time>2019-04-12T05:54:29Z</time>
      </trkpt>
      <trkpt lat="42.14082" lon="2.38797">
        <ele>813.1</ele>
        <time>2019-04-12T05:54:29Z</time>
      </trkpt>
      <trkpt lat="42.14082" lon="2.38795">
        <ele>813.4</ele>
        <time>2019-04-12T05:54:30Z</time>
      </trkpt>
      <trkpt lat="42.14081" lon="2.38792">
        <ele>814</ele>
        <time>2019-04-12T05:54:31Z</time>
      </trkpt>
      <trkpt lat="42.14082" lon="2.38787">
        <ele>814.4</ele>
        <time>2019-04-12T05:54:32Z</time>
      </trkpt>
      <trkpt lat="42.14082" lon="2.38784">
        <ele>814.3</ele>
        <time>2019-04-12T05:54:33Z</time>
      </trkpt>
      <trkpt lat="42.14082" lon="2.3878">
        <ele>814.1</ele>
        <time>2019-04-12T05:54:34Z</time>
      </trkpt>
      <trkpt lat="42.14083" lon="2.38776">
        <ele>814</ele>
        <time>2019-04-12T05:54:36Z</time>
      </trkpt>
      <trkpt lat="42.14084" lon="2.38775">
        <ele>814.2</ele>
        <time>2019-04-12T05:54:36Z</time>
      </trkpt>
      <trkpt lat="42.14085" lon="2.38772">
        <ele>815.1</ele>
        <time>2019-04-12T05:54:37Z</time>
      </trkpt>
      <trkpt lat="42.14085" lon="2.38771">
        <ele>815.5</ele>
        <time>2019-04-12T05:54:37Z</time>
      </trkpt>
      <trkpt lat="42.14087" lon="2.38767">
        <ele>816</ele>
        <time>2019-04-12T05:54:39Z</time>
      </trkpt>
      <trkpt lat="42.14086" lon="2.38766">
        <ele>816.1</ele>
        <time>2019-04-12T05:54:39Z</time>
      </trkpt>
      <trkpt lat="42.14086" lon="2.38765">
        <ele>816.1</ele>
        <time>2019-04-12T05:54:39Z</time>
      </trkpt>
      <trkpt lat="42.14085" lon="2.38764">
        <ele>816</ele>
        <time>2019-04-12T05:54:40Z</time>
      </trkpt>
      <trkpt lat="42.14085" lon="2.38762">
        <ele>816.5</ele>
        <time>2019-04-12T05:54:40Z</time>
      </trkpt>
      <trkpt lat="42.14085" lon="2.3876">
        <ele>817</ele>
        <time>2019-04-12T05:54:41Z</time>
      </trkpt>
      <trkpt lat="42.14086" lon="2.38759">
        <ele>817.5</ele>
        <time>2019-04-12T05:54:41Z</time>
      </trkpt>
      <trkpt lat="42.14087" lon="2.38755">
        <ele>818.3</ele>
        <time>2019-04-12T05:54:42Z</time>
      </trkpt>
      <trkpt lat="42.14087" lon="2.38754">
        <ele>818.4</ele>
        <time>2019-04-12T05:54:43Z</time>
      </trkpt>
      <trkpt lat="42.14087" lon="2.38753">
        <ele>818.6</ele>
        <time>2019-04-12T05:54:43Z</time>
      </trkpt>
      <trkpt lat="42.14086" lon="2.3875">
        <ele>819.1</ele>
        <time>2019-04-12T05:54:44Z</time>
      </trkpt>
      <trkpt lat="42.14084" lon="2.38748">
        <ele>819.6</ele>
        <time>2019-04-12T05:54:45Z</time>
      </trkpt>
      <trkpt lat="42.14083" lon="2.38745">
        <ele>820.1</ele>
        <time>2019-04-12T05:54:46Z</time>
      </trkpt>
      <trkpt lat="42.14081" lon="2.38743">
        <ele>820.3</ele>
        <time>2019-04-12T05:54:47Z</time>
      </trkpt>
      <trkpt lat="42.1408" lon="2.38742">
        <ele>820</ele>
        <time>2019-04-12T05:54:47Z</time>
      </trkpt>
      <trkpt lat="42.14081" lon="2.38735">
        <ele>820.6</ele>
        <time>2019-04-12T05:54:49Z</time>
      </trkpt>
      <trkpt lat="42.14081" lon="2.38732">
        <ele>820.7</ele>
        <time>2019-04-12T05:54:50Z</time>
      </trkpt>
      <trkpt lat="42.14081" lon="2.38731">
        <ele>821</ele>
        <time>2019-04-12T05:54:51Z</time>
      </trkpt>
      <trkpt lat="42.14081" lon="2.3873">
        <ele>821.2</ele>
        <time>2019-04-12T05:54:51Z</time>
      </trkpt>
      <trkpt lat="42.14079" lon="2.38727">
        <ele>821.3</ele>
        <time>2019-04-12T05:54:52Z</time>
      </trkpt>
      <trkpt lat="42.14078" lon="2.38726">
        <ele>821.5</ele>
        <time>2019-04-12T05:54:53Z</time>
      </trkpt>
      <trkpt lat="42.14077" lon="2.38725">
        <ele>821.7</ele>
        <time>2019-04-12T05:54:53Z</time>
      </trkpt>
      <trkpt lat="42.14076" lon="2.38725">
        <ele>822.3</ele>
        <time>2019-04-12T05:54:54Z</time>
      </trkpt>
      <trkpt lat="42.14075" lon="2.38724">
        <ele>823.2</ele>
        <time>2019-04-12T05:54:54Z</time>
      </trkpt>
      <trkpt lat="42.14072" lon="2.38723">
        <ele>823.8</ele>
        <time>2019-04-12T05:54:55Z</time>
      </trkpt>
      <trkpt lat="42.14071" lon="2.38718">
        <ele>823.8</ele>
        <time>2019-04-12T05:54:57Z</time>
      </trkpt>
      <trkpt lat="42.14072" lon="2.38714">
        <ele>824.3</ele>
        <time>2019-04-12T05:54:58Z</time>
      </trkpt>
      <trkpt lat="42.14072" lon="2.38712">
        <ele>824.7</ele>
        <time>2019-04-12T05:54:59Z</time>
      </trkpt>
      <trkpt lat="42.14072" lon="2.38711">
        <ele>825.4</ele>
        <time>2019-04-12T05:54:59Z</time>
      </trkpt>
      <trkpt lat="42.14072" lon="2.38709">
        <ele>825.5</ele>
        <time>2019-04-12T05:54:59Z</time>
      </trkpt>
      <trkpt lat="42.14071" lon="2.38707">
        <ele>826.4</ele>
        <time>2019-04-12T05:55:00Z</time>
      </trkpt>
      <trkpt lat="42.14071" lon="2.38705">
        <ele>827</ele>
        <time>2019-04-12T05:55:01Z</time>
      </trkpt>
      <trkpt lat="42.14071" lon="2.38704">
        <ele>827.2</ele>
        <time>2019-04-12T05:55:01Z</time>
      </trkpt>
      <trkpt lat="42.14071" lon="2.38702">
        <ele>827.5</ele>
        <time>2019-04-12T05:55:02Z</time>
      </trkpt>
      <trkpt lat="42.14071" lon="2.38701">
        <ele>827.4</ele>
        <time>2019-04-12T05:55:02Z</time>
      </trkpt>
      <trkpt lat="42.1407" lon="2.38698">
        <ele>827.8</ele>
        <time>2019-04-12T05:55:03Z</time>
      </trkpt>
      <trkpt lat="42.1407" lon="2.38697">
        <ele>828.1</ele>
        <time>2019-04-12T05:55:03Z</time>
      </trkpt>
      <trkpt lat="42.1407" lon="2.38694">
        <ele>828.6</ele>
        <time>2019-04-12T05:55:04Z</time>
      </trkpt>
      <trkpt lat="42.1407" lon="2.38689">
        <ele>829.4</ele>
        <time>2019-04-12T05:55:06Z</time>
      </trkpt>
      <trkpt lat="42.1407" lon="2.38684">
        <ele>829.8</ele>
        <time>2019-04-12T05:55:07Z</time>
      </trkpt>
      <trkpt lat="42.14069" lon="2.38683">
        <ele>830</ele>
        <time>2019-04-12T05:55:07Z</time>
      </trkpt>
      <trkpt lat="42.14068" lon="2.38679">
        <ele>830</ele>
        <time>2019-04-12T05:55:09Z</time>
      </trkpt>
      <trkpt lat="42.14067" lon="2.38676">
        <ele>830.8</ele>
        <time>2019-04-12T05:55:10Z</time>
      </trkpt>
      <trkpt lat="42.14066" lon="2.38675">
        <ele>831.8</ele>
        <time>2019-04-12T05:55:10Z</time>
      </trkpt>
      <trkpt lat="42.14066" lon="2.38674">
        <ele>832.2</ele>
        <time>2019-04-12T05:55:11Z</time>
      </trkpt>
      <trkpt lat="42.14063" lon="2.38672">
        <ele>832.7</ele>
        <time>2019-04-12T05:55:12Z</time>
      </trkpt>
      <trkpt lat="42.14062" lon="2.3867">
        <ele>833.5</ele>
        <time>2019-04-12T05:55:13Z</time>
      </trkpt>
      <trkpt lat="42.14061" lon="2.38669">
        <ele>833.6</ele>
        <time>2019-04-12T05:55:13Z</time>
      </trkpt>
      <trkpt lat="42.14059" lon="2.38667">
        <ele>834.3</ele>
        <time>2019-04-12T05:55:14Z</time>
      </trkpt>
      <trkpt lat="42.14058" lon="2.38667">
        <ele>834.5</ele>
        <time>2019-04-12T05:55:14Z</time>
      </trkpt>
      <trkpt lat="42.14058" lon="2.38667">
        <ele>834.6</ele>
        <time>2019-04-12T05:55:15Z</time>
      </trkpt>
      <trkpt lat="42.14057" lon="2.38666">
        <ele>834.5</ele>
        <time>2019-04-12T05:55:15Z</time>
      </trkpt>
      <trkpt lat="42.14055" lon="2.38664">
        <ele>835.4</ele>
        <time>2019-04-12T05:55:16Z</time>
      </trkpt>
      <trkpt lat="42.14054" lon="2.38663">
        <ele>835.5</ele>
        <time>2019-04-12T05:55:16Z</time>
      </trkpt>
      <trkpt lat="42.14053" lon="2.38662">
        <ele>836.1</ele>
        <time>2019-04-12T05:55:17Z</time>
      </trkpt>
      <trkpt lat="42.14053" lon="2.38659">
        <ele>836.4</ele>
        <time>2019-04-12T05:55:18Z</time>
      </trkpt>
      <trkpt lat="42.14053" lon="2.38657">
        <ele>836.8</ele>
        <time>2019-04-12T05:55:18Z</time>
      </trkpt>
      <trkpt lat="42.14053" lon="2.38656">
        <ele>837.2</ele>
        <time>2019-04-12T05:55:19Z</time>
      </trkpt>
      <trkpt lat="42.14053" lon="2.38656">
        <ele>837.5</ele>
        <time>2019-04-12T05:55:19Z</time>
      </trkpt>
      <trkpt lat="42.14051" lon="2.38653">
        <ele>838.5</ele>
        <time>2019-04-12T05:55:20Z</time>
      </trkpt>
      <trkpt lat="42.1405" lon="2.38653">
        <ele>838.6</ele>
        <time>2019-04-12T05:55:20Z</time>
      </trkpt>
      <trkpt lat="42.1405" lon="2.38653">
        <ele>838.8</ele>
        <time>2019-04-12T05:55:20Z</time>
      </trkpt>
      <trkpt lat="42.14047" lon="2.38651">
        <ele>839.2</ele>
        <time>2019-04-12T05:55:22Z</time>
      </trkpt>
      <trkpt lat="42.14046" lon="2.3865">
        <ele>839.5</ele>
        <time>2019-04-12T05:55:22Z</time>
      </trkpt>
      <trkpt lat="42.14046" lon="2.38649">
        <ele>839.5</ele>
        <time>2019-04-12T05:55:23Z</time>
      </trkpt>
      <trkpt lat="42.14044" lon="2.38646">
        <ele>840</ele>
        <time>2019-04-12T05:55:23Z</time>
      </trkpt>
      <trkpt lat="42.14043" lon="2.38643">
        <ele>841.1</ele>
        <time>2019-04-12T05:55:24Z</time>
      </trkpt>
      <trkpt lat="42.14042" lon="2.38643">
        <ele>841.2</ele>
        <time>2019-04-12T05:55:25Z</time>
      </trkpt>
      <trkpt lat="42.14037" lon="2.38635">
        <ele>842.1</ele>
        <time>2019-04-12T05:55:28Z</time>
      </trkpt>
      <trkpt lat="42.14037" lon="2.38634">
        <ele>842.1</ele>
        <time>2019-04-12T05:55:28Z</time>
      </trkpt>
      <trkpt lat="42.14035" lon="2.3863">
        <ele>842.4</ele>
        <time>2019-04-12T05:55:30Z</time>
      </trkpt>
      <trkpt lat="42.14033" lon="2.38626">
        <ele>842.6</ele>
        <time>2019-04-12T05:55:31Z</time>
      </trkpt>
      <trkpt lat="42.14032" lon="2.38625">
        <ele>843.1</ele>
        <time>2019-04-12T05:55:31Z</time>
      </trkpt>
      <trkpt lat="42.14032" lon="2.38624">
        <ele>843.4</ele>
        <time>2019-04-12T05:55:32Z</time>
      </trkpt>
      <trkpt lat="42.14032" lon="2.38621">
        <ele>843.7</ele>
        <time>2019-04-12T05:55:33Z</time>
      </trkpt>
      <trkpt lat="42.14033" lon="2.38619">
        <ele>844.1</ele>
        <time>2019-04-12T05:55:33Z</time>
      </trkpt>
      <trkpt lat="42.14033" lon="2.38618">
        <ele>844.2</ele>
        <time>2019-04-12T05:55:34Z</time>
      </trkpt>
      <trkpt lat="42.14032" lon="2.38617">
        <ele>844.2</ele>
        <time>2019-04-12T05:55:34Z</time>
      </trkpt>
      <trkpt lat="42.1403" lon="2.38611">
        <ele>845.1</ele>
        <time>2019-04-12T05:55:36Z</time>
      </trkpt>
      <trkpt lat="42.14029" lon="2.38611">
        <ele>845.3</ele>
        <time>2019-04-12T05:55:36Z</time>
      </trkpt>
      <trkpt lat="42.14028" lon="2.3861">
        <ele>845.3</ele>
        <time>2019-04-12T05:55:37Z</time>
      </trkpt>
      <trkpt lat="42.14027" lon="2.38609">
        <ele>845.5</ele>
        <time>2019-04-12T05:55:37Z</time>
      </trkpt>
      <trkpt lat="42.14026" lon="2.38605">
        <ele>846.3</ele>
        <time>2019-04-12T05:55:39Z</time>
      </trkpt>
      <trkpt lat="42.14026" lon="2.38604">
        <ele>846.4</ele>
        <time>2019-04-12T05:55:39Z</time>
      </trkpt>
      <trkpt lat="42.14025" lon="2.38603">
        <ele>846.6</ele>
        <time>2019-04-12T05:55:39Z</time>
      </trkpt>
      <trkpt lat="42.14024" lon="2.38601">
        <ele>846.8</ele>
        <time>2019-04-12T05:55:40Z</time>
      </trkpt>
      <trkpt lat="42.14022" lon="2.386">
        <ele>847.4</ele>
        <time>2019-04-12T05:55:41Z</time>
      </trkpt>
      <trkpt lat="42.14018" lon="2.38598">
        <ele>848.5</ele>
        <time>2019-04-12T05:55:43Z</time>
      </trkpt>
      <trkpt lat="42.14017" lon="2.38597">
        <ele>848.5</ele>
        <time>2019-04-12T05:55:43Z</time>
      </trkpt>
      <trkpt lat="42.14015" lon="2.38595">
        <ele>849</ele>
        <time>2019-04-12T05:55:44Z</time>
      </trkpt>
      <trkpt lat="42.14015" lon="2.38592">
        <ele>849.7</ele>
        <time>2019-04-12T05:55:45Z</time>
      </trkpt>
      <trkpt lat="42.14015" lon="2.3859">
        <ele>850.2</ele>
        <time>2019-04-12T05:55:46Z</time>
      </trkpt>
      <trkpt lat="42.14015" lon="2.38589">
        <ele>850.5</ele>
        <time>2019-04-12T05:55:46Z</time>
      </trkpt>
      <trkpt lat="42.14015" lon="2.38588">
        <ele>850.8</ele>
        <time>2019-04-12T05:55:46Z</time>
      </trkpt>
      <trkpt lat="42.14014" lon="2.38587">
        <ele>850.7</ele>
        <time>2019-04-12T05:55:47Z</time>
      </trkpt>
      <trkpt lat="42.14013" lon="2.38586">
        <ele>851.5</ele>
        <time>2019-04-12T05:55:47Z</time>
      </trkpt>
      <trkpt lat="42.14013" lon="2.38586">
        <ele>851.4</ele>
        <time>2019-04-12T05:55:47Z</time>
      </trkpt>
      <trkpt lat="42.14011" lon="2.38585">
        <ele>851.5</ele>
        <time>2019-04-12T05:55:48Z</time>
      </trkpt>
      <trkpt lat="42.14009" lon="2.38584">
        <ele>851.7</ele>
        <time>2019-04-12T05:55:49Z</time>
      </trkpt>
      <trkpt lat="42.14008" lon="2.38584">
        <ele>851.7</ele>
        <time>2019-04-12T05:55:49Z</time>
      </trkpt>
      <trkpt lat="42.14007" lon="2.38582">
        <ele>852</ele>
        <time>2019-04-12T05:55:50Z</time>
      </trkpt>
      <trkpt lat="42.14006" lon="2.38581">
        <ele>852.5</ele>
        <time>2019-04-12T05:55:51Z</time>
      </trkpt>
      <trkpt lat="42.14005" lon="2.3858">
        <ele>853.1</ele>
        <time>2019-04-12T05:55:51Z</time>
      </trkpt>
      <trkpt lat="42.14004" lon="2.3858">
        <ele>853.5</ele>
        <time>2019-04-12T05:55:51Z</time>
      </trkpt>
      <trkpt lat="42.14001" lon="2.38578">
        <ele>853.7</ele>
        <time>2019-04-12T05:55:53Z</time>
      </trkpt>
      <trkpt lat="42.14" lon="2.38577">
        <ele>854.1</ele>
        <time>2019-04-12T05:55:53Z</time>
      </trkpt>
      <trkpt lat="42.13999" lon="2.38577">
        <ele>854.1</ele>
        <time>2019-04-12T05:55:54Z</time>
      </trkpt>
      <trkpt lat="42.13997" lon="2.38577">
        <ele>854.3</ele>
        <time>2019-04-12T05:55:54Z</time>
      </trkpt>
      <trkpt lat="42.13995" lon="2.38576">
        <ele>854.2</ele>
        <time>2019-04-12T05:55:55Z</time>
      </trkpt>
      <trkpt lat="42.13994" lon="2.38576">
        <ele>854.5</ele>
        <time>2019-04-12T05:55:55Z</time>
      </trkpt>
      <trkpt lat="42.13993" lon="2.38572">
        <ele>855.3</ele>
        <time>2019-04-12T05:55:57Z</time>
      </trkpt>
      <trkpt lat="42.13992" lon="2.38569">
        <ele>855.4</ele>
        <time>2019-04-12T05:55:58Z</time>
      </trkpt>
      <trkpt lat="42.13991" lon="2.38566">
        <ele>855.5</ele>
        <time>2019-04-12T05:55:59Z</time>
      </trkpt>
      <trkpt lat="42.13991" lon="2.38566">
        <ele>855.7</ele>
        <time>2019-04-12T05:55:59Z</time>
      </trkpt>
      <trkpt lat="42.13989" lon="2.38562">
        <ele>856.3</ele>
        <time>2019-04-12T05:56:00Z</time>
      </trkpt>
      <trkpt lat="42.13988" lon="2.38561">
        <ele>856.5</ele>
        <time>2019-04-12T05:56:00Z</time>
      </trkpt>
      <trkpt lat="42.13986" lon="2.3856">
        <ele>857.1</ele>
        <time>2019-04-12T05:56:01Z</time>
      </trkpt>
      <trkpt lat="42.13984" lon="2.38558">
        <ele>857.5</ele>
        <time>2019-04-12T05:56:02Z</time>
      </trkpt>
      <trkpt lat="42.13978" lon="2.38553">
        <ele>858.5</ele>
        <time>2019-04-12T05:56:05Z</time>
      </trkpt>
      <trkpt lat="42.13976" lon="2.38552">
        <ele>858.5</ele>
        <time>2019-04-12T05:56:06Z</time>
      </trkpt>
      <trkpt lat="42.13974" lon="2.3855">
        <ele>859.3</ele>
        <time>2019-04-12T05:56:07Z</time>
      </trkpt>
      <trkpt lat="42.13973" lon="2.38549">
        <ele>859.5</ele>
        <time>2019-04-12T05:56:08Z</time>
      </trkpt>
      <trkpt lat="42.13972" lon="2.38549">
        <ele>859.8</ele>
        <time>2019-04-12T05:56:08Z</time>
      </trkpt>
      <trkpt lat="42.1397" lon="2.38547">
        <ele>860.5</ele>
        <time>2019-04-12T05:56:09Z</time>
      </trkpt>
      <trkpt lat="42.13969" lon="2.38546">
        <ele>860.7</ele>
        <time>2019-04-12T05:56:10Z</time>
      </trkpt>
      <trkpt lat="42.13968" lon="2.38545">
        <ele>861</ele>
        <time>2019-04-12T05:56:10Z</time>
      </trkpt>
      <trkpt lat="42.13964" lon="2.38543">
        <ele>862</ele>
        <time>2019-04-12T05:56:12Z</time>
      </trkpt>
      <trkpt lat="42.1396" lon="2.38536">
        <ele>863.3</ele>
        <time>2019-04-12T05:56:14Z</time>
      </trkpt>
      <trkpt lat="42.13959" lon="2.38534">
        <ele>863.5</ele>
        <time>2019-04-12T05:56:15Z</time>
      </trkpt>
      <trkpt lat="42.13958" lon="2.38532">
        <ele>863.5</ele>
        <time>2019-04-12T05:56:15Z</time>
      </trkpt>
      <trkpt lat="42.13958" lon="2.38531">
        <ele>863.7</ele>
        <time>2019-04-12T05:56:16Z</time>
      </trkpt>
      <trkpt lat="42.13957" lon="2.38528">
        <ele>864.3</ele>
        <time>2019-04-12T05:56:17Z</time>
      </trkpt>
      <trkpt lat="42.13955" lon="2.38527">
        <ele>864.5</ele>
        <time>2019-04-12T05:56:18Z</time>
      </trkpt>
      <trkpt lat="42.13954" lon="2.38527">
        <ele>865.3</ele>
        <time>2019-04-12T05:56:18Z</time>
      </trkpt>
      <trkpt lat="42.13952" lon="2.38526">
        <ele>865.8</ele>
        <time>2019-04-12T05:56:19Z</time>
      </trkpt>
      <trkpt lat="42.13951" lon="2.38525">
        <ele>866.2</ele>
        <time>2019-04-12T05:56:19Z</time>
      </trkpt>
      <trkpt lat="42.13951" lon="2.38525">
        <ele>866.4</ele>
        <time>2019-04-12T05:56:19Z</time>
      </trkpt>
      <trkpt lat="42.1395" lon="2.38524">
        <ele>866.5</ele>
        <time>2019-04-12T05:56:20Z</time>
      </trkpt>
      <trkpt lat="42.13949" lon="2.38523">
        <ele>867.5</ele>
        <time>2019-04-12T05:56:20Z</time>
      </trkpt>
      <trkpt lat="42.13948" lon="2.38521">
        <ele>867.8</ele>
        <time>2019-04-12T05:56:21Z</time>
      </trkpt>
      <trkpt lat="42.13946" lon="2.38518">
        <ele>868.5</ele>
        <time>2019-04-12T05:56:22Z</time>
      </trkpt>
      <trkpt lat="42.13944" lon="2.38518">
        <ele>869.5</ele>
        <time>2019-04-12T05:56:23Z</time>
      </trkpt>
      <trkpt lat="42.13944" lon="2.38518">
        <ele>869.5</ele>
        <time>2019-04-12T05:56:23Z</time>
      </trkpt>
      <trkpt lat="42.13942" lon="2.38517">
        <ele>870.1</ele>
        <time>2019-04-12T05:56:24Z</time>
      </trkpt>
      <trkpt lat="42.13938" lon="2.38517">
        <ele>870.6</ele>
        <time>2019-04-12T05:56:25Z</time>
      </trkpt>
      <trkpt lat="42.13934" lon="2.38514">
        <ele>871.8</ele>
        <time>2019-04-12T05:56:27Z</time>
      </trkpt>
      <trkpt lat="42.13927" lon="2.38512">
        <ele>873</ele>
        <time>2019-04-12T05:56:30Z</time>
      </trkpt>
      <trkpt lat="42.13926" lon="2.38512">
        <ele>873.5</ele>
        <time>2019-04-12T05:56:31Z</time>
      </trkpt>
      <trkpt lat="42.13924" lon="2.3851">
        <ele>874</ele>
        <time>2019-04-12T05:56:32Z</time>
      </trkpt>
      <trkpt lat="42.13923" lon="2.38509">
        <ele>874.5</ele>
        <time>2019-04-12T05:56:32Z</time>
      </trkpt>
      <trkpt lat="42.13922" lon="2.38507">
        <ele>874.8</ele>
        <time>2019-04-12T05:56:33Z</time>
      </trkpt>
      <trkpt lat="42.13921" lon="2.38506">
        <ele>875.2</ele>
        <time>2019-04-12T05:56:33Z</time>
      </trkpt>
      <trkpt lat="42.13921" lon="2.38505">
        <ele>875.4</ele>
        <time>2019-04-12T05:56:34Z</time>
      </trkpt>
      <trkpt lat="42.1392" lon="2.38503">
        <ele>876.3</ele>
        <time>2019-04-12T05:56:34Z</time>
      </trkpt>
      <trkpt lat="42.1392" lon="2.385">
        <ele>876.5</ele>
        <time>2019-04-12T05:56:35Z</time>
      </trkpt>
      <trkpt lat="42.1392" lon="2.38498">
        <ele>876.7</ele>
        <time>2019-04-12T05:56:36Z</time>
      </trkpt>
      <trkpt lat="42.1392" lon="2.38497">
        <ele>877</ele>
        <time>2019-04-12T05:56:36Z</time>
      </trkpt>
      <trkpt lat="42.13919" lon="2.38495">
        <ele>877.3</ele>
        <time>2019-04-12T05:56:37Z</time>
      </trkpt>
      <trkpt lat="42.13919" lon="2.38494">
        <ele>877.6</ele>
        <time>2019-04-12T05:56:37Z</time>
      </trkpt>
      <trkpt lat="42.13918" lon="2.38493">
        <ele>877.7</ele>
        <time>2019-04-12T05:56:37Z</time>
      </trkpt>
      <trkpt lat="42.13917" lon="2.38492">
        <ele>878.5</ele>
        <time>2019-04-12T05:56:38Z</time>
      </trkpt>
      <trkpt lat="42.13913" lon="2.3849">
        <ele>879.7</ele>
        <time>2019-04-12T05:56:39Z</time>
      </trkpt>
      <trkpt lat="42.1391" lon="2.3849">
        <ele>880.4</ele>
        <time>2019-04-12T05:56:41Z</time>
      </trkpt>
      <trkpt lat="42.13905" lon="2.38491">
        <ele>880.8</ele>
        <time>2019-04-12T05:56:43Z</time>
      </trkpt>
      <trkpt lat="42.13904" lon="2.38492">
        <ele>881.1</ele>
        <time>2019-04-12T05:56:43Z</time>
      </trkpt>
      <trkpt lat="42.13902" lon="2.38492">
        <ele>881.6</ele>
        <time>2019-04-12T05:56:44Z</time>
      </trkpt>
      <trkpt lat="42.13901" lon="2.38492">
        <ele>882.1</ele>
        <time>2019-04-12T05:56:44Z</time>
      </trkpt>
      <trkpt lat="42.139" lon="2.38492">
        <ele>882</ele>
        <time>2019-04-12T05:56:45Z</time>
      </trkpt>
      <trkpt lat="42.13896" lon="2.38491">
        <ele>882.6</ele>
        <time>2019-04-12T05:56:47Z</time>
      </trkpt>
      <trkpt lat="42.13893" lon="2.38486">
        <ele>882.6</ele>
        <time>2019-04-12T05:56:49Z</time>
      </trkpt>
      <trkpt lat="42.13892" lon="2.38482">
        <ele>882.6</ele>
        <time>2019-04-12T05:56:50Z</time>
      </trkpt>
      <trkpt lat="42.1389" lon="2.38478">
        <ele>883.2</ele>
        <time>2019-04-12T05:56:51Z</time>
      </trkpt>
      <trkpt lat="42.13887" lon="2.38475">
        <ele>884.4</ele>
        <time>2019-04-12T05:56:53Z</time>
      </trkpt>
      <trkpt lat="42.13887" lon="2.38474">
        <ele>884.5</ele>
        <time>2019-04-12T05:56:53Z</time>
      </trkpt>
      <trkpt lat="42.13885" lon="2.3847">
        <ele>885.6</ele>
        <time>2019-04-12T05:56:54Z</time>
      </trkpt>
      <trkpt lat="42.13884" lon="2.38468">
        <ele>886.2</ele>
        <time>2019-04-12T05:56:55Z</time>
      </trkpt>
      <trkpt lat="42.13884" lon="2.38467">
        <ele>886.3</ele>
        <time>2019-04-12T05:56:55Z</time>
      </trkpt>
      <trkpt lat="42.13883" lon="2.38467">
        <ele>886.5</ele>
        <time>2019-04-12T05:56:56Z</time>
      </trkpt>
      <trkpt lat="42.13883" lon="2.38468">
        <ele>886.6</ele>
        <time>2019-04-12T05:56:56Z</time>
      </trkpt>
      <trkpt lat="42.13884" lon="2.3847">
        <ele>886.7</ele>
        <time>2019-04-12T05:56:57Z</time>
      </trkpt>
      <trkpt lat="42.13885" lon="2.3847">
        <ele>886.8</ele>
        <time>2019-04-12T05:56:57Z</time>
      </trkpt>
      <trkpt lat="42.13895" lon="2.38462">
        <ele>887.4</ele>
        <time>2019-04-12T05:57:02Z</time>
      </trkpt>
      <trkpt lat="42.13898" lon="2.38461">
        <ele>887.7</ele>
        <time>2019-04-12T05:57:03Z</time>
      </trkpt>
      <trkpt lat="42.13901" lon="2.38462">
        <ele>889.1</ele>
        <time>2019-04-12T05:57:04Z</time>
      </trkpt>
      <trkpt lat="42.13901" lon="2.38464">
        <ele>889.2</ele>
        <time>2019-04-12T05:57:04Z</time>
      </trkpt>
      <trkpt lat="42.139" lon="2.38468">
        <ele>889.7</ele>
        <time>2019-04-12T05:57:06Z</time>
      </trkpt>
      <trkpt lat="42.13901" lon="2.38468">
        <ele>890.2</ele>
        <time>2019-04-12T05:57:06Z</time>
      </trkpt>
      <trkpt lat="42.13901" lon="2.38466">
        <ele>890.5</ele>
        <time>2019-04-12T05:57:06Z</time>
      </trkpt>
      <trkpt lat="42.13901" lon="2.38463">
        <ele>891.2</ele>
        <time>2019-04-12T05:57:07Z</time>
      </trkpt>
      <trkpt lat="42.13902" lon="2.38462">
        <ele>891.8</ele>
        <time>2019-04-12T05:57:08Z</time>
      </trkpt>
      <trkpt lat="42.13903" lon="2.38459">
        <ele>892.5</ele>
        <time>2019-04-12T05:57:09Z</time>
      </trkpt>
      <trkpt lat="42.13903" lon="2.38458">
        <ele>892.8</ele>
        <time>2019-04-12T05:57:09Z</time>
      </trkpt>
      <trkpt lat="42.13903" lon="2.38457">
        <ele>893.5</ele>
        <time>2019-04-12T05:57:09Z</time>
      </trkpt>
      <trkpt lat="42.13903" lon="2.38455">
        <ele>894.3</ele>
        <time>2019-04-12T05:57:10Z</time>
      </trkpt>
      <trkpt lat="42.13903" lon="2.38454">
        <ele>894.5</ele>
        <time>2019-04-12T05:57:10Z</time>
      </trkpt>
      <trkpt lat="42.13904" lon="2.38453">
        <ele>894.5</ele>
        <time>2019-04-12T05:57:11Z</time>
      </trkpt>
      <trkpt lat="42.13902" lon="2.38452">
        <ele>895</ele>
        <time>2019-04-12T05:57:11Z</time>
      </trkpt>
      <trkpt lat="42.13901" lon="2.38453">
        <ele>895.2</ele>
        <time>2019-04-12T05:57:12Z</time>
      </trkpt>
      <trkpt lat="42.13899" lon="2.38454">
        <ele>895.7</ele>
        <time>2019-04-12T05:57:13Z</time>
      </trkpt>
      <trkpt lat="42.13896" lon="2.38455">
        <ele>896.2</ele>
        <time>2019-04-12T05:57:14Z</time>
      </trkpt>
      <trkpt lat="42.13894" lon="2.38457">
        <ele>896.5</ele>
        <time>2019-04-12T05:57:15Z</time>
      </trkpt>
      <trkpt lat="42.13892" lon="2.38458">
        <ele>896.6</ele>
        <time>2019-04-12T05:57:16Z</time>
      </trkpt>
      <trkpt lat="42.13891" lon="2.38459">
        <ele>896.7</ele>
        <time>2019-04-12T05:57:16Z</time>
      </trkpt>
      <trkpt lat="42.13891" lon="2.38465">
        <ele>898.1</ele>
        <time>2019-04-12T05:57:18Z</time>
      </trkpt>
      <trkpt lat="42.13891" lon="2.38467">
        <ele>898.5</ele>
        <time>2019-04-12T05:57:19Z</time>
      </trkpt>
      <trkpt lat="42.13891" lon="2.3847">
        <ele>898.5</ele>
        <time>2019-04-12T05:57:20Z</time>
      </trkpt>
      <trkpt lat="42.13891" lon="2.38469">
        <ele>899</ele>
        <time>2019-04-12T05:57:20Z</time>
      </trkpt>
      <trkpt lat="42.1389" lon="2.3847">
        <ele>899.7</ele>
        <time>2019-04-12T05:57:21Z</time>
      </trkpt>
      <trkpt lat="42.13891" lon="2.38469">
        <ele>900</ele>
        <time>2019-04-12T05:57:21Z</time>
      </trkpt>
      <trkpt lat="42.13891" lon="2.38467">
        <ele>900</ele>
        <time>2019-04-12T05:57:22Z</time>
      </trkpt>
      <trkpt lat="42.13891" lon="2.38469">
        <ele>901.1</ele>
        <time>2019-04-12T05:57:22Z</time>
      </trkpt>
      <trkpt lat="42.13891" lon="2.38471">
        <ele>901.3</ele>
        <time>2019-04-12T05:57:23Z</time>
      </trkpt>
      <trkpt lat="42.13889" lon="2.38475">
        <ele>901.8</ele>
        <time>2019-04-12T05:57:24Z</time>
      </trkpt>
      <trkpt lat="42.13888" lon="2.38477">
        <ele>902.3</ele>
        <time>2019-04-12T05:57:25Z</time>
      </trkpt>
      <trkpt lat="42.13887" lon="2.3848">
        <ele>902.4</ele>
        <time>2019-04-12T05:57:26Z</time>
      </trkpt>
      <trkpt lat="42.13887" lon="2.3848">
        <ele>902.8</ele>
        <time>2019-04-12T05:57:26Z</time>
      </trkpt>
      <trkpt lat="42.13887" lon="2.38478">
        <ele>903.6</ele>
        <time>2019-04-12T05:57:27Z</time>
      </trkpt>
      <trkpt lat="42.13886" lon="2.38477">
        <ele>903.8</ele>
        <time>2019-04-12T05:57:27Z</time>
      </trkpt>
      <trkpt lat="42.13886" lon="2.38476">
        <ele>904</ele>
        <time>2019-04-12T05:57:28Z</time>
      </trkpt>
      <trkpt lat="42.13884" lon="2.38473">
        <ele>904.8</ele>
        <time>2019-04-12T05:57:29Z</time>
      </trkpt>
      <trkpt lat="42.13884" lon="2.38474">
        <ele>905.4</ele>
        <time>2019-04-12T05:57:29Z</time>
      </trkpt>
      <trkpt lat="42.13883" lon="2.38474">
        <ele>906</ele>
        <time>2019-04-12T05:57:29Z</time>
      </trkpt>
      <trkpt lat="42.13883" lon="2.38476">
        <ele>907</ele>
        <time>2019-04-12T05:57:30Z</time>
      </trkpt>
      <trkpt lat="42.13883" lon="2.38476">
        <ele>907</ele>
        <time>2019-04-12T05:57:30Z</time>
      </trkpt>
      <trkpt lat="42.13883" lon="2.38475">
        <ele>907.2</ele>
        <time>2019-04-12T05:57:30Z</time>
      </trkpt>
      <trkpt lat="42.13882" lon="2.38474">
        <ele>908.3</ele>
        <time>2019-04-12T05:57:30Z</time>
      </trkpt>
      <trkpt lat="42.13881" lon="2.38476">
        <ele>909.5</ele>
        <time>2019-04-12T05:57:31Z</time>
      </trkpt>
      <trkpt lat="42.1388" lon="2.38476">
        <ele>910.1</ele>
        <time>2019-04-12T05:57:31Z</time>
      </trkpt>
      <trkpt lat="42.13879" lon="2.38476">
        <ele>910.5</ele>
        <time>2019-04-12T05:57:32Z</time>
      </trkpt>
      <trkpt lat="42.13878" lon="2.38474">
        <ele>911.2</ele>
        <time>2019-04-12T05:57:32Z</time>
      </trkpt>
      <trkpt lat="42.13876" lon="2.38473">
        <ele>911.8</ele>
        <time>2019-04-12T05:57:33Z</time>
      </trkpt>
      <trkpt lat="42.13875" lon="2.38473">
        <ele>912</ele>
        <time>2019-04-12T05:57:33Z</time>
      </trkpt>
      <trkpt lat="42.13873" lon="2.38472">
        <ele>912</ele>
        <time>2019-04-12T05:57:34Z</time>
      </trkpt>
      <trkpt lat="42.1387" lon="2.3847">
        <ele>912.7</ele>
        <time>2019-04-12T05:57:36Z</time>
      </trkpt>
      <trkpt lat="42.13867" lon="2.38468">
        <ele>913.5</ele>
        <time>2019-04-12T05:57:37Z</time>
      </trkpt>
      <trkpt lat="42.13866" lon="2.38467">
        <ele>914</ele>
        <time>2019-04-12T05:57:37Z</time>
      </trkpt>
      <trkpt lat="42.13865" lon="2.38466">
        <ele>915.1</ele>
        <time>2019-04-12T05:57:38Z</time>
      </trkpt>
      <trkpt lat="42.13866" lon="2.38464">
        <ele>915.7</ele>
        <time>2019-04-12T05:57:39Z</time>
      </trkpt>
      <trkpt lat="42.13866" lon="2.38464">
        <ele>916.2</ele>
        <time>2019-04-12T05:57:39Z</time>
      </trkpt>
      <trkpt lat="42.13869" lon="2.38462">
        <ele>917.4</ele>
        <time>2019-04-12T05:57:40Z</time>
      </trkpt>
      <trkpt lat="42.1387" lon="2.38461">
        <ele>917.6</ele>
        <time>2019-04-12T05:57:40Z</time>
      </trkpt>
      <trkpt lat="42.1387" lon="2.3846">
        <ele>918.2</ele>
        <time>2019-04-12T05:57:41Z</time>
      </trkpt>
      <trkpt lat="42.1387" lon="2.3846">
        <ele>918.5</ele>
        <time>2019-04-12T05:57:41Z</time>
      </trkpt>
      <trkpt lat="42.13871" lon="2.38459">
        <ele>918.8</ele>
        <time>2019-04-12T05:57:41Z</time>
      </trkpt>
      <trkpt lat="42.13871" lon="2.38457">
        <ele>919.5</ele>
        <time>2019-04-12T05:57:42Z</time>
      </trkpt>
      <trkpt lat="42.13871" lon="2.38456">
        <ele>920</ele>
        <time>2019-04-12T05:57:42Z</time>
      </trkpt>
      <trkpt lat="42.13871" lon="2.38455">
        <ele>920.3</ele>
        <time>2019-04-12T05:57:42Z</time>
      </trkpt>
      <trkpt lat="42.13871" lon="2.38454">
        <ele>920.5</ele>
        <time>2019-04-12T05:57:43Z</time>
      </trkpt>
      <trkpt lat="42.1387" lon="2.38454">
        <ele>921.2</ele>
        <time>2019-04-12T05:57:43Z</time>
      </trkpt>
      <trkpt lat="42.1387" lon="2.38454">
        <ele>921.5</ele>
        <time>2019-04-12T05:57:43Z</time>
      </trkpt>
      <trkpt lat="42.13871" lon="2.38453">
        <ele>922.1</ele>
        <time>2019-04-12T05:57:43Z</time>
      </trkpt>
      <trkpt lat="42.13871" lon="2.38452">
        <ele>922.5</ele>
        <time>2019-04-12T05:57:44Z</time>
      </trkpt>
      <trkpt lat="42.13871" lon="2.38448">
        <ele>922.7</ele>
        <time>2019-04-12T05:57:45Z</time>
      </trkpt>
      <trkpt lat="42.13871" lon="2.38447">
        <ele>923.1</ele>
        <time>2019-04-12T05:57:45Z</time>
      </trkpt>
      <trkpt lat="42.13872" lon="2.38444">
        <ele>923.6</ele>
        <time>2019-04-12T05:57:46Z</time>
      </trkpt>
      <trkpt lat="42.13872" lon="2.38444">
        <ele>923.8</ele>
        <time>2019-04-12T05:57:46Z</time>
      </trkpt>
      <trkpt lat="42.13872" lon="2.38443">
        <ele>924.2</ele>
        <time>2019-04-12T05:57:46Z</time>
      </trkpt>
      <trkpt lat="42.13872" lon="2.3844">
        <ele>925</ele>
        <time>2019-04-12T05:57:47Z</time>
      </trkpt>
      <trkpt lat="42.13873" lon="2.3844">
        <ele>925.2</ele>
        <time>2019-04-12T05:57:47Z</time>
      </trkpt>
      <trkpt lat="42.13873" lon="2.38439">
        <ele>925.5</ele>
        <time>2019-04-12T05:57:48Z</time>
      </trkpt>
      <trkpt lat="42.13873" lon="2.38438">
        <ele>925.6</ele>
        <time>2019-04-12T05:57:48Z</time>
      </trkpt>
      <trkpt lat="42.13874" lon="2.38437">
        <ele>925.8</ele>
        <time>2019-04-12T05:57:48Z</time>
      </trkpt>
      <trkpt lat="42.13874" lon="2.38436">
        <ele>925.8</ele>
        <time>2019-04-12T05:57:49Z</time>
      </trkpt>
      <trkpt lat="42.13874" lon="2.38433">
        <ele>926</ele>
        <time>2019-04-12T05:57:50Z</time>
      </trkpt>
      <trkpt lat="42.13874" lon="2.38432">
        <ele>926</ele>
        <time>2019-04-12T05:57:50Z</time>
      </trkpt>
      <trkpt lat="42.13875" lon="2.38431">
        <ele>926.3</ele>
        <time>2019-04-12T05:57:50Z</time>
      </trkpt>
      <trkpt lat="42.13876" lon="2.3843">
        <ele>926.3</ele>
        <time>2019-04-12T05:57:51Z</time>
      </trkpt>
      <trkpt lat="42.13877" lon="2.3843">
        <ele>926.2</ele>
        <time>2019-04-12T05:57:51Z</time>
      </trkpt>
      <trkpt lat="42.13878" lon="2.38429">
        <ele>926.5</ele>
        <time>2019-04-12T05:57:52Z</time>
      </trkpt>
      <trkpt lat="42.13879" lon="2.38428">
        <ele>926.7</ele>
        <time>2019-04-12T05:57:52Z</time>
      </trkpt>
      <trkpt lat="42.13881" lon="2.38428">
        <ele>926.8</ele>
        <time>2019-04-12T05:57:53Z</time>
      </trkpt>
      <trkpt lat="42.13884" lon="2.38427">
        <ele>927.1</ele>
        <time>2019-04-12T05:57:54Z</time>
      </trkpt>
      <trkpt lat="42.13887" lon="2.38426">
        <ele>927.5</ele>
        <time>2019-04-12T05:57:55Z</time>
      </trkpt>
      <trkpt lat="42.13888" lon="2.38427">
        <ele>928.1</ele>
        <time>2019-04-12T05:57:56Z</time>
      </trkpt>
      <trkpt lat="42.13889" lon="2.38428">
        <ele>928.4</ele>
        <time>2019-04-12T05:57:56Z</time>
      </trkpt>
      <trkpt lat="42.1389" lon="2.38429">
        <ele>928.7</ele>
        <time>2019-04-12T05:57:57Z</time>
      </trkpt>
      <trkpt lat="42.1389" lon="2.3843">
        <ele>928.8</ele>
        <time>2019-04-12T05:57:57Z</time>
      </trkpt>
      <trkpt lat="42.13892" lon="2.3843">
        <ele>929.5</ele>
        <time>2019-04-12T05:57:58Z</time>
      </trkpt>
      <trkpt lat="42.13894" lon="2.38429">
        <ele>929.6</ele>
        <time>2019-04-12T05:57:59Z</time>
      </trkpt>
      <trkpt lat="42.13896" lon="2.38428">
        <ele>929.5</ele>
        <time>2019-04-12T05:58:00Z</time>
      </trkpt>
      <trkpt lat="42.13897" lon="2.38427">
        <ele>929.7</ele>
        <time>2019-04-12T05:58:00Z</time>
      </trkpt>
      <trkpt lat="42.13898" lon="2.38426">
        <ele>929.7</ele>
        <time>2019-04-12T05:58:00Z</time>
      </trkpt>
      <trkpt lat="42.13899" lon="2.38425">
        <ele>930</ele>
        <time>2019-04-12T05:58:01Z</time>
      </trkpt>
      <trkpt lat="42.13904" lon="2.38425">
        <ele>930.5</ele>
        <time>2019-04-12T05:58:03Z</time>
      </trkpt>
      <trkpt lat="42.13907" lon="2.38425">
        <ele>930.7</ele>
        <time>2019-04-12T05:58:04Z</time>
      </trkpt>
      <trkpt lat="42.13911" lon="2.38424">
        <ele>931.2</ele>
        <time>2019-04-12T05:58:06Z</time>
      </trkpt>
      <trkpt lat="42.13916" lon="2.38424">
        <ele>931.5</ele>
        <time>2019-04-12T05:58:08Z</time>
      </trkpt>
      <trkpt lat="42.13919" lon="2.38424">
        <ele>931.5</ele>
        <time>2019-04-12T05:58:09Z</time>
      </trkpt>
      <trkpt lat="42.1392" lon="2.38424">
        <ele>931.6</ele>
        <time>2019-04-12T05:58:09Z</time>
      </trkpt>
      <trkpt lat="42.13922" lon="2.38423">
        <ele>931.5</ele>
        <time>2019-04-12T05:58:10Z</time>
      </trkpt>
      <trkpt lat="42.13927" lon="2.38422">
        <ele>931.4</ele>
        <time>2019-04-12T05:58:12Z</time>
      </trkpt>
      <trkpt lat="42.13928" lon="2.38421">
        <ele>931.5</ele>
        <time>2019-04-12T05:58:13Z</time>
      </trkpt>
      <trkpt lat="42.1393" lon="2.38422">
        <ele>931.7</ele>
        <time>2019-04-12T05:58:14Z</time>
      </trkpt>
      <trkpt lat="42.13932" lon="2.38422">
        <ele>931.7</ele>
        <time>2019-04-12T05:58:14Z</time>
      </trkpt>
      <trkpt lat="42.1393" lon="2.38417">
        <ele>931.8</ele>
        <time>2019-04-12T05:58:16Z</time>
      </trkpt>
      <trkpt lat="42.13931" lon="2.38413">
        <ele>931.6</ele>
        <time>2019-04-12T05:58:17Z</time>
      </trkpt>
      <trkpt lat="42.13932" lon="2.38411">
        <ele>931.6</ele>
        <time>2019-04-12T05:58:18Z</time>
      </trkpt>
      <trkpt lat="42.13934" lon="2.38407">
        <ele>931.6</ele>
        <time>2019-04-12T05:58:19Z</time>
      </trkpt>
      <trkpt lat="42.13938" lon="2.38401">
        <ele>931.5</ele>
        <time>2019-04-12T05:58:22Z</time>
      </trkpt>
      <trkpt lat="42.1394" lon="2.384">
        <ele>931.5</ele>
        <time>2019-04-12T05:58:22Z</time>
      </trkpt>
      <trkpt lat="42.13944" lon="2.38398">
        <ele>931.8</ele>
        <time>2019-04-12T05:58:24Z</time>
      </trkpt>
      <trkpt lat="42.13946" lon="2.38398">
        <ele>931.7</ele>
        <time>2019-04-12T05:58:25Z</time>
      </trkpt>
      <trkpt lat="42.13949" lon="2.38397">
        <ele>931.7</ele>
        <time>2019-04-12T05:58:26Z</time>
      </trkpt>
      <trkpt lat="42.13951" lon="2.38396">
        <ele>931.7</ele>
        <time>2019-04-12T05:58:27Z</time>
      </trkpt>
      <trkpt lat="42.13956" lon="2.3839">
        <ele>932</ele>
        <time>2019-04-12T05:58:30Z</time>
      </trkpt>
      <trkpt lat="42.13958" lon="2.3839">
        <ele>932.2</ele>
        <time>2019-04-12T05:58:30Z</time>
      </trkpt>
      <trkpt lat="42.13965" lon="2.38388">
        <ele>932.3</ele>
        <time>2019-04-12T05:58:33Z</time>
      </trkpt>
      <trkpt lat="42.13974" lon="2.38381">
        <ele>932.2</ele>
        <time>2019-04-12T05:58:37Z</time>
      </trkpt>
      <trkpt lat="42.13975" lon="2.3838">
        <ele>932.5</ele>
        <time>2019-04-12T05:58:38Z</time>
      </trkpt>
      <trkpt lat="42.13976" lon="2.38379">
        <ele>932.5</ele>
        <time>2019-04-12T05:58:38Z</time>
      </trkpt>
      <trkpt lat="42.13979" lon="2.38375">
        <ele>932.6</ele>
        <time>2019-04-12T05:58:40Z</time>
      </trkpt>
      <trkpt lat="42.1398" lon="2.38372">
        <ele>932.5</ele>
        <time>2019-04-12T05:58:41Z</time>
      </trkpt>
      <trkpt lat="42.13982" lon="2.38368">
        <ele>932.6</ele>
        <time>2019-04-12T05:58:42Z</time>
      </trkpt>
      <trkpt lat="42.13991" lon="2.3836">
        <ele>932.5</ele>
        <time>2019-04-12T05:58:47Z</time>
      </trkpt>
      <trkpt lat="42.13991" lon="2.38361">
        <ele>932.6</ele>
        <time>2019-04-12T05:58:47Z</time>
      </trkpt>
      <trkpt lat="42.13992" lon="2.38361">
        <ele>933</ele>
        <time>2019-04-12T05:58:47Z</time>
      </trkpt>
      <trkpt lat="42.13993" lon="2.38363">
        <ele>933</ele>
        <time>2019-04-12T05:58:48Z</time>
      </trkpt>
      <trkpt lat="42.13987" lon="2.38369">
        <ele>932.5</ele>
        <time>2019-04-12T05:58:51Z</time>
      </trkpt>
      <trkpt lat="42.13986" lon="2.3837">
        <ele>932.4</ele>
        <time>2019-04-12T05:58:51Z</time>
      </trkpt>
      <trkpt lat="42.13985" lon="2.38376">
        <ele>932.3</ele>
        <time>2019-04-12T05:58:53Z</time>
      </trkpt>
      <trkpt lat="42.13984" lon="2.38375">
        <ele>932.2</ele>
        <time>2019-04-12T05:58:53Z</time>
      </trkpt>
      <trkpt lat="42.13985" lon="2.38374">
        <ele>932</ele>
        <time>2019-04-12T05:58:54Z</time>
      </trkpt>
      <trkpt lat="42.13986" lon="2.38371">
        <ele>932.4</ele>
        <time>2019-04-12T05:58:55Z</time>
      </trkpt>
      <trkpt lat="42.13989" lon="2.3837">
        <ele>932.4</ele>
        <time>2019-04-12T05:58:56Z</time>
      </trkpt>
      <trkpt lat="42.13989" lon="2.3837">
        <ele>931.7</ele>
        <time>2019-04-12T05:58:56Z</time>
      </trkpt>
      <trkpt lat="42.1399" lon="2.38369">
        <ele>931.5</ele>
        <time>2019-04-12T05:58:56Z</time>
      </trkpt>
      <trkpt lat="42.1399" lon="2.3837">
        <ele>931.2</ele>
        <time>2019-04-12T05:58:57Z</time>
      </trkpt>
      <trkpt lat="42.1399" lon="2.38372">
        <ele>931</ele>
        <time>2019-04-12T05:58:57Z</time>
      </trkpt>
      <trkpt lat="42.13991" lon="2.38381">
        <ele>931</ele>
        <time>2019-04-12T05:59:00Z</time>
      </trkpt>
      <trkpt lat="42.13992" lon="2.38373">
        <ele>930.7</ele>
        <time>2019-04-12T05:59:02Z</time>
      </trkpt>
      <trkpt lat="42.13992" lon="2.38372">
        <ele>931.6</ele>
        <time>2019-04-12T05:59:02Z</time>
      </trkpt>
      <trkpt lat="42.13992" lon="2.38371">
        <ele>931.5</ele>
        <time>2019-04-12T05:59:02Z</time>
      </trkpt>
      <trkpt lat="42.13993" lon="2.38371">
        <ele>931.6</ele>
        <time>2019-04-12T05:59:03Z</time>
      </trkpt>
      <trkpt lat="42.13992" lon="2.3837">
        <ele>931.5</ele>
        <time>2019-04-12T05:59:03Z</time>
      </trkpt>
      <trkpt lat="42.13991" lon="2.38369">
        <ele>931.5</ele>
        <time>2019-04-12T05:59:03Z</time>
      </trkpt>
      <trkpt lat="42.13987" lon="2.38371">
        <ele>931.5</ele>
        <time>2019-04-12T05:59:05Z</time>
      </trkpt>
      <trkpt lat="42.13989" lon="2.38368">
        <ele>931.5</ele>
        <time>2019-04-12T05:59:06Z</time>
      </trkpt>
      <trkpt lat="42.13991" lon="2.38369">
        <ele>931.5</ele>
        <time>2019-04-12T05:59:07Z</time>
      </trkpt>
      <trkpt lat="42.13988" lon="2.38362">
        <ele>931.6</ele>
        <time>2019-04-12T05:59:09Z</time>
      </trkpt>
      <trkpt lat="42.13981" lon="2.38356">
        <ele>931.5</ele>
        <time>2019-04-12T05:59:13Z</time>
      </trkpt>
      <trkpt lat="42.1398" lon="2.38355">
        <ele>931.5</ele>
        <time>2019-04-12T05:59:13Z</time>
      </trkpt>
      <trkpt lat="42.1398" lon="2.38354">
        <ele>931.5</ele>
        <time>2019-04-12T05:59:13Z</time>
      </trkpt>
      <trkpt lat="42.13978" lon="2.38351">
        <ele>931.3</ele>
        <time>2019-04-12T05:59:15Z</time>
      </trkpt>
      <trkpt lat="42.13977" lon="2.38349">
        <ele>930.7</ele>
        <time>2019-04-12T05:59:15Z</time>
      </trkpt>
      <trkpt lat="42.13977" lon="2.38348">
        <ele>930.2</ele>
        <time>2019-04-12T05:59:16Z</time>
      </trkpt>
      <trkpt lat="42.13976" lon="2.38347">
        <ele>929.7</ele>
        <time>2019-04-12T05:59:16Z</time>
      </trkpt>
      <trkpt lat="42.13975" lon="2.38346">
        <ele>929.6</ele>
        <time>2019-04-12T05:59:16Z</time>
      </trkpt>
      <trkpt lat="42.13974" lon="2.38345">
        <ele>929.5</ele>
        <time>2019-04-12T05:59:17Z</time>
      </trkpt>
      <trkpt lat="42.13973" lon="2.38343">
        <ele>929.5</ele>
        <time>2019-04-12T05:59:18Z</time>
      </trkpt>
      <trkpt lat="42.1397" lon="2.38341">
        <ele>929.5</ele>
        <time>2019-04-12T05:59:19Z</time>
      </trkpt>
      <trkpt lat="42.13968" lon="2.3834">
        <ele>929.5</ele>
        <time>2019-04-12T05:59:20Z</time>
      </trkpt>
      <trkpt lat="42.13967" lon="2.3834">
        <ele>929.5</ele>
        <time>2019-04-12T05:59:20Z</time>
      </trkpt>
      <trkpt lat="42.13964" lon="2.38338">
        <ele>929.7</ele>
        <time>2019-04-12T05:59:22Z</time>
      </trkpt>
      <trkpt lat="42.13963" lon="2.38337">
        <ele>930</ele>
        <time>2019-04-12T05:59:22Z</time>
      </trkpt>
      <trkpt lat="42.13962" lon="2.38335">
        <ele>930.8</ele>
        <time>2019-04-12T05:59:23Z</time>
      </trkpt>
      <trkpt lat="42.13962" lon="2.38334">
        <ele>931.2</ele>
        <time>2019-04-12T05:59:23Z</time>
      </trkpt>
      <trkpt lat="42.13961" lon="2.38334">
        <ele>931.5</ele>
        <time>2019-04-12T05:59:23Z</time>
      </trkpt>
      <trkpt lat="42.13961" lon="2.38333">
        <ele>932.1</ele>
        <time>2019-04-12T05:59:24Z</time>
      </trkpt>
      <trkpt lat="42.13958" lon="2.38332">
        <ele>933.1</ele>
        <time>2019-04-12T05:59:25Z</time>
      </trkpt>
      <trkpt lat="42.13958" lon="2.38331">
        <ele>933.3</ele>
        <time>2019-04-12T05:59:25Z</time>
      </trkpt>
      <trkpt lat="42.13958" lon="2.38331">
        <ele>933.4</ele>
        <time>2019-04-12T05:59:25Z</time>
      </trkpt>
      <trkpt lat="42.13957" lon="2.38331">
        <ele>933.5</ele>
        <time>2019-04-12T05:59:25Z</time>
      </trkpt>
      <trkpt lat="42.13957" lon="2.38331">
        <ele>933.8</ele>
        <time>2019-04-12T05:59:25Z</time>
      </trkpt>
      <trkpt lat="42.13957" lon="2.38331">
        <ele>934.3</ele>
        <time>2019-04-12T05:59:25Z</time>
      </trkpt>
      <trkpt lat="42.13957" lon="2.38331">
        <ele>934.5</ele>
        <time>2019-04-12T05:59:25Z</time>
      </trkpt>
      <trkpt lat="42.13957" lon="2.3833">
        <ele>935</ele>
        <time>2019-04-12T05:59:25Z</time>
      </trkpt>
      <trkpt lat="42.13957" lon="2.38329">
        <ele>935.3</ele>
        <time>2019-04-12T05:59:26Z</time>
      </trkpt>
      <trkpt lat="42.13957" lon="2.38327">
        <ele>935.5</ele>
        <time>2019-04-12T05:59:26Z</time>
      </trkpt>
      <trkpt lat="42.13957" lon="2.38325">
        <ele>935.8</ele>
        <time>2019-04-12T05:59:27Z</time>
      </trkpt>
      <trkpt lat="42.13956" lon="2.38325">
        <ele>936</ele>
        <time>2019-04-12T05:59:27Z</time>
      </trkpt>
      <trkpt lat="42.13955" lon="2.38323">
        <ele>936.5</ele>
        <time>2019-04-12T05:59:28Z</time>
      </trkpt>
      <trkpt lat="42.13955" lon="2.38319">
        <ele>937.3</ele>
        <time>2019-04-12T05:59:29Z</time>
      </trkpt>
      <trkpt lat="42.13954" lon="2.38316">
        <ele>937.5</ele>
        <time>2019-04-12T05:59:30Z</time>
      </trkpt>
      <trkpt lat="42.13954" lon="2.38313">
        <ele>937.7</ele>
        <time>2019-04-12T05:59:31Z</time>
      </trkpt>
      <trkpt lat="42.13953" lon="2.38309">
        <ele>938.8</ele>
        <time>2019-04-12T05:59:32Z</time>
      </trkpt>
      <trkpt lat="42.1395" lon="2.38306">
        <ele>939.8</ele>
        <time>2019-04-12T05:59:33Z</time>
      </trkpt>
      <trkpt lat="42.1395" lon="2.38306">
        <ele>940.2</ele>
        <time>2019-04-12T05:59:34Z</time>
      </trkpt>
      <trkpt lat="42.13948" lon="2.38306">
        <ele>941.2</ele>
        <time>2019-04-12T05:59:34Z</time>
      </trkpt>
      <trkpt lat="42.13946" lon="2.38307">
        <ele>941.5</ele>
        <time>2019-04-12T05:59:35Z</time>
      </trkpt>
      <trkpt lat="42.13944" lon="2.38306">
        <ele>942.2</ele>
        <time>2019-04-12T05:59:36Z</time>
      </trkpt>
      <trkpt lat="42.13943" lon="2.38304">
        <ele>942.5</ele>
        <time>2019-04-12T05:59:37Z</time>
      </trkpt>
      <trkpt lat="42.13943" lon="2.38301">
        <ele>943.4</ele>
        <time>2019-04-12T05:59:38Z</time>
      </trkpt>
      <trkpt lat="42.13942" lon="2.38298">
        <ele>944.6</ele>
        <time>2019-04-12T05:59:39Z</time>
      </trkpt>
      <trkpt lat="42.13943" lon="2.38297">
        <ele>944.7</ele>
        <time>2019-04-12T05:59:39Z</time>
      </trkpt>
      <trkpt lat="42.13943" lon="2.38297">
        <ele>945.1</ele>
        <time>2019-04-12T05:59:39Z</time>
      </trkpt>
      <trkpt lat="42.13944" lon="2.38295">
        <ele>945.6</ele>
        <time>2019-04-12T05:59:40Z</time>
      </trkpt>
      <trkpt lat="42.13946" lon="2.38292">
        <ele>946.2</ele>
        <time>2019-04-12T05:59:41Z</time>
      </trkpt>
      <trkpt lat="42.13946" lon="2.38292">
        <ele>946.6</ele>
        <time>2019-04-12T05:59:41Z</time>
      </trkpt>
      <trkpt lat="42.13945" lon="2.38291">
        <ele>947</ele>
        <time>2019-04-12T05:59:42Z</time>
      </trkpt>
      <trkpt lat="42.13945" lon="2.38288">
        <ele>948</ele>
        <time>2019-04-12T05:59:43Z</time>
      </trkpt>
      <trkpt lat="42.13947" lon="2.38286">
        <ele>948.6</ele>
        <time>2019-04-12T05:59:43Z</time>
      </trkpt>
      <trkpt lat="42.13947" lon="2.38285">
        <ele>949</ele>
        <time>2019-04-12T05:59:44Z</time>
      </trkpt>
      <trkpt lat="42.13946" lon="2.3829">
        <ele>950.2</ele>
        <time>2019-04-12T05:59:45Z</time>
      </trkpt>
      <trkpt lat="42.13946" lon="2.38292">
        <ele>950.4</ele>
        <time>2019-04-12T05:59:46Z</time>
      </trkpt>
      <trkpt lat="42.13946" lon="2.38299">
        <ele>951.6</ele>
        <time>2019-04-12T05:59:48Z</time>
      </trkpt>
      <trkpt lat="42.13946" lon="2.38301">
        <ele>952</ele>
        <time>2019-04-12T05:59:48Z</time>
      </trkpt>
      <trkpt lat="42.13946" lon="2.38303">
        <ele>952.6</ele>
        <time>2019-04-12T05:59:49Z</time>
      </trkpt>
      <trkpt lat="42.13945" lon="2.38305">
        <ele>952.7</ele>
        <time>2019-04-12T05:59:50Z</time>
      </trkpt>
      <trkpt lat="42.13943" lon="2.38306">
        <ele>953.6</ele>
        <time>2019-04-12T05:59:51Z</time>
      </trkpt>
      <trkpt lat="42.13942" lon="2.38305">
        <ele>953.8</ele>
        <time>2019-04-12T05:59:51Z</time>
      </trkpt>
      <trkpt lat="42.13941" lon="2.38301">
        <ele>954.5</ele>
        <time>2019-04-12T05:59:52Z</time>
      </trkpt>
      <trkpt lat="42.1394" lon="2.38298">
        <ele>955</ele>
        <time>2019-04-12T05:59:53Z</time>
      </trkpt>
      <trkpt lat="42.1394" lon="2.38296">
        <ele>955.2</ele>
        <time>2019-04-12T05:59:54Z</time>
      </trkpt>
      <trkpt lat="42.1394" lon="2.38292">
        <ele>955.5</ele>
        <time>2019-04-12T05:59:55Z</time>
      </trkpt>
      <trkpt lat="42.1394" lon="2.38289">
        <ele>956.1</ele>
        <time>2019-04-12T05:59:56Z</time>
      </trkpt>
      <trkpt lat="42.13941" lon="2.38283">
        <ele>956.5</ele>
        <time>2019-04-12T05:59:58Z</time>
      </trkpt>
      <trkpt lat="42.13943" lon="2.38277">
        <ele>957.3</ele>
        <time>2019-04-12T05:59:59Z</time>
      </trkpt>
      <trkpt lat="42.13945" lon="2.38274">
        <ele>957.5</ele>
        <time>2019-04-12T06:00:00Z</time>
      </trkpt>
      <trkpt lat="42.13946" lon="2.38269">
        <ele>958.2</ele>
        <time>2019-04-12T06:00:02Z</time>
      </trkpt>
      <trkpt lat="42.13946" lon="2.38266">
        <ele>958.6</ele>
        <time>2019-04-12T06:00:03Z</time>
      </trkpt>
      <trkpt lat="42.13947" lon="2.38265">
        <ele>958.8</ele>
        <time>2019-04-12T06:00:03Z</time>
      </trkpt>
      <trkpt lat="42.13947" lon="2.38264">
        <ele>959</ele>
        <time>2019-04-12T06:00:04Z</time>
      </trkpt>
      <trkpt lat="42.13947" lon="2.38263">
        <ele>959.4</ele>
        <time>2019-04-12T06:00:04Z</time>
      </trkpt>
      <trkpt lat="42.13947" lon="2.38257">
        <ele>960.5</ele>
        <time>2019-04-12T06:00:06Z</time>
      </trkpt>
      <trkpt lat="42.13948" lon="2.38256">
        <ele>961.2</ele>
        <time>2019-04-12T06:00:06Z</time>
      </trkpt>
      <trkpt lat="42.1395" lon="2.38254">
        <ele>961.8</ele>
        <time>2019-04-12T06:00:07Z</time>
      </trkpt>
      <trkpt lat="42.13951" lon="2.38253">
        <ele>962.1</ele>
        <time>2019-04-12T06:00:07Z</time>
      </trkpt>
      <trkpt lat="42.13951" lon="2.38252">
        <ele>962.2</ele>
        <time>2019-04-12T06:00:08Z</time>
      </trkpt>
      <trkpt lat="42.13951" lon="2.38251">
        <ele>962.5</ele>
        <time>2019-04-12T06:00:08Z</time>
      </trkpt>
      <trkpt lat="42.13952" lon="2.38249">
        <ele>962.8</ele>
        <time>2019-04-12T06:00:09Z</time>
      </trkpt>
      <trkpt lat="42.13952" lon="2.38248">
        <ele>963</ele>
        <time>2019-04-12T06:00:09Z</time>
      </trkpt>
      <trkpt lat="42.13955" lon="2.38244">
        <ele>963.6</ele>
        <time>2019-04-12T06:00:11Z</time>
      </trkpt>
      <trkpt lat="42.13956" lon="2.38243">
        <ele>963.7</ele>
        <time>2019-04-12T06:00:11Z</time>
      </trkpt>
      <trkpt lat="42.13957" lon="2.38242">
        <ele>964.1</ele>
        <time>2019-04-12T06:00:12Z</time>
      </trkpt>
      <trkpt lat="42.1396" lon="2.38239">
        <ele>964.7</ele>
        <time>2019-04-12T06:00:13Z</time>
      </trkpt>
      <trkpt lat="42.1396" lon="2.38238">
        <ele>964.7</ele>
        <time>2019-04-12T06:00:14Z</time>
      </trkpt>
      <trkpt lat="42.13963" lon="2.38234">
        <ele>964.7</ele>
        <time>2019-04-12T06:00:15Z</time>
      </trkpt>
      <trkpt lat="42.13965" lon="2.38232">
        <ele>965.1</ele>
        <time>2019-04-12T06:00:16Z</time>
      </trkpt>
      <trkpt lat="42.13967" lon="2.38231">
        <ele>965.4</ele>
        <time>2019-04-12T06:00:17Z</time>
      </trkpt>
      <trkpt lat="42.13968" lon="2.38228">
        <ele>965.7</ele>
        <time>2019-04-12T06:00:18Z</time>
      </trkpt>
      <trkpt lat="42.13969" lon="2.38225">
        <ele>966.1</ele>
        <time>2019-04-12T06:00:19Z</time>
      </trkpt>
      <trkpt lat="42.13968" lon="2.38224">
        <ele>966.1</ele>
        <time>2019-04-12T06:00:19Z</time>
      </trkpt>
      <trkpt lat="42.13969" lon="2.38223">
        <ele>966.3</ele>
        <time>2019-04-12T06:00:20Z</time>
      </trkpt>
      <trkpt lat="42.13969" lon="2.38221">
        <ele>966.5</ele>
        <time>2019-04-12T06:00:20Z</time>
      </trkpt>
      <trkpt lat="42.1397" lon="2.38216">
        <ele>967.1</ele>
        <time>2019-04-12T06:00:22Z</time>
      </trkpt>
      <trkpt lat="42.1397" lon="2.38212">
        <ele>967.4</ele>
        <time>2019-04-12T06:00:23Z</time>
      </trkpt>
      <trkpt lat="42.13973" lon="2.38205">
        <ele>967.7</ele>
        <time>2019-04-12T06:00:25Z</time>
      </trkpt>
      <trkpt lat="42.13973" lon="2.38205">
        <ele>968</ele>
        <time>2019-04-12T06:00:25Z</time>
      </trkpt>
      <trkpt lat="42.13974" lon="2.38203">
        <ele>968.2</ele>
        <time>2019-04-12T06:00:26Z</time>
      </trkpt>
      <trkpt lat="42.13977" lon="2.38201">
        <ele>968.6</ele>
        <time>2019-04-12T06:00:27Z</time>
      </trkpt>
      <trkpt lat="42.13977" lon="2.382">
        <ele>969.1</ele>
        <time>2019-04-12T06:00:27Z</time>
      </trkpt>
      <trkpt lat="42.13978" lon="2.382">
        <ele>969.2</ele>
        <time>2019-04-12T06:00:28Z</time>
      </trkpt>
      <trkpt lat="42.1398" lon="2.38197">
        <ele>970.1</ele>
        <time>2019-04-12T06:00:29Z</time>
      </trkpt>
      <trkpt lat="42.13982" lon="2.38195">
        <ele>970.5</ele>
        <time>2019-04-12T06:00:30Z</time>
      </trkpt>
      <trkpt lat="42.13982" lon="2.38194">
        <ele>970.5</ele>
        <time>2019-04-12T06:00:30Z</time>
      </trkpt>
      <trkpt lat="42.13984" lon="2.3819">
        <ele>971.3</ele>
        <time>2019-04-12T06:00:32Z</time>
      </trkpt>
      <trkpt lat="42.13985" lon="2.38189">
        <ele>971.4</ele>
        <time>2019-04-12T06:00:32Z</time>
      </trkpt>
      <trkpt lat="42.13987" lon="2.38186">
        <ele>972.3</ele>
        <time>2019-04-12T06:00:33Z</time>
      </trkpt>
      <trkpt lat="42.13988" lon="2.38184">
        <ele>972.7</ele>
        <time>2019-04-12T06:00:34Z</time>
      </trkpt>
      <trkpt lat="42.13988" lon="2.38183">
        <ele>973.4</ele>
        <time>2019-04-12T06:00:34Z</time>
      </trkpt>
      <trkpt lat="42.13986" lon="2.38183">
        <ele>974.1</ele>
        <time>2019-04-12T06:00:35Z</time>
      </trkpt>
      <trkpt lat="42.13983" lon="2.38183">
        <ele>974.5</ele>
        <time>2019-04-12T06:00:36Z</time>
      </trkpt>
      <trkpt lat="42.13981" lon="2.38183">
        <ele>974.6</ele>
        <time>2019-04-12T06:00:37Z</time>
      </trkpt>
      <trkpt lat="42.13976" lon="2.38181">
        <ele>975.1</ele>
        <time>2019-04-12T06:00:39Z</time>
      </trkpt>
      <trkpt lat="42.13975" lon="2.38179">
        <ele>975</ele>
        <time>2019-04-12T06:00:40Z</time>
      </trkpt>
      <trkpt lat="42.13973" lon="2.38178">
        <ele>975</ele>
        <time>2019-04-12T06:00:41Z</time>
      </trkpt>
      <trkpt lat="42.13972" lon="2.38177">
        <ele>975.5</ele>
        <time>2019-04-12T06:00:41Z</time>
      </trkpt>
      <trkpt lat="42.13971" lon="2.38177">
        <ele>975.7</ele>
        <time>2019-04-12T06:00:41Z</time>
      </trkpt>
      <trkpt lat="42.1397" lon="2.38176">
        <ele>976.1</ele>
        <time>2019-04-12T06:00:42Z</time>
      </trkpt>
      <trkpt lat="42.13969" lon="2.38171">
        <ele>976.6</ele>
        <time>2019-04-12T06:00:44Z</time>
      </trkpt>
      <trkpt lat="42.13968" lon="2.38168">
        <ele>977.4</ele>
        <time>2019-04-12T06:00:45Z</time>
      </trkpt>
      <trkpt lat="42.13966" lon="2.38165">
        <ele>978.5</ele>
        <time>2019-04-12T06:00:46Z</time>
      </trkpt>
      <trkpt lat="42.13964" lon="2.38164">
        <ele>979</ele>
        <time>2019-04-12T06:00:46Z</time>
      </trkpt>
      <trkpt lat="42.13962" lon="2.38164">
        <ele>979.6</ele>
        <time>2019-04-12T06:00:47Z</time>
      </trkpt>
      <trkpt lat="42.13961" lon="2.38164">
        <ele>979.8</ele>
        <time>2019-04-12T06:00:48Z</time>
      </trkpt>
      <trkpt lat="42.13958" lon="2.38161">
        <ele>980.4</ele>
        <time>2019-04-12T06:00:49Z</time>
      </trkpt>
      <trkpt lat="42.13956" lon="2.38158">
        <ele>980.7</ele>
        <time>2019-04-12T06:00:50Z</time>
      </trkpt>
      <trkpt lat="42.13956" lon="2.38157">
        <ele>981.3</ele>
        <time>2019-04-12T06:00:51Z</time>
      </trkpt>
      <trkpt lat="42.13954" lon="2.38154">
        <ele>982.1</ele>
        <time>2019-04-12T06:00:52Z</time>
      </trkpt>
      <trkpt lat="42.13953" lon="2.38153">
        <ele>982.6</ele>
        <time>2019-04-12T06:00:52Z</time>
      </trkpt>
      <trkpt lat="42.13952" lon="2.38151">
        <ele>983.1</ele>
        <time>2019-04-12T06:00:53Z</time>
      </trkpt>
      <trkpt lat="42.13949" lon="2.38148">
        <ele>984</ele>
        <time>2019-04-12T06:00:55Z</time>
      </trkpt>
      <trkpt lat="42.13948" lon="2.38148">
        <ele>984.2</ele>
        <time>2019-04-12T06:00:55Z</time>
      </trkpt>
      <trkpt lat="42.13946" lon="2.38148">
        <ele>984.7</ele>
        <time>2019-04-12T06:00:56Z</time>
      </trkpt>
      <trkpt lat="42.13945" lon="2.38147">
        <ele>985.3</ele>
        <time>2019-04-12T06:00:56Z</time>
      </trkpt>
      <trkpt lat="42.13945" lon="2.38146">
        <ele>985.4</ele>
        <time>2019-04-12T06:00:56Z</time>
      </trkpt>
      <trkpt lat="42.13943" lon="2.38146">
        <ele>985.6</ele>
        <time>2019-04-12T06:00:57Z</time>
      </trkpt>
      <trkpt lat="42.13942" lon="2.38145">
        <ele>986</ele>
        <time>2019-04-12T06:00:57Z</time>
      </trkpt>
      <trkpt lat="42.13942" lon="2.38145">
        <ele>986.5</ele>
        <time>2019-04-12T06:00:58Z</time>
      </trkpt>
      <trkpt lat="42.13941" lon="2.38144">
        <ele>987</ele>
        <time>2019-04-12T06:00:58Z</time>
      </trkpt>
      <trkpt lat="42.13941" lon="2.38143">
        <ele>987.5</ele>
        <time>2019-04-12T06:00:58Z</time>
      </trkpt>
      <trkpt lat="42.1394" lon="2.38143">
        <ele>987.8</ele>
        <time>2019-04-12T06:00:59Z</time>
      </trkpt>
      <trkpt lat="42.1394" lon="2.38143">
        <ele>987.7</ele>
        <time>2019-04-12T06:00:59Z</time>
      </trkpt>
      <trkpt lat="42.13938" lon="2.38141">
        <ele>988.3</ele>
        <time>2019-04-12T06:01:00Z</time>
      </trkpt>
      <trkpt lat="42.13892" lon="2.3824">
        <ele>1028</ele>
        <time>2019-04-12T07:46:50Z</time>
      </trkpt>
      <trkpt lat="42.13891" lon="2.3824">
        <ele>1028.4</ele>
        <time>2019-04-12T07:46:50Z</time>
      </trkpt>
      <trkpt lat="42.13888" lon="2.3824">
        <ele>1028.8</ele>
        <time>2019-04-12T07:46:51Z</time>
      </trkpt>
      <trkpt lat="42.13885" lon="2.38241">
        <ele>1029.5</ele>
        <time>2019-04-12T07:46:52Z</time>
      </trkpt>
      <trkpt lat="42.13884" lon="2.38242">
        <ele>1029.5</ele>
        <time>2019-04-12T07:46:53Z</time>
      </trkpt>
      <trkpt lat="42.13883" lon="2.38242">
        <ele>1029.9</ele>
        <time>2019-04-12T07:46:53Z</time>
      </trkpt>
      <trkpt lat="42.13881" lon="2.38244">
        <ele>1029.9</ele>
        <time>2019-04-12T07:46:54Z</time>
      </trkpt>
      <trkpt lat="42.1388" lon="2.38245">
        <ele>1029.9</ele>
        <time>2019-04-12T07:46:55Z</time>
      </trkpt>
      <trkpt lat="42.13878" lon="2.38246">
        <ele>1030.8</ele>
        <time>2019-04-12T07:46:55Z</time>
      </trkpt>
      <trkpt lat="42.13877" lon="2.38246">
        <ele>1031</ele>
        <time>2019-04-12T07:46:56Z</time>
      </trkpt>
      <trkpt lat="42.13874" lon="2.38251">
        <ele>1031.4</ele>
        <time>2019-04-12T07:46:58Z</time>
      </trkpt>
      <trkpt lat="42.13868" lon="2.38253">
        <ele>1031.8</ele>
        <time>2019-04-12T07:47:00Z</time>
      </trkpt>
      <trkpt lat="42.13867" lon="2.38253">
        <ele>1032.1</ele>
        <time>2019-04-12T07:47:00Z</time>
      </trkpt>
      <trkpt lat="42.13858" lon="2.38254">
        <ele>1033.1</ele>
        <time>2019-04-12T07:47:04Z</time>
      </trkpt>
      <trkpt lat="42.13857" lon="2.38254">
        <ele>1033.2</ele>
        <time>2019-04-12T07:47:04Z</time>
      </trkpt>
      <trkpt lat="42.13856" lon="2.38255">
        <ele>1033.5</ele>
        <time>2019-04-12T07:47:05Z</time>
      </trkpt>
      <trkpt lat="42.13853" lon="2.38256">
        <ele>1034</ele>
        <time>2019-04-12T07:47:06Z</time>
      </trkpt>
      <trkpt lat="42.13852" lon="2.38258">
        <ele>1034.1</ele>
        <time>2019-04-12T07:47:07Z</time>
      </trkpt>
      <trkpt lat="42.13852" lon="2.38259">
        <ele>1034.1</ele>
        <time>2019-04-12T07:47:07Z</time>
      </trkpt>
      <trkpt lat="42.13849" lon="2.38262">
        <ele>1035.2</ele>
        <time>2019-04-12T07:47:08Z</time>
      </trkpt>
      <trkpt lat="42.13849" lon="2.38262">
        <ele>1035.4</ele>
        <time>2019-04-12T07:47:09Z</time>
      </trkpt>
      <trkpt lat="42.13849" lon="2.38262">
        <ele>1035.5</ele>
        <time>2019-04-12T07:47:09Z</time>
      </trkpt>
      <trkpt lat="42.13847" lon="2.38265">
        <ele>1036.4</ele>
        <time>2019-04-12T07:47:10Z</time>
      </trkpt>
      <trkpt lat="42.13847" lon="2.38266">
        <ele>1036.5</ele>
        <time>2019-04-12T07:47:10Z</time>
      </trkpt>
      <trkpt lat="42.13846" lon="2.38267">
        <ele>1036.9</ele>
        <time>2019-04-12T07:47:11Z</time>
      </trkpt>
      <trkpt lat="42.13845" lon="2.38271">
        <ele>1037.6</ele>
        <time>2019-04-12T07:47:12Z</time>
      </trkpt>
      <trkpt lat="42.13845" lon="2.38272">
        <ele>1037.9</ele>
        <time>2019-04-12T07:47:12Z</time>
      </trkpt>
      <trkpt lat="42.13843" lon="2.38275">
        <ele>1038.5</ele>
        <time>2019-04-12T07:47:13Z</time>
      </trkpt>
      <trkpt lat="42.13843" lon="2.38276">
        <ele>1039</ele>
        <time>2019-04-12T07:47:13Z</time>
      </trkpt>
      <trkpt lat="42.13842" lon="2.38277">
        <ele>1039.5</ele>
        <time>2019-04-12T07:47:14Z</time>
      </trkpt>
      <trkpt lat="42.1384" lon="2.3828">
        <ele>1040.1</ele>
        <time>2019-04-12T07:47:15Z</time>
      </trkpt>
      <trkpt lat="42.13839" lon="2.38281">
        <ele>1040.4</ele>
        <time>2019-04-12T07:47:16Z</time>
      </trkpt>
      <trkpt lat="42.13837" lon="2.38282">
        <ele>1041.1</ele>
        <time>2019-04-12T07:47:16Z</time>
      </trkpt>
      <trkpt lat="42.13837" lon="2.38283">
        <ele>1041.1</ele>
        <time>2019-04-12T07:47:17Z</time>
      </trkpt>
      <trkpt lat="42.13835" lon="2.38284">
        <ele>1041.5</ele>
        <time>2019-04-12T07:47:17Z</time>
      </trkpt>
      <trkpt lat="42.13834" lon="2.38285">
        <ele>1041.6</ele>
        <time>2019-04-12T07:47:18Z</time>
      </trkpt>
      <trkpt lat="42.13832" lon="2.38288">
        <ele>1042.5</ele>
        <time>2019-04-12T07:47:19Z</time>
      </trkpt>
      <trkpt lat="42.13828" lon="2.38291">
        <ele>1043.5</ele>
        <time>2019-04-12T07:47:21Z</time>
      </trkpt>
      <trkpt lat="42.13827" lon="2.38291">
        <ele>1043.5</ele>
        <time>2019-04-12T07:47:21Z</time>
      </trkpt>
      <trkpt lat="42.13825" lon="2.38294">
        <ele>1044.1</ele>
        <time>2019-04-12T07:47:22Z</time>
      </trkpt>
      <trkpt lat="42.13823" lon="2.38297">
        <ele>1044.6</ele>
        <time>2019-04-12T07:47:24Z</time>
      </trkpt>
      <trkpt lat="42.1382" lon="2.38301">
        <ele>1045.6</ele>
        <time>2019-04-12T07:47:26Z</time>
      </trkpt>
      <trkpt lat="42.13819" lon="2.38302">
        <ele>1046.1</ele>
        <time>2019-04-12T07:47:26Z</time>
      </trkpt>
      <trkpt lat="42.13817" lon="2.38304">
        <ele>1046.4</ele>
        <time>2019-04-12T07:47:27Z</time>
      </trkpt>
      <trkpt lat="42.13816" lon="2.38307">
        <ele>1046.9</ele>
        <time>2019-04-12T07:47:28Z</time>
      </trkpt>
      <trkpt lat="42.13813" lon="2.38308">
        <ele>1047</ele>
        <time>2019-04-12T07:47:29Z</time>
      </trkpt>
      <trkpt lat="42.13812" lon="2.38308">
        <ele>1047</ele>
        <time>2019-04-12T07:47:30Z</time>
      </trkpt>
      <trkpt lat="42.1381" lon="2.38309">
        <ele>1047.5</ele>
        <time>2019-04-12T07:47:30Z</time>
      </trkpt>
      <trkpt lat="42.13808" lon="2.3831">
        <ele>1047.8</ele>
        <time>2019-04-12T07:47:31Z</time>
      </trkpt>
      <trkpt lat="42.13806" lon="2.38312">
        <ele>1048.2</ele>
        <time>2019-04-12T07:47:32Z</time>
      </trkpt>
      <trkpt lat="42.13799" lon="2.38317">
        <ele>1049</ele>
        <time>2019-04-12T07:47:35Z</time>
      </trkpt>
      <trkpt lat="42.13798" lon="2.38317">
        <ele>1049.2</ele>
        <time>2019-04-12T07:47:36Z</time>
      </trkpt>
      <trkpt lat="42.13797" lon="2.38317">
        <ele>1049.5</ele>
        <time>2019-04-12T07:47:36Z</time>
      </trkpt>
      <trkpt lat="42.13793" lon="2.38319">
        <ele>1050.2</ele>
        <time>2019-04-12T07:47:38Z</time>
      </trkpt>
      <trkpt lat="42.13792" lon="2.38319">
        <ele>1050.5</ele>
        <time>2019-04-12T07:47:38Z</time>
      </trkpt>
      <trkpt lat="42.13786" lon="2.38326">
        <ele>1051.4</ele>
        <time>2019-04-12T07:47:41Z</time>
      </trkpt>
      <trkpt lat="42.13785" lon="2.38326">
        <ele>1051.5</ele>
        <time>2019-04-12T07:47:42Z</time>
      </trkpt>
      <trkpt lat="42.1378" lon="2.38328">
        <ele>1052.4</ele>
        <time>2019-04-12T07:47:44Z</time>
      </trkpt>
      <trkpt lat="42.13778" lon="2.38328">
        <ele>1053</ele>
        <time>2019-04-12T07:47:45Z</time>
      </trkpt>
      <trkpt lat="42.13772" lon="2.38332">
        <ele>1053.4</ele>
        <time>2019-04-12T07:47:47Z</time>
      </trkpt>
      <trkpt lat="42.13772" lon="2.38333">
        <ele>1053.4</ele>
        <time>2019-04-12T07:47:48Z</time>
      </trkpt>
      <trkpt lat="42.13765" lon="2.38338">
        <ele>1054.6</ele>
        <time>2019-04-12T07:47:51Z</time>
      </trkpt>
      <trkpt lat="42.13759" lon="2.38342">
        <ele>1055.5</ele>
        <time>2019-04-12T07:47:53Z</time>
      </trkpt>
      <trkpt lat="42.13758" lon="2.38343">
        <ele>1055.6</ele>
        <time>2019-04-12T07:47:54Z</time>
      </trkpt>
      <trkpt lat="42.13755" lon="2.38345">
        <ele>1056.2</ele>
        <time>2019-04-12T07:47:55Z</time>
      </trkpt>
      <trkpt lat="42.13752" lon="2.38345">
        <ele>1056.5</ele>
        <time>2019-04-12T07:47:56Z</time>
      </trkpt>
      <trkpt lat="42.13747" lon="2.38353">
        <ele>1057.6</ele>
        <time>2019-04-12T07:47:59Z</time>
      </trkpt>
      <trkpt lat="42.13747" lon="2.38355">
        <ele>1057.9</ele>
        <time>2019-04-12T07:48:00Z</time>
      </trkpt>
      <trkpt lat="42.13743" lon="2.38359">
        <ele>1058.9</ele>
        <time>2019-04-12T07:48:02Z</time>
      </trkpt>
      <trkpt lat="42.13742" lon="2.38361">
        <ele>1059</ele>
        <time>2019-04-12T07:48:03Z</time>
      </trkpt>
      <trkpt lat="42.1374" lon="2.38369">
        <ele>1060</ele>
        <time>2019-04-12T07:48:05Z</time>
      </trkpt>
      <trkpt lat="42.13739" lon="2.38371">
        <ele>1060</ele>
        <time>2019-04-12T07:48:06Z</time>
      </trkpt>
      <trkpt lat="42.13735" lon="2.38375">
        <ele>1061.2</ele>
        <time>2019-04-12T07:48:08Z</time>
      </trkpt>
      <trkpt lat="42.13733" lon="2.38376">
        <ele>1061.5</ele>
        <time>2019-04-12T07:48:09Z</time>
      </trkpt>
      <trkpt lat="42.1373" lon="2.38377">
        <ele>1062.1</ele>
        <time>2019-04-12T07:48:10Z</time>
      </trkpt>
      <trkpt lat="42.13729" lon="2.38378">
        <ele>1062.2</ele>
        <time>2019-04-12T07:48:10Z</time>
      </trkpt>
      <trkpt lat="42.13728" lon="2.38379">
        <ele>1062.9</ele>
        <time>2019-04-12T07:48:11Z</time>
      </trkpt>
      <trkpt lat="42.13728" lon="2.38381">
        <ele>1063.1</ele>
        <time>2019-04-12T07:48:11Z</time>
      </trkpt>
      <trkpt lat="42.13727" lon="2.38384">
        <ele>1063.6</ele>
        <time>2019-04-12T07:48:12Z</time>
      </trkpt>
      <trkpt lat="42.13726" lon="2.38385">
        <ele>1064.1</ele>
        <time>2019-04-12T07:48:13Z</time>
      </trkpt>
      <trkpt lat="42.13725" lon="2.38385">
        <ele>1064.5</ele>
        <time>2019-04-12T07:48:13Z</time>
      </trkpt>
      <trkpt lat="42.1372" lon="2.38387">
        <ele>1065</ele>
        <time>2019-04-12T07:48:15Z</time>
      </trkpt>
      <trkpt lat="42.13717" lon="2.3839">
        <ele>1065.4</ele>
        <time>2019-04-12T07:48:17Z</time>
      </trkpt>
      <trkpt lat="42.13711" lon="2.38391">
        <ele>1066.1</ele>
        <time>2019-04-12T07:48:19Z</time>
      </trkpt>
      <trkpt lat="42.13709" lon="2.38391">
        <ele>1066.5</ele>
        <time>2019-04-12T07:48:20Z</time>
      </trkpt>
      <trkpt lat="42.13706" lon="2.38391">
        <ele>1067.4</ele>
        <time>2019-04-12T07:48:21Z</time>
      </trkpt>
      <trkpt lat="42.13705" lon="2.3839">
        <ele>1067.5</ele>
        <time>2019-04-12T07:48:22Z</time>
      </trkpt>
      <trkpt lat="42.13704" lon="2.3839">
        <ele>1067.6</ele>
        <time>2019-04-12T07:48:22Z</time>
      </trkpt>
      <trkpt lat="42.13697" lon="2.38391">
        <ele>1068.1</ele>
        <time>2019-04-12T07:48:25Z</time>
      </trkpt>
      <trkpt lat="42.13695" lon="2.38391">
        <ele>1068.5</ele>
        <time>2019-04-12T07:48:26Z</time>
      </trkpt>
      <trkpt lat="42.13693" lon="2.38391">
        <ele>1068.8</ele>
        <time>2019-04-12T07:48:27Z</time>
      </trkpt>
      <trkpt lat="42.13692" lon="2.38391">
        <ele>1069</ele>
        <time>2019-04-12T07:48:27Z</time>
      </trkpt>
      <trkpt lat="42.13688" lon="2.38392">
        <ele>1069.9</ele>
        <time>2019-04-12T07:48:28Z</time>
      </trkpt>
      <trkpt lat="42.13687" lon="2.38392">
        <ele>1070</ele>
        <time>2019-04-12T07:48:29Z</time>
      </trkpt>
      <trkpt lat="42.13682" lon="2.38393">
        <ele>1070.8</ele>
        <time>2019-04-12T07:48:31Z</time>
      </trkpt>
      <trkpt lat="42.1368" lon="2.38392">
        <ele>1071.1</ele>
        <time>2019-04-12T07:48:32Z</time>
      </trkpt>
      <trkpt lat="42.13679" lon="2.38391">
        <ele>1071.9</ele>
        <time>2019-04-12T07:48:33Z</time>
      </trkpt>
      <trkpt lat="42.13678" lon="2.38391">
        <ele>1072.1</ele>
        <time>2019-04-12T07:48:33Z</time>
      </trkpt>
      <trkpt lat="42.13676" lon="2.38391">
        <ele>1072.2</ele>
        <time>2019-04-12T07:48:33Z</time>
      </trkpt>
      <trkpt lat="42.13666" lon="2.38394">
        <ele>1073.1</ele>
        <time>2019-04-12T07:48:38Z</time>
      </trkpt>
      <trkpt lat="42.13664" lon="2.38394">
        <ele>1073.1</ele>
        <time>2019-04-12T07:48:39Z</time>
      </trkpt>
      <trkpt lat="42.13661" lon="2.38395">
        <ele>1073.1</ele>
        <time>2019-04-12T07:48:40Z</time>
      </trkpt>
      <trkpt lat="42.13655" lon="2.38396">
        <ele>1074.1</ele>
        <time>2019-04-12T07:48:42Z</time>
      </trkpt>
      <trkpt lat="42.13653" lon="2.38396">
        <ele>1074.1</ele>
        <time>2019-04-12T07:48:43Z</time>
      </trkpt>
      <trkpt lat="42.13651" lon="2.38395">
        <ele>1074.1</ele>
        <time>2019-04-12T07:48:44Z</time>
      </trkpt>
      <trkpt lat="42.13648" lon="2.38393">
        <ele>1074.4</ele>
        <time>2019-04-12T07:48:45Z</time>
      </trkpt>
      <trkpt lat="42.13645" lon="2.38392">
        <ele>1075</ele>
        <time>2019-04-12T07:48:47Z</time>
      </trkpt>
      <trkpt lat="42.13641" lon="2.3839">
        <ele>1075.5</ele>
        <time>2019-04-12T07:48:48Z</time>
      </trkpt>
      <trkpt lat="42.13639" lon="2.38389">
        <ele>1075.5</ele>
        <time>2019-04-12T07:48:49Z</time>
      </trkpt>
      <trkpt lat="42.13632" lon="2.38389">
        <ele>1075.9</ele>
        <time>2019-04-12T07:48:52Z</time>
      </trkpt>
      <trkpt lat="42.1363" lon="2.38389">
        <ele>1076.2</ele>
        <time>2019-04-12T07:48:52Z</time>
      </trkpt>
      <trkpt lat="42.13627" lon="2.38391">
        <ele>1077.1</ele>
        <time>2019-04-12T07:48:54Z</time>
      </trkpt>
      <trkpt lat="42.13624" lon="2.38392">
        <ele>1077.2</ele>
        <time>2019-04-12T07:48:55Z</time>
      </trkpt>
      <trkpt lat="42.13617" lon="2.38391">
        <ele>1077.5</ele>
        <time>2019-04-12T07:48:58Z</time>
      </trkpt>
      <trkpt lat="42.13613" lon="2.3839">
        <ele>1078.2</ele>
        <time>2019-04-12T07:49:00Z</time>
      </trkpt>
      <trkpt lat="42.13612" lon="2.38389">
        <ele>1078.6</ele>
        <time>2019-04-12T07:49:00Z</time>
      </trkpt>
      <trkpt lat="42.13608" lon="2.38383">
        <ele>1079.4</ele>
        <time>2019-04-12T07:49:03Z</time>
      </trkpt>
      <trkpt lat="42.13607" lon="2.38381">
        <ele>1079.8</ele>
        <time>2019-04-12T07:49:03Z</time>
      </trkpt>
      <trkpt lat="42.13606" lon="2.3838">
        <ele>1080.1</ele>
        <time>2019-04-12T07:49:04Z</time>
      </trkpt>
      <trkpt lat="42.13604" lon="2.38377">
        <ele>1080.9</ele>
        <time>2019-04-12T07:49:05Z</time>
      </trkpt>
      <trkpt lat="42.13602" lon="2.38379">
        <ele>1081.8</ele>
        <time>2019-04-12T07:49:06Z</time>
      </trkpt>
      <trkpt lat="42.13601" lon="2.38379">
        <ele>1082</ele>
        <time>2019-04-12T07:49:06Z</time>
      </trkpt>
      <trkpt lat="42.13599" lon="2.38379">
        <ele>1082.6</ele>
        <time>2019-04-12T07:49:07Z</time>
      </trkpt>
      <trkpt lat="42.13598" lon="2.38378">
        <ele>1082.9</ele>
        <time>2019-04-12T07:49:08Z</time>
      </trkpt>
      <trkpt lat="42.13597" lon="2.38377">
        <ele>1083.1</ele>
        <time>2019-04-12T07:49:08Z</time>
      </trkpt>
      <trkpt lat="42.13595" lon="2.38375">
        <ele>1083.2</ele>
        <time>2019-04-12T07:49:09Z</time>
      </trkpt>
      <trkpt lat="42.13591" lon="2.38373">
        <ele>1084.2</ele>
        <time>2019-04-12T07:49:11Z</time>
      </trkpt>
      <trkpt lat="42.13589" lon="2.38373">
        <ele>1084.4</ele>
        <time>2019-04-12T07:49:12Z</time>
      </trkpt>
      <trkpt lat="42.13588" lon="2.38373">
        <ele>1084.6</ele>
        <time>2019-04-12T07:49:12Z</time>
      </trkpt>
      <trkpt lat="42.13584" lon="2.38376">
        <ele>1085.4</ele>
        <time>2019-04-12T07:49:14Z</time>
      </trkpt>
      <trkpt lat="42.13583" lon="2.38376">
        <ele>1085.5</ele>
        <time>2019-04-12T07:49:14Z</time>
      </trkpt>
      <trkpt lat="42.1358" lon="2.38374">
        <ele>1086.2</ele>
        <time>2019-04-12T07:49:16Z</time>
      </trkpt>
      <trkpt lat="42.13576" lon="2.38373">
        <ele>1086.5</ele>
        <time>2019-04-12T07:49:17Z</time>
      </trkpt>
      <trkpt lat="42.13571" lon="2.38378">
        <ele>1087.5</ele>
        <time>2019-04-12T07:49:20Z</time>
      </trkpt>
      <trkpt lat="42.1357" lon="2.38379">
        <ele>1087.6</ele>
        <time>2019-04-12T07:49:20Z</time>
      </trkpt>
      <trkpt lat="42.13566" lon="2.38377">
        <ele>1088.4</ele>
        <time>2019-04-12T07:49:22Z</time>
      </trkpt>
      <trkpt lat="42.13565" lon="2.38377">
        <ele>1088.5</ele>
        <time>2019-04-12T07:49:22Z</time>
      </trkpt>
      <trkpt lat="42.13563" lon="2.38376">
        <ele>1089.5</ele>
        <time>2019-04-12T07:49:24Z</time>
      </trkpt>
      <trkpt lat="42.13562" lon="2.38374">
        <ele>1089.6</ele>
        <time>2019-04-12T07:49:24Z</time>
      </trkpt>
      <trkpt lat="42.13561" lon="2.38373">
        <ele>1089.8</ele>
        <time>2019-04-12T07:49:25Z</time>
      </trkpt>
      <trkpt lat="42.13559" lon="2.38371">
        <ele>1090</ele>
        <time>2019-04-12T07:49:26Z</time>
      </trkpt>
      <trkpt lat="42.13558" lon="2.3837">
        <ele>1090.4</ele>
        <time>2019-04-12T07:49:26Z</time>
      </trkpt>
      <trkpt lat="42.13557" lon="2.38369">
        <ele>1090.5</ele>
        <time>2019-04-12T07:49:26Z</time>
      </trkpt>
      <trkpt lat="42.13556" lon="2.38368">
        <ele>1091.1</ele>
        <time>2019-04-12T07:49:27Z</time>
      </trkpt>
      <trkpt lat="42.13554" lon="2.38365">
        <ele>1091.5</ele>
        <time>2019-04-12T07:49:28Z</time>
      </trkpt>
      <trkpt lat="42.13554" lon="2.38364">
        <ele>1091.8</ele>
        <time>2019-04-12T07:49:28Z</time>
      </trkpt>
      <trkpt lat="42.13554" lon="2.38364">
        <ele>1092.2</ele>
        <time>2019-04-12T07:49:29Z</time>
      </trkpt>
      <trkpt lat="42.13553" lon="2.38363">
        <ele>1092.4</ele>
        <time>2019-04-12T07:49:29Z</time>
      </trkpt>
      <trkpt lat="42.13552" lon="2.38363">
        <ele>1093.1</ele>
        <time>2019-04-12T07:49:29Z</time>
      </trkpt>
      <trkpt lat="42.13548" lon="2.38363">
        <ele>1093.9</ele>
        <time>2019-04-12T07:49:31Z</time>
      </trkpt>
      <trkpt lat="42.13547" lon="2.38362">
        <ele>1094</ele>
        <time>2019-04-12T07:49:31Z</time>
      </trkpt>
      <trkpt lat="42.13547" lon="2.38361">
        <ele>1094.1</ele>
        <time>2019-04-12T07:49:32Z</time>
      </trkpt>
      <trkpt lat="42.13544" lon="2.38359">
        <ele>1095.1</ele>
        <time>2019-04-12T07:49:33Z</time>
      </trkpt>
      <trkpt lat="42.13542" lon="2.38357">
        <ele>1096.1</ele>
        <time>2019-04-12T07:49:34Z</time>
      </trkpt>
      <trkpt lat="42.1354" lon="2.38356">
        <ele>1096.5</ele>
        <time>2019-04-12T07:49:35Z</time>
      </trkpt>
      <trkpt lat="42.13538" lon="2.38355">
        <ele>1097.5</ele>
        <time>2019-04-12T07:49:36Z</time>
      </trkpt>
      <trkpt lat="42.13537" lon="2.38355">
        <ele>1097.8</ele>
        <time>2019-04-12T07:49:36Z</time>
      </trkpt>
      <trkpt lat="42.13536" lon="2.38354">
        <ele>1098.1</ele>
        <time>2019-04-12T07:49:36Z</time>
      </trkpt>
      <trkpt lat="42.13536" lon="2.38354">
        <ele>1098.1</ele>
        <time>2019-04-12T07:49:37Z</time>
      </trkpt>
      <trkpt lat="42.13535" lon="2.38352">
        <ele>1098.5</ele>
        <time>2019-04-12T07:49:37Z</time>
      </trkpt>
      <trkpt lat="42.13533" lon="2.38351">
        <ele>1099.1</ele>
        <time>2019-04-12T07:49:38Z</time>
      </trkpt>
      <trkpt lat="42.13532" lon="2.3835">
        <ele>1099.5</ele>
        <time>2019-04-12T07:49:39Z</time>
      </trkpt>
      <trkpt lat="42.13532" lon="2.3835">
        <ele>1099.6</ele>
        <time>2019-04-12T07:49:39Z</time>
      </trkpt>
      <trkpt lat="42.13531" lon="2.38351">
        <ele>1100.1</ele>
        <time>2019-04-12T07:49:39Z</time>
      </trkpt>
      <trkpt lat="42.13529" lon="2.38349">
        <ele>1100.8</ele>
        <time>2019-04-12T07:49:40Z</time>
      </trkpt>
      <trkpt lat="42.13529" lon="2.38348">
        <ele>1101.1</ele>
        <time>2019-04-12T07:49:40Z</time>
      </trkpt>
      <trkpt lat="42.13527" lon="2.38349">
        <ele>1101.8</ele>
        <time>2019-04-12T07:49:41Z</time>
      </trkpt>
      <trkpt lat="42.13525" lon="2.38349">
        <ele>1103.1</ele>
        <time>2019-04-12T07:49:42Z</time>
      </trkpt>
      <trkpt lat="42.13524" lon="2.3835">
        <ele>1103.9</ele>
        <time>2019-04-12T07:49:42Z</time>
      </trkpt>
      <trkpt lat="42.13524" lon="2.3835">
        <ele>1104.2</ele>
        <time>2019-04-12T07:49:42Z</time>
      </trkpt>
      <trkpt lat="42.13522" lon="2.38352">
        <ele>1105.1</ele>
        <time>2019-04-12T07:49:43Z</time>
      </trkpt>
      <trkpt lat="42.13522" lon="2.38352">
        <ele>1105.4</ele>
        <time>2019-04-12T07:49:43Z</time>
      </trkpt>
      <trkpt lat="42.13521" lon="2.38351">
        <ele>1106</ele>
        <time>2019-04-12T07:49:44Z</time>
      </trkpt>
      <trkpt lat="42.1352" lon="2.38349">
        <ele>1106.6</ele>
        <time>2019-04-12T07:49:44Z</time>
      </trkpt>
      <trkpt lat="42.13518" lon="2.38345">
        <ele>1107.2</ele>
        <time>2019-04-12T07:49:46Z</time>
      </trkpt>
      <trkpt lat="42.13517" lon="2.38345">
        <ele>1107.5</ele>
        <time>2019-04-12T07:49:46Z</time>
      </trkpt>
      <trkpt lat="42.13516" lon="2.38345">
        <ele>1108.1</ele>
        <time>2019-04-12T07:49:47Z</time>
      </trkpt>
      <trkpt lat="42.13516" lon="2.38346">
        <ele>1108.4</ele>
        <time>2019-04-12T07:49:47Z</time>
      </trkpt>
      <trkpt lat="42.13515" lon="2.38347">
        <ele>1108.5</ele>
        <time>2019-04-12T07:49:47Z</time>
      </trkpt>
      <trkpt lat="42.13515" lon="2.38347">
        <ele>1109.1</ele>
        <time>2019-04-12T07:49:47Z</time>
      </trkpt>
      <trkpt lat="42.13511" lon="2.38346">
        <ele>1109.9</ele>
        <time>2019-04-12T07:49:49Z</time>
      </trkpt>
      <trkpt lat="42.13508" lon="2.38344">
        <ele>1110.5</ele>
        <time>2019-04-12T07:49:50Z</time>
      </trkpt>
      <trkpt lat="42.13507" lon="2.38343">
        <ele>1111</ele>
        <time>2019-04-12T07:49:51Z</time>
      </trkpt>
      <trkpt lat="42.13506" lon="2.38341">
        <ele>1112.1</ele>
        <time>2019-04-12T07:49:52Z</time>
      </trkpt>
      <trkpt lat="42.13505" lon="2.38338">
        <ele>1112.5</ele>
        <time>2019-04-12T07:49:52Z</time>
      </trkpt>
      <trkpt lat="42.13505" lon="2.38338">
        <ele>1112.9</ele>
        <time>2019-04-12T07:49:53Z</time>
      </trkpt>
      <trkpt lat="42.13503" lon="2.38338">
        <ele>1113.5</ele>
        <time>2019-04-12T07:49:53Z</time>
      </trkpt>
      <trkpt lat="42.135" lon="2.38339">
        <ele>1114.1</ele>
        <time>2019-04-12T07:49:55Z</time>
      </trkpt>
      <trkpt lat="42.13499" lon="2.38339">
        <ele>1114.5</ele>
        <time>2019-04-12T07:49:55Z</time>
      </trkpt>
      <trkpt lat="42.13496" lon="2.38337">
        <ele>1115.8</ele>
        <time>2019-04-12T07:49:56Z</time>
      </trkpt>
      <trkpt lat="42.13496" lon="2.38336">
        <ele>1115.8</ele>
        <time>2019-04-12T07:49:57Z</time>
      </trkpt>
      <trkpt lat="42.13494" lon="2.38337">
        <ele>1116.2</ele>
        <time>2019-04-12T07:49:57Z</time>
      </trkpt>
      <trkpt lat="42.13494" lon="2.38338">
        <ele>1117.1</ele>
        <time>2019-04-12T07:49:57Z</time>
      </trkpt>
      <trkpt lat="42.13493" lon="2.38339">
        <ele>1117.5</ele>
        <time>2019-04-12T07:49:58Z</time>
      </trkpt>
      <trkpt lat="42.13491" lon="2.38342">
        <ele>1118.1</ele>
        <time>2019-04-12T07:49:59Z</time>
      </trkpt>
      <trkpt lat="42.1349" lon="2.38341">
        <ele>1118.1</ele>
        <time>2019-04-12T07:50:00Z</time>
      </trkpt>
      <trkpt lat="42.13489" lon="2.38341">
        <ele>1119.1</ele>
        <time>2019-04-12T07:50:00Z</time>
      </trkpt>
      <trkpt lat="42.13488" lon="2.3834">
        <ele>1120.2</ele>
        <time>2019-04-12T07:50:01Z</time>
      </trkpt>
      <trkpt lat="42.13487" lon="2.38338">
        <ele>1120.9</ele>
        <time>2019-04-12T07:50:01Z</time>
      </trkpt>
      <trkpt lat="42.13485" lon="2.38336">
        <ele>1121.4</ele>
        <time>2019-04-12T07:50:02Z</time>
      </trkpt>
      <trkpt lat="42.13483" lon="2.38336">
        <ele>1122.6</ele>
        <time>2019-04-12T07:50:03Z</time>
      </trkpt>
      <trkpt lat="42.1348" lon="2.38336">
        <ele>1123.8</ele>
        <time>2019-04-12T07:50:04Z</time>
      </trkpt>
      <trkpt lat="42.1348" lon="2.38335">
        <ele>1124</ele>
        <time>2019-04-12T07:50:04Z</time>
      </trkpt>
      <trkpt lat="42.13478" lon="2.38336">
        <ele>1125.1</ele>
        <time>2019-04-12T07:50:05Z</time>
      </trkpt>
      <trkpt lat="42.13476" lon="2.38335">
        <ele>1126</ele>
        <time>2019-04-12T07:50:06Z</time>
      </trkpt>
      <trkpt lat="42.13476" lon="2.38335">
        <ele>1126.2</ele>
        <time>2019-04-12T07:50:06Z</time>
      </trkpt>
      <trkpt lat="42.13475" lon="2.38335">
        <ele>1126.5</ele>
        <time>2019-04-12T07:50:06Z</time>
      </trkpt>
      <trkpt lat="42.13473" lon="2.38335">
        <ele>1127.5</ele>
        <time>2019-04-12T07:50:07Z</time>
      </trkpt>
      <trkpt lat="42.13471" lon="2.38336">
        <ele>1128.1</ele>
        <time>2019-04-12T07:50:08Z</time>
      </trkpt>
      <trkpt lat="42.13471" lon="2.38337">
        <ele>1128.5</ele>
        <time>2019-04-12T07:50:08Z</time>
      </trkpt>
      <trkpt lat="42.1347" lon="2.38336">
        <ele>1129.4</ele>
        <time>2019-04-12T07:50:08Z</time>
      </trkpt>
      <trkpt lat="42.1347" lon="2.38336">
        <ele>1130.1</ele>
        <time>2019-04-12T07:50:09Z</time>
      </trkpt>
      <trkpt lat="42.1347" lon="2.38335">
        <ele>1130.5</ele>
        <time>2019-04-12T07:50:09Z</time>
      </trkpt>
      <trkpt lat="42.1347" lon="2.38335">
        <ele>1131.1</ele>
        <time>2019-04-12T07:50:09Z</time>
      </trkpt>
      <trkpt lat="42.13469" lon="2.38335">
        <ele>1131.4</ele>
        <time>2019-04-12T07:50:09Z</time>
      </trkpt>
      <trkpt lat="42.1347" lon="2.38335">
        <ele>1131.5</ele>
        <time>2019-04-12T07:50:09Z</time>
      </trkpt>
      <trkpt lat="42.1347" lon="2.38334">
        <ele>1132.9</ele>
        <time>2019-04-12T07:50:10Z</time>
      </trkpt>
      <trkpt lat="42.13469" lon="2.38334">
        <ele>1133.1</ele>
        <time>2019-04-12T07:50:10Z</time>
      </trkpt>
      <trkpt lat="42.13469" lon="2.38332">
        <ele>1134.1</ele>
        <time>2019-04-12T07:50:10Z</time>
      </trkpt>
      <trkpt lat="42.13468" lon="2.38332">
        <ele>1134.1</ele>
        <time>2019-04-12T07:50:11Z</time>
      </trkpt>
      <trkpt lat="42.13468" lon="2.38332">
        <ele>1134.6</ele>
        <time>2019-04-12T07:50:11Z</time>
      </trkpt>
      <trkpt lat="42.13469" lon="2.38334">
        <ele>1135</ele>
        <time>2019-04-12T07:50:11Z</time>
      </trkpt>
      <trkpt lat="42.13468" lon="2.38338">
        <ele>1136.2</ele>
        <time>2019-04-12T07:50:12Z</time>
      </trkpt>
      <trkpt lat="42.13467" lon="2.38339">
        <ele>1136.4</ele>
        <time>2019-04-12T07:50:13Z</time>
      </trkpt>
      <trkpt lat="42.13463" lon="2.3834">
        <ele>1137.5</ele>
        <time>2019-04-12T07:50:15Z</time>
      </trkpt>
      <trkpt lat="42.13462" lon="2.3834">
        <ele>1137.5</ele>
        <time>2019-04-12T07:50:15Z</time>
      </trkpt>
      <trkpt lat="42.13459" lon="2.38342">
        <ele>1138.4</ele>
        <time>2019-04-12T07:50:16Z</time>
      </trkpt>
      <trkpt lat="42.13458" lon="2.38343">
        <ele>1139</ele>
        <time>2019-04-12T07:50:17Z</time>
      </trkpt>
      <trkpt lat="42.13458" lon="2.38343">
        <ele>1139.2</ele>
        <time>2019-04-12T07:50:17Z</time>
      </trkpt>
      <trkpt lat="42.13457" lon="2.38343">
        <ele>1139.5</ele>
        <time>2019-04-12T07:50:17Z</time>
      </trkpt>
      <trkpt lat="42.13454" lon="2.38343">
        <ele>1140.6</ele>
        <time>2019-04-12T07:50:18Z</time>
      </trkpt>
      <trkpt lat="42.13453" lon="2.38344">
        <ele>1140.8</ele>
        <time>2019-04-12T07:50:19Z</time>
      </trkpt>
      <trkpt lat="42.13445" lon="2.38352">
        <ele>1141.5</ele>
        <time>2019-04-12T07:50:23Z</time>
      </trkpt>
      <trkpt lat="42.13441" lon="2.38352">
        <ele>1142.8</ele>
        <time>2019-04-12T07:50:24Z</time>
      </trkpt>
      <trkpt lat="42.13437" lon="2.38352">
        <ele>1143.5</ele>
        <time>2019-04-12T07:50:26Z</time>
      </trkpt>
      <trkpt lat="42.13435" lon="2.38352">
        <ele>1143.8</ele>
        <time>2019-04-12T07:50:27Z</time>
      </trkpt>
      <trkpt lat="42.13433" lon="2.38351">
        <ele>1144.6</ele>
        <time>2019-04-12T07:50:27Z</time>
      </trkpt>
      <trkpt lat="42.13432" lon="2.3835">
        <ele>1145</ele>
        <time>2019-04-12T07:50:28Z</time>
      </trkpt>
      <trkpt lat="42.1343" lon="2.38349">
        <ele>1146.1</ele>
        <time>2019-04-12T07:50:29Z</time>
      </trkpt>
      <trkpt lat="42.1343" lon="2.38349">
        <ele>1146.4</ele>
        <time>2019-04-12T07:50:29Z</time>
      </trkpt>
      <trkpt lat="42.13428" lon="2.3835">
        <ele>1147.1</ele>
        <time>2019-04-12T07:50:30Z</time>
      </trkpt>
      <trkpt lat="42.13424" lon="2.38349">
        <ele>1148.1</ele>
        <time>2019-04-12T07:50:32Z</time>
      </trkpt>
      <trkpt lat="42.13423" lon="2.38348">
        <ele>1148.5</ele>
        <time>2019-04-12T07:50:32Z</time>
      </trkpt>
      <trkpt lat="42.13419" lon="2.38346">
        <ele>1149.5</ele>
        <time>2019-04-12T07:50:34Z</time>
      </trkpt>
      <trkpt lat="42.13416" lon="2.38344">
        <ele>1150.2</ele>
        <time>2019-04-12T07:50:35Z</time>
      </trkpt>
      <trkpt lat="42.13414" lon="2.38343">
        <ele>1150.8</ele>
        <time>2019-04-12T07:50:36Z</time>
      </trkpt>
      <trkpt lat="42.13411" lon="2.38342">
        <ele>1151.5</ele>
        <time>2019-04-12T07:50:37Z</time>
      </trkpt>
      <trkpt lat="42.13411" lon="2.38341">
        <ele>1152</ele>
        <time>2019-04-12T07:50:37Z</time>
      </trkpt>
      <trkpt lat="42.1341" lon="2.38341">
        <ele>1152.4</ele>
        <time>2019-04-12T07:50:38Z</time>
      </trkpt>
      <trkpt lat="42.1341" lon="2.3834">
        <ele>1153</ele>
        <time>2019-04-12T07:50:38Z</time>
      </trkpt>
      <trkpt lat="42.13409" lon="2.38339">
        <ele>1154</ele>
        <time>2019-04-12T07:50:39Z</time>
      </trkpt>
      <trkpt lat="42.13408" lon="2.38338">
        <ele>1154.4</ele>
        <time>2019-04-12T07:50:39Z</time>
      </trkpt>
      <trkpt lat="42.13403" lon="2.38338">
        <ele>1155.5</ele>
        <time>2019-04-12T07:50:41Z</time>
      </trkpt>
      <trkpt lat="42.13402" lon="2.38337">
        <ele>1155.6</ele>
        <time>2019-04-12T07:50:41Z</time>
      </trkpt>
      <trkpt lat="42.13399" lon="2.38335">
        <ele>1156.2</ele>
        <time>2019-04-12T07:50:43Z</time>
      </trkpt>
      <trkpt lat="42.13398" lon="2.38335">
        <ele>1156.6</ele>
        <time>2019-04-12T07:50:43Z</time>
      </trkpt>
      <trkpt lat="42.13394" lon="2.38336">
        <ele>1157.5</ele>
        <time>2019-04-12T07:50:45Z</time>
      </trkpt>
      <trkpt lat="42.13393" lon="2.38336">
        <ele>1157.9</ele>
        <time>2019-04-12T07:50:45Z</time>
      </trkpt>
      <trkpt lat="42.13391" lon="2.38338">
        <ele>1158.5</ele>
        <time>2019-04-12T07:50:46Z</time>
      </trkpt>
      <trkpt lat="42.1339" lon="2.38339">
        <ele>1159.1</ele>
        <time>2019-04-12T07:50:47Z</time>
      </trkpt>
      <trkpt lat="42.13388" lon="2.3834">
        <ele>1159.9</ele>
        <time>2019-04-12T07:50:48Z</time>
      </trkpt>
      <trkpt lat="42.13387" lon="2.38339">
        <ele>1160</ele>
        <time>2019-04-12T07:50:48Z</time>
      </trkpt>
      <trkpt lat="42.13387" lon="2.3834">
        <ele>1161.1</ele>
        <time>2019-04-12T07:50:48Z</time>
      </trkpt>
      <trkpt lat="42.13386" lon="2.38341">
        <ele>1161.8</ele>
        <time>2019-04-12T07:50:49Z</time>
      </trkpt>
      <trkpt lat="42.13386" lon="2.38342">
        <ele>1162.5</ele>
        <time>2019-04-12T07:50:49Z</time>
      </trkpt>
      <trkpt lat="42.13384" lon="2.38342">
        <ele>1163.5</ele>
        <time>2019-04-12T07:50:50Z</time>
      </trkpt>
      <trkpt lat="42.13384" lon="2.38342">
        <ele>1163.5</ele>
        <time>2019-04-12T07:50:50Z</time>
      </trkpt>
      <trkpt lat="42.13382" lon="2.38344">
        <ele>1164.5</ele>
        <time>2019-04-12T07:50:51Z</time>
      </trkpt>
      <trkpt lat="42.13379" lon="2.38344">
        <ele>1165.9</ele>
        <time>2019-04-12T07:50:52Z</time>
      </trkpt>
      <trkpt lat="42.13378" lon="2.38343">
        <ele>1166.2</ele>
        <time>2019-04-12T07:50:52Z</time>
      </trkpt>
      <trkpt lat="42.13376" lon="2.38342">
        <ele>1167.1</ele>
        <time>2019-04-12T07:50:53Z</time>
      </trkpt>
      <trkpt lat="42.13373" lon="2.38341">
        <ele>1168.1</ele>
        <time>2019-04-12T07:50:55Z</time>
      </trkpt>
      <trkpt lat="42.13372" lon="2.3834">
        <ele>1168.2</ele>
        <time>2019-04-12T07:50:55Z</time>
      </trkpt>
      <trkpt lat="42.13371" lon="2.38337">
        <ele>1169.1</ele>
        <time>2019-04-12T07:50:56Z</time>
      </trkpt>
      <trkpt lat="42.1337" lon="2.38337">
        <ele>1169.4</ele>
        <time>2019-04-12T07:50:56Z</time>
      </trkpt>
      <trkpt lat="42.1337" lon="2.38335">
        <ele>1170.4</ele>
        <time>2019-04-12T07:50:57Z</time>
      </trkpt>
      <trkpt lat="42.1337" lon="2.38335">
        <ele>1171</ele>
        <time>2019-04-12T07:50:57Z</time>
      </trkpt>
      <trkpt lat="42.1337" lon="2.38335">
        <ele>1171.5</ele>
        <time>2019-04-12T07:50:57Z</time>
      </trkpt>
      <trkpt lat="42.13367" lon="2.38336">
        <ele>1172.5</ele>
        <time>2019-04-12T07:50:58Z</time>
      </trkpt>
      <trkpt lat="42.13365" lon="2.38336">
        <ele>1173</ele>
        <time>2019-04-12T07:50:59Z</time>
      </trkpt>
      <trkpt lat="42.13362" lon="2.38336">
        <ele>1173.8</ele>
        <time>2019-04-12T07:51:00Z</time>
      </trkpt>
      <trkpt lat="42.13361" lon="2.38335">
        <ele>1174.1</ele>
        <time>2019-04-12T07:51:01Z</time>
      </trkpt>
      <trkpt lat="42.13361" lon="2.38334">
        <ele>1174.5</ele>
        <time>2019-04-12T07:51:01Z</time>
      </trkpt>
      <trkpt lat="42.13361" lon="2.38334">
        <ele>1174.9</ele>
        <time>2019-04-12T07:51:01Z</time>
      </trkpt>
      <trkpt lat="42.13362" lon="2.38334">
        <ele>1175.4</ele>
        <time>2019-04-12T07:51:01Z</time>
      </trkpt>
      <trkpt lat="42.13362" lon="2.38334">
        <ele>1176</ele>
        <time>2019-04-12T07:51:01Z</time>
      </trkpt>
      <trkpt lat="42.13361" lon="2.38335">
        <ele>1176.5</ele>
        <time>2019-04-12T07:51:02Z</time>
      </trkpt>
      <trkpt lat="42.13361" lon="2.38334">
        <ele>1177.1</ele>
        <time>2019-04-12T07:51:02Z</time>
      </trkpt>
      <trkpt lat="42.1336" lon="2.38333">
        <ele>1178.1</ele>
        <time>2019-04-12T07:51:03Z</time>
      </trkpt>
      <trkpt lat="42.13359" lon="2.38333">
        <ele>1179.1</ele>
        <time>2019-04-12T07:51:03Z</time>
      </trkpt>
      <trkpt lat="42.13358" lon="2.38333">
        <ele>1179.5</ele>
        <time>2019-04-12T07:51:04Z</time>
      </trkpt>
      <trkpt lat="42.13357" lon="2.38332">
        <ele>1180.1</ele>
        <time>2019-04-12T07:51:04Z</time>
      </trkpt>
      <trkpt lat="42.13356" lon="2.38331">
        <ele>1180.1</ele>
        <time>2019-04-12T07:51:05Z</time>
      </trkpt>
      <trkpt lat="42.13354" lon="2.38329">
        <ele>1180.6</ele>
        <time>2019-04-12T07:51:05Z</time>
      </trkpt>
      <trkpt lat="42.13354" lon="2.38328">
        <ele>1180.9</ele>
        <time>2019-04-12T07:51:06Z</time>
      </trkpt>
      <trkpt lat="42.1335" lon="2.38326">
        <ele>1181.6</ele>
        <time>2019-04-12T07:51:07Z</time>
      </trkpt>
      <trkpt lat="42.1335" lon="2.38326">
        <ele>1182.1</ele>
        <time>2019-04-12T07:51:08Z</time>
      </trkpt>
      <trkpt lat="42.13352" lon="2.38327">
        <ele>1183</ele>
        <time>2019-04-12T07:51:09Z</time>
      </trkpt>
      <trkpt lat="42.13355" lon="2.3833">
        <ele>1184</ele>
        <time>2019-04-12T07:51:10Z</time>
      </trkpt>
      <trkpt lat="42.13356" lon="2.38332">
        <ele>1184.5</ele>
        <time>2019-04-12T07:51:11Z</time>
      </trkpt>
      <trkpt lat="42.13356" lon="2.38332">
        <ele>1184.8</ele>
        <time>2019-04-12T07:51:11Z</time>
      </trkpt>
      <trkpt lat="42.13357" lon="2.38332">
        <ele>1185.2</ele>
        <time>2019-04-12T07:51:11Z</time>
      </trkpt>
      <trkpt lat="42.13356" lon="2.38331">
        <ele>1185.9</ele>
        <time>2019-04-12T07:51:12Z</time>
      </trkpt>
      <trkpt lat="42.13353" lon="2.38332">
        <ele>1186.4</ele>
        <time>2019-04-12T07:51:13Z</time>
      </trkpt>
      <trkpt lat="42.1335" lon="2.38333">
        <ele>1187</ele>
        <time>2019-04-12T07:51:14Z</time>
      </trkpt>
      <trkpt lat="42.13348" lon="2.38332">
        <ele>1187.6</ele>
        <time>2019-04-12T07:51:15Z</time>
      </trkpt>
      <trkpt lat="42.13346" lon="2.38334">
        <ele>1188.6</ele>
        <time>2019-04-12T07:51:16Z</time>
      </trkpt>
      <trkpt lat="42.13345" lon="2.38334">
        <ele>1188.9</ele>
        <time>2019-04-12T07:51:16Z</time>
      </trkpt>
      <trkpt lat="42.13343" lon="2.38334">
        <ele>1189.8</ele>
        <time>2019-04-12T07:51:17Z</time>
      </trkpt>
      <trkpt lat="42.13342" lon="2.38334">
        <ele>1190.4</ele>
        <time>2019-04-12T07:51:18Z</time>
      </trkpt>
      <trkpt lat="42.13342" lon="2.38334">
        <ele>1191</ele>
        <time>2019-04-12T07:51:18Z</time>
      </trkpt>
      <trkpt lat="42.13341" lon="2.3833">
        <ele>1191.9</ele>
        <time>2019-04-12T07:51:19Z</time>
      </trkpt>
      <trkpt lat="42.1334" lon="2.38329">
        <ele>1192.2</ele>
        <time>2019-04-12T07:51:19Z</time>
      </trkpt>
      <trkpt lat="42.13338" lon="2.38331">
        <ele>1193.2</ele>
        <time>2019-04-12T07:51:21Z</time>
      </trkpt>
      <trkpt lat="42.13337" lon="2.38332">
        <ele>1193.4</ele>
        <time>2019-04-12T07:51:21Z</time>
      </trkpt>
      <trkpt lat="42.13337" lon="2.38333">
        <ele>1193.6</ele>
        <time>2019-04-12T07:51:21Z</time>
      </trkpt>
      <trkpt lat="42.13337" lon="2.38336">
        <ele>1194.4</ele>
        <time>2019-04-12T07:51:22Z</time>
      </trkpt>
      <trkpt lat="42.13336" lon="2.38336">
        <ele>1194.6</ele>
        <time>2019-04-12T07:51:22Z</time>
      </trkpt>
      <trkpt lat="42.13332" lon="2.38335">
        <ele>1195.9</ele>
        <time>2019-04-12T07:51:24Z</time>
      </trkpt>
      <trkpt lat="42.13329" lon="2.38335">
        <ele>1196.5</ele>
        <time>2019-04-12T07:51:25Z</time>
      </trkpt>
      <trkpt lat="42.13328" lon="2.38335">
        <ele>1196.8</ele>
        <time>2019-04-12T07:51:26Z</time>
      </trkpt>
      <trkpt lat="42.13325" lon="2.38336">
        <ele>1197.5</ele>
        <time>2019-04-12T07:51:27Z</time>
      </trkpt>
      <trkpt lat="42.13324" lon="2.38337">
        <ele>1198</ele>
        <time>2019-04-12T07:51:27Z</time>
      </trkpt>
      <trkpt lat="42.13323" lon="2.38337">
        <ele>1198.1</ele>
        <time>2019-04-12T07:51:28Z</time>
      </trkpt>
      <trkpt lat="42.13323" lon="2.38333">
        <ele>1199.2</ele>
        <time>2019-04-12T07:51:29Z</time>
      </trkpt>
      <trkpt lat="42.13323" lon="2.38332">
        <ele>1199.5</ele>
        <time>2019-04-12T07:51:29Z</time>
      </trkpt>
      <trkpt lat="42.13325" lon="2.38327">
        <ele>1200.1</ele>
        <time>2019-04-12T07:51:31Z</time>
      </trkpt>
      <trkpt lat="42.13326" lon="2.38326">
        <ele>1200.6</ele>
        <time>2019-04-12T07:51:31Z</time>
      </trkpt>
      <trkpt lat="42.13326" lon="2.38325">
        <ele>1201.2</ele>
        <time>2019-04-12T07:51:32Z</time>
      </trkpt>
      <trkpt lat="42.13326" lon="2.38325">
        <ele>1201.5</ele>
        <time>2019-04-12T07:51:32Z</time>
      </trkpt>
      <trkpt lat="42.13327" lon="2.38325">
        <ele>1202.4</ele>
        <time>2019-04-12T07:51:32Z</time>
      </trkpt>
      <trkpt lat="42.13327" lon="2.38326">
        <ele>1202.6</ele>
        <time>2019-04-12T07:51:32Z</time>
      </trkpt>
      <trkpt lat="42.13326" lon="2.38328">
        <ele>1202.8</ele>
        <time>2019-04-12T07:51:33Z</time>
      </trkpt>
      <trkpt lat="42.13324" lon="2.38331">
        <ele>1203.5</ele>
        <time>2019-04-12T07:51:34Z</time>
      </trkpt>
      <trkpt lat="42.13323" lon="2.38333">
        <ele>1204</ele>
        <time>2019-04-12T07:51:35Z</time>
      </trkpt>
      <trkpt lat="42.13322" lon="2.38335">
        <ele>1204.1</ele>
        <time>2019-04-12T07:51:35Z</time>
      </trkpt>
      <trkpt lat="42.1332" lon="2.38339">
        <ele>1205</ele>
        <time>2019-04-12T07:51:37Z</time>
      </trkpt>
      <trkpt lat="42.13319" lon="2.38339">
        <ele>1205.2</ele>
        <time>2019-04-12T07:51:37Z</time>
      </trkpt>
      <trkpt lat="42.13318" lon="2.38339">
        <ele>1205.5</ele>
        <time>2019-04-12T07:51:37Z</time>
      </trkpt>
      <trkpt lat="42.13318" lon="2.38339">
        <ele>1206.1</ele>
        <time>2019-04-12T07:51:38Z</time>
      </trkpt>
      <trkpt lat="42.13317" lon="2.38339">
        <ele>1206.5</ele>
        <time>2019-04-12T07:51:38Z</time>
      </trkpt>
      <trkpt lat="42.13316" lon="2.38339">
        <ele>1206.6</ele>
        <time>2019-04-12T07:51:38Z</time>
      </trkpt>
      <trkpt lat="42.13315" lon="2.38338">
        <ele>1206.8</ele>
        <time>2019-04-12T07:51:39Z</time>
      </trkpt>
      <trkpt lat="42.13314" lon="2.38338">
        <ele>1207.1</ele>
        <time>2019-04-12T07:51:39Z</time>
      </trkpt>
      <trkpt lat="42.13313" lon="2.38336">
        <ele>1207.5</ele>
        <time>2019-04-12T07:51:40Z</time>
      </trkpt>
      <trkpt lat="42.13312" lon="2.38336">
        <ele>1208.1</ele>
        <time>2019-04-12T07:51:40Z</time>
      </trkpt>
      <trkpt lat="42.13311" lon="2.38336">
        <ele>1208.5</ele>
        <time>2019-04-12T07:51:41Z</time>
      </trkpt>
      <trkpt lat="42.1331" lon="2.38336">
        <ele>1209.1</ele>
        <time>2019-04-12T07:51:41Z</time>
      </trkpt>
      <trkpt lat="42.13308" lon="2.38335">
        <ele>1209.6</ele>
        <time>2019-04-12T07:51:42Z</time>
      </trkpt>
      <trkpt lat="42.13305" lon="2.38336">
        <ele>1210.9</ele>
        <time>2019-04-12T07:51:43Z</time>
      </trkpt>
      <trkpt lat="42.13305" lon="2.38336">
        <ele>1211</ele>
        <time>2019-04-12T07:51:43Z</time>
      </trkpt>
      <trkpt lat="42.13304" lon="2.38335">
        <ele>1211.5</ele>
        <time>2019-04-12T07:51:44Z</time>
      </trkpt>
      <trkpt lat="42.13305" lon="2.38333">
        <ele>1212</ele>
        <time>2019-04-12T07:51:44Z</time>
      </trkpt>
      <trkpt lat="42.13307" lon="2.38327">
        <ele>1213</ele>
        <time>2019-04-12T07:51:46Z</time>
      </trkpt>
      <trkpt lat="42.13307" lon="2.38325">
        <ele>1213.2</ele>
        <time>2019-04-12T07:51:47Z</time>
      </trkpt>
      <trkpt lat="42.13306" lon="2.38324">
        <ele>1213.1</ele>
        <time>2019-04-12T07:51:47Z</time>
      </trkpt>
      <trkpt lat="42.13303" lon="2.38314">
        <ele>1213.6</ele>
        <time>2019-04-12T07:51:50Z</time>
      </trkpt>
      <trkpt lat="42.13305" lon="2.38307">
        <ele>1213.8</ele>
        <time>2019-04-12T07:51:53Z</time>
      </trkpt>
      <trkpt lat="42.13305" lon="2.38307">
        <ele>1213.8</ele>
        <time>2019-04-12T07:51:53Z</time>
      </trkpt>
      <trkpt lat="42.13301" lon="2.38315">
        <ele>1214.1</ele>
        <time>2019-04-12T07:51:56Z</time>
      </trkpt>
      <trkpt lat="42.13299" lon="2.38318">
        <ele>1214.1</ele>
        <time>2019-04-12T07:51:57Z</time>
      </trkpt>
      <trkpt lat="42.133" lon="2.38315">
        <ele>1214.1</ele>
        <time>2019-04-12T07:51:58Z</time>
      </trkpt>
      <trkpt lat="42.13301" lon="2.3831">
        <ele>1213.9</ele>
        <time>2019-04-12T07:51:59Z</time>
      </trkpt>
      <trkpt lat="42.13304" lon="2.38299">
        <ele>1213.9</ele>
        <time>2019-04-12T07:52:03Z</time>
      </trkpt>
      <trkpt lat="42.13305" lon="2.38297">
        <ele>1214</ele>
        <time>2019-04-12T07:52:03Z</time>
      </trkpt>
      <trkpt lat="42.13305" lon="2.38298">
        <ele>1214.1</ele>
        <time>2019-04-12T07:52:04Z</time>
      </trkpt>
      <trkpt lat="42.13309" lon="2.38298">
        <ele>1214.2</ele>
        <time>2019-04-12T07:52:05Z</time>
      </trkpt>
      <trkpt lat="42.1331" lon="2.38298">
        <ele>1214.1</ele>
        <time>2019-04-12T07:52:06Z</time>
      </trkpt>
      <trkpt lat="42.13311" lon="2.38299">
        <ele>1214.2</ele>
        <time>2019-04-12T07:52:06Z</time>
      </trkpt>
      <trkpt lat="42.1331" lon="2.38308">
        <ele>1214.1</ele>
        <time>2019-04-12T07:52:09Z</time>
      </trkpt>
      <trkpt lat="42.13308" lon="2.38324">
        <ele>1214.4</ele>
        <time>2019-04-12T07:52:14Z</time>
      </trkpt>
      <trkpt lat="42.13307" lon="2.38324">
        <ele>1214.6</ele>
        <time>2019-04-12T07:52:14Z</time>
      </trkpt>
      <trkpt lat="42.13306" lon="2.38323">
        <ele>1214.9</ele>
        <time>2019-04-12T07:52:14Z</time>
      </trkpt>
      <trkpt lat="42.13308" lon="2.38324">
        <ele>1214.1</ele>
        <time>2019-04-12T07:52:15Z</time>
      </trkpt>
      <trkpt lat="42.13308" lon="2.38325">
        <ele>1214.1</ele>
        <time>2019-04-12T07:52:16Z</time>
      </trkpt>
      <trkpt lat="42.13308" lon="2.38325">
        <ele>1214.2</ele>
        <time>2019-04-12T07:52:16Z</time>
      </trkpt>
      <trkpt lat="42.13306" lon="2.38326">
        <ele>1214.1</ele>
        <time>2019-04-12T07:52:16Z</time>
      </trkpt>
      <trkpt lat="42.13301" lon="2.38328">
        <ele>1233</ele>
        <time>2019-04-12T07:52:19Z</time>
      </trkpt>
      <trkpt lat="42.133" lon="2.38329">
        <ele>1224.1</ele>
        <time>2019-04-12T07:52:19Z</time>
      </trkpt>
      <trkpt lat="42.13299" lon="2.3833">
        <ele>1219.4</ele>
        <time>2019-04-12T07:52:20Z</time>
      </trkpt>
      <trkpt lat="42.13299" lon="2.38331">
        <ele>1217</ele>
        <time>2019-04-12T07:52:20Z</time>
      </trkpt>
      <trkpt lat="42.13298" lon="2.38332">
        <ele>1216</ele>
        <time>2019-04-12T07:52:20Z</time>
      </trkpt>
      <trkpt lat="42.13297" lon="2.38334">
        <ele>1215</ele>
        <time>2019-04-12T07:52:21Z</time>
      </trkpt>
      <trkpt lat="42.13297" lon="2.38335">
        <ele>1215</ele>
        <time>2019-04-12T07:52:21Z</time>
      </trkpt>
      <trkpt lat="42.13297" lon="2.38335">
        <ele>1214.9</ele>
        <time>2019-04-12T07:52:21Z</time>
      </trkpt>
      <trkpt lat="42.13296" lon="2.38335">
        <ele>1214.8</ele>
        <time>2019-04-12T07:52:22Z</time>
      </trkpt>
      <trkpt lat="42.13297" lon="2.38331">
        <ele>1214.8</ele>
        <time>2019-04-12T07:52:23Z</time>
      </trkpt>
      <trkpt lat="42.13299" lon="2.38328">
        <ele>1214.8</ele>
        <time>2019-04-12T07:52:24Z</time>
      </trkpt>
      <trkpt lat="42.13301" lon="2.38325">
        <ele>1214.8</ele>
        <time>2019-04-12T07:52:26Z</time>
      </trkpt>
      <trkpt lat="42.133" lon="2.38324">
        <ele>1214.9</ele>
        <time>2019-04-12T07:52:26Z</time>
      </trkpt>
      <trkpt lat="42.13297" lon="2.38321">
        <ele>1214.8</ele>
        <time>2019-04-12T07:52:28Z</time>
      </trkpt>
      <trkpt lat="42.13293" lon="2.38315">
        <ele>1214.9</ele>
        <time>2019-04-12T07:52:30Z</time>
      </trkpt>
      <trkpt lat="42.13292" lon="2.38315">
        <ele>1214.8</ele>
        <time>2019-04-12T07:52:30Z</time>
      </trkpt>
      <trkpt lat="42.13288" lon="2.38321">
        <ele>1214.8</ele>
        <time>2019-04-12T07:52:33Z</time>
      </trkpt>
      <trkpt lat="42.13289" lon="2.38321">
        <ele>1214.8</ele>
        <time>2019-04-12T07:52:33Z</time>
      </trkpt>
      <trkpt lat="42.13294" lon="2.38308">
        <ele>1214.9</ele>
        <time>2019-04-12T07:52:37Z</time>
      </trkpt>
      <trkpt lat="42.13298" lon="2.38303">
        <ele>1225.8</ele>
        <time>2019-04-12T07:52:40Z</time>
      </trkpt>
      <trkpt lat="42.13301" lon="2.38302">
        <ele>1226.1</ele>
        <time>2019-04-12T07:52:41Z</time>
      </trkpt>
      <trkpt lat="42.13303" lon="2.38304">
        <ele>1225.9</ele>
        <time>2019-04-12T07:52:42Z</time>
      </trkpt>
      <trkpt lat="42.13304" lon="2.38308">
        <ele>1225.6</ele>
        <time>2019-04-12T07:52:43Z</time>
      </trkpt>
      <trkpt lat="42.13297" lon="2.38323">
        <ele>1225.6</ele>
        <time>2019-04-12T07:52:48Z</time>
      </trkpt>
      <trkpt lat="42.13295" lon="2.38325">
        <ele>1225.5</ele>
        <time>2019-04-12T07:52:49Z</time>
      </trkpt>
      <trkpt lat="42.13291" lon="2.38326">
        <ele>1225.5</ele>
        <time>2019-04-12T07:52:51Z</time>
      </trkpt>
      <trkpt lat="42.13287" lon="2.38327">
        <ele>1225.8</ele>
        <time>2019-04-12T07:52:53Z</time>
      </trkpt>
      <trkpt lat="42.13285" lon="2.38328">
        <ele>1226.4</ele>
        <time>2019-04-12T07:52:53Z</time>
      </trkpt>
      <trkpt lat="42.13284" lon="2.38328">
        <ele>1227.1</ele>
        <time>2019-04-12T07:52:54Z</time>
      </trkpt>
      <trkpt lat="42.13282" lon="2.38325">
        <ele>1228</ele>
        <time>2019-04-12T07:52:55Z</time>
      </trkpt>
      <trkpt lat="42.13282" lon="2.38325">
        <ele>1228.5</ele>
        <time>2019-04-12T07:52:55Z</time>
      </trkpt>
      <trkpt lat="42.1328" lon="2.38328">
        <ele>1229</ele>
        <time>2019-04-12T07:52:56Z</time>
      </trkpt>
      <trkpt lat="42.1328" lon="2.3833">
        <ele>1229.4</ele>
        <time>2019-04-12T07:52:57Z</time>
      </trkpt>
      <trkpt lat="42.13279" lon="2.38329">
        <ele>1230.1</ele>
        <time>2019-04-12T07:52:57Z</time>
      </trkpt>
      <trkpt lat="42.13279" lon="2.38328">
        <ele>1230.6</ele>
        <time>2019-04-12T07:52:57Z</time>
      </trkpt>
      <trkpt lat="42.13277" lon="2.38327">
        <ele>1231.2</ele>
        <time>2019-04-12T07:52:58Z</time>
      </trkpt>
      <trkpt lat="42.13276" lon="2.38328">
        <ele>1231.9</ele>
        <time>2019-04-12T07:52:58Z</time>
      </trkpt>
      <trkpt lat="42.13274" lon="2.3833">
        <ele>1232.5</ele>
        <time>2019-04-12T07:52:59Z</time>
      </trkpt>
      <trkpt lat="42.13274" lon="2.3833">
        <ele>1233.1</ele>
        <time>2019-04-12T07:52:59Z</time>
      </trkpt>
      <trkpt lat="42.13271" lon="2.3833">
        <ele>1234.1</ele>
        <time>2019-04-12T07:53:00Z</time>
      </trkpt>
      <trkpt lat="42.1327" lon="2.38331">
        <ele>1234.5</ele>
        <time>2019-04-12T07:53:01Z</time>
      </trkpt>
      <trkpt lat="42.13269" lon="2.38333">
        <ele>1235</ele>
        <time>2019-04-12T07:53:02Z</time>
      </trkpt>
      <trkpt lat="42.13267" lon="2.38335">
        <ele>1236.2</ele>
        <time>2019-04-12T07:53:03Z</time>
      </trkpt>
      <trkpt lat="42.13264" lon="2.38335">
        <ele>1237</ele>
        <time>2019-04-12T07:53:04Z</time>
      </trkpt>
      <trkpt lat="42.13263" lon="2.38336">
        <ele>1237.2</ele>
        <time>2019-04-12T07:53:04Z</time>
      </trkpt>
      <trkpt lat="42.13259" lon="2.38338">
        <ele>1238.5</ele>
        <time>2019-04-12T07:53:06Z</time>
      </trkpt>
      <trkpt lat="42.13258" lon="2.38338">
        <ele>1238.8</ele>
        <time>2019-04-12T07:53:06Z</time>
      </trkpt>
      <trkpt lat="42.13257" lon="2.38339">
        <ele>1239.5</ele>
        <time>2019-04-12T07:53:07Z</time>
      </trkpt>
      <trkpt lat="42.13254" lon="2.38337">
        <ele>1240.2</ele>
        <time>2019-04-12T07:53:08Z</time>
      </trkpt>
      <trkpt lat="42.13254" lon="2.38336">
        <ele>1240.9</ele>
        <time>2019-04-12T07:53:08Z</time>
      </trkpt>
      <trkpt lat="42.13252" lon="2.38332">
        <ele>1241.6</ele>
        <time>2019-04-12T07:53:10Z</time>
      </trkpt>
      <trkpt lat="42.13251" lon="2.38332">
        <ele>1241.9</ele>
        <time>2019-04-12T07:53:10Z</time>
      </trkpt>
      <trkpt lat="42.13246" lon="2.3833">
        <ele>1242.8</ele>
        <time>2019-04-12T07:53:12Z</time>
      </trkpt>
      <trkpt lat="42.13245" lon="2.38329">
        <ele>1243</ele>
        <time>2019-04-12T07:53:12Z</time>
      </trkpt>
      <trkpt lat="42.13241" lon="2.3833">
        <ele>1244.1</ele>
        <time>2019-04-12T07:53:14Z</time>
      </trkpt>
      <trkpt lat="42.13241" lon="2.38331">
        <ele>1244.1</ele>
        <time>2019-04-12T07:53:15Z</time>
      </trkpt>
      <trkpt lat="42.1324" lon="2.38331">
        <ele>1244.2</ele>
        <time>2019-04-12T07:53:15Z</time>
      </trkpt>
      <trkpt lat="42.13239" lon="2.3833">
        <ele>1244.5</ele>
        <time>2019-04-12T07:53:15Z</time>
      </trkpt>
      <trkpt lat="42.13236" lon="2.3833">
        <ele>1245.1</ele>
        <time>2019-04-12T07:53:16Z</time>
      </trkpt>
      <trkpt lat="42.13235" lon="2.3833">
        <ele>1246.2</ele>
        <time>2019-04-12T07:53:17Z</time>
      </trkpt>
      <trkpt lat="42.13235" lon="2.3833">
        <ele>1246.5</ele>
        <time>2019-04-12T07:53:17Z</time>
      </trkpt>
      <trkpt lat="42.13235" lon="2.3833">
        <ele>1246.5</ele>
        <time>2019-04-12T07:53:17Z</time>
      </trkpt>
      <trkpt lat="42.13235" lon="2.3833">
        <ele>1247.5</ele>
        <time>2019-04-12T07:53:17Z</time>
      </trkpt>
      <trkpt lat="42.13236" lon="2.38331">
        <ele>1248.1</ele>
        <time>2019-04-12T07:53:17Z</time>
      </trkpt>
      <trkpt lat="42.13235" lon="2.38331">
        <ele>1248.4</ele>
        <time>2019-04-12T07:53:17Z</time>
      </trkpt>
      <trkpt lat="42.13235" lon="2.38331">
        <ele>1248.8</ele>
        <time>2019-04-12T07:53:17Z</time>
      </trkpt>
      <trkpt lat="42.13234" lon="2.38332">
        <ele>1249.8</ele>
        <time>2019-04-12T07:53:18Z</time>
      </trkpt>
      <trkpt lat="42.13232" lon="2.38332">
        <ele>1251.1</ele>
        <time>2019-04-12T07:53:19Z</time>
      </trkpt>
      <trkpt lat="42.13231" lon="2.38331">
        <ele>1251.5</ele>
        <time>2019-04-12T07:53:19Z</time>
      </trkpt>
      <trkpt lat="42.13229" lon="2.38332">
        <ele>1252</ele>
        <time>2019-04-12T07:53:20Z</time>
      </trkpt>
      <trkpt lat="42.13228" lon="2.38334">
        <ele>1252.6</ele>
        <time>2019-04-12T07:53:21Z</time>
      </trkpt>
      <trkpt lat="42.13226" lon="2.38335">
        <ele>1253.1</ele>
        <time>2019-04-12T07:53:21Z</time>
      </trkpt>
      <trkpt lat="42.13224" lon="2.38335">
        <ele>1253.4</ele>
        <time>2019-04-12T07:53:22Z</time>
      </trkpt>
      <trkpt lat="42.13221" lon="2.38333">
        <ele>1254.2</ele>
        <time>2019-04-12T07:53:24Z</time>
      </trkpt>
      <trkpt lat="42.13218" lon="2.3833">
        <ele>1254.9</ele>
        <time>2019-04-12T07:53:25Z</time>
      </trkpt>
      <trkpt lat="42.13218" lon="2.38329">
        <ele>1255.1</ele>
        <time>2019-04-12T07:53:26Z</time>
      </trkpt>
      <trkpt lat="42.13219" lon="2.3833">
        <ele>1255.8</ele>
        <time>2019-04-12T07:53:26Z</time>
      </trkpt>
      <trkpt lat="42.1322" lon="2.3833">
        <ele>1255.8</ele>
        <time>2019-04-12T07:53:26Z</time>
      </trkpt>
      <trkpt lat="42.1322" lon="2.38331">
        <ele>1256.2</ele>
        <time>2019-04-12T07:53:27Z</time>
      </trkpt>
      <trkpt lat="42.13221" lon="2.38332">
        <ele>1256.6</ele>
        <time>2019-04-12T07:53:27Z</time>
      </trkpt>
      <trkpt lat="42.13221" lon="2.38334">
        <ele>1257.5</ele>
        <time>2019-04-12T07:53:28Z</time>
      </trkpt>
      <trkpt lat="42.1322" lon="2.38334">
        <ele>1257.9</ele>
        <time>2019-04-12T07:53:28Z</time>
      </trkpt>
      <trkpt lat="42.13218" lon="2.38333">
        <ele>1258.6</ele>
        <time>2019-04-12T07:53:29Z</time>
      </trkpt>
      <trkpt lat="42.13212" lon="2.38329">
        <ele>1259.5</ele>
        <time>2019-04-12T07:53:32Z</time>
      </trkpt>
      <trkpt lat="42.13211" lon="2.38328">
        <ele>1259.8</ele>
        <time>2019-04-12T07:53:32Z</time>
      </trkpt>
      <trkpt lat="42.13211" lon="2.38329">
        <ele>1260.5</ele>
        <time>2019-04-12T07:53:33Z</time>
      </trkpt>
      <trkpt lat="42.13204" lon="2.38322">
        <ele>1261.4</ele>
        <time>2019-04-12T07:53:36Z</time>
      </trkpt>
      <trkpt lat="42.13203" lon="2.38322">
        <ele>1261.8</ele>
        <time>2019-04-12T07:53:37Z</time>
      </trkpt>
      <trkpt lat="42.13203" lon="2.3832">
        <ele>1261.8</ele>
        <time>2019-04-12T07:53:37Z</time>
      </trkpt>
      <trkpt lat="42.13203" lon="2.38318">
        <ele>1262.8</ele>
        <time>2019-04-12T07:53:38Z</time>
      </trkpt>
      <trkpt lat="42.13202" lon="2.38323">
        <ele>1264.1</ele>
        <time>2019-04-12T07:53:39Z</time>
      </trkpt>
      <trkpt lat="42.132" lon="2.38327">
        <ele>1264.9</ele>
        <time>2019-04-12T07:53:41Z</time>
      </trkpt>
      <trkpt lat="42.13205" lon="2.38327">
        <ele>1264.8</ele>
        <time>2019-04-12T07:53:43Z</time>
      </trkpt>
      <trkpt lat="42.13207" lon="2.38326">
        <ele>1265.1</ele>
        <time>2019-04-12T07:53:44Z</time>
      </trkpt>
      <trkpt lat="42.13215" lon="2.38316">
        <ele>1265</ele>
        <time>2019-04-12T07:53:48Z</time>
      </trkpt>
      <trkpt lat="42.13215" lon="2.38313">
        <ele>1265.2</ele>
        <time>2019-04-12T07:53:49Z</time>
      </trkpt>
      <trkpt lat="42.13212" lon="2.38312">
        <ele>1265.2</ele>
        <time>2019-04-12T07:53:50Z</time>
      </trkpt>
      <trkpt lat="42.13202" lon="2.38319">
        <ele>1265.4</ele>
        <time>2019-04-12T07:53:55Z</time>
      </trkpt>
      <trkpt lat="42.132" lon="2.3832">
        <ele>1265.4</ele>
        <time>2019-04-12T07:53:56Z</time>
      </trkpt>
      <trkpt lat="42.13198" lon="2.38328">
        <ele>1265.1</ele>
        <time>2019-04-12T07:53:58Z</time>
      </trkpt>
      <trkpt lat="42.13199" lon="2.38334">
        <ele>1265.1</ele>
        <time>2019-04-12T07:54:00Z</time>
      </trkpt>
      <trkpt lat="42.132" lon="2.38336">
        <ele>1265.1</ele>
        <time>2019-04-12T07:54:01Z</time>
      </trkpt>
      <trkpt lat="42.132" lon="2.38336">
        <ele>1266.1</ele>
        <time>2019-04-12T07:54:01Z</time>
      </trkpt>
      <trkpt lat="42.13199" lon="2.38336">
        <ele>1266.5</ele>
        <time>2019-04-12T07:54:01Z</time>
      </trkpt>
      <trkpt lat="42.13198" lon="2.38333">
        <ele>1267.2</ele>
        <time>2019-04-12T07:54:02Z</time>
      </trkpt>
      <trkpt lat="42.13197" lon="2.3833">
        <ele>1268.1</ele>
        <time>2019-04-12T07:54:03Z</time>
      </trkpt>
      <trkpt lat="42.13196" lon="2.3833">
        <ele>1268.5</ele>
        <time>2019-04-12T07:54:03Z</time>
      </trkpt>
      <trkpt lat="42.13194" lon="2.3833">
        <ele>1269.5</ele>
        <time>2019-04-12T07:54:04Z</time>
      </trkpt>
      <trkpt lat="42.13195" lon="2.38332">
        <ele>1269.9</ele>
        <time>2019-04-12T07:54:04Z</time>
      </trkpt>
      <trkpt lat="42.13196" lon="2.38336">
        <ele>1270.6</ele>
        <time>2019-04-12T07:54:06Z</time>
      </trkpt>
      <trkpt lat="42.13195" lon="2.38337">
        <ele>1271</ele>
        <time>2019-04-12T07:54:06Z</time>
      </trkpt>
      <trkpt lat="42.13195" lon="2.38337">
        <ele>1271</ele>
        <time>2019-04-12T07:54:06Z</time>
      </trkpt>
      <trkpt lat="42.13193" lon="2.38338">
        <ele>1271.4</ele>
        <time>2019-04-12T07:54:07Z</time>
      </trkpt>
      <trkpt lat="42.13192" lon="2.38337">
        <ele>1271.4</ele>
        <time>2019-04-12T07:54:08Z</time>
      </trkpt>
      <trkpt lat="42.13191" lon="2.38336">
        <ele>1271.6</ele>
        <time>2019-04-12T07:54:08Z</time>
      </trkpt>
      <trkpt lat="42.1319" lon="2.38335">
        <ele>1271.9</ele>
        <time>2019-04-12T07:54:09Z</time>
      </trkpt>
      <trkpt lat="42.1319" lon="2.38335">
        <ele>1272.1</ele>
        <time>2019-04-12T07:54:09Z</time>
      </trkpt>
      <trkpt lat="42.13189" lon="2.38333">
        <ele>1272.5</ele>
        <time>2019-04-12T07:54:09Z</time>
      </trkpt>
      <trkpt lat="42.13188" lon="2.38331">
        <ele>1272.9</ele>
        <time>2019-04-12T07:54:10Z</time>
      </trkpt>
      <trkpt lat="42.13188" lon="2.38324">
        <ele>1272.4</ele>
        <time>2019-04-12T07:54:12Z</time>
      </trkpt>
      <trkpt lat="42.13188" lon="2.38323">
        <ele>1272.5</ele>
        <time>2019-04-12T07:54:13Z</time>
      </trkpt>
      <trkpt lat="42.13186" lon="2.38329">
        <ele>1272.4</ele>
        <time>2019-04-12T07:54:15Z</time>
      </trkpt>
      <trkpt lat="42.13186" lon="2.38328">
        <ele>1272.5</ele>
        <time>2019-04-12T07:54:15Z</time>
      </trkpt>
      <trkpt lat="42.13189" lon="2.38326">
        <ele>1272.8</ele>
        <time>2019-04-12T07:54:16Z</time>
      </trkpt>
      <trkpt lat="42.1319" lon="2.38327">
        <ele>1273</ele>
        <time>2019-04-12T07:54:17Z</time>
      </trkpt>
      <trkpt lat="42.1319" lon="2.38332">
        <ele>1273</ele>
        <time>2019-04-12T07:54:18Z</time>
      </trkpt>
      <trkpt lat="42.13182" lon="2.38335">
        <ele>1273.2</ele>
        <time>2019-04-12T07:54:22Z</time>
      </trkpt>
      <trkpt lat="42.13177" lon="2.38327">
        <ele>1273.1</ele>
        <time>2019-04-12T07:54:25Z</time>
      </trkpt>
      <trkpt lat="42.13176" lon="2.38323">
        <ele>1273</ele>
        <time>2019-04-12T07:54:26Z</time>
      </trkpt>
      <trkpt lat="42.13183" lon="2.38321">
        <ele>1273.2</ele>
        <time>2019-04-12T07:54:29Z</time>
      </trkpt>
      <trkpt lat="42.13184" lon="2.3832">
        <ele>1273.5</ele>
        <time>2019-04-12T07:54:30Z</time>
      </trkpt>
      <trkpt lat="42.13184" lon="2.38319">
        <ele>1273.5</ele>
        <time>2019-04-12T07:54:30Z</time>
      </trkpt>
      <trkpt lat="42.13185" lon="2.38318">
        <ele>1273.5</ele>
        <time>2019-04-12T07:54:30Z</time>
      </trkpt>
      <trkpt lat="42.13187" lon="2.38316">
        <ele>1274.2</ele>
        <time>2019-04-12T07:54:31Z</time>
      </trkpt>
      <trkpt lat="42.13188" lon="2.38313">
        <ele>1274.5</ele>
        <time>2019-04-12T07:54:32Z</time>
      </trkpt>
      <trkpt lat="42.13188" lon="2.38312">
        <ele>1274.8</ele>
        <time>2019-04-12T07:54:33Z</time>
      </trkpt>
      <trkpt lat="42.13188" lon="2.3831">
        <ele>1275.8</ele>
        <time>2019-04-12T07:54:33Z</time>
      </trkpt>
      <trkpt lat="42.13188" lon="2.3831">
        <ele>1276</ele>
        <time>2019-04-12T07:54:33Z</time>
      </trkpt>
      <trkpt lat="42.13186" lon="2.38309">
        <ele>1276.1</ele>
        <time>2019-04-12T07:54:34Z</time>
      </trkpt>
      <trkpt lat="42.13186" lon="2.38313">
        <ele>1276</ele>
        <time>2019-04-12T07:54:35Z</time>
      </trkpt>
      <trkpt lat="42.13184" lon="2.38317">
        <ele>1276.9</ele>
        <time>2019-04-12T07:54:36Z</time>
      </trkpt>
      <trkpt lat="42.13183" lon="2.38321">
        <ele>1277.9</ele>
        <time>2019-04-12T07:54:38Z</time>
      </trkpt>
      <trkpt lat="42.13184" lon="2.38322">
        <ele>1278.1</ele>
        <time>2019-04-12T07:54:38Z</time>
      </trkpt>
      <trkpt lat="42.13185" lon="2.38317">
        <ele>1278.6</ele>
        <time>2019-04-12T07:54:39Z</time>
      </trkpt>
      <trkpt lat="42.13186" lon="2.38319">
        <ele>1278.5</ele>
        <time>2019-04-12T07:54:40Z</time>
      </trkpt>
      <trkpt lat="42.13184" lon="2.38322">
        <ele>1278.5</ele>
        <time>2019-04-12T07:54:41Z</time>
      </trkpt>
      <trkpt lat="42.13185" lon="2.38321">
        <ele>1278.6</ele>
        <time>2019-04-12T07:54:41Z</time>
      </trkpt>
      <trkpt lat="42.13185" lon="2.38319">
        <ele>1279</ele>
        <time>2019-04-12T07:54:42Z</time>
      </trkpt>
      <trkpt lat="42.1318" lon="2.38318">
        <ele>1279.4</ele>
        <time>2019-04-12T07:54:44Z</time>
      </trkpt>
      <trkpt lat="42.13183" lon="2.38309">
        <ele>1280</ele>
        <time>2019-04-12T07:54:47Z</time>
      </trkpt>
      <trkpt lat="42.13183" lon="2.38307">
        <ele>1280.1</ele>
        <time>2019-04-12T07:54:47Z</time>
      </trkpt>
      <trkpt lat="42.13186" lon="2.383">
        <ele>1281</ele>
        <time>2019-04-12T07:54:50Z</time>
      </trkpt>
      <trkpt lat="42.13187" lon="2.38302">
        <ele>1281.2</ele>
        <time>2019-04-12T07:54:50Z</time>
      </trkpt>
      <trkpt lat="42.13188" lon="2.38304">
        <ele>1281.6</ele>
        <time>2019-04-12T07:54:51Z</time>
      </trkpt>
      <trkpt lat="42.13189" lon="2.38304">
        <ele>1281.6</ele>
        <time>2019-04-12T07:54:52Z</time>
      </trkpt>
      <trkpt lat="42.13192" lon="2.38303">
        <ele>1281.6</ele>
        <time>2019-04-12T07:54:53Z</time>
      </trkpt>
      <trkpt lat="42.13198" lon="2.38298">
        <ele>1282</ele>
        <time>2019-04-12T07:54:55Z</time>
      </trkpt>
      <trkpt lat="42.13199" lon="2.38297">
        <ele>1282.1</ele>
        <time>2019-04-12T07:54:56Z</time>
      </trkpt>
      <trkpt lat="42.13201" lon="2.38297">
        <ele>1282.1</ele>
        <time>2019-04-12T07:54:57Z</time>
      </trkpt>
      <trkpt lat="42.13202" lon="2.38298">
        <ele>1282.5</ele>
        <time>2019-04-12T07:54:57Z</time>
      </trkpt>
      <trkpt lat="42.13197" lon="2.38305">
        <ele>1282.5</ele>
        <time>2019-04-12T07:55:00Z</time>
      </trkpt>
      <trkpt lat="42.13197" lon="2.38305">
        <ele>1282.8</ele>
        <time>2019-04-12T07:55:00Z</time>
      </trkpt>
      <trkpt lat="42.13196" lon="2.38305">
        <ele>1283.1</ele>
        <time>2019-04-12T07:55:01Z</time>
      </trkpt>
      <trkpt lat="42.13194" lon="2.38304">
        <ele>1283.4</ele>
        <time>2019-04-12T07:55:01Z</time>
      </trkpt>
      <trkpt lat="42.1319" lon="2.38304">
        <ele>1283.8</ele>
        <time>2019-04-12T07:55:03Z</time>
      </trkpt>
      <trkpt lat="42.13186" lon="2.38303">
        <ele>1284.5</ele>
        <time>2019-04-12T07:55:04Z</time>
      </trkpt>
      <trkpt lat="42.13182" lon="2.38304">
        <ele>1285.5</ele>
        <time>2019-04-12T07:55:06Z</time>
      </trkpt>
      <trkpt lat="42.1318" lon="2.38308">
        <ele>1286.6</ele>
        <time>2019-04-12T07:55:08Z</time>
      </trkpt>
      <trkpt lat="42.1318" lon="2.38309">
        <ele>1286.9</ele>
        <time>2019-04-12T07:55:08Z</time>
      </trkpt>
      <trkpt lat="42.13181" lon="2.38312">
        <ele>1287.1</ele>
        <time>2019-04-12T07:55:09Z</time>
      </trkpt>
      <trkpt lat="42.13182" lon="2.38314">
        <ele>1287.4</ele>
        <time>2019-04-12T07:55:10Z</time>
      </trkpt>
      <trkpt lat="42.13179" lon="2.38317">
        <ele>1287.5</ele>
        <time>2019-04-12T07:55:11Z</time>
      </trkpt>
      <trkpt lat="42.13178" lon="2.38317">
        <ele>1287.5</ele>
        <time>2019-04-12T07:55:12Z</time>
      </trkpt>
      <trkpt lat="42.13176" lon="2.38317">
        <ele>1287.8</ele>
        <time>2019-04-12T07:55:12Z</time>
      </trkpt>
      <trkpt lat="42.13172" lon="2.3832">
        <ele>1288.5</ele>
        <time>2019-04-12T07:55:14Z</time>
      </trkpt>
      <trkpt lat="42.13171" lon="2.38321">
        <ele>1288.9</ele>
        <time>2019-04-12T07:55:15Z</time>
      </trkpt>
      <trkpt lat="42.13171" lon="2.38326">
        <ele>1289.6</ele>
        <time>2019-04-12T07:55:16Z</time>
      </trkpt>
      <trkpt lat="42.13171" lon="2.38327">
        <ele>1289.9</ele>
        <time>2019-04-12T07:55:16Z</time>
      </trkpt>
      <trkpt lat="42.1317" lon="2.38327">
        <ele>1290.1</ele>
        <time>2019-04-12T07:55:17Z</time>
      </trkpt>
      <trkpt lat="42.13169" lon="2.38327">
        <ele>1290.1</ele>
        <time>2019-04-12T07:55:17Z</time>
      </trkpt>
      <trkpt lat="42.13166" lon="2.38328">
        <ele>1290.5</ele>
        <time>2019-04-12T07:55:18Z</time>
      </trkpt>
      <trkpt lat="42.13161" lon="2.38327">
        <ele>1290.8</ele>
        <time>2019-04-12T07:55:20Z</time>
      </trkpt>
      <trkpt lat="42.13157" lon="2.38326">
        <ele>1291.5</ele>
        <time>2019-04-12T07:55:22Z</time>
      </trkpt>
      <trkpt lat="42.13156" lon="2.38327">
        <ele>1292.1</ele>
        <time>2019-04-12T07:55:22Z</time>
      </trkpt>
      <trkpt lat="42.13156" lon="2.38327">
        <ele>1292</ele>
        <time>2019-04-12T07:55:23Z</time>
      </trkpt>
      <trkpt lat="42.13154" lon="2.38327">
        <ele>1292.5</ele>
        <time>2019-04-12T07:55:23Z</time>
      </trkpt>
      <trkpt lat="42.13154" lon="2.38327">
        <ele>1293.1</ele>
        <time>2019-04-12T07:55:23Z</time>
      </trkpt>
      <trkpt lat="42.13152" lon="2.38327">
        <ele>1293.5</ele>
        <time>2019-04-12T07:55:24Z</time>
      </trkpt>
      <trkpt lat="42.1315" lon="2.38327">
        <ele>1294</ele>
        <time>2019-04-12T07:55:25Z</time>
      </trkpt>
      <trkpt lat="42.13148" lon="2.38327">
        <ele>1294.5</ele>
        <time>2019-04-12T07:55:26Z</time>
      </trkpt>
      <trkpt lat="42.13148" lon="2.38326">
        <ele>1295.5</ele>
        <time>2019-04-12T07:55:26Z</time>
      </trkpt>
      <trkpt lat="42.13147" lon="2.38321">
        <ele>1296.5</ele>
        <time>2019-04-12T07:55:27Z</time>
      </trkpt>
      <trkpt lat="42.13147" lon="2.3832">
        <ele>1297.2</ele>
        <time>2019-04-12T07:55:28Z</time>
      </trkpt>
      <trkpt lat="42.13147" lon="2.3832">
        <ele>1297.4</ele>
        <time>2019-04-12T07:55:28Z</time>
      </trkpt>
      <trkpt lat="42.13147" lon="2.38319">
        <ele>1297.6</ele>
        <time>2019-04-12T07:55:28Z</time>
      </trkpt>
      <trkpt lat="42.13147" lon="2.38319">
        <ele>1298.5</ele>
        <time>2019-04-12T07:55:28Z</time>
      </trkpt>
      <trkpt lat="42.13147" lon="2.38319">
        <ele>1298.8</ele>
        <time>2019-04-12T07:55:28Z</time>
      </trkpt>
      <trkpt lat="42.13143" lon="2.3832">
        <ele>1299.8</ele>
        <time>2019-04-12T07:55:30Z</time>
      </trkpt>
      <trkpt lat="42.13142" lon="2.38321">
        <ele>1300</ele>
        <time>2019-04-12T07:55:30Z</time>
      </trkpt>
      <trkpt lat="42.13139" lon="2.38322">
        <ele>1300.5</ele>
        <time>2019-04-12T07:55:31Z</time>
      </trkpt>
      <trkpt lat="42.13139" lon="2.38322">
        <ele>1300.8</ele>
        <time>2019-04-12T07:55:31Z</time>
      </trkpt>
      <trkpt lat="42.1314" lon="2.38322">
        <ele>1301</ele>
        <time>2019-04-12T07:55:32Z</time>
      </trkpt>
      <trkpt lat="42.1314" lon="2.38323">
        <ele>1301.2</ele>
        <time>2019-04-12T07:55:32Z</time>
      </trkpt>
      <trkpt lat="42.13142" lon="2.38325">
        <ele>1302.1</ele>
        <time>2019-04-12T07:55:33Z</time>
      </trkpt>
      <trkpt lat="42.13141" lon="2.38325">
        <ele>1302.1</ele>
        <time>2019-04-12T07:55:33Z</time>
      </trkpt>
      <trkpt lat="42.13142" lon="2.38325">
        <ele>1303.1</ele>
        <time>2019-04-12T07:55:33Z</time>
      </trkpt>
      <trkpt lat="42.13143" lon="2.38329">
        <ele>1304.1</ele>
        <time>2019-04-12T07:55:34Z</time>
      </trkpt>
      <trkpt lat="42.13143" lon="2.38329">
        <ele>1304</ele>
        <time>2019-04-12T07:55:34Z</time>
      </trkpt>
      <trkpt lat="42.13143" lon="2.38328">
        <ele>1304.4</ele>
        <time>2019-04-12T07:55:35Z</time>
      </trkpt>
      <trkpt lat="42.13143" lon="2.3833">
        <ele>1305.4</ele>
        <time>2019-04-12T07:55:35Z</time>
      </trkpt>
      <trkpt lat="42.13145" lon="2.38333">
        <ele>1306.5</ele>
        <time>2019-04-12T07:55:36Z</time>
      </trkpt>
      <trkpt lat="42.13144" lon="2.38337">
        <ele>1307.5</ele>
        <time>2019-04-12T07:55:38Z</time>
      </trkpt>
      <trkpt lat="42.13143" lon="2.38342">
        <ele>1308.5</ele>
        <time>2019-04-12T07:55:39Z</time>
      </trkpt>
      <trkpt lat="42.13144" lon="2.38342">
        <ele>1308.6</ele>
        <time>2019-04-12T07:55:39Z</time>
      </trkpt>
      <trkpt lat="42.13145" lon="2.38342">
        <ele>1309.1</ele>
        <time>2019-04-12T07:55:40Z</time>
      </trkpt>
      <trkpt lat="42.13147" lon="2.38342">
        <ele>1309.5</ele>
        <time>2019-04-12T07:55:40Z</time>
      </trkpt>
      <trkpt lat="42.13146" lon="2.38342">
        <ele>1309.8</ele>
        <time>2019-04-12T07:55:40Z</time>
      </trkpt>
      <trkpt lat="42.13145" lon="2.38344">
        <ele>1310.9</ele>
        <time>2019-04-12T07:55:41Z</time>
      </trkpt>
      <trkpt lat="42.13143" lon="2.38341">
        <ele>1311.6</ele>
        <time>2019-04-12T07:55:42Z</time>
      </trkpt>
      <trkpt lat="42.13144" lon="2.3834">
        <ele>1311.8</ele>
        <time>2019-04-12T07:55:43Z</time>
      </trkpt>
      <trkpt lat="42.13144" lon="2.38342">
        <ele>1311.8</ele>
        <time>2019-04-12T07:55:43Z</time>
      </trkpt>
      <trkpt lat="42.13141" lon="2.38346">
        <ele>1311.8</ele>
        <time>2019-04-12T07:55:45Z</time>
      </trkpt>
      <trkpt lat="42.13137" lon="2.38352">
        <ele>1312.9</ele>
        <time>2019-04-12T07:55:47Z</time>
      </trkpt>
      <trkpt lat="42.13136" lon="2.38352">
        <ele>1312.8</ele>
        <time>2019-04-12T07:55:48Z</time>
      </trkpt>
      <trkpt lat="42.13135" lon="2.38353">
        <ele>1313</ele>
        <time>2019-04-12T07:55:48Z</time>
      </trkpt>
      <trkpt lat="42.13127" lon="2.38358">
        <ele>1314.1</ele>
        <time>2019-04-12T07:55:52Z</time>
      </trkpt>
      <trkpt lat="42.13126" lon="2.38359">
        <ele>1314.1</ele>
        <time>2019-04-12T07:55:52Z</time>
      </trkpt>
      <trkpt lat="42.13124" lon="2.38358">
        <ele>1314.6</ele>
        <time>2019-04-12T07:55:53Z</time>
      </trkpt>
      <trkpt lat="42.13121" lon="2.38359">
        <ele>1315.2</ele>
        <time>2019-04-12T07:55:54Z</time>
      </trkpt>
      <trkpt lat="42.13119" lon="2.3836">
        <ele>1315.6</ele>
        <time>2019-04-12T07:55:55Z</time>
      </trkpt>
      <trkpt lat="42.13118" lon="2.38361">
        <ele>1315.6</ele>
        <time>2019-04-12T07:55:55Z</time>
      </trkpt>
      <trkpt lat="42.13115" lon="2.38364">
        <ele>1316.1</ele>
        <time>2019-04-12T07:55:57Z</time>
      </trkpt>
      <trkpt lat="42.13112" lon="2.38371">
        <ele>1316.5</ele>
        <time>2019-04-12T07:55:59Z</time>
      </trkpt>
      <trkpt lat="42.13113" lon="2.38373">
        <ele>1317</ele>
        <time>2019-04-12T07:56:00Z</time>
      </trkpt>
      <trkpt lat="42.13113" lon="2.38375">
        <ele>1317.4</ele>
        <time>2019-04-12T07:56:01Z</time>
      </trkpt>
      <trkpt lat="42.1311" lon="2.38376">
        <ele>1318.1</ele>
        <time>2019-04-12T07:56:02Z</time>
      </trkpt>
      <trkpt lat="42.13108" lon="2.38378">
        <ele>1318.2</ele>
        <time>2019-04-12T07:56:03Z</time>
      </trkpt>
      <trkpt lat="42.13108" lon="2.38379">
        <ele>1318.1</ele>
        <time>2019-04-12T07:56:03Z</time>
      </trkpt>
      <trkpt lat="42.13107" lon="2.3838">
        <ele>1318.5</ele>
        <time>2019-04-12T07:56:03Z</time>
      </trkpt>
      <trkpt lat="42.13105" lon="2.38381">
        <ele>1319.1</ele>
        <time>2019-04-12T07:56:04Z</time>
      </trkpt>
      <trkpt lat="42.13104" lon="2.38382">
        <ele>1319.2</ele>
        <time>2019-04-12T07:56:05Z</time>
      </trkpt>
      <trkpt lat="42.13103" lon="2.38383">
        <ele>1319.5</ele>
        <time>2019-04-12T07:56:05Z</time>
      </trkpt>
      <trkpt lat="42.13102" lon="2.38384">
        <ele>1320.2</ele>
        <time>2019-04-12T07:56:06Z</time>
      </trkpt>
      <trkpt lat="42.131" lon="2.38385">
        <ele>1320.4</ele>
        <time>2019-04-12T07:56:07Z</time>
      </trkpt>
      <trkpt lat="42.13099" lon="2.38386">
        <ele>1320.8</ele>
        <time>2019-04-12T07:56:07Z</time>
      </trkpt>
      <trkpt lat="42.13098" lon="2.38387">
        <ele>1321</ele>
        <time>2019-04-12T07:56:08Z</time>
      </trkpt>
      <trkpt lat="42.13097" lon="2.38388">
        <ele>1321.4</ele>
        <time>2019-04-12T07:56:08Z</time>
      </trkpt>
      <trkpt lat="42.13096" lon="2.3839">
        <ele>1322.1</ele>
        <time>2019-04-12T07:56:09Z</time>
      </trkpt>
      <trkpt lat="42.13091" lon="2.38391">
        <ele>1323.1</ele>
        <time>2019-04-12T07:56:11Z</time>
      </trkpt>
      <trkpt lat="42.13089" lon="2.38392">
        <ele>1323.2</ele>
        <time>2019-04-12T07:56:12Z</time>
      </trkpt>
      <trkpt lat="42.13087" lon="2.38392">
        <ele>1323.8</ele>
        <time>2019-04-12T07:56:13Z</time>
      </trkpt>
      <trkpt lat="42.13084" lon="2.38393">
        <ele>1324.1</ele>
        <time>2019-04-12T07:56:14Z</time>
      </trkpt>
      <trkpt lat="42.1308" lon="2.38394">
        <ele>1324.8</ele>
        <time>2019-04-12T07:56:15Z</time>
      </trkpt>
      <trkpt lat="42.13078" lon="2.38397">
        <ele>1325.5</ele>
        <time>2019-04-12T07:56:16Z</time>
      </trkpt>
      <trkpt lat="42.13075" lon="2.38398">
        <ele>1325.6</ele>
        <time>2019-04-12T07:56:18Z</time>
      </trkpt>
      <trkpt lat="42.13073" lon="2.38398">
        <ele>1325.8</ele>
        <time>2019-04-12T07:56:18Z</time>
      </trkpt>
      <trkpt lat="42.13072" lon="2.38398">
        <ele>1326</ele>
        <time>2019-04-12T07:56:19Z</time>
      </trkpt>
      <trkpt lat="42.13071" lon="2.38399">
        <ele>1326.4</ele>
        <time>2019-04-12T07:56:20Z</time>
      </trkpt>
      <trkpt lat="42.13069" lon="2.38402">
        <ele>1327.1</ele>
        <time>2019-04-12T07:56:21Z</time>
      </trkpt>
      <trkpt lat="42.13068" lon="2.38402">
        <ele>1327.6</ele>
        <time>2019-04-12T07:56:21Z</time>
      </trkpt>
      <trkpt lat="42.13065" lon="2.38403">
        <ele>1328.6</ele>
        <time>2019-04-12T07:56:22Z</time>
      </trkpt>
      <trkpt lat="42.13065" lon="2.38404">
        <ele>1328.8</ele>
        <time>2019-04-12T07:56:22Z</time>
      </trkpt>
      <trkpt lat="42.13064" lon="2.38404">
        <ele>1329.1</ele>
        <time>2019-04-12T07:56:23Z</time>
      </trkpt>
      <trkpt lat="42.13063" lon="2.38405">
        <ele>1329.4</ele>
        <time>2019-04-12T07:56:23Z</time>
      </trkpt>
      <trkpt lat="42.13061" lon="2.38406">
        <ele>1329.6</ele>
        <time>2019-04-12T07:56:24Z</time>
      </trkpt>
      <trkpt lat="42.1306" lon="2.38407">
        <ele>1330</ele>
        <time>2019-04-12T07:56:25Z</time>
      </trkpt>
      <trkpt lat="42.13059" lon="2.38408">
        <ele>1330.1</ele>
        <time>2019-04-12T07:56:25Z</time>
      </trkpt>
      <trkpt lat="42.13057" lon="2.38409">
        <ele>1330.6</ele>
        <time>2019-04-12T07:56:26Z</time>
      </trkpt>
      <trkpt lat="42.13055" lon="2.38412">
        <ele>1331.1</ele>
        <time>2019-04-12T07:56:27Z</time>
      </trkpt>
      <trkpt lat="42.1305" lon="2.38417">
        <ele>1332.1</ele>
        <time>2019-04-12T07:56:29Z</time>
      </trkpt>
      <trkpt lat="42.13049" lon="2.38418">
        <ele>1332.2</ele>
        <time>2019-04-12T07:56:30Z</time>
      </trkpt>
      <trkpt lat="42.13044" lon="2.3842">
        <ele>1332.9</ele>
        <time>2019-04-12T07:56:32Z</time>
      </trkpt>
      <trkpt lat="42.13043" lon="2.38421">
        <ele>1333.1</ele>
        <time>2019-04-12T07:56:33Z</time>
      </trkpt>
      <trkpt lat="42.13042" lon="2.38421">
        <ele>1333.4</ele>
        <time>2019-04-12T07:56:33Z</time>
      </trkpt>
      <trkpt lat="42.1304" lon="2.38422">
        <ele>1334.1</ele>
        <time>2019-04-12T07:56:34Z</time>
      </trkpt>
      <trkpt lat="42.13039" lon="2.38421">
        <ele>1334.5</ele>
        <time>2019-04-12T07:56:34Z</time>
      </trkpt>
      <trkpt lat="42.13039" lon="2.38421">
        <ele>1334.5</ele>
        <time>2019-04-12T07:56:35Z</time>
      </trkpt>
      <trkpt lat="42.13039" lon="2.3842">
        <ele>1334.8</ele>
        <time>2019-04-12T07:56:35Z</time>
      </trkpt>
      <trkpt lat="42.13038" lon="2.38421">
        <ele>1335</ele>
        <time>2019-04-12T07:56:35Z</time>
      </trkpt>
      <trkpt lat="42.13038" lon="2.38423">
        <ele>1335.5</ele>
        <time>2019-04-12T07:56:36Z</time>
      </trkpt>
      <trkpt lat="42.13038" lon="2.38423">
        <ele>1336</ele>
        <time>2019-04-12T07:56:36Z</time>
      </trkpt>
      <trkpt lat="42.13037" lon="2.38424">
        <ele>1336.5</ele>
        <time>2019-04-12T07:56:36Z</time>
      </trkpt>
      <trkpt lat="42.13037" lon="2.38424">
        <ele>1336.8</ele>
        <time>2019-04-12T07:56:36Z</time>
      </trkpt>
      <trkpt lat="42.13036" lon="2.38427">
        <ele>1337.5</ele>
        <time>2019-04-12T07:56:37Z</time>
      </trkpt>
      <trkpt lat="42.13035" lon="2.38428">
        <ele>1337.9</ele>
        <time>2019-04-12T07:56:37Z</time>
      </trkpt>
      <trkpt lat="42.13033" lon="2.3843">
        <ele>1339.1</ele>
        <time>2019-04-12T07:56:39Z</time>
      </trkpt>
      <trkpt lat="42.13032" lon="2.38431">
        <ele>1339.5</ele>
        <time>2019-04-12T07:56:39Z</time>
      </trkpt>
      <trkpt lat="42.13032" lon="2.38432">
        <ele>1340.1</ele>
        <time>2019-04-12T07:56:39Z</time>
      </trkpt>
      <trkpt lat="42.13031" lon="2.38434">
        <ele>1341</ele>
        <time>2019-04-12T07:56:40Z</time>
      </trkpt>
      <trkpt lat="42.13029" lon="2.38436">
        <ele>1341.1</ele>
        <time>2019-04-12T07:56:41Z</time>
      </trkpt>
      <trkpt lat="42.13029" lon="2.38436">
        <ele>1341.5</ele>
        <time>2019-04-12T07:56:41Z</time>
      </trkpt>
      <trkpt lat="42.13028" lon="2.38437">
        <ele>1341.9</ele>
        <time>2019-04-12T07:56:42Z</time>
      </trkpt>
      <trkpt lat="42.13026" lon="2.38437">
        <ele>1342</ele>
        <time>2019-04-12T07:56:42Z</time>
      </trkpt>
      <trkpt lat="42.13025" lon="2.38437">
        <ele>1342.1</ele>
        <time>2019-04-12T07:56:43Z</time>
      </trkpt>
      <trkpt lat="42.13023" lon="2.38437">
        <ele>1342.5</ele>
        <time>2019-04-12T07:56:43Z</time>
      </trkpt>
      <trkpt lat="42.13021" lon="2.38437">
        <ele>1343.2</ele>
        <time>2019-04-12T07:56:44Z</time>
      </trkpt>
      <trkpt lat="42.1302" lon="2.38437">
        <ele>1343.4</ele>
        <time>2019-04-12T07:56:45Z</time>
      </trkpt>
      <trkpt lat="42.13018" lon="2.38439">
        <ele>1344.1</ele>
        <time>2019-04-12T07:56:46Z</time>
      </trkpt>
      <trkpt lat="42.13016" lon="2.38439">
        <ele>1344.4</ele>
        <time>2019-04-12T07:56:47Z</time>
      </trkpt>
      <trkpt lat="42.13013" lon="2.38438">
        <ele>1345.4</ele>
        <time>2019-04-12T07:56:48Z</time>
      </trkpt>
      <trkpt lat="42.13014" lon="2.38438">
        <ele>1345.5</ele>
        <time>2019-04-12T07:56:48Z</time>
      </trkpt>
      <trkpt lat="42.13013" lon="2.38439">
        <ele>1345.9</ele>
        <time>2019-04-12T07:56:48Z</time>
      </trkpt>
      <trkpt lat="42.13012" lon="2.38441">
        <ele>1346.2</ele>
        <time>2019-04-12T07:56:48Z</time>
      </trkpt>
      <trkpt lat="42.1301" lon="2.38441">
        <ele>1346.8</ele>
        <time>2019-04-12T07:56:49Z</time>
      </trkpt>
      <trkpt lat="42.13009" lon="2.38442">
        <ele>1347.1</ele>
        <time>2019-04-12T07:56:50Z</time>
      </trkpt>
      <trkpt lat="42.13007" lon="2.38443">
        <ele>1347.8</ele>
        <time>2019-04-12T07:56:51Z</time>
      </trkpt>
      <trkpt lat="42.13006" lon="2.38443">
        <ele>1348.1</ele>
        <time>2019-04-12T07:56:51Z</time>
      </trkpt>
      <trkpt lat="42.13002" lon="2.38447">
        <ele>1349.1</ele>
        <time>2019-04-12T07:56:53Z</time>
      </trkpt>
      <trkpt lat="42.12998" lon="2.38448">
        <ele>1350.1</ele>
        <time>2019-04-12T07:56:55Z</time>
      </trkpt>
      <trkpt lat="42.12996" lon="2.38448">
        <ele>1350.2</ele>
        <time>2019-04-12T07:56:56Z</time>
      </trkpt>
      <trkpt lat="42.12995" lon="2.38448">
        <ele>1350.8</ele>
        <time>2019-04-12T07:56:56Z</time>
      </trkpt>
      <trkpt lat="42.12993" lon="2.3845">
        <ele>1351.5</ele>
        <time>2019-04-12T07:56:57Z</time>
      </trkpt>
      <trkpt lat="42.12991" lon="2.38451">
        <ele>1352</ele>
        <time>2019-04-12T07:56:58Z</time>
      </trkpt>
      <trkpt lat="42.1299" lon="2.38452">
        <ele>1352.4</ele>
        <time>2019-04-12T07:56:58Z</time>
      </trkpt>
      <trkpt lat="42.1299" lon="2.38453">
        <ele>1353.1</ele>
        <time>2019-04-12T07:56:59Z</time>
      </trkpt>
      <trkpt lat="42.12991" lon="2.38452">
        <ele>1353.5</ele>
        <time>2019-04-12T07:56:59Z</time>
      </trkpt>
      <trkpt lat="42.1299" lon="2.38452">
        <ele>1354.4</ele>
        <time>2019-04-12T07:56:59Z</time>
      </trkpt>
      <trkpt lat="42.12989" lon="2.38453">
        <ele>1354.8</ele>
        <time>2019-04-12T07:57:00Z</time>
      </trkpt>
      <trkpt lat="42.12989" lon="2.38453">
        <ele>1355</ele>
        <time>2019-04-12T07:57:00Z</time>
      </trkpt>
      <trkpt lat="42.12987" lon="2.38453">
        <ele>1355.2</ele>
        <time>2019-04-12T07:57:01Z</time>
      </trkpt>
      <trkpt lat="42.12984" lon="2.38455">
        <ele>1356.1</ele>
        <time>2019-04-12T07:57:02Z</time>
      </trkpt>
      <trkpt lat="42.12983" lon="2.38458">
        <ele>1356.5</ele>
        <time>2019-04-12T07:57:03Z</time>
      </trkpt>
      <trkpt lat="42.1298" lon="2.3846">
        <ele>1357.1</ele>
        <time>2019-04-12T07:57:04Z</time>
      </trkpt>
      <trkpt lat="42.12974" lon="2.38461">
        <ele>1358</ele>
        <time>2019-04-12T07:57:06Z</time>
      </trkpt>
      <trkpt lat="42.12973" lon="2.38461">
        <ele>1358.1</ele>
        <time>2019-04-12T07:57:07Z</time>
      </trkpt>
      <trkpt lat="42.12972" lon="2.38461">
        <ele>1358.1</ele>
        <time>2019-04-12T07:57:07Z</time>
      </trkpt>
      <trkpt lat="42.1297" lon="2.38459">
        <ele>1358.8</ele>
        <time>2019-04-12T07:57:08Z</time>
      </trkpt>
      <trkpt lat="42.1297" lon="2.38459">
        <ele>1359.5</ele>
        <time>2019-04-12T07:57:08Z</time>
      </trkpt>
      <trkpt lat="42.1297" lon="2.38459">
        <ele>1359.8</ele>
        <time>2019-04-12T07:57:09Z</time>
      </trkpt>
      <trkpt lat="42.12968" lon="2.38461">
        <ele>1360.4</ele>
        <time>2019-04-12T07:57:09Z</time>
      </trkpt>
      <trkpt lat="42.12968" lon="2.38462">
        <ele>1361</ele>
        <time>2019-04-12T07:57:10Z</time>
      </trkpt>
      <trkpt lat="42.12968" lon="2.38463">
        <ele>1361.4</ele>
        <time>2019-04-12T07:57:10Z</time>
      </trkpt>
      <trkpt lat="42.12968" lon="2.38465">
        <ele>1362.1</ele>
        <time>2019-04-12T07:57:11Z</time>
      </trkpt>
      <trkpt lat="42.12968" lon="2.38467">
        <ele>1362.8</ele>
        <time>2019-04-12T07:57:11Z</time>
      </trkpt>
      <trkpt lat="42.12964" lon="2.38471">
        <ele>1363.6</ele>
        <time>2019-04-12T07:57:13Z</time>
      </trkpt>
      <trkpt lat="42.12961" lon="2.38471">
        <ele>1363.8</ele>
        <time>2019-04-12T07:57:14Z</time>
      </trkpt>
      <trkpt lat="42.12955" lon="2.38474">
        <ele>1364.8</ele>
        <time>2019-04-12T07:57:17Z</time>
      </trkpt>
      <trkpt lat="42.12954" lon="2.38475">
        <ele>1365</ele>
        <time>2019-04-12T07:57:17Z</time>
      </trkpt>
      <trkpt lat="42.12949" lon="2.38477">
        <ele>1366.1</ele>
        <time>2019-04-12T07:57:19Z</time>
      </trkpt>
      <trkpt lat="42.12946" lon="2.38477">
        <ele>1366.6</ele>
        <time>2019-04-12T07:57:21Z</time>
      </trkpt>
      <trkpt lat="42.12944" lon="2.38478">
        <ele>1366.5</ele>
        <time>2019-04-12T07:57:21Z</time>
      </trkpt>
      <trkpt lat="42.12939" lon="2.3848">
        <ele>1367</ele>
        <time>2019-04-12T07:57:23Z</time>
      </trkpt>
      <trkpt lat="42.12935" lon="2.3848">
        <ele>1367.9</ele>
        <time>2019-04-12T07:57:25Z</time>
      </trkpt>
      <trkpt lat="42.12934" lon="2.3848">
        <ele>1367.9</ele>
        <time>2019-04-12T07:57:25Z</time>
      </trkpt>
      <trkpt lat="42.12933" lon="2.3848">
        <ele>1368.1</ele>
        <time>2019-04-12T07:57:26Z</time>
      </trkpt>
      <trkpt lat="42.12932" lon="2.3848">
        <ele>1368.2</ele>
        <time>2019-04-12T07:57:26Z</time>
      </trkpt>
      <trkpt lat="42.12931" lon="2.38482">
        <ele>1369.1</ele>
        <time>2019-04-12T07:57:27Z</time>
      </trkpt>
      <trkpt lat="42.12931" lon="2.38482">
        <ele>1369.4</ele>
        <time>2019-04-12T07:57:27Z</time>
      </trkpt>
      <trkpt lat="42.1293" lon="2.38484">
        <ele>1369.6</ele>
        <time>2019-04-12T07:57:28Z</time>
      </trkpt>
      <trkpt lat="42.12927" lon="2.38486">
        <ele>1370.4</ele>
        <time>2019-04-12T07:57:29Z</time>
      </trkpt>
      <trkpt lat="42.12926" lon="2.38486">
        <ele>1370.5</ele>
        <time>2019-04-12T07:57:29Z</time>
      </trkpt>
      <trkpt lat="42.12924" lon="2.38486">
        <ele>1370.5</ele>
        <time>2019-04-12T07:57:30Z</time>
      </trkpt>
      <trkpt lat="42.12922" lon="2.38488">
        <ele>1371</ele>
        <time>2019-04-12T07:57:31Z</time>
      </trkpt>
      <trkpt lat="42.12921" lon="2.38489">
        <ele>1371.1</ele>
        <time>2019-04-12T07:57:32Z</time>
      </trkpt>
      <trkpt lat="42.12919" lon="2.3849">
        <ele>1371.6</ele>
        <time>2019-04-12T07:57:32Z</time>
      </trkpt>
      <trkpt lat="42.12916" lon="2.38491">
        <ele>1372.1</ele>
        <time>2019-04-12T07:57:34Z</time>
      </trkpt>
      <trkpt lat="42.12915" lon="2.38491">
        <ele>1372.5</ele>
        <time>2019-04-12T07:57:34Z</time>
      </trkpt>
      <trkpt lat="42.12913" lon="2.38492">
        <ele>1372.9</ele>
        <time>2019-04-12T07:57:35Z</time>
      </trkpt>
      <trkpt lat="42.12906" lon="2.38496">
        <ele>1373.9</ele>
        <time>2019-04-12T07:57:38Z</time>
      </trkpt>
      <trkpt lat="42.12905" lon="2.38497">
        <ele>1373.8</ele>
        <time>2019-04-12T07:57:38Z</time>
      </trkpt>
      <trkpt lat="42.12905" lon="2.38498">
        <ele>1374.1</ele>
        <time>2019-04-12T07:57:39Z</time>
      </trkpt>
      <trkpt lat="42.12904" lon="2.38499">
        <ele>1374</ele>
        <time>2019-04-12T07:57:39Z</time>
      </trkpt>
      <trkpt lat="42.12904" lon="2.38502">
        <ele>1374.5</ele>
        <time>2019-04-12T07:57:40Z</time>
      </trkpt>
      <trkpt lat="42.12904" lon="2.38502">
        <ele>1374.8</ele>
        <time>2019-04-12T07:57:40Z</time>
      </trkpt>
      <trkpt lat="42.12902" lon="2.38505">
        <ele>1375.1</ele>
        <time>2019-04-12T07:57:41Z</time>
      </trkpt>
      <trkpt lat="42.12902" lon="2.38506">
        <ele>1375.4</ele>
        <time>2019-04-12T07:57:41Z</time>
      </trkpt>
      <trkpt lat="42.12902" lon="2.38506">
        <ele>1375.6</ele>
        <time>2019-04-12T07:57:42Z</time>
      </trkpt>
      <trkpt lat="42.12901" lon="2.38507">
        <ele>1376</ele>
        <time>2019-04-12T07:57:42Z</time>
      </trkpt>
      <trkpt lat="42.129" lon="2.38507">
        <ele>1376.2</ele>
        <time>2019-04-12T07:57:42Z</time>
      </trkpt>
      <trkpt lat="42.12897" lon="2.38509">
        <ele>1376.6</ele>
        <time>2019-04-12T07:57:43Z</time>
      </trkpt>
      <trkpt lat="42.12896" lon="2.3851">
        <ele>1376.9</ele>
        <time>2019-04-12T07:57:44Z</time>
      </trkpt>
      <trkpt lat="42.12894" lon="2.38511">
        <ele>1377.1</ele>
        <time>2019-04-12T07:57:45Z</time>
      </trkpt>
      <trkpt lat="42.12893" lon="2.38512">
        <ele>1377.1</ele>
        <time>2019-04-12T07:57:45Z</time>
      </trkpt>
      <trkpt lat="42.12891" lon="2.38516">
        <ele>1378</ele>
        <time>2019-04-12T07:57:47Z</time>
      </trkpt>
      <trkpt lat="42.1289" lon="2.38517">
        <ele>1378.1</ele>
        <time>2019-04-12T07:57:47Z</time>
      </trkpt>
      <trkpt lat="42.12888" lon="2.38519">
        <ele>1378.5</ele>
        <time>2019-04-12T07:57:48Z</time>
      </trkpt>
      <trkpt lat="42.12884" lon="2.38522">
        <ele>1379.1</ele>
        <time>2019-04-12T07:57:50Z</time>
      </trkpt>
      <trkpt lat="42.12882" lon="2.38522">
        <ele>1379.1</ele>
        <time>2019-04-12T07:57:51Z</time>
      </trkpt>
      <trkpt lat="42.1288" lon="2.38525">
        <ele>1379.9</ele>
        <time>2019-04-12T07:57:52Z</time>
      </trkpt>
      <trkpt lat="42.12878" lon="2.38527">
        <ele>1380.5</ele>
        <time>2019-04-12T07:57:53Z</time>
      </trkpt>
      <trkpt lat="42.12877" lon="2.38529">
        <ele>1380.5</ele>
        <time>2019-04-12T07:57:54Z</time>
      </trkpt>
      <trkpt lat="42.12876" lon="2.38529">
        <ele>1380.9</ele>
        <time>2019-04-12T07:57:54Z</time>
      </trkpt>
      <trkpt lat="42.12873" lon="2.38529">
        <ele>1380.8</ele>
        <time>2019-04-12T07:57:55Z</time>
      </trkpt>
      <trkpt lat="42.12869" lon="2.38528">
        <ele>1381.5</ele>
        <time>2019-04-12T07:57:57Z</time>
      </trkpt>
      <trkpt lat="42.12869" lon="2.38528">
        <ele>1381.6</ele>
        <time>2019-04-12T07:57:57Z</time>
      </trkpt>
      <trkpt lat="42.12868" lon="2.38528">
        <ele>1381.9</ele>
        <time>2019-04-12T07:57:57Z</time>
      </trkpt>
      <trkpt lat="42.12867" lon="2.3853">
        <ele>1382.6</ele>
        <time>2019-04-12T07:57:58Z</time>
      </trkpt>
      <trkpt lat="42.12865" lon="2.38532">
        <ele>1383</ele>
        <time>2019-04-12T07:57:59Z</time>
      </trkpt>
      <trkpt lat="42.12865" lon="2.38532">
        <ele>1383</ele>
        <time>2019-04-12T07:57:59Z</time>
      </trkpt>
      <trkpt lat="42.12865" lon="2.38532">
        <ele>1383.4</ele>
        <time>2019-04-12T07:57:59Z</time>
      </trkpt>
      <trkpt lat="42.12865" lon="2.38532">
        <ele>1383.6</ele>
        <time>2019-04-12T07:57:59Z</time>
      </trkpt>
      <trkpt lat="42.12865" lon="2.38532">
        <ele>1383.9</ele>
        <time>2019-04-12T07:57:59Z</time>
      </trkpt>
      <trkpt lat="42.12865" lon="2.38532">
        <ele>1383.8</ele>
        <time>2019-04-12T07:57:59Z</time>
      </trkpt>
      <trkpt lat="42.12865" lon="2.38531">
        <ele>1384.1</ele>
        <time>2019-04-12T07:57:59Z</time>
      </trkpt>
      <trkpt lat="42.12864" lon="2.38532">
        <ele>1384.5</ele>
        <time>2019-04-12T07:58:00Z</time>
      </trkpt>
      <trkpt lat="42.12864" lon="2.38532">
        <ele>1384.8</ele>
        <time>2019-04-12T07:58:00Z</time>
      </trkpt>
      <trkpt lat="42.12862" lon="2.38536">
        <ele>1385.2</ele>
        <time>2019-04-12T07:58:01Z</time>
      </trkpt>
      <trkpt lat="42.12861" lon="2.38537">
        <ele>1385.5</ele>
        <time>2019-04-12T07:58:02Z</time>
      </trkpt>
      <trkpt lat="42.1286" lon="2.38537">
        <ele>1385.9</ele>
        <time>2019-04-12T07:58:02Z</time>
      </trkpt>
      <trkpt lat="42.12859" lon="2.38537">
        <ele>1386</ele>
        <time>2019-04-12T07:58:02Z</time>
      </trkpt>
      <trkpt lat="42.12855" lon="2.38537">
        <ele>1386.5</ele>
        <time>2019-04-12T07:58:04Z</time>
      </trkpt>
      <trkpt lat="42.12852" lon="2.38538">
        <ele>1387</ele>
        <time>2019-04-12T07:58:05Z</time>
      </trkpt>
      <trkpt lat="42.12848" lon="2.38538">
        <ele>1387.8</ele>
        <time>2019-04-12T07:58:07Z</time>
      </trkpt>
      <trkpt lat="42.12847" lon="2.38539">
        <ele>1388.1</ele>
        <time>2019-04-12T07:58:07Z</time>
      </trkpt>
      <trkpt lat="42.12845" lon="2.38539">
        <ele>1388.5</ele>
        <time>2019-04-12T07:58:08Z</time>
      </trkpt>
      <trkpt lat="42.12845" lon="2.38539">
        <ele>1388.6</ele>
        <time>2019-04-12T07:58:08Z</time>
      </trkpt>
      <trkpt lat="42.12844" lon="2.38539">
        <ele>1389.5</ele>
        <time>2019-04-12T07:58:09Z</time>
      </trkpt>
      <trkpt lat="42.12844" lon="2.3854">
        <ele>1389.6</ele>
        <time>2019-04-12T07:58:09Z</time>
      </trkpt>
      <trkpt lat="42.12843" lon="2.3854">
        <ele>1389.9</ele>
        <time>2019-04-12T07:58:09Z</time>
      </trkpt>
      <trkpt lat="42.12842" lon="2.38543">
        <ele>1390.5</ele>
        <time>2019-04-12T07:58:10Z</time>
      </trkpt>
      <trkpt lat="42.12839" lon="2.38545">
        <ele>1391</ele>
        <time>2019-04-12T07:58:11Z</time>
      </trkpt>
      <trkpt lat="42.12836" lon="2.38546">
        <ele>1391.6</ele>
        <time>2019-04-12T07:58:12Z</time>
      </trkpt>
      <trkpt lat="42.12832" lon="2.38548">
        <ele>1392.5</ele>
        <time>2019-04-12T07:58:14Z</time>
      </trkpt>
      <trkpt lat="42.12828" lon="2.38549">
        <ele>1393.1</ele>
        <time>2019-04-12T07:58:16Z</time>
      </trkpt>
      <trkpt lat="42.12825" lon="2.38549">
        <ele>1393.6</ele>
        <time>2019-04-12T07:58:17Z</time>
      </trkpt>
      <trkpt lat="42.12824" lon="2.38548">
        <ele>1393.9</ele>
        <time>2019-04-12T07:58:18Z</time>
      </trkpt>
      <trkpt lat="42.12822" lon="2.38547">
        <ele>1394.1</ele>
        <time>2019-04-12T07:58:18Z</time>
      </trkpt>
      <trkpt lat="42.1282" lon="2.38548">
        <ele>1394.5</ele>
        <time>2019-04-12T07:58:19Z</time>
      </trkpt>
      <trkpt lat="42.12818" lon="2.3855">
        <ele>1394.9</ele>
        <time>2019-04-12T07:58:20Z</time>
      </trkpt>
      <trkpt lat="42.12815" lon="2.38552">
        <ele>1395.5</ele>
        <time>2019-04-12T07:58:21Z</time>
      </trkpt>
      <trkpt lat="42.12815" lon="2.38552">
        <ele>1395.9</ele>
        <time>2019-04-12T07:58:22Z</time>
      </trkpt>
      <trkpt lat="42.12814" lon="2.38555">
        <ele>1396.5</ele>
        <time>2019-04-12T07:58:22Z</time>
      </trkpt>
      <trkpt lat="42.12813" lon="2.38557">
        <ele>1397.1</ele>
        <time>2019-04-12T07:58:23Z</time>
      </trkpt>
      <trkpt lat="42.12812" lon="2.38557">
        <ele>1397.1</ele>
        <time>2019-04-12T07:58:23Z</time>
      </trkpt>
      <trkpt lat="42.12811" lon="2.38558">
        <ele>1397.5</ele>
        <time>2019-04-12T07:58:24Z</time>
      </trkpt>
      <trkpt lat="42.12808" lon="2.38558">
        <ele>1398.1</ele>
        <time>2019-04-12T07:58:25Z</time>
      </trkpt>
      <trkpt lat="42.12806" lon="2.38558">
        <ele>1398.6</ele>
        <time>2019-04-12T07:58:26Z</time>
      </trkpt>
      <trkpt lat="42.12805" lon="2.38558">
        <ele>1398.5</ele>
        <time>2019-04-12T07:58:26Z</time>
      </trkpt>
      <trkpt lat="42.12801" lon="2.38559">
        <ele>1399.1</ele>
        <time>2019-04-12T07:58:28Z</time>
      </trkpt>
      <trkpt lat="42.12798" lon="2.3856">
        <ele>1398.9</ele>
        <time>2019-04-12T07:58:29Z</time>
      </trkpt>
      <trkpt lat="42.12794" lon="2.3856">
        <ele>1398.8</ele>
        <time>2019-04-12T07:58:31Z</time>
      </trkpt>
      <trkpt lat="42.12792" lon="2.38561">
        <ele>1398.9</ele>
        <time>2019-04-12T07:58:32Z</time>
      </trkpt>
      <trkpt lat="42.12789" lon="2.38569">
        <ele>1398.8</ele>
        <time>2019-04-12T07:58:34Z</time>
      </trkpt>
      <trkpt lat="42.12785" lon="2.38568">
        <ele>1398.4</ele>
        <time>2019-04-12T07:58:35Z</time>
      </trkpt>
      <trkpt lat="42.12777" lon="2.38564">
        <ele>1398.4</ele>
        <time>2019-04-12T07:58:39Z</time>
      </trkpt>
      <trkpt lat="42.12775" lon="2.38564">
        <ele>1398.4</ele>
        <time>2019-04-12T07:58:40Z</time>
      </trkpt>
      <trkpt lat="42.1277" lon="2.38559">
        <ele>1398.8</ele>
        <time>2019-04-12T07:58:42Z</time>
      </trkpt>
      <trkpt lat="42.12767" lon="2.38557">
        <ele>1399</ele>
        <time>2019-04-12T07:58:44Z</time>
      </trkpt>
      <trkpt lat="42.12763" lon="2.38556">
        <ele>1399.5</ele>
        <time>2019-04-12T07:58:45Z</time>
      </trkpt>
      <trkpt lat="42.12761" lon="2.38554">
        <ele>1399.5</ele>
        <time>2019-04-12T07:58:46Z</time>
      </trkpt>
      <trkpt lat="42.12759" lon="2.38553">
        <ele>1399.8</ele>
        <time>2019-04-12T07:58:47Z</time>
      </trkpt>
      <trkpt lat="42.12757" lon="2.38551">
        <ele>1400</ele>
        <time>2019-04-12T07:58:48Z</time>
      </trkpt>
      <trkpt lat="42.12755" lon="2.38549">
        <ele>1400.4</ele>
        <time>2019-04-12T07:58:49Z</time>
      </trkpt>
      <trkpt lat="42.12754" lon="2.38549">
        <ele>1400.5</ele>
        <time>2019-04-12T07:58:49Z</time>
      </trkpt>
      <trkpt lat="42.12753" lon="2.38548">
        <ele>1400.6</ele>
        <time>2019-04-12T07:58:50Z</time>
      </trkpt>
      <trkpt lat="42.12753" lon="2.38548">
        <ele>1400.5</ele>
        <time>2019-04-12T07:58:50Z</time>
      </trkpt>
      <trkpt lat="42.12751" lon="2.38548">
        <ele>1401</ele>
        <time>2019-04-12T07:58:51Z</time>
      </trkpt>
      <trkpt lat="42.12751" lon="2.38548">
        <ele>1401.4</ele>
        <time>2019-04-12T07:58:51Z</time>
      </trkpt>
      <trkpt lat="42.12751" lon="2.38549">
        <ele>1401.8</ele>
        <time>2019-04-12T07:58:51Z</time>
      </trkpt>
      <trkpt lat="42.1275" lon="2.38549">
        <ele>1402.1</ele>
        <time>2019-04-12T07:58:51Z</time>
      </trkpt>
      <trkpt lat="42.1275" lon="2.38549">
        <ele>1402.6</ele>
        <time>2019-04-12T07:58:51Z</time>
      </trkpt>
      <trkpt lat="42.12751" lon="2.3855">
        <ele>1402.8</ele>
        <time>2019-04-12T07:58:51Z</time>
      </trkpt>
      <trkpt lat="42.12751" lon="2.3855">
        <ele>1403</ele>
        <time>2019-04-12T07:58:52Z</time>
      </trkpt>
      <trkpt lat="42.1275" lon="2.38553">
        <ele>1403.4</ele>
        <time>2019-04-12T07:58:52Z</time>
      </trkpt>
      <trkpt lat="42.1275" lon="2.38554">
        <ele>1403.8</ele>
        <time>2019-04-12T07:58:53Z</time>
      </trkpt>
      <trkpt lat="42.12749" lon="2.38555">
        <ele>1404.1</ele>
        <time>2019-04-12T07:58:53Z</time>
      </trkpt>
      <trkpt lat="42.12748" lon="2.38556">
        <ele>1404.1</ele>
        <time>2019-04-12T07:58:54Z</time>
      </trkpt>
      <trkpt lat="42.12747" lon="2.38557">
        <ele>1404.5</ele>
        <time>2019-04-12T07:58:54Z</time>
      </trkpt>
      <trkpt lat="42.12745" lon="2.38558">
        <ele>1405.2</ele>
        <time>2019-04-12T07:58:55Z</time>
      </trkpt>
      <trkpt lat="42.12745" lon="2.38559">
        <ele>1405.5</ele>
        <time>2019-04-12T07:58:55Z</time>
      </trkpt>
      <trkpt lat="42.12744" lon="2.38559">
        <ele>1406.1</ele>
        <time>2019-04-12T07:58:56Z</time>
      </trkpt>
      <trkpt lat="42.12743" lon="2.3856">
        <ele>1406.4</ele>
        <time>2019-04-12T07:58:56Z</time>
      </trkpt>
      <trkpt lat="42.12743" lon="2.3856">
        <ele>1406.5</ele>
        <time>2019-04-12T07:58:56Z</time>
      </trkpt>
      <trkpt lat="42.12742" lon="2.38562">
        <ele>1407</ele>
        <time>2019-04-12T07:58:57Z</time>
      </trkpt>
      <trkpt lat="42.12742" lon="2.38564">
        <ele>1407.5</ele>
        <time>2019-04-12T07:58:57Z</time>
      </trkpt>
      <trkpt lat="42.12742" lon="2.38565">
        <ele>1407.8</ele>
        <time>2019-04-12T07:58:58Z</time>
      </trkpt>
      <trkpt lat="42.12741" lon="2.38567">
        <ele>1408.5</ele>
        <time>2019-04-12T07:58:58Z</time>
      </trkpt>
      <trkpt lat="42.1274" lon="2.3857">
        <ele>1409.1</ele>
        <time>2019-04-12T07:58:59Z</time>
      </trkpt>
      <trkpt lat="42.1274" lon="2.38573">
        <ele>1409.9</ele>
        <time>2019-04-12T07:59:00Z</time>
      </trkpt>
      <trkpt lat="42.1274" lon="2.38574">
        <ele>1410.1</ele>
        <time>2019-04-12T07:59:01Z</time>
      </trkpt>
      <trkpt lat="42.1274" lon="2.38576">
        <ele>1410.1</ele>
        <time>2019-04-12T07:59:01Z</time>
      </trkpt>
      <trkpt lat="42.1274" lon="2.38578">
        <ele>1410.1</ele>
        <time>2019-04-12T07:59:01Z</time>
      </trkpt>
      <trkpt lat="42.12739" lon="2.38581">
        <ele>1410.5</ele>
        <time>2019-04-12T07:59:03Z</time>
      </trkpt>
      <trkpt lat="42.12738" lon="2.38583">
        <ele>1410.8</ele>
        <time>2019-04-12T07:59:03Z</time>
      </trkpt>
      <trkpt lat="42.12738" lon="2.38586">
        <ele>1411</ele>
        <time>2019-04-12T07:59:04Z</time>
      </trkpt>
      <trkpt lat="42.12736" lon="2.38589">
        <ele>1411.5</ele>
        <time>2019-04-12T07:59:05Z</time>
      </trkpt>
      <trkpt lat="42.12735" lon="2.38592">
        <ele>1411.8</ele>
        <time>2019-04-12T07:59:06Z</time>
      </trkpt>
      <trkpt lat="42.12734" lon="2.38592">
        <ele>1412.2</ele>
        <time>2019-04-12T07:59:06Z</time>
      </trkpt>
      <trkpt lat="42.12734" lon="2.38593">
        <ele>1412.4</ele>
        <time>2019-04-12T07:59:07Z</time>
      </trkpt>
      <trkpt lat="42.12731" lon="2.38592">
        <ele>1413.5</ele>
        <time>2019-04-12T07:59:08Z</time>
      </trkpt>
      <trkpt lat="42.1273" lon="2.38592">
        <ele>1413.5</ele>
        <time>2019-04-12T07:59:08Z</time>
      </trkpt>
      <trkpt lat="42.12726" lon="2.38594">
        <ele>1414.4</ele>
        <time>2019-04-12T07:59:10Z</time>
      </trkpt>
      <trkpt lat="42.12722" lon="2.38595">
        <ele>1415</ele>
        <time>2019-04-12T07:59:12Z</time>
      </trkpt>
      <trkpt lat="42.1272" lon="2.38597">
        <ele>1415.1</ele>
        <time>2019-04-12T07:59:13Z</time>
      </trkpt>
      <trkpt lat="42.12718" lon="2.38598">
        <ele>1415</ele>
        <time>2019-04-12T07:59:14Z</time>
      </trkpt>
      <trkpt lat="42.12717" lon="2.38599">
        <ele>1415</ele>
        <time>2019-04-12T07:59:14Z</time>
      </trkpt>
      <trkpt lat="42.12715" lon="2.38601">
        <ele>1415.1</ele>
        <time>2019-04-12T07:59:15Z</time>
      </trkpt>
      <trkpt lat="42.12713" lon="2.38604">
        <ele>1415</ele>
        <time>2019-04-12T07:59:16Z</time>
      </trkpt>
      <trkpt lat="42.12713" lon="2.38606">
        <ele>1415.5</ele>
        <time>2019-04-12T07:59:17Z</time>
      </trkpt>
      <trkpt lat="42.12714" lon="2.38607">
        <ele>1415.5</ele>
        <time>2019-04-12T07:59:17Z</time>
      </trkpt>
      <trkpt lat="42.12713" lon="2.38608">
        <ele>1416.5</ele>
        <time>2019-04-12T07:59:17Z</time>
      </trkpt>
      <trkpt lat="42.12713" lon="2.38608">
        <ele>1416.6</ele>
        <time>2019-04-12T07:59:18Z</time>
      </trkpt>
      <trkpt lat="42.12712" lon="2.38607">
        <ele>1416.8</ele>
        <time>2019-04-12T07:59:18Z</time>
      </trkpt>
      <trkpt lat="42.1271" lon="2.38608">
        <ele>1417</ele>
        <time>2019-04-12T07:59:19Z</time>
      </trkpt>
      <trkpt lat="42.12707" lon="2.38609">
        <ele>1417.6</ele>
        <time>2019-04-12T07:59:20Z</time>
      </trkpt>
      <trkpt lat="42.12706" lon="2.38609">
        <ele>1417.8</ele>
        <time>2019-04-12T07:59:20Z</time>
      </trkpt>
      <trkpt lat="42.127" lon="2.38608">
        <ele>1418.8</ele>
        <time>2019-04-12T07:59:23Z</time>
      </trkpt>
      <trkpt lat="42.12699" lon="2.38611">
        <ele>1419.4</ele>
        <time>2019-04-12T07:59:24Z</time>
      </trkpt>
      <trkpt lat="42.12698" lon="2.38613">
        <ele>1420.1</ele>
        <time>2019-04-12T07:59:24Z</time>
      </trkpt>
      <trkpt lat="42.12697" lon="2.38613">
        <ele>1420.5</ele>
        <time>2019-04-12T07:59:25Z</time>
      </trkpt>
      <trkpt lat="42.12695" lon="2.38616">
        <ele>1421.2</ele>
        <time>2019-04-12T07:59:26Z</time>
      </trkpt>
      <trkpt lat="42.12693" lon="2.38619">
        <ele>1422.5</ele>
        <time>2019-04-12T07:59:27Z</time>
      </trkpt>
      <trkpt lat="42.12692" lon="2.38621">
        <ele>1423.2</ele>
        <time>2019-04-12T07:59:28Z</time>
      </trkpt>
      <trkpt lat="42.12692" lon="2.38621">
        <ele>1423.5</ele>
        <time>2019-04-12T07:59:28Z</time>
      </trkpt>
      <trkpt lat="42.12691" lon="2.38622">
        <ele>1423.8</ele>
        <time>2019-04-12T07:59:28Z</time>
      </trkpt>
      <trkpt lat="42.12688" lon="2.38625">
        <ele>1424.8</ele>
        <time>2019-04-12T07:59:30Z</time>
      </trkpt>
      <trkpt lat="42.12685" lon="2.38627">
        <ele>1425.4</ele>
        <time>2019-04-12T07:59:31Z</time>
      </trkpt>
      <trkpt lat="42.12681" lon="2.38629">
        <ele>1425.8</ele>
        <time>2019-04-12T07:59:33Z</time>
      </trkpt>
      <trkpt lat="42.12679" lon="2.3863">
        <ele>1426</ele>
        <time>2019-04-12T07:59:34Z</time>
      </trkpt>
      <trkpt lat="42.12677" lon="2.3863">
        <ele>1427</ele>
        <time>2019-04-12T07:59:35Z</time>
      </trkpt>
      <trkpt lat="42.12675" lon="2.38631">
        <ele>1428.2</ele>
        <time>2019-04-12T07:59:35Z</time>
      </trkpt>
      <trkpt lat="42.12674" lon="2.38633">
        <ele>1428.5</ele>
        <time>2019-04-12T07:59:36Z</time>
      </trkpt>
      <trkpt lat="42.12671" lon="2.38635">
        <ele>1429.5</ele>
        <time>2019-04-12T07:59:38Z</time>
      </trkpt>
      <trkpt lat="42.12669" lon="2.38638">
        <ele>1430.5</ele>
        <time>2019-04-12T07:59:39Z</time>
      </trkpt>
      <trkpt lat="42.12666" lon="2.38637">
        <ele>1431.1</ele>
        <time>2019-04-12T07:59:40Z</time>
      </trkpt>
      <trkpt lat="42.12666" lon="2.38637">
        <ele>1431.4</ele>
        <time>2019-04-12T07:59:40Z</time>
      </trkpt>
      <trkpt lat="42.12665" lon="2.38637">
        <ele>1431.9</ele>
        <time>2019-04-12T07:59:40Z</time>
      </trkpt>
      <trkpt lat="42.12665" lon="2.38637">
        <ele>1432.4</ele>
        <time>2019-04-12T07:59:40Z</time>
      </trkpt>
      <trkpt lat="42.12665" lon="2.38636">
        <ele>1432.8</ele>
        <time>2019-04-12T07:59:41Z</time>
      </trkpt>
      <trkpt lat="42.12665" lon="2.38637">
        <ele>1433.9</ele>
        <time>2019-04-12T07:59:41Z</time>
      </trkpt>
      <trkpt lat="42.12664" lon="2.38639">
        <ele>1434.5</ele>
        <time>2019-04-12T07:59:42Z</time>
      </trkpt>
      <trkpt lat="42.12663" lon="2.38639">
        <ele>1435</ele>
        <time>2019-04-12T07:59:42Z</time>
      </trkpt>
      <trkpt lat="42.12659" lon="2.38645">
        <ele>1436.2</ele>
        <time>2019-04-12T07:59:44Z</time>
      </trkpt>
      <trkpt lat="42.12658" lon="2.38645">
        <ele>1436.5</ele>
        <time>2019-04-12T07:59:45Z</time>
      </trkpt>
      <trkpt lat="42.12656" lon="2.38645">
        <ele>1437.5</ele>
        <time>2019-04-12T07:59:46Z</time>
      </trkpt>
      <trkpt lat="42.12653" lon="2.38646">
        <ele>1438.5</ele>
        <time>2019-04-12T07:59:47Z</time>
      </trkpt>
      <trkpt lat="42.12651" lon="2.38646">
        <ele>1439.5</ele>
        <time>2019-04-12T07:59:47Z</time>
      </trkpt>
      <trkpt lat="42.12651" lon="2.38646">
        <ele>1439.8</ele>
        <time>2019-04-12T07:59:47Z</time>
      </trkpt>
      <trkpt lat="42.1265" lon="2.38647">
        <ele>1440</ele>
        <time>2019-04-12T07:59:48Z</time>
      </trkpt>
      <trkpt lat="42.12649" lon="2.38648">
        <ele>1440.2</ele>
        <time>2019-04-12T07:59:48Z</time>
      </trkpt>
      <trkpt lat="42.12648" lon="2.38648">
        <ele>1440.5</ele>
        <time>2019-04-12T07:59:49Z</time>
      </trkpt>
      <trkpt lat="42.12647" lon="2.3865">
        <ele>1440.8</ele>
        <time>2019-04-12T07:59:49Z</time>
      </trkpt>
      <trkpt lat="42.12645" lon="2.38653">
        <ele>1441.8</ele>
        <time>2019-04-12T07:59:51Z</time>
      </trkpt>
      <trkpt lat="42.12645" lon="2.38654">
        <ele>1442.5</ele>
        <time>2019-04-12T07:59:51Z</time>
      </trkpt>
      <trkpt lat="42.12645" lon="2.38655">
        <ele>1442.9</ele>
        <time>2019-04-12T07:59:51Z</time>
      </trkpt>
      <trkpt lat="42.12646" lon="2.38657">
        <ele>1444</ele>
        <time>2019-04-12T07:59:52Z</time>
      </trkpt>
      <trkpt lat="42.12646" lon="2.38658">
        <ele>1444.5</ele>
        <time>2019-04-12T07:59:52Z</time>
      </trkpt>
      <trkpt lat="42.12646" lon="2.38659">
        <ele>1445.1</ele>
        <time>2019-04-12T07:59:53Z</time>
      </trkpt>
      <trkpt lat="42.12645" lon="2.3866">
        <ele>1446.1</ele>
        <time>2019-04-12T07:59:53Z</time>
      </trkpt>
      <trkpt lat="42.12645" lon="2.38661">
        <ele>1446.5</ele>
        <time>2019-04-12T07:59:53Z</time>
      </trkpt>
      <trkpt lat="42.12645" lon="2.38663">
        <ele>1447.4</ele>
        <time>2019-04-12T07:59:54Z</time>
      </trkpt>
      <trkpt lat="42.12645" lon="2.38663">
        <ele>1447.6</ele>
        <time>2019-04-12T07:59:54Z</time>
      </trkpt>
      <trkpt lat="42.12646" lon="2.38665">
        <ele>1448.2</ele>
        <time>2019-04-12T07:59:54Z</time>
      </trkpt>
      <trkpt lat="42.12646" lon="2.38666">
        <ele>1448.4</ele>
        <time>2019-04-12T07:59:55Z</time>
      </trkpt>
      <trkpt lat="42.12646" lon="2.38667">
        <ele>1448.5</ele>
        <time>2019-04-12T07:59:55Z</time>
      </trkpt>
      <trkpt lat="42.12644" lon="2.3867">
        <ele>1449.5</ele>
        <time>2019-04-12T07:59:56Z</time>
      </trkpt>
      <trkpt lat="42.12643" lon="2.38671">
        <ele>1450.1</ele>
        <time>2019-04-12T07:59:57Z</time>
      </trkpt>
      <trkpt lat="42.12642" lon="2.38672">
        <ele>1450.8</ele>
        <time>2019-04-12T07:59:57Z</time>
      </trkpt>
      <trkpt lat="42.12639" lon="2.38677">
        <ele>1451.9</ele>
        <time>2019-04-12T07:59:59Z</time>
      </trkpt>
      <trkpt lat="42.12633" lon="2.38679">
        <ele>1453.1</ele>
        <time>2019-04-12T08:00:02Z</time>
      </trkpt>
      <trkpt lat="42.1263" lon="2.38678">
        <ele>1453.5</ele>
        <time>2019-04-12T08:00:03Z</time>
      </trkpt>
      <trkpt lat="42.12629" lon="2.38679">
        <ele>1454.1</ele>
        <time>2019-04-12T08:00:03Z</time>
      </trkpt>
      <trkpt lat="42.12626" lon="2.38684">
        <ele>1455.1</ele>
        <time>2019-04-12T08:00:05Z</time>
      </trkpt>
      <trkpt lat="42.12624" lon="2.38685">
        <ele>1455.6</ele>
        <time>2019-04-12T08:00:06Z</time>
      </trkpt>
      <trkpt lat="42.12623" lon="2.38686">
        <ele>1456.4</ele>
        <time>2019-04-12T08:00:07Z</time>
      </trkpt>
      <trkpt lat="42.12622" lon="2.38688">
        <ele>1457.5</ele>
        <time>2019-04-12T08:00:07Z</time>
      </trkpt>
      <trkpt lat="42.12621" lon="2.38692">
        <ele>1458.4</ele>
        <time>2019-04-12T08:00:09Z</time>
      </trkpt>
      <trkpt lat="42.12621" lon="2.38693">
        <ele>1459.1</ele>
        <time>2019-04-12T08:00:09Z</time>
      </trkpt>
      <trkpt lat="42.12621" lon="2.38694">
        <ele>1459.5</ele>
        <time>2019-04-12T08:00:09Z</time>
      </trkpt>
      <trkpt lat="42.1262" lon="2.38695">
        <ele>1459.5</ele>
        <time>2019-04-12T08:00:10Z</time>
      </trkpt>
      <trkpt lat="42.1262" lon="2.38698">
        <ele>1460.8</ele>
        <time>2019-04-12T08:00:11Z</time>
      </trkpt>
      <trkpt lat="42.1262" lon="2.38699">
        <ele>1461.1</ele>
        <time>2019-04-12T08:00:11Z</time>
      </trkpt>
      <trkpt lat="42.12619" lon="2.387">
        <ele>1462.2</ele>
        <time>2019-04-12T08:00:11Z</time>
      </trkpt>
      <trkpt lat="42.12618" lon="2.38703">
        <ele>1463.5</ele>
        <time>2019-04-12T08:00:12Z</time>
      </trkpt>
      <trkpt lat="42.12616" lon="2.38706">
        <ele>1464</ele>
        <time>2019-04-12T08:00:13Z</time>
      </trkpt>
      <trkpt lat="42.12615" lon="2.38709">
        <ele>1464.5</ele>
        <time>2019-04-12T08:00:14Z</time>
      </trkpt>
      <trkpt lat="42.12615" lon="2.38709">
        <ele>1464.9</ele>
        <time>2019-04-12T08:00:15Z</time>
      </trkpt>
      <trkpt lat="42.12614" lon="2.38711">
        <ele>1465.1</ele>
        <time>2019-04-12T08:00:15Z</time>
      </trkpt>
      <trkpt lat="42.12612" lon="2.38713">
        <ele>1465.5</ele>
        <time>2019-04-12T08:00:16Z</time>
      </trkpt>
      <trkpt lat="42.12609" lon="2.38715">
        <ele>1466.8</ele>
        <time>2019-04-12T08:00:18Z</time>
      </trkpt>
      <trkpt lat="42.12608" lon="2.38716">
        <ele>1467</ele>
        <time>2019-04-12T08:00:18Z</time>
      </trkpt>
      <trkpt lat="42.12607" lon="2.38721">
        <ele>1467.8</ele>
        <time>2019-04-12T08:00:19Z</time>
      </trkpt>
      <trkpt lat="42.12606" lon="2.38722">
        <ele>1468.6</ele>
        <time>2019-04-12T08:00:20Z</time>
      </trkpt>
      <trkpt lat="42.12605" lon="2.38722">
        <ele>1468.8</ele>
        <time>2019-04-12T08:00:20Z</time>
      </trkpt>
      <trkpt lat="42.12601" lon="2.38725">
        <ele>1470</ele>
        <time>2019-04-12T08:00:22Z</time>
      </trkpt>
      <trkpt lat="42.12598" lon="2.38726">
        <ele>1470.6</ele>
        <time>2019-04-12T08:00:23Z</time>
      </trkpt>
      <trkpt lat="42.12594" lon="2.38727">
        <ele>1471.1</ele>
        <time>2019-04-12T08:00:25Z</time>
      </trkpt>
      <trkpt lat="42.1259" lon="2.3873">
        <ele>1472</ele>
        <time>2019-04-12T08:00:27Z</time>
      </trkpt>
      <trkpt lat="42.12588" lon="2.3873">
        <ele>1472.2</ele>
        <time>2019-04-12T08:00:28Z</time>
      </trkpt>
      <trkpt lat="42.12587" lon="2.3873">
        <ele>1472.4</ele>
        <time>2019-04-12T08:00:28Z</time>
      </trkpt>
      <trkpt lat="42.12583" lon="2.3873">
        <ele>1473.1</ele>
        <time>2019-04-12T08:00:30Z</time>
      </trkpt>
      <trkpt lat="42.12582" lon="2.38731">
        <ele>1473.4</ele>
        <time>2019-04-12T08:00:30Z</time>
      </trkpt>
      <trkpt lat="42.12583" lon="2.38733">
        <ele>1474.1</ele>
        <time>2019-04-12T08:00:30Z</time>
      </trkpt>
      <trkpt lat="42.12583" lon="2.38734">
        <ele>1474.5</ele>
        <time>2019-04-12T08:00:31Z</time>
      </trkpt>
      <trkpt lat="42.12583" lon="2.38734">
        <ele>1475.5</ele>
        <time>2019-04-12T08:00:31Z</time>
      </trkpt>
      <trkpt lat="42.12583" lon="2.38734">
        <ele>1475.6</ele>
        <time>2019-04-12T08:00:31Z</time>
      </trkpt>
      <trkpt lat="42.12582" lon="2.38733">
        <ele>1475.9</ele>
        <time>2019-04-12T08:00:31Z</time>
      </trkpt>
      <trkpt lat="42.12582" lon="2.38733">
        <ele>1476</ele>
        <time>2019-04-12T08:00:32Z</time>
      </trkpt>
      <trkpt lat="42.12582" lon="2.38736">
        <ele>1476.6</ele>
        <time>2019-04-12T08:00:33Z</time>
      </trkpt>
      <trkpt lat="42.12582" lon="2.38737">
        <ele>1477.1</ele>
        <time>2019-04-12T08:00:33Z</time>
      </trkpt>
      <trkpt lat="42.12581" lon="2.38739">
        <ele>1477.5</ele>
        <time>2019-04-12T08:00:34Z</time>
      </trkpt>
      <trkpt lat="42.12578" lon="2.38742">
        <ele>1478.1</ele>
        <time>2019-04-12T08:00:35Z</time>
      </trkpt>
      <trkpt lat="42.12577" lon="2.38742">
        <ele>1478.5</ele>
        <time>2019-04-12T08:00:35Z</time>
      </trkpt>
      <trkpt lat="42.12577" lon="2.38742">
        <ele>1479</ele>
        <time>2019-04-12T08:00:36Z</time>
      </trkpt>
      <trkpt lat="42.12576" lon="2.38743">
        <ele>1479.1</ele>
        <time>2019-04-12T08:00:36Z</time>
      </trkpt>
      <trkpt lat="42.12572" lon="2.38744">
        <ele>1480.1</ele>
        <time>2019-04-12T08:00:37Z</time>
      </trkpt>
      <trkpt lat="42.12571" lon="2.38745">
        <ele>1480.2</ele>
        <time>2019-04-12T08:00:38Z</time>
      </trkpt>
      <trkpt lat="42.1257" lon="2.38746">
        <ele>1480.4</ele>
        <time>2019-04-12T08:00:38Z</time>
      </trkpt>
      <trkpt lat="42.12567" lon="2.38748">
        <ele>1480.8</ele>
        <time>2019-04-12T08:00:40Z</time>
      </trkpt>
      <trkpt lat="42.12566" lon="2.38749">
        <ele>1480.8</ele>
        <time>2019-04-12T08:00:40Z</time>
      </trkpt>
      <trkpt lat="42.12564" lon="2.3875">
        <ele>1481.1</ele>
        <time>2019-04-12T08:00:41Z</time>
      </trkpt>
      <trkpt lat="42.12564" lon="2.3875">
        <ele>1481.4</ele>
        <time>2019-04-12T08:00:41Z</time>
      </trkpt>
      <trkpt lat="42.12563" lon="2.38751">
        <ele>1481.6</ele>
        <time>2019-04-12T08:00:42Z</time>
      </trkpt>
      <trkpt lat="42.12564" lon="2.38752">
        <ele>1482.1</ele>
        <time>2019-04-12T08:00:42Z</time>
      </trkpt>
      <trkpt lat="42.12563" lon="2.38754">
        <ele>1483.1</ele>
        <time>2019-04-12T08:00:43Z</time>
      </trkpt>
      <trkpt lat="42.12563" lon="2.38755">
        <ele>1483.4</ele>
        <time>2019-04-12T08:00:43Z</time>
      </trkpt>
      <trkpt lat="42.12563" lon="2.38755">
        <ele>1484.4</ele>
        <time>2019-04-12T08:00:43Z</time>
      </trkpt>
      <trkpt lat="42.12563" lon="2.38756">
        <ele>1484.5</ele>
        <time>2019-04-12T08:00:43Z</time>
      </trkpt>
      <trkpt lat="42.12563" lon="2.38757">
        <ele>1484.8</ele>
        <time>2019-04-12T08:00:43Z</time>
      </trkpt>
      <trkpt lat="42.12561" lon="2.38757">
        <ele>1485.1</ele>
        <time>2019-04-12T08:00:44Z</time>
      </trkpt>
      <trkpt lat="42.1256" lon="2.38758">
        <ele>1485.4</ele>
        <time>2019-04-12T08:00:45Z</time>
      </trkpt>
      <trkpt lat="42.12557" lon="2.38759">
        <ele>1486</ele>
        <time>2019-04-12T08:00:46Z</time>
      </trkpt>
      <trkpt lat="42.12553" lon="2.38762">
        <ele>1486.9</ele>
        <time>2019-04-12T08:00:48Z</time>
      </trkpt>
      <trkpt lat="42.12551" lon="2.38765">
        <ele>1487</ele>
        <time>2019-04-12T08:00:49Z</time>
      </trkpt>
      <trkpt lat="42.12549" lon="2.38766">
        <ele>1487.8</ele>
        <time>2019-04-12T08:00:50Z</time>
      </trkpt>
      <trkpt lat="42.12548" lon="2.38766">
        <ele>1488.1</ele>
        <time>2019-04-12T08:00:50Z</time>
      </trkpt>
      <trkpt lat="42.12547" lon="2.38768">
        <ele>1488.5</ele>
        <time>2019-04-12T08:00:51Z</time>
      </trkpt>
      <trkpt lat="42.12544" lon="2.3877">
        <ele>1489.4</ele>
        <time>2019-04-12T08:00:52Z</time>
      </trkpt>
      <trkpt lat="42.12542" lon="2.38772">
        <ele>1489.8</ele>
        <time>2019-04-12T08:00:53Z</time>
      </trkpt>
      <trkpt lat="42.12542" lon="2.38773">
        <ele>1490.2</ele>
        <time>2019-04-12T08:00:53Z</time>
      </trkpt>
      <trkpt lat="42.12541" lon="2.38773">
        <ele>1490.4</ele>
        <time>2019-04-12T08:00:54Z</time>
      </trkpt>
      <trkpt lat="42.12539" lon="2.38774">
        <ele>1491.6</ele>
        <time>2019-04-12T08:00:55Z</time>
      </trkpt>
      <trkpt lat="42.12537" lon="2.38776">
        <ele>1492.4</ele>
        <time>2019-04-12T08:00:55Z</time>
      </trkpt>
      <trkpt lat="42.12537" lon="2.38776">
        <ele>1492.8</ele>
        <time>2019-04-12T08:00:56Z</time>
      </trkpt>
      <trkpt lat="42.12537" lon="2.38777">
        <ele>1493</ele>
        <time>2019-04-12T08:00:56Z</time>
      </trkpt>
      <trkpt lat="42.12536" lon="2.38778">
        <ele>1493.2</ele>
        <time>2019-04-12T08:00:56Z</time>
      </trkpt>
      <trkpt lat="42.12534" lon="2.38781">
        <ele>1493.8</ele>
        <time>2019-04-12T08:00:57Z</time>
      </trkpt>
      <trkpt lat="42.12532" lon="2.38781">
        <ele>1494.5</ele>
        <time>2019-04-12T08:00:58Z</time>
      </trkpt>
      <trkpt lat="42.12531" lon="2.38782">
        <ele>1495</ele>
        <time>2019-04-12T08:00:59Z</time>
      </trkpt>
      <trkpt lat="42.12529" lon="2.38783">
        <ele>1495.4</ele>
        <time>2019-04-12T08:00:59Z</time>
      </trkpt>
      <trkpt lat="42.12529" lon="2.38783">
        <ele>1495.5</ele>
        <time>2019-04-12T08:01:00Z</time>
      </trkpt>
      <trkpt lat="42.12528" lon="2.38784">
        <ele>1496.1</ele>
        <time>2019-04-12T08:01:00Z</time>
      </trkpt>
      <trkpt lat="42.12528" lon="2.38785">
        <ele>1496.2</ele>
        <time>2019-04-12T08:01:00Z</time>
      </trkpt>
      <trkpt lat="42.12527" lon="2.38786">
        <ele>1496.6</ele>
        <time>2019-04-12T08:01:01Z</time>
      </trkpt>
      <trkpt lat="42.12525" lon="2.38789">
        <ele>1497.1</ele>
        <time>2019-04-12T08:01:02Z</time>
      </trkpt>
      <trkpt lat="42.12525" lon="2.38789">
        <ele>1497.2</ele>
        <time>2019-04-12T08:01:02Z</time>
      </trkpt>
      <trkpt lat="42.12523" lon="2.38789">
        <ele>1498</ele>
        <time>2019-04-12T08:01:03Z</time>
      </trkpt>
      <trkpt lat="42.12522" lon="2.38789">
        <ele>1498.5</ele>
        <time>2019-04-12T08:01:03Z</time>
      </trkpt>
      <trkpt lat="42.1252" lon="2.38789">
        <ele>1499.2</ele>
        <time>2019-04-12T08:01:04Z</time>
      </trkpt>
      <trkpt lat="42.12518" lon="2.38789">
        <ele>1370.9</ele>
        <time>2019-04-12T08:01:05Z</time>
      </trkpt>
      <trkpt lat="42.12518" lon="2.38789">
        <ele>1371</ele>
        <time>2019-04-12T08:01:05Z</time>
      </trkpt>
      <trkpt lat="42.12516" lon="2.38789">
        <ele>1371.8</ele>
        <time>2019-04-12T08:01:06Z</time>
      </trkpt>
      <trkpt lat="42.12517" lon="2.38789">
        <ele>1370.2</ele>
        <time>2019-04-12T08:01:06Z</time>
      </trkpt>
      <trkpt lat="42.12517" lon="2.38789">
        <ele>1369.4</ele>
        <time>2019-04-12T08:01:06Z</time>
      </trkpt>
      <trkpt lat="42.12517" lon="2.38789">
        <ele>1369</ele>
        <time>2019-04-12T08:01:06Z</time>
      </trkpt>
      <trkpt lat="42.12516" lon="2.3879">
        <ele>1368.5</ele>
        <time>2019-04-12T08:01:06Z</time>
      </trkpt>
      <trkpt lat="42.12517" lon="2.3879">
        <ele>1368.1</ele>
        <time>2019-04-12T08:01:07Z</time>
      </trkpt>
      <trkpt lat="42.1252" lon="2.38787">
        <ele>1367.4</ele>
        <time>2019-04-12T08:01:08Z</time>
      </trkpt>
      <trkpt lat="42.1252" lon="2.38787">
        <ele>1367.5</ele>
        <time>2019-04-12T08:01:08Z</time>
      </trkpt>
      <trkpt lat="42.1252" lon="2.38787">
        <ele>1369</ele>
        <time>2019-04-12T08:01:08Z</time>
      </trkpt>
      <trkpt lat="42.1252" lon="2.38787">
        <ele>1370.1</ele>
        <time>2019-04-12T08:01:08Z</time>
      </trkpt>
      <trkpt lat="42.12519" lon="2.38788">
        <ele>1371.1</ele>
        <time>2019-04-12T08:01:09Z</time>
      </trkpt>
      <trkpt lat="42.12519" lon="2.38789">
        <ele>1371.5</ele>
        <time>2019-04-12T08:01:09Z</time>
      </trkpt>
      <trkpt lat="42.12522" lon="2.38789">
        <ele>1371.8</ele>
        <time>2019-04-12T08:01:10Z</time>
      </trkpt>
      <trkpt lat="42.12524" lon="2.38792">
        <ele>1371.4</ele>
        <time>2019-04-12T08:01:11Z</time>
      </trkpt>
      <trkpt lat="42.12522" lon="2.38793">
        <ele>1371.2</ele>
        <time>2019-04-12T08:01:12Z</time>
      </trkpt>
      <trkpt lat="42.12522" lon="2.38793">
        <ele>1371.4</ele>
        <time>2019-04-12T08:01:12Z</time>
      </trkpt>
      <trkpt lat="42.12523" lon="2.3879">
        <ele>1370.2</ele>
        <time>2019-04-12T08:01:13Z</time>
      </trkpt>
      <trkpt lat="42.12523" lon="2.38789">
        <ele>1369.6</ele>
        <time>2019-04-12T08:01:14Z</time>
      </trkpt>
      <trkpt lat="42.12524" lon="2.38788">
        <ele>1369.1</ele>
        <time>2019-04-12T08:01:14Z</time>
      </trkpt>
      <trkpt lat="42.12523" lon="2.38788">
        <ele>1367.9</ele>
        <time>2019-04-12T08:01:14Z</time>
      </trkpt>
      <trkpt lat="42.12523" lon="2.38788">
        <ele>1367.5</ele>
        <time>2019-04-12T08:01:14Z</time>
      </trkpt>
      <trkpt lat="42.12525" lon="2.3879">
        <ele>1367</ele>
        <time>2019-04-12T08:01:15Z</time>
      </trkpt>
      <trkpt lat="42.12527" lon="2.38792">
        <ele>1367.4</ele>
        <time>2019-04-12T08:01:16Z</time>
      </trkpt>
      <trkpt lat="42.12528" lon="2.38795">
        <ele>1369</ele>
        <time>2019-04-12T08:01:17Z</time>
      </trkpt>
      <trkpt lat="42.12528" lon="2.38796">
        <ele>1368.5</ele>
        <time>2019-04-12T08:01:18Z</time>
      </trkpt>
      <trkpt lat="42.12527" lon="2.38794">
        <ele>1369.2</ele>
        <time>2019-04-12T08:01:18Z</time>
      </trkpt>
      <trkpt lat="42.12529" lon="2.38794">
        <ele>1368.1</ele>
        <time>2019-04-12T08:01:19Z</time>
      </trkpt>
      <trkpt lat="42.12527" lon="2.38793">
        <ele>1368.1</ele>
        <time>2019-04-12T08:01:20Z</time>
      </trkpt>
      <trkpt lat="42.12527" lon="2.38793">
        <ele>1367.6</ele>
        <time>2019-04-12T08:01:20Z</time>
      </trkpt>
      <trkpt lat="42.12527" lon="2.38793">
        <ele>1367.5</ele>
        <time>2019-04-12T08:01:20Z</time>
      </trkpt>
      <trkpt lat="42.12528" lon="2.38792">
        <ele>1366.8</ele>
        <time>2019-04-12T08:01:21Z</time>
      </trkpt>
      <trkpt lat="42.12528" lon="2.38792">
        <ele>1366.6</ele>
        <time>2019-04-12T08:01:21Z</time>
      </trkpt>
      <trkpt lat="42.12528" lon="2.38792">
        <ele>1367.5</ele>
        <time>2019-04-12T08:01:21Z</time>
      </trkpt>
      <trkpt lat="42.12528" lon="2.38791">
        <ele>1368.1</ele>
        <time>2019-04-12T08:01:21Z</time>
      </trkpt>
      <trkpt lat="42.12528" lon="2.3879">
        <ele>1368.5</ele>
        <time>2019-04-12T08:01:22Z</time>
      </trkpt>
      <trkpt lat="42.12528" lon="2.3879">
        <ele>1368.4</ele>
        <time>2019-04-12T08:01:22Z</time>
      </trkpt>
      <trkpt lat="42.12527" lon="2.38791">
        <ele>1368.8</ele>
        <time>2019-04-12T08:01:22Z</time>
      </trkpt>
      <trkpt lat="42.12526" lon="2.3879">
        <ele>1369.1</ele>
        <time>2019-04-12T08:01:23Z</time>
      </trkpt>
      <trkpt lat="42.12526" lon="2.38789">
        <ele>1369.2</ele>
        <time>2019-04-12T08:01:23Z</time>
      </trkpt>
      <trkpt lat="42.12527" lon="2.38789">
        <ele>1368.9</ele>
        <time>2019-04-12T08:01:23Z</time>
      </trkpt>
      <trkpt lat="42.12527" lon="2.38791">
        <ele>1369.2</ele>
        <time>2019-04-12T08:01:24Z</time>
      </trkpt>
      <trkpt lat="42.12523" lon="2.38791">
        <ele>1369</ele>
        <time>2019-04-12T08:01:26Z</time>
      </trkpt>
      <trkpt lat="42.12524" lon="2.38793">
        <ele>1368.6</ele>
        <time>2019-04-12T08:01:26Z</time>
      </trkpt>
      <trkpt lat="42.12524" lon="2.38794">
        <ele>1369</ele>
        <time>2019-04-12T08:01:26Z</time>
      </trkpt>
      <trkpt lat="42.12524" lon="2.38794">
        <ele>1369.5</ele>
        <time>2019-04-12T08:01:27Z</time>
      </trkpt>
      <trkpt lat="42.12525" lon="2.38792">
        <ele>1369.2</ele>
        <time>2019-04-12T08:01:27Z</time>
      </trkpt>
      <trkpt lat="42.12527" lon="2.38792">
        <ele>1368.6</ele>
        <time>2019-04-12T08:01:28Z</time>
      </trkpt>
      <trkpt lat="42.12528" lon="2.38791">
        <ele>1368</ele>
        <time>2019-04-12T08:01:29Z</time>
      </trkpt>
      <trkpt lat="42.12529" lon="2.38791">
        <ele>1367.4</ele>
        <time>2019-04-12T08:01:29Z</time>
      </trkpt>
      <trkpt lat="42.12528" lon="2.38791">
        <ele>1367.1</ele>
        <time>2019-04-12T08:01:29Z</time>
      </trkpt>
      <trkpt lat="42.1253" lon="2.3879">
        <ele>1366</ele>
        <time>2019-04-12T08:01:30Z</time>
      </trkpt>
      <trkpt lat="42.12531" lon="2.38791">
        <ele>1365.5</ele>
        <time>2019-04-12T08:01:30Z</time>
      </trkpt>
      <trkpt lat="42.12532" lon="2.38791">
        <ele>1365.2</ele>
        <time>2019-04-12T08:01:31Z</time>
      </trkpt>
      <trkpt lat="42.12535" lon="2.38792">
        <ele>1364.6</ele>
        <time>2019-04-12T08:01:32Z</time>
      </trkpt>
      <trkpt lat="42.12538" lon="2.38793">
        <ele>1365.1</ele>
        <time>2019-04-12T08:01:33Z</time>
      </trkpt>
      <trkpt lat="42.1254" lon="2.38792">
        <ele>1364.9</ele>
        <time>2019-04-12T08:01:34Z</time>
      </trkpt>
      <trkpt lat="42.12542" lon="2.38792">
        <ele>1364.4</ele>
        <time>2019-04-12T08:01:34Z</time>
      </trkpt>
      <trkpt lat="42.12545" lon="2.38793">
        <ele>1363.5</ele>
        <time>2019-04-12T08:01:36Z</time>
      </trkpt>
      <trkpt lat="42.12548" lon="2.38794">
        <ele>1363</ele>
        <time>2019-04-12T08:01:37Z</time>
      </trkpt>
      <trkpt lat="42.1255" lon="2.38794">
        <ele>1361.8</ele>
        <time>2019-04-12T08:01:38Z</time>
      </trkpt>
      <trkpt lat="42.12553" lon="2.38792">
        <ele>1360.4</ele>
        <time>2019-04-12T08:01:39Z</time>
      </trkpt>
      <trkpt lat="42.12556" lon="2.38791">
        <ele>1359.6</ele>
        <time>2019-04-12T08:01:40Z</time>
      </trkpt>
      <trkpt lat="42.12558" lon="2.38791">
        <ele>1359.2</ele>
        <time>2019-04-12T08:01:41Z</time>
      </trkpt>
      <trkpt lat="42.12559" lon="2.38791">
        <ele>1358.6</ele>
        <time>2019-04-12T08:01:42Z</time>
      </trkpt>
      <trkpt lat="42.1256" lon="2.38791">
        <ele>1358.1</ele>
        <time>2019-04-12T08:01:42Z</time>
      </trkpt>
      <trkpt lat="42.12561" lon="2.38791">
        <ele>1357.2</ele>
        <time>2019-04-12T08:01:43Z</time>
      </trkpt>
      <trkpt lat="42.12562" lon="2.38791">
        <ele>1356.5</ele>
        <time>2019-04-12T08:01:43Z</time>
      </trkpt>
      <trkpt lat="42.12566" lon="2.38796">
        <ele>1355.4</ele>
        <time>2019-04-12T08:01:45Z</time>
      </trkpt>
      <trkpt lat="42.12567" lon="2.38796">
        <ele>1355.2</ele>
        <time>2019-04-12T08:01:45Z</time>
      </trkpt>
      <trkpt lat="42.12567" lon="2.38796">
        <ele>1354.9</ele>
        <time>2019-04-12T08:01:45Z</time>
      </trkpt>
      <trkpt lat="42.12567" lon="2.38796">
        <ele>1354.1</ele>
        <time>2019-04-12T08:01:46Z</time>
      </trkpt>
      <trkpt lat="42.12567" lon="2.38795">
        <ele>1353.8</ele>
        <time>2019-04-12T08:01:46Z</time>
      </trkpt>
      <trkpt lat="42.12567" lon="2.38796">
        <ele>1353.4</ele>
        <time>2019-04-12T08:01:46Z</time>
      </trkpt>
      <trkpt lat="42.12566" lon="2.38796">
        <ele>1353.1</ele>
        <time>2019-04-12T08:01:46Z</time>
      </trkpt>
      <trkpt lat="42.12568" lon="2.38798">
        <ele>1352.1</ele>
        <time>2019-04-12T08:01:47Z</time>
      </trkpt>
      <trkpt lat="42.12569" lon="2.38798">
        <ele>1352.1</ele>
        <time>2019-04-12T08:01:48Z</time>
      </trkpt>
      <trkpt lat="42.1257" lon="2.38798">
        <ele>1351.8</ele>
        <time>2019-04-12T08:01:48Z</time>
      </trkpt>
      <trkpt lat="42.12573" lon="2.38796">
        <ele>1350.8</ele>
        <time>2019-04-12T08:01:49Z</time>
      </trkpt>
      <trkpt lat="42.12574" lon="2.38795">
        <ele>1350.1</ele>
        <time>2019-04-12T08:01:50Z</time>
      </trkpt>
      <trkpt lat="42.12574" lon="2.38795">
        <ele>1349.6</ele>
        <time>2019-04-12T08:01:50Z</time>
      </trkpt>
      <trkpt lat="42.12582" lon="2.38794">
        <ele>1348.2</ele>
        <time>2019-04-12T08:01:53Z</time>
      </trkpt>
      <trkpt lat="42.12583" lon="2.38794">
        <ele>1347.5</ele>
        <time>2019-04-12T08:01:54Z</time>
      </trkpt>
      <trkpt lat="42.12585" lon="2.38795">
        <ele>1346.9</ele>
        <time>2019-04-12T08:01:54Z</time>
      </trkpt>
      <trkpt lat="42.12586" lon="2.38796">
        <ele>1346.1</ele>
        <time>2019-04-12T08:01:55Z</time>
      </trkpt>
      <trkpt lat="42.12587" lon="2.38796">
        <ele>1345.8</ele>
        <time>2019-04-12T08:01:55Z</time>
      </trkpt>
      <trkpt lat="42.1259" lon="2.38796">
        <ele>1344.6</ele>
        <time>2019-04-12T08:01:56Z</time>
      </trkpt>
      <trkpt lat="42.12591" lon="2.38796">
        <ele>1344.2</ele>
        <time>2019-04-12T08:01:57Z</time>
      </trkpt>
      <trkpt lat="42.12593" lon="2.38797">
        <ele>1343.6</ele>
        <time>2019-04-12T08:01:58Z</time>
      </trkpt>
      <trkpt lat="42.12595" lon="2.38799">
        <ele>1343.1</ele>
        <time>2019-04-12T08:01:59Z</time>
      </trkpt>
      <trkpt lat="42.12597" lon="2.388">
        <ele>1342.5</ele>
        <time>2019-04-12T08:02:00Z</time>
      </trkpt>
      <trkpt lat="42.12597" lon="2.388">
        <ele>1342</ele>
        <time>2019-04-12T08:02:00Z</time>
      </trkpt>
      <trkpt lat="42.12597" lon="2.388">
        <ele>1341.4</ele>
        <time>2019-04-12T08:02:00Z</time>
      </trkpt>
      <trkpt lat="42.12598" lon="2.38799">
        <ele>1340.9</ele>
        <time>2019-04-12T08:02:00Z</time>
      </trkpt>
      <trkpt lat="42.12598" lon="2.38799">
        <ele>1340.5</ele>
        <time>2019-04-12T08:02:00Z</time>
      </trkpt>
      <trkpt lat="42.12599" lon="2.38799">
        <ele>1340</ele>
        <time>2019-04-12T08:02:01Z</time>
      </trkpt>
      <trkpt lat="42.12601" lon="2.388">
        <ele>1338.8</ele>
        <time>2019-04-12T08:02:01Z</time>
      </trkpt>
      <trkpt lat="42.12603" lon="2.38801">
        <ele>1337.4</ele>
        <time>2019-04-12T08:02:03Z</time>
      </trkpt>
      <trkpt lat="42.12605" lon="2.38803">
        <ele>1336.9</ele>
        <time>2019-04-12T08:02:03Z</time>
      </trkpt>
      <trkpt lat="42.12606" lon="2.38803">
        <ele>1336.5</ele>
        <time>2019-04-12T08:02:04Z</time>
      </trkpt>
      <trkpt lat="42.12607" lon="2.38804">
        <ele>1335.5</ele>
        <time>2019-04-12T08:02:04Z</time>
      </trkpt>
      <trkpt lat="42.12606" lon="2.38805">
        <ele>1335.5</ele>
        <time>2019-04-12T08:02:04Z</time>
      </trkpt>
      <trkpt lat="42.12604" lon="2.38807">
        <ele>1335.6</ele>
        <time>2019-04-12T08:02:05Z</time>
      </trkpt>
      <trkpt lat="42.12605" lon="2.38808">
        <ele>1335.9</ele>
        <time>2019-04-12T08:02:06Z</time>
      </trkpt>
      <trkpt lat="42.12613" lon="2.38814">
        <ele>1335.8</ele>
        <time>2019-04-12T08:02:09Z</time>
      </trkpt>
      <trkpt lat="42.1261" lon="2.38813">
        <ele>1335.8</ele>
        <time>2019-04-12T08:02:11Z</time>
      </trkpt>
      <trkpt lat="42.12609" lon="2.38811">
        <ele>1335.8</ele>
        <time>2019-04-12T08:02:12Z</time>
      </trkpt>
      <trkpt lat="42.12603" lon="2.3881">
        <ele>1336.1</ele>
        <time>2019-04-12T08:02:14Z</time>
      </trkpt>
      <trkpt lat="42.12599" lon="2.38809">
        <ele>1336.4</ele>
        <time>2019-04-12T08:02:16Z</time>
      </trkpt>
      <trkpt lat="42.12604" lon="2.3881">
        <ele>1336</ele>
        <time>2019-04-12T08:02:18Z</time>
      </trkpt>
      <trkpt lat="42.1261" lon="2.38809">
        <ele>1335.1</ele>
        <time>2019-04-12T08:02:20Z</time>
      </trkpt>
      <trkpt lat="42.12615" lon="2.38812">
        <ele>1335.1</ele>
        <time>2019-04-12T08:02:22Z</time>
      </trkpt>
      <trkpt lat="42.12617" lon="2.38814">
        <ele>1335.1</ele>
        <time>2019-04-12T08:02:23Z</time>
      </trkpt>
      <trkpt lat="42.12618" lon="2.38815">
        <ele>1335.4</ele>
        <time>2019-04-12T08:02:24Z</time>
      </trkpt>
      <trkpt lat="42.12625" lon="2.38808">
        <ele>1335.6</ele>
        <time>2019-04-12T08:02:28Z</time>
      </trkpt>
      <trkpt lat="42.1263" lon="2.38812">
        <ele>1335.4</ele>
        <time>2019-04-12T08:02:30Z</time>
      </trkpt>
      <trkpt lat="42.12632" lon="2.38813">
        <ele>1335.8</ele>
        <time>2019-04-12T08:02:31Z</time>
      </trkpt>
      <trkpt lat="42.12636" lon="2.38809">
        <ele>1335.9</ele>
        <time>2019-04-12T08:02:32Z</time>
      </trkpt>
      <trkpt lat="42.12642" lon="2.38806">
        <ele>1335.5</ele>
        <time>2019-04-12T08:02:35Z</time>
      </trkpt>
      <trkpt lat="42.12646" lon="2.38807">
        <ele>1335.5</ele>
        <time>2019-04-12T08:02:37Z</time>
      </trkpt>
      <trkpt lat="42.12649" lon="2.38807">
        <ele>1335.5</ele>
        <time>2019-04-12T08:02:38Z</time>
      </trkpt>
      <trkpt lat="42.12651" lon="2.38807">
        <ele>1335.4</ele>
        <time>2019-04-12T08:02:39Z</time>
      </trkpt>
      <trkpt lat="42.12653" lon="2.38808">
        <ele>1335</ele>
        <time>2019-04-12T08:02:40Z</time>
      </trkpt>
      <trkpt lat="42.12659" lon="2.38806">
        <ele>1334.8</ele>
        <time>2019-04-12T08:02:42Z</time>
      </trkpt>
      <trkpt lat="42.12664" lon="2.38804">
        <ele>1334.5</ele>
        <time>2019-04-12T08:02:44Z</time>
      </trkpt>
      <trkpt lat="42.12667" lon="2.38803">
        <ele>1334.5</ele>
        <time>2019-04-12T08:02:45Z</time>
      </trkpt>
      <trkpt lat="42.1267" lon="2.38803">
        <ele>1334.6</ele>
        <time>2019-04-12T08:02:46Z</time>
      </trkpt>
      <trkpt lat="42.12676" lon="2.38806">
        <ele>1334.6</ele>
        <time>2019-04-12T08:02:49Z</time>
      </trkpt>
      <trkpt lat="42.12683" lon="2.3881">
        <ele>1334.1</ele>
        <time>2019-04-12T08:02:52Z</time>
      </trkpt>
      <trkpt lat="42.12692" lon="2.38814">
        <ele>1334.5</ele>
        <time>2019-04-12T08:02:56Z</time>
      </trkpt>
      <trkpt lat="42.12701" lon="2.3882">
        <ele>1334.5</ele>
        <time>2019-04-12T08:03:00Z</time>
      </trkpt>
      <trkpt lat="42.12706" lon="2.38825">
        <ele>1334.5</ele>
        <time>2019-04-12T08:03:02Z</time>
      </trkpt>
      <trkpt lat="42.12709" lon="2.38828">
        <ele>1334.4</ele>
        <time>2019-04-12T08:03:04Z</time>
      </trkpt>
      <trkpt lat="42.12712" lon="2.38829">
        <ele>1334.1</ele>
        <time>2019-04-12T08:03:05Z</time>
      </trkpt>
      <trkpt lat="42.12713" lon="2.38829">
        <ele>1334.2</ele>
        <time>2019-04-12T08:03:06Z</time>
      </trkpt>
      <trkpt lat="42.1272" lon="2.38831">
        <ele>1333</ele>
        <time>2019-04-12T08:03:08Z</time>
      </trkpt>
      <trkpt lat="42.12723" lon="2.38833">
        <ele>1332.5</ele>
        <time>2019-04-12T08:03:10Z</time>
      </trkpt>
      <trkpt lat="42.12727" lon="2.38835">
        <ele>1332.5</ele>
        <time>2019-04-12T08:03:12Z</time>
      </trkpt>
      <trkpt lat="42.1273" lon="2.38836">
        <ele>1332.1</ele>
        <time>2019-04-12T08:03:13Z</time>
      </trkpt>
      <trkpt lat="42.12733" lon="2.38839">
        <ele>1331.5</ele>
        <time>2019-04-12T08:03:14Z</time>
      </trkpt>
      <trkpt lat="42.12736" lon="2.38842">
        <ele>1330.8</ele>
        <time>2019-04-12T08:03:16Z</time>
      </trkpt>
      <trkpt lat="42.12742" lon="2.38844">
        <ele>1329.9</ele>
        <time>2019-04-12T08:03:18Z</time>
      </trkpt>
      <trkpt lat="42.12745" lon="2.38845">
        <ele>1329.4</ele>
        <time>2019-04-12T08:03:19Z</time>
      </trkpt>
      <trkpt lat="42.12749" lon="2.38848">
        <ele>1328.1</ele>
        <time>2019-04-12T08:03:21Z</time>
      </trkpt>
      <trkpt lat="42.12752" lon="2.3885">
        <ele>1328</ele>
        <time>2019-04-12T08:03:23Z</time>
      </trkpt>
      <trkpt lat="42.12756" lon="2.38856">
        <ele>1327.8</ele>
        <time>2019-04-12T08:03:25Z</time>
      </trkpt>
      <trkpt lat="42.12761" lon="2.38858">
        <ele>1327.9</ele>
        <time>2019-04-12T08:03:27Z</time>
      </trkpt>
      <trkpt lat="42.12773" lon="2.38867">
        <ele>1327.4</ele>
        <time>2019-04-12T08:03:32Z</time>
      </trkpt>
      <trkpt lat="42.12776" lon="2.3887">
        <ele>1327.5</ele>
        <time>2019-04-12T08:03:34Z</time>
      </trkpt>
      <trkpt lat="42.12777" lon="2.3887">
        <ele>1327.2</ele>
        <time>2019-04-12T08:03:34Z</time>
      </trkpt>
      <trkpt lat="42.12781" lon="2.38875">
        <ele>1327</ele>
        <time>2019-04-12T08:03:36Z</time>
      </trkpt>
      <trkpt lat="42.12785" lon="2.38877">
        <ele>1326.9</ele>
        <time>2019-04-12T08:03:38Z</time>
      </trkpt>
      <trkpt lat="42.12785" lon="2.38879">
        <ele>1326.8</ele>
        <time>2019-04-12T08:03:39Z</time>
      </trkpt>
      <trkpt lat="42.12787" lon="2.38883">
        <ele>1326.6</ele>
        <time>2019-04-12T08:03:40Z</time>
      </trkpt>
      <trkpt lat="42.12788" lon="2.38884">
        <ele>1326.5</ele>
        <time>2019-04-12T08:03:41Z</time>
      </trkpt>
      <trkpt lat="42.12793" lon="2.38898">
        <ele>1326.5</ele>
        <time>2019-04-12T08:03:45Z</time>
      </trkpt>
      <trkpt lat="42.12794" lon="2.389">
        <ele>1326.4</ele>
        <time>2019-04-12T08:03:46Z</time>
      </trkpt>
      <trkpt lat="42.12795" lon="2.38905">
        <ele>1326.4</ele>
        <time>2019-04-12T08:03:47Z</time>
      </trkpt>
      <trkpt lat="42.12796" lon="2.38908">
        <ele>1326.5</ele>
        <time>2019-04-12T08:03:48Z</time>
      </trkpt>
      <trkpt lat="42.12798" lon="2.38911">
        <ele>1326.2</ele>
        <time>2019-04-12T08:03:49Z</time>
      </trkpt>
      <trkpt lat="42.12803" lon="2.38918">
        <ele>1326.5</ele>
        <time>2019-04-12T08:03:53Z</time>
      </trkpt>
      <trkpt lat="42.12813" lon="2.38932">
        <ele>1325.6</ele>
        <time>2019-04-12T08:03:58Z</time>
      </trkpt>
      <trkpt lat="42.12817" lon="2.3894">
        <ele>1325.2</ele>
        <time>2019-04-12T08:04:01Z</time>
      </trkpt>
      <trkpt lat="42.12818" lon="2.38944">
        <ele>1325</ele>
        <time>2019-04-12T08:04:03Z</time>
      </trkpt>
      <trkpt lat="42.1282" lon="2.38952">
        <ele>1324.9</ele>
        <time>2019-04-12T08:04:05Z</time>
      </trkpt>
      <trkpt lat="42.12821" lon="2.38955">
        <ele>1324.9</ele>
        <time>2019-04-12T08:04:06Z</time>
      </trkpt>
      <trkpt lat="42.12822" lon="2.38958">
        <ele>1324.5</ele>
        <time>2019-04-12T08:04:07Z</time>
      </trkpt>
      <trkpt lat="42.12823" lon="2.38958">
        <ele>1324.5</ele>
        <time>2019-04-12T08:04:07Z</time>
      </trkpt>
      <trkpt lat="42.12827" lon="2.38962">
        <ele>1324.1</ele>
        <time>2019-04-12T08:04:09Z</time>
      </trkpt>
      <trkpt lat="42.12829" lon="2.38965">
        <ele>1323.8</ele>
        <time>2019-04-12T08:04:11Z</time>
      </trkpt>
      <trkpt lat="42.1284" lon="2.38975">
        <ele>1323.4</ele>
        <time>2019-04-12T08:04:16Z</time>
      </trkpt>
      <trkpt lat="42.12848" lon="2.38985">
        <ele>1323.1</ele>
        <time>2019-04-12T08:04:20Z</time>
      </trkpt>
      <trkpt lat="42.12849" lon="2.38986">
        <ele>1322.8</ele>
        <time>2019-04-12T08:04:21Z</time>
      </trkpt>
      <trkpt lat="42.12859" lon="2.38993">
        <ele>1322.8</ele>
        <time>2019-04-12T08:04:25Z</time>
      </trkpt>
      <trkpt lat="42.12869" lon="2.39">
        <ele>1323.1</ele>
        <time>2019-04-12T08:04:30Z</time>
      </trkpt>
      <trkpt lat="42.12872" lon="2.39001">
        <ele>1322.9</ele>
        <time>2019-04-12T08:04:31Z</time>
      </trkpt>
      <trkpt lat="42.12881" lon="2.39007">
        <ele>1322.6</ele>
        <time>2019-04-12T08:04:35Z</time>
      </trkpt>
      <trkpt lat="42.12886" lon="2.3901">
        <ele>1321.9</ele>
        <time>2019-04-12T08:04:37Z</time>
      </trkpt>
      <trkpt lat="42.12892" lon="2.39016">
        <ele>1321.5</ele>
        <time>2019-04-12T08:04:40Z</time>
      </trkpt>
      <trkpt lat="42.12902" lon="2.39029">
        <ele>1322.6</ele>
        <time>2019-04-12T08:04:46Z</time>
      </trkpt>
      <trkpt lat="42.12902" lon="2.39031">
        <ele>1322.8</ele>
        <time>2019-04-12T08:04:46Z</time>
      </trkpt>
      <trkpt lat="42.12902" lon="2.39033">
        <ele>1323</ele>
        <time>2019-04-12T08:04:47Z</time>
      </trkpt>
      <trkpt lat="42.12903" lon="2.39038">
        <ele>1323.1</ele>
        <time>2019-04-12T08:04:49Z</time>
      </trkpt>
      <trkpt lat="42.12907" lon="2.39044">
        <ele>1323.6</ele>
        <time>2019-04-12T08:04:51Z</time>
      </trkpt>
      <trkpt lat="42.12915" lon="2.39056">
        <ele>1323.9</ele>
        <time>2019-04-12T08:04:56Z</time>
      </trkpt>
      <trkpt lat="42.12916" lon="2.39058">
        <ele>1324.1</ele>
        <time>2019-04-12T08:04:57Z</time>
      </trkpt>
      <trkpt lat="42.12922" lon="2.39064">
        <ele>1325.1</ele>
        <time>2019-04-12T08:05:00Z</time>
      </trkpt>
      <trkpt lat="42.12924" lon="2.39068">
        <ele>1325.2</ele>
        <time>2019-04-12T08:05:01Z</time>
      </trkpt>
      <trkpt lat="42.12925" lon="2.39071">
        <ele>1325.1</ele>
        <time>2019-04-12T08:05:02Z</time>
      </trkpt>
      <trkpt lat="42.12927" lon="2.39076">
        <ele>1325.8</ele>
        <time>2019-04-12T08:05:04Z</time>
      </trkpt>
      <trkpt lat="42.12932" lon="2.39084">
        <ele>1325.8</ele>
        <time>2019-04-12T08:05:07Z</time>
      </trkpt>
      <trkpt lat="42.12938" lon="2.39087">
        <ele>1326.1</ele>
        <time>2019-04-12T08:05:09Z</time>
      </trkpt>
      <trkpt lat="42.12941" lon="2.39091">
        <ele>1326.5</ele>
        <time>2019-04-12T08:05:11Z</time>
      </trkpt>
      <trkpt lat="42.12942" lon="2.39092">
        <ele>1326.8</ele>
        <time>2019-04-12T08:05:12Z</time>
      </trkpt>
      <trkpt lat="42.12944" lon="2.39095">
        <ele>1327.1</ele>
        <time>2019-04-12T08:05:13Z</time>
      </trkpt>
      <trkpt lat="42.12945" lon="2.391">
        <ele>1327.1</ele>
        <time>2019-04-12T08:05:14Z</time>
      </trkpt>
      <trkpt lat="42.12948" lon="2.39103">
        <ele>1326.2</ele>
        <time>2019-04-12T08:05:16Z</time>
      </trkpt>
      <trkpt lat="42.12949" lon="2.39104">
        <ele>1326.1</ele>
        <time>2019-04-12T08:05:16Z</time>
      </trkpt>
      <trkpt lat="42.12951" lon="2.39104">
        <ele>1325.8</ele>
        <time>2019-04-12T08:05:17Z</time>
      </trkpt>
      <trkpt lat="42.12952" lon="2.39104">
        <ele>1325.6</ele>
        <time>2019-04-12T08:05:17Z</time>
      </trkpt>
      <trkpt lat="42.12953" lon="2.39105">
        <ele>1325.4</ele>
        <time>2019-04-12T08:05:18Z</time>
      </trkpt>
      <trkpt lat="42.12955" lon="2.39109">
        <ele>1325</ele>
        <time>2019-04-12T08:05:19Z</time>
      </trkpt>
      <trkpt lat="42.12956" lon="2.39111">
        <ele>1324.9</ele>
        <time>2019-04-12T08:05:20Z</time>
      </trkpt>
      <trkpt lat="42.1296" lon="2.39114">
        <ele>1324.1</ele>
        <time>2019-04-12T08:05:21Z</time>
      </trkpt>
      <trkpt lat="42.12964" lon="2.39118">
        <ele>1324</ele>
        <time>2019-04-12T08:05:23Z</time>
      </trkpt>
      <trkpt lat="42.12967" lon="2.39119">
        <ele>1324</ele>
        <time>2019-04-12T08:05:25Z</time>
      </trkpt>
      <trkpt lat="42.12968" lon="2.3912">
        <ele>1323.8</ele>
        <time>2019-04-12T08:05:25Z</time>
      </trkpt>
      <trkpt lat="42.1297" lon="2.39124">
        <ele>1323.6</ele>
        <time>2019-04-12T08:05:27Z</time>
      </trkpt>
      <trkpt lat="42.12975" lon="2.3913">
        <ele>1322.8</ele>
        <time>2019-04-12T08:05:29Z</time>
      </trkpt>
      <trkpt lat="42.12978" lon="2.39133">
        <ele>1322.6</ele>
        <time>2019-04-12T08:05:31Z</time>
      </trkpt>
      <trkpt lat="42.12981" lon="2.39137">
        <ele>1322.4</ele>
        <time>2019-04-12T08:05:32Z</time>
      </trkpt>
      <trkpt lat="42.12984" lon="2.39136">
        <ele>1321.5</ele>
        <time>2019-04-12T08:05:33Z</time>
      </trkpt>
      <trkpt lat="42.12984" lon="2.39137">
        <ele>1321.2</ele>
        <time>2019-04-12T08:05:34Z</time>
      </trkpt>
      <trkpt lat="42.12986" lon="2.39137">
        <ele>1320.9</ele>
        <time>2019-04-12T08:05:34Z</time>
      </trkpt>
      <trkpt lat="42.12987" lon="2.39137">
        <ele>1320.5</ele>
        <time>2019-04-12T08:05:35Z</time>
      </trkpt>
      <trkpt lat="42.1299" lon="2.39137">
        <ele>1319.9</ele>
        <time>2019-04-12T08:05:36Z</time>
      </trkpt>
      <trkpt lat="42.12992" lon="2.39137">
        <ele>1319.5</ele>
        <time>2019-04-12T08:05:37Z</time>
      </trkpt>
      <trkpt lat="42.12993" lon="2.39137">
        <ele>1319.1</ele>
        <time>2019-04-12T08:05:37Z</time>
      </trkpt>
      <trkpt lat="42.12995" lon="2.39134">
        <ele>1318.6</ele>
        <time>2019-04-12T08:05:38Z</time>
      </trkpt>
      <trkpt lat="42.12995" lon="2.39133">
        <ele>1318.5</ele>
        <time>2019-04-12T08:05:39Z</time>
      </trkpt>
      <trkpt lat="42.12995" lon="2.39133">
        <ele>1318.2</ele>
        <time>2019-04-12T08:05:39Z</time>
      </trkpt>
      <trkpt lat="42.12989" lon="2.39128">
        <ele>1317.8</ele>
        <time>2019-04-12T08:05:42Z</time>
      </trkpt>
      <trkpt lat="42.12985" lon="2.39127">
        <ele>1317.5</ele>
        <time>2019-04-12T08:05:43Z</time>
      </trkpt>
      <trkpt lat="42.12983" lon="2.39125">
        <ele>1317.2</ele>
        <time>2019-04-12T08:05:44Z</time>
      </trkpt>
      <trkpt lat="42.12988" lon="2.39131">
        <ele>1317.9</ele>
        <time>2019-04-12T08:05:47Z</time>
      </trkpt>
      <trkpt lat="42.1299" lon="2.39136">
        <ele>1317.9</ele>
        <time>2019-04-12T08:05:48Z</time>
      </trkpt>
      <trkpt lat="42.12991" lon="2.39137">
        <ele>1318</ele>
        <time>2019-04-12T08:05:49Z</time>
      </trkpt>
      <trkpt lat="42.1299" lon="2.39131">
        <ele>1317.9</ele>
        <time>2019-04-12T08:05:51Z</time>
      </trkpt>
      <trkpt lat="42.12987" lon="2.39129">
        <ele>1317.5</ele>
        <time>2019-04-12T08:05:52Z</time>
      </trkpt>
      <trkpt lat="42.12984" lon="2.39129">
        <ele>1317.5</ele>
        <time>2019-04-12T08:05:53Z</time>
      </trkpt>
      <trkpt lat="42.12985" lon="2.39125">
        <ele>1317.9</ele>
        <time>2019-04-12T08:05:54Z</time>
      </trkpt>
      <trkpt lat="42.12985" lon="2.39124">
        <ele>1317.9</ele>
        <time>2019-04-12T08:05:55Z</time>
      </trkpt>
      <trkpt lat="42.12989" lon="2.3913">
        <ele>1318</ele>
        <time>2019-04-12T08:05:57Z</time>
      </trkpt>
      <trkpt lat="42.12989" lon="2.39134">
        <ele>1318.1</ele>
        <time>2019-04-12T08:05:58Z</time>
      </trkpt>
      <trkpt lat="42.1299" lon="2.39135">
        <ele>1318.2</ele>
        <time>2019-04-12T08:05:59Z</time>
      </trkpt>
      <trkpt lat="42.1299" lon="2.39132">
        <ele>1318.1</ele>
        <time>2019-04-12T08:05:59Z</time>
      </trkpt>
      <trkpt lat="42.12989" lon="2.3913">
        <ele>1318</ele>
        <time>2019-04-12T08:06:00Z</time>
      </trkpt>
      <trkpt lat="42.1299" lon="2.39131">
        <ele>1318</ele>
        <time>2019-04-12T08:06:00Z</time>
      </trkpt>
      <trkpt lat="42.1299" lon="2.39131">
        <ele>1318</ele>
        <time>2019-04-12T08:06:00Z</time>
      </trkpt>
      <trkpt lat="42.1299" lon="2.39131">
        <ele>1318.2</ele>
        <time>2019-04-12T08:06:01Z</time>
      </trkpt>
      <trkpt lat="42.12992" lon="2.39128">
        <ele>1318</ele>
        <time>2019-04-12T08:06:02Z</time>
      </trkpt>
      <trkpt lat="42.12997" lon="2.39126">
        <ele>1317</ele>
        <time>2019-04-12T08:06:04Z</time>
      </trkpt>
      <trkpt lat="42.12998" lon="2.39123">
        <ele>1316.5</ele>
        <time>2019-04-12T08:06:05Z</time>
      </trkpt>
      <trkpt lat="42.12999" lon="2.3912">
        <ele>1315.8</ele>
        <time>2019-04-12T08:06:06Z</time>
      </trkpt>
      <trkpt lat="42.13001" lon="2.39117">
        <ele>1315.5</ele>
        <time>2019-04-12T08:06:07Z</time>
      </trkpt>
      <trkpt lat="42.13003" lon="2.39107">
        <ele>1315.1</ele>
        <time>2019-04-12T08:06:10Z</time>
      </trkpt>
      <trkpt lat="42.13003" lon="2.39106">
        <ele>1314.9</ele>
        <time>2019-04-12T08:06:11Z</time>
      </trkpt>
      <trkpt lat="42.13003" lon="2.39105">
        <ele>1314.6</ele>
        <time>2019-04-12T08:06:11Z</time>
      </trkpt>
      <trkpt lat="42.13003" lon="2.39101">
        <ele>1314.4</ele>
        <time>2019-04-12T08:06:12Z</time>
      </trkpt>
      <trkpt lat="42.13003" lon="2.39096">
        <ele>1314.2</ele>
        <time>2019-04-12T08:06:14Z</time>
      </trkpt>
      <trkpt lat="42.13006" lon="2.39085">
        <ele>1313.5</ele>
        <time>2019-04-12T08:06:17Z</time>
      </trkpt>
      <trkpt lat="42.13007" lon="2.39083">
        <ele>1313</ele>
        <time>2019-04-12T08:06:18Z</time>
      </trkpt>
      <trkpt lat="42.13008" lon="2.39076">
        <ele>1312.5</ele>
        <time>2019-04-12T08:06:20Z</time>
      </trkpt>
      <trkpt lat="42.1301" lon="2.39072">
        <ele>1312</ele>
        <time>2019-04-12T08:06:21Z</time>
      </trkpt>
      <trkpt lat="42.13013" lon="2.3907">
        <ele>1311.5</ele>
        <time>2019-04-12T08:06:23Z</time>
      </trkpt>
      <trkpt lat="42.13017" lon="2.39064">
        <ele>1310.5</ele>
        <time>2019-04-12T08:06:25Z</time>
      </trkpt>
      <trkpt lat="42.13019" lon="2.39063">
        <ele>1310</ele>
        <time>2019-04-12T08:06:26Z</time>
      </trkpt>
      <trkpt lat="42.13022" lon="2.39062">
        <ele>1309.2</ele>
        <time>2019-04-12T08:06:27Z</time>
      </trkpt>
      <trkpt lat="42.13025" lon="2.39063">
        <ele>1308.5</ele>
        <time>2019-04-12T08:06:28Z</time>
      </trkpt>
      <trkpt lat="42.13027" lon="2.39064">
        <ele>1308.5</ele>
        <time>2019-04-12T08:06:29Z</time>
      </trkpt>
      <trkpt lat="42.13029" lon="2.39065">
        <ele>1308.2</ele>
        <time>2019-04-12T08:06:30Z</time>
      </trkpt>
      <trkpt lat="42.13032" lon="2.39065">
        <ele>1308</ele>
        <time>2019-04-12T08:06:31Z</time>
      </trkpt>
      <trkpt lat="42.13035" lon="2.39063">
        <ele>1307.8</ele>
        <time>2019-04-12T08:06:33Z</time>
      </trkpt>
      <trkpt lat="42.13036" lon="2.39062">
        <ele>1307.6</ele>
        <time>2019-04-12T08:06:33Z</time>
      </trkpt>
      <trkpt lat="42.13036" lon="2.39061">
        <ele>1307.1</ele>
        <time>2019-04-12T08:06:33Z</time>
      </trkpt>
      <trkpt lat="42.13037" lon="2.3906">
        <ele>1306.8</ele>
        <time>2019-04-12T08:06:34Z</time>
      </trkpt>
      <trkpt lat="42.1304" lon="2.3906">
        <ele>1305.8</ele>
        <time>2019-04-12T08:06:35Z</time>
      </trkpt>
      <trkpt lat="42.13042" lon="2.39061">
        <ele>1305.2</ele>
        <time>2019-04-12T08:06:36Z</time>
      </trkpt>
      <trkpt lat="42.13043" lon="2.3906">
        <ele>1305.1</ele>
        <time>2019-04-12T08:06:36Z</time>
      </trkpt>
      <trkpt lat="42.13044" lon="2.3906">
        <ele>1304.8</ele>
        <time>2019-04-12T08:06:37Z</time>
      </trkpt>
      <trkpt lat="42.13047" lon="2.39058">
        <ele>1303.5</ele>
        <time>2019-04-12T08:06:38Z</time>
      </trkpt>
      <trkpt lat="42.13049" lon="2.39056">
        <ele>1302.5</ele>
        <time>2019-04-12T08:06:39Z</time>
      </trkpt>
      <trkpt lat="42.13051" lon="2.39055">
        <ele>1302</ele>
        <time>2019-04-12T08:06:40Z</time>
      </trkpt>
      <trkpt lat="42.13053" lon="2.39054">
        <ele>1301.5</ele>
        <time>2019-04-12T08:06:41Z</time>
      </trkpt>
      <trkpt lat="42.13057" lon="2.39054">
        <ele>1300.5</ele>
        <time>2019-04-12T08:06:43Z</time>
      </trkpt>
      <trkpt lat="42.13059" lon="2.39053">
        <ele>1300</ele>
        <time>2019-04-12T08:06:43Z</time>
      </trkpt>
      <trkpt lat="42.1306" lon="2.39053">
        <ele>1299.4</ele>
        <time>2019-04-12T08:06:44Z</time>
      </trkpt>
      <trkpt lat="42.13063" lon="2.39053">
        <ele>1299</ele>
        <time>2019-04-12T08:06:45Z</time>
      </trkpt>
      <trkpt lat="42.13064" lon="2.39052">
        <ele>1298.6</ele>
        <time>2019-04-12T08:06:45Z</time>
      </trkpt>
      <trkpt lat="42.13064" lon="2.39051">
        <ele>1298.1</ele>
        <time>2019-04-12T08:06:46Z</time>
      </trkpt>
      <trkpt lat="42.13066" lon="2.3905">
        <ele>1297.4</ele>
        <time>2019-04-12T08:06:46Z</time>
      </trkpt>
      <trkpt lat="42.13068" lon="2.3905">
        <ele>1297.2</ele>
        <time>2019-04-12T08:06:47Z</time>
      </trkpt>
      <trkpt lat="42.13071" lon="2.3905">
        <ele>1296.5</ele>
        <time>2019-04-12T08:06:48Z</time>
      </trkpt>
      <trkpt lat="42.13073" lon="2.3905">
        <ele>1296</ele>
        <time>2019-04-12T08:06:49Z</time>
      </trkpt>
      <trkpt lat="42.13078" lon="2.39049">
        <ele>1294.9</ele>
        <time>2019-04-12T08:06:51Z</time>
      </trkpt>
      <trkpt lat="42.13079" lon="2.39048">
        <ele>1294.2</ele>
        <time>2019-04-12T08:06:52Z</time>
      </trkpt>
      <trkpt lat="42.1308" lon="2.39048">
        <ele>1293.9</ele>
        <time>2019-04-12T08:06:52Z</time>
      </trkpt>
      <trkpt lat="42.13082" lon="2.39048">
        <ele>1293.4</ele>
        <time>2019-04-12T08:06:53Z</time>
      </trkpt>
      <trkpt lat="42.13085" lon="2.39047">
        <ele>1292.8</ele>
        <time>2019-04-12T08:06:54Z</time>
      </trkpt>
      <trkpt lat="42.13087" lon="2.39047">
        <ele>1292.4</ele>
        <time>2019-04-12T08:06:55Z</time>
      </trkpt>
      <trkpt lat="42.13088" lon="2.39046">
        <ele>1292.1</ele>
        <time>2019-04-12T08:06:55Z</time>
      </trkpt>
      <trkpt lat="42.13088" lon="2.39046">
        <ele>1291.9</ele>
        <time>2019-04-12T08:06:56Z</time>
      </trkpt>
      <trkpt lat="42.13089" lon="2.39045">
        <ele>1291.4</ele>
        <time>2019-04-12T08:06:56Z</time>
      </trkpt>
      <trkpt lat="42.1309" lon="2.39045">
        <ele>1291</ele>
        <time>2019-04-12T08:06:56Z</time>
      </trkpt>
      <trkpt lat="42.13092" lon="2.39044">
        <ele>1290.5</ele>
        <time>2019-04-12T08:06:57Z</time>
      </trkpt>
      <trkpt lat="42.13094" lon="2.39043">
        <ele>1290.1</ele>
        <time>2019-04-12T08:06:58Z</time>
      </trkpt>
      <trkpt lat="42.13099" lon="2.39042">
        <ele>1289.1</ele>
        <time>2019-04-12T08:07:00Z</time>
      </trkpt>
      <trkpt lat="42.131" lon="2.39042">
        <ele>1288.9</ele>
        <time>2019-04-12T08:07:00Z</time>
      </trkpt>
      <trkpt lat="42.13103" lon="2.39041">
        <ele>1288.5</ele>
        <time>2019-04-12T08:07:01Z</time>
      </trkpt>
      <trkpt lat="42.13105" lon="2.3904">
        <ele>1287.9</ele>
        <time>2019-04-12T08:07:02Z</time>
      </trkpt>
      <trkpt lat="42.13108" lon="2.39039">
        <ele>1286.8</ele>
        <time>2019-04-12T08:07:03Z</time>
      </trkpt>
      <trkpt lat="42.1311" lon="2.39039">
        <ele>1285.5</ele>
        <time>2019-04-12T08:07:04Z</time>
      </trkpt>
      <trkpt lat="42.13113" lon="2.39038">
        <ele>1285</ele>
        <time>2019-04-12T08:07:06Z</time>
      </trkpt>
      <trkpt lat="42.13114" lon="2.39038">
        <ele>1284.5</ele>
        <time>2019-04-12T08:07:06Z</time>
      </trkpt>
      <trkpt lat="42.13116" lon="2.39038">
        <ele>1283.9</ele>
        <time>2019-04-12T08:07:07Z</time>
      </trkpt>
      <trkpt lat="42.13118" lon="2.39038">
        <ele>1283.5</ele>
        <time>2019-04-12T08:07:08Z</time>
      </trkpt>
      <trkpt lat="42.13123" lon="2.39038">
        <ele>1282.1</ele>
        <time>2019-04-12T08:07:10Z</time>
      </trkpt>
      <trkpt lat="42.13125" lon="2.3904">
        <ele>1281</ele>
        <time>2019-04-12T08:07:11Z</time>
      </trkpt>
      <trkpt lat="42.13126" lon="2.39041">
        <ele>1280.8</ele>
        <time>2019-04-12T08:07:11Z</time>
      </trkpt>
      <trkpt lat="42.13132" lon="2.39041">
        <ele>1279.8</ele>
        <time>2019-04-12T08:07:13Z</time>
      </trkpt>
      <trkpt lat="42.13133" lon="2.3904">
        <ele>1279.2</ele>
        <time>2019-04-12T08:07:14Z</time>
      </trkpt>
      <trkpt lat="42.13134" lon="2.3904">
        <ele>1278.6</ele>
        <time>2019-04-12T08:07:14Z</time>
      </trkpt>
      <trkpt lat="42.13136" lon="2.39041">
        <ele>1278.1</ele>
        <time>2019-04-12T08:07:15Z</time>
      </trkpt>
      <trkpt lat="42.13139" lon="2.39041">
        <ele>1277.4</ele>
        <time>2019-04-12T08:07:16Z</time>
      </trkpt>
      <trkpt lat="42.1314" lon="2.39041">
        <ele>1277.1</ele>
        <time>2019-04-12T08:07:17Z</time>
      </trkpt>
      <trkpt lat="42.13143" lon="2.39041">
        <ele>1276.4</ele>
        <time>2019-04-12T08:07:18Z</time>
      </trkpt>
      <trkpt lat="42.13145" lon="2.39041">
        <ele>1276</ele>
        <time>2019-04-12T08:07:19Z</time>
      </trkpt>
      <trkpt lat="42.13146" lon="2.39041">
        <ele>1275.4</ele>
        <time>2019-04-12T08:07:19Z</time>
      </trkpt>
      <trkpt lat="42.13148" lon="2.39042">
        <ele>1274.9</ele>
        <time>2019-04-12T08:07:20Z</time>
      </trkpt>
      <trkpt lat="42.13152" lon="2.39044">
        <ele>1273.6</ele>
        <time>2019-04-12T08:07:22Z</time>
      </trkpt>
      <trkpt lat="42.13153" lon="2.39045">
        <ele>1273.1</ele>
        <time>2019-04-12T08:07:22Z</time>
      </trkpt>
      <trkpt lat="42.13155" lon="2.39047">
        <ele>1272.9</ele>
        <time>2019-04-12T08:07:23Z</time>
      </trkpt>
      <trkpt lat="42.13156" lon="2.39048">
        <ele>1272.2</ele>
        <time>2019-04-12T08:07:24Z</time>
      </trkpt>
      <trkpt lat="42.13157" lon="2.39049">
        <ele>1271.8</ele>
        <time>2019-04-12T08:07:24Z</time>
      </trkpt>
      <trkpt lat="42.13159" lon="2.39051">
        <ele>1271.1</ele>
        <time>2019-04-12T08:07:25Z</time>
      </trkpt>
      <trkpt lat="42.13161" lon="2.39052">
        <ele>1270.8</ele>
        <time>2019-04-12T08:07:26Z</time>
      </trkpt>
      <trkpt lat="42.13163" lon="2.3905">
        <ele>1270.4</ele>
        <time>2019-04-12T08:07:27Z</time>
      </trkpt>
      <trkpt lat="42.13164" lon="2.39047">
        <ele>1270.1</ele>
        <time>2019-04-12T08:07:28Z</time>
      </trkpt>
      <trkpt lat="42.13166" lon="2.39043">
        <ele>1268.6</ele>
        <time>2019-04-12T08:07:29Z</time>
      </trkpt>
      <trkpt lat="42.13166" lon="2.39041">
        <ele>1267.5</ele>
        <time>2019-04-12T08:07:30Z</time>
      </trkpt>
      <trkpt lat="42.13167" lon="2.39038">
        <ele>1266.5</ele>
        <time>2019-04-12T08:07:31Z</time>
      </trkpt>
      <trkpt lat="42.13168" lon="2.39038">
        <ele>1266.2</ele>
        <time>2019-04-12T08:07:31Z</time>
      </trkpt>
      <trkpt lat="42.13172" lon="2.3904">
        <ele>1265.9</ele>
        <time>2019-04-12T08:07:33Z</time>
      </trkpt>
      <trkpt lat="42.13179" lon="2.39046">
        <ele>1265.1</ele>
        <time>2019-04-12T08:07:36Z</time>
      </trkpt>
      <trkpt lat="42.13179" lon="2.39044">
        <ele>1265.2</ele>
        <time>2019-04-12T08:07:37Z</time>
      </trkpt>
      <trkpt lat="42.13179" lon="2.39043">
        <ele>1265.4</ele>
        <time>2019-04-12T08:07:37Z</time>
      </trkpt>
      <trkpt lat="42.13178" lon="2.39042">
        <ele>1265.5</ele>
        <time>2019-04-12T08:07:38Z</time>
      </trkpt>
      <trkpt lat="42.13176" lon="2.39042">
        <ele>1265.4</ele>
        <time>2019-04-12T08:07:38Z</time>
      </trkpt>
      <trkpt lat="42.13175" lon="2.39041">
        <ele>1265.5</ele>
        <time>2019-04-12T08:07:39Z</time>
      </trkpt>
      <trkpt lat="42.13176" lon="2.39042">
        <ele>1265.5</ele>
        <time>2019-04-12T08:07:40Z</time>
      </trkpt>
      <trkpt lat="42.13174" lon="2.39042">
        <ele>1265.4</ele>
        <time>2019-04-12T08:07:41Z</time>
      </trkpt>
      <trkpt lat="42.13173" lon="2.39039">
        <ele>1265.1</ele>
        <time>2019-04-12T08:07:41Z</time>
      </trkpt>
      <trkpt lat="42.13173" lon="2.39038">
        <ele>1264.1</ele>
        <time>2019-04-12T08:07:42Z</time>
      </trkpt>
      <trkpt lat="42.13175" lon="2.39037">
        <ele>1263.9</ele>
        <time>2019-04-12T08:07:43Z</time>
      </trkpt>
      <trkpt lat="42.13177" lon="2.39038">
        <ele>1263.1</ele>
        <time>2019-04-12T08:07:43Z</time>
      </trkpt>
      <trkpt lat="42.13179" lon="2.3904">
        <ele>1261.5</ele>
        <time>2019-04-12T08:07:44Z</time>
      </trkpt>
      <trkpt lat="42.1318" lon="2.39043">
        <ele>1260.8</ele>
        <time>2019-04-12T08:07:45Z</time>
      </trkpt>
      <trkpt lat="42.1318" lon="2.39044">
        <ele>1260.6</ele>
        <time>2019-04-12T08:07:46Z</time>
      </trkpt>
      <trkpt lat="42.13179" lon="2.39049">
        <ele>1260</ele>
        <time>2019-04-12T08:07:47Z</time>
      </trkpt>
      <trkpt lat="42.13181" lon="2.39055">
        <ele>1260</ele>
        <time>2019-04-12T08:07:49Z</time>
      </trkpt>
      <trkpt lat="42.13183" lon="2.39056">
        <ele>1259.6</ele>
        <time>2019-04-12T08:07:50Z</time>
      </trkpt>
      <trkpt lat="42.13183" lon="2.39054">
        <ele>1259.1</ele>
        <time>2019-04-12T08:07:51Z</time>
      </trkpt>
      <trkpt lat="42.13183" lon="2.39053">
        <ele>1259.2</ele>
        <time>2019-04-12T08:07:51Z</time>
      </trkpt>
      <trkpt lat="42.13179" lon="2.39052">
        <ele>1258.5</ele>
        <time>2019-04-12T08:07:52Z</time>
      </trkpt>
      <trkpt lat="42.13179" lon="2.39053">
        <ele>1258.6</ele>
        <time>2019-04-12T08:07:53Z</time>
      </trkpt>
      <trkpt lat="42.13178" lon="2.39053">
        <ele>1258.5</ele>
        <time>2019-04-12T08:07:53Z</time>
      </trkpt>
      <trkpt lat="42.13177" lon="2.39057">
        <ele>1258.5</ele>
        <time>2019-04-12T08:07:54Z</time>
      </trkpt>
      <trkpt lat="42.1318" lon="2.39066">
        <ele>1258.5</ele>
        <time>2019-04-12T08:07:57Z</time>
      </trkpt>
      <trkpt lat="42.13179" lon="2.39066">
        <ele>1258.2</ele>
        <time>2019-04-12T08:07:57Z</time>
      </trkpt>
      <trkpt lat="42.13178" lon="2.39065">
        <ele>1257.4</ele>
        <time>2019-04-12T08:07:58Z</time>
      </trkpt>
      <trkpt lat="42.13173" lon="2.39067">
        <ele>1257</ele>
        <time>2019-04-12T08:08:00Z</time>
      </trkpt>
      <trkpt lat="42.13165" lon="2.39072">
        <ele>1256.4</ele>
        <time>2019-04-12T08:08:03Z</time>
      </trkpt>
      <trkpt lat="42.13163" lon="2.39072">
        <ele>1256.1</ele>
        <time>2019-04-12T08:08:04Z</time>
      </trkpt>
      <trkpt lat="42.13159" lon="2.39074">
        <ele>1255.9</ele>
        <time>2019-04-12T08:08:06Z</time>
      </trkpt>
      <trkpt lat="42.13158" lon="2.39074">
        <ele>1255.5</ele>
        <time>2019-04-12T08:08:06Z</time>
      </trkpt>
      <trkpt lat="42.13157" lon="2.39075">
        <ele>1255.1</ele>
        <time>2019-04-12T08:08:07Z</time>
      </trkpt>
      <trkpt lat="42.13154" lon="2.39077">
        <ele>1255</ele>
        <time>2019-04-12T08:08:08Z</time>
      </trkpt>
      <trkpt lat="42.13152" lon="2.39078">
        <ele>1255.2</ele>
        <time>2019-04-12T08:08:09Z</time>
      </trkpt>
      <trkpt lat="42.13152" lon="2.39079">
        <ele>1255.4</ele>
        <time>2019-04-12T08:08:09Z</time>
      </trkpt>
      <trkpt lat="42.13151" lon="2.39082">
        <ele>1255.6</ele>
        <time>2019-04-12T08:08:10Z</time>
      </trkpt>
      <trkpt lat="42.1315" lon="2.39085">
        <ele>1255.9</ele>
        <time>2019-04-12T08:08:11Z</time>
      </trkpt>
      <trkpt lat="42.13149" lon="2.39086">
        <ele>1255.8</ele>
        <time>2019-04-12T08:08:12Z</time>
      </trkpt>
      <trkpt lat="42.13148" lon="2.39087">
        <ele>1255.5</ele>
        <time>2019-04-12T08:08:12Z</time>
      </trkpt>
      <trkpt lat="42.13148" lon="2.3909">
        <ele>1255.4</ele>
        <time>2019-04-12T08:08:13Z</time>
      </trkpt>
      <trkpt lat="42.13145" lon="2.39094">
        <ele>1254.9</ele>
        <time>2019-04-12T08:08:14Z</time>
      </trkpt>
      <trkpt lat="42.13137" lon="2.39097">
        <ele>1254.2</ele>
        <time>2019-04-12T08:08:18Z</time>
      </trkpt>
      <trkpt lat="42.13134" lon="2.39099">
        <ele>1253.4</ele>
        <time>2019-04-12T08:08:19Z</time>
      </trkpt>
      <trkpt lat="42.13133" lon="2.39101">
        <ele>1253.5</ele>
        <time>2019-04-12T08:08:20Z</time>
      </trkpt>
      <trkpt lat="42.13129" lon="2.39107">
        <ele>1253.4</ele>
        <time>2019-04-12T08:08:22Z</time>
      </trkpt>
      <trkpt lat="42.1313" lon="2.3911">
        <ele>1253.8</ele>
        <time>2019-04-12T08:08:23Z</time>
      </trkpt>
      <trkpt lat="42.13129" lon="2.39111">
        <ele>1254.1</ele>
        <time>2019-04-12T08:08:24Z</time>
      </trkpt>
      <trkpt lat="42.13127" lon="2.39111">
        <ele>1254.5</ele>
        <time>2019-04-12T08:08:25Z</time>
      </trkpt>
      <trkpt lat="42.13125" lon="2.39111">
        <ele>1254.5</ele>
        <time>2019-04-12T08:08:25Z</time>
      </trkpt>
      <trkpt lat="42.13118" lon="2.39111">
        <ele>1255</ele>
        <time>2019-04-12T08:08:28Z</time>
      </trkpt>
      <trkpt lat="42.13118" lon="2.39114">
        <ele>1255.1</ele>
        <time>2019-04-12T08:08:29Z</time>
      </trkpt>
      <trkpt lat="42.13119" lon="2.39116">
        <ele>1255.1</ele>
        <time>2019-04-12T08:08:30Z</time>
      </trkpt>
      <trkpt lat="42.13121" lon="2.39117">
        <ele>1255.1</ele>
        <time>2019-04-12T08:08:30Z</time>
      </trkpt>
      <trkpt lat="42.1312" lon="2.39117">
        <ele>1255.5</ele>
        <time>2019-04-12T08:08:31Z</time>
      </trkpt>
      <trkpt lat="42.13117" lon="2.39117">
        <ele>1255.9</ele>
        <time>2019-04-12T08:08:32Z</time>
      </trkpt>
      <trkpt lat="42.13116" lon="2.39118">
        <ele>1256.1</ele>
        <time>2019-04-12T08:08:32Z</time>
      </trkpt>
      <trkpt lat="42.13115" lon="2.39121">
        <ele>1255.8</ele>
        <time>2019-04-12T08:08:33Z</time>
      </trkpt>
      <trkpt lat="42.13109" lon="2.39121">
        <ele>1256.1</ele>
        <time>2019-04-12T08:08:36Z</time>
      </trkpt>
      <trkpt lat="42.13108" lon="2.39122">
        <ele>1255.9</ele>
        <time>2019-04-12T08:08:36Z</time>
      </trkpt>
      <trkpt lat="42.13105" lon="2.39125">
        <ele>1255.6</ele>
        <time>2019-04-12T08:08:38Z</time>
      </trkpt>
      <trkpt lat="42.13103" lon="2.39128">
        <ele>1255</ele>
        <time>2019-04-12T08:08:39Z</time>
      </trkpt>
      <trkpt lat="42.13102" lon="2.39129">
        <ele>1254.8</ele>
        <time>2019-04-12T08:08:39Z</time>
      </trkpt>
      <trkpt lat="42.13101" lon="2.3913">
        <ele>1254.1</ele>
        <time>2019-04-12T08:08:40Z</time>
      </trkpt>
      <trkpt lat="42.13101" lon="2.3913">
        <ele>1254</ele>
        <time>2019-04-12T08:08:40Z</time>
      </trkpt>
      <trkpt lat="42.13101" lon="2.39131">
        <ele>1253.9</ele>
        <time>2019-04-12T08:08:40Z</time>
      </trkpt>
      <trkpt lat="42.13102" lon="2.39132">
        <ele>1253.5</ele>
        <time>2019-04-12T08:08:41Z</time>
      </trkpt>
      <trkpt lat="42.13103" lon="2.39134">
        <ele>1253.1</ele>
        <time>2019-04-12T08:08:41Z</time>
      </trkpt>
      <trkpt lat="42.13104" lon="2.39136">
        <ele>1252.8</ele>
        <time>2019-04-12T08:08:42Z</time>
      </trkpt>
      <trkpt lat="42.13104" lon="2.39137">
        <ele>1252.9</ele>
        <time>2019-04-12T08:08:43Z</time>
      </trkpt>
      <trkpt lat="42.13105" lon="2.39139">
        <ele>1252.6</ele>
        <time>2019-04-12T08:08:43Z</time>
      </trkpt>
      <trkpt lat="42.13105" lon="2.39139">
        <ele>1252.5</ele>
        <time>2019-04-12T08:08:43Z</time>
      </trkpt>
      <trkpt lat="42.13108" lon="2.39143">
        <ele>1251.8</ele>
        <time>2019-04-12T08:08:45Z</time>
      </trkpt>
      <trkpt lat="42.13108" lon="2.39143">
        <ele>1250.6</ele>
        <time>2019-04-12T08:08:45Z</time>
      </trkpt>
      <trkpt lat="42.13107" lon="2.39143">
        <ele>1250.1</ele>
        <time>2019-04-12T08:08:46Z</time>
      </trkpt>
      <trkpt lat="42.13107" lon="2.39143">
        <ele>1249.8</ele>
        <time>2019-04-12T08:08:46Z</time>
      </trkpt>
      <trkpt lat="42.13106" lon="2.39141">
        <ele>1249.4</ele>
        <time>2019-04-12T08:08:47Z</time>
      </trkpt>
      <trkpt lat="42.13105" lon="2.39139">
        <ele>1249.2</ele>
        <time>2019-04-12T08:08:47Z</time>
      </trkpt>
      <trkpt lat="42.13103" lon="2.39143">
        <ele>1248.5</ele>
        <time>2019-04-12T08:08:49Z</time>
      </trkpt>
      <trkpt lat="42.13102" lon="2.39142">
        <ele>1248.4</ele>
        <time>2019-04-12T08:08:49Z</time>
      </trkpt>
      <trkpt lat="42.13104" lon="2.39143">
        <ele>1248</ele>
        <time>2019-04-12T08:08:51Z</time>
      </trkpt>
      <trkpt lat="42.13106" lon="2.39142">
        <ele>1247.9</ele>
        <time>2019-04-12T08:08:51Z</time>
      </trkpt>
      <trkpt lat="42.13109" lon="2.39139">
        <ele>1247.2</ele>
        <time>2019-04-12T08:08:53Z</time>
      </trkpt>
      <trkpt lat="42.13111" lon="2.39137">
        <ele>1246.2</ele>
        <time>2019-04-12T08:08:54Z</time>
      </trkpt>
      <trkpt lat="42.13111" lon="2.39137">
        <ele>1246</ele>
        <time>2019-04-12T08:08:54Z</time>
      </trkpt>
      <trkpt lat="42.13111" lon="2.39137">
        <ele>1245</ele>
        <time>2019-04-12T08:08:54Z</time>
      </trkpt>
      <trkpt lat="42.1311" lon="2.39136">
        <ele>1243.9</ele>
        <time>2019-04-12T08:08:54Z</time>
      </trkpt>
      <trkpt lat="42.13111" lon="2.39137">
        <ele>1243.5</ele>
        <time>2019-04-12T08:08:55Z</time>
      </trkpt>
      <trkpt lat="42.13111" lon="2.39137">
        <ele>1243.4</ele>
        <time>2019-04-12T08:08:55Z</time>
      </trkpt>
      <trkpt lat="42.13111" lon="2.39138">
        <ele>1243</ele>
        <time>2019-04-12T08:08:55Z</time>
      </trkpt>
      <trkpt lat="42.1311" lon="2.39138">
        <ele>1242.9</ele>
        <time>2019-04-12T08:08:55Z</time>
      </trkpt>
      <trkpt lat="42.1311" lon="2.39139">
        <ele>1242.5</ele>
        <time>2019-04-12T08:08:56Z</time>
      </trkpt>
      <trkpt lat="42.13108" lon="2.39144">
        <ele>1241.5</ele>
        <time>2019-04-12T08:08:58Z</time>
      </trkpt>
      <trkpt lat="42.13106" lon="2.39147">
        <ele>1241</ele>
        <time>2019-04-12T08:08:58Z</time>
      </trkpt>
      <trkpt lat="42.13107" lon="2.3915">
        <ele>1240.6</ele>
        <time>2019-04-12T08:08:59Z</time>
      </trkpt>
      <trkpt lat="42.13109" lon="2.39149">
        <ele>1240.5</ele>
        <time>2019-04-12T08:09:00Z</time>
      </trkpt>
      <trkpt lat="42.13109" lon="2.39149">
        <ele>1240</ele>
        <time>2019-04-12T08:09:00Z</time>
      </trkpt>
      <trkpt lat="42.1311" lon="2.39153">
        <ele>1239.2</ele>
        <time>2019-04-12T08:09:01Z</time>
      </trkpt>
      <trkpt lat="42.1311" lon="2.39154">
        <ele>1239.1</ele>
        <time>2019-04-12T08:09:02Z</time>
      </trkpt>
      <trkpt lat="42.13107" lon="2.39156">
        <ele>1238.5</ele>
        <time>2019-04-12T08:09:03Z</time>
      </trkpt>
      <trkpt lat="42.13106" lon="2.39156">
        <ele>1238.5</ele>
        <time>2019-04-12T08:09:03Z</time>
      </trkpt>
      <trkpt lat="42.13102" lon="2.39158">
        <ele>1238.6</ele>
        <time>2019-04-12T08:09:05Z</time>
      </trkpt>
      <trkpt lat="42.13101" lon="2.3916">
        <ele>1238.9</ele>
        <time>2019-04-12T08:09:06Z</time>
      </trkpt>
      <trkpt lat="42.131" lon="2.39163">
        <ele>1238.8</ele>
        <time>2019-04-12T08:09:07Z</time>
      </trkpt>
      <trkpt lat="42.131" lon="2.39165">
        <ele>1238.6</ele>
        <time>2019-04-12T08:09:07Z</time>
      </trkpt>
      <trkpt lat="42.131" lon="2.39166">
        <ele>1238.4</ele>
        <time>2019-04-12T08:09:08Z</time>
      </trkpt>
      <trkpt lat="42.131" lon="2.39167">
        <ele>1238.5</ele>
        <time>2019-04-12T08:09:08Z</time>
      </trkpt>
      <trkpt lat="42.13099" lon="2.39167">
        <ele>1238.1</ele>
        <time>2019-04-12T08:09:08Z</time>
      </trkpt>
      <trkpt lat="42.13099" lon="2.39169">
        <ele>1238.5</ele>
        <time>2019-04-12T08:09:09Z</time>
      </trkpt>
      <trkpt lat="42.13098" lon="2.39169">
        <ele>1238.2</ele>
        <time>2019-04-12T08:09:09Z</time>
      </trkpt>
      <trkpt lat="42.13096" lon="2.39169">
        <ele>1238.1</ele>
        <time>2019-04-12T08:09:10Z</time>
      </trkpt>
      <trkpt lat="42.13095" lon="2.39169">
        <ele>1238</ele>
        <time>2019-04-12T08:09:11Z</time>
      </trkpt>
      <trkpt lat="42.13094" lon="2.3917">
        <ele>1238</ele>
        <time>2019-04-12T08:09:11Z</time>
      </trkpt>
      <trkpt lat="42.13093" lon="2.39173">
        <ele>1237.5</ele>
        <time>2019-04-12T08:09:12Z</time>
      </trkpt>
      <trkpt lat="42.13093" lon="2.39177">
        <ele>1237</ele>
        <time>2019-04-12T08:09:13Z</time>
      </trkpt>
      <trkpt lat="42.13091" lon="2.39177">
        <ele>1236.2</ele>
        <time>2019-04-12T08:09:14Z</time>
      </trkpt>
      <trkpt lat="42.1309" lon="2.39177">
        <ele>1236</ele>
        <time>2019-04-12T08:09:15Z</time>
      </trkpt>
      <trkpt lat="42.13086" lon="2.39182">
        <ele>1234.8</ele>
        <time>2019-04-12T08:09:17Z</time>
      </trkpt>
      <trkpt lat="42.13084" lon="2.39182">
        <ele>1234.4</ele>
        <time>2019-04-12T08:09:17Z</time>
      </trkpt>
      <trkpt lat="42.13083" lon="2.39183">
        <ele>1234.1</ele>
        <time>2019-04-12T08:09:18Z</time>
      </trkpt>
      <trkpt lat="42.13079" lon="2.39184">
        <ele>1234.1</ele>
        <time>2019-04-12T08:09:19Z</time>
      </trkpt>
      <trkpt lat="42.13077" lon="2.39184">
        <ele>1233.9</ele>
        <time>2019-04-12T08:09:20Z</time>
      </trkpt>
      <trkpt lat="42.13073" lon="2.39185">
        <ele>1233.9</ele>
        <time>2019-04-12T08:09:22Z</time>
      </trkpt>
      <trkpt lat="42.13072" lon="2.39186">
        <ele>1233.8</ele>
        <time>2019-04-12T08:09:23Z</time>
      </trkpt>
      <trkpt lat="42.13068" lon="2.39187">
        <ele>1233.5</ele>
        <time>2019-04-12T08:09:24Z</time>
      </trkpt>
      <trkpt lat="42.13066" lon="2.3919">
        <ele>1233.4</ele>
        <time>2019-04-12T08:09:25Z</time>
      </trkpt>
      <trkpt lat="42.13066" lon="2.3919">
        <ele>1233.5</ele>
        <time>2019-04-12T08:09:25Z</time>
      </trkpt>
      <trkpt lat="42.13066" lon="2.39194">
        <ele>1233.1</ele>
        <time>2019-04-12T08:09:26Z</time>
      </trkpt>
      <trkpt lat="42.13066" lon="2.39194">
        <ele>1232.9</ele>
        <time>2019-04-12T08:09:27Z</time>
      </trkpt>
      <trkpt lat="42.13066" lon="2.39194">
        <ele>1232.9</ele>
        <time>2019-04-12T08:09:27Z</time>
      </trkpt>
      <trkpt lat="42.13066" lon="2.39194">
        <ele>1232.8</ele>
        <time>2019-04-12T08:09:27Z</time>
      </trkpt>
      <trkpt lat="42.13066" lon="2.39193">
        <ele>1232.6</ele>
        <time>2019-04-12T08:09:27Z</time>
      </trkpt>
      <trkpt lat="42.13068" lon="2.39192">
        <ele>1232.5</ele>
        <time>2019-04-12T08:09:28Z</time>
      </trkpt>
      <trkpt lat="42.13068" lon="2.39192">
        <ele>1232.1</ele>
        <time>2019-04-12T08:09:28Z</time>
      </trkpt>
      <trkpt lat="42.13068" lon="2.39193">
        <ele>1231.9</ele>
        <time>2019-04-12T08:09:28Z</time>
      </trkpt>
      <trkpt lat="42.13068" lon="2.39193">
        <ele>1231.5</ele>
        <time>2019-04-12T08:09:28Z</time>
      </trkpt>
      <trkpt lat="42.13069" lon="2.39193">
        <ele>1231.5</ele>
        <time>2019-04-12T08:09:28Z</time>
      </trkpt>
      <trkpt lat="42.13068" lon="2.39193">
        <ele>1231.5</ele>
        <time>2019-04-12T08:09:28Z</time>
      </trkpt>
      <trkpt lat="42.13068" lon="2.39192">
        <ele>1231.2</ele>
        <time>2019-04-12T08:09:29Z</time>
      </trkpt>
      <trkpt lat="42.13067" lon="2.39192">
        <ele>1231.1</ele>
        <time>2019-04-12T08:09:29Z</time>
      </trkpt>
      <trkpt lat="42.13065" lon="2.39195">
        <ele>1230.5</ele>
        <time>2019-04-12T08:09:30Z</time>
      </trkpt>
      <trkpt lat="42.13062" lon="2.39197">
        <ele>1230.2</ele>
        <time>2019-04-12T08:09:31Z</time>
      </trkpt>
      <trkpt lat="42.1306" lon="2.39199">
        <ele>1229.6</ele>
        <time>2019-04-12T08:09:32Z</time>
      </trkpt>
      <trkpt lat="42.1306" lon="2.39199">
        <ele>1229.4</ele>
        <time>2019-04-12T08:09:33Z</time>
      </trkpt>
      <trkpt lat="42.13059" lon="2.39199">
        <ele>1229.5</ele>
        <time>2019-04-12T08:09:33Z</time>
      </trkpt>
      <trkpt lat="42.1306" lon="2.392">
        <ele>1229.1</ele>
        <time>2019-04-12T08:09:33Z</time>
      </trkpt>
      <trkpt lat="42.1306" lon="2.39201">
        <ele>1229.1</ele>
        <time>2019-04-12T08:09:33Z</time>
      </trkpt>
      <trkpt lat="42.1306" lon="2.39202">
        <ele>1229</ele>
        <time>2019-04-12T08:09:33Z</time>
      </trkpt>
      <trkpt lat="42.13057" lon="2.39205">
        <ele>1228.4</ele>
        <time>2019-04-12T08:09:35Z</time>
      </trkpt>
      <trkpt lat="42.13054" lon="2.39208">
        <ele>1228.1</ele>
        <time>2019-04-12T08:09:36Z</time>
      </trkpt>
      <trkpt lat="42.13053" lon="2.39214">
        <ele>1228.5</ele>
        <time>2019-04-12T08:09:38Z</time>
      </trkpt>
      <trkpt lat="42.13053" lon="2.39214">
        <ele>1228.4</ele>
        <time>2019-04-12T08:09:38Z</time>
      </trkpt>
      <trkpt lat="42.13051" lon="2.39214">
        <ele>1228.1</ele>
        <time>2019-04-12T08:09:39Z</time>
      </trkpt>
      <trkpt lat="42.13051" lon="2.3922">
        <ele>1227.1</ele>
        <time>2019-04-12T08:09:41Z</time>
      </trkpt>
      <trkpt lat="42.13052" lon="2.39221">
        <ele>1227.2</ele>
        <time>2019-04-12T08:09:41Z</time>
      </trkpt>
      <trkpt lat="42.13052" lon="2.3922">
        <ele>1226.2</ele>
        <time>2019-04-12T08:09:42Z</time>
      </trkpt>
      <trkpt lat="42.13052" lon="2.39221">
        <ele>1225.5</ele>
        <time>2019-04-12T08:09:42Z</time>
      </trkpt>
      <trkpt lat="42.13052" lon="2.39224">
        <ele>1225.4</ele>
        <time>2019-04-12T08:09:43Z</time>
      </trkpt>
      <trkpt lat="42.13052" lon="2.39227">
        <ele>1225.1</ele>
        <time>2019-04-12T08:09:44Z</time>
      </trkpt>
      <trkpt lat="42.13051" lon="2.39228">
        <ele>1224.5</ele>
        <time>2019-04-12T08:09:44Z</time>
      </trkpt>
      <trkpt lat="42.1305" lon="2.39228">
        <ele>1224.1</ele>
        <time>2019-04-12T08:09:44Z</time>
      </trkpt>
      <trkpt lat="42.1305" lon="2.3923">
        <ele>1224.1</ele>
        <time>2019-04-12T08:09:45Z</time>
      </trkpt>
      <trkpt lat="42.13049" lon="2.39232">
        <ele>1223.9</ele>
        <time>2019-04-12T08:09:46Z</time>
      </trkpt>
      <trkpt lat="42.13048" lon="2.39233">
        <ele>1222.9</ele>
        <time>2019-04-12T08:09:46Z</time>
      </trkpt>
      <trkpt lat="42.13048" lon="2.39233">
        <ele>1222.5</ele>
        <time>2019-04-12T08:09:46Z</time>
      </trkpt>
      <trkpt lat="42.13049" lon="2.39229">
        <ele>1221.8</ele>
        <time>2019-04-12T08:09:47Z</time>
      </trkpt>
      <trkpt lat="42.13049" lon="2.39229">
        <ele>1221.4</ele>
        <time>2019-04-12T08:09:47Z</time>
      </trkpt>
      <trkpt lat="42.13051" lon="2.39228">
        <ele>1220.4</ele>
        <time>2019-04-12T08:09:48Z</time>
      </trkpt>
      <trkpt lat="42.13053" lon="2.39228">
        <ele>1219.6</ele>
        <time>2019-04-12T08:09:49Z</time>
      </trkpt>
      <trkpt lat="42.13052" lon="2.39231">
        <ele>1219.2</ele>
        <time>2019-04-12T08:09:50Z</time>
      </trkpt>
      <trkpt lat="42.13052" lon="2.39232">
        <ele>1219.1</ele>
        <time>2019-04-12T08:09:50Z</time>
      </trkpt>
      <trkpt lat="42.13051" lon="2.39232">
        <ele>1218.5</ele>
        <time>2019-04-12T08:09:51Z</time>
      </trkpt>
      <trkpt lat="42.13051" lon="2.39235">
        <ele>1218</ele>
        <time>2019-04-12T08:09:51Z</time>
      </trkpt>
      <trkpt lat="42.13054" lon="2.39236">
        <ele>1217.1</ele>
        <time>2019-04-12T08:09:53Z</time>
      </trkpt>
      <trkpt lat="42.13055" lon="2.39236">
        <ele>1216.9</ele>
        <time>2019-04-12T08:09:53Z</time>
      </trkpt>
      <trkpt lat="42.13055" lon="2.39236">
        <ele>1215.6</ele>
        <time>2019-04-12T08:09:53Z</time>
      </trkpt>
      <trkpt lat="42.13053" lon="2.39244">
        <ele>1214.6</ele>
        <time>2019-04-12T08:09:56Z</time>
      </trkpt>
      <trkpt lat="42.13053" lon="2.39244">
        <ele>1214.6</ele>
        <time>2019-04-12T08:09:56Z</time>
      </trkpt>
      <trkpt lat="42.13059" lon="2.39245">
        <ele>1213.6</ele>
        <time>2019-04-12T08:09:58Z</time>
      </trkpt>
      <trkpt lat="42.1306" lon="2.39244">
        <ele>1213.6</ele>
        <time>2019-04-12T08:09:58Z</time>
      </trkpt>
      <trkpt lat="42.13061" lon="2.39242">
        <ele>1212.9</ele>
        <time>2019-04-12T08:09:59Z</time>
      </trkpt>
      <trkpt lat="42.13061" lon="2.39241">
        <ele>1212.4</ele>
        <time>2019-04-12T08:09:59Z</time>
      </trkpt>
      <trkpt lat="42.1306" lon="2.3924">
        <ele>1211.9</ele>
        <time>2019-04-12T08:10:00Z</time>
      </trkpt>
      <trkpt lat="42.13059" lon="2.39245">
        <ele>1211.1</ele>
        <time>2019-04-12T08:10:01Z</time>
      </trkpt>
      <trkpt lat="42.13059" lon="2.39245">
        <ele>1211</ele>
        <time>2019-04-12T08:10:01Z</time>
      </trkpt>
      <trkpt lat="42.13059" lon="2.39246">
        <ele>1210.8</ele>
        <time>2019-04-12T08:10:02Z</time>
      </trkpt>
      <trkpt lat="42.13059" lon="2.39247">
        <ele>1210.4</ele>
        <time>2019-04-12T08:10:02Z</time>
      </trkpt>
      <trkpt lat="42.13058" lon="2.39246">
        <ele>1210.2</ele>
        <time>2019-04-12T08:10:03Z</time>
      </trkpt>
      <trkpt lat="42.13057" lon="2.39247">
        <ele>1210</ele>
        <time>2019-04-12T08:10:03Z</time>
      </trkpt>
      <trkpt lat="42.13059" lon="2.39251">
        <ele>1209.1</ele>
        <time>2019-04-12T08:10:04Z</time>
      </trkpt>
      <trkpt lat="42.13059" lon="2.39251">
        <ele>1207.9</ele>
        <time>2019-04-12T08:10:04Z</time>
      </trkpt>
      <trkpt lat="42.13061" lon="2.39254">
        <ele>1207.1</ele>
        <time>2019-04-12T08:10:06Z</time>
      </trkpt>
      <trkpt lat="42.13062" lon="2.39253">
        <ele>1206.8</ele>
        <time>2019-04-12T08:10:06Z</time>
      </trkpt>
      <trkpt lat="42.13063" lon="2.39252">
        <ele>1206.6</ele>
        <time>2019-04-12T08:10:07Z</time>
      </trkpt>
      <trkpt lat="42.13063" lon="2.39253">
        <ele>1206.2</ele>
        <time>2019-04-12T08:10:07Z</time>
      </trkpt>
      <trkpt lat="42.13063" lon="2.39252">
        <ele>1205.5</ele>
        <time>2019-04-12T08:10:07Z</time>
      </trkpt>
      <trkpt lat="42.13064" lon="2.3925">
        <ele>1205</ele>
        <time>2019-04-12T08:10:08Z</time>
      </trkpt>
      <trkpt lat="42.13065" lon="2.39249">
        <ele>1204.4</ele>
        <time>2019-04-12T08:10:08Z</time>
      </trkpt>
      <trkpt lat="42.13065" lon="2.39248">
        <ele>1203.6</ele>
        <time>2019-04-12T08:10:09Z</time>
      </trkpt>
      <trkpt lat="42.13066" lon="2.39248">
        <ele>1203.5</ele>
        <time>2019-04-12T08:10:09Z</time>
      </trkpt>
      <trkpt lat="42.13066" lon="2.39249">
        <ele>1203.1</ele>
        <time>2019-04-12T08:10:09Z</time>
      </trkpt>
      <trkpt lat="42.13063" lon="2.39254">
        <ele>1203</ele>
        <time>2019-04-12T08:10:11Z</time>
      </trkpt>
      <trkpt lat="42.13064" lon="2.39257">
        <ele>1202.5</ele>
        <time>2019-04-12T08:10:12Z</time>
      </trkpt>
      <trkpt lat="42.13065" lon="2.39258">
        <ele>1201.5</ele>
        <time>2019-04-12T08:10:13Z</time>
      </trkpt>
      <trkpt lat="42.13065" lon="2.39258">
        <ele>1201.6</ele>
        <time>2019-04-12T08:10:13Z</time>
      </trkpt>
      <trkpt lat="42.13065" lon="2.39258">
        <ele>1201.5</ele>
        <time>2019-04-12T08:10:13Z</time>
      </trkpt>
      <trkpt lat="42.13065" lon="2.39258">
        <ele>1201.4</ele>
        <time>2019-04-12T08:10:13Z</time>
      </trkpt>
      <trkpt lat="42.13065" lon="2.39258">
        <ele>1201.1</ele>
        <time>2019-04-12T08:10:13Z</time>
      </trkpt>
      <trkpt lat="42.13064" lon="2.39261">
        <ele>1200.4</ele>
        <time>2019-04-12T08:10:14Z</time>
      </trkpt>
      <trkpt lat="42.13063" lon="2.39262">
        <ele>1200.4</ele>
        <time>2019-04-12T08:10:15Z</time>
      </trkpt>
      <trkpt lat="42.13062" lon="2.39264">
        <ele>1200.1</ele>
        <time>2019-04-12T08:10:15Z</time>
      </trkpt>
      <trkpt lat="42.13061" lon="2.39265">
        <ele>1199</ele>
        <time>2019-04-12T08:10:16Z</time>
      </trkpt>
      <trkpt lat="42.13062" lon="2.39264">
        <ele>1198.1</ele>
        <time>2019-04-12T08:10:16Z</time>
      </trkpt>
      <trkpt lat="42.13062" lon="2.39264">
        <ele>1197.8</ele>
        <time>2019-04-12T08:10:17Z</time>
      </trkpt>
      <trkpt lat="42.13065" lon="2.39262">
        <ele>1197.4</ele>
        <time>2019-04-12T08:10:18Z</time>
      </trkpt>
      <trkpt lat="42.13067" lon="2.39259">
        <ele>1196.5</ele>
        <time>2019-04-12T08:10:19Z</time>
      </trkpt>
      <trkpt lat="42.13068" lon="2.39262">
        <ele>1196</ele>
        <time>2019-04-12T08:10:20Z</time>
      </trkpt>
      <trkpt lat="42.13068" lon="2.39263">
        <ele>1195.9</ele>
        <time>2019-04-12T08:10:20Z</time>
      </trkpt>
      <trkpt lat="42.13068" lon="2.39263">
        <ele>1195.6</ele>
        <time>2019-04-12T08:10:20Z</time>
      </trkpt>
      <trkpt lat="42.13068" lon="2.39267">
        <ele>1194.4</ele>
        <time>2019-04-12T08:10:21Z</time>
      </trkpt>
      <trkpt lat="42.13068" lon="2.39269">
        <ele>1193.8</ele>
        <time>2019-04-12T08:10:22Z</time>
      </trkpt>
      <trkpt lat="42.13067" lon="2.39269">
        <ele>1193.5</ele>
        <time>2019-04-12T08:10:22Z</time>
      </trkpt>
      <trkpt lat="42.13068" lon="2.3927">
        <ele>1193.4</ele>
        <time>2019-04-12T08:10:22Z</time>
      </trkpt>
      <trkpt lat="42.13069" lon="2.39271">
        <ele>1193.1</ele>
        <time>2019-04-12T08:10:23Z</time>
      </trkpt>
      <trkpt lat="42.13069" lon="2.3927">
        <ele>1193.2</ele>
        <time>2019-04-12T08:10:23Z</time>
      </trkpt>
      <trkpt lat="42.13068" lon="2.39271">
        <ele>1192.4</ele>
        <time>2019-04-12T08:10:24Z</time>
      </trkpt>
      <trkpt lat="42.13067" lon="2.39273">
        <ele>1192.2</ele>
        <time>2019-04-12T08:10:24Z</time>
      </trkpt>
      <trkpt lat="42.13067" lon="2.39273">
        <ele>1192.1</ele>
        <time>2019-04-12T08:10:24Z</time>
      </trkpt>
      <trkpt lat="42.13068" lon="2.39272">
        <ele>1191.1</ele>
        <time>2019-04-12T08:10:25Z</time>
      </trkpt>
      <trkpt lat="42.13067" lon="2.3928">
        <ele>1190</ele>
        <time>2019-04-12T08:10:27Z</time>
      </trkpt>
      <trkpt lat="42.13066" lon="2.39282">
        <ele>1189.4</ele>
        <time>2019-04-12T08:10:28Z</time>
      </trkpt>
      <trkpt lat="42.13065" lon="2.39283">
        <ele>1188.8</ele>
        <time>2019-04-12T08:10:29Z</time>
      </trkpt>
      <trkpt lat="42.13065" lon="2.39288">
        <ele>1188</ele>
        <time>2019-04-12T08:10:30Z</time>
      </trkpt>
      <trkpt lat="42.13065" lon="2.39289">
        <ele>1187.6</ele>
        <time>2019-04-12T08:10:30Z</time>
      </trkpt>
      <trkpt lat="42.13062" lon="2.39292">
        <ele>1186.4</ele>
        <time>2019-04-12T08:10:32Z</time>
      </trkpt>
      <trkpt lat="42.1306" lon="2.39295">
        <ele>1186.1</ele>
        <time>2019-04-12T08:10:33Z</time>
      </trkpt>
      <trkpt lat="42.13059" lon="2.39296">
        <ele>1185.6</ele>
        <time>2019-04-12T08:10:33Z</time>
      </trkpt>
      <trkpt lat="42.13058" lon="2.39298">
        <ele>1185.5</ele>
        <time>2019-04-12T08:10:34Z</time>
      </trkpt>
      <trkpt lat="42.13057" lon="2.393">
        <ele>1185.1</ele>
        <time>2019-04-12T08:10:35Z</time>
      </trkpt>
      <trkpt lat="42.13057" lon="2.39301">
        <ele>1185</ele>
        <time>2019-04-12T08:10:35Z</time>
      </trkpt>
      <trkpt lat="42.13056" lon="2.39302">
        <ele>1185</ele>
        <time>2019-04-12T08:10:36Z</time>
      </trkpt>
      <trkpt lat="42.13054" lon="2.39305">
        <ele>1185</ele>
        <time>2019-04-12T08:10:37Z</time>
      </trkpt>
      <trkpt lat="42.13053" lon="2.39305">
        <ele>1185</ele>
        <time>2019-04-12T08:10:37Z</time>
      </trkpt>
      <trkpt lat="42.13051" lon="2.39306">
        <ele>1185.1</ele>
        <time>2019-04-12T08:10:38Z</time>
      </trkpt>
      <trkpt lat="42.13048" lon="2.39308">
        <ele>1185.8</ele>
        <time>2019-04-12T08:10:39Z</time>
      </trkpt>
      <trkpt lat="42.13046" lon="2.3931">
        <ele>1186.5</ele>
        <time>2019-04-12T08:10:41Z</time>
      </trkpt>
      <trkpt lat="42.13044" lon="2.39311">
        <ele>1186.9</ele>
        <time>2019-04-12T08:10:42Z</time>
      </trkpt>
      <trkpt lat="42.13041" lon="2.39312">
        <ele>1187.4</ele>
        <time>2019-04-12T08:10:43Z</time>
      </trkpt>
      <trkpt lat="42.1304" lon="2.39313">
        <ele>1187.8</ele>
        <time>2019-04-12T08:10:43Z</time>
      </trkpt>
      <trkpt lat="42.1304" lon="2.39314">
        <ele>1188.1</ele>
        <time>2019-04-12T08:10:43Z</time>
      </trkpt>
      <trkpt lat="42.1304" lon="2.39315">
        <ele>1188.4</ele>
        <time>2019-04-12T08:10:44Z</time>
      </trkpt>
      <trkpt lat="42.1304" lon="2.39316">
        <ele>1188.6</ele>
        <time>2019-04-12T08:10:44Z</time>
      </trkpt>
      <trkpt lat="42.1304" lon="2.39317">
        <ele>1188.6</ele>
        <time>2019-04-12T08:10:45Z</time>
      </trkpt>
      <trkpt lat="42.1304" lon="2.39318">
        <ele>1188.5</ele>
        <time>2019-04-12T08:10:45Z</time>
      </trkpt>
      <trkpt lat="42.1304" lon="2.3932">
        <ele>1188.5</ele>
        <time>2019-04-12T08:10:45Z</time>
      </trkpt>
      <trkpt lat="42.13041" lon="2.39327">
        <ele>1188.1</ele>
        <time>2019-04-12T08:10:47Z</time>
      </trkpt>
      <trkpt lat="42.13041" lon="2.39331">
        <ele>1187.1</ele>
        <time>2019-04-12T08:10:49Z</time>
      </trkpt>
      <trkpt lat="42.1304" lon="2.39334">
        <ele>1186.6</ele>
        <time>2019-04-12T08:10:50Z</time>
      </trkpt>
      <trkpt lat="42.13039" lon="2.39335">
        <ele>1186.5</ele>
        <time>2019-04-12T08:10:50Z</time>
      </trkpt>
      <trkpt lat="42.13039" lon="2.39341">
        <ele>1186.1</ele>
        <time>2019-04-12T08:10:52Z</time>
      </trkpt>
      <trkpt lat="42.13038" lon="2.39343">
        <ele>1185.6</ele>
        <time>2019-04-12T08:10:53Z</time>
      </trkpt>
      <trkpt lat="42.13038" lon="2.39344">
        <ele>1185.4</ele>
        <time>2019-04-12T08:10:53Z</time>
      </trkpt>
      <trkpt lat="42.13037" lon="2.39346">
        <ele>1185</ele>
        <time>2019-04-12T08:10:54Z</time>
      </trkpt>
      <trkpt lat="42.13035" lon="2.39352">
        <ele>1184.5</ele>
        <time>2019-04-12T08:10:55Z</time>
      </trkpt>
      <trkpt lat="42.13034" lon="2.39354">
        <ele>1184.1</ele>
        <time>2019-04-12T08:10:56Z</time>
      </trkpt>
      <trkpt lat="42.13033" lon="2.39356">
        <ele>1183.2</ele>
        <time>2019-04-12T08:10:57Z</time>
      </trkpt>
      <trkpt lat="42.13033" lon="2.39357">
        <ele>1182.8</ele>
        <time>2019-04-12T08:10:57Z</time>
      </trkpt>
      <trkpt lat="42.13032" lon="2.3936">
        <ele>1182</ele>
        <time>2019-04-12T08:10:58Z</time>
      </trkpt>
      <trkpt lat="42.13032" lon="2.39362">
        <ele>1181.8</ele>
        <time>2019-04-12T08:10:59Z</time>
      </trkpt>
      <trkpt lat="42.13031" lon="2.39364">
        <ele>1181.1</ele>
        <time>2019-04-12T08:11:00Z</time>
      </trkpt>
      <trkpt lat="42.1303" lon="2.39366">
        <ele>1180.9</ele>
        <time>2019-04-12T08:11:00Z</time>
      </trkpt>
      <trkpt lat="42.1303" lon="2.39367">
        <ele>1180.9</ele>
        <time>2019-04-12T08:11:01Z</time>
      </trkpt>
      <trkpt lat="42.13025" lon="2.39374">
        <ele>1180.1</ele>
        <time>2019-04-12T08:11:03Z</time>
      </trkpt>
      <trkpt lat="42.13023" lon="2.39378">
        <ele>1179.5</ele>
        <time>2019-04-12T08:11:05Z</time>
      </trkpt>
      <trkpt lat="42.13022" lon="2.39382">
        <ele>1179.1</ele>
        <time>2019-04-12T08:11:06Z</time>
      </trkpt>
      <trkpt lat="42.13022" lon="2.39381">
        <ele>1179.1</ele>
        <time>2019-04-12T08:11:06Z</time>
      </trkpt>
      <trkpt lat="42.13021" lon="2.39384">
        <ele>1179.4</ele>
        <time>2019-04-12T08:11:07Z</time>
      </trkpt>
      <trkpt lat="42.1302" lon="2.39385">
        <ele>1179.2</ele>
        <time>2019-04-12T08:11:08Z</time>
      </trkpt>
      <trkpt lat="42.1302" lon="2.39386">
        <ele>1179.1</ele>
        <time>2019-04-12T08:11:08Z</time>
      </trkpt>
      <trkpt lat="42.1302" lon="2.39389">
        <ele>1178.8</ele>
        <time>2019-04-12T08:11:09Z</time>
      </trkpt>
      <trkpt lat="42.1302" lon="2.3939">
        <ele>1178.4</ele>
        <time>2019-04-12T08:11:09Z</time>
      </trkpt>
      <trkpt lat="42.1302" lon="2.39394">
        <ele>1177.8</ele>
        <time>2019-04-12T08:11:10Z</time>
      </trkpt>
      <trkpt lat="42.13019" lon="2.39396">
        <ele>1177.4</ele>
        <time>2019-04-12T08:11:11Z</time>
      </trkpt>
      <trkpt lat="42.13019" lon="2.39397">
        <ele>1177.2</ele>
        <time>2019-04-12T08:11:11Z</time>
      </trkpt>
      <trkpt lat="42.13019" lon="2.39398">
        <ele>1177</ele>
        <time>2019-04-12T08:11:12Z</time>
      </trkpt>
      <trkpt lat="42.13017" lon="2.39402">
        <ele>1176.6</ele>
        <time>2019-04-12T08:11:13Z</time>
      </trkpt>
      <trkpt lat="42.13016" lon="2.39404">
        <ele>1176.4</ele>
        <time>2019-04-12T08:11:14Z</time>
      </trkpt>
      <trkpt lat="42.13016" lon="2.39405">
        <ele>1176.1</ele>
        <time>2019-04-12T08:11:14Z</time>
      </trkpt>
      <trkpt lat="42.13015" lon="2.39409">
        <ele>1175.9</ele>
        <time>2019-04-12T08:11:15Z</time>
      </trkpt>
      <trkpt lat="42.13014" lon="2.39415">
        <ele>1175</ele>
        <time>2019-04-12T08:11:17Z</time>
      </trkpt>
      <trkpt lat="42.13012" lon="2.39418">
        <ele>1174.6</ele>
        <time>2019-04-12T08:11:18Z</time>
      </trkpt>
      <trkpt lat="42.1301" lon="2.3942">
        <ele>1173.5</ele>
        <time>2019-04-12T08:11:19Z</time>
      </trkpt>
      <trkpt lat="42.1301" lon="2.39421">
        <ele>1173.1</ele>
        <time>2019-04-12T08:11:20Z</time>
      </trkpt>
      <trkpt lat="42.13009" lon="2.39423">
        <ele>1172.5</ele>
        <time>2019-04-12T08:11:20Z</time>
      </trkpt>
      <trkpt lat="42.13005" lon="2.39428">
        <ele>1171.6</ele>
        <time>2019-04-12T08:11:22Z</time>
      </trkpt>
      <trkpt lat="42.13004" lon="2.39429">
        <ele>1171.4</ele>
        <time>2019-04-12T08:11:23Z</time>
      </trkpt>
      <trkpt lat="42.13002" lon="2.39433">
        <ele>1170.4</ele>
        <time>2019-04-12T08:11:24Z</time>
      </trkpt>
      <trkpt lat="42.13001" lon="2.39434">
        <ele>1170.2</ele>
        <time>2019-04-12T08:11:25Z</time>
      </trkpt>
      <trkpt lat="42.13" lon="2.39435">
        <ele>1169.6</ele>
        <time>2019-04-12T08:11:26Z</time>
      </trkpt>
      <trkpt lat="42.12999" lon="2.39437">
        <ele>1169.2</ele>
        <time>2019-04-12T08:11:26Z</time>
      </trkpt>
      <trkpt lat="42.12999" lon="2.39438">
        <ele>1169</ele>
        <time>2019-04-12T08:11:26Z</time>
      </trkpt>
      <trkpt lat="42.13" lon="2.39439">
        <ele>1167.9</ele>
        <time>2019-04-12T08:11:27Z</time>
      </trkpt>
      <trkpt lat="42.13001" lon="2.3944">
        <ele>1167.5</ele>
        <time>2019-04-12T08:11:28Z</time>
      </trkpt>
      <trkpt lat="42.13002" lon="2.39442">
        <ele>1167</ele>
        <time>2019-04-12T08:11:28Z</time>
      </trkpt>
      <trkpt lat="42.13002" lon="2.39443">
        <ele>1166.5</ele>
        <time>2019-04-12T08:11:29Z</time>
      </trkpt>
      <trkpt lat="42.13003" lon="2.39446">
        <ele>1165.6</ele>
        <time>2019-04-12T08:11:29Z</time>
      </trkpt>
      <trkpt lat="42.13003" lon="2.3945">
        <ele>1164.5</ele>
        <time>2019-04-12T08:11:31Z</time>
      </trkpt>
      <trkpt lat="42.13004" lon="2.3945">
        <ele>1163.4</ele>
        <time>2019-04-12T08:11:31Z</time>
      </trkpt>
      <trkpt lat="42.13004" lon="2.3945">
        <ele>1163.2</ele>
        <time>2019-04-12T08:11:31Z</time>
      </trkpt>
      <trkpt lat="42.13004" lon="2.3945">
        <ele>1163</ele>
        <time>2019-04-12T08:11:31Z</time>
      </trkpt>
      <trkpt lat="42.13006" lon="2.39453">
        <ele>1162.2</ele>
        <time>2019-04-12T08:11:32Z</time>
      </trkpt>
      <trkpt lat="42.13005" lon="2.39456">
        <ele>1161.5</ele>
        <time>2019-04-12T08:11:33Z</time>
      </trkpt>
      <trkpt lat="42.13005" lon="2.39456">
        <ele>1161.1</ele>
        <time>2019-04-12T08:11:33Z</time>
      </trkpt>
      <trkpt lat="42.13004" lon="2.39459">
        <ele>1160.4</ele>
        <time>2019-04-12T08:11:34Z</time>
      </trkpt>
      <trkpt lat="42.13004" lon="2.39461">
        <ele>1159.8</ele>
        <time>2019-04-12T08:11:35Z</time>
      </trkpt>
      <trkpt lat="42.13005" lon="2.39463">
        <ele>1159.4</ele>
        <time>2019-04-12T08:11:35Z</time>
      </trkpt>
      <trkpt lat="42.13005" lon="2.39464">
        <ele>1159</ele>
        <time>2019-04-12T08:11:35Z</time>
      </trkpt>
      <trkpt lat="42.13004" lon="2.39465">
        <ele>1158.6</ele>
        <time>2019-04-12T08:11:36Z</time>
      </trkpt>
      <trkpt lat="42.13004" lon="2.39468">
        <ele>1157.8</ele>
        <time>2019-04-12T08:11:37Z</time>
      </trkpt>
      <trkpt lat="42.13003" lon="2.39472">
        <ele>1157.5</ele>
        <time>2019-04-12T08:11:38Z</time>
      </trkpt>
      <trkpt lat="42.13002" lon="2.39473">
        <ele>1157.1</ele>
        <time>2019-04-12T08:11:38Z</time>
      </trkpt>
      <trkpt lat="42.13001" lon="2.39475">
        <ele>1157.1</ele>
        <time>2019-04-12T08:11:39Z</time>
      </trkpt>
      <trkpt lat="42.13" lon="2.39477">
        <ele>1156.5</ele>
        <time>2019-04-12T08:11:40Z</time>
      </trkpt>
      <trkpt lat="42.13" lon="2.39479">
        <ele>1156.2</ele>
        <time>2019-04-12T08:11:40Z</time>
      </trkpt>
      <trkpt lat="42.13" lon="2.3948">
        <ele>1156.1</ele>
        <time>2019-04-12T08:11:41Z</time>
      </trkpt>
      <trkpt lat="42.13" lon="2.39483">
        <ele>1155.5</ele>
        <time>2019-04-12T08:11:42Z</time>
      </trkpt>
      <trkpt lat="42.12999" lon="2.39485">
        <ele>1155</ele>
        <time>2019-04-12T08:11:42Z</time>
      </trkpt>
      <trkpt lat="42.12997" lon="2.39491">
        <ele>1154.1</ele>
        <time>2019-04-12T08:11:44Z</time>
      </trkpt>
      <trkpt lat="42.12996" lon="2.39492">
        <ele>1154</ele>
        <time>2019-04-12T08:11:45Z</time>
      </trkpt>
      <trkpt lat="42.12995" lon="2.39492">
        <ele>1153.9</ele>
        <time>2019-04-12T08:11:45Z</time>
      </trkpt>
      <trkpt lat="42.12994" lon="2.39494">
        <ele>1153.1</ele>
        <time>2019-04-12T08:11:46Z</time>
      </trkpt>
      <trkpt lat="42.12994" lon="2.39497">
        <ele>1152.6</ele>
        <time>2019-04-12T08:11:47Z</time>
      </trkpt>
      <trkpt lat="42.12992" lon="2.39501">
        <ele>1152.1</ele>
        <time>2019-04-12T08:11:48Z</time>
      </trkpt>
      <trkpt lat="42.12992" lon="2.39503">
        <ele>1151.8</ele>
        <time>2019-04-12T08:11:49Z</time>
      </trkpt>
      <trkpt lat="42.12993" lon="2.39508">
        <ele>1150.9</ele>
        <time>2019-04-12T08:11:50Z</time>
      </trkpt>
      <trkpt lat="42.12993" lon="2.39512">
        <ele>1150.6</ele>
        <time>2019-04-12T08:11:52Z</time>
      </trkpt>
      <trkpt lat="42.12991" lon="2.39519">
        <ele>1150.4</ele>
        <time>2019-04-12T08:11:54Z</time>
      </trkpt>
      <trkpt lat="42.12988" lon="2.39525">
        <ele>1149.9</ele>
        <time>2019-04-12T08:11:56Z</time>
      </trkpt>
      <trkpt lat="42.12988" lon="2.39525">
        <ele>1149.5</ele>
        <time>2019-04-12T08:11:56Z</time>
      </trkpt>
      <trkpt lat="42.12985" lon="2.39523">
        <ele>1149.4</ele>
        <time>2019-04-12T08:11:57Z</time>
      </trkpt>
      <trkpt lat="42.12985" lon="2.39522">
        <ele>1149.5</ele>
        <time>2019-04-12T08:11:58Z</time>
      </trkpt>
      <trkpt lat="42.12987" lon="2.39521">
        <ele>1149.4</ele>
        <time>2019-04-12T08:11:59Z</time>
      </trkpt>
      <trkpt lat="42.12985" lon="2.39519">
        <ele>1149.5</ele>
        <time>2019-04-12T08:12:00Z</time>
      </trkpt>
      <trkpt lat="42.12985" lon="2.39517">
        <ele>1149.6</ele>
        <time>2019-04-12T08:12:00Z</time>
      </trkpt>
      <trkpt lat="42.12987" lon="2.39523">
        <ele>1149</ele>
        <time>2019-04-12T08:12:02Z</time>
      </trkpt>
      <trkpt lat="42.12987" lon="2.39524">
        <ele>1149.1</ele>
        <time>2019-04-12T08:12:02Z</time>
      </trkpt>
      <trkpt lat="42.12987" lon="2.39525">
        <ele>1149.1</ele>
        <time>2019-04-12T08:12:03Z</time>
      </trkpt>
      <trkpt lat="42.12988" lon="2.39521">
        <ele>1149.1</ele>
        <time>2019-04-12T08:12:04Z</time>
      </trkpt>
      <trkpt lat="42.12987" lon="2.39526">
        <ele>1149.2</ele>
        <time>2019-04-12T08:12:05Z</time>
      </trkpt>
      <trkpt lat="42.12991" lon="2.39527">
        <ele>1149</ele>
        <time>2019-04-12T08:12:07Z</time>
      </trkpt>
      <trkpt lat="42.1299" lon="2.39527">
        <ele>1149.1</ele>
        <time>2019-04-12T08:12:08Z</time>
      </trkpt>
      <trkpt lat="42.12989" lon="2.39527">
        <ele>1149</ele>
        <time>2019-04-12T08:12:08Z</time>
      </trkpt>
      <trkpt lat="42.12987" lon="2.39527">
        <ele>1149</ele>
        <time>2019-04-12T08:12:09Z</time>
      </trkpt>
      <trkpt lat="42.12985" lon="2.39527">
        <ele>1149.1</ele>
        <time>2019-04-12T08:12:10Z</time>
      </trkpt>
      <trkpt lat="42.12985" lon="2.39529">
        <ele>1149.1</ele>
        <time>2019-04-12T08:12:10Z</time>
      </trkpt>
      <trkpt lat="42.12985" lon="2.39529">
        <ele>1149</ele>
        <time>2019-04-12T08:12:10Z</time>
      </trkpt>
      <trkpt lat="42.12985" lon="2.3953">
        <ele>1149</ele>
        <time>2019-04-12T08:12:11Z</time>
      </trkpt>
      <trkpt lat="42.1299" lon="2.39528">
        <ele>1148.8</ele>
        <time>2019-04-12T08:12:13Z</time>
      </trkpt>
      <trkpt lat="42.1299" lon="2.39528">
        <ele>1148.9</ele>
        <time>2019-04-12T08:12:13Z</time>
      </trkpt>
      <trkpt lat="42.12989" lon="2.39529">
        <ele>1148.8</ele>
        <time>2019-04-12T08:12:13Z</time>
      </trkpt>
      <trkpt lat="42.12986" lon="2.39528">
        <ele>1148.6</ele>
        <time>2019-04-12T08:12:15Z</time>
      </trkpt>
      <trkpt lat="42.12982" lon="2.39529">
        <ele>1148.5</ele>
        <time>2019-04-12T08:12:16Z</time>
      </trkpt>
      <trkpt lat="42.12982" lon="2.3953">
        <ele>1149.1</ele>
        <time>2019-04-12T08:12:17Z</time>
      </trkpt>
      <trkpt lat="42.12982" lon="2.39527">
        <ele>1148.8</ele>
        <time>2019-04-12T08:12:18Z</time>
      </trkpt>
      <trkpt lat="42.12982" lon="2.39526">
        <ele>1148.8</ele>
        <time>2019-04-12T08:12:18Z</time>
      </trkpt>
      <trkpt lat="42.12982" lon="2.39524">
        <ele>1148.9</ele>
        <time>2019-04-12T08:12:18Z</time>
      </trkpt>
      <trkpt lat="42.12985" lon="2.39525">
        <ele>1148.6</ele>
        <time>2019-04-12T08:12:20Z</time>
      </trkpt>
      <trkpt lat="42.12985" lon="2.39525">
        <ele>1148.6</ele>
        <time>2019-04-12T08:12:20Z</time>
      </trkpt>
      <trkpt lat="42.12984" lon="2.39517">
        <ele>1148.8</ele>
        <time>2019-04-12T08:12:22Z</time>
      </trkpt>
      <trkpt lat="42.12985" lon="2.39514">
        <ele>1149.2</ele>
        <time>2019-04-12T08:12:23Z</time>
      </trkpt>
      <trkpt lat="42.12983" lon="2.39519">
        <ele>1149.5</ele>
        <time>2019-04-12T08:12:25Z</time>
      </trkpt>
      <trkpt lat="42.12986" lon="2.39522">
        <ele>1149.6</ele>
        <time>2019-04-12T08:12:27Z</time>
      </trkpt>
      <trkpt lat="42.1299" lon="2.39524">
        <ele>1149.5</ele>
        <time>2019-04-12T08:12:28Z</time>
      </trkpt>
      <trkpt lat="42.12999" lon="2.39527">
        <ele>1149.2</ele>
        <time>2019-04-12T08:12:32Z</time>
      </trkpt>
      <trkpt lat="42.13001" lon="2.39528">
        <ele>1148.5</ele>
        <time>2019-04-12T08:12:33Z</time>
      </trkpt>
      <trkpt lat="42.13004" lon="2.39531">
        <ele>1147.5</ele>
        <time>2019-04-12T08:12:34Z</time>
      </trkpt>
      <trkpt lat="42.13008" lon="2.39534">
        <ele>1147.1</ele>
        <time>2019-04-12T08:12:36Z</time>
      </trkpt>
      <trkpt lat="42.1301" lon="2.39536">
        <ele>1146.6</ele>
        <time>2019-04-12T08:12:37Z</time>
      </trkpt>
      <trkpt lat="42.13013" lon="2.39536">
        <ele>1146.2</ele>
        <time>2019-04-12T08:12:38Z</time>
      </trkpt>
      <trkpt lat="42.13016" lon="2.39537">
        <ele>1145.4</ele>
        <time>2019-04-12T08:12:40Z</time>
      </trkpt>
      <trkpt lat="42.13018" lon="2.39538">
        <ele>1144.9</ele>
        <time>2019-04-12T08:12:40Z</time>
      </trkpt>
      <trkpt lat="42.13019" lon="2.39541">
        <ele>1144.1</ele>
        <time>2019-04-12T08:12:41Z</time>
      </trkpt>
      <trkpt lat="42.13021" lon="2.39545">
        <ele>1143.2</ele>
        <time>2019-04-12T08:12:43Z</time>
      </trkpt>
      <trkpt lat="42.13025" lon="2.39548">
        <ele>1142.5</ele>
        <time>2019-04-12T08:12:45Z</time>
      </trkpt>
      <trkpt lat="42.13033" lon="2.39551">
        <ele>1142.4</ele>
        <time>2019-04-12T08:12:48Z</time>
      </trkpt>
      <trkpt lat="42.13041" lon="2.39558">
        <ele>1142.5</ele>
        <time>2019-04-12T08:12:52Z</time>
      </trkpt>
      <trkpt lat="42.13044" lon="2.3956">
        <ele>1142.1</ele>
        <time>2019-04-12T08:12:53Z</time>
      </trkpt>
      <trkpt lat="42.13046" lon="2.39561">
        <ele>1141.8</ele>
        <time>2019-04-12T08:12:54Z</time>
      </trkpt>
      <trkpt lat="42.13054" lon="2.39569">
        <ele>1141.1</ele>
        <time>2019-04-12T08:12:58Z</time>
      </trkpt>
      <trkpt lat="42.13055" lon="2.3957">
        <ele>1141</ele>
        <time>2019-04-12T08:12:59Z</time>
      </trkpt>
      <trkpt lat="42.13057" lon="2.39571">
        <ele>1140.8</ele>
        <time>2019-04-12T08:12:59Z</time>
      </trkpt>
      <trkpt lat="42.1306" lon="2.39575">
        <ele>1140.2</ele>
        <time>2019-04-12T08:13:01Z</time>
      </trkpt>
      <trkpt lat="42.13062" lon="2.39576">
        <ele>1140.1</ele>
        <time>2019-04-12T08:13:02Z</time>
      </trkpt>
      <trkpt lat="42.13063" lon="2.39576">
        <ele>1140</ele>
        <time>2019-04-12T08:13:02Z</time>
      </trkpt>
      <trkpt lat="42.13065" lon="2.39576">
        <ele>1139.8</ele>
        <time>2019-04-12T08:13:03Z</time>
      </trkpt>
      <trkpt lat="42.1307" lon="2.3958">
        <ele>1139.4</ele>
        <time>2019-04-12T08:13:05Z</time>
      </trkpt>
      <trkpt lat="42.13075" lon="2.39584">
        <ele>1139.2</ele>
        <time>2019-04-12T08:13:08Z</time>
      </trkpt>
      <trkpt lat="42.13078" lon="2.39584">
        <ele>1139.1</ele>
        <time>2019-04-12T08:13:09Z</time>
      </trkpt>
      <trkpt lat="42.1308" lon="2.39585">
        <ele>1138.9</ele>
        <time>2019-04-12T08:13:10Z</time>
      </trkpt>
      <trkpt lat="42.13083" lon="2.39587">
        <ele>1138.5</ele>
        <time>2019-04-12T08:13:11Z</time>
      </trkpt>
      <trkpt lat="42.13087" lon="2.39592">
        <ele>1138.1</ele>
        <time>2019-04-12T08:13:13Z</time>
      </trkpt>
      <trkpt lat="42.13089" lon="2.39593">
        <ele>1138</ele>
        <time>2019-04-12T08:13:14Z</time>
      </trkpt>
      <trkpt lat="42.13092" lon="2.39594">
        <ele>1137.9</ele>
        <time>2019-04-12T08:13:15Z</time>
      </trkpt>
      <trkpt lat="42.13094" lon="2.39595">
        <ele>1137.1</ele>
        <time>2019-04-12T08:13:16Z</time>
      </trkpt>
      <trkpt lat="42.13096" lon="2.39599">
        <ele>1137.1</ele>
        <time>2019-04-12T08:13:17Z</time>
      </trkpt>
      <trkpt lat="42.13097" lon="2.396">
        <ele>1136.9</ele>
        <time>2019-04-12T08:13:18Z</time>
      </trkpt>
      <trkpt lat="42.13102" lon="2.39604">
        <ele>1136.5</ele>
        <time>2019-04-12T08:13:20Z</time>
      </trkpt>
      <trkpt lat="42.13105" lon="2.39604">
        <ele>1136.1</ele>
        <time>2019-04-12T08:13:21Z</time>
      </trkpt>
      <trkpt lat="42.13109" lon="2.39605">
        <ele>1136.1</ele>
        <time>2019-04-12T08:13:23Z</time>
      </trkpt>
      <trkpt lat="42.13113" lon="2.39605">
        <ele>1135.8</ele>
        <time>2019-04-12T08:13:24Z</time>
      </trkpt>
      <trkpt lat="42.13114" lon="2.39606">
        <ele>1135.6</ele>
        <time>2019-04-12T08:13:25Z</time>
      </trkpt>
      <trkpt lat="42.13118" lon="2.39606">
        <ele>1135</ele>
        <time>2019-04-12T08:13:27Z</time>
      </trkpt>
      <trkpt lat="42.13119" lon="2.39606">
        <ele>1134.8</ele>
        <time>2019-04-12T08:13:27Z</time>
      </trkpt>
      <trkpt lat="42.1312" lon="2.39605">
        <ele>1134.6</ele>
        <time>2019-04-12T08:13:27Z</time>
      </trkpt>
      <trkpt lat="42.1312" lon="2.39604">
        <ele>1134.6</ele>
        <time>2019-04-12T08:13:28Z</time>
      </trkpt>
      <trkpt lat="42.13121" lon="2.39604">
        <ele>1134.5</ele>
        <time>2019-04-12T08:13:28Z</time>
      </trkpt>
      <trkpt lat="42.13122" lon="2.39605">
        <ele>1134.1</ele>
        <time>2019-04-12T08:13:29Z</time>
      </trkpt>
      <trkpt lat="42.13122" lon="2.39608">
        <ele>1133.5</ele>
        <time>2019-04-12T08:13:29Z</time>
      </trkpt>
      <trkpt lat="42.13122" lon="2.39608">
        <ele>1133.5</ele>
        <time>2019-04-12T08:13:30Z</time>
      </trkpt>
      <trkpt lat="42.13122" lon="2.39607">
        <ele>1133.1</ele>
        <time>2019-04-12T08:13:30Z</time>
      </trkpt>
      <trkpt lat="42.13122" lon="2.39604">
        <ele>1132.5</ele>
        <time>2019-04-12T08:13:31Z</time>
      </trkpt>
      <trkpt lat="42.13122" lon="2.39603">
        <ele>1132.4</ele>
        <time>2019-04-12T08:13:31Z</time>
      </trkpt>
      <trkpt lat="42.13124" lon="2.39601">
        <ele>1132.1</ele>
        <time>2019-04-12T08:13:32Z</time>
      </trkpt>
      <trkpt lat="42.13126" lon="2.39599">
        <ele>1132</ele>
        <time>2019-04-12T08:13:33Z</time>
      </trkpt>
      <trkpt lat="42.1313" lon="2.39599">
        <ele>1131.4</ele>
        <time>2019-04-12T08:13:35Z</time>
      </trkpt>
      <trkpt lat="42.13133" lon="2.39601">
        <ele>1130.6</ele>
        <time>2019-04-12T08:13:36Z</time>
      </trkpt>
      <trkpt lat="42.13132" lon="2.39596">
        <ele>1130.1</ele>
        <time>2019-04-12T08:13:37Z</time>
      </trkpt>
      <trkpt lat="42.13131" lon="2.39596">
        <ele>1129.5</ele>
        <time>2019-04-12T08:13:38Z</time>
      </trkpt>
      <trkpt lat="42.13123" lon="2.39596">
        <ele>1129.2</ele>
        <time>2019-04-12T08:13:41Z</time>
      </trkpt>
      <trkpt lat="42.13122" lon="2.39595">
        <ele>1129</ele>
        <time>2019-04-12T08:13:41Z</time>
      </trkpt>
      <trkpt lat="42.13123" lon="2.39594">
        <ele>1128.5</ele>
        <time>2019-04-12T08:13:42Z</time>
      </trkpt>
      <trkpt lat="42.13123" lon="2.39593">
        <ele>1128.5</ele>
        <time>2019-04-12T08:13:42Z</time>
      </trkpt>
      <trkpt lat="42.13124" lon="2.39592">
        <ele>1128.2</ele>
        <time>2019-04-12T08:13:43Z</time>
      </trkpt>
      <trkpt lat="42.13124" lon="2.39591">
        <ele>1127.9</ele>
        <time>2019-04-12T08:13:43Z</time>
      </trkpt>
      <trkpt lat="42.13124" lon="2.39591">
        <ele>1127.5</ele>
        <time>2019-04-12T08:13:43Z</time>
      </trkpt>
      <trkpt lat="42.13122" lon="2.39589">
        <ele>1127.1</ele>
        <time>2019-04-12T08:13:44Z</time>
      </trkpt>
      <trkpt lat="42.13121" lon="2.39587">
        <ele>1127.1</ele>
        <time>2019-04-12T08:13:45Z</time>
      </trkpt>
      <trkpt lat="42.13119" lon="2.39583">
        <ele>1126.5</ele>
        <time>2019-04-12T08:13:46Z</time>
      </trkpt>
      <trkpt lat="42.13119" lon="2.39582">
        <ele>1126.1</ele>
        <time>2019-04-12T08:13:47Z</time>
      </trkpt>
      <trkpt lat="42.1312" lon="2.39577">
        <ele>1125</ele>
        <time>2019-04-12T08:13:48Z</time>
      </trkpt>
      <trkpt lat="42.1312" lon="2.39577">
        <ele>1124.8</ele>
        <time>2019-04-12T08:13:48Z</time>
      </trkpt>
      <trkpt lat="42.13123" lon="2.39576">
        <ele>1124</ele>
        <time>2019-04-12T08:13:49Z</time>
      </trkpt>
      <trkpt lat="42.13123" lon="2.39577">
        <ele>1123.9</ele>
        <time>2019-04-12T08:13:50Z</time>
      </trkpt>
      <trkpt lat="42.13122" lon="2.39578">
        <ele>1123</ele>
        <time>2019-04-12T08:13:50Z</time>
      </trkpt>
      <trkpt lat="42.13119" lon="2.39578">
        <ele>1122</ele>
        <time>2019-04-12T08:13:51Z</time>
      </trkpt>
      <trkpt lat="42.13118" lon="2.39578">
        <ele>1121.4</ele>
        <time>2019-04-12T08:13:52Z</time>
      </trkpt>
      <trkpt lat="42.13117" lon="2.39578">
        <ele>1120.8</ele>
        <time>2019-04-12T08:13:52Z</time>
      </trkpt>
      <trkpt lat="42.13117" lon="2.39578">
        <ele>1120.8</ele>
        <time>2019-04-12T08:13:52Z</time>
      </trkpt>
      <trkpt lat="42.13116" lon="2.39578">
        <ele>1120.5</ele>
        <time>2019-04-12T08:13:53Z</time>
      </trkpt>
      <trkpt lat="42.13114" lon="2.39575">
        <ele>1119.4</ele>
        <time>2019-04-12T08:13:54Z</time>
      </trkpt>
      <trkpt lat="42.13112" lon="2.39574">
        <ele>1118.6</ele>
        <time>2019-04-12T08:13:55Z</time>
      </trkpt>
      <trkpt lat="42.13109" lon="2.39573">
        <ele>1118.1</ele>
        <time>2019-04-12T08:13:56Z</time>
      </trkpt>
      <trkpt lat="42.13107" lon="2.39573">
        <ele>1118</ele>
        <time>2019-04-12T08:13:57Z</time>
      </trkpt>
      <trkpt lat="42.13102" lon="2.39572">
        <ele>1118</ele>
        <time>2019-04-12T08:13:59Z</time>
      </trkpt>
      <trkpt lat="42.13094" lon="2.3957">
        <ele>1118.4</ele>
        <time>2019-04-12T08:14:02Z</time>
      </trkpt>
      <trkpt lat="42.13093" lon="2.39569">
        <ele>1118.5</ele>
        <time>2019-04-12T08:14:02Z</time>
      </trkpt>
      <trkpt lat="42.13092" lon="2.39568">
        <ele>1118.4</ele>
        <time>2019-04-12T08:14:03Z</time>
      </trkpt>
      <trkpt lat="42.13089" lon="2.39567">
        <ele>1118.2</ele>
        <time>2019-04-12T08:14:04Z</time>
      </trkpt>
      <trkpt lat="42.13088" lon="2.39567">
        <ele>1118</ele>
        <time>2019-04-12T08:14:05Z</time>
      </trkpt>
      <trkpt lat="42.13085" lon="2.39568">
        <ele>1118</ele>
        <time>2019-04-12T08:14:06Z</time>
      </trkpt>
      <trkpt lat="42.13084" lon="2.39567">
        <ele>1118</ele>
        <time>2019-04-12T08:14:06Z</time>
      </trkpt>
      <trkpt lat="42.1308" lon="2.39565">
        <ele>1118.4</ele>
        <time>2019-04-12T08:14:08Z</time>
      </trkpt>
      <trkpt lat="42.13078" lon="2.39565">
        <ele>1118.6</ele>
        <time>2019-04-12T08:14:09Z</time>
      </trkpt>
      <trkpt lat="42.13077" lon="2.39564">
        <ele>1118.8</ele>
        <time>2019-04-12T08:14:09Z</time>
      </trkpt>
      <trkpt lat="42.13076" lon="2.39564">
        <ele>1119</ele>
        <time>2019-04-12T08:14:10Z</time>
      </trkpt>
      <trkpt lat="42.13076" lon="2.39563">
        <ele>1119.1</ele>
        <time>2019-04-12T08:14:10Z</time>
      </trkpt>
      <trkpt lat="42.13075" lon="2.39563">
        <ele>1119.2</ele>
        <time>2019-04-12T08:14:10Z</time>
      </trkpt>
      <trkpt lat="42.13073" lon="2.39558">
        <ele>1119.4</ele>
        <time>2019-04-12T08:14:12Z</time>
      </trkpt>
      <trkpt lat="42.13073" lon="2.39556">
        <ele>1119.4</ele>
        <time>2019-04-12T08:14:12Z</time>
      </trkpt>
      <trkpt lat="42.13072" lon="2.39552">
        <ele>1118.5</ele>
        <time>2019-04-12T08:14:14Z</time>
      </trkpt>
      <trkpt lat="42.13072" lon="2.39551">
        <ele>1118.1</ele>
        <time>2019-04-12T08:14:14Z</time>
      </trkpt>
      <trkpt lat="42.13071" lon="2.39548">
        <ele>1117.5</ele>
        <time>2019-04-12T08:14:15Z</time>
      </trkpt>
      <trkpt lat="42.13072" lon="2.39545">
        <ele>1117.1</ele>
        <time>2019-04-12T08:14:16Z</time>
      </trkpt>
      <trkpt lat="42.13072" lon="2.39543">
        <ele>1116.8</ele>
        <time>2019-04-12T08:14:16Z</time>
      </trkpt>
      <trkpt lat="42.13073" lon="2.39538">
        <ele>1116.2</ele>
        <time>2019-04-12T08:14:18Z</time>
      </trkpt>
      <trkpt lat="42.13073" lon="2.39537">
        <ele>1116.1</ele>
        <time>2019-04-12T08:14:18Z</time>
      </trkpt>
      <trkpt lat="42.13073" lon="2.39536">
        <ele>1115.8</ele>
        <time>2019-04-12T08:14:19Z</time>
      </trkpt>
      <trkpt lat="42.13071" lon="2.39534">
        <ele>1115.2</ele>
        <time>2019-04-12T08:14:19Z</time>
      </trkpt>
      <trkpt lat="42.13071" lon="2.39535">
        <ele>1115.1</ele>
        <time>2019-04-12T08:14:20Z</time>
      </trkpt>
      <trkpt lat="42.1307" lon="2.39535">
        <ele>1114.5</ele>
        <time>2019-04-12T08:14:20Z</time>
      </trkpt>
      <trkpt lat="42.13071" lon="2.39534">
        <ele>1114.1</ele>
        <time>2019-04-12T08:14:20Z</time>
      </trkpt>
      <trkpt lat="42.13072" lon="2.39532">
        <ele>1113.5</ele>
        <time>2019-04-12T08:14:21Z</time>
      </trkpt>
      <trkpt lat="42.13072" lon="2.39531">
        <ele>1112.2</ele>
        <time>2019-04-12T08:14:21Z</time>
      </trkpt>
      <trkpt lat="42.13072" lon="2.3953">
        <ele>1111.8</ele>
        <time>2019-04-12T08:14:22Z</time>
      </trkpt>
      <trkpt lat="42.13071" lon="2.39526">
        <ele>1111</ele>
        <time>2019-04-12T08:14:23Z</time>
      </trkpt>
      <trkpt lat="42.1307" lon="2.39524">
        <ele>1110.9</ele>
        <time>2019-04-12T08:14:23Z</time>
      </trkpt>
      <trkpt lat="42.1307" lon="2.3952">
        <ele>1110.1</ele>
        <time>2019-04-12T08:14:25Z</time>
      </trkpt>
      <trkpt lat="42.1307" lon="2.39519">
        <ele>1110</ele>
        <time>2019-04-12T08:14:25Z</time>
      </trkpt>
      <trkpt lat="42.13071" lon="2.39516">
        <ele>1109.1</ele>
        <time>2019-04-12T08:14:26Z</time>
      </trkpt>
      <trkpt lat="42.13071" lon="2.39515">
        <ele>1108.9</ele>
        <time>2019-04-12T08:14:26Z</time>
      </trkpt>
      <trkpt lat="42.13071" lon="2.39513">
        <ele>1108.5</ele>
        <time>2019-04-12T08:14:27Z</time>
      </trkpt>
      <trkpt lat="42.13071" lon="2.39508">
        <ele>1107.8</ele>
        <time>2019-04-12T08:14:28Z</time>
      </trkpt>
      <trkpt lat="42.13076" lon="2.3951">
        <ele>1107.8</ele>
        <time>2019-04-12T08:14:30Z</time>
      </trkpt>
      <trkpt lat="42.13083" lon="2.39515">
        <ele>1106.8</ele>
        <time>2019-04-12T08:14:33Z</time>
      </trkpt>
      <trkpt lat="42.13083" lon="2.39514">
        <ele>1106.1</ele>
        <time>2019-04-12T08:14:34Z</time>
      </trkpt>
      <trkpt lat="42.13084" lon="2.39514">
        <ele>1105.8</ele>
        <time>2019-04-12T08:14:34Z</time>
      </trkpt>
      <trkpt lat="42.13085" lon="2.39514">
        <ele>1105.5</ele>
        <time>2019-04-12T08:14:34Z</time>
      </trkpt>
      <trkpt lat="42.13084" lon="2.39512">
        <ele>1104.9</ele>
        <time>2019-04-12T08:14:35Z</time>
      </trkpt>
      <trkpt lat="42.13084" lon="2.39511">
        <ele>1104.5</ele>
        <time>2019-04-12T08:14:35Z</time>
      </trkpt>
      <trkpt lat="42.13084" lon="2.3951">
        <ele>1104.2</ele>
        <time>2019-04-12T08:14:36Z</time>
      </trkpt>
      <trkpt lat="42.13084" lon="2.39507">
        <ele>1103.9</ele>
        <time>2019-04-12T08:14:37Z</time>
      </trkpt>
      <trkpt lat="42.13084" lon="2.39501">
        <ele>1102.6</ele>
        <time>2019-04-12T08:14:38Z</time>
      </trkpt>
      <trkpt lat="42.13083" lon="2.39499">
        <ele>1102.1</ele>
        <time>2019-04-12T08:14:39Z</time>
      </trkpt>
      <trkpt lat="42.13083" lon="2.39496">
        <ele>1101.5</ele>
        <time>2019-04-12T08:14:40Z</time>
      </trkpt>
      <trkpt lat="42.13082" lon="2.39495">
        <ele>1101.1</ele>
        <time>2019-04-12T08:14:40Z</time>
      </trkpt>
      <trkpt lat="42.13082" lon="2.39493">
        <ele>1100.9</ele>
        <time>2019-04-12T08:14:41Z</time>
      </trkpt>
      <trkpt lat="42.13084" lon="2.39494">
        <ele>1100.5</ele>
        <time>2019-04-12T08:14:41Z</time>
      </trkpt>
      <trkpt lat="42.13087" lon="2.39494">
        <ele>1100.1</ele>
        <time>2019-04-12T08:14:43Z</time>
      </trkpt>
      <trkpt lat="42.13088" lon="2.39496">
        <ele>1100</ele>
        <time>2019-04-12T08:14:43Z</time>
      </trkpt>
      <trkpt lat="42.13089" lon="2.39497">
        <ele>1099.6</ele>
        <time>2019-04-12T08:14:44Z</time>
      </trkpt>
      <trkpt lat="42.13096" lon="2.39502">
        <ele>1099.5</ele>
        <time>2019-04-12T08:14:47Z</time>
      </trkpt>
      <trkpt lat="42.13098" lon="2.39506">
        <ele>1099.5</ele>
        <time>2019-04-12T08:14:48Z</time>
      </trkpt>
      <trkpt lat="42.13098" lon="2.39506">
        <ele>1099.2</ele>
        <time>2019-04-12T08:14:49Z</time>
      </trkpt>
      <trkpt lat="42.131" lon="2.39508">
        <ele>1098.8</ele>
        <time>2019-04-12T08:14:49Z</time>
      </trkpt>
      <trkpt lat="42.13101" lon="2.39511">
        <ele>1097.9</ele>
        <time>2019-04-12T08:14:50Z</time>
      </trkpt>
      <trkpt lat="42.131" lon="2.39513">
        <ele>1096.8</ele>
        <time>2019-04-12T08:14:51Z</time>
      </trkpt>
      <trkpt lat="42.131" lon="2.39515">
        <ele>1096.9</ele>
        <time>2019-04-12T08:14:51Z</time>
      </trkpt>
      <trkpt lat="42.13095" lon="2.39519">
        <ele>1096.2</ele>
        <time>2019-04-12T08:14:54Z</time>
      </trkpt>
      <trkpt lat="42.13094" lon="2.3952">
        <ele>1095.5</ele>
        <time>2019-04-12T08:14:54Z</time>
      </trkpt>
      <trkpt lat="42.13094" lon="2.39519">
        <ele>1095</ele>
        <time>2019-04-12T08:14:55Z</time>
      </trkpt>
      <trkpt lat="42.13094" lon="2.39518">
        <ele>1094.8</ele>
        <time>2019-04-12T08:14:55Z</time>
      </trkpt>
      <trkpt lat="42.13095" lon="2.39512">
        <ele>1094.4</ele>
        <time>2019-04-12T08:14:57Z</time>
      </trkpt>
      <trkpt lat="42.13095" lon="2.39511">
        <ele>1093.9</ele>
        <time>2019-04-12T08:14:57Z</time>
      </trkpt>
      <trkpt lat="42.13096" lon="2.39509">
        <ele>1093.4</ele>
        <time>2019-04-12T08:14:58Z</time>
      </trkpt>
      <trkpt lat="42.13098" lon="2.3951">
        <ele>1092.5</ele>
        <time>2019-04-12T08:14:59Z</time>
      </trkpt>
      <trkpt lat="42.13099" lon="2.3951">
        <ele>1092.1</ele>
        <time>2019-04-12T08:14:59Z</time>
      </trkpt>
      <trkpt lat="42.13104" lon="2.3952">
        <ele>1091.2</ele>
        <time>2019-04-12T08:15:03Z</time>
      </trkpt>
      <trkpt lat="42.13105" lon="2.39522">
        <ele>1090.8</ele>
        <time>2019-04-12T08:15:04Z</time>
      </trkpt>
      <trkpt lat="42.13105" lon="2.39521">
        <ele>1090</ele>
        <time>2019-04-12T08:15:04Z</time>
      </trkpt>
      <trkpt lat="42.13104" lon="2.39519">
        <ele>1089.6</ele>
        <time>2019-04-12T08:15:05Z</time>
      </trkpt>
      <trkpt lat="42.13102" lon="2.39519">
        <ele>1089</ele>
        <time>2019-04-12T08:15:05Z</time>
      </trkpt>
      <trkpt lat="42.13102" lon="2.39519">
        <ele>1088.8</ele>
        <time>2019-04-12T08:15:05Z</time>
      </trkpt>
      <trkpt lat="42.131" lon="2.39516">
        <ele>1088</ele>
        <time>2019-04-12T08:15:06Z</time>
      </trkpt>
      <trkpt lat="42.131" lon="2.39516">
        <ele>1088.1</ele>
        <time>2019-04-12T08:15:07Z</time>
      </trkpt>
      <trkpt lat="42.13099" lon="2.39517">
        <ele>1087</ele>
        <time>2019-04-12T08:15:07Z</time>
      </trkpt>
      <trkpt lat="42.13098" lon="2.39517">
        <ele>1086.8</ele>
        <time>2019-04-12T08:15:07Z</time>
      </trkpt>
      <trkpt lat="42.13098" lon="2.39508">
        <ele>1086.5</ele>
        <time>2019-04-12T08:15:10Z</time>
      </trkpt>
      <trkpt lat="42.13098" lon="2.39504">
        <ele>1085.9</ele>
        <time>2019-04-12T08:15:11Z</time>
      </trkpt>
      <trkpt lat="42.131" lon="2.39505">
        <ele>1084.9</ele>
        <time>2019-04-12T08:15:12Z</time>
      </trkpt>
      <trkpt lat="42.13101" lon="2.39506">
        <ele>1084.6</ele>
        <time>2019-04-12T08:15:12Z</time>
      </trkpt>
      <trkpt lat="42.13103" lon="2.39507">
        <ele>1083.4</ele>
        <time>2019-04-12T08:15:13Z</time>
      </trkpt>
      <trkpt lat="42.13103" lon="2.39508">
        <ele>1082.9</ele>
        <time>2019-04-12T08:15:14Z</time>
      </trkpt>
      <trkpt lat="42.13105" lon="2.3951">
        <ele>1082</ele>
        <time>2019-04-12T08:15:14Z</time>
      </trkpt>
      <trkpt lat="42.1311" lon="2.39503">
        <ele>1081</ele>
        <time>2019-04-12T08:15:17Z</time>
      </trkpt>
      <trkpt lat="42.1311" lon="2.39502">
        <ele>1081</ele>
        <time>2019-04-12T08:15:18Z</time>
      </trkpt>
      <trkpt lat="42.13112" lon="2.39502">
        <ele>1080</ele>
        <time>2019-04-12T08:15:18Z</time>
      </trkpt>
      <trkpt lat="42.13113" lon="2.39502">
        <ele>1079.5</ele>
        <time>2019-04-12T08:15:19Z</time>
      </trkpt>
      <trkpt lat="42.13115" lon="2.39505">
        <ele>1079.1</ele>
        <time>2019-04-12T08:15:20Z</time>
      </trkpt>
      <trkpt lat="42.13117" lon="2.39507">
        <ele>1079.1</ele>
        <time>2019-04-12T08:15:21Z</time>
      </trkpt>
      <trkpt lat="42.13119" lon="2.39508">
        <ele>1078.5</ele>
        <time>2019-04-12T08:15:22Z</time>
      </trkpt>
      <trkpt lat="42.13121" lon="2.39507">
        <ele>1077.5</ele>
        <time>2019-04-12T08:15:23Z</time>
      </trkpt>
      <trkpt lat="42.1312" lon="2.39507">
        <ele>1077.2</ele>
        <time>2019-04-12T08:15:23Z</time>
      </trkpt>
      <trkpt lat="42.13118" lon="2.39507">
        <ele>1076.5</ele>
        <time>2019-04-12T08:15:24Z</time>
      </trkpt>
      <trkpt lat="42.13117" lon="2.39506">
        <ele>1076.2</ele>
        <time>2019-04-12T08:15:24Z</time>
      </trkpt>
      <trkpt lat="42.13119" lon="2.39506">
        <ele>1076.1</ele>
        <time>2019-04-12T08:15:25Z</time>
      </trkpt>
      <trkpt lat="42.13123" lon="2.39509">
        <ele>1075.1</ele>
        <time>2019-04-12T08:15:27Z</time>
      </trkpt>
      <trkpt lat="42.13125" lon="2.39514">
        <ele>1074.5</ele>
        <time>2019-04-12T08:15:28Z</time>
      </trkpt>
      <trkpt lat="42.13125" lon="2.39514">
        <ele>1074.1</ele>
        <time>2019-04-12T08:15:29Z</time>
      </trkpt>
      <trkpt lat="42.13127" lon="2.39511">
        <ele>1073.6</ele>
        <time>2019-04-12T08:15:30Z</time>
      </trkpt>
      <trkpt lat="42.13128" lon="2.3951">
        <ele>1073.1</ele>
        <time>2019-04-12T08:15:31Z</time>
      </trkpt>
      <trkpt lat="42.13129" lon="2.39509">
        <ele>1072.9</ele>
        <time>2019-04-12T08:15:31Z</time>
      </trkpt>
      <trkpt lat="42.13134" lon="2.39511">
        <ele>1071.9</ele>
        <time>2019-04-12T08:15:33Z</time>
      </trkpt>
      <trkpt lat="42.13135" lon="2.39511">
        <ele>1071.5</ele>
        <time>2019-04-12T08:15:33Z</time>
      </trkpt>
      <trkpt lat="42.13138" lon="2.39512">
        <ele>1070.6</ele>
        <time>2019-04-12T08:15:35Z</time>
      </trkpt>
      <trkpt lat="42.13138" lon="2.39512">
        <ele>1070.1</ele>
        <time>2019-04-12T08:15:35Z</time>
      </trkpt>
      <trkpt lat="42.13139" lon="2.39512">
        <ele>1069.4</ele>
        <time>2019-04-12T08:15:35Z</time>
      </trkpt>
      <trkpt lat="42.13141" lon="2.39511">
        <ele>1069</ele>
        <time>2019-04-12T08:15:36Z</time>
      </trkpt>
      <trkpt lat="42.13141" lon="2.39512">
        <ele>1069</ele>
        <time>2019-04-12T08:15:36Z</time>
      </trkpt>
      <trkpt lat="42.13141" lon="2.39514">
        <ele>1068.1</ele>
        <time>2019-04-12T08:15:37Z</time>
      </trkpt>
      <trkpt lat="42.1314" lon="2.39514">
        <ele>1067.2</ele>
        <time>2019-04-12T08:15:37Z</time>
      </trkpt>
      <trkpt lat="42.1314" lon="2.39514">
        <ele>1066.9</ele>
        <time>2019-04-12T08:15:37Z</time>
      </trkpt>
      <trkpt lat="42.13139" lon="2.39515">
        <ele>1065.8</ele>
        <time>2019-04-12T08:15:37Z</time>
      </trkpt>
      <trkpt lat="42.13139" lon="2.39516">
        <ele>1065.9</ele>
        <time>2019-04-12T08:15:38Z</time>
      </trkpt>
      <trkpt lat="42.13138" lon="2.39512">
        <ele>1064.8</ele>
        <time>2019-04-12T08:15:39Z</time>
      </trkpt>
      <trkpt lat="42.13139" lon="2.39511">
        <ele>1064.5</ele>
        <time>2019-04-12T08:15:39Z</time>
      </trkpt>
      <trkpt lat="42.1314" lon="2.39509">
        <ele>1064.5</ele>
        <time>2019-04-12T08:15:40Z</time>
      </trkpt>
      <trkpt lat="42.13143" lon="2.3951">
        <ele>1063.6</ele>
        <time>2019-04-12T08:15:41Z</time>
      </trkpt>
      <trkpt lat="42.13147" lon="2.39508">
        <ele>1063</ele>
        <time>2019-04-12T08:15:43Z</time>
      </trkpt>
      <trkpt lat="42.13147" lon="2.39508">
        <ele>1062.5</ele>
        <time>2019-04-12T08:15:43Z</time>
      </trkpt>
      <trkpt lat="42.13147" lon="2.39508">
        <ele>1062.4</ele>
        <time>2019-04-12T08:15:43Z</time>
      </trkpt>
      <trkpt lat="42.13149" lon="2.39507">
        <ele>1061.4</ele>
        <time>2019-04-12T08:15:43Z</time>
      </trkpt>
      <trkpt lat="42.13154" lon="2.39508">
        <ele>1060.6</ele>
        <time>2019-04-12T08:15:45Z</time>
      </trkpt>
      <trkpt lat="42.13155" lon="2.39508">
        <ele>1060.5</ele>
        <time>2019-04-12T08:15:46Z</time>
      </trkpt>
      <trkpt lat="42.13157" lon="2.39509">
        <ele>1059.2</ele>
        <time>2019-04-12T08:15:47Z</time>
      </trkpt>
      <trkpt lat="42.13158" lon="2.3951">
        <ele>1059.1</ele>
        <time>2019-04-12T08:15:47Z</time>
      </trkpt>
      <trkpt lat="42.13161" lon="2.3951">
        <ele>1058.1</ele>
        <time>2019-04-12T08:15:49Z</time>
      </trkpt>
      <trkpt lat="42.13164" lon="2.3951">
        <ele>1057.9</ele>
        <time>2019-04-12T08:15:50Z</time>
      </trkpt>
      <trkpt lat="42.13165" lon="2.3951">
        <ele>1057.5</ele>
        <time>2019-04-12T08:15:50Z</time>
      </trkpt>
      <trkpt lat="42.13166" lon="2.39511">
        <ele>1057</ele>
        <time>2019-04-12T08:15:50Z</time>
      </trkpt>
      <trkpt lat="42.13167" lon="2.3951">
        <ele>1056.1</ele>
        <time>2019-04-12T08:15:51Z</time>
      </trkpt>
      <trkpt lat="42.13167" lon="2.3951">
        <ele>1056.1</ele>
        <time>2019-04-12T08:15:51Z</time>
      </trkpt>
      <trkpt lat="42.13167" lon="2.3951">
        <ele>1055.5</ele>
        <time>2019-04-12T08:15:51Z</time>
      </trkpt>
      <trkpt lat="42.13168" lon="2.39512">
        <ele>1055</ele>
        <time>2019-04-12T08:15:52Z</time>
      </trkpt>
      <trkpt lat="42.13168" lon="2.39511">
        <ele>1054.5</ele>
        <time>2019-04-12T08:15:52Z</time>
      </trkpt>
      <trkpt lat="42.13169" lon="2.39511">
        <ele>1054.1</ele>
        <time>2019-04-12T08:15:53Z</time>
      </trkpt>
      <trkpt lat="42.1317" lon="2.39511">
        <ele>1053.6</ele>
        <time>2019-04-12T08:15:53Z</time>
      </trkpt>
      <trkpt lat="42.13171" lon="2.39511">
        <ele>1053.4</ele>
        <time>2019-04-12T08:15:53Z</time>
      </trkpt>
      <trkpt lat="42.13174" lon="2.39513">
        <ele>1052.4</ele>
        <time>2019-04-12T08:15:55Z</time>
      </trkpt>
      <trkpt lat="42.13175" lon="2.39513">
        <ele>1052.1</ele>
        <time>2019-04-12T08:15:55Z</time>
      </trkpt>
      <trkpt lat="42.13179" lon="2.39514">
        <ele>1051.1</ele>
        <time>2019-04-12T08:15:57Z</time>
      </trkpt>
      <trkpt lat="42.13179" lon="2.39514">
        <ele>1051</ele>
        <time>2019-04-12T08:15:57Z</time>
      </trkpt>
      <trkpt lat="42.1318" lon="2.39513">
        <ele>1050.1</ele>
        <time>2019-04-12T08:15:57Z</time>
      </trkpt>
      <trkpt lat="42.13178" lon="2.39511">
        <ele>1049.5</ele>
        <time>2019-04-12T08:15:58Z</time>
      </trkpt>
      <trkpt lat="42.13176" lon="2.39514">
        <ele>1049</ele>
        <time>2019-04-12T08:15:59Z</time>
      </trkpt>
      <trkpt lat="42.13175" lon="2.39515">
        <ele>1048.8</ele>
        <time>2019-04-12T08:16:00Z</time>
      </trkpt>
      <trkpt lat="42.13175" lon="2.39515">
        <ele>1048.6</ele>
        <time>2019-04-12T08:16:00Z</time>
      </trkpt>
      <trkpt lat="42.13175" lon="2.39515">
        <ele>1048.5</ele>
        <time>2019-04-12T08:16:00Z</time>
      </trkpt>
      <trkpt lat="42.13174" lon="2.39514">
        <ele>1047.9</ele>
        <time>2019-04-12T08:16:00Z</time>
      </trkpt>
      <trkpt lat="42.13173" lon="2.39514">
        <ele>1047.6</ele>
        <time>2019-04-12T08:16:01Z</time>
      </trkpt>
      <trkpt lat="42.13172" lon="2.39512">
        <ele>1047.5</ele>
        <time>2019-04-12T08:16:01Z</time>
      </trkpt>
      <trkpt lat="42.13172" lon="2.3951">
        <ele>1046.6</ele>
        <time>2019-04-12T08:16:02Z</time>
      </trkpt>
      <trkpt lat="42.1317" lon="2.39511">
        <ele>1045.5</ele>
        <time>2019-04-12T08:16:03Z</time>
      </trkpt>
      <trkpt lat="42.1317" lon="2.39511">
        <ele>1045.5</ele>
        <time>2019-04-12T08:16:03Z</time>
      </trkpt>
      <trkpt lat="42.13173" lon="2.39507">
        <ele>1045.1</ele>
        <time>2019-04-12T08:16:04Z</time>
      </trkpt>
      <trkpt lat="42.13177" lon="2.39507">
        <ele>1044.1</ele>
        <time>2019-04-12T08:16:06Z</time>
      </trkpt>
      <trkpt lat="42.13178" lon="2.39508">
        <ele>1043.8</ele>
        <time>2019-04-12T08:16:07Z</time>
      </trkpt>
      <trkpt lat="42.13178" lon="2.39509">
        <ele>1043.1</ele>
        <time>2019-04-12T08:16:07Z</time>
      </trkpt>
      <trkpt lat="42.13177" lon="2.39507">
        <ele>1042.1</ele>
        <time>2019-04-12T08:16:07Z</time>
      </trkpt>
      <trkpt lat="42.13179" lon="2.39503">
        <ele>1041.1</ele>
        <time>2019-04-12T08:16:09Z</time>
      </trkpt>
      <trkpt lat="42.13184" lon="2.39502">
        <ele>1039.9</ele>
        <time>2019-04-12T08:16:11Z</time>
      </trkpt>
      <trkpt lat="42.13185" lon="2.39501">
        <ele>1038.9</ele>
        <time>2019-04-12T08:16:11Z</time>
      </trkpt>
      <trkpt lat="42.1319" lon="2.39499">
        <ele>1037.9</ele>
        <time>2019-04-12T08:16:13Z</time>
      </trkpt>
      <trkpt lat="42.13192" lon="2.395">
        <ele>1037.1</ele>
        <time>2019-04-12T08:16:14Z</time>
      </trkpt>
      <trkpt lat="42.13195" lon="2.39504">
        <ele>1036.6</ele>
        <time>2019-04-12T08:16:16Z</time>
      </trkpt>
      <trkpt lat="42.13197" lon="2.39505">
        <ele>1036.2</ele>
        <time>2019-04-12T08:16:17Z</time>
      </trkpt>
      <trkpt lat="42.132" lon="2.39508">
        <ele>1035.5</ele>
        <time>2019-04-12T08:16:18Z</time>
      </trkpt>
      <trkpt lat="42.13202" lon="2.39509">
        <ele>1034.8</ele>
        <time>2019-04-12T08:16:19Z</time>
      </trkpt>
      <trkpt lat="42.13203" lon="2.3951">
        <ele>1034.8</ele>
        <time>2019-04-12T08:16:20Z</time>
      </trkpt>
      <trkpt lat="42.13204" lon="2.39509">
        <ele>1034.4</ele>
        <time>2019-04-12T08:16:20Z</time>
      </trkpt>
      <trkpt lat="42.13207" lon="2.39509">
        <ele>1033.9</ele>
        <time>2019-04-12T08:16:21Z</time>
      </trkpt>
      <trkpt lat="42.13208" lon="2.39509">
        <ele>1033.5</ele>
        <time>2019-04-12T08:16:22Z</time>
      </trkpt>
      <trkpt lat="42.1321" lon="2.3951">
        <ele>1032.2</ele>
        <time>2019-04-12T08:16:22Z</time>
      </trkpt>
      <trkpt lat="42.13209" lon="2.3951">
        <ele>1031.9</ele>
        <time>2019-04-12T08:16:23Z</time>
      </trkpt>
      <trkpt lat="42.13206" lon="2.3951">
        <ele>1031.1</ele>
        <time>2019-04-12T08:16:24Z</time>
      </trkpt>
      <trkpt lat="42.13205" lon="2.3951">
        <ele>1030.9</ele>
        <time>2019-04-12T08:16:24Z</time>
      </trkpt>
      <trkpt lat="42.13205" lon="2.3951">
        <ele>1030.1</ele>
        <time>2019-04-12T08:16:24Z</time>
      </trkpt>
      <trkpt lat="42.13205" lon="2.3951">
        <ele>1030</ele>
        <time>2019-04-12T08:16:24Z</time>
      </trkpt>
      <trkpt lat="42.13204" lon="2.3951">
        <ele>1029.9</ele>
        <time>2019-04-12T08:16:25Z</time>
      </trkpt>
      <trkpt lat="42.13203" lon="2.39509">
        <ele>1029.1</ele>
        <time>2019-04-12T08:16:25Z</time>
      </trkpt>
      <trkpt lat="42.13201" lon="2.39509">
        <ele>1028.8</ele>
        <time>2019-04-12T08:16:26Z</time>
      </trkpt>
      <trkpt lat="42.13197" lon="2.39506">
        <ele>1028.4</ele>
        <time>2019-04-12T08:16:28Z</time>
      </trkpt>
      <trkpt lat="42.13195" lon="2.39502">
        <ele>1027.6</ele>
        <time>2019-04-12T08:16:29Z</time>
      </trkpt>
      <trkpt lat="42.13195" lon="2.39501">
        <ele>1026.9</ele>
        <time>2019-04-12T08:16:30Z</time>
      </trkpt>
      <trkpt lat="42.13194" lon="2.39499">
        <ele>1026.5</ele>
        <time>2019-04-12T08:16:30Z</time>
      </trkpt>
      <trkpt lat="42.13193" lon="2.39498">
        <ele>1026.1</ele>
        <time>2019-04-12T08:16:31Z</time>
      </trkpt>
      <trkpt lat="42.13193" lon="2.39496">
        <ele>1025.5</ele>
        <time>2019-04-12T08:16:31Z</time>
      </trkpt>
      <trkpt lat="42.13193" lon="2.39495">
        <ele>1025.4</ele>
        <time>2019-04-12T08:16:32Z</time>
      </trkpt>
      <trkpt lat="42.13195" lon="2.39494">
        <ele>1024.5</ele>
        <time>2019-04-12T08:16:32Z</time>
      </trkpt>
      <trkpt lat="42.13196" lon="2.39493">
        <ele>1024.5</ele>
        <time>2019-04-12T08:16:33Z</time>
      </trkpt>
      <trkpt lat="42.13198" lon="2.39488">
        <ele>1023.4</ele>
        <time>2019-04-12T08:16:35Z</time>
      </trkpt>
      <trkpt lat="42.13198" lon="2.39487">
        <ele>1023</ele>
        <time>2019-04-12T08:16:35Z</time>
      </trkpt>
      <trkpt lat="42.13195" lon="2.39485">
        <ele>1022</ele>
        <time>2019-04-12T08:16:36Z</time>
      </trkpt>
      <trkpt lat="42.13197" lon="2.3948">
        <ele>1020.7</ele>
        <time>2019-04-12T08:16:38Z</time>
      </trkpt>
      <trkpt lat="42.13198" lon="2.39479">
        <ele>1020.6</ele>
        <time>2019-04-12T08:16:38Z</time>
      </trkpt>
      <trkpt lat="42.13198" lon="2.39478">
        <ele>1020.4</ele>
        <time>2019-04-12T08:16:39Z</time>
      </trkpt>
      <trkpt lat="42.13206" lon="2.39475">
        <ele>1019.7</ele>
        <time>2019-04-12T08:16:42Z</time>
      </trkpt>
      <trkpt lat="42.13211" lon="2.39478">
        <ele>1019.5</ele>
        <time>2019-04-12T08:16:44Z</time>
      </trkpt>
      <trkpt lat="42.13216" lon="2.39473">
        <ele>1018.7</ele>
        <time>2019-04-12T08:16:46Z</time>
      </trkpt>
      <trkpt lat="42.13217" lon="2.39473">
        <ele>1018.7</ele>
        <time>2019-04-12T08:16:47Z</time>
      </trkpt>
      <trkpt lat="42.13219" lon="2.39473">
        <ele>1018.6</ele>
        <time>2019-04-12T08:16:48Z</time>
      </trkpt>
      <trkpt lat="42.13223" lon="2.39471">
        <ele>1017.5</ele>
        <time>2019-04-12T08:16:49Z</time>
      </trkpt>
      <trkpt lat="42.13225" lon="2.39475">
        <ele>1016.7</ele>
        <time>2019-04-12T08:16:51Z</time>
      </trkpt>
      <trkpt lat="42.13224" lon="2.39475">
        <ele>1016.5</ele>
        <time>2019-04-12T08:16:51Z</time>
      </trkpt>
      <trkpt lat="42.13223" lon="2.39471">
        <ele>1015.4</ele>
        <time>2019-04-12T08:16:52Z</time>
      </trkpt>
      <trkpt lat="42.13222" lon="2.39471">
        <ele>1015.2</ele>
        <time>2019-04-12T08:16:53Z</time>
      </trkpt>
      <trkpt lat="42.13222" lon="2.39478">
        <ele>1014.2</ele>
        <time>2019-04-12T08:16:55Z</time>
      </trkpt>
      <trkpt lat="42.13221" lon="2.39479">
        <ele>1014.1</ele>
        <time>2019-04-12T08:16:55Z</time>
      </trkpt>
      <trkpt lat="42.1322" lon="2.39482">
        <ele>1013</ele>
        <time>2019-04-12T08:16:56Z</time>
      </trkpt>
      <trkpt lat="42.13219" lon="2.39482">
        <ele>1012.4</ele>
        <time>2019-04-12T08:16:56Z</time>
      </trkpt>
      <trkpt lat="42.1322" lon="2.39482">
        <ele>1012.1</ele>
        <time>2019-04-12T08:16:56Z</time>
      </trkpt>
      <trkpt lat="42.13224" lon="2.39478">
        <ele>1011</ele>
        <time>2019-04-12T08:16:58Z</time>
      </trkpt>
      <trkpt lat="42.13227" lon="2.39467">
        <ele>1010.3</ele>
        <time>2019-04-12T08:17:02Z</time>
      </trkpt>
      <trkpt lat="42.13229" lon="2.39465">
        <ele>1009.8</ele>
        <time>2019-04-12T08:17:03Z</time>
      </trkpt>
      <trkpt lat="42.13234" lon="2.3946">
        <ele>1009.1</ele>
        <time>2019-04-12T08:17:06Z</time>
      </trkpt>
      <trkpt lat="42.13236" lon="2.39461">
        <ele>1008.7</ele>
        <time>2019-04-12T08:17:06Z</time>
      </trkpt>
      <trkpt lat="42.13241" lon="2.39456">
        <ele>1007.7</ele>
        <time>2019-04-12T08:17:09Z</time>
      </trkpt>
      <trkpt lat="42.13242" lon="2.39454">
        <ele>1007.5</ele>
        <time>2019-04-12T08:17:10Z</time>
      </trkpt>
      <trkpt lat="42.13243" lon="2.39453">
        <ele>1007.4</ele>
        <time>2019-04-12T08:17:10Z</time>
      </trkpt>
      <trkpt lat="42.13244" lon="2.39453">
        <ele>1007.3</ele>
        <time>2019-04-12T08:17:10Z</time>
      </trkpt>
      <trkpt lat="42.13245" lon="2.39454">
        <ele>1007.1</ele>
        <time>2019-04-12T08:17:11Z</time>
      </trkpt>
      <trkpt lat="42.13246" lon="2.39455">
        <ele>1006.8</ele>
        <time>2019-04-12T08:17:11Z</time>
      </trkpt>
      <trkpt lat="42.13246" lon="2.39457">
        <ele>1006.4</ele>
        <time>2019-04-12T08:17:12Z</time>
      </trkpt>
      <trkpt lat="42.13246" lon="2.39458">
        <ele>1006.2</ele>
        <time>2019-04-12T08:17:12Z</time>
      </trkpt>
      <trkpt lat="42.13246" lon="2.39459">
        <ele>1005.2</ele>
        <time>2019-04-12T08:17:13Z</time>
      </trkpt>
      <trkpt lat="42.13247" lon="2.39462">
        <ele>1004.6</ele>
        <time>2019-04-12T08:17:14Z</time>
      </trkpt>
      <trkpt lat="42.13247" lon="2.39464">
        <ele>1004.5</ele>
        <time>2019-04-12T08:17:14Z</time>
      </trkpt>
      <trkpt lat="42.13248" lon="2.39466">
        <ele>1004</ele>
        <time>2019-04-12T08:17:15Z</time>
      </trkpt>
      <trkpt lat="42.13249" lon="2.3947">
        <ele>1003.5</ele>
        <time>2019-04-12T08:17:16Z</time>
      </trkpt>
      <trkpt lat="42.13249" lon="2.3947">
        <ele>1003</ele>
        <time>2019-04-12T08:17:16Z</time>
      </trkpt>
      <trkpt lat="42.13251" lon="2.39471">
        <ele>1002.7</ele>
        <time>2019-04-12T08:17:17Z</time>
      </trkpt>
      <trkpt lat="42.13254" lon="2.39474">
        <ele>1002.4</ele>
        <time>2019-04-12T08:17:19Z</time>
      </trkpt>
      <trkpt lat="42.13257" lon="2.39476">
        <ele>1002</ele>
        <time>2019-04-12T08:17:20Z</time>
      </trkpt>
      <trkpt lat="42.13259" lon="2.39475">
        <ele>1001.5</ele>
        <time>2019-04-12T08:17:21Z</time>
      </trkpt>
      <trkpt lat="42.13262" lon="2.39479">
        <ele>1001.1</ele>
        <time>2019-04-12T08:17:22Z</time>
      </trkpt>
      <trkpt lat="42.13263" lon="2.39481">
        <ele>1000.7</ele>
        <time>2019-04-12T08:17:23Z</time>
      </trkpt>
      <trkpt lat="42.13268" lon="2.39485">
        <ele>1000.5</ele>
        <time>2019-04-12T08:17:25Z</time>
      </trkpt>
      <trkpt lat="42.1327" lon="2.39489">
        <ele>1000.1</ele>
        <time>2019-04-12T08:17:27Z</time>
      </trkpt>
      <trkpt lat="42.13271" lon="2.3949">
        <ele>999.6</ele>
        <time>2019-04-12T08:17:27Z</time>
      </trkpt>
      <trkpt lat="42.13277" lon="2.39494">
        <ele>998.6</ele>
        <time>2019-04-12T08:17:30Z</time>
      </trkpt>
      <trkpt lat="42.13278" lon="2.39496">
        <ele>998.2</ele>
        <time>2019-04-12T08:17:31Z</time>
      </trkpt>
      <trkpt lat="42.13276" lon="2.39499">
        <ele>997.5</ele>
        <time>2019-04-12T08:17:32Z</time>
      </trkpt>
      <trkpt lat="42.13275" lon="2.39499">
        <ele>997.4</ele>
        <time>2019-04-12T08:17:32Z</time>
      </trkpt>
      <trkpt lat="42.13274" lon="2.39501">
        <ele>997.1</ele>
        <time>2019-04-12T08:17:33Z</time>
      </trkpt>
      <trkpt lat="42.13271" lon="2.39505">
        <ele>996.4</ele>
        <time>2019-04-12T08:17:35Z</time>
      </trkpt>
      <trkpt lat="42.13266" lon="2.39506">
        <ele>995.8</ele>
        <time>2019-04-12T08:17:36Z</time>
      </trkpt>
      <trkpt lat="42.13263" lon="2.39501">
        <ele>995.2</ele>
        <time>2019-04-12T08:17:38Z</time>
      </trkpt>
      <trkpt lat="42.13263" lon="2.395">
        <ele>995.1</ele>
        <time>2019-04-12T08:17:38Z</time>
      </trkpt>
      <trkpt lat="42.13263" lon="2.39498">
        <ele>994.3</ele>
        <time>2019-04-12T08:17:39Z</time>
      </trkpt>
      <trkpt lat="42.13264" lon="2.39498">
        <ele>993.6</ele>
        <time>2019-04-12T08:17:39Z</time>
      </trkpt>
      <trkpt lat="42.13265" lon="2.39498">
        <ele>993.1</ele>
        <time>2019-04-12T08:17:40Z</time>
      </trkpt>
      <trkpt lat="42.13269" lon="2.39494">
        <ele>992.3</ele>
        <time>2019-04-12T08:17:42Z</time>
      </trkpt>
      <trkpt lat="42.13269" lon="2.39492">
        <ele>992</ele>
        <time>2019-04-12T08:17:42Z</time>
      </trkpt>
      <trkpt lat="42.13269" lon="2.3949">
        <ele>991.7</ele>
        <time>2019-04-12T08:17:43Z</time>
      </trkpt>
      <trkpt lat="42.13271" lon="2.39489">
        <ele>991.4</ele>
        <time>2019-04-12T08:17:44Z</time>
      </trkpt>
      <trkpt lat="42.13273" lon="2.3949">
        <ele>990.8</ele>
        <time>2019-04-12T08:17:45Z</time>
      </trkpt>
      <trkpt lat="42.13278" lon="2.39491">
        <ele>989.4</ele>
        <time>2019-04-12T08:17:47Z</time>
      </trkpt>
      <trkpt lat="42.13283" lon="2.39498">
        <ele>988.6</ele>
        <time>2019-04-12T08:17:50Z</time>
      </trkpt>
      <trkpt lat="42.13285" lon="2.39502">
        <ele>988.3</ele>
        <time>2019-04-12T08:17:51Z</time>
      </trkpt>
      <trkpt lat="42.13291" lon="2.39506">
        <ele>987.2</ele>
        <time>2019-04-12T08:17:54Z</time>
      </trkpt>
      <trkpt lat="42.13292" lon="2.39505">
        <ele>987</ele>
        <time>2019-04-12T08:17:54Z</time>
      </trkpt>
      <trkpt lat="42.13294" lon="2.39506">
        <ele>986.4</ele>
        <time>2019-04-12T08:17:55Z</time>
      </trkpt>
      <trkpt lat="42.13292" lon="2.39508">
        <ele>985.7</ele>
        <time>2019-04-12T08:17:56Z</time>
      </trkpt>
      <trkpt lat="42.13291" lon="2.39508">
        <ele>985.6</ele>
        <time>2019-04-12T08:17:56Z</time>
      </trkpt>
      <trkpt lat="42.13287" lon="2.39508">
        <ele>985</ele>
        <time>2019-04-12T08:17:58Z</time>
      </trkpt>
      <trkpt lat="42.13284" lon="2.39508">
        <ele>984.5</ele>
        <time>2019-04-12T08:17:59Z</time>
      </trkpt>
      <trkpt lat="42.13283" lon="2.39508">
        <ele>984.5</ele>
        <time>2019-04-12T08:18:00Z</time>
      </trkpt>
      <trkpt lat="42.13281" lon="2.39509">
        <ele>984.2</ele>
        <time>2019-04-12T08:18:00Z</time>
      </trkpt>
      <trkpt lat="42.1328" lon="2.39508">
        <ele>983.4</ele>
        <time>2019-04-12T08:18:01Z</time>
      </trkpt>
      <trkpt lat="42.13279" lon="2.39507">
        <ele>983.3</ele>
        <time>2019-04-12T08:18:01Z</time>
      </trkpt>
      <trkpt lat="42.13277" lon="2.39506">
        <ele>982.8</ele>
        <time>2019-04-12T08:18:02Z</time>
      </trkpt>
      <trkpt lat="42.13275" lon="2.39506">
        <ele>982.4</ele>
        <time>2019-04-12T08:18:03Z</time>
      </trkpt>
      <trkpt lat="42.13274" lon="2.39505">
        <ele>982.1</ele>
        <time>2019-04-12T08:18:03Z</time>
      </trkpt>
      <trkpt lat="42.13273" lon="2.39504">
        <ele>981.3</ele>
        <time>2019-04-12T08:18:04Z</time>
      </trkpt>
      <trkpt lat="42.13272" lon="2.39502">
        <ele>980.4</ele>
        <time>2019-04-12T08:18:05Z</time>
      </trkpt>
      <trkpt lat="42.13272" lon="2.39502">
        <ele>980.3</ele>
        <time>2019-04-12T08:18:05Z</time>
      </trkpt>
      <trkpt lat="42.13276" lon="2.39498">
        <ele>979.4</ele>
        <time>2019-04-12T08:18:07Z</time>
      </trkpt>
      <trkpt lat="42.13277" lon="2.39496">
        <ele>979.2</ele>
        <time>2019-04-12T08:18:08Z</time>
      </trkpt>
      <trkpt lat="42.13281" lon="2.39493">
        <ele>978.8</ele>
        <time>2019-04-12T08:18:09Z</time>
      </trkpt>
      <trkpt lat="42.13284" lon="2.39491">
        <ele>978.4</ele>
        <time>2019-04-12T08:18:11Z</time>
      </trkpt>
      <trkpt lat="42.13285" lon="2.3949">
        <ele>978.2</ele>
        <time>2019-04-12T08:18:11Z</time>
      </trkpt>
      <trkpt lat="42.13286" lon="2.3949">
        <ele>978.1</ele>
        <time>2019-04-12T08:18:12Z</time>
      </trkpt>
      <trkpt lat="42.13286" lon="2.3949">
        <ele>977.8</ele>
        <time>2019-04-12T08:18:12Z</time>
      </trkpt>
      <trkpt lat="42.13285" lon="2.3949">
        <ele>977.6</ele>
        <time>2019-04-12T08:18:12Z</time>
      </trkpt>
      <trkpt lat="42.13284" lon="2.39492">
        <ele>977.2</ele>
        <time>2019-04-12T08:18:13Z</time>
      </trkpt>
      <trkpt lat="42.13284" lon="2.39493">
        <ele>977.1</ele>
        <time>2019-04-12T08:18:13Z</time>
      </trkpt>
      <trkpt lat="42.13282" lon="2.39494">
        <ele>975.6</ele>
        <time>2019-04-12T08:18:14Z</time>
      </trkpt>
      <trkpt lat="42.13281" lon="2.39494">
        <ele>974.8</ele>
        <time>2019-04-12T08:18:14Z</time>
      </trkpt>
      <trkpt lat="42.13281" lon="2.39493">
        <ele>974.4</ele>
        <time>2019-04-12T08:18:14Z</time>
      </trkpt>
      <trkpt lat="42.13284" lon="2.39494">
        <ele>974</ele>
        <time>2019-04-12T08:18:16Z</time>
      </trkpt>
      <trkpt lat="42.13286" lon="2.39496">
        <ele>973.5</ele>
        <time>2019-04-12T08:18:17Z</time>
      </trkpt>
      <trkpt lat="42.13288" lon="2.39498">
        <ele>973</ele>
        <time>2019-04-12T08:18:18Z</time>
      </trkpt>
      <trkpt lat="42.13292" lon="2.39499">
        <ele>972.7</ele>
        <time>2019-04-12T08:18:19Z</time>
      </trkpt>
      <trkpt lat="42.133" lon="2.39502">
        <ele>972.3</ele>
        <time>2019-04-12T08:18:22Z</time>
      </trkpt>
      <trkpt lat="42.13302" lon="2.39503">
        <ele>972</ele>
        <time>2019-04-12T08:18:23Z</time>
      </trkpt>
      <trkpt lat="42.13303" lon="2.39503">
        <ele>971.7</ele>
        <time>2019-04-12T08:18:24Z</time>
      </trkpt>
      <trkpt lat="42.13303" lon="2.39501">
        <ele>971.5</ele>
        <time>2019-04-12T08:18:24Z</time>
      </trkpt>
      <trkpt lat="42.13303" lon="2.395">
        <ele>971.3</ele>
        <time>2019-04-12T08:18:24Z</time>
      </trkpt>
      <trkpt lat="42.13303" lon="2.39499">
        <ele>971.1</ele>
        <time>2019-04-12T08:18:25Z</time>
      </trkpt>
      <trkpt lat="42.13304" lon="2.39496">
        <ele>970.7</ele>
        <time>2019-04-12T08:18:26Z</time>
      </trkpt>
      <trkpt lat="42.13304" lon="2.39494">
        <ele>970.5</ele>
        <time>2019-04-12T08:18:26Z</time>
      </trkpt>
      <trkpt lat="42.13303" lon="2.39493">
        <ele>970</ele>
        <time>2019-04-12T08:18:27Z</time>
      </trkpt>
      <trkpt lat="42.13302" lon="2.39492">
        <ele>969.4</ele>
        <time>2019-04-12T08:18:27Z</time>
      </trkpt>
      <trkpt lat="42.13302" lon="2.39493">
        <ele>968.8</ele>
        <time>2019-04-12T08:18:27Z</time>
      </trkpt>
      <trkpt lat="42.13302" lon="2.39493">
        <ele>968.6</ele>
        <time>2019-04-12T08:18:27Z</time>
      </trkpt>
      <trkpt lat="42.13305" lon="2.39491">
        <ele>968.2</ele>
        <time>2019-04-12T08:18:28Z</time>
      </trkpt>
      <trkpt lat="42.1331" lon="2.3949">
        <ele>967.7</ele>
        <time>2019-04-12T08:18:30Z</time>
      </trkpt>
      <trkpt lat="42.13312" lon="2.39489">
        <ele>967.5</ele>
        <time>2019-04-12T08:18:31Z</time>
      </trkpt>
      <trkpt lat="42.13313" lon="2.39487">
        <ele>967.2</ele>
        <time>2019-04-12T08:18:32Z</time>
      </trkpt>
      <trkpt lat="42.13318" lon="2.39485">
        <ele>966.6</ele>
        <time>2019-04-12T08:18:34Z</time>
      </trkpt>
      <trkpt lat="42.13319" lon="2.39486">
        <ele>966.6</ele>
        <time>2019-04-12T08:18:34Z</time>
      </trkpt>
      <trkpt lat="42.13319" lon="2.39487">
        <ele>966.5</ele>
        <time>2019-04-12T08:18:35Z</time>
      </trkpt>
      <trkpt lat="42.1332" lon="2.39487">
        <ele>966.4</ele>
        <time>2019-04-12T08:18:35Z</time>
      </trkpt>
      <trkpt lat="42.13322" lon="2.39488">
        <ele>966.2</ele>
        <time>2019-04-12T08:18:36Z</time>
      </trkpt>
      <trkpt lat="42.13323" lon="2.3949">
        <ele>966</ele>
        <time>2019-04-12T08:18:36Z</time>
      </trkpt>
      <trkpt lat="42.13327" lon="2.39488">
        <ele>965.6</ele>
        <time>2019-04-12T08:18:38Z</time>
      </trkpt>
      <trkpt lat="42.1333" lon="2.39486">
        <ele>965.3</ele>
        <time>2019-04-12T08:18:39Z</time>
      </trkpt>
      <trkpt lat="42.13331" lon="2.39486">
        <ele>964.7</ele>
        <time>2019-04-12T08:18:40Z</time>
      </trkpt>
      <trkpt lat="42.13332" lon="2.39486">
        <ele>964.5</ele>
        <time>2019-04-12T08:18:40Z</time>
      </trkpt>
      <trkpt lat="42.13335" lon="2.39484">
        <ele>963.8</ele>
        <time>2019-04-12T08:18:41Z</time>
      </trkpt>
      <trkpt lat="42.13337" lon="2.39481">
        <ele>963.7</ele>
        <time>2019-04-12T08:18:43Z</time>
      </trkpt>
      <trkpt lat="42.13338" lon="2.39479">
        <ele>963.6</ele>
        <time>2019-04-12T08:18:43Z</time>
      </trkpt>
      <trkpt lat="42.1334" lon="2.39474">
        <ele>963.2</ele>
        <time>2019-04-12T08:18:45Z</time>
      </trkpt>
      <trkpt lat="42.1334" lon="2.39473">
        <ele>962.6</ele>
        <time>2019-04-12T08:18:45Z</time>
      </trkpt>
      <trkpt lat="42.13338" lon="2.39471">
        <ele>962.2</ele>
        <time>2019-04-12T08:18:46Z</time>
      </trkpt>
      <trkpt lat="42.13337" lon="2.3947">
        <ele>961.7</ele>
        <time>2019-04-12T08:18:47Z</time>
      </trkpt>
      <trkpt lat="42.13338" lon="2.39466">
        <ele>961.2</ele>
        <time>2019-04-12T08:18:48Z</time>
      </trkpt>
      <trkpt lat="42.13339" lon="2.39466">
        <ele>961</ele>
        <time>2019-04-12T08:18:48Z</time>
      </trkpt>
      <trkpt lat="42.13338" lon="2.39467">
        <ele>960.8</ele>
        <time>2019-04-12T08:18:48Z</time>
      </trkpt>
      <trkpt lat="42.13337" lon="2.39466">
        <ele>960.2</ele>
        <time>2019-04-12T08:18:49Z</time>
      </trkpt>
      <trkpt lat="42.13335" lon="2.39466">
        <ele>960</ele>
        <time>2019-04-12T08:18:50Z</time>
      </trkpt>
      <trkpt lat="42.13332" lon="2.39468">
        <ele>959.2</ele>
        <time>2019-04-12T08:18:51Z</time>
      </trkpt>
      <trkpt lat="42.13332" lon="2.39468">
        <ele>958.8</ele>
        <time>2019-04-12T08:18:51Z</time>
      </trkpt>
      <trkpt lat="42.13333" lon="2.3947">
        <ele>958</ele>
        <time>2019-04-12T08:18:52Z</time>
      </trkpt>
      <trkpt lat="42.13333" lon="2.39471">
        <ele>958.1</ele>
        <time>2019-04-12T08:18:52Z</time>
      </trkpt>
      <trkpt lat="42.13334" lon="2.39471">
        <ele>957.7</ele>
        <time>2019-04-12T08:18:52Z</time>
      </trkpt>
      <trkpt lat="42.13341" lon="2.39472">
        <ele>956.5</ele>
        <time>2019-04-12T08:18:55Z</time>
      </trkpt>
      <trkpt lat="42.13344" lon="2.39472">
        <ele>955.5</ele>
        <time>2019-04-12T08:18:56Z</time>
      </trkpt>
      <trkpt lat="42.13345" lon="2.39473">
        <ele>955.5</ele>
        <time>2019-04-12T08:18:57Z</time>
      </trkpt>
      <trkpt lat="42.13346" lon="2.39474">
        <ele>955.4</ele>
        <time>2019-04-12T08:18:58Z</time>
      </trkpt>
      <trkpt lat="42.13352" lon="2.39478">
        <ele>954.5</ele>
        <time>2019-04-12T08:19:00Z</time>
      </trkpt>
      <trkpt lat="42.13353" lon="2.3947">
        <ele>953.6</ele>
        <time>2019-04-12T08:19:02Z</time>
      </trkpt>
      <trkpt lat="42.13353" lon="2.39469">
        <ele>953.2</ele>
        <time>2019-04-12T08:19:03Z</time>
      </trkpt>
      <trkpt lat="42.13353" lon="2.39469">
        <ele>953.2</ele>
        <time>2019-04-12T08:19:03Z</time>
      </trkpt>
      <trkpt lat="42.1335" lon="2.39469">
        <ele>952.3</ele>
        <time>2019-04-12T08:19:04Z</time>
      </trkpt>
      <trkpt lat="42.13349" lon="2.39472">
        <ele>951.8</ele>
        <time>2019-04-12T08:19:05Z</time>
      </trkpt>
      <trkpt lat="42.13347" lon="2.39478">
        <ele>951.3</ele>
        <time>2019-04-12T08:19:07Z</time>
      </trkpt>
      <trkpt lat="42.13344" lon="2.39481">
        <ele>950.1</ele>
        <time>2019-04-12T08:19:09Z</time>
      </trkpt>
      <trkpt lat="42.13343" lon="2.39482">
        <ele>949.7</ele>
        <time>2019-04-12T08:19:09Z</time>
      </trkpt>
      <trkpt lat="42.13341" lon="2.39479">
        <ele>949.5</ele>
        <time>2019-04-12T08:19:10Z</time>
      </trkpt>
      <trkpt lat="42.13342" lon="2.39479">
        <ele>949.5</ele>
        <time>2019-04-12T08:19:11Z</time>
      </trkpt>
      <trkpt lat="42.13344" lon="2.39479">
        <ele>949</ele>
        <time>2019-04-12T08:19:11Z</time>
      </trkpt>
      <trkpt lat="42.13347" lon="2.39479">
        <ele>948.2</ele>
        <time>2019-04-12T08:19:12Z</time>
      </trkpt>
      <trkpt lat="42.13349" lon="2.39484">
        <ele>947.8</ele>
        <time>2019-04-12T08:19:14Z</time>
      </trkpt>
      <trkpt lat="42.13351" lon="2.39488">
        <ele>947.6</ele>
        <time>2019-04-12T08:19:16Z</time>
      </trkpt>
      <trkpt lat="42.13355" lon="2.39492">
        <ele>947.1</ele>
        <time>2019-04-12T08:19:18Z</time>
      </trkpt>
      <trkpt lat="42.13356" lon="2.39492">
        <ele>946.8</ele>
        <time>2019-04-12T08:19:18Z</time>
      </trkpt>
      <trkpt lat="42.13356" lon="2.39491">
        <ele>946.5</ele>
        <time>2019-04-12T08:19:18Z</time>
      </trkpt>
      <trkpt lat="42.13356" lon="2.3949">
        <ele>946.3</ele>
        <time>2019-04-12T08:19:19Z</time>
      </trkpt>
      <trkpt lat="42.13359" lon="2.39482">
        <ele>945.5</ele>
        <time>2019-04-12T08:19:21Z</time>
      </trkpt>
      <trkpt lat="42.1336" lon="2.39476">
        <ele>945.2</ele>
        <time>2019-04-12T08:19:23Z</time>
      </trkpt>
      <trkpt lat="42.13361" lon="2.3947">
        <ele>944.4</ele>
        <time>2019-04-12T08:19:25Z</time>
      </trkpt>
      <trkpt lat="42.13356" lon="2.39476">
        <ele>943.6</ele>
        <time>2019-04-12T08:19:27Z</time>
      </trkpt>
      <trkpt lat="42.13355" lon="2.39477">
        <ele>943.4</ele>
        <time>2019-04-12T08:19:28Z</time>
      </trkpt>
      <trkpt lat="42.13353" lon="2.39483">
        <ele>942.4</ele>
        <time>2019-04-12T08:19:30Z</time>
      </trkpt>
      <trkpt lat="42.13353" lon="2.39482">
        <ele>942.1</ele>
        <time>2019-04-12T08:19:30Z</time>
      </trkpt>
      <trkpt lat="42.13354" lon="2.39481">
        <ele>941.1</ele>
        <time>2019-04-12T08:19:30Z</time>
      </trkpt>
      <trkpt lat="42.13356" lon="2.3948">
        <ele>940.6</ele>
        <time>2019-04-12T08:19:31Z</time>
      </trkpt>
      <trkpt lat="42.13358" lon="2.3948">
        <ele>940.1</ele>
        <time>2019-04-12T08:19:32Z</time>
      </trkpt>
      <trkpt lat="42.13358" lon="2.39481">
        <ele>939.2</ele>
        <time>2019-04-12T08:19:32Z</time>
      </trkpt>
      <trkpt lat="42.13358" lon="2.39483">
        <ele>939</ele>
        <time>2019-04-12T08:19:33Z</time>
      </trkpt>
      <trkpt lat="42.13358" lon="2.39484">
        <ele>938.6</ele>
        <time>2019-04-12T08:19:33Z</time>
      </trkpt>
      <trkpt lat="42.1336" lon="2.39487">
        <ele>938.2</ele>
        <time>2019-04-12T08:19:34Z</time>
      </trkpt>
      <trkpt lat="42.13364" lon="2.3949">
        <ele>937.7</ele>
        <time>2019-04-12T08:19:36Z</time>
      </trkpt>
      <trkpt lat="42.13369" lon="2.39497">
        <ele>936.8</ele>
        <time>2019-04-12T08:19:39Z</time>
      </trkpt>
      <trkpt lat="42.13369" lon="2.39498">
        <ele>936.5</ele>
        <time>2019-04-12T08:19:39Z</time>
      </trkpt>
      <trkpt lat="42.13363" lon="2.39498">
        <ele>935.4</ele>
        <time>2019-04-12T08:19:42Z</time>
      </trkpt>
      <trkpt lat="42.13359" lon="2.39497">
        <ele>934.4</ele>
        <time>2019-04-12T08:19:43Z</time>
      </trkpt>
      <trkpt lat="42.13358" lon="2.39495">
        <ele>934.5</ele>
        <time>2019-04-12T08:19:44Z</time>
      </trkpt>
      <trkpt lat="42.13358" lon="2.39492">
        <ele>934.3</ele>
        <time>2019-04-12T08:19:45Z</time>
      </trkpt>
      <trkpt lat="42.13362" lon="2.39487">
        <ele>934</ele>
        <time>2019-04-12T08:19:47Z</time>
      </trkpt>
      <trkpt lat="42.13371" lon="2.39484">
        <ele>933.5</ele>
        <time>2019-04-12T08:19:51Z</time>
      </trkpt>
      <trkpt lat="42.13372" lon="2.39485">
        <ele>933.1</ele>
        <time>2019-04-12T08:19:51Z</time>
      </trkpt>
      <trkpt lat="42.13376" lon="2.39496">
        <ele>932.2</ele>
        <time>2019-04-12T08:19:54Z</time>
      </trkpt>
      <trkpt lat="42.13378" lon="2.39495">
        <ele>931.2</ele>
        <time>2019-04-12T08:19:55Z</time>
      </trkpt>
      <trkpt lat="42.13379" lon="2.39491">
        <ele>931</ele>
        <time>2019-04-12T08:19:57Z</time>
      </trkpt>
      <trkpt lat="42.13379" lon="2.39489">
        <ele>931</ele>
        <time>2019-04-12T08:19:57Z</time>
      </trkpt>
      <trkpt lat="42.13382" lon="2.39476">
        <ele>930.5</ele>
        <time>2019-04-12T08:20:01Z</time>
      </trkpt>
      <trkpt lat="42.13385" lon="2.39469">
        <ele>930.1</ele>
        <time>2019-04-12T08:20:04Z</time>
      </trkpt>
      <trkpt lat="42.13387" lon="2.39468">
        <ele>929.4</ele>
        <time>2019-04-12T08:20:05Z</time>
      </trkpt>
      <trkpt lat="42.13387" lon="2.39467">
        <ele>929.5</ele>
        <time>2019-04-12T08:20:05Z</time>
      </trkpt>
      <trkpt lat="42.13388" lon="2.39466">
        <ele>929.3</ele>
        <time>2019-04-12T08:20:05Z</time>
      </trkpt>
      <trkpt lat="42.13392" lon="2.39464">
        <ele>929.5</ele>
        <time>2019-04-12T08:20:07Z</time>
      </trkpt>
      <trkpt lat="42.13398" lon="2.39469">
        <ele>929.2</ele>
        <time>2019-04-12T08:20:10Z</time>
      </trkpt>
      <trkpt lat="42.13403" lon="2.39475">
        <ele>928.7</ele>
        <time>2019-04-12T08:20:13Z</time>
      </trkpt>
      <trkpt lat="42.13408" lon="2.39479">
        <ele>928.6</ele>
        <time>2019-04-12T08:20:15Z</time>
      </trkpt>
      <trkpt lat="42.1341" lon="2.3948">
        <ele>928.5</ele>
        <time>2019-04-12T08:20:16Z</time>
      </trkpt>
      <trkpt lat="42.13412" lon="2.39482">
        <ele>928.5</ele>
        <time>2019-04-12T08:20:17Z</time>
      </trkpt>
      <trkpt lat="42.13416" lon="2.39488">
        <ele>928.5</ele>
        <time>2019-04-12T08:20:19Z</time>
      </trkpt>
      <trkpt lat="42.13417" lon="2.3949">
        <ele>928.5</ele>
        <time>2019-04-12T08:20:20Z</time>
      </trkpt>
      <trkpt lat="42.1342" lon="2.39495">
        <ele>928.5</ele>
        <time>2019-04-12T08:20:22Z</time>
      </trkpt>
      <trkpt lat="42.13421" lon="2.39496">
        <ele>928.3</ele>
        <time>2019-04-12T08:20:23Z</time>
      </trkpt>
      <trkpt lat="42.13422" lon="2.39498">
        <ele>928.2</ele>
        <time>2019-04-12T08:20:23Z</time>
      </trkpt>
      <trkpt lat="42.13422" lon="2.395">
        <ele>928.1</ele>
        <time>2019-04-12T08:20:24Z</time>
      </trkpt>
      <trkpt lat="42.13421" lon="2.39499">
        <ele>928</ele>
        <time>2019-04-12T08:20:24Z</time>
      </trkpt>
      <trkpt lat="42.1342" lon="2.39498">
        <ele>928.1</ele>
        <time>2019-04-12T08:20:25Z</time>
      </trkpt>
      <trkpt lat="42.13419" lon="2.39496">
        <ele>927.7</ele>
        <time>2019-04-12T08:20:25Z</time>
      </trkpt>
      <trkpt lat="42.13419" lon="2.39494">
        <ele>927.8</ele>
        <time>2019-04-12T08:20:26Z</time>
      </trkpt>
      <trkpt lat="42.13418" lon="2.39492">
        <ele>927.7</ele>
        <time>2019-04-12T08:20:27Z</time>
      </trkpt>
      <trkpt lat="42.13419" lon="2.39489">
        <ele>927.4</ele>
        <time>2019-04-12T08:20:27Z</time>
      </trkpt>
      <trkpt lat="42.1342" lon="2.3949">
        <ele>927</ele>
        <time>2019-04-12T08:20:28Z</time>
      </trkpt>
      <trkpt lat="42.13424" lon="2.39492">
        <ele>926.6</ele>
        <time>2019-04-12T08:20:30Z</time>
      </trkpt>
      <trkpt lat="42.13432" lon="2.39498">
        <ele>926.3</ele>
        <time>2019-04-12T08:20:33Z</time>
      </trkpt>
      <trkpt lat="42.13434" lon="2.39499">
        <ele>926.1</ele>
        <time>2019-04-12T08:20:34Z</time>
      </trkpt>
      <trkpt lat="42.13437" lon="2.395">
        <ele>925.5</ele>
        <time>2019-04-12T08:20:35Z</time>
      </trkpt>
      <trkpt lat="42.1344" lon="2.39502">
        <ele>925.1</ele>
        <time>2019-04-12T08:20:37Z</time>
      </trkpt>
      <trkpt lat="42.13441" lon="2.39503">
        <ele>924.7</ele>
        <time>2019-04-12T08:20:37Z</time>
      </trkpt>
      <trkpt lat="42.13441" lon="2.39504">
        <ele>924.4</ele>
        <time>2019-04-12T08:20:37Z</time>
      </trkpt>
      <trkpt lat="42.13439" lon="2.39504">
        <ele>924.5</ele>
        <time>2019-04-12T08:20:38Z</time>
      </trkpt>
      <trkpt lat="42.13437" lon="2.39501">
        <ele>924.3</ele>
        <time>2019-04-12T08:20:39Z</time>
      </trkpt>
      <trkpt lat="42.13435" lon="2.39498">
        <ele>924.2</ele>
        <time>2019-04-12T08:20:41Z</time>
      </trkpt>
      <trkpt lat="42.13429" lon="2.39494">
        <ele>923.7</ele>
        <time>2019-04-12T08:20:43Z</time>
      </trkpt>
      <trkpt lat="42.13426" lon="2.39492">
        <ele>924</ele>
        <time>2019-04-12T08:20:45Z</time>
      </trkpt>
      <trkpt lat="42.13436" lon="2.39516">
        <ele>923.4</ele>
        <time>2019-04-12T08:20:53Z</time>
      </trkpt>
      <trkpt lat="42.13436" lon="2.39521">
        <ele>923.4</ele>
        <time>2019-04-12T08:20:55Z</time>
      </trkpt>
      <trkpt lat="42.13433" lon="2.39533">
        <ele>923</ele>
        <time>2019-04-12T08:20:58Z</time>
      </trkpt>
      <trkpt lat="42.13433" lon="2.39536">
        <ele>923.1</ele>
        <time>2019-04-12T08:20:59Z</time>
      </trkpt>
      <trkpt lat="42.13439" lon="2.39539">
        <ele>923.2</ele>
        <time>2019-04-12T08:21:02Z</time>
      </trkpt>
      <trkpt lat="42.13434" lon="2.39541">
        <ele>923</ele>
        <time>2019-04-12T08:21:04Z</time>
      </trkpt>
      <trkpt lat="42.13429" lon="2.39538">
        <ele>923.3</ele>
        <time>2019-04-12T08:21:07Z</time>
      </trkpt>
      <trkpt lat="42.13429" lon="2.39538">
        <ele>923.3</ele>
        <time>2019-04-12T08:21:07Z</time>
      </trkpt>
      <trkpt lat="42.13432" lon="2.39536">
        <ele>923.2</ele>
        <time>2019-04-12T08:21:08Z</time>
      </trkpt>
      <trkpt lat="42.13441" lon="2.39533">
        <ele>923.5</ele>
        <time>2019-04-12T08:21:12Z</time>
      </trkpt>
      <trkpt lat="42.13441" lon="2.39533">
        <ele>923.5</ele>
        <time>2019-04-12T08:21:12Z</time>
      </trkpt>
      <trkpt lat="42.13442" lon="2.39533">
        <ele>923.6</ele>
        <time>2019-04-12T08:21:12Z</time>
      </trkpt>
      <trkpt lat="42.13443" lon="2.39532">
        <ele>923.5</ele>
        <time>2019-04-12T08:21:13Z</time>
      </trkpt>
      <trkpt lat="42.13445" lon="2.39531">
        <ele>923.5</ele>
        <time>2019-04-12T08:21:14Z</time>
      </trkpt>
      <trkpt lat="42.13446" lon="2.3953">
        <ele>923.5</ele>
        <time>2019-04-12T08:21:14Z</time>
      </trkpt>
      <trkpt lat="42.13447" lon="2.39529">
        <ele>923.7</ele>
        <time>2019-04-12T08:21:15Z</time>
      </trkpt>
      <trkpt lat="42.13446" lon="2.39529">
        <ele>953.6</ele>
        <time>2019-04-12T08:21:15Z</time>
      </trkpt>
      <trkpt lat="42.13446" lon="2.3953">
        <ele>938.4</ele>
        <time>2019-04-12T08:21:15Z</time>
      </trkpt>
      <trkpt lat="42.13446" lon="2.39531">
        <ele>930.7</ele>
        <time>2019-04-12T08:21:16Z</time>
      </trkpt>
      <trkpt lat="42.13447" lon="2.39531">
        <ele>927</ele>
        <time>2019-04-12T08:21:16Z</time>
      </trkpt>
      <trkpt lat="42.13448" lon="2.39531">
        <ele>925.3</ele>
        <time>2019-04-12T08:21:16Z</time>
      </trkpt>
      <trkpt lat="42.13449" lon="2.39531">
        <ele>923.7</ele>
        <time>2019-04-12T08:21:17Z</time>
      </trkpt>
      <trkpt lat="42.13449" lon="2.39531">
        <ele>923.4</ele>
        <time>2019-04-12T08:21:17Z</time>
      </trkpt>
      <trkpt lat="42.13448" lon="2.39532">
        <ele>923.3</ele>
        <time>2019-04-12T08:21:17Z</time>
      </trkpt>
      <trkpt lat="42.13454" lon="2.39531">
        <ele>923.3</ele>
        <time>2019-04-12T08:21:19Z</time>
      </trkpt>
      <trkpt lat="42.13457" lon="2.39529">
        <ele>923.3</ele>
        <time>2019-04-12T08:21:21Z</time>
      </trkpt>
      <trkpt lat="42.1346" lon="2.39529">
        <ele>923.3</ele>
        <time>2019-04-12T08:21:22Z</time>
      </trkpt>
      <trkpt lat="42.13457" lon="2.39532">
        <ele>923.2</ele>
        <time>2019-04-12T08:21:23Z</time>
      </trkpt>
      <trkpt lat="42.13447" lon="2.39533">
        <ele>923.2</ele>
        <time>2019-04-12T08:21:27Z</time>
      </trkpt>
      <trkpt lat="42.13443" lon="2.39534">
        <ele>923.3</ele>
        <time>2019-04-12T08:21:29Z</time>
      </trkpt>
      <trkpt lat="42.13442" lon="2.39533">
        <ele>923.3</ele>
        <time>2019-04-12T08:21:29Z</time>
      </trkpt>
      <trkpt lat="42.13444" lon="2.39533">
        <ele>923.5</ele>
        <time>2019-04-12T08:21:30Z</time>
      </trkpt>
      <trkpt lat="42.13446" lon="2.39525">
        <ele>923.5</ele>
        <time>2019-04-12T08:21:32Z</time>
      </trkpt>
      <trkpt lat="42.13444" lon="2.39521">
        <ele>923.5</ele>
        <time>2019-04-12T08:21:34Z</time>
      </trkpt>
      <trkpt lat="42.13444" lon="2.39519">
        <ele>923.5</ele>
        <time>2019-04-12T08:21:34Z</time>
      </trkpt>
      <trkpt lat="42.13432" lon="2.39516">
        <ele>923.7</ele>
        <time>2019-04-12T08:21:39Z</time>
      </trkpt>
      <trkpt lat="42.13431" lon="2.39516">
        <ele>923.7</ele>
        <time>2019-04-12T08:21:39Z</time>
      </trkpt>
      <trkpt lat="42.13431" lon="2.39515">
        <ele>923.8</ele>
        <time>2019-04-12T08:21:40Z</time>
      </trkpt>
      <trkpt lat="42.13432" lon="2.39511">
        <ele>924.3</ele>
        <time>2019-04-12T08:21:41Z</time>
      </trkpt>
      <trkpt lat="42.13439" lon="2.39516">
        <ele>924.2</ele>
        <time>2019-04-12T08:21:44Z</time>
      </trkpt>
      <trkpt lat="42.1344" lon="2.39514">
        <ele>924</ele>
        <time>2019-04-12T08:21:44Z</time>
      </trkpt>
      <trkpt lat="42.13441" lon="2.39512">
        <ele>924.3</ele>
        <time>2019-04-12T08:21:45Z</time>
      </trkpt>
      <trkpt lat="42.13438" lon="2.39513">
        <ele>924</ele>
        <time>2019-04-12T08:21:47Z</time>
      </trkpt>
      <trkpt lat="42.13442" lon="2.39514">
        <ele>924.2</ele>
        <time>2019-04-12T08:21:48Z</time>
      </trkpt>
      <trkpt lat="42.13433" lon="2.39502">
        <ele>924.3</ele>
        <time>2019-04-12T08:21:54Z</time>
      </trkpt>
      <trkpt lat="42.1342" lon="2.39498">
        <ele>923.7</ele>
        <time>2019-04-12T08:21:59Z</time>
      </trkpt>
      <trkpt lat="42.13419" lon="2.39499">
        <ele>923.7</ele>
        <time>2019-04-12T08:22:00Z</time>
      </trkpt>
      <trkpt lat="42.1342" lon="2.395">
        <ele>923.8</ele>
        <time>2019-04-12T08:22:00Z</time>
      </trkpt>
      <trkpt lat="42.13444" lon="2.39505">
        <ele>923.8</ele>
        <time>2019-04-12T08:22:10Z</time>
      </trkpt>
      <trkpt lat="42.13443" lon="2.39504">
        <ele>923.8</ele>
        <time>2019-04-12T08:22:10Z</time>
      </trkpt>
      <trkpt lat="42.13442" lon="2.39503">
        <ele>923.8</ele>
        <time>2019-04-12T08:22:11Z</time>
      </trkpt>
      <trkpt lat="42.13442" lon="2.39502">
        <ele>923.8</ele>
        <time>2019-04-12T08:22:11Z</time>
      </trkpt>
      <trkpt lat="42.13437" lon="2.39502">
        <ele>924.1</ele>
        <time>2019-04-12T08:22:13Z</time>
      </trkpt>
      <trkpt lat="42.13436" lon="2.39504">
        <ele>924.1</ele>
        <time>2019-04-12T08:22:14Z</time>
      </trkpt>
      <trkpt lat="42.13437" lon="2.3951">
        <ele>924.1</ele>
        <time>2019-04-12T08:22:16Z</time>
      </trkpt>
      <trkpt lat="42.13438" lon="2.39513">
        <ele>924</ele>
        <time>2019-04-12T08:22:17Z</time>
      </trkpt>
      <trkpt lat="42.13439" lon="2.3952">
        <ele>924.1</ele>
        <time>2019-04-12T08:22:18Z</time>
      </trkpt>
      <trkpt lat="42.13442" lon="2.39516">
        <ele>924.4</ele>
        <time>2019-04-12T08:22:20Z</time>
      </trkpt>
      <trkpt lat="42.13442" lon="2.39514">
        <ele>924.4</ele>
        <time>2019-04-12T08:22:21Z</time>
      </trkpt>
      <trkpt lat="42.13442" lon="2.39513">
        <ele>924.3</ele>
        <time>2019-04-12T08:22:21Z</time>
      </trkpt>
      <trkpt lat="42.13442" lon="2.39513">
        <ele>924.3</ele>
        <time>2019-04-12T08:22:21Z</time>
      </trkpt>
      <trkpt lat="42.13444" lon="2.3951">
        <ele>924.1</ele>
        <time>2019-04-12T08:22:22Z</time>
      </trkpt>
      <trkpt lat="42.1344" lon="2.39503">
        <ele>923.5</ele>
        <time>2019-04-12T08:22:25Z</time>
      </trkpt>
      <trkpt lat="42.1344" lon="2.39501">
        <ele>923.6</ele>
        <time>2019-04-12T08:22:25Z</time>
      </trkpt>
      <trkpt lat="42.13441" lon="2.395">
        <ele>923.5</ele>
        <time>2019-04-12T08:22:26Z</time>
      </trkpt>
      <trkpt lat="42.13441" lon="2.39498">
        <ele>923.4</ele>
        <time>2019-04-12T08:22:26Z</time>
      </trkpt>
      <trkpt lat="42.1345" lon="2.39493">
        <ele>923.3</ele>
        <time>2019-04-12T08:22:30Z</time>
      </trkpt>
      <trkpt lat="42.13456" lon="2.39501">
        <ele>923.3</ele>
        <time>2019-04-12T08:22:33Z</time>
      </trkpt>
      <trkpt lat="42.13458" lon="2.39507">
        <ele>923.2</ele>
        <time>2019-04-12T08:22:35Z</time>
      </trkpt>
      <trkpt lat="42.13458" lon="2.39512">
        <ele>923.2</ele>
        <time>2019-04-12T08:22:37Z</time>
      </trkpt>
      <trkpt lat="42.13458" lon="2.39514">
        <ele>923.2</ele>
        <time>2019-04-12T08:22:38Z</time>
      </trkpt>
      <trkpt lat="42.13459" lon="2.3952">
        <ele>923.6</ele>
        <time>2019-04-12T08:22:39Z</time>
      </trkpt>
      <trkpt lat="42.13459" lon="2.39524">
        <ele>923.4</ele>
        <time>2019-04-12T08:22:41Z</time>
      </trkpt>
      <trkpt lat="42.13458" lon="2.39531">
        <ele>922.8</ele>
        <time>2019-04-12T08:22:43Z</time>
      </trkpt>
      <trkpt lat="42.13458" lon="2.39533">
        <ele>922.7</ele>
        <time>2019-04-12T08:22:43Z</time>
      </trkpt>
      <trkpt lat="42.13458" lon="2.39534">
        <ele>922.6</ele>
        <time>2019-04-12T08:22:44Z</time>
      </trkpt>
      <trkpt lat="42.13459" lon="2.39535">
        <ele>922.5</ele>
        <time>2019-04-12T08:22:44Z</time>
      </trkpt>
      <trkpt lat="42.1346" lon="2.39536">
        <ele>922.2</ele>
        <time>2019-04-12T08:22:45Z</time>
      </trkpt>
      <trkpt lat="42.13462" lon="2.39537">
        <ele>922.1</ele>
        <time>2019-04-12T08:22:45Z</time>
      </trkpt>
      <trkpt lat="42.13463" lon="2.39537">
        <ele>921.8</ele>
        <time>2019-04-12T08:22:46Z</time>
      </trkpt>
      <trkpt lat="42.13463" lon="2.39538">
        <ele>921.6</ele>
        <time>2019-04-12T08:22:46Z</time>
      </trkpt>
      <trkpt lat="42.13463" lon="2.39538">
        <ele>921.5</ele>
        <time>2019-04-12T08:22:46Z</time>
      </trkpt>
      <trkpt lat="42.13466" lon="2.39539">
        <ele>921.4</ele>
        <time>2019-04-12T08:22:47Z</time>
      </trkpt>
      <trkpt lat="42.13467" lon="2.3954">
        <ele>921.5</ele>
        <time>2019-04-12T08:22:48Z</time>
      </trkpt>
      <trkpt lat="42.1347" lon="2.3954">
        <ele>921.5</ele>
        <time>2019-04-12T08:22:49Z</time>
      </trkpt>
      <trkpt lat="42.13472" lon="2.39542">
        <ele>921.5</ele>
        <time>2019-04-12T08:22:50Z</time>
      </trkpt>
      <trkpt lat="42.13474" lon="2.39544">
        <ele>921.4</ele>
        <time>2019-04-12T08:22:51Z</time>
      </trkpt>
      <trkpt lat="42.13475" lon="2.39545">
        <ele>921.5</ele>
        <time>2019-04-12T08:22:52Z</time>
      </trkpt>
      <trkpt lat="42.13475" lon="2.39547">
        <ele>921.5</ele>
        <time>2019-04-12T08:22:52Z</time>
      </trkpt>
      <trkpt lat="42.13481" lon="2.39553">
        <ele>921.8</ele>
        <time>2019-04-12T08:22:55Z</time>
      </trkpt>
      <trkpt lat="42.13485" lon="2.39558">
        <ele>922</ele>
        <time>2019-04-12T08:22:57Z</time>
      </trkpt>
      <trkpt lat="42.1349" lon="2.39562">
        <ele>921.8</ele>
        <time>2019-04-12T08:23:00Z</time>
      </trkpt>
      <trkpt lat="42.13495" lon="2.39569">
        <ele>921.7</ele>
        <time>2019-04-12T08:23:03Z</time>
      </trkpt>
      <trkpt lat="42.13496" lon="2.39571">
        <ele>922</ele>
        <time>2019-04-12T08:23:03Z</time>
      </trkpt>
      <trkpt lat="42.13498" lon="2.39572">
        <ele>922</ele>
        <time>2019-04-12T08:23:04Z</time>
      </trkpt>
      <trkpt lat="42.13502" lon="2.39573">
        <ele>921.2</ele>
        <time>2019-04-12T08:23:06Z</time>
      </trkpt>
      <trkpt lat="42.13503" lon="2.39572">
        <ele>921.2</ele>
        <time>2019-04-12T08:23:06Z</time>
      </trkpt>
      <trkpt lat="42.13504" lon="2.39571">
        <ele>920.6</ele>
        <time>2019-04-12T08:23:07Z</time>
      </trkpt>
      <trkpt lat="42.13505" lon="2.39571">
        <ele>920.6</ele>
        <time>2019-04-12T08:23:07Z</time>
      </trkpt>
      <trkpt lat="42.13506" lon="2.39571">
        <ele>920</ele>
        <time>2019-04-12T08:23:07Z</time>
      </trkpt>
      <trkpt lat="42.13506" lon="2.39572">
        <ele>919.6</ele>
        <time>2019-04-12T08:23:08Z</time>
      </trkpt>
      <trkpt lat="42.13507" lon="2.39574">
        <ele>919.3</ele>
        <time>2019-04-12T08:23:08Z</time>
      </trkpt>
      <trkpt lat="42.13508" lon="2.39576">
        <ele>918.5</ele>
        <time>2019-04-12T08:23:09Z</time>
      </trkpt>
      <trkpt lat="42.1351" lon="2.39577">
        <ele>918.3</ele>
        <time>2019-04-12T08:23:10Z</time>
      </trkpt>
      <trkpt lat="42.13511" lon="2.39578">
        <ele>918.1</ele>
        <time>2019-04-12T08:23:10Z</time>
      </trkpt>
      <trkpt lat="42.13516" lon="2.39582">
        <ele>917.5</ele>
        <time>2019-04-12T08:23:13Z</time>
      </trkpt>
      <trkpt lat="42.13518" lon="2.39583">
        <ele>917.4</ele>
        <time>2019-04-12T08:23:13Z</time>
      </trkpt>
      <trkpt lat="42.1352" lon="2.39584">
        <ele>917.1</ele>
        <time>2019-04-12T08:23:14Z</time>
      </trkpt>
      <trkpt lat="42.13522" lon="2.39588">
        <ele>916.4</ele>
        <time>2019-04-12T08:23:16Z</time>
      </trkpt>
      <trkpt lat="42.13523" lon="2.39589">
        <ele>916.3</ele>
        <time>2019-04-12T08:23:16Z</time>
      </trkpt>
      <trkpt lat="42.13526" lon="2.39591">
        <ele>916.1</ele>
        <time>2019-04-12T08:23:18Z</time>
      </trkpt>
      <trkpt lat="42.13528" lon="2.39592">
        <ele>915.8</ele>
        <time>2019-04-12T08:23:18Z</time>
      </trkpt>
      <trkpt lat="42.13535" lon="2.39602">
        <ele>916.5</ele>
        <time>2019-04-12T08:23:23Z</time>
      </trkpt>
      <trkpt lat="42.13536" lon="2.39603">
        <ele>916.4</ele>
        <time>2019-04-12T08:23:23Z</time>
      </trkpt>
      <trkpt lat="42.13538" lon="2.39603">
        <ele>916.4</ele>
        <time>2019-04-12T08:23:24Z</time>
      </trkpt>
      <trkpt lat="42.13539" lon="2.39602">
        <ele>916.1</ele>
        <time>2019-04-12T08:23:24Z</time>
      </trkpt>
      <trkpt lat="42.13541" lon="2.39606">
        <ele>915.2</ele>
        <time>2019-04-12T08:23:26Z</time>
      </trkpt>
      <trkpt lat="42.13541" lon="2.39608">
        <ele>914.7</ele>
        <time>2019-04-12T08:23:26Z</time>
      </trkpt>
      <trkpt lat="42.13541" lon="2.3961">
        <ele>914.5</ele>
        <time>2019-04-12T08:23:27Z</time>
      </trkpt>
      <trkpt lat="42.13541" lon="2.3961">
        <ele>914.4</ele>
        <time>2019-04-12T08:23:27Z</time>
      </trkpt>
      <trkpt lat="42.1354" lon="2.3961">
        <ele>914.3</ele>
        <time>2019-04-12T08:23:27Z</time>
      </trkpt>
      <trkpt lat="42.1354" lon="2.3961">
        <ele>914.3</ele>
        <time>2019-04-12T08:23:27Z</time>
      </trkpt>
      <trkpt lat="42.1354" lon="2.39611">
        <ele>913.5</ele>
        <time>2019-04-12T08:23:27Z</time>
      </trkpt>
      <trkpt lat="42.13542" lon="2.3961">
        <ele>913.1</ele>
        <time>2019-04-12T08:23:28Z</time>
      </trkpt>
      <trkpt lat="42.13547" lon="2.39615">
        <ele>912</ele>
        <time>2019-04-12T08:23:31Z</time>
      </trkpt>
      <trkpt lat="42.13548" lon="2.39617">
        <ele>911.7</ele>
        <time>2019-04-12T08:23:31Z</time>
      </trkpt>
      <trkpt lat="42.13549" lon="2.39618">
        <ele>911.6</ele>
        <time>2019-04-12T08:23:32Z</time>
      </trkpt>
      <trkpt lat="42.1355" lon="2.3962">
        <ele>911.2</ele>
        <time>2019-04-12T08:23:33Z</time>
      </trkpt>
      <trkpt lat="42.1355" lon="2.3962">
        <ele>911.1</ele>
        <time>2019-04-12T08:23:33Z</time>
      </trkpt>
      <trkpt lat="42.1355" lon="2.39621">
        <ele>910.5</ele>
        <time>2019-04-12T08:23:33Z</time>
      </trkpt>
      <trkpt lat="42.13547" lon="2.39621">
        <ele>909.5</ele>
        <time>2019-04-12T08:23:34Z</time>
      </trkpt>
      <trkpt lat="42.13547" lon="2.39622">
        <ele>909.5</ele>
        <time>2019-04-12T08:23:34Z</time>
      </trkpt>
      <trkpt lat="42.13547" lon="2.39621">
        <ele>909.2</ele>
        <time>2019-04-12T08:23:34Z</time>
      </trkpt>
      <trkpt lat="42.13548" lon="2.3962">
        <ele>909.1</ele>
        <time>2019-04-12T08:23:35Z</time>
      </trkpt>
      <trkpt lat="42.1355" lon="2.39615">
        <ele>908.6</ele>
        <time>2019-04-12T08:23:37Z</time>
      </trkpt>
      <trkpt lat="42.13551" lon="2.39614">
        <ele>908.2</ele>
        <time>2019-04-12T08:23:37Z</time>
      </trkpt>
      <trkpt lat="42.13555" lon="2.39616">
        <ele>907.3</ele>
        <time>2019-04-12T08:23:39Z</time>
      </trkpt>
      <trkpt lat="42.13557" lon="2.39619">
        <ele>906.4</ele>
        <time>2019-04-12T08:23:40Z</time>
      </trkpt>
      <trkpt lat="42.13558" lon="2.39619">
        <ele>906.2</ele>
        <time>2019-04-12T08:23:40Z</time>
      </trkpt>
      <trkpt lat="42.13559" lon="2.39623">
        <ele>905.3</ele>
        <time>2019-04-12T08:23:42Z</time>
      </trkpt>
      <trkpt lat="42.1356" lon="2.39624">
        <ele>904.7</ele>
        <time>2019-04-12T08:23:42Z</time>
      </trkpt>
      <trkpt lat="42.13561" lon="2.39625">
        <ele>904.2</ele>
        <time>2019-04-12T08:23:42Z</time>
      </trkpt>
      <trkpt lat="42.13561" lon="2.39626">
        <ele>904</ele>
        <time>2019-04-12T08:23:43Z</time>
      </trkpt>
      <trkpt lat="42.13562" lon="2.39627">
        <ele>903.6</ele>
        <time>2019-04-12T08:23:43Z</time>
      </trkpt>
      <trkpt lat="42.13566" lon="2.3963">
        <ele>903.1</ele>
        <time>2019-04-12T08:23:45Z</time>
      </trkpt>
      <trkpt lat="42.13567" lon="2.39633">
        <ele>902.6</ele>
        <time>2019-04-12T08:23:46Z</time>
      </trkpt>
      <trkpt lat="42.13569" lon="2.39632">
        <ele>902.3</ele>
        <time>2019-04-12T08:23:47Z</time>
      </trkpt>
      <trkpt lat="42.1357" lon="2.39632">
        <ele>901.8</ele>
        <time>2019-04-12T08:23:47Z</time>
      </trkpt>
      <trkpt lat="42.13573" lon="2.39633">
        <ele>901.3</ele>
        <time>2019-04-12T08:23:48Z</time>
      </trkpt>
      <trkpt lat="42.13574" lon="2.39633">
        <ele>900.8</ele>
        <time>2019-04-12T08:23:49Z</time>
      </trkpt>
      <trkpt lat="42.13575" lon="2.39633">
        <ele>900.6</ele>
        <time>2019-04-12T08:23:49Z</time>
      </trkpt>
      <trkpt lat="42.13576" lon="2.39633">
        <ele>900.2</ele>
        <time>2019-04-12T08:23:50Z</time>
      </trkpt>
      <trkpt lat="42.13578" lon="2.39635">
        <ele>899.5</ele>
        <time>2019-04-12T08:23:51Z</time>
      </trkpt>
      <trkpt lat="42.13579" lon="2.39638">
        <ele>899</ele>
        <time>2019-04-12T08:23:52Z</time>
      </trkpt>
      <trkpt lat="42.1358" lon="2.39641">
        <ele>898.7</ele>
        <time>2019-04-12T08:23:53Z</time>
      </trkpt>
      <trkpt lat="42.13581" lon="2.39643">
        <ele>898.6</ele>
        <time>2019-04-12T08:23:53Z</time>
      </trkpt>
      <trkpt lat="42.13586" lon="2.39651">
        <ele>898</ele>
        <time>2019-04-12T08:23:57Z</time>
      </trkpt>
      <trkpt lat="42.13587" lon="2.39652">
        <ele>897.6</ele>
        <time>2019-04-12T08:23:57Z</time>
      </trkpt>
      <trkpt lat="42.13587" lon="2.39653">
        <ele>897.4</ele>
        <time>2019-04-12T08:23:57Z</time>
      </trkpt>
      <trkpt lat="42.13588" lon="2.39653">
        <ele>897.1</ele>
        <time>2019-04-12T08:23:57Z</time>
      </trkpt>
      <trkpt lat="42.13588" lon="2.39653">
        <ele>896.8</ele>
        <time>2019-04-12T08:23:58Z</time>
      </trkpt>
      <trkpt lat="42.13589" lon="2.39653">
        <ele>896.6</ele>
        <time>2019-04-12T08:23:58Z</time>
      </trkpt>
      <trkpt lat="42.1359" lon="2.39655">
        <ele>896.5</ele>
        <time>2019-04-12T08:23:59Z</time>
      </trkpt>
      <trkpt lat="42.13591" lon="2.39657">
        <ele>896.2</ele>
        <time>2019-04-12T08:24:00Z</time>
      </trkpt>
      <trkpt lat="42.13593" lon="2.39661">
        <ele>896.3</ele>
        <time>2019-04-12T08:24:01Z</time>
      </trkpt>
      <trkpt lat="42.13595" lon="2.39664">
        <ele>895.5</ele>
        <time>2019-04-12T08:24:02Z</time>
      </trkpt>
      <trkpt lat="42.13597" lon="2.39666">
        <ele>895</ele>
        <time>2019-04-12T08:24:03Z</time>
      </trkpt>
      <trkpt lat="42.13599" lon="2.39668">
        <ele>894.5</ele>
        <time>2019-04-12T08:24:04Z</time>
      </trkpt>
      <trkpt lat="42.13601" lon="2.39669">
        <ele>894.3</ele>
        <time>2019-04-12T08:24:05Z</time>
      </trkpt>
      <trkpt lat="42.13601" lon="2.39669">
        <ele>894</ele>
        <time>2019-04-12T08:24:05Z</time>
      </trkpt>
      <trkpt lat="42.13602" lon="2.39669">
        <ele>893.6</ele>
        <time>2019-04-12T08:24:06Z</time>
      </trkpt>
      <trkpt lat="42.13603" lon="2.39669">
        <ele>893.2</ele>
        <time>2019-04-12T08:24:06Z</time>
      </trkpt>
      <trkpt lat="42.13603" lon="2.3967">
        <ele>892.1</ele>
        <time>2019-04-12T08:24:06Z</time>
      </trkpt>
      <trkpt lat="42.13605" lon="2.39676">
        <ele>891.3</ele>
        <time>2019-04-12T08:24:08Z</time>
      </trkpt>
      <trkpt lat="42.13606" lon="2.39679">
        <ele>891.1</ele>
        <time>2019-04-12T08:24:09Z</time>
      </trkpt>
      <trkpt lat="42.13606" lon="2.39681">
        <ele>890.6</ele>
        <time>2019-04-12T08:24:10Z</time>
      </trkpt>
      <trkpt lat="42.13607" lon="2.39684">
        <ele>890.1</ele>
        <time>2019-04-12T08:24:11Z</time>
      </trkpt>
      <trkpt lat="42.13608" lon="2.39685">
        <ele>889.7</ele>
        <time>2019-04-12T08:24:11Z</time>
      </trkpt>
      <trkpt lat="42.13609" lon="2.39687">
        <ele>889.5</ele>
        <time>2019-04-12T08:24:12Z</time>
      </trkpt>
      <trkpt lat="42.13608" lon="2.39688">
        <ele>889.4</ele>
        <time>2019-04-12T08:24:12Z</time>
      </trkpt>
      <trkpt lat="42.13607" lon="2.39687">
        <ele>888.5</ele>
        <time>2019-04-12T08:24:12Z</time>
      </trkpt>
      <trkpt lat="42.13607" lon="2.39685">
        <ele>887.7</ele>
        <time>2019-04-12T08:24:13Z</time>
      </trkpt>
      <trkpt lat="42.13608" lon="2.39684">
        <ele>887.5</ele>
        <time>2019-04-12T08:24:13Z</time>
      </trkpt>
      <trkpt lat="42.13608" lon="2.39685">
        <ele>887.4</ele>
        <time>2019-04-12T08:24:14Z</time>
      </trkpt>
      <trkpt lat="42.13611" lon="2.3969">
        <ele>886.3</ele>
        <time>2019-04-12T08:24:15Z</time>
      </trkpt>
      <trkpt lat="42.13611" lon="2.39691">
        <ele>886.1</ele>
        <time>2019-04-12T08:24:16Z</time>
      </trkpt>
      <trkpt lat="42.13612" lon="2.39693">
        <ele>885.8</ele>
        <time>2019-04-12T08:24:16Z</time>
      </trkpt>
      <trkpt lat="42.13612" lon="2.39694">
        <ele>885.6</ele>
        <time>2019-04-12T08:24:17Z</time>
      </trkpt>
      <trkpt lat="42.13613" lon="2.39694">
        <ele>885</ele>
        <time>2019-04-12T08:24:17Z</time>
      </trkpt>
      <trkpt lat="42.13615" lon="2.39695">
        <ele>884.5</ele>
        <time>2019-04-12T08:24:18Z</time>
      </trkpt>
      <trkpt lat="42.13617" lon="2.39697">
        <ele>884</ele>
        <time>2019-04-12T08:24:19Z</time>
      </trkpt>
      <trkpt lat="42.13618" lon="2.39704">
        <ele>883.1</ele>
        <time>2019-04-12T08:24:21Z</time>
      </trkpt>
      <trkpt lat="42.13619" lon="2.39705">
        <ele>882.8</ele>
        <time>2019-04-12T08:24:21Z</time>
      </trkpt>
      <trkpt lat="42.13619" lon="2.39711">
        <ele>882.5</ele>
        <time>2019-04-12T08:24:23Z</time>
      </trkpt>
      <trkpt lat="42.1362" lon="2.3971">
        <ele>881.8</ele>
        <time>2019-04-12T08:24:23Z</time>
      </trkpt>
      <trkpt lat="42.13622" lon="2.39713">
        <ele>881.5</ele>
        <time>2019-04-12T08:24:24Z</time>
      </trkpt>
      <trkpt lat="42.13622" lon="2.39714">
        <ele>881.5</ele>
        <time>2019-04-12T08:24:25Z</time>
      </trkpt>
      <trkpt lat="42.13623" lon="2.39716">
        <ele>881.1</ele>
        <time>2019-04-12T08:24:25Z</time>
      </trkpt>
      <trkpt lat="42.13622" lon="2.3972">
        <ele>880.5</ele>
        <time>2019-04-12T08:24:26Z</time>
      </trkpt>
      <trkpt lat="42.13621" lon="2.39722">
        <ele>880.2</ele>
        <time>2019-04-12T08:24:27Z</time>
      </trkpt>
      <trkpt lat="42.1362" lon="2.39726">
        <ele>879.4</ele>
        <time>2019-04-12T08:24:28Z</time>
      </trkpt>
      <trkpt lat="42.13621" lon="2.39726">
        <ele>879.2</ele>
        <time>2019-04-12T08:24:29Z</time>
      </trkpt>
      <trkpt lat="42.13621" lon="2.39728">
        <ele>879</ele>
        <time>2019-04-12T08:24:29Z</time>
      </trkpt>
      <trkpt lat="42.1362" lon="2.39731">
        <ele>878.5</ele>
        <time>2019-04-12T08:24:30Z</time>
      </trkpt>
      <trkpt lat="42.1362" lon="2.39732">
        <ele>878.5</ele>
        <time>2019-04-12T08:24:31Z</time>
      </trkpt>
      <trkpt lat="42.13621" lon="2.39733">
        <ele>878.3</ele>
        <time>2019-04-12T08:24:31Z</time>
      </trkpt>
      <trkpt lat="42.13622" lon="2.39735">
        <ele>878.3</ele>
        <time>2019-04-12T08:24:32Z</time>
      </trkpt>
      <trkpt lat="42.13622" lon="2.39737">
        <ele>878.5</ele>
        <time>2019-04-12T08:24:32Z</time>
      </trkpt>
      <trkpt lat="42.13623" lon="2.39741">
        <ele>878.1</ele>
        <time>2019-04-12T08:24:33Z</time>
      </trkpt>
      <trkpt lat="42.13621" lon="2.39748">
        <ele>877.4</ele>
        <time>2019-04-12T08:24:36Z</time>
      </trkpt>
      <trkpt lat="42.13621" lon="2.39749">
        <ele>877.5</ele>
        <time>2019-04-12T08:24:36Z</time>
      </trkpt>
      <trkpt lat="42.13618" lon="2.39753">
        <ele>877.3</ele>
        <time>2019-04-12T08:24:37Z</time>
      </trkpt>
      <trkpt lat="42.13618" lon="2.39753">
        <ele>877.2</ele>
        <time>2019-04-12T08:24:38Z</time>
      </trkpt>
      <trkpt lat="42.13617" lon="2.39758">
        <ele>877.4</ele>
        <time>2019-04-12T08:24:39Z</time>
      </trkpt>
      <trkpt lat="42.13616" lon="2.3976">
        <ele>877.4</ele>
        <time>2019-04-12T08:24:40Z</time>
      </trkpt>
      <trkpt lat="42.13617" lon="2.39767">
        <ele>877.4</ele>
        <time>2019-04-12T08:24:42Z</time>
      </trkpt>
      <trkpt lat="42.13617" lon="2.39768">
        <ele>877.4</ele>
        <time>2019-04-12T08:24:42Z</time>
      </trkpt>
      <trkpt lat="42.13617" lon="2.39769">
        <ele>877.5</ele>
        <time>2019-04-12T08:24:42Z</time>
      </trkpt>
      <trkpt lat="42.13613" lon="2.39775">
        <ele>877.5</ele>
        <time>2019-04-12T08:24:45Z</time>
      </trkpt>
      <trkpt lat="42.13612" lon="2.39779">
        <ele>877.1</ele>
        <time>2019-04-12T08:24:46Z</time>
      </trkpt>
      <trkpt lat="42.13611" lon="2.39783">
        <ele>876.6</ele>
        <time>2019-04-12T08:24:47Z</time>
      </trkpt>
      <trkpt lat="42.1361" lon="2.39784">
        <ele>876.5</ele>
        <time>2019-04-12T08:24:48Z</time>
      </trkpt>
      <trkpt lat="42.1361" lon="2.39785">
        <ele>876.1</ele>
        <time>2019-04-12T08:24:48Z</time>
      </trkpt>
      <trkpt lat="42.13608" lon="2.3979">
        <ele>875.3</ele>
        <time>2019-04-12T08:24:50Z</time>
      </trkpt>
      <trkpt lat="42.13607" lon="2.39793">
        <ele>875</ele>
        <time>2019-04-12T08:24:51Z</time>
      </trkpt>
      <trkpt lat="42.13602" lon="2.39802">
        <ele>874.5</ele>
        <time>2019-04-12T08:24:54Z</time>
      </trkpt>
      <trkpt lat="42.13601" lon="2.39804">
        <ele>874.5</ele>
        <time>2019-04-12T08:24:55Z</time>
      </trkpt>
      <trkpt lat="42.136" lon="2.39808">
        <ele>874.5</ele>
        <time>2019-04-12T08:24:56Z</time>
      </trkpt>
      <trkpt lat="42.13597" lon="2.39812">
        <ele>874.6</ele>
        <time>2019-04-12T08:24:58Z</time>
      </trkpt>
      <trkpt lat="42.13597" lon="2.39814">
        <ele>874.5</ele>
        <time>2019-04-12T08:24:58Z</time>
      </trkpt>
      <trkpt lat="42.13596" lon="2.39817">
        <ele>874.8</ele>
        <time>2019-04-12T08:24:59Z</time>
      </trkpt>
      <trkpt lat="42.13596" lon="2.39819">
        <ele>875.1</ele>
        <time>2019-04-12T08:25:00Z</time>
      </trkpt>
      <trkpt lat="42.13594" lon="2.39825">
        <ele>875.2</ele>
        <time>2019-04-12T08:25:02Z</time>
      </trkpt>
      <trkpt lat="42.13594" lon="2.39826">
        <ele>875.3</ele>
        <time>2019-04-12T08:25:02Z</time>
      </trkpt>
      <trkpt lat="42.13593" lon="2.39828">
        <ele>875.2</ele>
        <time>2019-04-12T08:25:03Z</time>
      </trkpt>
      <trkpt lat="42.13591" lon="2.39831">
        <ele>875</ele>
        <time>2019-04-12T08:25:04Z</time>
      </trkpt>
      <trkpt lat="42.13591" lon="2.39833">
        <ele>875</ele>
        <time>2019-04-12T08:25:05Z</time>
      </trkpt>
      <trkpt lat="42.13592" lon="2.39837">
        <ele>875</ele>
        <time>2019-04-12T08:25:06Z</time>
      </trkpt>
      <trkpt lat="42.13591" lon="2.39838">
        <ele>875</ele>
        <time>2019-04-12T08:25:06Z</time>
      </trkpt>
      <trkpt lat="42.13591" lon="2.3984">
        <ele>875.2</ele>
        <time>2019-04-12T08:25:07Z</time>
      </trkpt>
      <trkpt lat="42.13591" lon="2.39842">
        <ele>875.2</ele>
        <time>2019-04-12T08:25:07Z</time>
      </trkpt>
      <trkpt lat="42.13591" lon="2.39844">
        <ele>875.4</ele>
        <time>2019-04-12T08:25:08Z</time>
      </trkpt>
      <trkpt lat="42.1359" lon="2.39846">
        <ele>875.5</ele>
        <time>2019-04-12T08:25:09Z</time>
      </trkpt>
      <trkpt lat="42.1359" lon="2.39849">
        <ele>875.8</ele>
        <time>2019-04-12T08:25:10Z</time>
      </trkpt>
      <trkpt lat="42.13589" lon="2.39853">
        <ele>875.8</ele>
        <time>2019-04-12T08:25:11Z</time>
      </trkpt>
      <trkpt lat="42.13586" lon="2.39853">
        <ele>876</ele>
        <time>2019-04-12T08:25:12Z</time>
      </trkpt>
      <trkpt lat="42.13585" lon="2.39856">
        <ele>876.2</ele>
        <time>2019-04-12T08:25:13Z</time>
      </trkpt>
      <trkpt lat="42.13582" lon="2.39861">
        <ele>876.1</ele>
        <time>2019-04-12T08:25:14Z</time>
      </trkpt>
      <trkpt lat="42.13582" lon="2.39862">
        <ele>876</ele>
        <time>2019-04-12T08:25:15Z</time>
      </trkpt>
      <trkpt lat="42.1358" lon="2.39866">
        <ele>875.7</ele>
        <time>2019-04-12T08:25:16Z</time>
      </trkpt>
      <trkpt lat="42.13579" lon="2.39868">
        <ele>875.7</ele>
        <time>2019-04-12T08:25:17Z</time>
      </trkpt>
      <trkpt lat="42.13579" lon="2.3987">
        <ele>875.8</ele>
        <time>2019-04-12T08:25:18Z</time>
      </trkpt>
      <trkpt lat="42.1358" lon="2.39874">
        <ele>875.6</ele>
        <time>2019-04-12T08:25:19Z</time>
      </trkpt>
      <trkpt lat="42.1358" lon="2.39876">
        <ele>874.6</ele>
        <time>2019-04-12T08:25:19Z</time>
      </trkpt>
      <trkpt lat="42.1358" lon="2.39878">
        <ele>874.4</ele>
        <time>2019-04-12T08:25:20Z</time>
      </trkpt>
      <trkpt lat="42.13579" lon="2.3988">
        <ele>874.3</ele>
        <time>2019-04-12T08:25:21Z</time>
      </trkpt>
      <trkpt lat="42.13579" lon="2.39882">
        <ele>874.1</ele>
        <time>2019-04-12T08:25:21Z</time>
      </trkpt>
      <trkpt lat="42.13577" lon="2.3989">
        <ele>873</ele>
        <time>2019-04-12T08:25:24Z</time>
      </trkpt>
      <trkpt lat="42.13577" lon="2.39892">
        <ele>873</ele>
        <time>2019-04-12T08:25:24Z</time>
      </trkpt>
      <trkpt lat="42.13573" lon="2.39901">
        <ele>871.8</ele>
        <time>2019-04-12T08:25:27Z</time>
      </trkpt>
      <trkpt lat="42.1357" lon="2.39906">
        <ele>871.4</ele>
        <time>2019-04-12T08:25:29Z</time>
      </trkpt>
      <trkpt lat="42.13569" lon="2.39911">
        <ele>871.5</ele>
        <time>2019-04-12T08:25:31Z</time>
      </trkpt>
      <trkpt lat="42.13569" lon="2.39913">
        <ele>871.5</ele>
        <time>2019-04-12T08:25:31Z</time>
      </trkpt>
      <trkpt lat="42.13568" lon="2.39914">
        <ele>871.8</ele>
        <time>2019-04-12T08:25:32Z</time>
      </trkpt>
      <trkpt lat="42.13567" lon="2.39918">
        <ele>872.1</ele>
        <time>2019-04-12T08:25:33Z</time>
      </trkpt>
      <trkpt lat="42.13566" lon="2.39918">
        <ele>872.1</ele>
        <time>2019-04-12T08:25:33Z</time>
      </trkpt>
      <trkpt lat="42.13566" lon="2.39918">
        <ele>872.1</ele>
        <time>2019-04-12T08:25:34Z</time>
      </trkpt>
      <trkpt lat="42.13567" lon="2.39918">
        <ele>871.8</ele>
        <time>2019-04-12T08:25:34Z</time>
      </trkpt>
      <trkpt lat="42.13568" lon="2.39918">
        <ele>871.6</ele>
        <time>2019-04-12T08:25:35Z</time>
      </trkpt>
      <trkpt lat="42.13569" lon="2.39919">
        <ele>871.5</ele>
        <time>2019-04-12T08:25:35Z</time>
      </trkpt>
      <trkpt lat="42.13569" lon="2.39922">
        <ele>871.5</ele>
        <time>2019-04-12T08:25:36Z</time>
      </trkpt>
      <trkpt lat="42.13565" lon="2.39933">
        <ele>871.4</ele>
        <time>2019-04-12T08:25:40Z</time>
      </trkpt>
      <trkpt lat="42.13562" lon="2.39937">
        <ele>872</ele>
        <time>2019-04-12T08:25:41Z</time>
      </trkpt>
      <trkpt lat="42.13562" lon="2.39939">
        <ele>872</ele>
        <time>2019-04-12T08:25:42Z</time>
      </trkpt>
      <trkpt lat="42.13562" lon="2.3994">
        <ele>871.7</ele>
        <time>2019-04-12T08:25:42Z</time>
      </trkpt>
      <trkpt lat="42.1356" lon="2.39945">
        <ele>871.5</ele>
        <time>2019-04-12T08:25:44Z</time>
      </trkpt>
      <trkpt lat="42.13559" lon="2.39946">
        <ele>871.5</ele>
        <time>2019-04-12T08:25:44Z</time>
      </trkpt>
      <trkpt lat="42.13558" lon="2.3995">
        <ele>871.5</ele>
        <time>2019-04-12T08:25:46Z</time>
      </trkpt>
      <trkpt lat="42.13553" lon="2.39957">
        <ele>871.7</ele>
        <time>2019-04-12T08:25:48Z</time>
      </trkpt>
      <trkpt lat="42.13552" lon="2.39961">
        <ele>872.3</ele>
        <time>2019-04-12T08:25:50Z</time>
      </trkpt>
      <trkpt lat="42.13552" lon="2.39963">
        <ele>872.7</ele>
        <time>2019-04-12T08:25:50Z</time>
      </trkpt>
      <trkpt lat="42.13553" lon="2.39963">
        <ele>873</ele>
        <time>2019-04-12T08:25:51Z</time>
      </trkpt>
      <trkpt lat="42.13554" lon="2.39963">
        <ele>873.3</ele>
        <time>2019-04-12T08:25:51Z</time>
      </trkpt>
      <trkpt lat="42.13554" lon="2.39963">
        <ele>873.6</ele>
        <time>2019-04-12T08:25:51Z</time>
      </trkpt>
      <trkpt lat="42.13555" lon="2.39966">
        <ele>873.7</ele>
        <time>2019-04-12T08:25:52Z</time>
      </trkpt>
      <trkpt lat="42.13555" lon="2.39967">
        <ele>874</ele>
        <time>2019-04-12T08:25:52Z</time>
      </trkpt>
      <trkpt lat="42.13555" lon="2.39969">
        <ele>874</ele>
        <time>2019-04-12T08:25:53Z</time>
      </trkpt>
      <trkpt lat="42.13554" lon="2.39975">
        <ele>873.3</ele>
        <time>2019-04-12T08:25:55Z</time>
      </trkpt>
      <trkpt lat="42.13554" lon="2.39976">
        <ele>873</ele>
        <time>2019-04-12T08:25:55Z</time>
      </trkpt>
      <trkpt lat="42.13553" lon="2.39979">
        <ele>872.7</ele>
        <time>2019-04-12T08:25:56Z</time>
      </trkpt>
      <trkpt lat="42.13552" lon="2.39979">
        <ele>873.1</ele>
        <time>2019-04-12T08:25:56Z</time>
      </trkpt>
      <trkpt lat="42.1355" lon="2.39983">
        <ele>872.7</ele>
        <time>2019-04-12T08:25:58Z</time>
      </trkpt>
      <trkpt lat="42.1355" lon="2.39985">
        <ele>872.8</ele>
        <time>2019-04-12T08:25:58Z</time>
      </trkpt>
      <trkpt lat="42.13549" lon="2.39987">
        <ele>872.4</ele>
        <time>2019-04-12T08:25:59Z</time>
      </trkpt>
      <trkpt lat="42.1355" lon="2.3999">
        <ele>872.1</ele>
        <time>2019-04-12T08:26:00Z</time>
      </trkpt>
      <trkpt lat="42.1355" lon="2.39992">
        <ele>871.8</ele>
        <time>2019-04-12T08:26:00Z</time>
      </trkpt>
      <trkpt lat="42.1355" lon="2.39992">
        <ele>871.5</ele>
        <time>2019-04-12T08:26:00Z</time>
      </trkpt>
      <trkpt lat="42.13549" lon="2.39993">
        <ele>871.5</ele>
        <time>2019-04-12T08:26:01Z</time>
      </trkpt>
      <trkpt lat="42.13549" lon="2.39997">
        <ele>871.4</ele>
        <time>2019-04-12T08:26:02Z</time>
      </trkpt>
      <trkpt lat="42.13549" lon="2.40001">
        <ele>870.7</ele>
        <time>2019-04-12T08:26:03Z</time>
      </trkpt>
      <trkpt lat="42.13549" lon="2.40002">
        <ele>870.5</ele>
        <time>2019-04-12T08:26:04Z</time>
      </trkpt>
      <trkpt lat="42.13551" lon="2.40003">
        <ele>870</ele>
        <time>2019-04-12T08:26:04Z</time>
      </trkpt>
      <trkpt lat="42.13551" lon="2.40004">
        <ele>870.1</ele>
        <time>2019-04-12T08:26:05Z</time>
      </trkpt>
      <trkpt lat="42.13552" lon="2.40007">
        <ele>869.7</ele>
        <time>2019-04-12T08:26:06Z</time>
      </trkpt>
      <trkpt lat="42.13553" lon="2.40011">
        <ele>869.8</ele>
        <time>2019-04-12T08:26:07Z</time>
      </trkpt>
      <trkpt lat="42.13553" lon="2.40014">
        <ele>869.7</ele>
        <time>2019-04-12T08:26:08Z</time>
      </trkpt>
      <trkpt lat="42.13554" lon="2.40016">
        <ele>869.6</ele>
        <time>2019-04-12T08:26:08Z</time>
      </trkpt>
      <trkpt lat="42.13554" lon="2.40016">
        <ele>869.5</ele>
        <time>2019-04-12T08:26:08Z</time>
      </trkpt>
      <trkpt lat="42.13552" lon="2.40019">
        <ele>868.6</ele>
        <time>2019-04-12T08:26:10Z</time>
      </trkpt>
      <trkpt lat="42.13551" lon="2.40021">
        <ele>868.4</ele>
        <time>2019-04-12T08:26:10Z</time>
      </trkpt>
      <trkpt lat="42.1355" lon="2.40024">
        <ele>868.2</ele>
        <time>2019-04-12T08:26:11Z</time>
      </trkpt>
      <trkpt lat="42.13547" lon="2.40027">
        <ele>868</ele>
        <time>2019-04-12T08:26:13Z</time>
      </trkpt>
      <trkpt lat="42.1354" lon="2.40031">
        <ele>868</ele>
        <time>2019-04-12T08:26:16Z</time>
      </trkpt>
      <trkpt lat="42.13539" lon="2.40036">
        <ele>868.3</ele>
        <time>2019-04-12T08:26:17Z</time>
      </trkpt>
      <trkpt lat="42.13539" lon="2.40039">
        <ele>867.5</ele>
        <time>2019-04-12T08:26:18Z</time>
      </trkpt>
      <trkpt lat="42.13539" lon="2.4004">
        <ele>867.2</ele>
        <time>2019-04-12T08:26:19Z</time>
      </trkpt>
      <trkpt lat="42.13541" lon="2.40039">
        <ele>866</ele>
        <time>2019-04-12T08:26:19Z</time>
      </trkpt>
      <trkpt lat="42.13543" lon="2.40037">
        <ele>865.6</ele>
        <time>2019-04-12T08:26:20Z</time>
      </trkpt>
      <trkpt lat="42.13543" lon="2.40037">
        <ele>865.5</ele>
        <time>2019-04-12T08:26:20Z</time>
      </trkpt>
      <trkpt lat="42.13547" lon="2.40042">
        <ele>865</ele>
        <time>2019-04-12T08:26:23Z</time>
      </trkpt>
      <trkpt lat="42.13548" lon="2.40045">
        <ele>864.7</ele>
        <time>2019-04-12T08:26:23Z</time>
      </trkpt>
      <trkpt lat="42.13549" lon="2.40045">
        <ele>863.7</ele>
        <time>2019-04-12T08:26:24Z</time>
      </trkpt>
      <trkpt lat="42.13553" lon="2.40048">
        <ele>863.4</ele>
        <time>2019-04-12T08:26:26Z</time>
      </trkpt>
      <trkpt lat="42.13554" lon="2.40048">
        <ele>862.8</ele>
        <time>2019-04-12T08:26:26Z</time>
      </trkpt>
      <trkpt lat="42.13553" lon="2.40047">
        <ele>862.7</ele>
        <time>2019-04-12T08:26:27Z</time>
      </trkpt>
      <trkpt lat="42.13543" lon="2.40033">
        <ele>862.6</ele>
        <time>2019-04-12T08:26:32Z</time>
      </trkpt>
      <trkpt lat="42.13545" lon="2.40033">
        <ele>862.2</ele>
        <time>2019-04-12T08:26:33Z</time>
      </trkpt>
      <trkpt lat="42.13546" lon="2.40033">
        <ele>861.5</ele>
        <time>2019-04-12T08:26:33Z</time>
      </trkpt>
      <trkpt lat="42.13548" lon="2.40036">
        <ele>861.1</ele>
        <time>2019-04-12T08:26:34Z</time>
      </trkpt>
      <trkpt lat="42.1355" lon="2.40054">
        <ele>861</ele>
        <time>2019-04-12T08:26:40Z</time>
      </trkpt>
      <trkpt lat="42.13551" lon="2.40065">
        <ele>861.2</ele>
        <time>2019-04-12T08:26:43Z</time>
      </trkpt>
      <trkpt lat="42.13552" lon="2.40067">
        <ele>861.6</ele>
        <time>2019-04-12T08:26:44Z</time>
      </trkpt>
      <trkpt lat="42.13553" lon="2.40069">
        <ele>862.1</ele>
        <time>2019-04-12T08:26:45Z</time>
      </trkpt>
      <trkpt lat="42.13554" lon="2.40072">
        <ele>862.2</ele>
        <time>2019-04-12T08:26:46Z</time>
      </trkpt>
      <trkpt lat="42.13555" lon="2.40073">
        <ele>862.5</ele>
        <time>2019-04-12T08:26:46Z</time>
      </trkpt>
      <trkpt lat="42.13556" lon="2.40073">
        <ele>862.8</ele>
        <time>2019-04-12T08:26:47Z</time>
      </trkpt>
      <trkpt lat="42.13558" lon="2.40073">
        <ele>862.8</ele>
        <time>2019-04-12T08:26:47Z</time>
      </trkpt>
      <trkpt lat="42.13559" lon="2.40077">
        <ele>863.1</ele>
        <time>2019-04-12T08:26:49Z</time>
      </trkpt>
      <trkpt lat="42.13559" lon="2.40079">
        <ele>863.3</ele>
        <time>2019-04-12T08:26:49Z</time>
      </trkpt>
      <trkpt lat="42.13559" lon="2.40081">
        <ele>863.5</ele>
        <time>2019-04-12T08:26:50Z</time>
      </trkpt>
      <trkpt lat="42.13559" lon="2.40083">
        <ele>863.7</ele>
        <time>2019-04-12T08:26:50Z</time>
      </trkpt>
      <trkpt lat="42.13559" lon="2.40084">
        <ele>863.8</ele>
        <time>2019-04-12T08:26:51Z</time>
      </trkpt>
      <trkpt lat="42.1356" lon="2.40086">
        <ele>864.3</ele>
        <time>2019-04-12T08:26:51Z</time>
      </trkpt>
      <trkpt lat="42.1356" lon="2.40087">
        <ele>864.5</ele>
        <time>2019-04-12T08:26:52Z</time>
      </trkpt>
      <trkpt lat="42.13562" lon="2.4009">
        <ele>864.7</ele>
        <time>2019-04-12T08:26:53Z</time>
      </trkpt>
      <trkpt lat="42.13563" lon="2.40095">
        <ele>865</ele>
        <time>2019-04-12T08:26:55Z</time>
      </trkpt>
      <trkpt lat="42.13562" lon="2.40096">
        <ele>865</ele>
        <time>2019-04-12T08:26:55Z</time>
      </trkpt>
      <trkpt lat="42.1356" lon="2.40099">
        <ele>865.2</ele>
        <time>2019-04-12T08:26:56Z</time>
      </trkpt>
      <trkpt lat="42.1356" lon="2.40103">
        <ele>865.4</ele>
        <time>2019-04-12T08:26:57Z</time>
      </trkpt>
      <trkpt lat="42.13562" lon="2.40107">
        <ele>865.5</ele>
        <time>2019-04-12T08:26:59Z</time>
      </trkpt>
      <trkpt lat="42.13562" lon="2.4011">
        <ele>865.4</ele>
        <time>2019-04-12T08:27:00Z</time>
      </trkpt>
      <trkpt lat="42.13562" lon="2.40112">
        <ele>865.5</ele>
        <time>2019-04-12T08:27:00Z</time>
      </trkpt>
      <trkpt lat="42.13561" lon="2.40119">
        <ele>865.5</ele>
        <time>2019-04-12T08:27:02Z</time>
      </trkpt>
      <trkpt lat="42.1356" lon="2.40119">
        <ele>866.1</ele>
        <time>2019-04-12T08:27:03Z</time>
      </trkpt>
      <trkpt lat="42.1356" lon="2.40122">
        <ele>866.4</ele>
        <time>2019-04-12T08:27:03Z</time>
      </trkpt>
      <trkpt lat="42.13558" lon="2.40125">
        <ele>867.2</ele>
        <time>2019-04-12T08:27:04Z</time>
      </trkpt>
      <trkpt lat="42.13559" lon="2.40128">
        <ele>867.6</ele>
        <time>2019-04-12T08:27:05Z</time>
      </trkpt>
      <trkpt lat="42.13559" lon="2.40129">
        <ele>867.7</ele>
        <time>2019-04-12T08:27:06Z</time>
      </trkpt>
      <trkpt lat="42.13559" lon="2.40131">
        <ele>868.2</ele>
        <time>2019-04-12T08:27:06Z</time>
      </trkpt>
      <trkpt lat="42.1356" lon="2.40133">
        <ele>868.5</ele>
        <time>2019-04-12T08:27:07Z</time>
      </trkpt>
      <trkpt lat="42.1356" lon="2.40135">
        <ele>868.5</ele>
        <time>2019-04-12T08:27:08Z</time>
      </trkpt>
      <trkpt lat="42.1356" lon="2.40139">
        <ele>868.8</ele>
        <time>2019-04-12T08:27:09Z</time>
      </trkpt>
      <trkpt lat="42.13561" lon="2.40141">
        <ele>868.8</ele>
        <time>2019-04-12T08:27:09Z</time>
      </trkpt>
      <trkpt lat="42.13561" lon="2.40143">
        <ele>868.7</ele>
        <time>2019-04-12T08:27:10Z</time>
      </trkpt>
      <trkpt lat="42.13561" lon="2.40143">
        <ele>869.3</ele>
        <time>2019-04-12T08:27:10Z</time>
      </trkpt>
      <trkpt lat="42.13561" lon="2.40142">
        <ele>869.4</ele>
        <time>2019-04-12T08:27:10Z</time>
      </trkpt>
      <trkpt lat="42.13562" lon="2.40145">
        <ele>869.7</ele>
        <time>2019-04-12T08:27:11Z</time>
      </trkpt>
      <trkpt lat="42.13561" lon="2.40151">
        <ele>870.4</ele>
        <time>2019-04-12T08:27:13Z</time>
      </trkpt>
      <trkpt lat="42.13561" lon="2.40152">
        <ele>870.6</ele>
        <time>2019-04-12T08:27:13Z</time>
      </trkpt>
      <trkpt lat="42.13565" lon="2.40154">
        <ele>871</ele>
        <time>2019-04-12T08:27:15Z</time>
      </trkpt>
      <trkpt lat="42.13566" lon="2.40156">
        <ele>871</ele>
        <time>2019-04-12T08:27:16Z</time>
      </trkpt>
      <trkpt lat="42.13568" lon="2.40159">
        <ele>871</ele>
        <time>2019-04-12T08:27:17Z</time>
      </trkpt>
      <trkpt lat="42.13569" lon="2.40166">
        <ele>871.2</ele>
        <time>2019-04-12T08:27:19Z</time>
      </trkpt>
      <trkpt lat="42.13572" lon="2.40176">
        <ele>871.2</ele>
        <time>2019-04-12T08:27:22Z</time>
      </trkpt>
      <trkpt lat="42.13572" lon="2.40177">
        <ele>871.3</ele>
        <time>2019-04-12T08:27:23Z</time>
      </trkpt>
      <trkpt lat="42.13574" lon="2.4018">
        <ele>871.5</ele>
        <time>2019-04-12T08:27:24Z</time>
      </trkpt>
      <trkpt lat="42.13575" lon="2.40179">
        <ele>871.6</ele>
        <time>2019-04-12T08:27:24Z</time>
      </trkpt>
      <trkpt lat="42.13576" lon="2.40177">
        <ele>871.5</ele>
        <time>2019-04-12T08:27:25Z</time>
      </trkpt>
      <trkpt lat="42.13577" lon="2.40177">
        <ele>872</ele>
        <time>2019-04-12T08:27:25Z</time>
      </trkpt>
      <trkpt lat="42.13578" lon="2.40181">
        <ele>871.4</ele>
        <time>2019-04-12T08:27:26Z</time>
      </trkpt>
      <trkpt lat="42.1358" lon="2.40185">
        <ele>871.1</ele>
        <time>2019-04-12T08:27:28Z</time>
      </trkpt>
      <trkpt lat="42.1358" lon="2.40189">
        <ele>871</ele>
        <time>2019-04-12T08:27:29Z</time>
      </trkpt>
      <trkpt lat="42.13582" lon="2.40196">
        <ele>871.2</ele>
        <time>2019-04-12T08:27:31Z</time>
      </trkpt>
      <trkpt lat="42.13583" lon="2.40205">
        <ele>871.4</ele>
        <time>2019-04-12T08:27:34Z</time>
      </trkpt>
      <trkpt lat="42.13583" lon="2.40209">
        <ele>871.6</ele>
        <time>2019-04-12T08:27:35Z</time>
      </trkpt>
      <trkpt lat="42.13583" lon="2.40209">
        <ele>871.5</ele>
        <time>2019-04-12T08:27:35Z</time>
      </trkpt>
      <trkpt lat="42.13586" lon="2.4021">
        <ele>872.5</ele>
        <time>2019-04-12T08:27:36Z</time>
      </trkpt>
      <trkpt lat="42.13587" lon="2.40211">
        <ele>872.5</ele>
        <time>2019-04-12T08:27:37Z</time>
      </trkpt>
      <trkpt lat="42.13588" lon="2.40214">
        <ele>873</ele>
        <time>2019-04-12T08:27:38Z</time>
      </trkpt>
      <trkpt lat="42.13587" lon="2.40216">
        <ele>873.6</ele>
        <time>2019-04-12T08:27:38Z</time>
      </trkpt>
      <trkpt lat="42.13587" lon="2.40217">
        <ele>873.6</ele>
        <time>2019-04-12T08:27:39Z</time>
      </trkpt>
      <trkpt lat="42.13589" lon="2.40216">
        <ele>873.6</ele>
        <time>2019-04-12T08:27:39Z</time>
      </trkpt>
      <trkpt lat="42.13592" lon="2.40223">
        <ele>873.4</ele>
        <time>2019-04-12T08:27:42Z</time>
      </trkpt>
      <trkpt lat="42.13593" lon="2.40227">
        <ele>873.4</ele>
        <time>2019-04-12T08:27:43Z</time>
      </trkpt>
      <trkpt lat="42.13592" lon="2.40234">
        <ele>873.4</ele>
        <time>2019-04-12T08:27:45Z</time>
      </trkpt>
      <trkpt lat="42.1359" lon="2.4024">
        <ele>873.6</ele>
        <time>2019-04-12T08:27:47Z</time>
      </trkpt>
      <trkpt lat="42.13589" lon="2.40241">
        <ele>873.7</ele>
        <time>2019-04-12T08:27:47Z</time>
      </trkpt>
      <trkpt lat="42.13589" lon="2.40245">
        <ele>874.2</ele>
        <time>2019-04-12T08:27:49Z</time>
      </trkpt>
      <trkpt lat="42.1359" lon="2.40248">
        <ele>874.6</ele>
        <time>2019-04-12T08:27:50Z</time>
      </trkpt>
      <trkpt lat="42.13592" lon="2.40248">
        <ele>874.8</ele>
        <time>2019-04-12T08:27:50Z</time>
      </trkpt>
      <trkpt lat="42.13596" lon="2.40252">
        <ele>875.2</ele>
        <time>2019-04-12T08:27:52Z</time>
      </trkpt>
      <trkpt lat="42.13597" lon="2.40254">
        <ele>875.3</ele>
        <time>2019-04-12T08:27:53Z</time>
      </trkpt>
      <trkpt lat="42.13599" lon="2.40261">
        <ele>875.3</ele>
        <time>2019-04-12T08:27:55Z</time>
      </trkpt>
      <trkpt lat="42.13603" lon="2.40268">
        <ele>875.6</ele>
        <time>2019-04-12T08:27:58Z</time>
      </trkpt>
      <trkpt lat="42.13603" lon="2.40271">
        <ele>875.6</ele>
        <time>2019-04-12T08:27:59Z</time>
      </trkpt>
      <trkpt lat="42.13605" lon="2.40275">
        <ele>875.7</ele>
        <time>2019-04-12T08:28:00Z</time>
      </trkpt>
      <trkpt lat="42.13606" lon="2.40281">
        <ele>875.7</ele>
        <time>2019-04-12T08:28:02Z</time>
      </trkpt>
      <trkpt lat="42.13607" lon="2.40282">
        <ele>875.7</ele>
        <time>2019-04-12T08:28:02Z</time>
      </trkpt>
      <trkpt lat="42.13608" lon="2.40283">
        <ele>876</ele>
        <time>2019-04-12T08:28:03Z</time>
      </trkpt>
      <trkpt lat="42.13611" lon="2.40293">
        <ele>876.3</ele>
        <time>2019-04-12T08:28:06Z</time>
      </trkpt>
      <trkpt lat="42.13611" lon="2.40294">
        <ele>876.5</ele>
        <time>2019-04-12T08:28:06Z</time>
      </trkpt>
      <trkpt lat="42.13612" lon="2.40298">
        <ele>876.8</ele>
        <time>2019-04-12T08:28:07Z</time>
      </trkpt>
      <trkpt lat="42.13612" lon="2.40299">
        <ele>877</ele>
        <time>2019-04-12T08:28:07Z</time>
      </trkpt>
      <trkpt lat="42.13612" lon="2.403">
        <ele>877.3</ele>
        <time>2019-04-12T08:28:08Z</time>
      </trkpt>
      <trkpt lat="42.13611" lon="2.403">
        <ele>877.4</ele>
        <time>2019-04-12T08:28:08Z</time>
      </trkpt>
      <trkpt lat="42.13612" lon="2.40307">
        <ele>878</ele>
        <time>2019-04-12T08:28:10Z</time>
      </trkpt>
      <trkpt lat="42.13612" lon="2.40309">
        <ele>878.3</ele>
        <time>2019-04-12T08:28:11Z</time>
      </trkpt>
      <trkpt lat="42.13613" lon="2.40315">
        <ele>878.4</ele>
        <time>2019-04-12T08:28:13Z</time>
      </trkpt>
      <trkpt lat="42.13613" lon="2.4032">
        <ele>879</ele>
        <time>2019-04-12T08:28:14Z</time>
      </trkpt>
      <trkpt lat="42.13614" lon="2.40322">
        <ele>879.1</ele>
        <time>2019-04-12T08:28:15Z</time>
      </trkpt>
      <trkpt lat="42.13614" lon="2.40323">
        <ele>879.2</ele>
        <time>2019-04-12T08:28:15Z</time>
      </trkpt>
      <trkpt lat="42.13614" lon="2.40325">
        <ele>879.2</ele>
        <time>2019-04-12T08:28:16Z</time>
      </trkpt>
      <trkpt lat="42.13615" lon="2.40332">
        <ele>879.5</ele>
        <time>2019-04-12T08:28:18Z</time>
      </trkpt>
      <trkpt lat="42.13615" lon="2.40334">
        <ele>879.7</ele>
        <time>2019-04-12T08:28:19Z</time>
      </trkpt>
      <trkpt lat="42.13618" lon="2.40339">
        <ele>880.3</ele>
        <time>2019-04-12T08:28:20Z</time>
      </trkpt>
      <trkpt lat="42.13618" lon="2.40341">
        <ele>880.3</ele>
        <time>2019-04-12T08:28:21Z</time>
      </trkpt>
      <trkpt lat="42.13618" lon="2.40342">
        <ele>880.2</ele>
        <time>2019-04-12T08:28:21Z</time>
      </trkpt>
      <trkpt lat="42.1362" lon="2.40345">
        <ele>880.2</ele>
        <time>2019-04-12T08:28:22Z</time>
      </trkpt>
      <trkpt lat="42.13623" lon="2.40351">
        <ele>880.1</ele>
        <time>2019-04-12T08:28:25Z</time>
      </trkpt>
      <trkpt lat="42.13627" lon="2.4036">
        <ele>879.4</ele>
        <time>2019-04-12T08:28:28Z</time>
      </trkpt>
      <trkpt lat="42.13627" lon="2.40362">
        <ele>879.4</ele>
        <time>2019-04-12T08:28:28Z</time>
      </trkpt>
      <trkpt lat="42.13629" lon="2.40365">
        <ele>879.5</ele>
        <time>2019-04-12T08:28:29Z</time>
      </trkpt>
      <trkpt lat="42.13632" lon="2.40373">
        <ele>880</ele>
        <time>2019-04-12T08:28:32Z</time>
      </trkpt>
      <trkpt lat="42.13633" lon="2.40383">
        <ele>880.5</ele>
        <time>2019-04-12T08:28:35Z</time>
      </trkpt>
      <trkpt lat="42.13634" lon="2.40385">
        <ele>880.4</ele>
        <time>2019-04-12T08:28:35Z</time>
      </trkpt>
      <trkpt lat="42.13635" lon="2.40387">
        <ele>880.5</ele>
        <time>2019-04-12T08:28:36Z</time>
      </trkpt>
      <trkpt lat="42.13636" lon="2.40388">
        <ele>880.5</ele>
        <time>2019-04-12T08:28:37Z</time>
      </trkpt>
      <trkpt lat="42.13641" lon="2.40388">
        <ele>881</ele>
        <time>2019-04-12T08:28:39Z</time>
      </trkpt>
      <trkpt lat="42.13642" lon="2.40389">
        <ele>881</ele>
        <time>2019-04-12T08:28:39Z</time>
      </trkpt>
      <trkpt lat="42.13644" lon="2.4039">
        <ele>881.1</ele>
        <time>2019-04-12T08:28:40Z</time>
      </trkpt>
      <trkpt lat="42.13646" lon="2.40389">
        <ele>881.3</ele>
        <time>2019-04-12T08:28:41Z</time>
      </trkpt>
      <trkpt lat="42.13647" lon="2.40389">
        <ele>881.2</ele>
        <time>2019-04-12T08:28:41Z</time>
      </trkpt>
      <trkpt lat="42.1365" lon="2.40389">
        <ele>881.5</ele>
        <time>2019-04-12T08:28:43Z</time>
      </trkpt>
      <trkpt lat="42.13652" lon="2.4039">
        <ele>882</ele>
        <time>2019-04-12T08:28:44Z</time>
      </trkpt>
      <trkpt lat="42.13654" lon="2.4039">
        <ele>882.5</ele>
        <time>2019-04-12T08:28:44Z</time>
      </trkpt>
      <trkpt lat="42.1366" lon="2.40392">
        <ele>883.1</ele>
        <time>2019-04-12T08:28:47Z</time>
      </trkpt>
      <trkpt lat="42.13662" lon="2.40394">
        <ele>883.3</ele>
        <time>2019-04-12T08:28:48Z</time>
      </trkpt>
      <trkpt lat="42.13663" lon="2.40395">
        <ele>883.4</ele>
        <time>2019-04-12T08:28:48Z</time>
      </trkpt>
      <trkpt lat="42.13668" lon="2.40398">
        <ele>883.8</ele>
        <time>2019-04-12T08:28:50Z</time>
      </trkpt>
      <trkpt lat="42.13672" lon="2.40398">
        <ele>884</ele>
        <time>2019-04-12T08:28:52Z</time>
      </trkpt>
      <trkpt lat="42.13675" lon="2.404">
        <ele>884</ele>
        <time>2019-04-12T08:28:53Z</time>
      </trkpt>
      <trkpt lat="42.13675" lon="2.40401">
        <ele>884</ele>
        <time>2019-04-12T08:28:53Z</time>
      </trkpt>
      <trkpt lat="42.13675" lon="2.40402">
        <ele>884.3</ele>
        <time>2019-04-12T08:28:54Z</time>
      </trkpt>
      <trkpt lat="42.13675" lon="2.40402">
        <ele>884.4</ele>
        <time>2019-04-12T08:28:54Z</time>
      </trkpt>
      <trkpt lat="42.13676" lon="2.40402">
        <ele>884.4</ele>
        <time>2019-04-12T08:28:54Z</time>
      </trkpt>
      <trkpt lat="42.13677" lon="2.40405">
        <ele>885</ele>
        <time>2019-04-12T08:28:55Z</time>
      </trkpt>
      <trkpt lat="42.13679" lon="2.40406">
        <ele>885.3</ele>
        <time>2019-04-12T08:28:56Z</time>
      </trkpt>
      <trkpt lat="42.13681" lon="2.40408">
        <ele>885.5</ele>
        <time>2019-04-12T08:28:57Z</time>
      </trkpt>
      <trkpt lat="42.13685" lon="2.4041">
        <ele>886.1</ele>
        <time>2019-04-12T08:28:58Z</time>
      </trkpt>
      <trkpt lat="42.13687" lon="2.40411">
        <ele>886.4</ele>
        <time>2019-04-12T08:29:00Z</time>
      </trkpt>
      <trkpt lat="42.1369" lon="2.4041">
        <ele>886.6</ele>
        <time>2019-04-12T08:29:01Z</time>
      </trkpt>
      <trkpt lat="42.13691" lon="2.4041">
        <ele>886.6</ele>
        <time>2019-04-12T08:29:01Z</time>
      </trkpt>
      <trkpt lat="42.13693" lon="2.4041">
        <ele>886.6</ele>
        <time>2019-04-12T08:29:02Z</time>
      </trkpt>
      <trkpt lat="42.13695" lon="2.4041">
        <ele>886.7</ele>
        <time>2019-04-12T08:29:03Z</time>
      </trkpt>
      <trkpt lat="42.13701" lon="2.40414">
        <ele>887.1</ele>
        <time>2019-04-12T08:29:05Z</time>
      </trkpt>
      <trkpt lat="42.13705" lon="2.40416">
        <ele>887.4</ele>
        <time>2019-04-12T08:29:07Z</time>
      </trkpt>
      <trkpt lat="42.13706" lon="2.40416">
        <ele>887.5</ele>
        <time>2019-04-12T08:29:07Z</time>
      </trkpt>
      <trkpt lat="42.13707" lon="2.40417">
        <ele>887.5</ele>
        <time>2019-04-12T08:29:08Z</time>
      </trkpt>
      <trkpt lat="42.13712" lon="2.40417">
        <ele>888.5</ele>
        <time>2019-04-12T08:29:10Z</time>
      </trkpt>
      <trkpt lat="42.13713" lon="2.40418">
        <ele>888.5</ele>
        <time>2019-04-12T08:29:10Z</time>
      </trkpt>
      <trkpt lat="42.13713" lon="2.40418">
        <ele>888.6</ele>
        <time>2019-04-12T08:29:11Z</time>
      </trkpt>
      <trkpt lat="42.13715" lon="2.40419">
        <ele>888.8</ele>
        <time>2019-04-12T08:29:11Z</time>
      </trkpt>
      <trkpt lat="42.13717" lon="2.40423">
        <ele>889.4</ele>
        <time>2019-04-12T08:29:13Z</time>
      </trkpt>
      <trkpt lat="42.13718" lon="2.40425">
        <ele>889.7</ele>
        <time>2019-04-12T08:29:13Z</time>
      </trkpt>
      <trkpt lat="42.13724" lon="2.40428">
        <ele>890</ele>
        <time>2019-04-12T08:29:16Z</time>
      </trkpt>
      <trkpt lat="42.13725" lon="2.40429">
        <ele>889.7</ele>
        <time>2019-04-12T08:29:16Z</time>
      </trkpt>
      <trkpt lat="42.13726" lon="2.40429">
        <ele>889.6</ele>
        <time>2019-04-12T08:29:17Z</time>
      </trkpt>
      <trkpt lat="42.13733" lon="2.4043">
        <ele>889.4</ele>
        <time>2019-04-12T08:29:19Z</time>
      </trkpt>
      <trkpt lat="42.13738" lon="2.40434">
        <ele>890.2</ele>
        <time>2019-04-12T08:29:22Z</time>
      </trkpt>
      <trkpt lat="42.1374" lon="2.40435">
        <ele>890.3</ele>
        <time>2019-04-12T08:29:23Z</time>
      </trkpt>
      <trkpt lat="42.1375" lon="2.40445">
        <ele>890</ele>
        <time>2019-04-12T08:29:28Z</time>
      </trkpt>
      <trkpt lat="42.13754" lon="2.4045">
        <ele>890.1</ele>
        <time>2019-04-12T08:29:30Z</time>
      </trkpt>
      <trkpt lat="42.13756" lon="2.40451">
        <ele>890.3</ele>
        <time>2019-04-12T08:29:31Z</time>
      </trkpt>
      <trkpt lat="42.13763" lon="2.40458">
        <ele>890.7</ele>
        <time>2019-04-12T08:29:34Z</time>
      </trkpt>
      <trkpt lat="42.13764" lon="2.40459">
        <ele>891.2</ele>
        <time>2019-04-12T08:29:35Z</time>
      </trkpt>
      <trkpt lat="42.13766" lon="2.4046">
        <ele>891.6</ele>
        <time>2019-04-12T08:29:36Z</time>
      </trkpt>
      <trkpt lat="42.13769" lon="2.40463">
        <ele>891.8</ele>
        <time>2019-04-12T08:29:37Z</time>
      </trkpt>
      <trkpt lat="42.1377" lon="2.40464">
        <ele>891.8</ele>
        <time>2019-04-12T08:29:38Z</time>
      </trkpt>
      <trkpt lat="42.13772" lon="2.40467">
        <ele>891.7</ele>
        <time>2019-04-12T08:29:39Z</time>
      </trkpt>
      <trkpt lat="42.13773" lon="2.40469">
        <ele>892</ele>
        <time>2019-04-12T08:29:39Z</time>
      </trkpt>
      <trkpt lat="42.13773" lon="2.4047">
        <ele>892</ele>
        <time>2019-04-12T08:29:40Z</time>
      </trkpt>
      <trkpt lat="42.13773" lon="2.40472">
        <ele>892.1</ele>
        <time>2019-04-12T08:29:40Z</time>
      </trkpt>
      <trkpt lat="42.13772" lon="2.40472">
        <ele>892.1</ele>
        <time>2019-04-12T08:29:40Z</time>
      </trkpt>
      <trkpt lat="42.13769" lon="2.40474">
        <ele>892.1</ele>
        <time>2019-04-12T08:29:42Z</time>
      </trkpt>
      <trkpt lat="42.13768" lon="2.40474">
        <ele>892.3</ele>
        <time>2019-04-12T08:29:42Z</time>
      </trkpt>
      <trkpt lat="42.13768" lon="2.40474">
        <ele>892.2</ele>
        <time>2019-04-12T08:29:42Z</time>
      </trkpt>
      <trkpt lat="42.13769" lon="2.40472">
        <ele>892.3</ele>
        <time>2019-04-12T08:29:43Z</time>
      </trkpt>
      <trkpt lat="42.13767" lon="2.40474">
        <ele>891.7</ele>
        <time>2019-04-12T08:29:44Z</time>
      </trkpt>
      <trkpt lat="42.13767" lon="2.40473">
        <ele>891.7</ele>
        <time>2019-04-12T08:29:44Z</time>
      </trkpt>
      <trkpt lat="42.13769" lon="2.4047">
        <ele>891.6</ele>
        <time>2019-04-12T08:29:45Z</time>
      </trkpt>
      <trkpt lat="42.13778" lon="2.40475">
        <ele>891.8</ele>
        <time>2019-04-12T08:29:50Z</time>
      </trkpt>
      <trkpt lat="42.13782" lon="2.40478">
        <ele>892.2</ele>
        <time>2019-04-12T08:29:51Z</time>
      </trkpt>
      <trkpt lat="42.13784" lon="2.40479">
        <ele>892.2</ele>
        <time>2019-04-12T08:29:52Z</time>
      </trkpt>
      <trkpt lat="42.13785" lon="2.4048">
        <ele>892.2</ele>
        <time>2019-04-12T08:29:53Z</time>
      </trkpt>
      <trkpt lat="42.13786" lon="2.40481">
        <ele>891.8</ele>
        <time>2019-04-12T08:29:53Z</time>
      </trkpt>
      <trkpt lat="42.13789" lon="2.40484">
        <ele>890.7</ele>
        <time>2019-04-12T08:29:55Z</time>
      </trkpt>
      <trkpt lat="42.13791" lon="2.40484">
        <ele>889.5</ele>
        <time>2019-04-12T08:29:56Z</time>
      </trkpt>
      <trkpt lat="42.13793" lon="2.40483">
        <ele>888.8</ele>
        <time>2019-04-12T08:29:56Z</time>
      </trkpt>
      <trkpt lat="42.13794" lon="2.40483">
        <ele>888.5</ele>
        <time>2019-04-12T08:29:57Z</time>
      </trkpt>
      <trkpt lat="42.13796" lon="2.40483">
        <ele>888.3</ele>
        <time>2019-04-12T08:29:57Z</time>
      </trkpt>
      <trkpt lat="42.13797" lon="2.40484">
        <ele>887.7</ele>
        <time>2019-04-12T08:29:58Z</time>
      </trkpt>
      <trkpt lat="42.138" lon="2.40483">
        <ele>887.2</ele>
        <time>2019-04-12T08:29:59Z</time>
      </trkpt>
      <trkpt lat="42.13806" lon="2.40484">
        <ele>886.6</ele>
        <time>2019-04-12T08:30:02Z</time>
      </trkpt>
      <trkpt lat="42.13809" lon="2.40485">
        <ele>885.7</ele>
        <time>2019-04-12T08:30:03Z</time>
      </trkpt>
      <trkpt lat="42.13816" lon="2.40488">
        <ele>884.5</ele>
        <time>2019-04-12T08:30:06Z</time>
      </trkpt>
      <trkpt lat="42.13825" lon="2.40492">
        <ele>883.5</ele>
        <time>2019-04-12T08:30:10Z</time>
      </trkpt>
      <trkpt lat="42.13826" lon="2.40493">
        <ele>883.5</ele>
        <time>2019-04-12T08:30:10Z</time>
      </trkpt>
      <trkpt lat="42.1383" lon="2.40495">
        <ele>882.3</ele>
        <time>2019-04-12T08:30:12Z</time>
      </trkpt>
      <trkpt lat="42.13832" lon="2.40496">
        <ele>881.7</ele>
        <time>2019-04-12T08:30:13Z</time>
      </trkpt>
      <trkpt lat="42.13834" lon="2.405">
        <ele>881</ele>
        <time>2019-04-12T08:30:14Z</time>
      </trkpt>
      <trkpt lat="42.13836" lon="2.40503">
        <ele>880.3</ele>
        <time>2019-04-12T08:30:15Z</time>
      </trkpt>
      <trkpt lat="42.13836" lon="2.40505">
        <ele>879.8</ele>
        <time>2019-04-12T08:30:16Z</time>
      </trkpt>
      <trkpt lat="42.13838" lon="2.40507">
        <ele>879.2</ele>
        <time>2019-04-12T08:30:17Z</time>
      </trkpt>
      <trkpt lat="42.13839" lon="2.40507">
        <ele>878.7</ele>
        <time>2019-04-12T08:30:17Z</time>
      </trkpt>
      <trkpt lat="42.13841" lon="2.40509">
        <ele>878.6</ele>
        <time>2019-04-12T08:30:18Z</time>
      </trkpt>
      <trkpt lat="42.13842" lon="2.4051">
        <ele>878.4</ele>
        <time>2019-04-12T08:30:18Z</time>
      </trkpt>
      <trkpt lat="42.13844" lon="2.40513">
        <ele>878.2</ele>
        <time>2019-04-12T08:30:20Z</time>
      </trkpt>
      <trkpt lat="42.13846" lon="2.40514">
        <ele>878</ele>
        <time>2019-04-12T08:30:20Z</time>
      </trkpt>
      <trkpt lat="42.13846" lon="2.40516">
        <ele>877.7</ele>
        <time>2019-04-12T08:30:21Z</time>
      </trkpt>
      <trkpt lat="42.13849" lon="2.40516">
        <ele>877.4</ele>
        <time>2019-04-12T08:30:22Z</time>
      </trkpt>
      <trkpt lat="42.13856" lon="2.40521">
        <ele>877</ele>
        <time>2019-04-12T08:30:25Z</time>
      </trkpt>
      <trkpt lat="42.13859" lon="2.40523">
        <ele>876.4</ele>
        <time>2019-04-12T08:30:26Z</time>
      </trkpt>
      <trkpt lat="42.13863" lon="2.40521">
        <ele>875.4</ele>
        <time>2019-04-12T08:30:28Z</time>
      </trkpt>
      <trkpt lat="42.13865" lon="2.40522">
        <ele>875</ele>
        <time>2019-04-12T08:30:29Z</time>
      </trkpt>
      <trkpt lat="42.13866" lon="2.40522">
        <ele>874.8</ele>
        <time>2019-04-12T08:30:29Z</time>
      </trkpt>
      <trkpt lat="42.13868" lon="2.40523">
        <ele>874.5</ele>
        <time>2019-04-12T08:30:30Z</time>
      </trkpt>
      <trkpt lat="42.13871" lon="2.40523">
        <ele>873.7</ele>
        <time>2019-04-12T08:30:31Z</time>
      </trkpt>
      <trkpt lat="42.13873" lon="2.40523">
        <ele>873.4</ele>
        <time>2019-04-12T08:30:32Z</time>
      </trkpt>
      <trkpt lat="42.13876" lon="2.40524">
        <ele>872.5</ele>
        <time>2019-04-12T08:30:33Z</time>
      </trkpt>
      <trkpt lat="42.13881" lon="2.40525">
        <ele>871.4</ele>
        <time>2019-04-12T08:30:36Z</time>
      </trkpt>
      <trkpt lat="42.13886" lon="2.40527">
        <ele>870.5</ele>
        <time>2019-04-12T08:30:38Z</time>
      </trkpt>
      <trkpt lat="42.13888" lon="2.40527">
        <ele>870.3</ele>
        <time>2019-04-12T08:30:38Z</time>
      </trkpt>
      <trkpt lat="42.13891" lon="2.40528">
        <ele>869.2</ele>
        <time>2019-04-12T08:30:40Z</time>
      </trkpt>
      <trkpt lat="42.13896" lon="2.40533">
        <ele>868.1</ele>
        <time>2019-04-12T08:30:42Z</time>
      </trkpt>
      <trkpt lat="42.13898" lon="2.40534">
        <ele>867.7</ele>
        <time>2019-04-12T08:30:43Z</time>
      </trkpt>
      <trkpt lat="42.13903" lon="2.4054">
        <ele>867.4</ele>
        <time>2019-04-12T08:30:45Z</time>
      </trkpt>
      <trkpt lat="42.13904" lon="2.40542">
        <ele>867.5</ele>
        <time>2019-04-12T08:30:46Z</time>
      </trkpt>
      <trkpt lat="42.13905" lon="2.40543">
        <ele>867.3</ele>
        <time>2019-04-12T08:30:47Z</time>
      </trkpt>
      <trkpt lat="42.13907" lon="2.40546">
        <ele>867</ele>
        <time>2019-04-12T08:30:48Z</time>
      </trkpt>
      <trkpt lat="42.13908" lon="2.40548">
        <ele>867</ele>
        <time>2019-04-12T08:30:49Z</time>
      </trkpt>
      <trkpt lat="42.13911" lon="2.40555">
        <ele>866.7</ele>
        <time>2019-04-12T08:30:51Z</time>
      </trkpt>
      <trkpt lat="42.13917" lon="2.40566">
        <ele>866.1</ele>
        <time>2019-04-12T08:30:55Z</time>
      </trkpt>
      <trkpt lat="42.13918" lon="2.40566">
        <ele>865.7</ele>
        <time>2019-04-12T08:30:55Z</time>
      </trkpt>
      <trkpt lat="42.13918" lon="2.40568">
        <ele>865.6</ele>
        <time>2019-04-12T08:30:56Z</time>
      </trkpt>
      <trkpt lat="42.13922" lon="2.40575">
        <ele>865.4</ele>
        <time>2019-04-12T08:30:58Z</time>
      </trkpt>
      <trkpt lat="42.13925" lon="2.40583">
        <ele>864.7</ele>
        <time>2019-04-12T08:31:01Z</time>
      </trkpt>
      <trkpt lat="42.13927" lon="2.40585">
        <ele>864.3</ele>
        <time>2019-04-12T08:31:02Z</time>
      </trkpt>
      <trkpt lat="42.13928" lon="2.40586">
        <ele>863.7</ele>
        <time>2019-04-12T08:31:03Z</time>
      </trkpt>
      <trkpt lat="42.1393" lon="2.40587">
        <ele>863.4</ele>
        <time>2019-04-12T08:31:03Z</time>
      </trkpt>
      <trkpt lat="42.13936" lon="2.40595">
        <ele>863.1</ele>
        <time>2019-04-12T08:31:07Z</time>
      </trkpt>
      <trkpt lat="42.13937" lon="2.40597">
        <ele>862.8</ele>
        <time>2019-04-12T08:31:08Z</time>
      </trkpt>
      <trkpt lat="42.13941" lon="2.40606">
        <ele>862.2</ele>
        <time>2019-04-12T08:31:11Z</time>
      </trkpt>
      <trkpt lat="42.13942" lon="2.40609">
        <ele>862</ele>
        <time>2019-04-12T08:31:12Z</time>
      </trkpt>
      <trkpt lat="42.13944" lon="2.40614">
        <ele>862.3</ele>
        <time>2019-04-12T08:31:13Z</time>
      </trkpt>
      <trkpt lat="42.13946" lon="2.40616">
        <ele>861.6</ele>
        <time>2019-04-12T08:31:14Z</time>
      </trkpt>
      <trkpt lat="42.13949" lon="2.40627">
        <ele>861.3</ele>
        <time>2019-04-12T08:31:18Z</time>
      </trkpt>
      <trkpt lat="42.1395" lon="2.4063">
        <ele>861</ele>
        <time>2019-04-12T08:31:19Z</time>
      </trkpt>
      <trkpt lat="42.13953" lon="2.40637">
        <ele>860.7</ele>
        <time>2019-04-12T08:31:21Z</time>
      </trkpt>
      <trkpt lat="42.13954" lon="2.40642">
        <ele>860.6</ele>
        <time>2019-04-12T08:31:23Z</time>
      </trkpt>
      <trkpt lat="42.13954" lon="2.40645">
        <ele>860.4</ele>
        <time>2019-04-12T08:31:24Z</time>
      </trkpt>
      <trkpt lat="42.13954" lon="2.40648">
        <ele>860.4</ele>
        <time>2019-04-12T08:31:24Z</time>
      </trkpt>
      <trkpt lat="42.13953" lon="2.40657">
        <ele>860</ele>
        <time>2019-04-12T08:31:27Z</time>
      </trkpt>
      <trkpt lat="42.13953" lon="2.4066">
        <ele>859.8</ele>
        <time>2019-04-12T08:31:28Z</time>
      </trkpt>
      <trkpt lat="42.13953" lon="2.40662">
        <ele>859.4</ele>
        <time>2019-04-12T08:31:29Z</time>
      </trkpt>
      <trkpt lat="42.13953" lon="2.40669">
        <ele>858.7</ele>
        <time>2019-04-12T08:31:31Z</time>
      </trkpt>
      <trkpt lat="42.13953" lon="2.40671">
        <ele>858.7</ele>
        <time>2019-04-12T08:31:31Z</time>
      </trkpt>
      <trkpt lat="42.13953" lon="2.40679">
        <ele>858.8</ele>
        <time>2019-04-12T08:31:34Z</time>
      </trkpt>
      <trkpt lat="42.13956" lon="2.40684">
        <ele>858.5</ele>
        <time>2019-04-12T08:31:36Z</time>
      </trkpt>
      <trkpt lat="42.13958" lon="2.40688">
        <ele>858.5</ele>
        <time>2019-04-12T08:31:37Z</time>
      </trkpt>
      <trkpt lat="42.13962" lon="2.40691">
        <ele>858.3</ele>
        <time>2019-04-12T08:31:39Z</time>
      </trkpt>
      <trkpt lat="42.13963" lon="2.40693">
        <ele>858.3</ele>
        <time>2019-04-12T08:31:39Z</time>
      </trkpt>
      <trkpt lat="42.13963" lon="2.40694">
        <ele>857.8</ele>
        <time>2019-04-12T08:31:40Z</time>
      </trkpt>
      <trkpt lat="42.13964" lon="2.40696">
        <ele>857.5</ele>
        <time>2019-04-12T08:31:40Z</time>
      </trkpt>
      <trkpt lat="42.13965" lon="2.407">
        <ele>857.3</ele>
        <time>2019-04-12T08:31:42Z</time>
      </trkpt>
      <trkpt lat="42.13968" lon="2.40706">
        <ele>856.2</ele>
        <time>2019-04-12T08:31:44Z</time>
      </trkpt>
      <trkpt lat="42.13969" lon="2.40708">
        <ele>856</ele>
        <time>2019-04-12T08:31:44Z</time>
      </trkpt>
      <trkpt lat="42.1397" lon="2.40712">
        <ele>855.5</ele>
        <time>2019-04-12T08:31:46Z</time>
      </trkpt>
      <trkpt lat="42.13971" lon="2.40717">
        <ele>855.3</ele>
        <time>2019-04-12T08:31:47Z</time>
      </trkpt>
      <trkpt lat="42.13972" lon="2.40719">
        <ele>855</ele>
        <time>2019-04-12T08:31:48Z</time>
      </trkpt>
      <trkpt lat="42.13972" lon="2.4072">
        <ele>854.8</ele>
        <time>2019-04-12T08:31:48Z</time>
      </trkpt>
      <trkpt lat="42.13975" lon="2.40729">
        <ele>854.3</ele>
        <time>2019-04-12T08:31:51Z</time>
      </trkpt>
      <trkpt lat="42.13975" lon="2.40731">
        <ele>854.1</ele>
        <time>2019-04-12T08:31:52Z</time>
      </trkpt>
      <trkpt lat="42.13976" lon="2.40733">
        <ele>854</ele>
        <time>2019-04-12T08:31:53Z</time>
      </trkpt>
      <trkpt lat="42.13977" lon="2.40736">
        <ele>853.8</ele>
        <time>2019-04-12T08:31:53Z</time>
      </trkpt>
      <trkpt lat="42.13979" lon="2.4074">
        <ele>852.5</ele>
        <time>2019-04-12T08:31:55Z</time>
      </trkpt>
      <trkpt lat="42.1398" lon="2.40742">
        <ele>852.4</ele>
        <time>2019-04-12T08:31:56Z</time>
      </trkpt>
      <trkpt lat="42.1398" lon="2.40744">
        <ele>852</ele>
        <time>2019-04-12T08:31:56Z</time>
      </trkpt>
      <trkpt lat="42.13981" lon="2.40748">
        <ele>851.4</ele>
        <time>2019-04-12T08:31:57Z</time>
      </trkpt>
      <trkpt lat="42.13982" lon="2.40753">
        <ele>850.7</ele>
        <time>2019-04-12T08:31:59Z</time>
      </trkpt>
      <trkpt lat="42.13983" lon="2.40757">
        <ele>850.5</ele>
        <time>2019-04-12T08:32:00Z</time>
      </trkpt>
      <trkpt lat="42.13985" lon="2.40762">
        <ele>850</ele>
        <time>2019-04-12T08:32:02Z</time>
      </trkpt>
      <trkpt lat="42.13985" lon="2.40765">
        <ele>849.7</ele>
        <time>2019-04-12T08:32:03Z</time>
      </trkpt>
      <trkpt lat="42.13984" lon="2.4077">
        <ele>849.2</ele>
        <time>2019-04-12T08:32:04Z</time>
      </trkpt>
      <trkpt lat="42.13983" lon="2.40779">
        <ele>848.1</ele>
        <time>2019-04-12T08:32:07Z</time>
      </trkpt>
      <trkpt lat="42.13982" lon="2.4078">
        <ele>847.5</ele>
        <time>2019-04-12T08:32:08Z</time>
      </trkpt>
      <trkpt lat="42.1398" lon="2.40783">
        <ele>847</ele>
        <time>2019-04-12T08:32:08Z</time>
      </trkpt>
      <trkpt lat="42.1398" lon="2.40787">
        <ele>846.4</ele>
        <time>2019-04-12T08:32:10Z</time>
      </trkpt>
      <trkpt lat="42.1398" lon="2.40789">
        <ele>846</ele>
        <time>2019-04-12T08:32:10Z</time>
      </trkpt>
      <trkpt lat="42.1398" lon="2.40795">
        <ele>845.3</ele>
        <time>2019-04-12T08:32:12Z</time>
      </trkpt>
      <trkpt lat="42.1398" lon="2.40799">
        <ele>844.7</ele>
        <time>2019-04-12T08:32:13Z</time>
      </trkpt>
      <trkpt lat="42.13979" lon="2.40804">
        <ele>844.4</ele>
        <time>2019-04-12T08:32:15Z</time>
      </trkpt>
      <trkpt lat="42.13977" lon="2.40806">
        <ele>843.5</ele>
        <time>2019-04-12T08:32:16Z</time>
      </trkpt>
      <trkpt lat="42.13976" lon="2.4081">
        <ele>842.6</ele>
        <time>2019-04-12T08:32:17Z</time>
      </trkpt>
      <trkpt lat="42.13976" lon="2.40812">
        <ele>842.5</ele>
        <time>2019-04-12T08:32:18Z</time>
      </trkpt>
      <trkpt lat="42.13976" lon="2.40814">
        <ele>842.2</ele>
        <time>2019-04-12T08:32:18Z</time>
      </trkpt>
      <trkpt lat="42.13974" lon="2.40818">
        <ele>841.5</ele>
        <time>2019-04-12T08:32:19Z</time>
      </trkpt>
      <trkpt lat="42.13973" lon="2.40819">
        <ele>841.3</ele>
        <time>2019-04-12T08:32:20Z</time>
      </trkpt>
      <trkpt lat="42.1397" lon="2.4082">
        <ele>841.1</ele>
        <time>2019-04-12T08:32:21Z</time>
      </trkpt>
      <trkpt lat="42.1396" lon="2.40827">
        <ele>840.8</ele>
        <time>2019-04-12T08:32:26Z</time>
      </trkpt>
      <trkpt lat="42.13954" lon="2.40834">
        <ele>841.3</ele>
        <time>2019-04-12T08:32:29Z</time>
      </trkpt>
      <trkpt lat="42.13953" lon="2.40836">
        <ele>841</ele>
        <time>2019-04-12T08:32:30Z</time>
      </trkpt>
      <trkpt lat="42.13952" lon="2.40838">
        <ele>840.7</ele>
        <time>2019-04-12T08:32:31Z</time>
      </trkpt>
      <trkpt lat="42.1395" lon="2.40841">
        <ele>840.2</ele>
        <time>2019-04-12T08:32:32Z</time>
      </trkpt>
      <trkpt lat="42.13948" lon="2.4085">
        <ele>839.6</ele>
        <time>2019-04-12T08:32:34Z</time>
      </trkpt>
      <trkpt lat="42.13946" lon="2.40856">
        <ele>839.1</ele>
        <time>2019-04-12T08:32:37Z</time>
      </trkpt>
      <trkpt lat="42.13944" lon="2.40858">
        <ele>838.6</ele>
        <time>2019-04-12T08:32:37Z</time>
      </trkpt>
      <trkpt lat="42.13943" lon="2.40859">
        <ele>838.3</ele>
        <time>2019-04-12T08:32:38Z</time>
      </trkpt>
      <trkpt lat="42.13942" lon="2.40861">
        <ele>837.8</ele>
        <time>2019-04-12T08:32:39Z</time>
      </trkpt>
      <trkpt lat="42.13941" lon="2.40864">
        <ele>837.5</ele>
        <time>2019-04-12T08:32:39Z</time>
      </trkpt>
      <trkpt lat="42.1394" lon="2.40867">
        <ele>837.5</ele>
        <time>2019-04-12T08:32:40Z</time>
      </trkpt>
      <trkpt lat="42.13939" lon="2.40869">
        <ele>837.4</ele>
        <time>2019-04-12T08:32:41Z</time>
      </trkpt>
      <trkpt lat="42.13937" lon="2.40879">
        <ele>836.8</ele>
        <time>2019-04-12T08:32:44Z</time>
      </trkpt>
      <trkpt lat="42.13936" lon="2.40881">
        <ele>836.4</ele>
        <time>2019-04-12T08:32:45Z</time>
      </trkpt>
      <trkpt lat="42.13935" lon="2.40883">
        <ele>835.7</ele>
        <time>2019-04-12T08:32:46Z</time>
      </trkpt>
      <trkpt lat="42.13931" lon="2.4089">
        <ele>834.7</ele>
        <time>2019-04-12T08:32:48Z</time>
      </trkpt>
      <trkpt lat="42.13931" lon="2.40891">
        <ele>834.5</ele>
        <time>2019-04-12T08:32:49Z</time>
      </trkpt>
      <trkpt lat="42.1393" lon="2.40892">
        <ele>834.6</ele>
        <time>2019-04-12T08:32:49Z</time>
      </trkpt>
      <trkpt lat="42.13925" lon="2.40902">
        <ele>834</ele>
        <time>2019-04-12T08:32:53Z</time>
      </trkpt>
      <trkpt lat="42.13923" lon="2.40904">
        <ele>833.5</ele>
        <time>2019-04-12T08:32:54Z</time>
      </trkpt>
      <trkpt lat="42.13913" lon="2.40913">
        <ele>833</ele>
        <time>2019-04-12T08:32:58Z</time>
      </trkpt>
      <trkpt lat="42.13908" lon="2.40916">
        <ele>832.4</ele>
        <time>2019-04-12T08:33:01Z</time>
      </trkpt>
      <trkpt lat="42.13906" lon="2.40919">
        <ele>831.4</ele>
        <time>2019-04-12T08:33:02Z</time>
      </trkpt>
      <trkpt lat="42.13903" lon="2.40928">
        <ele>831</ele>
        <time>2019-04-12T08:33:05Z</time>
      </trkpt>
      <trkpt lat="42.13903" lon="2.40934">
        <ele>830.4</ele>
        <time>2019-04-12T08:33:06Z</time>
      </trkpt>
      <trkpt lat="42.13903" lon="2.40936">
        <ele>830.3</ele>
        <time>2019-04-12T08:33:07Z</time>
      </trkpt>
      <trkpt lat="42.13902" lon="2.40943">
        <ele>829.5</ele>
        <time>2019-04-12T08:33:09Z</time>
      </trkpt>
      <trkpt lat="42.13901" lon="2.40944">
        <ele>829.2</ele>
        <time>2019-04-12T08:33:10Z</time>
      </trkpt>
      <trkpt lat="42.139" lon="2.40946">
        <ele>829.1</ele>
        <time>2019-04-12T08:33:10Z</time>
      </trkpt>
      <trkpt lat="42.13898" lon="2.40948">
        <ele>828.5</ele>
        <time>2019-04-12T08:33:11Z</time>
      </trkpt>
      <trkpt lat="42.13896" lon="2.40953">
        <ele>828.6</ele>
        <time>2019-04-12T08:33:13Z</time>
      </trkpt>
      <trkpt lat="42.13895" lon="2.40955">
        <ele>828.5</ele>
        <time>2019-04-12T08:33:14Z</time>
      </trkpt>
      <trkpt lat="42.13893" lon="2.40957">
        <ele>828.4</ele>
        <time>2019-04-12T08:33:15Z</time>
      </trkpt>
      <trkpt lat="42.13893" lon="2.4096">
        <ele>828.3</ele>
        <time>2019-04-12T08:33:15Z</time>
      </trkpt>
      <trkpt lat="42.13893" lon="2.40961">
        <ele>828.2</ele>
        <time>2019-04-12T08:33:16Z</time>
      </trkpt>
      <trkpt lat="42.13892" lon="2.40964">
        <ele>827.8</ele>
        <time>2019-04-12T08:33:17Z</time>
      </trkpt>
      <trkpt lat="42.13892" lon="2.4097">
        <ele>827.1</ele>
        <time>2019-04-12T08:33:19Z</time>
      </trkpt>
      <trkpt lat="42.13892" lon="2.40973">
        <ele>826.6</ele>
        <time>2019-04-12T08:33:19Z</time>
      </trkpt>
      <trkpt lat="42.1389" lon="2.40978">
        <ele>825.7</ele>
        <time>2019-04-12T08:33:21Z</time>
      </trkpt>
      <trkpt lat="42.13889" lon="2.40979">
        <ele>825.5</ele>
        <time>2019-04-12T08:33:22Z</time>
      </trkpt>
      <trkpt lat="42.13887" lon="2.40981">
        <ele>825.6</ele>
        <time>2019-04-12T08:33:22Z</time>
      </trkpt>
      <trkpt lat="42.13886" lon="2.40983">
        <ele>825.5</ele>
        <time>2019-04-12T08:33:23Z</time>
      </trkpt>
      <trkpt lat="42.13883" lon="2.40993">
        <ele>824.5</ele>
        <time>2019-04-12T08:33:27Z</time>
      </trkpt>
      <trkpt lat="42.13881" lon="2.40999">
        <ele>824.3</ele>
        <time>2019-04-12T08:33:29Z</time>
      </trkpt>
      <trkpt lat="42.13878" lon="2.41008">
        <ele>823.5</ele>
        <time>2019-04-12T08:33:31Z</time>
      </trkpt>
      <trkpt lat="42.13878" lon="2.41012">
        <ele>823.2</ele>
        <time>2019-04-12T08:33:33Z</time>
      </trkpt>
      <trkpt lat="42.13878" lon="2.41016">
        <ele>822.8</ele>
        <time>2019-04-12T08:33:34Z</time>
      </trkpt>
      <trkpt lat="42.13875" lon="2.41026">
        <ele>822.6</ele>
        <time>2019-04-12T08:33:37Z</time>
      </trkpt>
      <trkpt lat="42.13873" lon="2.41032">
        <ele>822.6</ele>
        <time>2019-04-12T08:33:39Z</time>
      </trkpt>
      <trkpt lat="42.13871" lon="2.41037">
        <ele>822.6</ele>
        <time>2019-04-12T08:33:41Z</time>
      </trkpt>
      <trkpt lat="42.1387" lon="2.41039">
        <ele>822.4</ele>
        <time>2019-04-12T08:33:41Z</time>
      </trkpt>
      <trkpt lat="42.1387" lon="2.41041">
        <ele>822.4</ele>
        <time>2019-04-12T08:33:42Z</time>
      </trkpt>
      <trkpt lat="42.13869" lon="2.41043">
        <ele>822.3</ele>
        <time>2019-04-12T08:33:43Z</time>
      </trkpt>
      <trkpt lat="42.13868" lon="2.41044">
        <ele>822.3</ele>
        <time>2019-04-12T08:33:43Z</time>
      </trkpt>
      <trkpt lat="42.13866" lon="2.41051">
        <ele>821.8</ele>
        <time>2019-04-12T08:33:45Z</time>
      </trkpt>
      <trkpt lat="42.13865" lon="2.41054">
        <ele>821.5</ele>
        <time>2019-04-12T08:33:46Z</time>
      </trkpt>
      <trkpt lat="42.13864" lon="2.41057">
        <ele>821.3</ele>
        <time>2019-04-12T08:33:47Z</time>
      </trkpt>
      <trkpt lat="42.13864" lon="2.41058">
        <ele>821.2</ele>
        <time>2019-04-12T08:33:48Z</time>
      </trkpt>
      <trkpt lat="42.13863" lon="2.41065">
        <ele>820.5</ele>
        <time>2019-04-12T08:33:50Z</time>
      </trkpt>
      <trkpt lat="42.13864" lon="2.41066">
        <ele>820.3</ele>
        <time>2019-04-12T08:33:50Z</time>
      </trkpt>
      <trkpt lat="42.13863" lon="2.41068">
        <ele>819.7</ele>
        <time>2019-04-12T08:33:51Z</time>
      </trkpt>
      <trkpt lat="42.13863" lon="2.41072">
        <ele>819.2</ele>
        <time>2019-04-12T08:33:52Z</time>
      </trkpt>
      <trkpt lat="42.13863" lon="2.41073">
        <ele>819.2</ele>
        <time>2019-04-12T08:33:52Z</time>
      </trkpt>
      <trkpt lat="42.13862" lon="2.4108">
        <ele>818.5</ele>
        <time>2019-04-12T08:33:54Z</time>
      </trkpt>
      <trkpt lat="42.13862" lon="2.41085">
        <ele>818.5</ele>
        <time>2019-04-12T08:33:56Z</time>
      </trkpt>
      <trkpt lat="42.13863" lon="2.41093">
        <ele>818</ele>
        <time>2019-04-12T08:33:58Z</time>
      </trkpt>
      <trkpt lat="42.13863" lon="2.41095">
        <ele>817.7</ele>
        <time>2019-04-12T08:33:59Z</time>
      </trkpt>
      <trkpt lat="42.13865" lon="2.411">
        <ele>816.7</ele>
        <time>2019-04-12T08:34:00Z</time>
      </trkpt>
      <trkpt lat="42.13865" lon="2.41102">
        <ele>816.4</ele>
        <time>2019-04-12T08:34:01Z</time>
      </trkpt>
      <trkpt lat="42.13865" lon="2.41107">
        <ele>815.8</ele>
        <time>2019-04-12T08:34:02Z</time>
      </trkpt>
      <trkpt lat="42.13865" lon="2.41108">
        <ele>815.6</ele>
        <time>2019-04-12T08:34:03Z</time>
      </trkpt>
      <trkpt lat="42.13864" lon="2.41112">
        <ele>815.1</ele>
        <time>2019-04-12T08:34:04Z</time>
      </trkpt>
      <trkpt lat="42.13864" lon="2.41114">
        <ele>814.8</ele>
        <time>2019-04-12T08:34:04Z</time>
      </trkpt>
      <trkpt lat="42.13864" lon="2.41117">
        <ele>814.5</ele>
        <time>2019-04-12T08:34:05Z</time>
      </trkpt>
      <trkpt lat="42.13863" lon="2.41126">
        <ele>813.5</ele>
        <time>2019-04-12T08:34:08Z</time>
      </trkpt>
      <trkpt lat="42.13863" lon="2.4113">
        <ele>813.4</ele>
        <time>2019-04-12T08:34:09Z</time>
      </trkpt>
      <trkpt lat="42.13865" lon="2.41138">
        <ele>813.2</ele>
        <time>2019-04-12T08:34:12Z</time>
      </trkpt>
      <trkpt lat="42.13866" lon="2.41144">
        <ele>812.4</ele>
        <time>2019-04-12T08:34:14Z</time>
      </trkpt>
      <trkpt lat="42.13867" lon="2.41147">
        <ele>811.7</ele>
        <time>2019-04-12T08:34:15Z</time>
      </trkpt>
      <trkpt lat="42.13866" lon="2.41152">
        <ele>811.4</ele>
        <time>2019-04-12T08:34:16Z</time>
      </trkpt>
      <trkpt lat="42.13864" lon="2.41158">
        <ele>810.8</ele>
        <time>2019-04-12T08:34:18Z</time>
      </trkpt>
      <trkpt lat="42.13864" lon="2.41162">
        <ele>810.1</ele>
        <time>2019-04-12T08:34:19Z</time>
      </trkpt>
      <trkpt lat="42.13863" lon="2.41172">
        <ele>809</ele>
        <time>2019-04-12T08:34:22Z</time>
      </trkpt>
      <trkpt lat="42.13859" lon="2.4118">
        <ele>808.3</ele>
        <time>2019-04-12T08:34:25Z</time>
      </trkpt>
      <trkpt lat="42.13859" lon="2.41184">
        <ele>807.8</ele>
        <time>2019-04-12T08:34:26Z</time>
      </trkpt>
      <trkpt lat="42.13858" lon="2.41192">
        <ele>806.7</ele>
        <time>2019-04-12T08:34:28Z</time>
      </trkpt>
      <trkpt lat="42.13857" lon="2.41193">
        <ele>806.4</ele>
        <time>2019-04-12T08:34:29Z</time>
      </trkpt>
      <trkpt lat="42.13856" lon="2.41199">
        <ele>805.4</ele>
        <time>2019-04-12T08:34:31Z</time>
      </trkpt>
      <trkpt lat="42.13855" lon="2.41201">
        <ele>804.8</ele>
        <time>2019-04-12T08:34:31Z</time>
      </trkpt>
      <trkpt lat="42.13855" lon="2.41203">
        <ele>804.5</ele>
        <time>2019-04-12T08:34:32Z</time>
      </trkpt>
      <trkpt lat="42.13854" lon="2.41207">
        <ele>804.2</ele>
        <time>2019-04-12T08:34:33Z</time>
      </trkpt>
      <trkpt lat="42.13852" lon="2.41215">
        <ele>803.4</ele>
        <time>2019-04-12T08:34:36Z</time>
      </trkpt>
      <trkpt lat="42.13852" lon="2.41218">
        <ele>803.2</ele>
        <time>2019-04-12T08:34:37Z</time>
      </trkpt>
      <trkpt lat="42.13851" lon="2.41229">
        <ele>802.5</ele>
        <time>2019-04-12T08:34:40Z</time>
      </trkpt>
      <trkpt lat="42.1385" lon="2.41232">
        <ele>802.1</ele>
        <time>2019-04-12T08:34:41Z</time>
      </trkpt>
      <trkpt lat="42.13849" lon="2.41242">
        <ele>800.7</ele>
        <time>2019-04-12T08:34:44Z</time>
      </trkpt>
      <trkpt lat="42.13848" lon="2.41245">
        <ele>800.3</ele>
        <time>2019-04-12T08:34:45Z</time>
      </trkpt>
      <trkpt lat="42.13846" lon="2.41248">
        <ele>799.7</ele>
        <time>2019-04-12T08:34:46Z</time>
      </trkpt>
      <trkpt lat="42.13843" lon="2.41256">
        <ele>799</ele>
        <time>2019-04-12T08:34:49Z</time>
      </trkpt>
      <trkpt lat="42.13842" lon="2.41259">
        <ele>798.5</ele>
        <time>2019-04-12T08:34:50Z</time>
      </trkpt>
      <trkpt lat="42.13838" lon="2.41273">
        <ele>798.1</ele>
        <time>2019-04-12T08:34:54Z</time>
      </trkpt>
      <trkpt lat="42.13837" lon="2.41281">
        <ele>797.6</ele>
        <time>2019-04-12T08:34:56Z</time>
      </trkpt>
      <trkpt lat="42.13837" lon="2.41284">
        <ele>797.6</ele>
        <time>2019-04-12T08:34:58Z</time>
      </trkpt>
      <trkpt lat="42.13837" lon="2.41286">
        <ele>797.5</ele>
        <time>2019-04-12T08:34:58Z</time>
      </trkpt>
      <trkpt lat="42.13837" lon="2.4129">
        <ele>797.3</ele>
        <time>2019-04-12T08:34:59Z</time>
      </trkpt>
      <trkpt lat="42.13836" lon="2.41292">
        <ele>796.7</ele>
        <time>2019-04-12T08:35:00Z</time>
      </trkpt>
      <trkpt lat="42.13836" lon="2.41294">
        <ele>796.5</ele>
        <time>2019-04-12T08:35:01Z</time>
      </trkpt>
      <trkpt lat="42.13835" lon="2.41301">
        <ele>796</ele>
        <time>2019-04-12T08:35:02Z</time>
      </trkpt>
      <trkpt lat="42.13833" lon="2.41309">
        <ele>795.7</ele>
        <time>2019-04-12T08:35:05Z</time>
      </trkpt>
      <trkpt lat="42.13833" lon="2.41311">
        <ele>795.6</ele>
        <time>2019-04-12T08:35:06Z</time>
      </trkpt>
      <trkpt lat="42.13833" lon="2.41315">
        <ele>795</ele>
        <time>2019-04-12T08:35:07Z</time>
      </trkpt>
      <trkpt lat="42.13832" lon="2.41319">
        <ele>794.4</ele>
        <time>2019-04-12T08:35:08Z</time>
      </trkpt>
      <trkpt lat="42.1383" lon="2.41325">
        <ele>793.2</ele>
        <time>2019-04-12T08:35:10Z</time>
      </trkpt>
      <trkpt lat="42.13828" lon="2.41329">
        <ele>792.4</ele>
        <time>2019-04-12T08:35:12Z</time>
      </trkpt>
      <trkpt lat="42.13827" lon="2.41331">
        <ele>792.1</ele>
        <time>2019-04-12T08:35:12Z</time>
      </trkpt>
      <trkpt lat="42.13827" lon="2.41333">
        <ele>791.5</ele>
        <time>2019-04-12T08:35:13Z</time>
      </trkpt>
      <trkpt lat="42.13826" lon="2.41338">
        <ele>790.8</ele>
        <time>2019-04-12T08:35:15Z</time>
      </trkpt>
      <trkpt lat="42.13824" lon="2.41343">
        <ele>790.5</ele>
        <time>2019-04-12T08:35:16Z</time>
      </trkpt>
      <trkpt lat="42.13821" lon="2.41353">
        <ele>789.7</ele>
        <time>2019-04-12T08:35:19Z</time>
      </trkpt>
      <trkpt lat="42.13821" lon="2.41356">
        <ele>789.5</ele>
        <time>2019-04-12T08:35:20Z</time>
      </trkpt>
      <trkpt lat="42.1382" lon="2.41362">
        <ele>789.2</ele>
        <time>2019-04-12T08:35:22Z</time>
      </trkpt>
      <trkpt lat="42.13821" lon="2.41367">
        <ele>788.8</ele>
        <time>2019-04-12T08:35:23Z</time>
      </trkpt>
      <trkpt lat="42.13822" lon="2.41377">
        <ele>788.7</ele>
        <time>2019-04-12T08:35:27Z</time>
      </trkpt>
      <trkpt lat="42.13822" lon="2.41381">
        <ele>789</ele>
        <time>2019-04-12T08:35:28Z</time>
      </trkpt>
      <trkpt lat="42.13821" lon="2.41383">
        <ele>789.1</ele>
        <time>2019-04-12T08:35:28Z</time>
      </trkpt>
      <trkpt lat="42.13818" lon="2.41378">
        <ele>789.3</ele>
        <time>2019-04-12T08:35:30Z</time>
      </trkpt>
      <trkpt lat="42.13815" lon="2.41376">
        <ele>789.2</ele>
        <time>2019-04-12T08:35:31Z</time>
      </trkpt>
      <trkpt lat="42.13815" lon="2.41376">
        <ele>789.2</ele>
        <time>2019-04-12T08:35:32Z</time>
      </trkpt>
      <trkpt lat="42.13814" lon="2.41376">
        <ele>789.2</ele>
        <time>2019-04-12T08:35:32Z</time>
      </trkpt>
      <trkpt lat="42.13813" lon="2.41375">
        <ele>789.2</ele>
        <time>2019-04-12T08:35:32Z</time>
      </trkpt>
      <trkpt lat="42.13813" lon="2.41368">
        <ele>789.1</ele>
        <time>2019-04-12T08:35:35Z</time>
      </trkpt>
      <trkpt lat="42.1382" lon="2.41381">
        <ele>789.2</ele>
        <time>2019-04-12T08:35:39Z</time>
      </trkpt>
      <trkpt lat="42.1383" lon="2.41376">
        <ele>789.2</ele>
        <time>2019-04-12T08:35:44Z</time>
      </trkpt>
      <trkpt lat="42.13818" lon="2.41388">
        <ele>789.2</ele>
        <time>2019-04-12T08:35:50Z</time>
      </trkpt>
      <trkpt lat="42.13815" lon="2.41395">
        <ele>789.4</ele>
        <time>2019-04-12T08:35:52Z</time>
      </trkpt>
      <trkpt lat="42.13811" lon="2.41397">
        <ele>790</ele>
        <time>2019-04-12T08:35:54Z</time>
      </trkpt>
      <trkpt lat="42.1381" lon="2.41399">
        <ele>790.5</ele>
        <time>2019-04-12T08:35:55Z</time>
      </trkpt>
      <trkpt lat="42.13809" lon="2.41401">
        <ele>790.5</ele>
        <time>2019-04-12T08:35:55Z</time>
      </trkpt>
      <trkpt lat="42.13806" lon="2.41405">
        <ele>790.5</ele>
        <time>2019-04-12T08:35:57Z</time>
      </trkpt>
      <trkpt lat="42.13805" lon="2.41407">
        <ele>790.5</ele>
        <time>2019-04-12T08:35:58Z</time>
      </trkpt>
      <trkpt lat="42.13803" lon="2.41411">
        <ele>790.5</ele>
        <time>2019-04-12T08:35:59Z</time>
      </trkpt>
      <trkpt lat="42.13799" lon="2.41415">
        <ele>790.8</ele>
        <time>2019-04-12T08:36:01Z</time>
      </trkpt>
      <trkpt lat="42.13795" lon="2.41419">
        <ele>791.2</ele>
        <time>2019-04-12T08:36:03Z</time>
      </trkpt>
      <trkpt lat="42.13792" lon="2.41422">
        <ele>791.1</ele>
        <time>2019-04-12T08:36:05Z</time>
      </trkpt>
      <trkpt lat="42.13791" lon="2.41423">
        <ele>791</ele>
        <time>2019-04-12T08:36:05Z</time>
      </trkpt>
      <trkpt lat="42.1379" lon="2.41425">
        <ele>790.8</ele>
        <time>2019-04-12T08:36:06Z</time>
      </trkpt>
      <trkpt lat="42.13788" lon="2.41426">
        <ele>790.7</ele>
        <time>2019-04-12T08:36:06Z</time>
      </trkpt>
      <trkpt lat="42.13787" lon="2.41427">
        <ele>790.7</ele>
        <time>2019-04-12T08:36:07Z</time>
      </trkpt>
      <trkpt lat="42.13786" lon="2.41428">
        <ele>790.8</ele>
        <time>2019-04-12T08:36:07Z</time>
      </trkpt>
      <trkpt lat="42.13785" lon="2.41428">
        <ele>790.8</ele>
        <time>2019-04-12T08:36:08Z</time>
      </trkpt>
      <trkpt lat="42.13784" lon="2.41429">
        <ele>790.7</ele>
        <time>2019-04-12T08:36:08Z</time>
      </trkpt>
      <trkpt lat="42.13783" lon="2.41429">
        <ele>790.7</ele>
        <time>2019-04-12T08:36:09Z</time>
      </trkpt>
      <trkpt lat="42.1378" lon="2.4143">
        <ele>790.8</ele>
        <time>2019-04-12T08:36:10Z</time>
      </trkpt>
      <trkpt lat="42.13778" lon="2.41431">
        <ele>790.5</ele>
        <time>2019-04-12T08:36:11Z</time>
      </trkpt>
      <trkpt lat="42.13775" lon="2.41432">
        <ele>790.3</ele>
        <time>2019-04-12T08:36:12Z</time>
      </trkpt>
      <trkpt lat="42.13774" lon="2.41432">
        <ele>790.3</ele>
        <time>2019-04-12T08:36:12Z</time>
      </trkpt>
      <trkpt lat="42.13772" lon="2.41435">
        <ele>790.1</ele>
        <time>2019-04-12T08:36:14Z</time>
      </trkpt>
      <trkpt lat="42.13771" lon="2.41437">
        <ele>789.5</ele>
        <time>2019-04-12T08:36:14Z</time>
      </trkpt>
      <trkpt lat="42.13771" lon="2.4144">
        <ele>789.4</ele>
        <time>2019-04-12T08:36:15Z</time>
      </trkpt>
      <trkpt lat="42.13771" lon="2.41446">
        <ele>788.7</ele>
        <time>2019-04-12T08:36:17Z</time>
      </trkpt>
      <trkpt lat="42.13768" lon="2.4145">
        <ele>788.6</ele>
        <time>2019-04-12T08:36:18Z</time>
      </trkpt>
      <trkpt lat="42.13766" lon="2.41454">
        <ele>788.8</ele>
        <time>2019-04-12T08:36:20Z</time>
      </trkpt>
      <trkpt lat="42.13764" lon="2.41455">
        <ele>789</ele>
        <time>2019-04-12T08:36:20Z</time>
      </trkpt>
      <trkpt lat="42.13756" lon="2.41464">
        <ele>788.7</ele>
        <time>2019-04-12T08:36:25Z</time>
      </trkpt>
      <trkpt lat="42.13755" lon="2.41466">
        <ele>788.6</ele>
        <time>2019-04-12T08:36:26Z</time>
      </trkpt>
      <trkpt lat="42.13753" lon="2.41467">
        <ele>788.3</ele>
        <time>2019-04-12T08:36:26Z</time>
      </trkpt>
      <trkpt lat="42.13753" lon="2.41467">
        <ele>788.1</ele>
        <time>2019-04-12T08:36:26Z</time>
      </trkpt>
      <trkpt lat="42.13752" lon="2.41468">
        <ele>787.8</ele>
        <time>2019-04-12T08:36:27Z</time>
      </trkpt>
      <trkpt lat="42.13751" lon="2.41468">
        <ele>787.6</ele>
        <time>2019-04-12T08:36:27Z</time>
      </trkpt>
      <trkpt lat="42.13749" lon="2.41471">
        <ele>787</ele>
        <time>2019-04-12T08:36:28Z</time>
      </trkpt>
      <trkpt lat="42.13749" lon="2.41473">
        <ele>786.4</ele>
        <time>2019-04-12T08:36:29Z</time>
      </trkpt>
      <trkpt lat="42.13746" lon="2.41474">
        <ele>786.2</ele>
        <time>2019-04-12T08:36:30Z</time>
      </trkpt>
      <trkpt lat="42.13743" lon="2.41477">
        <ele>786</ele>
        <time>2019-04-12T08:36:31Z</time>
      </trkpt>
      <trkpt lat="42.13742" lon="2.41478">
        <ele>785.8</ele>
        <time>2019-04-12T08:36:32Z</time>
      </trkpt>
      <trkpt lat="42.13737" lon="2.4148">
        <ele>785.8</ele>
        <time>2019-04-12T08:36:34Z</time>
      </trkpt>
      <trkpt lat="42.13732" lon="2.4148">
        <ele>785.6</ele>
        <time>2019-04-12T08:36:36Z</time>
      </trkpt>
      <trkpt lat="42.13726" lon="2.41483">
        <ele>785.4</ele>
        <time>2019-04-12T08:36:38Z</time>
      </trkpt>
      <trkpt lat="42.13725" lon="2.41483">
        <ele>785.4</ele>
        <time>2019-04-12T08:36:39Z</time>
      </trkpt>
      <trkpt lat="42.13714" lon="2.41485">
        <ele>785.1</ele>
        <time>2019-04-12T08:36:44Z</time>
      </trkpt>
      <trkpt lat="42.13704" lon="2.41489">
        <ele>784.6</ele>
        <time>2019-04-12T08:36:47Z</time>
      </trkpt>
      <trkpt lat="42.13702" lon="2.4149">
        <ele>784.7</ele>
        <time>2019-04-12T08:36:48Z</time>
      </trkpt>
      <trkpt lat="42.13695" lon="2.41495">
        <ele>784.8</ele>
        <time>2019-04-12T08:36:52Z</time>
      </trkpt>
      <trkpt lat="42.13685" lon="2.41499">
        <ele>784.4</ele>
        <time>2019-04-12T08:36:56Z</time>
      </trkpt>
      <trkpt lat="42.13683" lon="2.415">
        <ele>784.7</ele>
        <time>2019-04-12T08:36:57Z</time>
      </trkpt>
      <trkpt lat="42.13681" lon="2.415">
        <ele>784.8</ele>
        <time>2019-04-12T08:36:57Z</time>
      </trkpt>
      <trkpt lat="42.13673" lon="2.41499">
        <ele>785</ele>
        <time>2019-04-12T08:37:01Z</time>
      </trkpt>
      <trkpt lat="42.1367" lon="2.41499">
        <ele>785</ele>
        <time>2019-04-12T08:37:02Z</time>
      </trkpt>
      <trkpt lat="42.13665" lon="2.41499">
        <ele>784.7</ele>
        <time>2019-04-12T08:37:04Z</time>
      </trkpt>
      <trkpt lat="42.13658" lon="2.415">
        <ele>784.6</ele>
        <time>2019-04-12T08:37:07Z</time>
      </trkpt>
      <trkpt lat="42.1365" lon="2.41498">
        <ele>784.8</ele>
        <time>2019-04-12T08:37:10Z</time>
      </trkpt>
      <trkpt lat="42.13645" lon="2.41496">
        <ele>784.8</ele>
        <time>2019-04-12T08:37:12Z</time>
      </trkpt>
      <trkpt lat="42.13644" lon="2.41495">
        <ele>785</ele>
        <time>2019-04-12T08:37:12Z</time>
      </trkpt>
      <trkpt lat="42.13642" lon="2.41496">
        <ele>785.2</ele>
        <time>2019-04-12T08:37:13Z</time>
      </trkpt>
      <trkpt lat="42.13638" lon="2.41498">
        <ele>785.4</ele>
        <time>2019-04-12T08:37:15Z</time>
      </trkpt>
      <trkpt lat="42.1363" lon="2.41497">
        <ele>785.5</ele>
        <time>2019-04-12T08:37:18Z</time>
      </trkpt>
      <trkpt lat="42.13625" lon="2.41495">
        <ele>785.2</ele>
        <time>2019-04-12T08:37:20Z</time>
      </trkpt>
      <trkpt lat="42.13619" lon="2.41492">
        <ele>784.5</ele>
        <time>2019-04-12T08:37:23Z</time>
      </trkpt>
      <trkpt lat="42.13615" lon="2.4149">
        <ele>784.6</ele>
        <time>2019-04-12T08:37:24Z</time>
      </trkpt>
      <trkpt lat="42.13611" lon="2.41487">
        <ele>784.6</ele>
        <time>2019-04-12T08:37:26Z</time>
      </trkpt>
      <trkpt lat="42.1361" lon="2.41487">
        <ele>784.8</ele>
        <time>2019-04-12T08:37:27Z</time>
      </trkpt>
      <trkpt lat="42.13604" lon="2.4148">
        <ele>785.1</ele>
        <time>2019-04-12T08:37:30Z</time>
      </trkpt>
      <trkpt lat="42.13602" lon="2.41477">
        <ele>785.1</ele>
        <time>2019-04-12T08:37:31Z</time>
      </trkpt>
      <trkpt lat="42.13601" lon="2.41475">
        <ele>785</ele>
        <time>2019-04-12T08:37:32Z</time>
      </trkpt>
      <trkpt lat="42.13598" lon="2.41469">
        <ele>785</ele>
        <time>2019-04-12T08:37:34Z</time>
      </trkpt>
      <trkpt lat="42.13594" lon="2.41463">
        <ele>785.3</ele>
        <time>2019-04-12T08:37:36Z</time>
      </trkpt>
      <trkpt lat="42.13593" lon="2.41457">
        <ele>785.2</ele>
        <time>2019-04-12T08:37:38Z</time>
      </trkpt>
      <trkpt lat="42.13593" lon="2.41453">
        <ele>785.2</ele>
        <time>2019-04-12T08:37:39Z</time>
      </trkpt>
      <trkpt lat="42.13592" lon="2.41448">
        <ele>785.2</ele>
        <time>2019-04-12T08:37:41Z</time>
      </trkpt>
      <trkpt lat="42.13591" lon="2.41444">
        <ele>785.5</ele>
        <time>2019-04-12T08:37:42Z</time>
      </trkpt>
      <trkpt lat="42.13591" lon="2.41443">
        <ele>785.4</ele>
        <time>2019-04-12T08:37:42Z</time>
      </trkpt>
      <trkpt lat="42.13589" lon="2.41437">
        <ele>785.5</ele>
        <time>2019-04-12T08:37:44Z</time>
      </trkpt>
      <trkpt lat="42.13588" lon="2.41432">
        <ele>786.1</ele>
        <time>2019-04-12T08:37:46Z</time>
      </trkpt>
      <trkpt lat="42.13588" lon="2.41431">
        <ele>786</ele>
        <time>2019-04-12T08:37:46Z</time>
      </trkpt>
      <trkpt lat="42.13588" lon="2.41424">
        <ele>786.3</ele>
        <time>2019-04-12T08:37:48Z</time>
      </trkpt>
      <trkpt lat="42.13588" lon="2.41418">
        <ele>786.4</ele>
        <time>2019-04-12T08:37:50Z</time>
      </trkpt>
      <trkpt lat="42.13588" lon="2.41415">
        <ele>786.5</ele>
        <time>2019-04-12T08:37:51Z</time>
      </trkpt>
      <trkpt lat="42.13587" lon="2.41412">
        <ele>786.5</ele>
        <time>2019-04-12T08:37:52Z</time>
      </trkpt>
      <trkpt lat="42.13585" lon="2.41402">
        <ele>786</ele>
        <time>2019-04-12T08:37:55Z</time>
      </trkpt>
      <trkpt lat="42.13581" lon="2.41394">
        <ele>786</ele>
        <time>2019-04-12T08:37:57Z</time>
      </trkpt>
      <trkpt lat="42.13578" lon="2.41387">
        <ele>786</ele>
        <time>2019-04-12T08:38:00Z</time>
      </trkpt>
      <trkpt lat="42.13569" lon="2.41379">
        <ele>785.6</ele>
        <time>2019-04-12T08:38:04Z</time>
      </trkpt>
      <trkpt lat="42.13566" lon="2.41376">
        <ele>785.5</ele>
        <time>2019-04-12T08:38:06Z</time>
      </trkpt>
      <trkpt lat="42.13564" lon="2.41374">
        <ele>785.2</ele>
        <time>2019-04-12T08:38:07Z</time>
      </trkpt>
      <trkpt lat="42.13561" lon="2.4137">
        <ele>785.3</ele>
        <time>2019-04-12T08:38:08Z</time>
      </trkpt>
      <trkpt lat="42.13553" lon="2.41364">
        <ele>784.7</ele>
        <time>2019-04-12T08:38:12Z</time>
      </trkpt>
      <trkpt lat="42.13552" lon="2.41363">
        <ele>784.5</ele>
        <time>2019-04-12T08:38:13Z</time>
      </trkpt>
      <trkpt lat="42.13552" lon="2.41362">
        <ele>784.5</ele>
        <time>2019-04-12T08:38:13Z</time>
      </trkpt>
      <trkpt lat="42.13549" lon="2.4136">
        <ele>784.5</ele>
        <time>2019-04-12T08:38:14Z</time>
      </trkpt>
      <trkpt lat="42.13547" lon="2.41357">
        <ele>784.5</ele>
        <time>2019-04-12T08:38:15Z</time>
      </trkpt>
      <trkpt lat="42.1354" lon="2.41349">
        <ele>785.4</ele>
        <time>2019-04-12T08:38:19Z</time>
      </trkpt>
      <trkpt lat="42.13539" lon="2.41346">
        <ele>785.4</ele>
        <time>2019-04-12T08:38:20Z</time>
      </trkpt>
      <trkpt lat="42.13532" lon="2.41334">
        <ele>785.7</ele>
        <time>2019-04-12T08:38:25Z</time>
      </trkpt>
      <trkpt lat="42.1353" lon="2.41329">
        <ele>786.5</ele>
        <time>2019-04-12T08:38:26Z</time>
      </trkpt>
      <trkpt lat="42.13528" lon="2.41325">
        <ele>786.7</ele>
        <time>2019-04-12T08:38:28Z</time>
      </trkpt>
      <trkpt lat="42.13523" lon="2.41312">
        <ele>787.4</ele>
        <time>2019-04-12T08:38:32Z</time>
      </trkpt>
      <trkpt lat="42.13523" lon="2.4131">
        <ele>787.5</ele>
        <time>2019-04-12T08:38:33Z</time>
      </trkpt>
      <trkpt lat="42.13522" lon="2.41308">
        <ele>787.5</ele>
        <time>2019-04-12T08:38:33Z</time>
      </trkpt>
      <trkpt lat="42.1352" lon="2.41303">
        <ele>788.5</ele>
        <time>2019-04-12T08:38:35Z</time>
      </trkpt>
      <trkpt lat="42.13519" lon="2.41302">
        <ele>788.5</ele>
        <time>2019-04-12T08:38:35Z</time>
      </trkpt>
      <trkpt lat="42.13519" lon="2.41301">
        <ele>788.7</ele>
        <time>2019-04-12T08:38:36Z</time>
      </trkpt>
      <trkpt lat="42.13511" lon="2.41292">
        <ele>789.2</ele>
        <time>2019-04-12T08:38:40Z</time>
      </trkpt>
      <trkpt lat="42.13509" lon="2.41286">
        <ele>789.5</ele>
        <time>2019-04-12T08:38:42Z</time>
      </trkpt>
      <trkpt lat="42.13507" lon="2.41282">
        <ele>789.5</ele>
        <time>2019-04-12T08:38:43Z</time>
      </trkpt>
      <trkpt lat="42.13504" lon="2.41279">
        <ele>789.7</ele>
        <time>2019-04-12T08:38:44Z</time>
      </trkpt>
      <trkpt lat="42.13503" lon="2.41279">
        <ele>790.1</ele>
        <time>2019-04-12T08:38:45Z</time>
      </trkpt>
      <trkpt lat="42.13501" lon="2.41276">
        <ele>790.6</ele>
        <time>2019-04-12T08:38:46Z</time>
      </trkpt>
      <trkpt lat="42.135" lon="2.41275">
        <ele>790.8</ele>
        <time>2019-04-12T08:38:46Z</time>
      </trkpt>
      <trkpt lat="42.135" lon="2.41274">
        <ele>790.7</ele>
        <time>2019-04-12T08:38:47Z</time>
      </trkpt>
      <trkpt lat="42.13493" lon="2.41261">
        <ele>791.6</ele>
        <time>2019-04-12T08:38:52Z</time>
      </trkpt>
      <trkpt lat="42.13492" lon="2.4126">
        <ele>791.6</ele>
        <time>2019-04-12T08:38:52Z</time>
      </trkpt>
      <trkpt lat="42.13489" lon="2.41256">
        <ele>791.7</ele>
        <time>2019-04-12T08:38:54Z</time>
      </trkpt>
      <trkpt lat="42.13485" lon="2.41251">
        <ele>792.3</ele>
        <time>2019-04-12T08:38:56Z</time>
      </trkpt>
      <trkpt lat="42.13478" lon="2.41239">
        <ele>792.6</ele>
        <time>2019-04-12T08:39:00Z</time>
      </trkpt>
      <trkpt lat="42.13477" lon="2.41238">
        <ele>792.5</ele>
        <time>2019-04-12T08:39:01Z</time>
      </trkpt>
      <trkpt lat="42.13476" lon="2.41235">
        <ele>792.2</ele>
        <time>2019-04-12T08:39:02Z</time>
      </trkpt>
      <trkpt lat="42.13471" lon="2.41232">
        <ele>792</ele>
        <time>2019-04-12T08:39:04Z</time>
      </trkpt>
      <trkpt lat="42.13463" lon="2.41226">
        <ele>792</ele>
        <time>2019-04-12T08:39:08Z</time>
      </trkpt>
      <trkpt lat="42.13462" lon="2.41225">
        <ele>792.1</ele>
        <time>2019-04-12T08:39:08Z</time>
      </trkpt>
      <trkpt lat="42.1346" lon="2.41221">
        <ele>792.3</ele>
        <time>2019-04-12T08:39:10Z</time>
      </trkpt>
      <trkpt lat="42.1346" lon="2.4122">
        <ele>792.4</ele>
        <time>2019-04-12T08:39:10Z</time>
      </trkpt>
      <trkpt lat="42.13459" lon="2.41218">
        <ele>792.7</ele>
        <time>2019-04-12T08:39:11Z</time>
      </trkpt>
      <trkpt lat="42.13457" lon="2.41216">
        <ele>793.3</ele>
        <time>2019-04-12T08:39:12Z</time>
      </trkpt>
      <trkpt lat="42.13454" lon="2.41214">
        <ele>793.4</ele>
        <time>2019-04-12T08:39:13Z</time>
      </trkpt>
      <trkpt lat="42.1345" lon="2.41211">
        <ele>793.5</ele>
        <time>2019-04-12T08:39:15Z</time>
      </trkpt>
      <trkpt lat="42.13448" lon="2.41208">
        <ele>793.8</ele>
        <time>2019-04-12T08:39:16Z</time>
      </trkpt>
      <trkpt lat="42.13447" lon="2.41207">
        <ele>793.7</ele>
        <time>2019-04-12T08:39:17Z</time>
      </trkpt>
      <trkpt lat="42.13441" lon="2.41201">
        <ele>794</ele>
        <time>2019-04-12T08:39:20Z</time>
      </trkpt>
      <trkpt lat="42.13434" lon="2.41193">
        <ele>794.4</ele>
        <time>2019-04-12T08:39:24Z</time>
      </trkpt>
      <trkpt lat="42.13433" lon="2.41192">
        <ele>794.4</ele>
        <time>2019-04-12T08:39:24Z</time>
      </trkpt>
      <trkpt lat="42.13428" lon="2.41188">
        <ele>794.3</ele>
        <time>2019-04-12T08:39:26Z</time>
      </trkpt>
      <trkpt lat="42.13424" lon="2.41184">
        <ele>794.7</ele>
        <time>2019-04-12T08:39:28Z</time>
      </trkpt>
      <trkpt lat="42.1342" lon="2.41181">
        <ele>795</ele>
        <time>2019-04-12T08:39:30Z</time>
      </trkpt>
      <trkpt lat="42.13414" lon="2.41173">
        <ele>795.6</ele>
        <time>2019-04-12T08:39:34Z</time>
      </trkpt>
      <trkpt lat="42.13412" lon="2.4117">
        <ele>795.8</ele>
        <time>2019-04-12T08:39:35Z</time>
      </trkpt>
      <trkpt lat="42.13411" lon="2.41166">
        <ele>795.7</ele>
        <time>2019-04-12T08:39:36Z</time>
      </trkpt>
      <trkpt lat="42.1341" lon="2.41165">
        <ele>796.1</ele>
        <time>2019-04-12T08:39:36Z</time>
      </trkpt>
      <trkpt lat="42.13408" lon="2.41159">
        <ele>796.5</ele>
        <time>2019-04-12T08:39:38Z</time>
      </trkpt>
      <trkpt lat="42.13407" lon="2.41157">
        <ele>797.1</ele>
        <time>2019-04-12T08:39:39Z</time>
      </trkpt>
      <trkpt lat="42.13407" lon="2.41155">
        <ele>797.2</ele>
        <time>2019-04-12T08:39:40Z</time>
      </trkpt>
      <trkpt lat="42.13407" lon="2.41153">
        <ele>797.5</ele>
        <time>2019-04-12T08:39:40Z</time>
      </trkpt>
      <trkpt lat="42.13407" lon="2.41148">
        <ele>798.2</ele>
        <time>2019-04-12T08:39:42Z</time>
      </trkpt>
      <trkpt lat="42.13404" lon="2.41147">
        <ele>798.5</ele>
        <time>2019-04-12T08:39:43Z</time>
      </trkpt>
      <trkpt lat="42.13399" lon="2.41149">
        <ele>798.8</ele>
        <time>2019-04-12T08:39:45Z</time>
      </trkpt>
      <trkpt lat="42.13399" lon="2.4115">
        <ele>798.8</ele>
        <time>2019-04-12T08:39:45Z</time>
      </trkpt>
      <trkpt lat="42.13394" lon="2.41156">
        <ele>799.2</ele>
        <time>2019-04-12T08:39:48Z</time>
      </trkpt>
      <trkpt lat="42.13393" lon="2.41157">
        <ele>799.4</ele>
        <time>2019-04-12T08:39:48Z</time>
      </trkpt>
      <trkpt lat="42.1339" lon="2.41159">
        <ele>799.4</ele>
        <time>2019-04-12T08:39:49Z</time>
      </trkpt>
      <trkpt lat="42.13382" lon="2.41163">
        <ele>798.2</ele>
        <time>2019-04-12T08:39:53Z</time>
      </trkpt>
      <trkpt lat="42.13381" lon="2.41164">
        <ele>798.3</ele>
        <time>2019-04-12T08:39:54Z</time>
      </trkpt>
      <trkpt lat="42.13378" lon="2.41166">
        <ele>798.1</ele>
        <time>2019-04-12T08:39:55Z</time>
      </trkpt>
      <trkpt lat="42.13377" lon="2.41167">
        <ele>797.7</ele>
        <time>2019-04-12T08:39:55Z</time>
      </trkpt>
      <trkpt lat="42.13371" lon="2.4117">
        <ele>796.7</ele>
        <time>2019-04-12T08:39:58Z</time>
      </trkpt>
      <trkpt lat="42.13369" lon="2.41171">
        <ele>796.6</ele>
        <time>2019-04-12T08:39:59Z</time>
      </trkpt>
      <trkpt lat="42.13368" lon="2.41173">
        <ele>796.5</ele>
        <time>2019-04-12T08:39:59Z</time>
      </trkpt>
      <trkpt lat="42.13365" lon="2.41177">
        <ele>795.7</ele>
        <time>2019-04-12T08:40:01Z</time>
      </trkpt>
      <trkpt lat="42.13364" lon="2.41178">
        <ele>795.4</ele>
        <time>2019-04-12T08:40:02Z</time>
      </trkpt>
      <trkpt lat="42.13361" lon="2.4118">
        <ele>794.6</ele>
        <time>2019-04-12T08:40:03Z</time>
      </trkpt>
      <trkpt lat="42.1336" lon="2.4118">
        <ele>794.4</ele>
        <time>2019-04-12T08:40:03Z</time>
      </trkpt>
      <trkpt lat="42.13359" lon="2.41181">
        <ele>794.5</ele>
        <time>2019-04-12T08:40:04Z</time>
      </trkpt>
      <trkpt lat="42.13356" lon="2.41182">
        <ele>794.1</ele>
        <time>2019-04-12T08:40:05Z</time>
      </trkpt>
      <trkpt lat="42.1335" lon="2.41186">
        <ele>793.3</ele>
        <time>2019-04-12T08:40:08Z</time>
      </trkpt>
      <trkpt lat="42.13344" lon="2.4119">
        <ele>792.2</ele>
        <time>2019-04-12T08:40:10Z</time>
      </trkpt>
      <trkpt lat="42.13342" lon="2.41191">
        <ele>791.7</ele>
        <time>2019-04-12T08:40:11Z</time>
      </trkpt>
      <trkpt lat="42.13337" lon="2.41192">
        <ele>791.4</ele>
        <time>2019-04-12T08:40:13Z</time>
      </trkpt>
      <trkpt lat="42.13332" lon="2.41194">
        <ele>791.2</ele>
        <time>2019-04-12T08:40:15Z</time>
      </trkpt>
      <trkpt lat="42.13331" lon="2.41195">
        <ele>791</ele>
        <time>2019-04-12T08:40:16Z</time>
      </trkpt>
      <trkpt lat="42.1333" lon="2.41196">
        <ele>790.7</ele>
        <time>2019-04-12T08:40:16Z</time>
      </trkpt>
      <trkpt lat="42.13323" lon="2.41202">
        <ele>790.4</ele>
        <time>2019-04-12T08:40:20Z</time>
      </trkpt>
      <trkpt lat="42.13319" lon="2.41207">
        <ele>790.4</ele>
        <time>2019-04-12T08:40:22Z</time>
      </trkpt>
      <trkpt lat="42.13309" lon="2.41212">
        <ele>790.2</ele>
        <time>2019-04-12T08:40:26Z</time>
      </trkpt>
      <trkpt lat="42.13299" lon="2.41218">
        <ele>790.5</ele>
        <time>2019-04-12T08:40:30Z</time>
      </trkpt>
      <trkpt lat="42.13295" lon="2.4122">
        <ele>790.4</ele>
        <time>2019-04-12T08:40:32Z</time>
      </trkpt>
      <trkpt lat="42.13294" lon="2.41221">
        <ele>790.5</ele>
        <time>2019-04-12T08:40:33Z</time>
      </trkpt>
      <trkpt lat="42.13291" lon="2.41223">
        <ele>790.7</ele>
        <time>2019-04-12T08:40:34Z</time>
      </trkpt>
      <trkpt lat="42.13288" lon="2.41226">
        <ele>791</ele>
        <time>2019-04-12T08:40:35Z</time>
      </trkpt>
      <trkpt lat="42.13284" lon="2.41228">
        <ele>791</ele>
        <time>2019-04-12T08:40:37Z</time>
      </trkpt>
      <trkpt lat="42.13282" lon="2.41229">
        <ele>790.8</ele>
        <time>2019-04-12T08:40:38Z</time>
      </trkpt>
      <trkpt lat="42.1328" lon="2.4123">
        <ele>790.5</ele>
        <time>2019-04-12T08:40:39Z</time>
      </trkpt>
      <trkpt lat="42.13275" lon="2.41232">
        <ele>790.1</ele>
        <time>2019-04-12T08:40:41Z</time>
      </trkpt>
      <trkpt lat="42.13274" lon="2.41232">
        <ele>790</ele>
        <time>2019-04-12T08:40:41Z</time>
      </trkpt>
      <trkpt lat="42.13272" lon="2.41233">
        <ele>789.5</ele>
        <time>2019-04-12T08:40:42Z</time>
      </trkpt>
      <trkpt lat="42.1327" lon="2.41235">
        <ele>789.1</ele>
        <time>2019-04-12T08:40:43Z</time>
      </trkpt>
      <trkpt lat="42.13269" lon="2.41236">
        <ele>788.7</ele>
        <time>2019-04-12T08:40:44Z</time>
      </trkpt>
      <trkpt lat="42.13266" lon="2.41238">
        <ele>788.6</ele>
        <time>2019-04-12T08:40:45Z</time>
      </trkpt>
      <trkpt lat="42.13264" lon="2.41239">
        <ele>788.6</ele>
        <time>2019-04-12T08:40:46Z</time>
      </trkpt>
      <trkpt lat="42.13262" lon="2.4124">
        <ele>788.6</ele>
        <time>2019-04-12T08:40:47Z</time>
      </trkpt>
      <trkpt lat="42.13252" lon="2.41251">
        <ele>788</ele>
        <time>2019-04-12T08:40:52Z</time>
      </trkpt>
      <trkpt lat="42.13245" lon="2.41264">
        <ele>788.5</ele>
        <time>2019-04-12T08:40:57Z</time>
      </trkpt>
      <trkpt lat="42.13237" lon="2.41269">
        <ele>788.5</ele>
        <time>2019-04-12T08:41:00Z</time>
      </trkpt>
      <trkpt lat="42.13236" lon="2.41269">
        <ele>788.4</ele>
        <time>2019-04-12T08:41:01Z</time>
      </trkpt>
      <trkpt lat="42.13234" lon="2.41271">
        <ele>788.1</ele>
        <time>2019-04-12T08:41:02Z</time>
      </trkpt>
      <trkpt lat="42.13231" lon="2.41273">
        <ele>787.7</ele>
        <time>2019-04-12T08:41:03Z</time>
      </trkpt>
      <trkpt lat="42.13226" lon="2.41277">
        <ele>788.1</ele>
        <time>2019-04-12T08:41:05Z</time>
      </trkpt>
      <trkpt lat="42.13221" lon="2.41284">
        <ele>788.1</ele>
        <time>2019-04-12T08:41:08Z</time>
      </trkpt>
      <trkpt lat="42.13214" lon="2.41292">
        <ele>788.1</ele>
        <time>2019-04-12T08:41:12Z</time>
      </trkpt>
      <trkpt lat="42.13213" lon="2.41294">
        <ele>788</ele>
        <time>2019-04-12T08:41:13Z</time>
      </trkpt>
      <trkpt lat="42.13208" lon="2.41295">
        <ele>788.3</ele>
        <time>2019-04-12T08:41:14Z</time>
      </trkpt>
      <trkpt lat="42.132" lon="2.41298">
        <ele>788.7</ele>
        <time>2019-04-12T08:41:18Z</time>
      </trkpt>
      <trkpt lat="42.13192" lon="2.41303">
        <ele>788.4</ele>
        <time>2019-04-12T08:41:21Z</time>
      </trkpt>
      <trkpt lat="42.13191" lon="2.41303">
        <ele>788.4</ele>
        <time>2019-04-12T08:41:22Z</time>
      </trkpt>
      <trkpt lat="42.13185" lon="2.41301">
        <ele>789</ele>
        <time>2019-04-12T08:41:24Z</time>
      </trkpt>
      <trkpt lat="42.13184" lon="2.41301">
        <ele>789</ele>
        <time>2019-04-12T08:41:25Z</time>
      </trkpt>
      <trkpt lat="42.13182" lon="2.41298">
        <ele>789.2</ele>
        <time>2019-04-12T08:41:26Z</time>
      </trkpt>
      <trkpt lat="42.13181" lon="2.41297">
        <ele>789.4</ele>
        <time>2019-04-12T08:41:26Z</time>
      </trkpt>
      <trkpt lat="42.13176" lon="2.41292">
        <ele>789.7</ele>
        <time>2019-04-12T08:41:29Z</time>
      </trkpt>
      <trkpt lat="42.13175" lon="2.41291">
        <ele>789.7</ele>
        <time>2019-04-12T08:41:29Z</time>
      </trkpt>
      <trkpt lat="42.13174" lon="2.41288">
        <ele>790</ele>
        <time>2019-04-12T08:41:30Z</time>
      </trkpt>
      <trkpt lat="42.13174" lon="2.41287">
        <ele>790.1</ele>
        <time>2019-04-12T08:41:31Z</time>
      </trkpt>
      <trkpt lat="42.13171" lon="2.41284">
        <ele>789.5</ele>
        <time>2019-04-12T08:41:32Z</time>
      </trkpt>
      <trkpt lat="42.13168" lon="2.41284">
        <ele>789.1</ele>
        <time>2019-04-12T08:41:33Z</time>
      </trkpt>
      <trkpt lat="42.13167" lon="2.41285">
        <ele>788.7</ele>
        <time>2019-04-12T08:41:34Z</time>
      </trkpt>
      <trkpt lat="42.13163" lon="2.41285">
        <ele>788.2</ele>
        <time>2019-04-12T08:41:35Z</time>
      </trkpt>
      <trkpt lat="42.13161" lon="2.41286">
        <ele>787.8</ele>
        <time>2019-04-12T08:41:36Z</time>
      </trkpt>
      <trkpt lat="42.13159" lon="2.41287">
        <ele>787.4</ele>
        <time>2019-04-12T08:41:37Z</time>
      </trkpt>
      <trkpt lat="42.13153" lon="2.41288">
        <ele>786.6</ele>
        <time>2019-04-12T08:41:39Z</time>
      </trkpt>
      <trkpt lat="42.13152" lon="2.41288">
        <ele>786.2</ele>
        <time>2019-04-12T08:41:40Z</time>
      </trkpt>
      <trkpt lat="42.13149" lon="2.4129">
        <ele>785.6</ele>
        <time>2019-04-12T08:41:41Z</time>
      </trkpt>
      <trkpt lat="42.13148" lon="2.41291">
        <ele>785.5</ele>
        <time>2019-04-12T08:41:41Z</time>
      </trkpt>
      <trkpt lat="42.13146" lon="2.41293">
        <ele>785.4</ele>
        <time>2019-04-12T08:41:42Z</time>
      </trkpt>
      <trkpt lat="42.13145" lon="2.41295">
        <ele>785.3</ele>
        <time>2019-04-12T08:41:43Z</time>
      </trkpt>
      <trkpt lat="42.13142" lon="2.41298">
        <ele>784.6</ele>
        <time>2019-04-12T08:41:45Z</time>
      </trkpt>
      <trkpt lat="42.13141" lon="2.41298">
        <ele>784.4</ele>
        <time>2019-04-12T08:41:45Z</time>
      </trkpt>
      <trkpt lat="42.1314" lon="2.41299">
        <ele>784.2</ele>
        <time>2019-04-12T08:41:45Z</time>
      </trkpt>
      <trkpt lat="42.13139" lon="2.41301">
        <ele>783.4</ele>
        <time>2019-04-12T08:41:46Z</time>
      </trkpt>
      <trkpt lat="42.13138" lon="2.41302">
        <ele>783.3</ele>
        <time>2019-04-12T08:41:47Z</time>
      </trkpt>
      <trkpt lat="42.13137" lon="2.41301">
        <ele>783.1</ele>
        <time>2019-04-12T08:41:47Z</time>
      </trkpt>
      <trkpt lat="42.13136" lon="2.413">
        <ele>782.8</ele>
        <time>2019-04-12T08:41:48Z</time>
      </trkpt>
      <trkpt lat="42.13135" lon="2.41298">
        <ele>782.5</ele>
        <time>2019-04-12T08:41:48Z</time>
      </trkpt>
      <trkpt lat="42.13135" lon="2.41297">
        <ele>782.5</ele>
        <time>2019-04-12T08:41:49Z</time>
      </trkpt>
      <trkpt lat="42.13135" lon="2.41296">
        <ele>782.2</ele>
        <time>2019-04-12T08:41:49Z</time>
      </trkpt>
      <trkpt lat="42.13134" lon="2.41296">
        <ele>781.8</ele>
        <time>2019-04-12T08:41:49Z</time>
      </trkpt>
      <trkpt lat="42.13133" lon="2.4129">
        <ele>781.4</ele>
        <time>2019-04-12T08:41:51Z</time>
      </trkpt>
      <trkpt lat="42.13132" lon="2.41289">
        <ele>781.2</ele>
        <time>2019-04-12T08:41:51Z</time>
      </trkpt>
      <trkpt lat="42.13132" lon="2.41288">
        <ele>781.1</ele>
        <time>2019-04-12T08:41:52Z</time>
      </trkpt>
      <trkpt lat="42.13127" lon="2.41286">
        <ele>780.2</ele>
        <time>2019-04-12T08:41:54Z</time>
      </trkpt>
      <trkpt lat="42.13126" lon="2.41286">
        <ele>780</ele>
        <time>2019-04-12T08:41:54Z</time>
      </trkpt>
      <trkpt lat="42.13125" lon="2.41286">
        <ele>779.6</ele>
        <time>2019-04-12T08:41:55Z</time>
      </trkpt>
      <trkpt lat="42.13123" lon="2.41286">
        <ele>779.3</ele>
        <time>2019-04-12T08:41:55Z</time>
      </trkpt>
      <trkpt lat="42.13122" lon="2.41282">
        <ele>778.6</ele>
        <time>2019-04-12T08:41:57Z</time>
      </trkpt>
      <trkpt lat="42.13122" lon="2.41277">
        <ele>777.4</ele>
        <time>2019-04-12T08:41:58Z</time>
      </trkpt>
      <trkpt lat="42.13122" lon="2.41276">
        <ele>777.4</ele>
        <time>2019-04-12T08:41:58Z</time>
      </trkpt>
      <trkpt lat="42.13123" lon="2.41274">
        <ele>777.4</ele>
        <time>2019-04-12T08:41:59Z</time>
      </trkpt>
      <trkpt lat="42.13123" lon="2.41273">
        <ele>777.3</ele>
        <time>2019-04-12T08:41:59Z</time>
      </trkpt>
      <trkpt lat="42.13123" lon="2.41272">
        <ele>777</ele>
        <time>2019-04-12T08:42:00Z</time>
      </trkpt>
      <trkpt lat="42.13123" lon="2.41269">
        <ele>775.8</ele>
        <time>2019-04-12T08:42:00Z</time>
      </trkpt>
      <trkpt lat="42.13122" lon="2.41267">
        <ele>774.5</ele>
        <time>2019-04-12T08:42:01Z</time>
      </trkpt>
      <trkpt lat="42.13121" lon="2.41264">
        <ele>774</ele>
        <time>2019-04-12T08:42:02Z</time>
      </trkpt>
      <trkpt lat="42.1312" lon="2.41264">
        <ele>773.4</ele>
        <time>2019-04-12T08:42:02Z</time>
      </trkpt>
      <trkpt lat="42.1312" lon="2.41263">
        <ele>773.1</ele>
        <time>2019-04-12T08:42:03Z</time>
      </trkpt>
      <trkpt lat="42.13119" lon="2.41261">
        <ele>772.3</ele>
        <time>2019-04-12T08:42:03Z</time>
      </trkpt>
      <trkpt lat="42.13118" lon="2.41257">
        <ele>771.3</ele>
        <time>2019-04-12T08:42:05Z</time>
      </trkpt>
      <trkpt lat="42.13117" lon="2.41254">
        <ele>770.6</ele>
        <time>2019-04-12T08:42:05Z</time>
      </trkpt>
      <trkpt lat="42.13116" lon="2.41252">
        <ele>770.1</ele>
        <time>2019-04-12T08:42:06Z</time>
      </trkpt>
      <trkpt lat="42.13117" lon="2.41245">
        <ele>768.8</ele>
        <time>2019-04-12T08:42:08Z</time>
      </trkpt>
      <trkpt lat="42.13117" lon="2.41241">
        <ele>768.3</ele>
        <time>2019-04-12T08:42:09Z</time>
      </trkpt>
      <trkpt lat="42.13116" lon="2.41238">
        <ele>767.7</ele>
        <time>2019-04-12T08:42:10Z</time>
      </trkpt>
      <trkpt lat="42.13116" lon="2.41236">
        <ele>767.4</ele>
        <time>2019-04-12T08:42:11Z</time>
      </trkpt>
      <trkpt lat="42.13115" lon="2.41233">
        <ele>766.4</ele>
        <time>2019-04-12T08:42:12Z</time>
      </trkpt>
      <trkpt lat="42.13114" lon="2.41232">
        <ele>766</ele>
        <time>2019-04-12T08:42:13Z</time>
      </trkpt>
      <trkpt lat="42.13113" lon="2.41229">
        <ele>765.4</ele>
        <time>2019-04-12T08:42:13Z</time>
      </trkpt>
      <trkpt lat="42.13113" lon="2.41228">
        <ele>764.8</ele>
        <time>2019-04-12T08:42:14Z</time>
      </trkpt>
      <trkpt lat="42.13112" lon="2.41225">
        <ele>764</ele>
        <time>2019-04-12T08:42:15Z</time>
      </trkpt>
      <trkpt lat="42.13112" lon="2.41223">
        <ele>763.5</ele>
        <time>2019-04-12T08:42:15Z</time>
      </trkpt>
      <trkpt lat="42.13111" lon="2.41219">
        <ele>763.3</ele>
        <time>2019-04-12T08:42:16Z</time>
      </trkpt>
      <trkpt lat="42.1311" lon="2.41214">
        <ele>762.6</ele>
        <time>2019-04-12T08:42:18Z</time>
      </trkpt>
      <trkpt lat="42.1311" lon="2.41212">
        <ele>762.5</ele>
        <time>2019-04-12T08:42:19Z</time>
      </trkpt>
      <trkpt lat="42.13107" lon="2.41207">
        <ele>761.5</ele>
        <time>2019-04-12T08:42:21Z</time>
      </trkpt>
      <trkpt lat="42.13105" lon="2.41205">
        <ele>760.2</ele>
        <time>2019-04-12T08:42:22Z</time>
      </trkpt>
      <trkpt lat="42.13104" lon="2.41204">
        <ele>759.6</ele>
        <time>2019-04-12T08:42:22Z</time>
      </trkpt>
      <trkpt lat="42.13103" lon="2.41203">
        <ele>759.2</ele>
        <time>2019-04-12T08:42:22Z</time>
      </trkpt>
      <trkpt lat="42.13103" lon="2.41202">
        <ele>759</ele>
        <time>2019-04-12T08:42:23Z</time>
      </trkpt>
      <trkpt lat="42.131" lon="2.41198">
        <ele>758.5</ele>
        <time>2019-04-12T08:42:24Z</time>
      </trkpt>
      <trkpt lat="42.13099" lon="2.41195">
        <ele>757.8</ele>
        <time>2019-04-12T08:42:26Z</time>
      </trkpt>
      <trkpt lat="42.13098" lon="2.41188">
        <ele>757.1</ele>
        <time>2019-04-12T08:42:27Z</time>
      </trkpt>
      <trkpt lat="42.13098" lon="2.41187">
        <ele>756.7</ele>
        <time>2019-04-12T08:42:28Z</time>
      </trkpt>
      <trkpt lat="42.13098" lon="2.41186">
        <ele>756.2</ele>
        <time>2019-04-12T08:42:28Z</time>
      </trkpt>
      <trkpt lat="42.13098" lon="2.41184">
        <ele>755.5</ele>
        <time>2019-04-12T08:42:29Z</time>
      </trkpt>
      <trkpt lat="42.13098" lon="2.4118">
        <ele>755.3</ele>
        <time>2019-04-12T08:42:30Z</time>
      </trkpt>
      <trkpt lat="42.13098" lon="2.41178">
        <ele>755</ele>
        <time>2019-04-12T08:42:31Z</time>
      </trkpt>
      <trkpt lat="42.13097" lon="2.41176">
        <ele>754.8</ele>
        <time>2019-04-12T08:42:31Z</time>
      </trkpt>
      <trkpt lat="42.13097" lon="2.41175">
        <ele>754.5</ele>
        <time>2019-04-12T08:42:31Z</time>
      </trkpt>
      <trkpt lat="42.13097" lon="2.41174">
        <ele>754</ele>
        <time>2019-04-12T08:42:32Z</time>
      </trkpt>
      <trkpt lat="42.13096" lon="2.41172">
        <ele>753.2</ele>
        <time>2019-04-12T08:42:33Z</time>
      </trkpt>
      <trkpt lat="42.13095" lon="2.4117">
        <ele>752.7</ele>
        <time>2019-04-12T08:42:33Z</time>
      </trkpt>
      <trkpt lat="42.13094" lon="2.41168">
        <ele>752.1</ele>
        <time>2019-04-12T08:42:34Z</time>
      </trkpt>
      <trkpt lat="42.13094" lon="2.41165">
        <ele>751.5</ele>
        <time>2019-04-12T08:42:35Z</time>
      </trkpt>
      <trkpt lat="42.13094" lon="2.41164">
        <ele>751.5</ele>
        <time>2019-04-12T08:42:35Z</time>
      </trkpt>
      <trkpt lat="42.13094" lon="2.4116">
        <ele>751</ele>
        <time>2019-04-12T08:42:36Z</time>
      </trkpt>
      <trkpt lat="42.13096" lon="2.41156">
        <ele>750.2</ele>
        <time>2019-04-12T08:42:38Z</time>
      </trkpt>
      <trkpt lat="42.13097" lon="2.41154">
        <ele>749.7</ele>
        <time>2019-04-12T08:42:38Z</time>
      </trkpt>
      <trkpt lat="42.13098" lon="2.41153">
        <ele>749.6</ele>
        <time>2019-04-12T08:42:39Z</time>
      </trkpt>
      <trkpt lat="42.13099" lon="2.41149">
        <ele>749.1</ele>
        <time>2019-04-12T08:42:40Z</time>
      </trkpt>
      <trkpt lat="42.13099" lon="2.41148">
        <ele>748.5</ele>
        <time>2019-04-12T08:42:41Z</time>
      </trkpt>
      <trkpt lat="42.13101" lon="2.41145">
        <ele>747.7</ele>
        <time>2019-04-12T08:42:41Z</time>
      </trkpt>
      <trkpt lat="42.13101" lon="2.41144">
        <ele>747.2</ele>
        <time>2019-04-12T08:42:42Z</time>
      </trkpt>
      <trkpt lat="42.13101" lon="2.41143">
        <ele>746</ele>
        <time>2019-04-12T08:42:42Z</time>
      </trkpt>
      <trkpt lat="42.13101" lon="2.41141">
        <ele>745.5</ele>
        <time>2019-04-12T08:42:43Z</time>
      </trkpt>
      <trkpt lat="42.13101" lon="2.41141">
        <ele>745.5</ele>
        <time>2019-04-12T08:42:43Z</time>
      </trkpt>
      <trkpt lat="42.131" lon="2.4114">
        <ele>744.6</ele>
        <time>2019-04-12T08:42:43Z</time>
      </trkpt>
      <trkpt lat="42.131" lon="2.41139">
        <ele>744.3</ele>
        <time>2019-04-12T08:42:44Z</time>
      </trkpt>
      <trkpt lat="42.13099" lon="2.41139">
        <ele>743.8</ele>
        <time>2019-04-12T08:42:44Z</time>
      </trkpt>
      <trkpt lat="42.13099" lon="2.41139">
        <ele>743.4</ele>
        <time>2019-04-12T08:42:44Z</time>
      </trkpt>
      <trkpt lat="42.13099" lon="2.41133">
        <ele>742.4</ele>
        <time>2019-04-12T08:42:45Z</time>
      </trkpt>
      <trkpt lat="42.131" lon="2.41132">
        <ele>742</ele>
        <time>2019-04-12T08:42:46Z</time>
      </trkpt>
      <trkpt lat="42.13101" lon="2.41128">
        <ele>741.5</ele>
        <time>2019-04-12T08:42:47Z</time>
      </trkpt>
      <trkpt lat="42.13103" lon="2.41122">
        <ele>740.4</ele>
        <time>2019-04-12T08:42:49Z</time>
      </trkpt>
      <trkpt lat="42.13104" lon="2.4112">
        <ele>740</ele>
        <time>2019-04-12T08:42:50Z</time>
      </trkpt>
      <trkpt lat="42.1311" lon="2.41111">
        <ele>739</ele>
        <time>2019-04-12T08:42:54Z</time>
      </trkpt>
      <trkpt lat="42.13111" lon="2.4111">
        <ele>738.8</ele>
        <time>2019-04-12T08:42:54Z</time>
      </trkpt>
      <trkpt lat="42.13113" lon="2.41106">
        <ele>738</ele>
        <time>2019-04-12T08:42:55Z</time>
      </trkpt>
      <trkpt lat="42.13114" lon="2.41104">
        <ele>738.1</ele>
        <time>2019-04-12T08:42:56Z</time>
      </trkpt>
      <trkpt lat="42.13115" lon="2.41102">
        <ele>737.7</ele>
        <time>2019-04-12T08:42:57Z</time>
      </trkpt>
      <trkpt lat="42.13117" lon="2.41098">
        <ele>737.6</ele>
        <time>2019-04-12T08:42:58Z</time>
      </trkpt>
      <trkpt lat="42.13118" lon="2.41095">
        <ele>736.7</ele>
        <time>2019-04-12T08:42:59Z</time>
      </trkpt>
      <trkpt lat="42.13119" lon="2.41094">
        <ele>735.8</ele>
        <time>2019-04-12T08:43:00Z</time>
      </trkpt>
      <trkpt lat="42.1312" lon="2.41091">
        <ele>734.8</ele>
        <time>2019-04-12T08:43:01Z</time>
      </trkpt>
      <trkpt lat="42.1312" lon="2.4109">
        <ele>734.1</ele>
        <time>2019-04-12T08:43:01Z</time>
      </trkpt>
      <trkpt lat="42.1312" lon="2.4109">
        <ele>733.6</ele>
        <time>2019-04-12T08:43:01Z</time>
      </trkpt>
      <trkpt lat="42.1312" lon="2.4109">
        <ele>733.4</ele>
        <time>2019-04-12T08:43:01Z</time>
      </trkpt>
      <trkpt lat="42.1312" lon="2.41087">
        <ele>732.5</ele>
        <time>2019-04-12T08:43:02Z</time>
      </trkpt>
      <trkpt lat="42.1312" lon="2.41086">
        <ele>732.2</ele>
        <time>2019-04-12T08:43:02Z</time>
      </trkpt>
      <trkpt lat="42.13121" lon="2.41085">
        <ele>731.8</ele>
        <time>2019-04-12T08:43:03Z</time>
      </trkpt>
      <trkpt lat="42.13121" lon="2.41082">
        <ele>731.3</ele>
        <time>2019-04-12T08:43:03Z</time>
      </trkpt>
      <trkpt lat="42.13121" lon="2.41081">
        <ele>731.1</ele>
        <time>2019-04-12T08:43:04Z</time>
      </trkpt>
      <trkpt lat="42.13121" lon="2.41079">
        <ele>730.5</ele>
        <time>2019-04-12T08:43:04Z</time>
      </trkpt>
      <trkpt lat="42.13121" lon="2.41078">
        <ele>730.2</ele>
        <time>2019-04-12T08:43:05Z</time>
      </trkpt>
      <trkpt lat="42.13121" lon="2.41078">
        <ele>730</ele>
        <time>2019-04-12T08:43:05Z</time>
      </trkpt>
      <trkpt lat="42.1312" lon="2.41078">
        <ele>728.5</ele>
        <time>2019-04-12T08:43:05Z</time>
      </trkpt>
      <trkpt lat="42.13119" lon="2.41078">
        <ele>727.6</ele>
        <time>2019-04-12T08:43:05Z</time>
      </trkpt>
      <trkpt lat="42.13119" lon="2.41077">
        <ele>727.3</ele>
        <time>2019-04-12T08:43:05Z</time>
      </trkpt>
      <trkpt lat="42.13118" lon="2.41076">
        <ele>726.4</ele>
        <time>2019-04-12T08:43:06Z</time>
      </trkpt>
      <trkpt lat="42.13117" lon="2.41075">
        <ele>726.2</ele>
        <time>2019-04-12T08:43:06Z</time>
      </trkpt>
      <trkpt lat="42.13117" lon="2.41073">
        <ele>726</ele>
        <time>2019-04-12T08:43:07Z</time>
      </trkpt>
      <trkpt lat="42.13116" lon="2.41068">
        <ele>725.4</ele>
        <time>2019-04-12T08:43:08Z</time>
      </trkpt>
      <trkpt lat="42.13116" lon="2.41066">
        <ele>725.1</ele>
        <time>2019-04-12T08:43:09Z</time>
      </trkpt>
      <trkpt lat="42.13116" lon="2.41064">
        <ele>724.7</ele>
        <time>2019-04-12T08:43:10Z</time>
      </trkpt>
      <trkpt lat="42.13116" lon="2.41063">
        <ele>724.4</ele>
        <time>2019-04-12T08:43:10Z</time>
      </trkpt>
      <trkpt lat="42.13116" lon="2.4106">
        <ele>723.5</ele>
        <time>2019-04-12T08:43:11Z</time>
      </trkpt>
      <trkpt lat="42.13116" lon="2.41059">
        <ele>723.3</ele>
        <time>2019-04-12T08:43:11Z</time>
      </trkpt>
      <trkpt lat="42.13117" lon="2.41058">
        <ele>723</ele>
        <time>2019-04-12T08:43:11Z</time>
      </trkpt>
      <trkpt lat="42.13117" lon="2.41055">
        <ele>722.5</ele>
        <time>2019-04-12T08:43:12Z</time>
      </trkpt>
      <trkpt lat="42.13118" lon="2.41054">
        <ele>722.3</ele>
        <time>2019-04-12T08:43:13Z</time>
      </trkpt>
      <trkpt lat="42.13118" lon="2.41053">
        <ele>721.5</ele>
        <time>2019-04-12T08:43:13Z</time>
      </trkpt>
      <trkpt lat="42.13119" lon="2.41051">
        <ele>721</ele>
        <time>2019-04-12T08:43:14Z</time>
      </trkpt>
      <trkpt lat="42.13119" lon="2.4105">
        <ele>721.1</ele>
        <time>2019-04-12T08:43:14Z</time>
      </trkpt>
      <trkpt lat="42.13119" lon="2.41049">
        <ele>720.8</ele>
        <time>2019-04-12T08:43:15Z</time>
      </trkpt>
      <trkpt lat="42.1312" lon="2.41045">
        <ele>720</ele>
        <time>2019-04-12T08:43:16Z</time>
      </trkpt>
      <trkpt lat="42.13122" lon="2.41042">
        <ele>719.6</ele>
        <time>2019-04-12T08:43:17Z</time>
      </trkpt>
      <trkpt lat="42.13123" lon="2.41042">
        <ele>719.4</ele>
        <time>2019-04-12T08:43:17Z</time>
      </trkpt>
      <trkpt lat="42.13124" lon="2.41038">
        <ele>719.1</ele>
        <time>2019-04-12T08:43:18Z</time>
      </trkpt>
      <trkpt lat="42.13124" lon="2.41035">
        <ele>718.6</ele>
        <time>2019-04-12T08:43:19Z</time>
      </trkpt>
      <trkpt lat="42.13119" lon="2.4103">
        <ele>718.1</ele>
        <time>2019-04-12T08:43:22Z</time>
      </trkpt>
      <trkpt lat="42.13119" lon="2.41029">
        <ele>717.7</ele>
        <time>2019-04-12T08:43:22Z</time>
      </trkpt>
      <trkpt lat="42.13118" lon="2.41028">
        <ele>717.7</ele>
        <time>2019-04-12T08:43:22Z</time>
      </trkpt>
      <trkpt lat="42.13116" lon="2.41026">
        <ele>717.4</ele>
        <time>2019-04-12T08:43:23Z</time>
      </trkpt>
      <trkpt lat="42.13115" lon="2.41024">
        <ele>716.7</ele>
        <time>2019-04-12T08:43:24Z</time>
      </trkpt>
      <trkpt lat="42.13115" lon="2.41022">
        <ele>716.2</ele>
        <time>2019-04-12T08:43:25Z</time>
      </trkpt>
      <trkpt lat="42.13116" lon="2.4102">
        <ele>715.5</ele>
        <time>2019-04-12T08:43:25Z</time>
      </trkpt>
      <trkpt lat="42.13116" lon="2.41014">
        <ele>715.6</ele>
        <time>2019-04-12T08:43:27Z</time>
      </trkpt>
      <trkpt lat="42.13117" lon="2.41012">
        <ele>715.4</ele>
        <time>2019-04-12T08:43:28Z</time>
      </trkpt>
      <trkpt lat="42.13116" lon="2.41009">
        <ele>715.8</ele>
        <time>2019-04-12T08:43:29Z</time>
      </trkpt>
      <trkpt lat="42.13115" lon="2.41007">
        <ele>715.5</ele>
        <time>2019-04-12T08:43:29Z</time>
      </trkpt>
      <trkpt lat="42.13115" lon="2.41006">
        <ele>715.4</ele>
        <time>2019-04-12T08:43:29Z</time>
      </trkpt>
      <trkpt lat="42.13115" lon="2.41005">
        <ele>714.6</ele>
        <time>2019-04-12T08:43:30Z</time>
      </trkpt>
      <trkpt lat="42.13115" lon="2.41002">
        <ele>714.2</ele>
        <time>2019-04-12T08:43:31Z</time>
      </trkpt>
      <trkpt lat="42.13115" lon="2.40999">
        <ele>713.5</ele>
        <time>2019-04-12T08:43:32Z</time>
      </trkpt>
      <trkpt lat="42.13115" lon="2.40996">
        <ele>713</ele>
        <time>2019-04-12T08:43:33Z</time>
      </trkpt>
      <trkpt lat="42.13116" lon="2.40995">
        <ele>712.5</ele>
        <time>2019-04-12T08:43:33Z</time>
      </trkpt>
      <trkpt lat="42.13116" lon="2.40992">
        <ele>712.3</ele>
        <time>2019-04-12T08:43:34Z</time>
      </trkpt>
      <trkpt lat="42.13116" lon="2.40985">
        <ele>711.4</ele>
        <time>2019-04-12T08:43:36Z</time>
      </trkpt>
      <trkpt lat="42.13116" lon="2.40983">
        <ele>711.2</ele>
        <time>2019-04-12T08:43:36Z</time>
      </trkpt>
      <trkpt lat="42.13115" lon="2.4098">
        <ele>711</ele>
        <time>2019-04-12T08:43:37Z</time>
      </trkpt>
      <trkpt lat="42.13115" lon="2.40977">
        <ele>710.5</ele>
        <time>2019-04-12T08:43:39Z</time>
      </trkpt>
      <trkpt lat="42.13116" lon="2.40976">
        <ele>710.3</ele>
        <time>2019-04-12T08:43:39Z</time>
      </trkpt>
      <trkpt lat="42.13117" lon="2.40974">
        <ele>709.5</ele>
        <time>2019-04-12T08:43:39Z</time>
      </trkpt>
      <trkpt lat="42.13117" lon="2.40973">
        <ele>709.2</ele>
        <time>2019-04-12T08:43:40Z</time>
      </trkpt>
      <trkpt lat="42.13117" lon="2.40972">
        <ele>708.8</ele>
        <time>2019-04-12T08:43:40Z</time>
      </trkpt>
      <trkpt lat="42.13117" lon="2.4097">
        <ele>708.4</ele>
        <time>2019-04-12T08:43:41Z</time>
      </trkpt>
      <trkpt lat="42.13117" lon="2.40969">
        <ele>708</ele>
        <time>2019-04-12T08:43:41Z</time>
      </trkpt>
      <trkpt lat="42.13118" lon="2.40965">
        <ele>707.7</ele>
        <time>2019-04-12T08:43:42Z</time>
      </trkpt>
      <trkpt lat="42.13118" lon="2.40964">
        <ele>707.6</ele>
        <time>2019-04-12T08:43:43Z</time>
      </trkpt>
      <trkpt lat="42.13121" lon="2.4096">
        <ele>707</ele>
        <time>2019-04-12T08:43:44Z</time>
      </trkpt>
      <trkpt lat="42.13122" lon="2.40959">
        <ele>706.7</ele>
        <time>2019-04-12T08:43:45Z</time>
      </trkpt>
      <trkpt lat="42.13126" lon="2.40952">
        <ele>706.7</ele>
        <time>2019-04-12T08:43:47Z</time>
      </trkpt>
      <trkpt lat="42.13127" lon="2.40951">
        <ele>707</ele>
        <time>2019-04-12T08:43:48Z</time>
      </trkpt>
      <trkpt lat="42.13124" lon="2.40948">
        <ele>706.1</ele>
        <time>2019-04-12T08:43:49Z</time>
      </trkpt>
      <trkpt lat="42.13123" lon="2.40945">
        <ele>705.1</ele>
        <time>2019-04-12T08:43:50Z</time>
      </trkpt>
      <trkpt lat="42.13121" lon="2.4094">
        <ele>704.5</ele>
        <time>2019-04-12T08:43:52Z</time>
      </trkpt>
      <trkpt lat="42.13117" lon="2.40937">
        <ele>704.6</ele>
        <time>2019-04-12T08:43:53Z</time>
      </trkpt>
      <trkpt lat="42.13114" lon="2.40933">
        <ele>704.1</ele>
        <time>2019-04-12T08:43:55Z</time>
      </trkpt>
      <trkpt lat="42.13114" lon="2.40932">
        <ele>703.5</ele>
        <time>2019-04-12T08:43:55Z</time>
      </trkpt>
      <trkpt lat="42.13111" lon="2.40929">
        <ele>702.4</ele>
        <time>2019-04-12T08:43:57Z</time>
      </trkpt>
      <trkpt lat="42.1311" lon="2.40928">
        <ele>702.5</ele>
        <time>2019-04-12T08:43:57Z</time>
      </trkpt>
      <trkpt lat="42.13108" lon="2.40926">
        <ele>702.3</ele>
        <time>2019-04-12T08:43:58Z</time>
      </trkpt>
      <trkpt lat="42.13106" lon="2.40924">
        <ele>702.1</ele>
        <time>2019-04-12T08:44:00Z</time>
      </trkpt>
      <trkpt lat="42.13105" lon="2.40921">
        <ele>701.7</ele>
        <time>2019-04-12T08:44:00Z</time>
      </trkpt>
      <trkpt lat="42.13104" lon="2.4092">
        <ele>701.7</ele>
        <time>2019-04-12T08:44:01Z</time>
      </trkpt>
      <trkpt lat="42.13103" lon="2.40917">
        <ele>701.8</ele>
        <time>2019-04-12T08:44:02Z</time>
      </trkpt>
      <trkpt lat="42.131" lon="2.40915">
        <ele>701.7</ele>
        <time>2019-04-12T08:44:03Z</time>
      </trkpt>
      <trkpt lat="42.131" lon="2.40913">
        <ele>701.4</ele>
        <time>2019-04-12T08:44:03Z</time>
      </trkpt>
      <trkpt lat="42.13099" lon="2.40911">
        <ele>701.3</ele>
        <time>2019-04-12T08:44:04Z</time>
      </trkpt>
      <trkpt lat="42.13099" lon="2.4091">
        <ele>701</ele>
        <time>2019-04-12T08:44:04Z</time>
      </trkpt>
      <trkpt lat="42.131" lon="2.40904">
        <ele>700.5</ele>
        <time>2019-04-12T08:44:06Z</time>
      </trkpt>
      <trkpt lat="42.131" lon="2.409">
        <ele>700.2</ele>
        <time>2019-04-12T08:44:07Z</time>
      </trkpt>
      <trkpt lat="42.13101" lon="2.40899">
        <ele>700</ele>
        <time>2019-04-12T08:44:08Z</time>
      </trkpt>
      <trkpt lat="42.13101" lon="2.40898">
        <ele>699.5</ele>
        <time>2019-04-12T08:44:08Z</time>
      </trkpt>
      <trkpt lat="42.13101" lon="2.40896">
        <ele>699.1</ele>
        <time>2019-04-12T08:44:09Z</time>
      </trkpt>
      <trkpt lat="42.131" lon="2.4089">
        <ele>698.5</ele>
        <time>2019-04-12T08:44:11Z</time>
      </trkpt>
      <trkpt lat="42.13099" lon="2.40889">
        <ele>698.2</ele>
        <time>2019-04-12T08:44:11Z</time>
      </trkpt>
      <trkpt lat="42.13098" lon="2.40888">
        <ele>698</ele>
        <time>2019-04-12T08:44:11Z</time>
      </trkpt>
      <trkpt lat="42.13097" lon="2.40885">
        <ele>697.6</ele>
        <time>2019-04-12T08:44:12Z</time>
      </trkpt>
      <trkpt lat="42.13096" lon="2.40881">
        <ele>697</ele>
        <time>2019-04-12T08:44:14Z</time>
      </trkpt>
      <trkpt lat="42.13096" lon="2.40879">
        <ele>696.8</ele>
        <time>2019-04-12T08:44:14Z</time>
      </trkpt>
      <trkpt lat="42.13096" lon="2.40873">
        <ele>696.5</ele>
        <time>2019-04-12T08:44:16Z</time>
      </trkpt>
      <trkpt lat="42.13096" lon="2.40868">
        <ele>696.4</ele>
        <time>2019-04-12T08:44:17Z</time>
      </trkpt>
      <trkpt lat="42.13097" lon="2.40866">
        <ele>696.7</ele>
        <time>2019-04-12T08:44:18Z</time>
      </trkpt>
      <trkpt lat="42.13097" lon="2.40863">
        <ele>697.3</ele>
        <time>2019-04-12T08:44:19Z</time>
      </trkpt>
      <trkpt lat="42.13096" lon="2.40859">
        <ele>697.5</ele>
        <time>2019-04-12T08:44:20Z</time>
      </trkpt>
      <trkpt lat="42.13094" lon="2.4085">
        <ele>697</ele>
        <time>2019-04-12T08:44:23Z</time>
      </trkpt>
      <trkpt lat="42.13094" lon="2.4085">
        <ele>696.7</ele>
        <time>2019-04-12T08:44:23Z</time>
      </trkpt>
      <trkpt lat="42.13093" lon="2.40846">
        <ele>696.6</ele>
        <time>2019-04-12T08:44:24Z</time>
      </trkpt>
      <trkpt lat="42.13093" lon="2.40843">
        <ele>696</ele>
        <time>2019-04-12T08:44:25Z</time>
      </trkpt>
      <trkpt lat="42.13093" lon="2.40843">
        <ele>696</ele>
        <time>2019-04-12T08:44:25Z</time>
      </trkpt>
      <trkpt lat="42.13093" lon="2.40843">
        <ele>695.7</ele>
        <time>2019-04-12T08:44:25Z</time>
      </trkpt>
      <trkpt lat="42.13092" lon="2.40842">
        <ele>695.7</ele>
        <time>2019-04-12T08:44:25Z</time>
      </trkpt>
      <trkpt lat="42.13091" lon="2.40842">
        <ele>695.5</ele>
        <time>2019-04-12T08:44:26Z</time>
      </trkpt>
      <trkpt lat="42.13091" lon="2.40841">
        <ele>695.2</ele>
        <time>2019-04-12T08:44:26Z</time>
      </trkpt>
      <trkpt lat="42.1309" lon="2.40839">
        <ele>695</ele>
        <time>2019-04-12T08:44:27Z</time>
      </trkpt>
      <trkpt lat="42.1309" lon="2.40838">
        <ele>695.1</ele>
        <time>2019-04-12T08:44:27Z</time>
      </trkpt>
      <trkpt lat="42.1309" lon="2.40838">
        <ele>695.1</ele>
        <time>2019-04-12T08:44:27Z</time>
      </trkpt>
      <trkpt lat="42.13091" lon="2.40837">
        <ele>694.7</ele>
        <time>2019-04-12T08:44:28Z</time>
      </trkpt>
      <trkpt lat="42.13092" lon="2.40837">
        <ele>694.8</ele>
        <time>2019-04-12T08:44:28Z</time>
      </trkpt>
      <trkpt lat="42.13093" lon="2.40838">
        <ele>694.5</ele>
        <time>2019-04-12T08:44:29Z</time>
      </trkpt>
      <trkpt lat="42.13094" lon="2.40837">
        <ele>694.5</ele>
        <time>2019-04-12T08:44:29Z</time>
      </trkpt>
      <trkpt lat="42.13096" lon="2.40838">
        <ele>694.8</ele>
        <time>2019-04-12T08:44:30Z</time>
      </trkpt>
      <trkpt lat="42.13097" lon="2.40839">
        <ele>694.8</ele>
        <time>2019-04-12T08:44:30Z</time>
      </trkpt>
      <trkpt lat="42.13098" lon="2.40839">
        <ele>694.6</ele>
        <time>2019-04-12T08:44:31Z</time>
      </trkpt>
      <trkpt lat="42.13098" lon="2.40839">
        <ele>694.5</ele>
        <time>2019-04-12T08:44:31Z</time>
      </trkpt>
      <trkpt lat="42.13097" lon="2.4084">
        <ele>694.5</ele>
        <time>2019-04-12T08:44:31Z</time>
      </trkpt>
      <trkpt lat="42.13097" lon="2.4084">
        <ele>694.5</ele>
        <time>2019-04-12T08:44:32Z</time>
      </trkpt>
      <trkpt lat="42.13095" lon="2.40841">
        <ele>694.7</ele>
        <time>2019-04-12T08:44:32Z</time>
      </trkpt>
      <trkpt lat="42.13094" lon="2.40841">
        <ele>694.8</ele>
        <time>2019-04-12T08:44:33Z</time>
      </trkpt>
      <trkpt lat="42.13091" lon="2.40841">
        <ele>694.8</ele>
        <time>2019-04-12T08:44:34Z</time>
      </trkpt>
      <trkpt lat="42.13085" lon="2.40844">
        <ele>694.8</ele>
        <time>2019-04-12T08:44:37Z</time>
      </trkpt>
      <trkpt lat="42.13086" lon="2.40839">
        <ele>695.2</ele>
        <time>2019-04-12T08:44:38Z</time>
      </trkpt>
      <trkpt lat="42.13083" lon="2.40832">
        <ele>694.6</ele>
        <time>2019-04-12T08:44:41Z</time>
      </trkpt>
      <trkpt lat="42.13082" lon="2.4083">
        <ele>694.1</ele>
        <time>2019-04-12T08:44:41Z</time>
      </trkpt>
      <trkpt lat="42.13081" lon="2.40828">
        <ele>693.6</ele>
        <time>2019-04-12T08:44:42Z</time>
      </trkpt>
      <trkpt lat="42.1308" lon="2.40827">
        <ele>693.5</ele>
        <time>2019-04-12T08:44:42Z</time>
      </trkpt>
      <trkpt lat="42.1308" lon="2.40825">
        <ele>693</ele>
        <time>2019-04-12T08:44:43Z</time>
      </trkpt>
      <trkpt lat="42.13079" lon="2.40824">
        <ele>692.7</ele>
        <time>2019-04-12T08:44:43Z</time>
      </trkpt>
      <trkpt lat="42.13079" lon="2.40823">
        <ele>692.7</ele>
        <time>2019-04-12T08:44:44Z</time>
      </trkpt>
      <trkpt lat="42.13078" lon="2.40823">
        <ele>692.5</ele>
        <time>2019-04-12T08:44:44Z</time>
      </trkpt>
      <trkpt lat="42.13076" lon="2.40822">
        <ele>692.3</ele>
        <time>2019-04-12T08:44:45Z</time>
      </trkpt>
      <trkpt lat="42.13074" lon="2.40819">
        <ele>692.1</ele>
        <time>2019-04-12T08:44:46Z</time>
      </trkpt>
      <trkpt lat="42.13073" lon="2.40818">
        <ele>692.1</ele>
        <time>2019-04-12T08:44:46Z</time>
      </trkpt>
      <trkpt lat="42.13072" lon="2.40817">
        <ele>692.1</ele>
        <time>2019-04-12T08:44:47Z</time>
      </trkpt>
      <trkpt lat="42.13071" lon="2.40816">
        <ele>691.7</ele>
        <time>2019-04-12T08:44:47Z</time>
      </trkpt>
      <trkpt lat="42.13071" lon="2.40815">
        <ele>691.5</ele>
        <time>2019-04-12T08:44:48Z</time>
      </trkpt>
      <trkpt lat="42.1307" lon="2.40814">
        <ele>691.4</ele>
        <time>2019-04-12T08:44:48Z</time>
      </trkpt>
      <trkpt lat="42.1307" lon="2.40814">
        <ele>691.1</ele>
        <time>2019-04-12T08:44:48Z</time>
      </trkpt>
      <trkpt lat="42.13069" lon="2.40813">
        <ele>691.1</ele>
        <time>2019-04-12T08:44:49Z</time>
      </trkpt>
      <trkpt lat="42.13067" lon="2.40813">
        <ele>690.5</ele>
        <time>2019-04-12T08:44:49Z</time>
      </trkpt>
      <trkpt lat="42.13066" lon="2.40812">
        <ele>690.4</ele>
        <time>2019-04-12T08:44:50Z</time>
      </trkpt>
      <trkpt lat="42.13064" lon="2.40811">
        <ele>690</ele>
        <time>2019-04-12T08:44:51Z</time>
      </trkpt>
      <trkpt lat="42.13062" lon="2.40811">
        <ele>689.7</ele>
        <time>2019-04-12T08:44:52Z</time>
      </trkpt>
      <trkpt lat="42.1306" lon="2.40811">
        <ele>689.8</ele>
        <time>2019-04-12T08:44:52Z</time>
      </trkpt>
      <trkpt lat="42.13057" lon="2.4081">
        <ele>689.5</ele>
        <time>2019-04-12T08:44:54Z</time>
      </trkpt>
      <trkpt lat="42.13055" lon="2.4081">
        <ele>689.4</ele>
        <time>2019-04-12T08:44:54Z</time>
      </trkpt>
      <trkpt lat="42.13054" lon="2.4081">
        <ele>689.2</ele>
        <time>2019-04-12T08:44:55Z</time>
      </trkpt>
      <trkpt lat="42.13047" lon="2.40807">
        <ele>688.6</ele>
        <time>2019-04-12T08:44:58Z</time>
      </trkpt>
      <trkpt lat="42.13046" lon="2.40806">
        <ele>688.4</ele>
        <time>2019-04-12T08:44:58Z</time>
      </trkpt>
      <trkpt lat="42.13043" lon="2.40802">
        <ele>688.4</ele>
        <time>2019-04-12T08:45:00Z</time>
      </trkpt>
      <trkpt lat="42.1304" lon="2.40802">
        <ele>688.5</ele>
        <time>2019-04-12T08:45:01Z</time>
      </trkpt>
      <trkpt lat="42.13039" lon="2.40803">
        <ele>688.4</ele>
        <time>2019-04-12T08:45:01Z</time>
      </trkpt>
      <trkpt lat="42.13036" lon="2.40805">
        <ele>688.2</ele>
        <time>2019-04-12T08:45:03Z</time>
      </trkpt>
      <trkpt lat="42.13035" lon="2.40806">
        <ele>688.1</ele>
        <time>2019-04-12T08:45:03Z</time>
      </trkpt>
      <trkpt lat="42.13031" lon="2.40809">
        <ele>687</ele>
        <time>2019-04-12T08:45:05Z</time>
      </trkpt>
      <trkpt lat="42.13031" lon="2.40809">
        <ele>686.5</ele>
        <time>2019-04-12T08:45:05Z</time>
      </trkpt>
      <trkpt lat="42.13029" lon="2.40811">
        <ele>685.7</ele>
        <time>2019-04-12T08:45:06Z</time>
      </trkpt>
      <trkpt lat="42.13026" lon="2.40814">
        <ele>685</ele>
        <time>2019-04-12T08:45:07Z</time>
      </trkpt>
      <trkpt lat="42.13025" lon="2.40816">
        <ele>684.7</ele>
        <time>2019-04-12T08:45:08Z</time>
      </trkpt>
      <trkpt lat="42.13024" lon="2.40817">
        <ele>684.5</ele>
        <time>2019-04-12T08:45:09Z</time>
      </trkpt>
      <trkpt lat="42.13021" lon="2.40818">
        <ele>684</ele>
        <time>2019-04-12T08:45:10Z</time>
      </trkpt>
      <trkpt lat="42.1302" lon="2.40818">
        <ele>683.7</ele>
        <time>2019-04-12T08:45:10Z</time>
      </trkpt>
      <trkpt lat="42.13019" lon="2.40818">
        <ele>683.7</ele>
        <time>2019-04-12T08:45:11Z</time>
      </trkpt>
      <trkpt lat="42.13018" lon="2.4082">
        <ele>683.5</ele>
        <time>2019-04-12T08:45:11Z</time>
      </trkpt>
      <trkpt lat="42.13017" lon="2.4082">
        <ele>683.4</ele>
        <time>2019-04-12T08:45:12Z</time>
      </trkpt>
      <trkpt lat="42.13016" lon="2.40821">
        <ele>683.4</ele>
        <time>2019-04-12T08:45:12Z</time>
      </trkpt>
      <trkpt lat="42.13013" lon="2.40822">
        <ele>682.8</ele>
        <time>2019-04-12T08:45:13Z</time>
      </trkpt>
      <trkpt lat="42.13012" lon="2.40823">
        <ele>682.5</ele>
        <time>2019-04-12T08:45:14Z</time>
      </trkpt>
      <trkpt lat="42.13011" lon="2.40824">
        <ele>682.5</ele>
        <time>2019-04-12T08:45:14Z</time>
      </trkpt>
      <trkpt lat="42.13007" lon="2.40825">
        <ele>682.8</ele>
        <time>2019-04-12T08:45:16Z</time>
      </trkpt>
      <trkpt lat="42.13003" lon="2.40826">
        <ele>682.8</ele>
        <time>2019-04-12T08:45:18Z</time>
      </trkpt>
      <trkpt lat="42.12999" lon="2.40828">
        <ele>682.5</ele>
        <time>2019-04-12T08:45:20Z</time>
      </trkpt>
      <trkpt lat="42.12997" lon="2.40828">
        <ele>682.3</ele>
        <time>2019-04-12T08:45:20Z</time>
      </trkpt>
      <trkpt lat="42.12995" lon="2.40828">
        <ele>682.1</ele>
        <time>2019-04-12T08:45:21Z</time>
      </trkpt>
      <trkpt lat="42.12992" lon="2.40827">
        <ele>682.3</ele>
        <time>2019-04-12T08:45:22Z</time>
      </trkpt>
      <trkpt lat="42.12988" lon="2.40825">
        <ele>682.7</ele>
        <time>2019-04-12T08:45:24Z</time>
      </trkpt>
      <trkpt lat="42.12983" lon="2.40824">
        <ele>683</ele>
        <time>2019-04-12T08:45:26Z</time>
      </trkpt>
      <trkpt lat="42.12982" lon="2.40824">
        <ele>683</ele>
        <time>2019-04-12T08:45:26Z</time>
      </trkpt>
      <trkpt lat="42.12981" lon="2.40825">
        <ele>683</ele>
        <time>2019-04-12T08:45:27Z</time>
      </trkpt>
      <trkpt lat="42.12979" lon="2.40826">
        <ele>683</ele>
        <time>2019-04-12T08:45:28Z</time>
      </trkpt>
      <trkpt lat="42.12979" lon="2.40826">
        <ele>683.1</ele>
        <time>2019-04-12T08:45:28Z</time>
      </trkpt>
      <trkpt lat="42.12977" lon="2.40826">
        <ele>683.3</ele>
        <time>2019-04-12T08:45:29Z</time>
      </trkpt>
      <trkpt lat="42.12976" lon="2.40826">
        <ele>683.5</ele>
        <time>2019-04-12T08:45:29Z</time>
      </trkpt>
      <trkpt lat="42.12974" lon="2.40831">
        <ele>683.5</ele>
        <time>2019-04-12T08:45:30Z</time>
      </trkpt>
      <trkpt lat="42.12974" lon="2.40833">
        <ele>683.6</ele>
        <time>2019-04-12T08:45:31Z</time>
      </trkpt>
      <trkpt lat="42.12974" lon="2.40834">
        <ele>683.5</ele>
        <time>2019-04-12T08:45:31Z</time>
      </trkpt>
      <trkpt lat="42.12973" lon="2.40837">
        <ele>683.8</ele>
        <time>2019-04-12T08:45:32Z</time>
      </trkpt>
      <trkpt lat="42.12974" lon="2.4084">
        <ele>684.5</ele>
        <time>2019-04-12T08:45:33Z</time>
      </trkpt>
      <trkpt lat="42.12975" lon="2.4084">
        <ele>684.5</ele>
        <time>2019-04-12T08:45:34Z</time>
      </trkpt>
      <trkpt lat="42.12976" lon="2.40842">
        <ele>684.6</ele>
        <time>2019-04-12T08:45:34Z</time>
      </trkpt>
      <trkpt lat="42.12976" lon="2.40848">
        <ele>684.5</ele>
        <time>2019-04-12T08:45:36Z</time>
      </trkpt>
      <trkpt lat="42.12976" lon="2.4085">
        <ele>684.6</ele>
        <time>2019-04-12T08:45:37Z</time>
      </trkpt>
      <trkpt lat="42.12976" lon="2.40852">
        <ele>684.4</ele>
        <time>2019-04-12T08:45:37Z</time>
      </trkpt>
      <trkpt lat="42.12976" lon="2.40854">
        <ele>684.4</ele>
        <time>2019-04-12T08:45:38Z</time>
      </trkpt>
      <trkpt lat="42.12976" lon="2.40855">
        <ele>684.3</ele>
        <time>2019-04-12T08:45:38Z</time>
      </trkpt>
      <trkpt lat="42.12975" lon="2.4086">
        <ele>683.8</ele>
        <time>2019-04-12T08:45:40Z</time>
      </trkpt>
      <trkpt lat="42.12974" lon="2.40861">
        <ele>683.6</ele>
        <time>2019-04-12T08:45:40Z</time>
      </trkpt>
      <trkpt lat="42.12971" lon="2.40865">
        <ele>682.6</ele>
        <time>2019-04-12T08:45:42Z</time>
      </trkpt>
      <trkpt lat="42.12969" lon="2.40867">
        <ele>682.3</ele>
        <time>2019-04-12T08:45:43Z</time>
      </trkpt>
      <trkpt lat="42.12968" lon="2.40869">
        <ele>682.2</ele>
        <time>2019-04-12T08:45:44Z</time>
      </trkpt>
      <trkpt lat="42.12966" lon="2.40872">
        <ele>682</ele>
        <time>2019-04-12T08:45:45Z</time>
      </trkpt>
      <trkpt lat="42.12962" lon="2.40875">
        <ele>681.3</ele>
        <time>2019-04-12T08:45:47Z</time>
      </trkpt>
      <trkpt lat="42.1296" lon="2.40876">
        <ele>680.7</ele>
        <time>2019-04-12T08:45:47Z</time>
      </trkpt>
      <trkpt lat="42.12958" lon="2.40879">
        <ele>680.1</ele>
        <time>2019-04-12T08:45:49Z</time>
      </trkpt>
      <trkpt lat="42.12953" lon="2.40882">
        <ele>679.6</ele>
        <time>2019-04-12T08:45:51Z</time>
      </trkpt>
      <trkpt lat="42.12952" lon="2.40882">
        <ele>679.5</ele>
        <time>2019-04-12T08:45:51Z</time>
      </trkpt>
      <trkpt lat="42.12953" lon="2.40887">
        <ele>679.1</ele>
        <time>2019-04-12T08:45:53Z</time>
      </trkpt>
      <trkpt lat="42.12952" lon="2.40889">
        <ele>679.1</ele>
        <time>2019-04-12T08:45:53Z</time>
      </trkpt>
      <trkpt lat="42.12951" lon="2.40889">
        <ele>679.1</ele>
        <time>2019-04-12T08:45:53Z</time>
      </trkpt>
      <trkpt lat="42.1295" lon="2.40889">
        <ele>679.1</ele>
        <time>2019-04-12T08:45:54Z</time>
      </trkpt>
      <trkpt lat="42.1295" lon="2.40888">
        <ele>678.7</ele>
        <time>2019-04-12T08:45:54Z</time>
      </trkpt>
      <trkpt lat="42.12949" lon="2.40888">
        <ele>678.7</ele>
        <time>2019-04-12T08:45:54Z</time>
      </trkpt>
      <trkpt lat="42.12949" lon="2.40889">
        <ele>678.4</ele>
        <time>2019-04-12T08:45:55Z</time>
      </trkpt>
      <trkpt lat="42.12949" lon="2.40889">
        <ele>678.5</ele>
        <time>2019-04-12T08:45:55Z</time>
      </trkpt>
      <trkpt lat="42.12951" lon="2.40891">
        <ele>678.5</ele>
        <time>2019-04-12T08:45:56Z</time>
      </trkpt>
      <trkpt lat="42.1295" lon="2.40894">
        <ele>677.8</ele>
        <time>2019-04-12T08:45:57Z</time>
      </trkpt>
      <trkpt lat="42.1295" lon="2.40897">
        <ele>677.4</ele>
        <time>2019-04-12T08:45:57Z</time>
      </trkpt>
      <trkpt lat="42.12949" lon="2.40899">
        <ele>677.3</ele>
        <time>2019-04-12T08:45:58Z</time>
      </trkpt>
      <trkpt lat="42.12947" lon="2.40905">
        <ele>676.8</ele>
        <time>2019-04-12T08:46:00Z</time>
      </trkpt>
      <trkpt lat="42.12945" lon="2.40908">
        <ele>676.4</ele>
        <time>2019-04-12T08:46:01Z</time>
      </trkpt>
      <trkpt lat="42.12944" lon="2.40909">
        <ele>676.3</ele>
        <time>2019-04-12T08:46:02Z</time>
      </trkpt>
      <trkpt lat="42.12943" lon="2.40911">
        <ele>676.2</ele>
        <time>2019-04-12T08:46:02Z</time>
      </trkpt>
      <trkpt lat="42.12942" lon="2.40913">
        <ele>676.1</ele>
        <time>2019-04-12T08:46:03Z</time>
      </trkpt>
      <trkpt lat="42.12942" lon="2.40917">
        <ele>675.5</ele>
        <time>2019-04-12T08:46:04Z</time>
      </trkpt>
      <trkpt lat="42.12942" lon="2.40922">
        <ele>675.4</ele>
        <time>2019-04-12T08:46:06Z</time>
      </trkpt>
      <trkpt lat="42.12941" lon="2.40928">
        <ele>674.6</ele>
        <time>2019-04-12T08:46:08Z</time>
      </trkpt>
      <trkpt lat="42.12941" lon="2.40929">
        <ele>674.4</ele>
        <time>2019-04-12T08:46:08Z</time>
      </trkpt>
      <trkpt lat="42.12941" lon="2.40931">
        <ele>673.8</ele>
        <time>2019-04-12T08:46:08Z</time>
      </trkpt>
      <trkpt lat="42.12941" lon="2.40932">
        <ele>673.5</ele>
        <time>2019-04-12T08:46:09Z</time>
      </trkpt>
      <trkpt lat="42.12942" lon="2.40936">
        <ele>672.5</ele>
        <time>2019-04-12T08:46:10Z</time>
      </trkpt>
      <trkpt lat="42.12942" lon="2.40937">
        <ele>672.2</ele>
        <time>2019-04-12T08:46:10Z</time>
      </trkpt>
      <trkpt lat="42.12942" lon="2.40938">
        <ele>671.8</ele>
        <time>2019-04-12T08:46:11Z</time>
      </trkpt>
      <trkpt lat="42.12942" lon="2.4094">
        <ele>671.3</ele>
        <time>2019-04-12T08:46:11Z</time>
      </trkpt>
      <trkpt lat="42.12941" lon="2.40941">
        <ele>670.8</ele>
        <time>2019-04-12T08:46:12Z</time>
      </trkpt>
      <trkpt lat="42.12939" lon="2.40944">
        <ele>670.2</ele>
        <time>2019-04-12T08:46:13Z</time>
      </trkpt>
      <trkpt lat="42.12937" lon="2.40946">
        <ele>669.5</ele>
        <time>2019-04-12T08:46:14Z</time>
      </trkpt>
      <trkpt lat="42.12931" lon="2.40949">
        <ele>669</ele>
        <time>2019-04-12T08:46:16Z</time>
      </trkpt>
      <trkpt lat="42.12928" lon="2.40949">
        <ele>668.5</ele>
        <time>2019-04-12T08:46:18Z</time>
      </trkpt>
      <trkpt lat="42.12926" lon="2.40949">
        <ele>668.1</ele>
        <time>2019-04-12T08:46:19Z</time>
      </trkpt>
      <trkpt lat="42.12925" lon="2.40948">
        <ele>667.7</ele>
        <time>2019-04-12T08:46:19Z</time>
      </trkpt>
      <trkpt lat="42.12924" lon="2.40948">
        <ele>667.6</ele>
        <time>2019-04-12T08:46:20Z</time>
      </trkpt>
      <trkpt lat="42.12923" lon="2.40947">
        <ele>667.5</ele>
        <time>2019-04-12T08:46:20Z</time>
      </trkpt>
      <trkpt lat="42.12922" lon="2.40947">
        <ele>667.3</ele>
        <time>2019-04-12T08:46:20Z</time>
      </trkpt>
      <trkpt lat="42.12919" lon="2.40948">
        <ele>667.1</ele>
        <time>2019-04-12T08:46:21Z</time>
      </trkpt>
      <trkpt lat="42.12917" lon="2.40948">
        <ele>666.8</ele>
        <time>2019-04-12T08:46:22Z</time>
      </trkpt>
      <trkpt lat="42.12916" lon="2.40949">
        <ele>666.6</ele>
        <time>2019-04-12T08:46:23Z</time>
      </trkpt>
      <trkpt lat="42.12913" lon="2.40949">
        <ele>666.4</ele>
        <time>2019-04-12T08:46:24Z</time>
      </trkpt>
      <trkpt lat="42.12912" lon="2.4095">
        <ele>666.2</ele>
        <time>2019-04-12T08:46:25Z</time>
      </trkpt>
      <trkpt lat="42.1291" lon="2.4095">
        <ele>666</ele>
        <time>2019-04-12T08:46:25Z</time>
      </trkpt>
      <trkpt lat="42.12908" lon="2.4095">
        <ele>665.8</ele>
        <time>2019-04-12T08:46:26Z</time>
      </trkpt>
      <trkpt lat="42.12907" lon="2.4095">
        <ele>665.6</ele>
        <time>2019-04-12T08:46:26Z</time>
      </trkpt>
      <trkpt lat="42.12906" lon="2.40951">
        <ele>665.4</ele>
        <time>2019-04-12T08:46:27Z</time>
      </trkpt>
      <trkpt lat="42.12904" lon="2.40952">
        <ele>665.3</ele>
        <time>2019-04-12T08:46:28Z</time>
      </trkpt>
      <trkpt lat="42.12903" lon="2.40952">
        <ele>665.1</ele>
        <time>2019-04-12T08:46:28Z</time>
      </trkpt>
      <trkpt lat="42.129" lon="2.40952">
        <ele>664.4</ele>
        <time>2019-04-12T08:46:29Z</time>
      </trkpt>
      <trkpt lat="42.12899" lon="2.40953">
        <ele>664.1</ele>
        <time>2019-04-12T08:46:30Z</time>
      </trkpt>
      <trkpt lat="42.12897" lon="2.40953">
        <ele>663.6</ele>
        <time>2019-04-12T08:46:30Z</time>
      </trkpt>
      <trkpt lat="42.12895" lon="2.40955">
        <ele>663.1</ele>
        <time>2019-04-12T08:46:31Z</time>
      </trkpt>
      <trkpt lat="42.12891" lon="2.40957">
        <ele>662.4</ele>
        <time>2019-04-12T08:46:33Z</time>
      </trkpt>
      <trkpt lat="42.12888" lon="2.4096">
        <ele>662.2</ele>
        <time>2019-04-12T08:46:35Z</time>
      </trkpt>
      <trkpt lat="42.12885" lon="2.40962">
        <ele>661.4</ele>
        <time>2019-04-12T08:46:36Z</time>
      </trkpt>
      <trkpt lat="42.12884" lon="2.40964">
        <ele>661</ele>
        <time>2019-04-12T08:46:37Z</time>
      </trkpt>
      <trkpt lat="42.12883" lon="2.40965">
        <ele>660.5</ele>
        <time>2019-04-12T08:46:37Z</time>
      </trkpt>
      <trkpt lat="42.12878" lon="2.40969">
        <ele>659.5</ele>
        <time>2019-04-12T08:46:39Z</time>
      </trkpt>
      <trkpt lat="42.12877" lon="2.4097">
        <ele>659.4</ele>
        <time>2019-04-12T08:46:40Z</time>
      </trkpt>
      <trkpt lat="42.12872" lon="2.40975">
        <ele>658.6</ele>
        <time>2019-04-12T08:46:43Z</time>
      </trkpt>
      <trkpt lat="42.1287" lon="2.40975">
        <ele>658.2</ele>
        <time>2019-04-12T08:46:43Z</time>
      </trkpt>
      <trkpt lat="42.12869" lon="2.40975">
        <ele>658</ele>
        <time>2019-04-12T08:46:44Z</time>
      </trkpt>
      <trkpt lat="42.12865" lon="2.40977">
        <ele>657.2</ele>
        <time>2019-04-12T08:46:46Z</time>
      </trkpt>
      <trkpt lat="42.12863" lon="2.40978">
        <ele>657</ele>
        <time>2019-04-12T08:46:46Z</time>
      </trkpt>
      <trkpt lat="42.12862" lon="2.40979">
        <ele>657.1</ele>
        <time>2019-04-12T08:46:47Z</time>
      </trkpt>
      <trkpt lat="42.12859" lon="2.40984">
        <ele>656.5</ele>
        <time>2019-04-12T08:46:49Z</time>
      </trkpt>
      <trkpt lat="42.12857" lon="2.40987">
        <ele>656.4</ele>
        <time>2019-04-12T08:46:50Z</time>
      </trkpt>
      <trkpt lat="42.12849" lon="2.40998">
        <ele>655.8</ele>
        <time>2019-04-12T08:46:54Z</time>
      </trkpt>
      <trkpt lat="42.12848" lon="2.40999">
        <ele>655.4</ele>
        <time>2019-04-12T08:46:55Z</time>
      </trkpt>
      <trkpt lat="42.12846" lon="2.41001">
        <ele>655.1</ele>
        <time>2019-04-12T08:46:56Z</time>
      </trkpt>
      <trkpt lat="42.12844" lon="2.41002">
        <ele>654.7</ele>
        <time>2019-04-12T08:46:57Z</time>
      </trkpt>
      <trkpt lat="42.12841" lon="2.41003">
        <ele>654.5</ele>
        <time>2019-04-12T08:46:58Z</time>
      </trkpt>
      <trkpt lat="42.12839" lon="2.41005">
        <ele>654.4</ele>
        <time>2019-04-12T08:46:59Z</time>
      </trkpt>
      <trkpt lat="42.12835" lon="2.41006">
        <ele>654.3</ele>
        <time>2019-04-12T08:47:00Z</time>
      </trkpt>
      <trkpt lat="42.12834" lon="2.41007">
        <ele>654.3</ele>
        <time>2019-04-12T08:47:01Z</time>
      </trkpt>
      <trkpt lat="42.12829" lon="2.41008">
        <ele>654.4</ele>
        <time>2019-04-12T08:47:03Z</time>
      </trkpt>
      <trkpt lat="42.12828" lon="2.41009">
        <ele>654.2</ele>
        <time>2019-04-12T08:47:04Z</time>
      </trkpt>
      <trkpt lat="42.12826" lon="2.4101">
        <ele>654</ele>
        <time>2019-04-12T08:47:04Z</time>
      </trkpt>
      <trkpt lat="42.12824" lon="2.41011">
        <ele>653.7</ele>
        <time>2019-04-12T08:47:05Z</time>
      </trkpt>
      <trkpt lat="42.12821" lon="2.41015">
        <ele>653.4</ele>
        <time>2019-04-12T08:47:07Z</time>
      </trkpt>
      <trkpt lat="42.12818" lon="2.41017">
        <ele>653.5</ele>
        <time>2019-04-12T08:47:08Z</time>
      </trkpt>
      <trkpt lat="42.12817" lon="2.41018">
        <ele>653.8</ele>
        <time>2019-04-12T08:47:09Z</time>
      </trkpt>
      <trkpt lat="42.12809" lon="2.41022">
        <ele>653.4</ele>
        <time>2019-04-12T08:47:12Z</time>
      </trkpt>
      <trkpt lat="42.12808" lon="2.41022">
        <ele>653.5</ele>
        <time>2019-04-12T08:47:13Z</time>
      </trkpt>
      <trkpt lat="42.12805" lon="2.41024">
        <ele>652.8</ele>
        <time>2019-04-12T08:47:14Z</time>
      </trkpt>
      <trkpt lat="42.12803" lon="2.41027">
        <ele>652.7</ele>
        <time>2019-04-12T08:47:15Z</time>
      </trkpt>
      <trkpt lat="42.12802" lon="2.41028">
        <ele>652.6</ele>
        <time>2019-04-12T08:47:15Z</time>
      </trkpt>
      <trkpt lat="42.128" lon="2.41029">
        <ele>652.5</ele>
        <time>2019-04-12T08:47:17Z</time>
      </trkpt>
      <trkpt lat="42.12797" lon="2.41032">
        <ele>652.5</ele>
        <time>2019-04-12T08:47:18Z</time>
      </trkpt>
      <trkpt lat="42.12796" lon="2.41033">
        <ele>652.5</ele>
        <time>2019-04-12T08:47:19Z</time>
      </trkpt>
      <trkpt lat="42.12794" lon="2.41035">
        <ele>653</ele>
        <time>2019-04-12T08:47:20Z</time>
      </trkpt>
      <trkpt lat="42.1279" lon="2.41039">
        <ele>653.2</ele>
        <time>2019-04-12T08:47:21Z</time>
      </trkpt>
      <trkpt lat="42.12788" lon="2.41042">
        <ele>653.5</ele>
        <time>2019-04-12T08:47:23Z</time>
      </trkpt>
      <trkpt lat="42.12786" lon="2.41044">
        <ele>653.1</ele>
        <time>2019-04-12T08:47:24Z</time>
      </trkpt>
      <trkpt lat="42.12781" lon="2.41047">
        <ele>652.3</ele>
        <time>2019-04-12T08:47:26Z</time>
      </trkpt>
      <trkpt lat="42.12779" lon="2.41047">
        <ele>651.5</ele>
        <time>2019-04-12T08:47:26Z</time>
      </trkpt>
      <trkpt lat="42.12778" lon="2.41048">
        <ele>651</ele>
        <time>2019-04-12T08:47:27Z</time>
      </trkpt>
      <trkpt lat="42.12777" lon="2.41049">
        <ele>650.6</ele>
        <time>2019-04-12T08:47:28Z</time>
      </trkpt>
      <trkpt lat="42.12773" lon="2.41051">
        <ele>650.1</ele>
        <time>2019-04-12T08:47:29Z</time>
      </trkpt>
      <trkpt lat="42.12772" lon="2.41053">
        <ele>649.8</ele>
        <time>2019-04-12T08:47:30Z</time>
      </trkpt>
      <trkpt lat="42.12771" lon="2.41054">
        <ele>649.8</ele>
        <time>2019-04-12T08:47:30Z</time>
      </trkpt>
      <trkpt lat="42.12769" lon="2.41056">
        <ele>649.5</ele>
        <time>2019-04-12T08:47:31Z</time>
      </trkpt>
      <trkpt lat="42.12768" lon="2.41063">
        <ele>649.7</ele>
        <time>2019-04-12T08:47:33Z</time>
      </trkpt>
      <trkpt lat="42.12767" lon="2.41064">
        <ele>650.2</ele>
        <time>2019-04-12T08:47:34Z</time>
      </trkpt>
      <trkpt lat="42.12766" lon="2.41065">
        <ele>650.3</ele>
        <time>2019-04-12T08:47:34Z</time>
      </trkpt>
      <trkpt lat="42.12763" lon="2.41069">
        <ele>650</ele>
        <time>2019-04-12T08:47:36Z</time>
      </trkpt>
      <trkpt lat="42.12756" lon="2.41073">
        <ele>649.1</ele>
        <time>2019-04-12T08:47:39Z</time>
      </trkpt>
      <trkpt lat="42.12755" lon="2.41074">
        <ele>648.8</ele>
        <time>2019-04-12T08:47:40Z</time>
      </trkpt>
      <trkpt lat="42.12754" lon="2.41075">
        <ele>648.6</ele>
        <time>2019-04-12T08:47:40Z</time>
      </trkpt>
      <trkpt lat="42.1275" lon="2.4108">
        <ele>647.6</ele>
        <time>2019-04-12T08:47:43Z</time>
      </trkpt>
      <trkpt lat="42.12749" lon="2.41081">
        <ele>647.4</ele>
        <time>2019-04-12T08:47:43Z</time>
      </trkpt>
      <trkpt lat="42.12748" lon="2.41083">
        <ele>647.3</ele>
        <time>2019-04-12T08:47:44Z</time>
      </trkpt>
      <trkpt lat="42.12746" lon="2.41084">
        <ele>647.3</ele>
        <time>2019-04-12T08:47:44Z</time>
      </trkpt>
      <trkpt lat="42.12743" lon="2.41086">
        <ele>646.7</ele>
        <time>2019-04-12T08:47:46Z</time>
      </trkpt>
      <trkpt lat="42.12742" lon="2.41087">
        <ele>646.4</ele>
        <time>2019-04-12T08:47:46Z</time>
      </trkpt>
      <trkpt lat="42.12741" lon="2.41088">
        <ele>645.7</ele>
        <time>2019-04-12T08:47:47Z</time>
      </trkpt>
      <trkpt lat="42.1274" lon="2.41089">
        <ele>645.3</ele>
        <time>2019-04-12T08:47:47Z</time>
      </trkpt>
      <trkpt lat="42.12739" lon="2.4109">
        <ele>644.5</ele>
        <time>2019-04-12T08:47:48Z</time>
      </trkpt>
      <trkpt lat="42.12737" lon="2.41092">
        <ele>643.7</ele>
        <time>2019-04-12T08:47:49Z</time>
      </trkpt>
      <trkpt lat="42.12736" lon="2.41094">
        <ele>643.5</ele>
        <time>2019-04-12T08:47:49Z</time>
      </trkpt>
      <trkpt lat="42.12734" lon="2.41097">
        <ele>643</ele>
        <time>2019-04-12T08:47:50Z</time>
      </trkpt>
      <trkpt lat="42.12734" lon="2.41098">
        <ele>643.1</ele>
        <time>2019-04-12T08:47:51Z</time>
      </trkpt>
      <trkpt lat="42.12734" lon="2.41102">
        <ele>643</ele>
        <time>2019-04-12T08:47:52Z</time>
      </trkpt>
      <trkpt lat="42.12733" lon="2.41102">
        <ele>642.8</ele>
        <time>2019-04-12T08:47:52Z</time>
      </trkpt>
      <trkpt lat="42.12733" lon="2.41101">
        <ele>642.7</ele>
        <time>2019-04-12T08:47:52Z</time>
      </trkpt>
      <trkpt lat="42.12733" lon="2.41101">
        <ele>642.5</ele>
        <time>2019-04-12T08:47:52Z</time>
      </trkpt>
      <trkpt lat="42.12735" lon="2.41102">
        <ele>642</ele>
        <time>2019-04-12T08:47:53Z</time>
      </trkpt>
      <trkpt lat="42.12735" lon="2.41102">
        <ele>641.4</ele>
        <time>2019-04-12T08:47:53Z</time>
      </trkpt>
      <trkpt lat="42.12737" lon="2.41103">
        <ele>640.4</ele>
        <time>2019-04-12T08:47:54Z</time>
      </trkpt>
      <trkpt lat="42.12738" lon="2.41103">
        <ele>640.2</ele>
        <time>2019-04-12T08:47:55Z</time>
      </trkpt>
      <trkpt lat="42.12739" lon="2.41103">
        <ele>639.5</ele>
        <time>2019-04-12T08:47:55Z</time>
      </trkpt>
      <trkpt lat="42.12741" lon="2.41104">
        <ele>639.3</ele>
        <time>2019-04-12T08:47:56Z</time>
      </trkpt>
      <trkpt lat="42.12743" lon="2.41106">
        <ele>638.3</ele>
        <time>2019-04-12T08:47:57Z</time>
      </trkpt>
      <trkpt lat="42.12745" lon="2.41107">
        <ele>637.3</ele>
        <time>2019-04-12T08:47:58Z</time>
      </trkpt>
      <trkpt lat="42.12746" lon="2.41108">
        <ele>637</ele>
        <time>2019-04-12T08:47:58Z</time>
      </trkpt>
      <trkpt lat="42.12751" lon="2.41108">
        <ele>636.5</ele>
        <time>2019-04-12T08:48:00Z</time>
      </trkpt>
      <trkpt lat="42.12753" lon="2.41105">
        <ele>636.1</ele>
        <time>2019-04-12T08:48:01Z</time>
      </trkpt>
      <trkpt lat="42.12756" lon="2.41103">
        <ele>635.5</ele>
        <time>2019-04-12T08:48:03Z</time>
      </trkpt>
      <trkpt lat="42.1276" lon="2.41096">
        <ele>635</ele>
        <time>2019-04-12T08:48:05Z</time>
      </trkpt>
      <trkpt lat="42.12762" lon="2.41093">
        <ele>634.7</ele>
        <time>2019-04-12T08:48:06Z</time>
      </trkpt>
      <trkpt lat="42.12766" lon="2.41089">
        <ele>634.5</ele>
        <time>2019-04-12T08:48:08Z</time>
      </trkpt>
      <trkpt lat="42.1277" lon="2.41087">
        <ele>634.4</ele>
        <time>2019-04-12T08:48:10Z</time>
      </trkpt>
      <trkpt lat="42.12774" lon="2.41087">
        <ele>634.1</ele>
        <time>2019-04-12T08:48:12Z</time>
      </trkpt>
      <trkpt lat="42.12775" lon="2.41087">
        <ele>634.1</ele>
        <time>2019-04-12T08:48:12Z</time>
      </trkpt>
      <trkpt lat="42.12779" lon="2.41087">
        <ele>634.1</ele>
        <time>2019-04-12T08:48:14Z</time>
      </trkpt>
      <trkpt lat="42.12782" lon="2.41086">
        <ele>634.3</ele>
        <time>2019-04-12T08:48:15Z</time>
      </trkpt>
      <trkpt lat="42.12783" lon="2.41085">
        <ele>634.3</ele>
        <time>2019-04-12T08:48:15Z</time>
      </trkpt>
      <trkpt lat="42.12791" lon="2.41083">
        <ele>633.5</ele>
        <time>2019-04-12T08:48:19Z</time>
      </trkpt>
      <trkpt lat="42.12793" lon="2.41082">
        <ele>633.3</ele>
        <time>2019-04-12T08:48:19Z</time>
      </trkpt>
      <trkpt lat="42.12799" lon="2.41077">
        <ele>632.5</ele>
        <time>2019-04-12T08:48:22Z</time>
      </trkpt>
      <trkpt lat="42.12802" lon="2.41074">
        <ele>632.4</ele>
        <time>2019-04-12T08:48:24Z</time>
      </trkpt>
      <trkpt lat="42.12804" lon="2.41073">
        <ele>632.4</ele>
        <time>2019-04-12T08:48:24Z</time>
      </trkpt>
      <trkpt lat="42.12811" lon="2.41068">
        <ele>631.4</ele>
        <time>2019-04-12T08:48:28Z</time>
      </trkpt>
      <trkpt lat="42.12812" lon="2.41067">
        <ele>631.2</ele>
        <time>2019-04-12T08:48:28Z</time>
      </trkpt>
      <trkpt lat="42.12818" lon="2.41064">
        <ele>631.1</ele>
        <time>2019-04-12T08:48:31Z</time>
      </trkpt>
      <trkpt lat="42.12819" lon="2.41063">
        <ele>630.8</ele>
        <time>2019-04-12T08:48:31Z</time>
      </trkpt>
      <trkpt lat="42.12825" lon="2.41062">
        <ele>630.6</ele>
        <time>2019-04-12T08:48:34Z</time>
      </trkpt>
      <trkpt lat="42.12827" lon="2.41062">
        <ele>630.4</ele>
        <time>2019-04-12T08:48:34Z</time>
      </trkpt>
      <trkpt lat="42.12828" lon="2.41062">
        <ele>630.2</ele>
        <time>2019-04-12T08:48:35Z</time>
      </trkpt>
      <trkpt lat="42.12833" lon="2.41061">
        <ele>629.6</ele>
        <time>2019-04-12T08:48:37Z</time>
      </trkpt>
      <trkpt lat="42.12836" lon="2.41061">
        <ele>629.6</ele>
        <time>2019-04-12T08:48:38Z</time>
      </trkpt>
      <trkpt lat="42.12839" lon="2.41058">
        <ele>629</ele>
        <time>2019-04-12T08:48:39Z</time>
      </trkpt>
      <trkpt lat="42.12842" lon="2.41054">
        <ele>628.4</ele>
        <time>2019-04-12T08:48:41Z</time>
      </trkpt>
      <trkpt lat="42.12844" lon="2.41052">
        <ele>627.8</ele>
        <time>2019-04-12T08:48:42Z</time>
      </trkpt>
      <trkpt lat="42.12844" lon="2.41051">
        <ele>627.5</ele>
        <time>2019-04-12T08:48:42Z</time>
      </trkpt>
      <trkpt lat="42.12846" lon="2.4105">
        <ele>626.8</ele>
        <time>2019-04-12T08:48:43Z</time>
      </trkpt>
      <trkpt lat="42.12847" lon="2.41048">
        <ele>626.1</ele>
        <time>2019-04-12T08:48:44Z</time>
      </trkpt>
      <trkpt lat="42.12849" lon="2.41046">
        <ele>625.7</ele>
        <time>2019-04-12T08:48:45Z</time>
      </trkpt>
      <trkpt lat="42.1285" lon="2.41045">
        <ele>625.6</ele>
        <time>2019-04-12T08:48:45Z</time>
      </trkpt>
      <trkpt lat="42.12851" lon="2.41045">
        <ele>625.5</ele>
        <time>2019-04-12T08:48:46Z</time>
      </trkpt>
      <trkpt lat="42.12852" lon="2.41045">
        <ele>625</ele>
        <time>2019-04-12T08:48:46Z</time>
      </trkpt>
      <trkpt lat="42.12854" lon="2.41044">
        <ele>624.5</ele>
        <time>2019-04-12T08:48:47Z</time>
      </trkpt>
      <trkpt lat="42.12857" lon="2.41043">
        <ele>624.3</ele>
        <time>2019-04-12T08:48:48Z</time>
      </trkpt>
      <trkpt lat="42.12859" lon="2.41043">
        <ele>623.7</ele>
        <time>2019-04-12T08:48:49Z</time>
      </trkpt>
      <trkpt lat="42.12863" lon="2.41044">
        <ele>623.7</ele>
        <time>2019-04-12T08:48:51Z</time>
      </trkpt>
      <trkpt lat="42.12867" lon="2.41049">
        <ele>623.5</ele>
        <time>2019-04-12T08:48:53Z</time>
      </trkpt>
      <trkpt lat="42.12868" lon="2.4105">
        <ele>623</ele>
        <time>2019-04-12T08:48:53Z</time>
      </trkpt>
      <trkpt lat="42.12868" lon="2.41052">
        <ele>622.8</ele>
        <time>2019-04-12T08:48:54Z</time>
      </trkpt>
      <trkpt lat="42.12868" lon="2.41054">
        <ele>622.2</ele>
        <time>2019-04-12T08:48:55Z</time>
      </trkpt>
      <trkpt lat="42.12867" lon="2.41058">
        <ele>621.1</ele>
        <time>2019-04-12T08:48:56Z</time>
      </trkpt>
      <trkpt lat="42.12865" lon="2.41062">
        <ele>620.5</ele>
        <time>2019-04-12T08:48:57Z</time>
      </trkpt>
      <trkpt lat="42.12864" lon="2.41062">
        <ele>620.1</ele>
        <time>2019-04-12T08:48:58Z</time>
      </trkpt>
      <trkpt lat="42.12861" lon="2.41066">
        <ele>619.5</ele>
        <time>2019-04-12T08:48:59Z</time>
      </trkpt>
      <trkpt lat="42.12857" lon="2.41071">
        <ele>619</ele>
        <time>2019-04-12T08:49:01Z</time>
      </trkpt>
      <trkpt lat="42.12856" lon="2.41072">
        <ele>618.8</ele>
        <time>2019-04-12T08:49:02Z</time>
      </trkpt>
      <trkpt lat="42.12855" lon="2.41072">
        <ele>618.7</ele>
        <time>2019-04-12T08:49:02Z</time>
      </trkpt>
      <trkpt lat="42.12854" lon="2.41074">
        <ele>618.5</ele>
        <time>2019-04-12T08:49:03Z</time>
      </trkpt>
      <trkpt lat="42.12851" lon="2.41078">
        <ele>618.4</ele>
        <time>2019-04-12T08:49:05Z</time>
      </trkpt>
      <trkpt lat="42.12849" lon="2.41081">
        <ele>618.5</ele>
        <time>2019-04-12T08:49:06Z</time>
      </trkpt>
      <trkpt lat="42.12848" lon="2.41086">
        <ele>618</ele>
        <time>2019-04-12T08:49:07Z</time>
      </trkpt>
      <trkpt lat="42.12848" lon="2.41088">
        <ele>617.8</ele>
        <time>2019-04-12T08:49:08Z</time>
      </trkpt>
      <trkpt lat="42.12848" lon="2.41094">
        <ele>617.5</ele>
        <time>2019-04-12T08:49:10Z</time>
      </trkpt>
      <trkpt lat="42.12846" lon="2.41099">
        <ele>617.6</ele>
        <time>2019-04-12T08:49:11Z</time>
      </trkpt>
      <trkpt lat="42.12846" lon="2.411">
        <ele>617.5</ele>
        <time>2019-04-12T08:49:12Z</time>
      </trkpt>
      <trkpt lat="42.12844" lon="2.41101">
        <ele>616.7</ele>
        <time>2019-04-12T08:49:13Z</time>
      </trkpt>
      <trkpt lat="42.12844" lon="2.41102">
        <ele>616.7</ele>
        <time>2019-04-12T08:49:13Z</time>
      </trkpt>
      <trkpt lat="42.12843" lon="2.41103">
        <ele>616.7</ele>
        <time>2019-04-12T08:49:13Z</time>
      </trkpt>
      <trkpt lat="42.12842" lon="2.41104">
        <ele>616.7</ele>
        <time>2019-04-12T08:49:14Z</time>
      </trkpt>
      <trkpt lat="42.1284" lon="2.41106">
        <ele>616.5</ele>
        <time>2019-04-12T08:49:15Z</time>
      </trkpt>
      <trkpt lat="42.12839" lon="2.41106">
        <ele>616.4</ele>
        <time>2019-04-12T08:49:15Z</time>
      </trkpt>
      <trkpt lat="42.12838" lon="2.41108">
        <ele>616.5</ele>
        <time>2019-04-12T08:49:16Z</time>
      </trkpt>
      <trkpt lat="42.12836" lon="2.41109">
        <ele>616.4</ele>
        <time>2019-04-12T08:49:16Z</time>
      </trkpt>
      <trkpt lat="42.12836" lon="2.41109">
        <ele>616.5</ele>
        <time>2019-04-12T08:49:17Z</time>
      </trkpt>
      <trkpt lat="42.12833" lon="2.41111">
        <ele>616.2</ele>
        <time>2019-04-12T08:49:18Z</time>
      </trkpt>
      <trkpt lat="42.12826" lon="2.41121">
        <ele>615.8</ele>
        <time>2019-04-12T08:49:22Z</time>
      </trkpt>
      <trkpt lat="42.12824" lon="2.41122">
        <ele>616.1</ele>
        <time>2019-04-12T08:49:23Z</time>
      </trkpt>
      <trkpt lat="42.12823" lon="2.41123">
        <ele>616.2</ele>
        <time>2019-04-12T08:49:23Z</time>
      </trkpt>
      <trkpt lat="42.12821" lon="2.41125">
        <ele>616.5</ele>
        <time>2019-04-12T08:49:25Z</time>
      </trkpt>
      <trkpt lat="42.12819" lon="2.41128">
        <ele>616.6</ele>
        <time>2019-04-12T08:49:25Z</time>
      </trkpt>
      <trkpt lat="42.12817" lon="2.41132">
        <ele>616.5</ele>
        <time>2019-04-12T08:49:27Z</time>
      </trkpt>
      <trkpt lat="42.12815" lon="2.41134">
        <ele>616.4</ele>
        <time>2019-04-12T08:49:28Z</time>
      </trkpt>
      <trkpt lat="42.12814" lon="2.41134">
        <ele>616.5</ele>
        <time>2019-04-12T08:49:28Z</time>
      </trkpt>
      <trkpt lat="42.12814" lon="2.41135">
        <ele>616.4</ele>
        <time>2019-04-12T08:49:29Z</time>
      </trkpt>
      <trkpt lat="42.12813" lon="2.41139">
        <ele>616.3</ele>
        <time>2019-04-12T08:49:30Z</time>
      </trkpt>
      <trkpt lat="42.12811" lon="2.41144">
        <ele>616</ele>
        <time>2019-04-12T08:49:31Z</time>
      </trkpt>
      <trkpt lat="42.1281" lon="2.41146">
        <ele>615.5</ele>
        <time>2019-04-12T08:49:32Z</time>
      </trkpt>
      <trkpt lat="42.12809" lon="2.41148">
        <ele>615.4</ele>
        <time>2019-04-12T08:49:33Z</time>
      </trkpt>
      <trkpt lat="42.12807" lon="2.41153">
        <ele>615</ele>
        <time>2019-04-12T08:49:34Z</time>
      </trkpt>
      <trkpt lat="42.12806" lon="2.41157">
        <ele>614.5</ele>
        <time>2019-04-12T08:49:36Z</time>
      </trkpt>
      <trkpt lat="42.12805" lon="2.41158">
        <ele>614.4</ele>
        <time>2019-04-12T08:49:36Z</time>
      </trkpt>
      <trkpt lat="42.12804" lon="2.4116">
        <ele>614.3</ele>
        <time>2019-04-12T08:49:37Z</time>
      </trkpt>
      <trkpt lat="42.12798" lon="2.41171">
        <ele>613.5</ele>
        <time>2019-04-12T08:49:41Z</time>
      </trkpt>
      <trkpt lat="42.12797" lon="2.41174">
        <ele>613.2</ele>
        <time>2019-04-12T08:49:42Z</time>
      </trkpt>
      <trkpt lat="42.12797" lon="2.41176">
        <ele>612.8</ele>
        <time>2019-04-12T08:49:43Z</time>
      </trkpt>
      <trkpt lat="42.12794" lon="2.41182">
        <ele>612.2</ele>
        <time>2019-04-12T08:49:45Z</time>
      </trkpt>
      <trkpt lat="42.12793" lon="2.41184">
        <ele>612.3</ele>
        <time>2019-04-12T08:49:45Z</time>
      </trkpt>
      <trkpt lat="42.1279" lon="2.4119">
        <ele>611.7</ele>
        <time>2019-04-12T08:49:48Z</time>
      </trkpt>
      <trkpt lat="42.12788" lon="2.41193">
        <ele>611.1</ele>
        <time>2019-04-12T08:49:49Z</time>
      </trkpt>
      <trkpt lat="42.12787" lon="2.41199">
        <ele>610.1</ele>
        <time>2019-04-12T08:49:51Z</time>
      </trkpt>
      <trkpt lat="42.12786" lon="2.41204">
        <ele>609.6</ele>
        <time>2019-04-12T08:49:52Z</time>
      </trkpt>
      <trkpt lat="42.12786" lon="2.41207">
        <ele>609.6</ele>
        <time>2019-04-12T08:49:53Z</time>
      </trkpt>
      <trkpt lat="42.12785" lon="2.41213">
        <ele>609.1</ele>
        <time>2019-04-12T08:49:55Z</time>
      </trkpt>
      <trkpt lat="42.12783" lon="2.41219">
        <ele>608.2</ele>
        <time>2019-04-12T08:49:57Z</time>
      </trkpt>
      <trkpt lat="42.12782" lon="2.41221">
        <ele>607.5</ele>
        <time>2019-04-12T08:49:58Z</time>
      </trkpt>
      <trkpt lat="42.1278" lon="2.41224">
        <ele>606.4</ele>
        <time>2019-04-12T08:49:59Z</time>
      </trkpt>
      <trkpt lat="42.12777" lon="2.41231">
        <ele>605.6</ele>
        <time>2019-04-12T08:50:01Z</time>
      </trkpt>
      <trkpt lat="42.12775" lon="2.41233">
        <ele>605.2</ele>
        <time>2019-04-12T08:50:02Z</time>
      </trkpt>
      <trkpt lat="42.12775" lon="2.41234">
        <ele>605.1</ele>
        <time>2019-04-12T08:50:02Z</time>
      </trkpt>
      <trkpt lat="42.12774" lon="2.41237">
        <ele>604.3</ele>
        <time>2019-04-12T08:50:03Z</time>
      </trkpt>
      <trkpt lat="42.12772" lon="2.41239">
        <ele>603.2</ele>
        <time>2019-04-12T08:50:04Z</time>
      </trkpt>
      <trkpt lat="42.1277" lon="2.41241">
        <ele>602.7</ele>
        <time>2019-04-12T08:50:05Z</time>
      </trkpt>
      <trkpt lat="42.12768" lon="2.41244">
        <ele>602.6</ele>
        <time>2019-04-12T08:50:07Z</time>
      </trkpt>
      <trkpt lat="42.12764" lon="2.41247">
        <ele>602.2</ele>
        <time>2019-04-12T08:50:08Z</time>
      </trkpt>
      <trkpt lat="42.12763" lon="2.41248">
        <ele>602.1</ele>
        <time>2019-04-12T08:50:09Z</time>
      </trkpt>
      <trkpt lat="42.12762" lon="2.4125">
        <ele>601.5</ele>
        <time>2019-04-12T08:50:10Z</time>
      </trkpt>
      <trkpt lat="42.12758" lon="2.41254">
        <ele>600.7</ele>
        <time>2019-04-12T08:50:12Z</time>
      </trkpt>
      <trkpt lat="42.12754" lon="2.41257">
        <ele>599.5</ele>
        <time>2019-04-12T08:50:13Z</time>
      </trkpt>
      <trkpt lat="42.12753" lon="2.41258">
        <ele>599.2</ele>
        <time>2019-04-12T08:50:14Z</time>
      </trkpt>
      <trkpt lat="42.1275" lon="2.4126">
        <ele>598.4</ele>
        <time>2019-04-12T08:50:15Z</time>
      </trkpt>
      <trkpt lat="42.12746" lon="2.41264">
        <ele>598.1</ele>
        <time>2019-04-12T08:50:17Z</time>
      </trkpt>
      <trkpt lat="42.1274" lon="2.41266">
        <ele>597.5</ele>
        <time>2019-04-12T08:50:20Z</time>
      </trkpt>
      <trkpt lat="42.12739" lon="2.41266">
        <ele>597.4</ele>
        <time>2019-04-12T08:50:20Z</time>
      </trkpt>
      <trkpt lat="42.12734" lon="2.41267">
        <ele>597.2</ele>
        <time>2019-04-12T08:50:22Z</time>
      </trkpt>
      <trkpt lat="42.12725" lon="2.41266">
        <ele>596.5</ele>
        <time>2019-04-12T08:50:26Z</time>
      </trkpt>
      <trkpt lat="42.12724" lon="2.41266">
        <ele>596.5</ele>
        <time>2019-04-12T08:50:26Z</time>
      </trkpt>
      <trkpt lat="42.12721" lon="2.41266">
        <ele>596.5</ele>
        <time>2019-04-12T08:50:27Z</time>
      </trkpt>
      <trkpt lat="42.12715" lon="2.41266">
        <ele>597.1</ele>
        <time>2019-04-12T08:50:30Z</time>
      </trkpt>
      <trkpt lat="42.12713" lon="2.41267">
        <ele>597</ele>
        <time>2019-04-12T08:50:30Z</time>
      </trkpt>
      <trkpt lat="42.12712" lon="2.41267">
        <ele>597.2</ele>
        <time>2019-04-12T08:50:31Z</time>
      </trkpt>
      <trkpt lat="42.1271" lon="2.41267">
        <ele>597.4</ele>
        <time>2019-04-12T08:50:32Z</time>
      </trkpt>
      <trkpt lat="42.12709" lon="2.41268">
        <ele>597.6</ele>
        <time>2019-04-12T08:50:32Z</time>
      </trkpt>
      <trkpt lat="42.12706" lon="2.41266">
        <ele>597.5</ele>
        <time>2019-04-12T08:50:33Z</time>
      </trkpt>
      <trkpt lat="42.12701" lon="2.41264">
        <ele>597</ele>
        <time>2019-04-12T08:50:36Z</time>
      </trkpt>
      <trkpt lat="42.12695" lon="2.41265">
        <ele>596.5</ele>
        <time>2019-04-12T08:50:38Z</time>
      </trkpt>
      <trkpt lat="42.1269" lon="2.41267">
        <ele>595.5</ele>
        <time>2019-04-12T08:50:40Z</time>
      </trkpt>
      <trkpt lat="42.12686" lon="2.41273">
        <ele>594.5</ele>
        <time>2019-04-12T08:50:43Z</time>
      </trkpt>
      <trkpt lat="42.12684" lon="2.41275">
        <ele>594.1</ele>
        <time>2019-04-12T08:50:43Z</time>
      </trkpt>
      <trkpt lat="42.12681" lon="2.41276">
        <ele>594.1</ele>
        <time>2019-04-12T08:50:45Z</time>
      </trkpt>
      <trkpt lat="42.12679" lon="2.41278">
        <ele>593.5</ele>
        <time>2019-04-12T08:50:46Z</time>
      </trkpt>
      <trkpt lat="42.12677" lon="2.41279">
        <ele>593.2</ele>
        <time>2019-04-12T08:50:46Z</time>
      </trkpt>
      <trkpt lat="42.12675" lon="2.4128">
        <ele>592.7</ele>
        <time>2019-04-12T08:50:47Z</time>
      </trkpt>
      <trkpt lat="42.12671" lon="2.4128">
        <ele>591.7</ele>
        <time>2019-04-12T08:50:49Z</time>
      </trkpt>
      <trkpt lat="42.12669" lon="2.4128">
        <ele>591.5</ele>
        <time>2019-04-12T08:50:50Z</time>
      </trkpt>
      <trkpt lat="42.12664" lon="2.41282">
        <ele>591.1</ele>
        <time>2019-04-12T08:50:52Z</time>
      </trkpt>
      <trkpt lat="42.12662" lon="2.41282">
        <ele>590.7</ele>
        <time>2019-04-12T08:50:53Z</time>
      </trkpt>
      <trkpt lat="42.12661" lon="2.41282">
        <ele>590.8</ele>
        <time>2019-04-12T08:50:53Z</time>
      </trkpt>
      <trkpt lat="42.12659" lon="2.41284">
        <ele>590.8</ele>
        <time>2019-04-12T08:50:54Z</time>
      </trkpt>
      <trkpt lat="42.12658" lon="2.41284">
        <ele>590.7</ele>
        <time>2019-04-12T08:50:54Z</time>
      </trkpt>
      <trkpt lat="42.12658" lon="2.41289">
        <ele>590.8</ele>
        <time>2019-04-12T08:50:56Z</time>
      </trkpt>
      <trkpt lat="42.12658" lon="2.41289">
        <ele>590.5</ele>
        <time>2019-04-12T08:50:56Z</time>
      </trkpt>
      <trkpt lat="42.12657" lon="2.41291">
        <ele>589.5</ele>
        <time>2019-04-12T08:50:56Z</time>
      </trkpt>
      <trkpt lat="42.12656" lon="2.41296">
        <ele>588.2</ele>
        <time>2019-04-12T08:50:58Z</time>
      </trkpt>
      <trkpt lat="42.12656" lon="2.41297">
        <ele>587.5</ele>
        <time>2019-04-12T08:50:58Z</time>
      </trkpt>
      <trkpt lat="42.12655" lon="2.41298">
        <ele>587.5</ele>
        <time>2019-04-12T08:50:59Z</time>
      </trkpt>
      <trkpt lat="42.12655" lon="2.41298">
        <ele>587.2</ele>
        <time>2019-04-12T08:50:59Z</time>
      </trkpt>
      <trkpt lat="42.12655" lon="2.41298">
        <ele>586.7</ele>
        <time>2019-04-12T08:50:59Z</time>
      </trkpt>
      <trkpt lat="42.12655" lon="2.41299">
        <ele>586.5</ele>
        <time>2019-04-12T08:50:59Z</time>
      </trkpt>
      <trkpt lat="42.12654" lon="2.41301">
        <ele>586</ele>
        <time>2019-04-12T08:51:00Z</time>
      </trkpt>
      <trkpt lat="42.12653" lon="2.41302">
        <ele>585.5</ele>
        <time>2019-04-12T08:51:00Z</time>
      </trkpt>
      <trkpt lat="42.12653" lon="2.41304">
        <ele>585.5</ele>
        <time>2019-04-12T08:51:01Z</time>
      </trkpt>
      <trkpt lat="42.12653" lon="2.41306">
        <ele>584.8</ele>
        <time>2019-04-12T08:51:01Z</time>
      </trkpt>
      <trkpt lat="42.12653" lon="2.41309">
        <ele>584</ele>
        <time>2019-04-12T08:51:02Z</time>
      </trkpt>
      <trkpt lat="42.12653" lon="2.4131">
        <ele>583.4</ele>
        <time>2019-04-12T08:51:03Z</time>
      </trkpt>
      <trkpt lat="42.12654" lon="2.41312">
        <ele>582.4</ele>
        <time>2019-04-12T08:51:03Z</time>
      </trkpt>
      <trkpt lat="42.12654" lon="2.41313">
        <ele>582</ele>
        <time>2019-04-12T08:51:04Z</time>
      </trkpt>
      <trkpt lat="42.12655" lon="2.41318">
        <ele>580.8</ele>
        <time>2019-04-12T08:51:05Z</time>
      </trkpt>
      <trkpt lat="42.12655" lon="2.41319">
        <ele>580.7</ele>
        <time>2019-04-12T08:51:05Z</time>
      </trkpt>
      <trkpt lat="42.12654" lon="2.41322">
        <ele>580.4</ele>
        <time>2019-04-12T08:51:06Z</time>
      </trkpt>
      <trkpt lat="42.12652" lon="2.41324">
        <ele>580.2</ele>
        <time>2019-04-12T08:51:07Z</time>
      </trkpt>
      <trkpt lat="42.12649" lon="2.41328">
        <ele>579.8</ele>
        <time>2019-04-12T08:51:09Z</time>
      </trkpt>
      <trkpt lat="42.12648" lon="2.41331">
        <ele>579.5</ele>
        <time>2019-04-12T08:51:10Z</time>
      </trkpt>
      <trkpt lat="42.12645" lon="2.41334">
        <ele>578.6</ele>
        <time>2019-04-12T08:51:11Z</time>
      </trkpt>
      <trkpt lat="42.12644" lon="2.41336">
        <ele>578.4</ele>
        <time>2019-04-12T08:51:12Z</time>
      </trkpt>
      <trkpt lat="42.12643" lon="2.41338">
        <ele>578.6</ele>
        <time>2019-04-12T08:51:13Z</time>
      </trkpt>
      <trkpt lat="42.12638" lon="2.41344">
        <ele>577.5</ele>
        <time>2019-04-12T08:51:15Z</time>
      </trkpt>
      <trkpt lat="42.12637" lon="2.41345">
        <ele>577.4</ele>
        <time>2019-04-12T08:51:16Z</time>
      </trkpt>
      <trkpt lat="42.12635" lon="2.41352">
        <ele>576.4</ele>
        <time>2019-04-12T08:51:18Z</time>
      </trkpt>
      <trkpt lat="42.12631" lon="2.41359">
        <ele>575.4</ele>
        <time>2019-04-12T08:51:21Z</time>
      </trkpt>
      <trkpt lat="42.12629" lon="2.4136">
        <ele>574.5</ele>
        <time>2019-04-12T08:51:21Z</time>
      </trkpt>
      <trkpt lat="42.12626" lon="2.41362">
        <ele>573</ele>
        <time>2019-04-12T08:51:23Z</time>
      </trkpt>
      <trkpt lat="42.12623" lon="2.41366">
        <ele>571.7</ele>
        <time>2019-04-12T08:51:24Z</time>
      </trkpt>
      <trkpt lat="42.12622" lon="2.41368">
        <ele>571.6</ele>
        <time>2019-04-12T08:51:25Z</time>
      </trkpt>
      <trkpt lat="42.12621" lon="2.41374">
        <ele>570.4</ele>
        <time>2019-04-12T08:51:27Z</time>
      </trkpt>
      <trkpt lat="42.1262" lon="2.41377">
        <ele>569.8</ele>
        <time>2019-04-12T08:51:28Z</time>
      </trkpt>
      <trkpt lat="42.12619" lon="2.41379">
        <ele>569.4</ele>
        <time>2019-04-12T08:51:29Z</time>
      </trkpt>
      <trkpt lat="42.12618" lon="2.4138">
        <ele>569.5</ele>
        <time>2019-04-12T08:51:29Z</time>
      </trkpt>
      <trkpt lat="42.12616" lon="2.41383">
        <ele>569.5</ele>
        <time>2019-04-12T08:51:30Z</time>
      </trkpt>
      <trkpt lat="42.12616" lon="2.41383">
        <ele>569.2</ele>
        <time>2019-04-12T08:51:31Z</time>
      </trkpt>
      <trkpt lat="42.12612" lon="2.41387">
        <ele>568.2</ele>
        <time>2019-04-12T08:51:32Z</time>
      </trkpt>
      <trkpt lat="42.12611" lon="2.4139">
        <ele>567.8</ele>
        <time>2019-04-12T08:51:33Z</time>
      </trkpt>
      <trkpt lat="42.12609" lon="2.41394">
        <ele>567.5</ele>
        <time>2019-04-12T08:51:35Z</time>
      </trkpt>
      <trkpt lat="42.12608" lon="2.41397">
        <ele>567.3</ele>
        <time>2019-04-12T08:51:36Z</time>
      </trkpt>
      <trkpt lat="42.12607" lon="2.41401">
        <ele>566.7</ele>
        <time>2019-04-12T08:51:37Z</time>
      </trkpt>
      <trkpt lat="42.12607" lon="2.41403">
        <ele>566.6</ele>
        <time>2019-04-12T08:51:37Z</time>
      </trkpt>
      <trkpt lat="42.12606" lon="2.41404">
        <ele>566.3</ele>
        <time>2019-04-12T08:51:38Z</time>
      </trkpt>
      <trkpt lat="42.12606" lon="2.41407">
        <ele>565.6</ele>
        <time>2019-04-12T08:51:39Z</time>
      </trkpt>
      <trkpt lat="42.12605" lon="2.41409">
        <ele>565.5</ele>
        <time>2019-04-12T08:51:39Z</time>
      </trkpt>
      <trkpt lat="42.12603" lon="2.41416">
        <ele>565.4</ele>
        <time>2019-04-12T08:51:42Z</time>
      </trkpt>
      <trkpt lat="42.12597" lon="2.41427">
        <ele>565.1</ele>
        <time>2019-04-12T08:51:46Z</time>
      </trkpt>
      <trkpt lat="42.12596" lon="2.41429">
        <ele>564.5</ele>
        <time>2019-04-12T08:51:47Z</time>
      </trkpt>
      <trkpt lat="42.12593" lon="2.41435">
        <ele>563.7</ele>
        <time>2019-04-12T08:51:49Z</time>
      </trkpt>
      <trkpt lat="42.12592" lon="2.41437">
        <ele>563.7</ele>
        <time>2019-04-12T08:51:49Z</time>
      </trkpt>
      <trkpt lat="42.12592" lon="2.41439">
        <ele>564.1</ele>
        <time>2019-04-12T08:51:50Z</time>
      </trkpt>
      <trkpt lat="42.12589" lon="2.41443">
        <ele>563.8</ele>
        <time>2019-04-12T08:51:51Z</time>
      </trkpt>
      <trkpt lat="42.12588" lon="2.41444">
        <ele>563.6</ele>
        <time>2019-04-12T08:51:52Z</time>
      </trkpt>
      <trkpt lat="42.12587" lon="2.41445">
        <ele>563.4</ele>
        <time>2019-04-12T08:51:52Z</time>
      </trkpt>
      <trkpt lat="42.12584" lon="2.41446">
        <ele>562.2</ele>
        <time>2019-04-12T08:51:54Z</time>
      </trkpt>
      <trkpt lat="42.12582" lon="2.41448">
        <ele>561.3</ele>
        <time>2019-04-12T08:51:55Z</time>
      </trkpt>
      <trkpt lat="42.12581" lon="2.41449">
        <ele>560.8</ele>
        <time>2019-04-12T08:51:55Z</time>
      </trkpt>
      <trkpt lat="42.1258" lon="2.41449">
        <ele>560.4</ele>
        <time>2019-04-12T08:51:56Z</time>
      </trkpt>
      <trkpt lat="42.12575" lon="2.41453">
        <ele>560.1</ele>
        <time>2019-04-12T08:51:58Z</time>
      </trkpt>
      <trkpt lat="42.12574" lon="2.41453">
        <ele>559.5</ele>
        <time>2019-04-12T08:51:58Z</time>
      </trkpt>
      <trkpt lat="42.12573" lon="2.41453">
        <ele>559.7</ele>
        <time>2019-04-12T08:51:59Z</time>
      </trkpt>
      <trkpt lat="42.12568" lon="2.41457">
        <ele>559.5</ele>
        <time>2019-04-12T08:52:01Z</time>
      </trkpt>
      <trkpt lat="42.12567" lon="2.41458">
        <ele>559.5</ele>
        <time>2019-04-12T08:52:02Z</time>
      </trkpt>
      <trkpt lat="42.12566" lon="2.41459">
        <ele>559.4</ele>
        <time>2019-04-12T08:52:02Z</time>
      </trkpt>
      <trkpt lat="42.12563" lon="2.4146">
        <ele>558.5</ele>
        <time>2019-04-12T08:52:03Z</time>
      </trkpt>
      <trkpt lat="42.12562" lon="2.41461">
        <ele>557.7</ele>
        <time>2019-04-12T08:52:04Z</time>
      </trkpt>
      <trkpt lat="42.12561" lon="2.41461">
        <ele>557.4</ele>
        <time>2019-04-12T08:52:04Z</time>
      </trkpt>
      <trkpt lat="42.12561" lon="2.41462">
        <ele>557.5</ele>
        <time>2019-04-12T08:52:04Z</time>
      </trkpt>
      <trkpt lat="42.1256" lon="2.41463">
        <ele>557.5</ele>
        <time>2019-04-12T08:52:05Z</time>
      </trkpt>
      <trkpt lat="42.12556" lon="2.41467">
        <ele>557.7</ele>
        <time>2019-04-12T08:52:07Z</time>
      </trkpt>
      <trkpt lat="42.1255" lon="2.41472">
        <ele>557</ele>
        <time>2019-04-12T08:52:10Z</time>
      </trkpt>
      <trkpt lat="42.12547" lon="2.41476">
        <ele>556.4</ele>
        <time>2019-04-12T08:52:11Z</time>
      </trkpt>
      <trkpt lat="42.12545" lon="2.41479">
        <ele>556.2</ele>
        <time>2019-04-12T08:52:12Z</time>
      </trkpt>
      <trkpt lat="42.12544" lon="2.41481">
        <ele>555.3</ele>
        <time>2019-04-12T08:52:13Z</time>
      </trkpt>
      <trkpt lat="42.12541" lon="2.41484">
        <ele>553.7</ele>
        <time>2019-04-12T08:52:15Z</time>
      </trkpt>
      <trkpt lat="42.12538" lon="2.41487">
        <ele>552.5</ele>
        <time>2019-04-12T08:52:16Z</time>
      </trkpt>
      <trkpt lat="42.12537" lon="2.41489">
        <ele>552.2</ele>
        <time>2019-04-12T08:52:17Z</time>
      </trkpt>
      <trkpt lat="42.12534" lon="2.41491">
        <ele>551.6</ele>
        <time>2019-04-12T08:52:18Z</time>
      </trkpt>
      <trkpt lat="42.12532" lon="2.41493">
        <ele>551.5</ele>
        <time>2019-04-12T08:52:19Z</time>
      </trkpt>
      <trkpt lat="42.12525" lon="2.41499">
        <ele>550.7</ele>
        <time>2019-04-12T08:52:23Z</time>
      </trkpt>
      <trkpt lat="42.12523" lon="2.41499">
        <ele>550.6</ele>
        <time>2019-04-12T08:52:23Z</time>
      </trkpt>
      <trkpt lat="42.12521" lon="2.41499">
        <ele>550.2</ele>
        <time>2019-04-12T08:52:24Z</time>
      </trkpt>
      <trkpt lat="42.12515" lon="2.41502">
        <ele>549.8</ele>
        <time>2019-04-12T08:52:27Z</time>
      </trkpt>
      <trkpt lat="42.12515" lon="2.41503">
        <ele>550</ele>
        <time>2019-04-12T08:52:27Z</time>
      </trkpt>
      <trkpt lat="42.12518" lon="2.41506">
        <ele>549</ele>
        <time>2019-04-12T08:52:28Z</time>
      </trkpt>
      <trkpt lat="42.12519" lon="2.41507">
        <ele>548.5</ele>
        <time>2019-04-12T08:52:29Z</time>
      </trkpt>
      <trkpt lat="42.1252" lon="2.41508">
        <ele>548.2</ele>
        <time>2019-04-12T08:52:29Z</time>
      </trkpt>
      <trkpt lat="42.1252" lon="2.41508">
        <ele>547.7</ele>
        <time>2019-04-12T08:52:29Z</time>
      </trkpt>
      <trkpt lat="42.1252" lon="2.41509">
        <ele>547.6</ele>
        <time>2019-04-12T08:52:29Z</time>
      </trkpt>
      <trkpt lat="42.12519" lon="2.41511">
        <ele>546.7</ele>
        <time>2019-04-12T08:52:30Z</time>
      </trkpt>
      <trkpt lat="42.12519" lon="2.41513">
        <ele>546.7</ele>
        <time>2019-04-12T08:52:31Z</time>
      </trkpt>
      <trkpt lat="42.12518" lon="2.41514">
        <ele>547.3</ele>
        <time>2019-04-12T08:52:31Z</time>
      </trkpt>
      <trkpt lat="42.12516" lon="2.41515">
        <ele>547.7</ele>
        <time>2019-04-12T08:52:32Z</time>
      </trkpt>
      <trkpt lat="42.12516" lon="2.41516">
        <ele>547.8</ele>
        <time>2019-04-12T08:52:32Z</time>
      </trkpt>
      <trkpt lat="42.12516" lon="2.41516">
        <ele>547.1</ele>
        <time>2019-04-12T08:52:33Z</time>
      </trkpt>
      <trkpt lat="42.12516" lon="2.41516">
        <ele>547</ele>
        <time>2019-04-12T08:52:33Z</time>
      </trkpt>
      <trkpt lat="42.12516" lon="2.41516">
        <ele>546.2</ele>
        <time>2019-04-12T08:52:33Z</time>
      </trkpt>
      <trkpt lat="42.12515" lon="2.41516">
        <ele>546.3</ele>
        <time>2019-04-12T08:52:33Z</time>
      </trkpt>
      <trkpt lat="42.12515" lon="2.41515">
        <ele>546.1</ele>
        <time>2019-04-12T08:52:33Z</time>
      </trkpt>
      <trkpt lat="42.12515" lon="2.41515">
        <ele>545.8</ele>
        <time>2019-04-12T08:52:33Z</time>
      </trkpt>
      <trkpt lat="42.12516" lon="2.41514">
        <ele>545.8</ele>
        <time>2019-04-12T08:52:34Z</time>
      </trkpt>
      <trkpt lat="42.12516" lon="2.41513">
        <ele>545.2</ele>
        <time>2019-04-12T08:52:34Z</time>
      </trkpt>
      <trkpt lat="42.12513" lon="2.41517">
        <ele>544.3</ele>
        <time>2019-04-12T08:52:35Z</time>
      </trkpt>
      <trkpt lat="42.12511" lon="2.4152">
        <ele>545.8</ele>
        <time>2019-04-12T08:52:36Z</time>
      </trkpt>
      <trkpt lat="42.1251" lon="2.4152">
        <ele>544.4</ele>
        <time>2019-04-12T08:52:37Z</time>
      </trkpt>
      <trkpt lat="42.12508" lon="2.4152">
        <ele>544.1</ele>
        <time>2019-04-12T08:52:37Z</time>
      </trkpt>
      <trkpt lat="42.12503" lon="2.41521">
        <ele>544.4</ele>
        <time>2019-04-12T08:52:39Z</time>
      </trkpt>
      <trkpt lat="42.12502" lon="2.41521">
        <ele>544</ele>
        <time>2019-04-12T08:52:40Z</time>
      </trkpt>
      <trkpt lat="42.12502" lon="2.41523">
        <ele>543</ele>
        <time>2019-04-12T08:52:41Z</time>
      </trkpt>
      <trkpt lat="42.125" lon="2.41526">
        <ele>543.3</ele>
        <time>2019-04-12T08:52:42Z</time>
      </trkpt>
      <trkpt lat="42.12499" lon="2.41527">
        <ele>543.6</ele>
        <time>2019-04-12T08:52:42Z</time>
      </trkpt>
      <trkpt lat="42.12498" lon="2.4153">
        <ele>543.5</ele>
        <time>2019-04-12T08:52:43Z</time>
      </trkpt>
      <trkpt lat="42.12494" lon="2.41532">
        <ele>542.6</ele>
        <time>2019-04-12T08:52:45Z</time>
      </trkpt>
      <trkpt lat="42.12492" lon="2.41535">
        <ele>542.3</ele>
        <time>2019-04-12T08:52:46Z</time>
      </trkpt>
      <trkpt lat="42.1249" lon="2.41538">
        <ele>541.8</ele>
        <time>2019-04-12T08:52:47Z</time>
      </trkpt>
      <trkpt lat="42.12488" lon="2.41541">
        <ele>541.8</ele>
        <time>2019-04-12T08:52:48Z</time>
      </trkpt>
      <trkpt lat="42.12486" lon="2.41544">
        <ele>541</ele>
        <time>2019-04-12T08:52:50Z</time>
      </trkpt>
      <trkpt lat="42.12485" lon="2.41544">
        <ele>540.8</ele>
        <time>2019-04-12T08:52:50Z</time>
      </trkpt>
      <trkpt lat="42.12485" lon="2.41545">
        <ele>541.1</ele>
        <time>2019-04-12T08:52:50Z</time>
      </trkpt>
      <trkpt lat="42.12484" lon="2.41546">
        <ele>541</ele>
        <time>2019-04-12T08:52:51Z</time>
      </trkpt>
      <trkpt lat="42.12478" lon="2.41557">
        <ele>540.5</ele>
        <time>2019-04-12T08:52:55Z</time>
      </trkpt>
      <trkpt lat="42.12477" lon="2.41558">
        <ele>539.8</ele>
        <time>2019-04-12T08:52:55Z</time>
      </trkpt>
      <trkpt lat="42.12476" lon="2.4156">
        <ele>539.5</ele>
        <time>2019-04-12T08:52:56Z</time>
      </trkpt>
      <trkpt lat="42.12473" lon="2.41565">
        <ele>538.4</ele>
        <time>2019-04-12T08:52:58Z</time>
      </trkpt>
      <trkpt lat="42.12472" lon="2.41568">
        <ele>537.4</ele>
        <time>2019-04-12T08:52:59Z</time>
      </trkpt>
      <trkpt lat="42.12472" lon="2.41569">
        <ele>537.2</ele>
        <time>2019-04-12T08:52:59Z</time>
      </trkpt>
      <trkpt lat="42.12471" lon="2.41569">
        <ele>537</ele>
        <time>2019-04-12T08:52:59Z</time>
      </trkpt>
      <trkpt lat="42.1247" lon="2.41569">
        <ele>536.6</ele>
        <time>2019-04-12T08:53:00Z</time>
      </trkpt>
      <trkpt lat="42.12469" lon="2.41571">
        <ele>537.1</ele>
        <time>2019-04-12T08:53:00Z</time>
      </trkpt>
      <trkpt lat="42.12468" lon="2.41573">
        <ele>536.5</ele>
        <time>2019-04-12T08:53:01Z</time>
      </trkpt>
      <trkpt lat="42.12467" lon="2.41575">
        <ele>536.5</ele>
        <time>2019-04-12T08:53:02Z</time>
      </trkpt>
      <trkpt lat="42.12466" lon="2.41577">
        <ele>537.2</ele>
        <time>2019-04-12T08:53:02Z</time>
      </trkpt>
      <trkpt lat="42.12463" lon="2.41581">
        <ele>538.5</ele>
        <time>2019-04-12T08:53:04Z</time>
      </trkpt>
      <trkpt lat="42.12461" lon="2.41585">
        <ele>538.7</ele>
        <time>2019-04-12T08:53:06Z</time>
      </trkpt>
      <trkpt lat="42.12458" lon="2.41593">
        <ele>538.3</ele>
        <time>2019-04-12T08:53:08Z</time>
      </trkpt>
      <trkpt lat="42.12458" lon="2.41596">
        <ele>537.6</ele>
        <time>2019-04-12T08:53:09Z</time>
      </trkpt>
      <trkpt lat="42.12459" lon="2.41598">
        <ele>537.2</ele>
        <time>2019-04-12T08:53:10Z</time>
      </trkpt>
      <trkpt lat="42.12459" lon="2.416">
        <ele>536</ele>
        <time>2019-04-12T08:53:10Z</time>
      </trkpt>
      <trkpt lat="42.12458" lon="2.41606">
        <ele>534.8</ele>
        <time>2019-04-12T08:53:12Z</time>
      </trkpt>
      <trkpt lat="42.12458" lon="2.41607">
        <ele>534.8</ele>
        <time>2019-04-12T08:53:12Z</time>
      </trkpt>
      <trkpt lat="42.12455" lon="2.4161">
        <ele>535.3</ele>
        <time>2019-04-12T08:53:14Z</time>
      </trkpt>
      <trkpt lat="42.12452" lon="2.41612">
        <ele>535</ele>
        <time>2019-04-12T08:53:15Z</time>
      </trkpt>
      <trkpt lat="42.1245" lon="2.41613">
        <ele>534.6</ele>
        <time>2019-04-12T08:53:16Z</time>
      </trkpt>
      <trkpt lat="42.12447" lon="2.41615">
        <ele>533.5</ele>
        <time>2019-04-12T08:53:17Z</time>
      </trkpt>
      <trkpt lat="42.12445" lon="2.41615">
        <ele>532.5</ele>
        <time>2019-04-12T08:53:18Z</time>
      </trkpt>
      <trkpt lat="42.12442" lon="2.41616">
        <ele>531.3</ele>
        <time>2019-04-12T08:53:19Z</time>
      </trkpt>
      <trkpt lat="42.12441" lon="2.41617">
        <ele>531</ele>
        <time>2019-04-12T08:53:20Z</time>
      </trkpt>
      <trkpt lat="42.12438" lon="2.41617">
        <ele>530.8</ele>
        <time>2019-04-12T08:53:21Z</time>
      </trkpt>
      <trkpt lat="42.12434" lon="2.41618">
        <ele>530.5</ele>
        <time>2019-04-12T08:53:23Z</time>
      </trkpt>
      <trkpt lat="42.12433" lon="2.41617">
        <ele>529.8</ele>
        <time>2019-04-12T08:53:23Z</time>
      </trkpt>
      <trkpt lat="42.12432" lon="2.41617">
        <ele>529.1</ele>
        <time>2019-04-12T08:53:24Z</time>
      </trkpt>
      <trkpt lat="42.1243" lon="2.41616">
        <ele>528.8</ele>
        <time>2019-04-12T08:53:24Z</time>
      </trkpt>
      <trkpt lat="42.12428" lon="2.41616">
        <ele>528.6</ele>
        <time>2019-04-12T08:53:25Z</time>
      </trkpt>
      <trkpt lat="42.12423" lon="2.41617">
        <ele>527.6</ele>
        <time>2019-04-12T08:53:27Z</time>
      </trkpt>
      <trkpt lat="42.12417" lon="2.41617">
        <ele>526.3</ele>
        <time>2019-04-12T08:53:29Z</time>
      </trkpt>
      <trkpt lat="42.12414" lon="2.41617">
        <ele>525.2</ele>
        <time>2019-04-12T08:53:31Z</time>
      </trkpt>
      <trkpt lat="42.12411" lon="2.41617">
        <ele>524.2</ele>
        <time>2019-04-12T08:53:32Z</time>
      </trkpt>
      <trkpt lat="42.12409" lon="2.41616">
        <ele>524.1</ele>
        <time>2019-04-12T08:53:33Z</time>
      </trkpt>
      <trkpt lat="42.12407" lon="2.41615">
        <ele>523.8</ele>
        <time>2019-04-12T08:53:34Z</time>
      </trkpt>
      <trkpt lat="42.12403" lon="2.41616">
        <ele>523.4</ele>
        <time>2019-04-12T08:53:35Z</time>
      </trkpt>
      <trkpt lat="42.12397" lon="2.4162">
        <ele>522.5</ele>
        <time>2019-04-12T08:53:38Z</time>
      </trkpt>
      <trkpt lat="42.12393" lon="2.41621">
        <ele>521.6</ele>
        <time>2019-04-12T08:53:39Z</time>
      </trkpt>
      <trkpt lat="42.12392" lon="2.41622">
        <ele>520.7</ele>
        <time>2019-04-12T08:53:40Z</time>
      </trkpt>
      <trkpt lat="42.12382" lon="2.41621">
        <ele>520.7</ele>
        <time>2019-04-12T08:53:44Z</time>
      </trkpt>
      <trkpt lat="42.12378" lon="2.41621">
        <ele>519.2</ele>
        <time>2019-04-12T08:53:46Z</time>
      </trkpt>
      <trkpt lat="42.12375" lon="2.4162">
        <ele>517.7</ele>
        <time>2019-04-12T08:53:47Z</time>
      </trkpt>
      <trkpt lat="42.12372" lon="2.41621">
        <ele>517.2</ele>
        <time>2019-04-12T08:53:48Z</time>
      </trkpt>
      <trkpt lat="42.1237" lon="2.4162">
        <ele>516.5</ele>
        <time>2019-04-12T08:53:49Z</time>
      </trkpt>
      <trkpt lat="42.1236" lon="2.41622">
        <ele>515.5</ele>
        <time>2019-04-12T08:53:53Z</time>
      </trkpt>
      <trkpt lat="42.12357" lon="2.41622">
        <ele>515.2</ele>
        <time>2019-04-12T08:53:54Z</time>
      </trkpt>
      <trkpt lat="42.12354" lon="2.41622">
        <ele>514.3</ele>
        <time>2019-04-12T08:53:55Z</time>
      </trkpt>
      <trkpt lat="42.1235" lon="2.41623">
        <ele>512.8</ele>
        <time>2019-04-12T08:53:57Z</time>
      </trkpt>
      <trkpt lat="42.12346" lon="2.41624">
        <ele>512.5</ele>
        <time>2019-04-12T08:53:58Z</time>
      </trkpt>
      <trkpt lat="42.12339" lon="2.41625">
        <ele>511.6</ele>
        <time>2019-04-12T08:54:01Z</time>
      </trkpt>
      <trkpt lat="42.12338" lon="2.41625">
        <ele>511.2</ele>
        <time>2019-04-12T08:54:02Z</time>
      </trkpt>
      <trkpt lat="42.12336" lon="2.41625">
        <ele>511</ele>
        <time>2019-04-12T08:54:02Z</time>
      </trkpt>
      <trkpt lat="42.1233" lon="2.41628">
        <ele>511.1</ele>
        <time>2019-04-12T08:54:05Z</time>
      </trkpt>
      <trkpt lat="42.12327" lon="2.41628">
        <ele>510.6</ele>
        <time>2019-04-12T08:54:06Z</time>
      </trkpt>
      <trkpt lat="42.12323" lon="2.41629">
        <ele>510.4</ele>
        <time>2019-04-12T08:54:08Z</time>
      </trkpt>
      <trkpt lat="42.12317" lon="2.4163">
        <ele>509.7</ele>
        <time>2019-04-12T08:54:10Z</time>
      </trkpt>
      <trkpt lat="42.12315" lon="2.41629">
        <ele>509.3</ele>
        <time>2019-04-12T08:54:11Z</time>
      </trkpt>
      <trkpt lat="42.12312" lon="2.41629">
        <ele>508.3</ele>
        <time>2019-04-12T08:54:12Z</time>
      </trkpt>
      <trkpt lat="42.12311" lon="2.4163">
        <ele>508</ele>
        <time>2019-04-12T08:54:13Z</time>
      </trkpt>
      <trkpt lat="42.12309" lon="2.41629">
        <ele>508.2</ele>
        <time>2019-04-12T08:54:14Z</time>
      </trkpt>
      <trkpt lat="42.12306" lon="2.41628">
        <ele>507.8</ele>
        <time>2019-04-12T08:54:15Z</time>
      </trkpt>
      <trkpt lat="42.12304" lon="2.41626">
        <ele>507.4</ele>
        <time>2019-04-12T08:54:16Z</time>
      </trkpt>
      <trkpt lat="42.12302" lon="2.41625">
        <ele>506.8</ele>
        <time>2019-04-12T08:54:17Z</time>
      </trkpt>
      <trkpt lat="42.12294" lon="2.41624">
        <ele>506.3</ele>
        <time>2019-04-12T08:54:20Z</time>
      </trkpt>
      <trkpt lat="42.12292" lon="2.41624">
        <ele>506</ele>
        <time>2019-04-12T08:54:21Z</time>
      </trkpt>
      <trkpt lat="42.12291" lon="2.41624">
        <ele>505.7</ele>
        <time>2019-04-12T08:54:21Z</time>
      </trkpt>
      <trkpt lat="42.12287" lon="2.41625">
        <ele>505</ele>
        <time>2019-04-12T08:54:23Z</time>
      </trkpt>
      <trkpt lat="42.12286" lon="2.41625">
        <ele>505</ele>
        <time>2019-04-12T08:54:23Z</time>
      </trkpt>
      <trkpt lat="42.12284" lon="2.41625">
        <ele>504.7</ele>
        <time>2019-04-12T08:54:24Z</time>
      </trkpt>
      <trkpt lat="42.12282" lon="2.41626">
        <ele>504.2</ele>
        <time>2019-04-12T08:54:25Z</time>
      </trkpt>
      <trkpt lat="42.12279" lon="2.41626">
        <ele>503.4</ele>
        <time>2019-04-12T08:54:26Z</time>
      </trkpt>
      <trkpt lat="42.12277" lon="2.41628">
        <ele>503.1</ele>
        <time>2019-04-12T08:54:27Z</time>
      </trkpt>
      <trkpt lat="42.12276" lon="2.41629">
        <ele>502.3</ele>
        <time>2019-04-12T08:54:28Z</time>
      </trkpt>
      <trkpt lat="42.12274" lon="2.41631">
        <ele>501.7</ele>
        <time>2019-04-12T08:54:29Z</time>
      </trkpt>
      <trkpt lat="42.12272" lon="2.41632">
        <ele>501.6</ele>
        <time>2019-04-12T08:54:29Z</time>
      </trkpt>
      <trkpt lat="42.12271" lon="2.41633">
        <ele>501.8</ele>
        <time>2019-04-12T08:54:30Z</time>
      </trkpt>
      <trkpt lat="42.12265" lon="2.41637">
        <ele>502.3</ele>
        <time>2019-04-12T08:54:32Z</time>
      </trkpt>
      <trkpt lat="42.1226" lon="2.41642">
        <ele>502.8</ele>
        <time>2019-04-12T08:54:35Z</time>
      </trkpt>
      <trkpt lat="42.12255" lon="2.41647">
        <ele>502.6</ele>
        <time>2019-04-12T08:54:38Z</time>
      </trkpt>
      <trkpt lat="42.12253" lon="2.41648">
        <ele>502.2</ele>
        <time>2019-04-12T08:54:38Z</time>
      </trkpt>
      <trkpt lat="42.12242" lon="2.41654">
        <ele>501.3</ele>
        <time>2019-04-12T08:54:43Z</time>
      </trkpt>
      <trkpt lat="42.12239" lon="2.41656">
        <ele>501.7</ele>
        <time>2019-04-12T08:54:44Z</time>
      </trkpt>
      <trkpt lat="42.12236" lon="2.4166">
        <ele>501.4</ele>
        <time>2019-04-12T08:54:46Z</time>
      </trkpt>
      <trkpt lat="42.12234" lon="2.41661">
        <ele>501.4</ele>
        <time>2019-04-12T08:54:47Z</time>
      </trkpt>
      <trkpt lat="42.12232" lon="2.41663">
        <ele>501.3</ele>
        <time>2019-04-12T08:54:48Z</time>
      </trkpt>
      <trkpt lat="42.1223" lon="2.41665">
        <ele>501.3</ele>
        <time>2019-04-12T08:54:49Z</time>
      </trkpt>
      <trkpt lat="42.12229" lon="2.41666">
        <ele>501.6</ele>
        <time>2019-04-12T08:54:49Z</time>
      </trkpt>
      <trkpt lat="42.12227" lon="2.41668">
        <ele>501.2</ele>
        <time>2019-04-12T08:54:50Z</time>
      </trkpt>
      <trkpt lat="42.12224" lon="2.41671">
        <ele>500.4</ele>
        <time>2019-04-12T08:54:52Z</time>
      </trkpt>
      <trkpt lat="42.12223" lon="2.41672">
        <ele>500.2</ele>
        <time>2019-04-12T08:54:52Z</time>
      </trkpt>
      <trkpt lat="42.12219" lon="2.41676">
        <ele>499.3</ele>
        <time>2019-04-12T08:54:54Z</time>
      </trkpt>
      <trkpt lat="42.12218" lon="2.41678">
        <ele>499.2</ele>
        <time>2019-04-12T08:54:55Z</time>
      </trkpt>
      <trkpt lat="42.12212" lon="2.41683">
        <ele>499.2</ele>
        <time>2019-04-12T08:54:58Z</time>
      </trkpt>
      <trkpt lat="42.1221" lon="2.41687">
        <ele>499</ele>
        <time>2019-04-12T08:54:59Z</time>
      </trkpt>
      <trkpt lat="42.12208" lon="2.41692">
        <ele>498.7</ele>
        <time>2019-04-12T08:55:01Z</time>
      </trkpt>
      <trkpt lat="42.12207" lon="2.41694">
        <ele>498.3</ele>
        <time>2019-04-12T08:55:02Z</time>
      </trkpt>
      <trkpt lat="42.12205" lon="2.41697">
        <ele>497.7</ele>
        <time>2019-04-12T08:55:03Z</time>
      </trkpt>
      <trkpt lat="42.12201" lon="2.41704">
        <ele>497</ele>
        <time>2019-04-12T08:55:05Z</time>
      </trkpt>
      <trkpt lat="42.122" lon="2.41705">
        <ele>496.4</ele>
        <time>2019-04-12T08:55:06Z</time>
      </trkpt>
      <trkpt lat="42.12198" lon="2.41709">
        <ele>495.3</ele>
        <time>2019-04-12T08:55:07Z</time>
      </trkpt>
      <trkpt lat="42.12197" lon="2.41709">
        <ele>495.1</ele>
        <time>2019-04-12T08:55:08Z</time>
      </trkpt>
      <trkpt lat="42.12189" lon="2.41719">
        <ele>494.2</ele>
        <time>2019-04-12T08:55:12Z</time>
      </trkpt>
      <trkpt lat="42.12186" lon="2.41722">
        <ele>493.6</ele>
        <time>2019-04-12T08:55:14Z</time>
      </trkpt>
      <trkpt lat="42.12182" lon="2.41728">
        <ele>493</ele>
        <time>2019-04-12T08:55:16Z</time>
      </trkpt>
      <trkpt lat="42.12177" lon="2.41733">
        <ele>492.3</ele>
        <time>2019-04-12T08:55:18Z</time>
      </trkpt>
      <trkpt lat="42.12176" lon="2.41735">
        <ele>492</ele>
        <time>2019-04-12T08:55:19Z</time>
      </trkpt>
      <trkpt lat="42.12175" lon="2.41736">
        <ele>491.7</ele>
        <time>2019-04-12T08:55:20Z</time>
      </trkpt>
      <trkpt lat="42.12173" lon="2.41738">
        <ele>491.4</ele>
        <time>2019-04-12T08:55:21Z</time>
      </trkpt>
      <trkpt lat="42.12172" lon="2.4174">
        <ele>491.1</ele>
        <time>2019-04-12T08:55:21Z</time>
      </trkpt>
      <trkpt lat="42.1217" lon="2.41744">
        <ele>490.3</ele>
        <time>2019-04-12T08:55:23Z</time>
      </trkpt>
      <trkpt lat="42.12166" lon="2.41753">
        <ele>490.4</ele>
        <time>2019-04-12T08:55:26Z</time>
      </trkpt>
      <trkpt lat="42.12163" lon="2.41759">
        <ele>489.4</ele>
        <time>2019-04-12T08:55:28Z</time>
      </trkpt>
      <trkpt lat="42.12163" lon="2.4176">
        <ele>488.8</ele>
        <time>2019-04-12T08:55:28Z</time>
      </trkpt>
      <trkpt lat="42.12162" lon="2.41762">
        <ele>488.4</ele>
        <time>2019-04-12T08:55:29Z</time>
      </trkpt>
      <trkpt lat="42.12158" lon="2.41767">
        <ele>487.3</ele>
        <time>2019-04-12T08:55:31Z</time>
      </trkpt>
      <trkpt lat="42.12157" lon="2.41769">
        <ele>487.2</ele>
        <time>2019-04-12T08:55:32Z</time>
      </trkpt>
      <trkpt lat="42.12153" lon="2.41771">
        <ele>486.2</ele>
        <time>2019-04-12T08:55:34Z</time>
      </trkpt>
      <trkpt lat="42.12152" lon="2.41772">
        <ele>485.7</ele>
        <time>2019-04-12T08:55:34Z</time>
      </trkpt>
      <trkpt lat="42.12148" lon="2.41774">
        <ele>485.4</ele>
        <time>2019-04-12T08:55:36Z</time>
      </trkpt>
      <trkpt lat="42.12147" lon="2.41774">
        <ele>485.3</ele>
        <time>2019-04-12T08:55:37Z</time>
      </trkpt>
      <trkpt lat="42.12144" lon="2.41774">
        <ele>485.1</ele>
        <time>2019-04-12T08:55:38Z</time>
      </trkpt>
      <trkpt lat="42.12142" lon="2.41773">
        <ele>484.8</ele>
        <time>2019-04-12T08:55:38Z</time>
      </trkpt>
      <trkpt lat="42.12141" lon="2.41773">
        <ele>485.3</ele>
        <time>2019-04-12T08:55:39Z</time>
      </trkpt>
      <trkpt lat="42.12139" lon="2.41768">
        <ele>485.2</ele>
        <time>2019-04-12T08:55:40Z</time>
      </trkpt>
      <trkpt lat="42.12138" lon="2.41767">
        <ele>485.4</ele>
        <time>2019-04-12T08:55:41Z</time>
      </trkpt>
      <trkpt lat="42.12138" lon="2.41765">
        <ele>485.4</ele>
        <time>2019-04-12T08:55:42Z</time>
      </trkpt>
      <trkpt lat="42.12137" lon="2.41763">
        <ele>485.6</ele>
        <time>2019-04-12T08:55:42Z</time>
      </trkpt>
      <trkpt lat="42.12136" lon="2.41762">
        <ele>485.6</ele>
        <time>2019-04-12T08:55:42Z</time>
      </trkpt>
      <trkpt lat="42.12136" lon="2.41761">
        <ele>485.7</ele>
        <time>2019-04-12T08:55:43Z</time>
      </trkpt>
      <trkpt lat="42.12135" lon="2.4176">
        <ele>485.8</ele>
        <time>2019-04-12T08:55:43Z</time>
      </trkpt>
      <trkpt lat="42.12134" lon="2.41759">
        <ele>485.7</ele>
        <time>2019-04-12T08:55:44Z</time>
      </trkpt>
      <trkpt lat="42.12134" lon="2.41758">
        <ele>485.8</ele>
        <time>2019-04-12T08:55:44Z</time>
      </trkpt>
      <trkpt lat="42.12134" lon="2.41757">
        <ele>485.7</ele>
        <time>2019-04-12T08:55:44Z</time>
      </trkpt>
      <trkpt lat="42.12134" lon="2.41756">
        <ele>485.8</ele>
        <time>2019-04-12T08:55:45Z</time>
      </trkpt>
      <trkpt lat="42.12134" lon="2.41755">
        <ele>485.7</ele>
        <time>2019-04-12T08:55:45Z</time>
      </trkpt>
      <trkpt lat="42.12135" lon="2.41754">
        <ele>486.2</ele>
        <time>2019-04-12T08:55:45Z</time>
      </trkpt>
      <trkpt lat="42.12136" lon="2.41752">
        <ele>487</ele>
        <time>2019-04-12T08:55:46Z</time>
      </trkpt>
      <trkpt lat="42.12137" lon="2.4175">
        <ele>486.2</ele>
        <time>2019-04-12T08:55:47Z</time>
      </trkpt>
      <trkpt lat="42.12137" lon="2.41749">
        <ele>485.8</ele>
        <time>2019-04-12T08:55:47Z</time>
      </trkpt>
      <trkpt lat="42.12138" lon="2.41752">
        <ele>486.7</ele>
        <time>2019-04-12T08:55:48Z</time>
      </trkpt>
      <trkpt lat="42.12139" lon="2.41752">
        <ele>486.7</ele>
        <time>2019-04-12T08:55:49Z</time>
      </trkpt>
      <trkpt lat="42.12141" lon="2.41751">
        <ele>486.4</ele>
        <time>2019-04-12T08:55:49Z</time>
      </trkpt>
      <trkpt lat="42.12142" lon="2.41751">
        <ele>486.6</ele>
        <time>2019-04-12T08:55:50Z</time>
      </trkpt>
      <trkpt lat="42.12141" lon="2.41752">
        <ele>486.7</ele>
        <time>2019-04-12T08:55:50Z</time>
      </trkpt>
      <trkpt lat="42.1214" lon="2.41754">
        <ele>486.7</ele>
        <time>2019-04-12T08:55:51Z</time>
      </trkpt>
      <trkpt lat="42.1214" lon="2.41754">
        <ele>486.7</ele>
        <time>2019-04-12T08:55:51Z</time>
      </trkpt>
      <trkpt lat="42.12137" lon="2.41753">
        <ele>486.2</ele>
        <time>2019-04-12T08:55:52Z</time>
      </trkpt>
      <trkpt lat="42.12136" lon="2.4175">
        <ele>486.3</ele>
        <time>2019-04-12T08:55:53Z</time>
      </trkpt>
      <trkpt lat="42.12133" lon="2.41747">
        <ele>487.1</ele>
        <time>2019-04-12T08:55:54Z</time>
      </trkpt>
      <trkpt lat="42.12129" lon="2.41738">
        <ele>487.3</ele>
        <time>2019-04-12T08:55:57Z</time>
      </trkpt>
      <trkpt lat="42.12127" lon="2.41731">
        <ele>487</ele>
        <time>2019-04-12T08:56:00Z</time>
      </trkpt>
      <trkpt lat="42.12127" lon="2.4173">
        <ele>487.2</ele>
        <time>2019-04-12T08:56:00Z</time>
      </trkpt>
      <trkpt lat="42.12127" lon="2.41729">
        <ele>487.2</ele>
        <time>2019-04-12T08:56:00Z</time>
      </trkpt>
      <trkpt lat="42.12125" lon="2.41721">
        <ele>486.7</ele>
        <time>2019-04-12T08:56:03Z</time>
      </trkpt>
      <trkpt lat="42.12124" lon="2.41719">
        <ele>487.3</ele>
        <time>2019-04-12T08:56:03Z</time>
      </trkpt>
      <trkpt lat="42.12124" lon="2.4172">
        <ele>487.2</ele>
        <time>2019-04-12T08:56:03Z</time>
      </trkpt>
      <trkpt lat="42.12124" lon="2.41715">
        <ele>487.2</ele>
        <time>2019-04-12T08:56:05Z</time>
      </trkpt>
      <trkpt lat="42.12123" lon="2.41715">
        <ele>480.7</ele>
        <time>2019-04-12T08:56:06Z</time>
      </trkpt>
      <trkpt lat="42.12139" lon="2.41779">
        <ele>612.7</ele>
        <time>2019-04-12T09:47:07Z</time>
      </trkpt>
      <trkpt lat="42.12134" lon="2.41799">
        <ele>608.1</ele>
        <time>2019-04-12T09:47:12Z</time>
      </trkpt>
      <trkpt lat="42.12125" lon="2.41823">
        <ele>604.5</ele>
        <time>2019-04-12T09:47:21Z</time>
      </trkpt>
      <trkpt lat="42.12117" lon="2.41839">
        <ele>605</ele>
        <time>2019-04-12T09:47:26Z</time>
      </trkpt>
      <trkpt lat="42.12116" lon="2.41867">
        <ele>604.5</ele>
        <time>2019-04-12T09:47:35Z</time>
      </trkpt>
      <trkpt lat="42.12126" lon="2.41886">
        <ele>602.2</ele>
        <time>2019-04-12T09:47:42Z</time>
      </trkpt>
      <trkpt lat="42.12134" lon="2.41899">
        <ele>601.4</ele>
        <time>2019-04-12T09:47:47Z</time>
      </trkpt>
      <trkpt lat="42.12142" lon="2.41922">
        <ele>602.2</ele>
        <time>2019-04-12T09:47:54Z</time>
      </trkpt>
      <trkpt lat="42.12146" lon="2.4193">
        <ele>601.2</ele>
        <time>2019-04-12T09:47:57Z</time>
      </trkpt>
      <trkpt lat="42.12146" lon="2.4193">
        <ele>601.2</ele>
        <time>2019-04-12T09:47:57Z</time>
      </trkpt>
      <trkpt lat="42.12146" lon="2.4193">
        <ele>601.2</ele>
        <time>2019-04-12T09:47:57Z</time>
      </trkpt>
      <trkpt lat="42.12143" lon="2.41939">
        <ele>603</ele>
        <time>2019-04-12T09:48:00Z</time>
      </trkpt>
      <trkpt lat="42.12143" lon="2.41939">
        <ele>602.9</ele>
        <time>2019-04-12T09:48:00Z</time>
      </trkpt>
      <trkpt lat="42.12157" lon="2.41979">
        <ele>600.5</ele>
        <time>2019-04-12T09:48:13Z</time>
      </trkpt>
      <trkpt lat="42.12162" lon="2.41979">
        <ele>600.1</ele>
        <time>2019-04-12T09:48:15Z</time>
      </trkpt>
      <trkpt lat="42.12162" lon="2.41979">
        <ele>600</ele>
        <time>2019-04-12T09:48:15Z</time>
      </trkpt>
      <trkpt lat="42.12162" lon="2.41979">
        <ele>600</ele>
        <time>2019-04-12T09:48:15Z</time>
      </trkpt>
      <trkpt lat="42.12164" lon="2.4199">
        <ele>599</ele>
        <time>2019-04-12T09:48:18Z</time>
      </trkpt>
      <trkpt lat="42.12163" lon="2.41996">
        <ele>598.6</ele>
        <time>2019-04-12T09:48:20Z</time>
      </trkpt>
      <trkpt lat="42.12163" lon="2.41996">
        <ele>598.7</ele>
        <time>2019-04-12T09:48:20Z</time>
      </trkpt>
      <trkpt lat="42.12163" lon="2.41996">
        <ele>598.7</ele>
        <time>2019-04-12T09:48:20Z</time>
      </trkpt>
      <trkpt lat="42.12167" lon="2.42004">
        <ele>597.6</ele>
        <time>2019-04-12T09:48:23Z</time>
      </trkpt>
      <trkpt lat="42.12169" lon="2.42005">
        <ele>596.7</ele>
        <time>2019-04-12T09:48:24Z</time>
      </trkpt>
      <trkpt lat="42.12169" lon="2.42005">
        <ele>596.7</ele>
        <time>2019-04-12T09:48:24Z</time>
      </trkpt>
      <trkpt lat="42.12169" lon="2.42005">
        <ele>596.7</ele>
        <time>2019-04-12T09:48:24Z</time>
      </trkpt>
      <trkpt lat="42.12171" lon="2.42012">
        <ele>595.7</ele>
        <time>2019-04-12T09:48:26Z</time>
      </trkpt>
      <trkpt lat="42.12178" lon="2.42031">
        <ele>591.5</ele>
        <time>2019-04-12T09:48:32Z</time>
      </trkpt>
      <trkpt lat="42.12184" lon="2.42056">
        <ele>588.7</ele>
        <time>2019-04-12T09:48:40Z</time>
      </trkpt>
      <trkpt lat="42.12191" lon="2.42077">
        <ele>587.2</ele>
        <time>2019-04-12T09:48:47Z</time>
      </trkpt>
      <trkpt lat="42.12178" lon="2.42086">
        <ele>587.7</ele>
        <time>2019-04-12T09:48:53Z</time>
      </trkpt>
      <trkpt lat="42.12177" lon="2.42102">
        <ele>584</ele>
        <time>2019-04-12T09:48:58Z</time>
      </trkpt>
      <trkpt lat="42.12183" lon="2.42108">
        <ele>582.6</ele>
        <time>2019-04-12T09:49:01Z</time>
      </trkpt>
      <trkpt lat="42.12183" lon="2.42108">
        <ele>582.6</ele>
        <time>2019-04-12T09:49:01Z</time>
      </trkpt>
      <trkpt lat="42.12183" lon="2.42108">
        <ele>582.6</ele>
        <time>2019-04-12T09:49:01Z</time>
      </trkpt>
      <trkpt lat="42.12152" lon="2.42144">
        <ele>575.3</ele>
        <time>2019-04-12T09:49:17Z</time>
      </trkpt>
      <trkpt lat="42.12132" lon="2.42143">
        <ele>574.6</ele>
        <time>2019-04-12T09:49:25Z</time>
      </trkpt>
      <trkpt lat="42.12117" lon="2.42145">
        <ele>573.9</ele>
        <time>2019-04-12T09:49:31Z</time>
      </trkpt>
      <trkpt lat="42.12099" lon="2.42146">
        <ele>573.2</ele>
        <time>2019-04-12T09:49:38Z</time>
      </trkpt>
      <trkpt lat="42.12078" lon="2.42151">
        <ele>572.5</ele>
        <time>2019-04-12T09:49:47Z</time>
      </trkpt>
      <trkpt lat="42.12065" lon="2.42157">
        <ele>571.9</ele>
        <time>2019-04-12T09:49:52Z</time>
      </trkpt>
      <trkpt lat="42.1205" lon="2.42173">
        <ele>570.6</ele>
        <time>2019-04-12T09:50:00Z</time>
      </trkpt>
      <trkpt lat="42.1204" lon="2.42191">
        <ele>569.3</ele>
        <time>2019-04-12T09:50:07Z</time>
      </trkpt>
      <trkpt lat="42.12028" lon="2.42199">
        <ele>568.6</ele>
        <time>2019-04-12T09:50:12Z</time>
      </trkpt>
      <trkpt lat="42.12015" lon="2.42192">
        <ele>569.2</ele>
        <time>2019-04-12T09:50:18Z</time>
      </trkpt>
      <trkpt lat="42.12004" lon="2.42192">
        <ele>569.2</ele>
        <time>2019-04-12T09:50:22Z</time>
      </trkpt>
      <trkpt lat="42.11999" lon="2.42225">
        <ele>565.8</ele>
        <time>2019-04-12T09:50:32Z</time>
      </trkpt>
      <trkpt lat="42.11997" lon="2.42246">
        <ele>564.2</ele>
        <time>2019-04-12T09:50:39Z</time>
      </trkpt>
      <trkpt lat="42.11996" lon="2.42269">
        <ele>562.6</ele>
        <time>2019-04-12T09:50:45Z</time>
      </trkpt>
      <trkpt lat="42.11993" lon="2.42287">
        <ele>561.1</ele>
        <time>2019-04-12T09:50:51Z</time>
      </trkpt>
      <trkpt lat="42.11991" lon="2.4231">
        <ele>558.6</ele>
        <time>2019-04-12T09:50:58Z</time>
      </trkpt>
      <trkpt lat="42.11992" lon="2.42317">
        <ele>557.9</ele>
        <time>2019-04-12T09:51:00Z</time>
      </trkpt>
      <trkpt lat="42.11992" lon="2.42317">
        <ele>557.9</ele>
        <time>2019-04-12T09:51:00Z</time>
      </trkpt>
      <trkpt lat="42.11992" lon="2.42317">
        <ele>557.9</ele>
        <time>2019-04-12T09:51:00Z</time>
      </trkpt>
      <trkpt lat="42.11999" lon="2.42353">
        <ele>554.9</ele>
        <time>2019-04-12T09:51:11Z</time>
      </trkpt>
      <trkpt lat="42.12001" lon="2.42371">
        <ele>553.1</ele>
        <time>2019-04-12T09:51:16Z</time>
      </trkpt>
      <trkpt lat="42.12005" lon="2.42392">
        <ele>551.1</ele>
        <time>2019-04-12T09:51:23Z</time>
      </trkpt>
      <trkpt lat="42.12006" lon="2.42416">
        <ele>548.5</ele>
        <time>2019-04-12T09:51:30Z</time>
      </trkpt>
      <trkpt lat="42.12004" lon="2.42444">
        <ele>546.3</ele>
        <time>2019-04-12T09:51:38Z</time>
      </trkpt>
      <trkpt lat="42.12002" lon="2.42458">
        <ele>545.3</ele>
        <time>2019-04-12T09:51:43Z</time>
      </trkpt>
      <trkpt lat="42.11992" lon="2.4246">
        <ele>545.6</ele>
        <time>2019-04-12T09:51:47Z</time>
      </trkpt>
      <trkpt lat="42.11978" lon="2.42471">
        <ele>545.7</ele>
        <time>2019-04-12T09:51:53Z</time>
      </trkpt>
      <trkpt lat="42.11974" lon="2.42487">
        <ele>543.7</ele>
        <time>2019-04-12T09:51:58Z</time>
      </trkpt>
      <trkpt lat="42.11964" lon="2.42503">
        <ele>542.6</ele>
        <time>2019-04-12T09:52:04Z</time>
      </trkpt>
      <trkpt lat="42.11956" lon="2.4251">
        <ele>541.9</ele>
        <time>2019-04-12T09:52:08Z</time>
      </trkpt>
      <trkpt lat="42.11935" lon="2.42512">
        <ele>541.7</ele>
        <time>2019-04-12T09:52:17Z</time>
      </trkpt>
      <trkpt lat="42.11922" lon="2.42523">
        <ele>538.2</ele>
        <time>2019-04-12T09:52:23Z</time>
      </trkpt>
      <trkpt lat="42.11906" lon="2.42529">
        <ele>536.1</ele>
        <time>2019-04-12T09:52:30Z</time>
      </trkpt>
      <trkpt lat="42.11896" lon="2.42535">
        <ele>534.9</ele>
        <time>2019-04-12T09:52:34Z</time>
      </trkpt>
      <trkpt lat="42.11896" lon="2.42535">
        <ele>534.9</ele>
        <time>2019-04-12T09:52:34Z</time>
      </trkpt>
      <trkpt lat="42.11896" lon="2.42535">
        <ele>535</ele>
        <time>2019-04-12T09:52:34Z</time>
      </trkpt>
      <trkpt lat="42.11896" lon="2.42535">
        <ele>535</ele>
        <time>2019-04-12T09:52:34Z</time>
      </trkpt>
      <trkpt lat="42.119" lon="2.42553">
        <ele>533.4</ele>
        <time>2019-04-12T09:52:39Z</time>
      </trkpt>
      <trkpt lat="42.11901" lon="2.42566">
        <ele>532.2</ele>
        <time>2019-04-12T09:52:43Z</time>
      </trkpt>
      <trkpt lat="42.11901" lon="2.42566">
        <ele>532.2</ele>
        <time>2019-04-12T09:52:43Z</time>
      </trkpt>
      <trkpt lat="42.11901" lon="2.42566">
        <ele>532.1</ele>
        <time>2019-04-12T09:52:43Z</time>
      </trkpt>
      <trkpt lat="42.11895" lon="2.42577">
        <ele>531.3</ele>
        <time>2019-04-12T09:52:47Z</time>
      </trkpt>
      <trkpt lat="42.11881" lon="2.42591">
        <ele>533.3</ele>
        <time>2019-04-12T09:52:54Z</time>
      </trkpt>
      <trkpt lat="42.11873" lon="2.42616">
        <ele>535.1</ele>
        <time>2019-04-12T09:53:02Z</time>
      </trkpt>
      <trkpt lat="42.11871" lon="2.42633">
        <ele>534.8</ele>
        <time>2019-04-12T09:53:07Z</time>
      </trkpt>
      <trkpt lat="42.11873" lon="2.4266">
        <ele>533.8</ele>
        <time>2019-04-12T09:53:15Z</time>
      </trkpt>
      <trkpt lat="42.1187" lon="2.42684">
        <ele>533.2</ele>
        <time>2019-04-12T09:53:22Z</time>
      </trkpt>
      <trkpt lat="42.11866" lon="2.42705">
        <ele>532.2</ele>
        <time>2019-04-12T09:53:29Z</time>
      </trkpt>
      <trkpt lat="42.1186" lon="2.42728">
        <ele>530.8</ele>
        <time>2019-04-12T09:53:36Z</time>
      </trkpt>
      <trkpt lat="42.11857" lon="2.4274">
        <ele>530.4</ele>
        <time>2019-04-12T09:53:40Z</time>
      </trkpt>
      <trkpt lat="42.11856" lon="2.42769">
        <ele>528.7</ele>
        <time>2019-04-12T09:53:48Z</time>
      </trkpt>
      <trkpt lat="42.11853" lon="2.42794">
        <ele>527.5</ele>
        <time>2019-04-12T09:53:56Z</time>
      </trkpt>
      <trkpt lat="42.11849" lon="2.4281">
        <ele>526.8</ele>
        <time>2019-04-12T09:54:01Z</time>
      </trkpt>
      <trkpt lat="42.11847" lon="2.42835">
        <ele>525.4</ele>
        <time>2019-04-12T09:54:09Z</time>
      </trkpt>
      <trkpt lat="42.1185" lon="2.42861">
        <ele>524.1</ele>
        <time>2019-04-12T09:54:16Z</time>
      </trkpt>
      <trkpt lat="42.11857" lon="2.42878">
        <ele>523.3</ele>
        <time>2019-04-12T09:54:22Z</time>
      </trkpt>
      <trkpt lat="42.11874" lon="2.42897">
        <ele>521.9</ele>
        <time>2019-04-12T09:54:31Z</time>
      </trkpt>
      <trkpt lat="42.11878" lon="2.42914">
        <ele>520.7</ele>
        <time>2019-04-12T09:54:36Z</time>
      </trkpt>
      <trkpt lat="42.11881" lon="2.42941">
        <ele>519.3</ele>
        <time>2019-04-12T09:54:44Z</time>
      </trkpt>
      <trkpt lat="42.11884" lon="2.42958">
        <ele>518.5</ele>
        <time>2019-04-12T09:54:49Z</time>
      </trkpt>
      <trkpt lat="42.11887" lon="2.42978">
        <ele>517.6</ele>
        <time>2019-04-12T09:54:55Z</time>
      </trkpt>
      <trkpt lat="42.11893" lon="2.43007">
        <ele>515.7</ele>
        <time>2019-04-12T09:55:04Z</time>
      </trkpt>
      <trkpt lat="42.11895" lon="2.4302">
        <ele>515</ele>
        <time>2019-04-12T09:55:08Z</time>
      </trkpt>
      <trkpt lat="42.11898" lon="2.43047">
        <ele>513.1</ele>
        <time>2019-04-12T09:55:16Z</time>
      </trkpt>
      <trkpt lat="42.11898" lon="2.4307">
        <ele>511.5</ele>
        <time>2019-04-12T09:55:23Z</time>
      </trkpt>
      <trkpt lat="42.1191" lon="2.43097">
        <ele>509.6</ele>
        <time>2019-04-12T09:55:33Z</time>
      </trkpt>
      <trkpt lat="42.1192" lon="2.43115">
        <ele>508.9</ele>
        <time>2019-04-12T09:55:39Z</time>
      </trkpt>
      <trkpt lat="42.11931" lon="2.43133">
        <ele>508.2</ele>
        <time>2019-04-12T09:55:46Z</time>
      </trkpt>
      <trkpt lat="42.11943" lon="2.43153">
        <ele>507.5</ele>
        <time>2019-04-12T09:55:54Z</time>
      </trkpt>
      <trkpt lat="42.11948" lon="2.43167">
        <ele>506.6</ele>
        <time>2019-04-12T09:55:58Z</time>
      </trkpt>
      <trkpt lat="42.1194" lon="2.4319">
        <ele>504.6</ele>
        <time>2019-04-12T09:56:06Z</time>
      </trkpt>
      <trkpt lat="42.11932" lon="2.43203">
        <ele>503.9</ele>
        <time>2019-04-12T09:56:11Z</time>
      </trkpt>
      <trkpt lat="42.11921" lon="2.43226">
        <ele>503.3</ele>
        <time>2019-04-12T09:56:19Z</time>
      </trkpt>
      <trkpt lat="42.11911" lon="2.4324">
        <ele>503</ele>
        <time>2019-04-12T09:56:25Z</time>
      </trkpt>
      <trkpt lat="42.11904" lon="2.43265">
        <ele>501.6</ele>
        <time>2019-04-12T09:56:33Z</time>
      </trkpt>
      <trkpt lat="42.11899" lon="2.43284">
        <ele>501.3</ele>
        <time>2019-04-12T09:56:39Z</time>
      </trkpt>
      <trkpt lat="42.11905" lon="2.43306">
        <ele>500.3</ele>
        <time>2019-04-12T09:56:46Z</time>
      </trkpt>
      <trkpt lat="42.11909" lon="2.43331">
        <ele>500.2</ele>
        <time>2019-04-12T09:56:54Z</time>
      </trkpt>
      <trkpt lat="42.11919" lon="2.4336">
        <ele>499.6</ele>
        <time>2019-04-12T09:57:03Z</time>
      </trkpt>
      <trkpt lat="42.11926" lon="2.43371">
        <ele>498.7</ele>
        <time>2019-04-12T09:57:07Z</time>
      </trkpt>
      <trkpt lat="42.11939" lon="2.43392">
        <ele>498.3</ele>
        <time>2019-04-12T09:57:15Z</time>
      </trkpt>
      <trkpt lat="42.11946" lon="2.43419">
        <ele>498</ele>
        <time>2019-04-12T09:57:24Z</time>
      </trkpt>
      <trkpt lat="42.11952" lon="2.43441">
        <ele>496.9</ele>
        <time>2019-04-12T09:57:31Z</time>
      </trkpt>
      <trkpt lat="42.11957" lon="2.43455">
        <ele>496.4</ele>
        <time>2019-04-12T09:57:35Z</time>
      </trkpt>
      <trkpt lat="42.11965" lon="2.43479">
        <ele>495.8</ele>
        <time>2019-04-12T09:57:43Z</time>
      </trkpt>
      <trkpt lat="42.11969" lon="2.43492">
        <ele>495.4</ele>
        <time>2019-04-12T09:57:48Z</time>
      </trkpt>
      <trkpt lat="42.1198" lon="2.43513">
        <ele>495.1</ele>
        <time>2019-04-12T09:57:55Z</time>
      </trkpt>
      <trkpt lat="42.11994" lon="2.43535">
        <ele>494.7</ele>
        <time>2019-04-12T09:58:04Z</time>
      </trkpt>
      <trkpt lat="42.12007" lon="2.43555">
        <ele>494</ele>
        <time>2019-04-12T09:58:12Z</time>
      </trkpt>
      <trkpt lat="42.12015" lon="2.43568">
        <ele>493.5</ele>
        <time>2019-04-12T09:58:17Z</time>
      </trkpt>
      <trkpt lat="42.12023" lon="2.4358">
        <ele>493.2</ele>
        <time>2019-04-12T09:58:21Z</time>
      </trkpt>
      <trkpt lat="42.12023" lon="2.4358">
        <ele>493.1</ele>
        <time>2019-04-12T09:58:21Z</time>
      </trkpt>
      <trkpt lat="42.12023" lon="2.4358">
        <ele>493.2</ele>
        <time>2019-04-12T09:58:21Z</time>
      </trkpt>
      <trkpt lat="42.12035" lon="2.43611">
        <ele>492.8</ele>
        <time>2019-04-12T09:58:32Z</time>
      </trkpt>
      <trkpt lat="42.12038" lon="2.4362">
        <ele>492.4</ele>
        <time>2019-04-12T09:58:35Z</time>
      </trkpt>
      <trkpt lat="42.12045" lon="2.43639">
        <ele>492.1</ele>
        <time>2019-04-12T09:58:41Z</time>
      </trkpt>
      <trkpt lat="42.1205" lon="2.43659">
        <ele>491.4</ele>
        <time>2019-04-12T09:58:47Z</time>
      </trkpt>
      <trkpt lat="42.12056" lon="2.43687">
        <ele>490.4</ele>
        <time>2019-04-12T09:58:56Z</time>
      </trkpt>
      <trkpt lat="42.12056" lon="2.43712">
        <ele>490</ele>
        <time>2019-04-12T09:59:03Z</time>
      </trkpt>
      <trkpt lat="42.1205" lon="2.43743">
        <ele>489.2</ele>
        <time>2019-04-12T09:59:13Z</time>
      </trkpt>
      <trkpt lat="42.12045" lon="2.43769">
        <ele>488.3</ele>
        <time>2019-04-12T09:59:21Z</time>
      </trkpt>
      <trkpt lat="42.12053" lon="2.43786">
        <ele>487.8</ele>
        <time>2019-04-12T09:59:27Z</time>
      </trkpt>
      <trkpt lat="42.12062" lon="2.43805">
        <ele>487.1</ele>
        <time>2019-04-12T09:59:34Z</time>
      </trkpt>
      <trkpt lat="42.12073" lon="2.43827">
        <ele>487.1</ele>
        <time>2019-04-12T09:59:41Z</time>
      </trkpt>
      <trkpt lat="42.12082" lon="2.43848">
        <ele>486.6</ele>
        <time>2019-04-12T09:59:49Z</time>
      </trkpt>
      <trkpt lat="42.12087" lon="2.43868">
        <ele>486.1</ele>
        <time>2019-04-12T09:59:55Z</time>
      </trkpt>
      <trkpt lat="42.12096" lon="2.43892">
        <ele>485.5</ele>
        <time>2019-04-12T10:00:03Z</time>
      </trkpt>
      <trkpt lat="42.12103" lon="2.43915">
        <ele>484.3</ele>
        <time>2019-04-12T10:00:10Z</time>
      </trkpt>
      <trkpt lat="42.1211" lon="2.43932">
        <ele>484.2</ele>
        <time>2019-04-12T10:00:16Z</time>
      </trkpt>
      <trkpt lat="42.12119" lon="2.43956">
        <ele>484</ele>
        <time>2019-04-12T10:00:24Z</time>
      </trkpt>
      <trkpt lat="42.12125" lon="2.43971">
        <ele>483.5</ele>
        <time>2019-04-12T10:00:29Z</time>
      </trkpt>
      <trkpt lat="42.12131" lon="2.43995">
        <ele>483</ele>
        <time>2019-04-12T10:00:37Z</time>
      </trkpt>
      <trkpt lat="42.12137" lon="2.44015">
        <ele>482.5</ele>
        <time>2019-04-12T10:00:43Z</time>
      </trkpt>
      <trkpt lat="42.12142" lon="2.44033">
        <ele>482.1</ele>
        <time>2019-04-12T10:00:49Z</time>
      </trkpt>
      <trkpt lat="42.12146" lon="2.4405">
        <ele>482.1</ele>
        <time>2019-04-12T10:00:54Z</time>
      </trkpt>
      <trkpt lat="42.12154" lon="2.44077">
        <ele>481.2</ele>
        <time>2019-04-12T10:01:03Z</time>
      </trkpt>
      <trkpt lat="42.12157" lon="2.44089">
        <ele>481.1</ele>
        <time>2019-04-12T10:01:06Z</time>
      </trkpt>
      <trkpt lat="42.12162" lon="2.44109">
        <ele>481</ele>
        <time>2019-04-12T10:01:13Z</time>
      </trkpt>
      <trkpt lat="42.12167" lon="2.44136">
        <ele>480.1</ele>
        <time>2019-04-12T10:01:21Z</time>
      </trkpt>
      <trkpt lat="42.12172" lon="2.44161">
        <ele>480</ele>
        <time>2019-04-12T10:01:29Z</time>
      </trkpt>
      <trkpt lat="42.12177" lon="2.44189">
        <ele>479.7</ele>
        <time>2019-04-12T10:01:37Z</time>
      </trkpt>
      <trkpt lat="42.12181" lon="2.44217">
        <ele>479.1</ele>
        <time>2019-04-12T10:01:45Z</time>
      </trkpt>
      <trkpt lat="42.12184" lon="2.44239">
        <ele>478.4</ele>
        <time>2019-04-12T10:01:52Z</time>
      </trkpt>
      <trkpt lat="42.12184" lon="2.44252">
        <ele>478</ele>
        <time>2019-04-12T10:01:56Z</time>
      </trkpt>
      <trkpt lat="42.12186" lon="2.44267">
        <ele>478</ele>
        <time>2019-04-12T10:02:01Z</time>
      </trkpt>
      <trkpt lat="42.12189" lon="2.44294">
        <ele>477.5</ele>
        <time>2019-04-12T10:02:09Z</time>
      </trkpt>
      <trkpt lat="42.12191" lon="2.44322">
        <ele>477.1</ele>
        <time>2019-04-12T10:02:17Z</time>
      </trkpt>
      <trkpt lat="42.12196" lon="2.44349">
        <ele>476.5</ele>
        <time>2019-04-12T10:02:25Z</time>
      </trkpt>
      <trkpt lat="42.12201" lon="2.44376">
        <ele>476</ele>
        <time>2019-04-12T10:02:34Z</time>
      </trkpt>
      <trkpt lat="42.12205" lon="2.44401">
        <ele>475.7</ele>
        <time>2019-04-12T10:02:41Z</time>
      </trkpt>
      <trkpt lat="42.12206" lon="2.44423">
        <ele>475</ele>
        <time>2019-04-12T10:02:48Z</time>
      </trkpt>
      <trkpt lat="42.12212" lon="2.4445">
        <ele>474.9</ele>
        <time>2019-04-12T10:02:56Z</time>
      </trkpt>
      <trkpt lat="42.12214" lon="2.44459">
        <ele>474.6</ele>
        <time>2019-04-12T10:02:59Z</time>
      </trkpt>
      <trkpt lat="42.12217" lon="2.44483">
        <ele>474.1</ele>
        <time>2019-04-12T10:03:06Z</time>
      </trkpt>
      <trkpt lat="42.1222" lon="2.44503">
        <ele>474.1</ele>
        <time>2019-04-12T10:03:12Z</time>
      </trkpt>
      <trkpt lat="42.12225" lon="2.44531">
        <ele>474.1</ele>
        <time>2019-04-12T10:03:21Z</time>
      </trkpt>
      <trkpt lat="42.12229" lon="2.44545">
        <ele>474</ele>
        <time>2019-04-12T10:03:25Z</time>
      </trkpt>
      <trkpt lat="42.12232" lon="2.44559">
        <ele>473.7</ele>
        <time>2019-04-12T10:03:29Z</time>
      </trkpt>
      <trkpt lat="42.12232" lon="2.44577">
        <ele>473.3</ele>
        <time>2019-04-12T10:03:35Z</time>
      </trkpt>
      <trkpt lat="42.12223" lon="2.446">
        <ele>473.1</ele>
        <time>2019-04-12T10:03:42Z</time>
      </trkpt>
      <trkpt lat="42.12212" lon="2.4462">
        <ele>473</ele>
        <time>2019-04-12T10:03:50Z</time>
      </trkpt>
      <trkpt lat="42.12204" lon="2.44639">
        <ele>473</ele>
        <time>2019-04-12T10:03:56Z</time>
      </trkpt>
      <trkpt lat="42.12204" lon="2.44639">
        <ele>473</ele>
        <time>2019-04-12T10:03:56Z</time>
      </trkpt>
      <trkpt lat="42.12204" lon="2.44639">
        <ele>473</ele>
        <time>2019-04-12T10:03:56Z</time>
      </trkpt>
      <trkpt lat="42.12204" lon="2.44639">
        <ele>473</ele>
        <time>2019-04-12T10:03:56Z</time>
      </trkpt>
      <trkpt lat="42.12198" lon="2.44667">
        <ele>473</ele>
        <time>2019-04-12T10:04:05Z</time>
      </trkpt>
      <trkpt lat="42.12188" lon="2.44687">
        <ele>472.3</ele>
        <time>2019-04-12T10:04:12Z</time>
      </trkpt>
      <trkpt lat="42.12177" lon="2.44707">
        <ele>471.9</ele>
        <time>2019-04-12T10:04:20Z</time>
      </trkpt>
      <trkpt lat="42.12169" lon="2.44724">
        <ele>472</ele>
        <time>2019-04-12T10:04:26Z</time>
      </trkpt>
      <trkpt lat="42.12159" lon="2.44742">
        <ele>472</ele>
        <time>2019-04-12T10:04:32Z</time>
      </trkpt>
      <trkpt lat="42.12146" lon="2.44762">
        <ele>472</ele>
        <time>2019-04-12T10:04:40Z</time>
      </trkpt>
      <trkpt lat="42.12137" lon="2.44783">
        <ele>472</ele>
        <time>2019-04-12T10:04:47Z</time>
      </trkpt>
      <trkpt lat="42.12129" lon="2.4481">
        <ele>472.1</ele>
        <time>2019-04-12T10:04:56Z</time>
      </trkpt>
      <trkpt lat="42.12123" lon="2.44835">
        <ele>471.9</ele>
        <time>2019-04-12T10:05:04Z</time>
      </trkpt>
      <trkpt lat="42.12117" lon="2.4486">
        <ele>470.5</ele>
        <time>2019-04-12T10:05:11Z</time>
      </trkpt>
      <trkpt lat="42.12115" lon="2.44872">
        <ele>470.8</ele>
        <time>2019-04-12T10:05:15Z</time>
      </trkpt>
      <trkpt lat="42.12115" lon="2.44903">
        <ele>471.9</ele>
        <time>2019-04-12T10:05:24Z</time>
      </trkpt>
      <trkpt lat="42.12119" lon="2.44932">
        <ele>472</ele>
        <time>2019-04-12T10:05:33Z</time>
      </trkpt>
      <trkpt lat="42.12121" lon="2.44947">
        <ele>472.2</ele>
        <time>2019-04-12T10:05:38Z</time>
      </trkpt>
      <trkpt lat="42.12127" lon="2.44969">
        <ele>472.5</ele>
        <time>2019-04-12T10:05:45Z</time>
      </trkpt>
      <trkpt lat="42.12129" lon="2.44995">
        <ele>472.9</ele>
        <time>2019-04-12T10:05:52Z</time>
      </trkpt>
      <trkpt lat="42.12129" lon="2.45016">
        <ele>473.5</ele>
        <time>2019-04-12T10:05:59Z</time>
      </trkpt>
      <trkpt lat="42.12124" lon="2.45042">
        <ele>474.1</ele>
        <time>2019-04-12T10:06:07Z</time>
      </trkpt>
      <trkpt lat="42.12115" lon="2.45056">
        <ele>474.2</ele>
        <time>2019-04-12T10:06:12Z</time>
      </trkpt>
      <trkpt lat="42.12102" lon="2.45072">
        <ele>474.1</ele>
        <time>2019-04-12T10:06:19Z</time>
      </trkpt>
      <trkpt lat="42.12091" lon="2.45095">
        <ele>474.5</ele>
        <time>2019-04-12T10:06:27Z</time>
      </trkpt>
      <trkpt lat="42.12084" lon="2.45108">
        <ele>474.9</ele>
        <time>2019-04-12T10:06:32Z</time>
      </trkpt>
      <trkpt lat="42.12074" lon="2.45124">
        <ele>474.8</ele>
        <time>2019-04-12T10:06:38Z</time>
      </trkpt>
      <trkpt lat="42.12068" lon="2.45135">
        <ele>475</ele>
        <time>2019-04-12T10:06:42Z</time>
      </trkpt>
      <trkpt lat="42.12059" lon="2.4515">
        <ele>475.5</ele>
        <time>2019-04-12T10:06:48Z</time>
      </trkpt>
      <trkpt lat="42.12052" lon="2.45164">
        <ele>475.9</ele>
        <time>2019-04-12T10:06:53Z</time>
      </trkpt>
      <trkpt lat="42.1205" lon="2.45184">
        <ele>476.5</ele>
        <time>2019-04-12T10:06:59Z</time>
      </trkpt>
      <trkpt lat="42.12047" lon="2.45196">
        <ele>477.2</ele>
        <time>2019-04-12T10:07:03Z</time>
      </trkpt>
      <trkpt lat="42.12047" lon="2.45196">
        <ele>477.3</ele>
        <time>2019-04-12T10:07:03Z</time>
      </trkpt>
      <trkpt lat="42.12047" lon="2.45196">
        <ele>477.2</ele>
        <time>2019-04-12T10:07:03Z</time>
      </trkpt>
      <trkpt lat="42.12038" lon="2.45201">
        <ele>477.6</ele>
        <time>2019-04-12T10:07:07Z</time>
      </trkpt>
      <trkpt lat="42.12011" lon="2.45227">
        <ele>477.4</ele>
        <time>2019-04-12T10:07:20Z</time>
      </trkpt>
      <trkpt lat="42.12008" lon="2.45242">
        <ele>477.5</ele>
        <time>2019-04-12T10:07:25Z</time>
      </trkpt>
      <trkpt lat="42.11999" lon="2.45272">
        <ele>477.1</ele>
        <time>2019-04-12T10:07:34Z</time>
      </trkpt>
      <trkpt lat="42.11984" lon="2.45283">
        <ele>476.7</ele>
        <time>2019-04-12T10:07:41Z</time>
      </trkpt>
      <trkpt lat="42.11968" lon="2.45293">
        <ele>476.6</ele>
        <time>2019-04-12T10:07:48Z</time>
      </trkpt>
      <trkpt lat="42.11951" lon="2.45304">
        <ele>476.3</ele>
        <time>2019-04-12T10:07:56Z</time>
      </trkpt>
      <trkpt lat="42.11936" lon="2.4531">
        <ele>476.2</ele>
        <time>2019-04-12T10:08:02Z</time>
      </trkpt>
      <trkpt lat="42.11927" lon="2.45317">
        <ele>476.5</ele>
        <time>2019-04-12T10:08:06Z</time>
      </trkpt>
      <trkpt lat="42.11918" lon="2.45321">
        <ele>476.6</ele>
        <time>2019-04-12T10:08:10Z</time>
      </trkpt>
      <trkpt lat="42.11918" lon="2.45321">
        <ele>476.6</ele>
        <time>2019-04-12T10:08:10Z</time>
      </trkpt>
      <trkpt lat="42.11918" lon="2.45321">
        <ele>476.5</ele>
        <time>2019-04-12T10:08:10Z</time>
      </trkpt>
      <trkpt lat="42.11891" lon="2.45336">
        <ele>477.1</ele>
        <time>2019-04-12T10:08:22Z</time>
      </trkpt>
      <trkpt lat="42.11875" lon="2.45347">
        <ele>477.2</ele>
        <time>2019-04-12T10:08:29Z</time>
      </trkpt>
      <trkpt lat="42.11862" lon="2.45354">
        <ele>477</ele>
        <time>2019-04-12T10:08:34Z</time>
      </trkpt>
      <trkpt lat="42.11849" lon="2.45362">
        <ele>477.1</ele>
        <time>2019-04-12T10:08:40Z</time>
      </trkpt>
      <trkpt lat="42.11831" lon="2.45377">
        <ele>477.1</ele>
        <time>2019-04-12T10:08:49Z</time>
      </trkpt>
      <trkpt lat="42.11821" lon="2.45383">
        <ele>477.5</ele>
        <time>2019-04-12T10:08:53Z</time>
      </trkpt>
      <trkpt lat="42.11804" lon="2.45392">
        <ele>477.9</ele>
        <time>2019-04-12T10:09:00Z</time>
      </trkpt>
      <trkpt lat="42.11793" lon="2.45399">
        <ele>477.6</ele>
        <time>2019-04-12T10:09:05Z</time>
      </trkpt>
      <trkpt lat="42.11778" lon="2.45407">
        <ele>477.4</ele>
        <time>2019-04-12T10:09:12Z</time>
      </trkpt>
      <trkpt lat="42.11778" lon="2.45407">
        <ele>477.3</ele>
        <time>2019-04-12T10:09:12Z</time>
      </trkpt>
      <trkpt lat="42.11778" lon="2.45407">
        <ele>477.4</ele>
        <time>2019-04-12T10:09:12Z</time>
      </trkpt>
    </trkseg>
  </trk>
</gpx>